<?xml version='1.0' encoding='UTF-8'?><gpx version="1.1" creator="JPX - https://github.com/jenetics/jpx" xmlns="http://www.topografix.com/GPX/1/1"><trk><trkseg><trkpt lat="43.2226583" lon="13.1333683"><ele>255.0</ele><time>2026-05-02T07:34:15.982Z</time></trkpt><trkpt lat="43.222665" lon="13.13327"><ele>255.0</ele><time>2026-05-02T07:34:16.984Z</time></trkpt><trkpt lat="43.2226783" lon="13.1331433"><ele>255.0</ele><time>2026-05-02T07:34:17.982Z</time></trkpt><trkpt lat="43.2226967" lon="13.1329983"><ele>255.0</ele><time>2026-05-02T07:34:18.983Z</time></trkpt><trkpt lat="43.222725" lon="13.1328367"><ele>255.0</ele><time>2026-05-02T07:34:19.983Z</time></trkpt><trkpt lat="43.2227483" lon="13.132685"><ele>255.0</ele><time>2026-05-02T07:34:20.983Z</time></trkpt><trkpt lat="43.2227683" lon="13.1325367"><ele>255.0</ele><time>2026-05-02T07:34:21.982Z</time></trkpt><trkpt lat="43.2227833" lon="13.1323983"><ele>255.0</ele><time>2026-05-02T07:34:22.982Z</time></trkpt><trkpt lat="43.2228" lon="13.1322717"><ele>255.0</ele><time>2026-05-02T07:34:23.983Z</time></trkpt><trkpt lat="43.2228217" lon="13.1321433"><ele>255.0</ele><time>2026-05-02T07:34:24.982Z</time></trkpt><trkpt lat="43.22284" lon="13.1320083"><ele>254.8</ele><time>2026-05-02T07:34:25.983Z</time></trkpt><trkpt lat="43.222855" lon="13.1318683"><ele>254.6</ele><time>2026-05-02T07:34:26.982Z</time></trkpt><trkpt lat="43.2228767" lon="13.131725"><ele>254.39999999999998</ele><time>2026-05-02T07:34:27.982Z</time></trkpt><trkpt lat="43.2229117" lon="13.1315783"><ele>254.2</ele><time>2026-05-02T07:34:28.982Z</time></trkpt><trkpt lat="43.22296" lon="13.1314283"><ele>254.0</ele><time>2026-05-02T07:34:29.982Z</time></trkpt><trkpt lat="43.223015" lon="13.131275"><ele>253.75</ele><time>2026-05-02T07:34:30.982Z</time></trkpt><trkpt lat="43.2230767" lon="13.131125"><ele>253.5</ele><time>2026-05-02T07:34:31.981Z</time></trkpt><trkpt lat="43.2231483" lon="13.1309717"><ele>253.25</ele><time>2026-05-02T07:34:32.983Z</time></trkpt><trkpt lat="43.22322" lon="13.1308183"><ele>253.0</ele><time>2026-05-02T07:34:33.982Z</time></trkpt><trkpt lat="43.223285" lon="13.130675"><ele>253.0</ele><time>2026-05-02T07:34:34.981Z</time></trkpt><trkpt lat="43.2233467" lon="13.1305383"><ele>253.0</ele><time>2026-05-02T07:34:35.983Z</time></trkpt><trkpt lat="43.2234083" lon="13.1304017"><ele>253.0</ele><time>2026-05-02T07:34:36.983Z</time></trkpt><trkpt lat="43.22347" lon="13.130265"><ele>253.0</ele><time>2026-05-02T07:34:37.982Z</time></trkpt><trkpt lat="43.2235233" lon="13.13013"><ele>252.99999999999997</ele><time>2026-05-02T07:34:38.983Z</time></trkpt><trkpt lat="43.223565" lon="13.1300017"><ele>253.0</ele><time>2026-05-02T07:34:39.982Z</time></trkpt><trkpt lat="43.2235983" lon="13.12988"><ele>253.0</ele><time>2026-05-02T07:34:40.983Z</time></trkpt><trkpt lat="43.2236117" lon="13.12977"><ele>253.0</ele><time>2026-05-02T07:34:41.983Z</time></trkpt><trkpt lat="43.223595" lon="13.1296767"><ele>252.99999999999997</ele><time>2026-05-02T07:34:42.983Z</time></trkpt><trkpt lat="43.22356" lon="13.1296017"><ele>253.0</ele><time>2026-05-02T07:34:43.982Z</time></trkpt><trkpt lat="43.223515" lon="13.1295217"><ele>252.83333333333331</ele><time>2026-05-02T07:34:44.982Z</time></trkpt><trkpt lat="43.223465" lon="13.12943"><ele>252.66666666666666</ele><time>2026-05-02T07:34:45.983Z</time></trkpt><trkpt lat="43.2234133" lon="13.1293383"><ele>252.5</ele><time>2026-05-02T07:34:46.983Z</time></trkpt><trkpt lat="43.2233667" lon="13.1292383"><ele>252.33333333333331</ele><time>2026-05-02T07:34:47.983Z</time></trkpt><trkpt lat="43.2233267" lon="13.1291283"><ele>252.16666666666666</ele><time>2026-05-02T07:34:48.982Z</time></trkpt><trkpt lat="43.2232917" lon="13.1290133"><ele>252.0</ele><time>2026-05-02T07:34:49.983Z</time></trkpt><trkpt lat="43.2232583" lon="13.12889"><ele>252.0</ele><time>2026-05-02T07:34:50.982Z</time></trkpt><trkpt lat="43.2232283" lon="13.1287633"><ele>252.0</ele><time>2026-05-02T07:34:51.982Z</time></trkpt><trkpt lat="43.2231933" lon="13.12863"><ele>252.0</ele><time>2026-05-02T07:34:52.983Z</time></trkpt><trkpt lat="43.223165" lon="13.1285033"><ele>252.0</ele><time>2026-05-02T07:34:53.983Z</time></trkpt><trkpt lat="43.2231383" lon="13.1283817"><ele>252.0</ele><time>2026-05-02T07:34:54.982Z</time></trkpt><trkpt lat="43.22311" lon="13.1282617"><ele>252.2</ele><time>2026-05-02T07:34:55.983Z</time></trkpt><trkpt lat="43.2230833" lon="13.1281417"><ele>252.39999999999998</ele><time>2026-05-02T07:34:56.983Z</time></trkpt><trkpt lat="43.22305" lon="13.1280083"><ele>252.60000000000002</ele><time>2026-05-02T07:34:57.982Z</time></trkpt><trkpt lat="43.22302" lon="13.1278517"><ele>252.8</ele><time>2026-05-02T07:34:58.981Z</time></trkpt><trkpt lat="43.2229883" lon="13.1276717"><ele>253.0</ele><time>2026-05-02T07:34:59.981Z</time></trkpt><trkpt lat="43.222955" lon="13.1274783"><ele>253.33333333333331</ele><time>2026-05-02T07:35:00.983Z</time></trkpt><trkpt lat="43.2229183" lon="13.1272783"><ele>253.66666666666669</ele><time>2026-05-02T07:35:01.982Z</time></trkpt><trkpt lat="43.222875" lon="13.12708"><ele>254.0</ele><time>2026-05-02T07:35:02.983Z</time></trkpt><trkpt lat="43.2228167" lon="13.12689"><ele>254.0</ele><time>2026-05-02T07:35:03.983Z</time></trkpt><trkpt lat="43.222745" lon="13.1267"><ele>254.0</ele><time>2026-05-02T07:35:04.981Z</time></trkpt><trkpt lat="43.2226583" lon="13.1265"><ele>254.0</ele><time>2026-05-02T07:35:05.982Z</time></trkpt><trkpt lat="43.2225617" lon="13.1263"><ele>253.0</ele><time>2026-05-02T07:35:06.982Z</time></trkpt><trkpt lat="43.222465" lon="13.1261017"><ele>252.0</ele><time>2026-05-02T07:35:07.982Z</time></trkpt><trkpt lat="43.2223717" lon="13.1259067"><ele>251.0</ele><time>2026-05-02T07:35:08.982Z</time></trkpt><trkpt lat="43.2222867" lon="13.12571"><ele>256.0</ele><time>2026-05-02T07:35:09.983Z</time></trkpt><trkpt lat="43.2222083" lon="13.1255017"><ele>261.0</ele><time>2026-05-02T07:35:10.983Z</time></trkpt><trkpt lat="43.22214" lon="13.1252933"><ele>266.0</ele><time>2026-05-02T07:35:11.984Z</time></trkpt><trkpt lat="43.22208" lon="13.1250783"><ele>266.33333333333337</ele><time>2026-05-02T07:35:12.983Z</time></trkpt><trkpt lat="43.2220217" lon="13.1248517"><ele>266.6666666666667</ele><time>2026-05-02T07:35:13.982Z</time></trkpt><trkpt lat="43.2219733" lon="13.1246117"><ele>267.0</ele><time>2026-05-02T07:35:14.984Z</time></trkpt><trkpt lat="43.22193" lon="13.124375"><ele>267.0</ele><time>2026-05-02T07:35:15.981Z</time></trkpt><trkpt lat="43.221905" lon="13.1241317"><ele>267.0</ele><time>2026-05-02T07:35:16.983Z</time></trkpt><trkpt lat="43.2218917" lon="13.1239067"><ele>267.0</ele><time>2026-05-02T07:35:17.982Z</time></trkpt><trkpt lat="43.2218833" lon="13.123685"><ele>266.3333333333333</ele><time>2026-05-02T07:35:18.981Z</time></trkpt><trkpt lat="43.2218667" lon="13.12346"><ele>265.66666666666663</ele><time>2026-05-02T07:35:19.982Z</time></trkpt><trkpt lat="43.2218383" lon="13.1232267"><ele>265.0</ele><time>2026-05-02T07:35:20.981Z</time></trkpt><trkpt lat="43.2217933" lon="13.1229883"><ele>265.0</ele><time>2026-05-02T07:35:21.982Z</time></trkpt><trkpt lat="43.2217467" lon="13.1227383"><ele>265.0</ele><time>2026-05-02T07:35:22.983Z</time></trkpt><trkpt lat="43.22171" lon="13.1224933"><ele>265.0</ele><time>2026-05-02T07:35:23.981Z</time></trkpt><trkpt lat="43.2216817" lon="13.1222517"><ele>265.66666666666663</ele><time>2026-05-02T07:35:24.982Z</time></trkpt><trkpt lat="43.2216683" lon="13.12202"><ele>266.3333333333333</ele><time>2026-05-02T07:35:25.983Z</time></trkpt><trkpt lat="43.2216683" lon="13.1217967"><ele>267.0</ele><time>2026-05-02T07:35:26.982Z</time></trkpt><trkpt lat="43.2216783" lon="13.1215717"><ele>268.6666666666667</ele><time>2026-05-02T07:35:27.982Z</time></trkpt><trkpt lat="43.2216983" lon="13.1213467"><ele>270.33333333333337</ele><time>2026-05-02T07:35:28.981Z</time></trkpt><trkpt lat="43.22173" lon="13.1211133"><ele>272.0</ele><time>2026-05-02T07:35:29.982Z</time></trkpt><trkpt lat="43.2217667" lon="13.120875"><ele>273.6666666666667</ele><time>2026-05-02T07:35:30.982Z</time></trkpt><trkpt lat="43.2218033" lon="13.1206367"><ele>275.3333333333333</ele><time>2026-05-02T07:35:31.981Z</time></trkpt><trkpt lat="43.2218433" lon="13.1203917"><ele>277.0</ele><time>2026-05-02T07:35:32.981Z</time></trkpt><trkpt lat="43.2218817" lon="13.1201467"><ele>278.66666666666663</ele><time>2026-05-02T07:35:33.982Z</time></trkpt><trkpt lat="43.2219217" lon="13.1198967"><ele>280.3333333333333</ele><time>2026-05-02T07:35:34.981Z</time></trkpt><trkpt lat="43.2219617" lon="13.11964"><ele>282.0</ele><time>2026-05-02T07:35:35.981Z</time></trkpt><trkpt lat="43.221995" lon="13.1193917"><ele>282.0</ele><time>2026-05-02T07:35:36.981Z</time></trkpt><trkpt lat="43.22203" lon="13.1191617"><ele>282.0</ele><time>2026-05-02T07:35:37.981Z</time></trkpt><trkpt lat="43.2220733" lon="13.118935"><ele>282.0</ele><time>2026-05-02T07:35:38.982Z</time></trkpt><trkpt lat="43.2221317" lon="13.1187167"><ele>283.6666666666667</ele><time>2026-05-02T07:35:39.982Z</time></trkpt><trkpt lat="43.2221967" lon="13.1184933"><ele>285.33333333333337</ele><time>2026-05-02T07:35:40.982Z</time></trkpt><trkpt lat="43.22227" lon="13.1182717"><ele>287.0</ele><time>2026-05-02T07:35:41.982Z</time></trkpt><trkpt lat="43.2223483" lon="13.1180517"><ele>287.33333333333337</ele><time>2026-05-02T07:35:42.982Z</time></trkpt><trkpt lat="43.222425" lon="13.1178333"><ele>287.6666666666667</ele><time>2026-05-02T07:35:43.981Z</time></trkpt><trkpt lat="43.2225017" lon="13.117615"><ele>288.0</ele><time>2026-05-02T07:35:44.982Z</time></trkpt><trkpt lat="43.2225833" lon="13.1173917"><ele>288.0</ele><time>2026-05-02T07:35:45.981Z</time></trkpt><trkpt lat="43.2226667" lon="13.117165"><ele>288.0</ele><time>2026-05-02T07:35:46.982Z</time></trkpt><trkpt lat="43.222755" lon="13.1169383"><ele>288.0</ele><time>2026-05-02T07:35:47.981Z</time></trkpt><trkpt lat="43.2228383" lon="13.1167233"><ele>289.25</ele><time>2026-05-02T07:35:48.982Z</time></trkpt><trkpt lat="43.2229167" lon="13.1165283"><ele>290.5</ele><time>2026-05-02T07:35:49.981Z</time></trkpt><trkpt lat="43.22299" lon="13.11635"><ele>291.75</ele><time>2026-05-02T07:35:50.982Z</time></trkpt><trkpt lat="43.2230533" lon="13.116185"><ele>293.0</ele><time>2026-05-02T07:35:51.982Z</time></trkpt><trkpt lat="43.223105" lon="13.1160367"><ele>293.0</ele><time>2026-05-02T07:35:52.981Z</time></trkpt><trkpt lat="43.2231317" lon="13.1158933"><ele>293.0</ele><time>2026-05-02T07:35:53.983Z</time></trkpt><trkpt lat="43.2231367" lon="13.1157567"><ele>293.0</ele><time>2026-05-02T07:35:54.982Z</time></trkpt><trkpt lat="43.223115" lon="13.1156217"><ele>293.0</ele><time>2026-05-02T07:35:55.983Z</time></trkpt><trkpt lat="43.2230667" lon="13.1154817"><ele>293.0</ele><time>2026-05-02T07:35:56.983Z</time></trkpt><trkpt lat="43.222985" lon="13.1153333"><ele>289.33333333333337</ele><time>2026-05-02T07:35:57.983Z</time></trkpt><trkpt lat="43.2228783" lon="13.1151683"><ele>285.6666666666667</ele><time>2026-05-02T07:35:58.982Z</time></trkpt><trkpt lat="43.2227717" lon="13.1149933"><ele>282.0</ele><time>2026-05-02T07:35:59.982Z</time></trkpt><trkpt lat="43.2226783" lon="13.1148217"><ele>279.25</ele><time>2026-05-02T07:36:00.983Z</time></trkpt><trkpt lat="43.2225967" lon="13.1146533"><ele>276.5</ele><time>2026-05-02T07:36:01.981Z</time></trkpt><trkpt lat="43.2225267" lon="13.1144733"><ele>273.75</ele><time>2026-05-02T07:36:02.981Z</time></trkpt><trkpt lat="43.2224733" lon="13.11428"><ele>271.0</ele><time>2026-05-02T07:36:03.982Z</time></trkpt><trkpt lat="43.2224383" lon="13.114065"><ele>270.0</ele><time>2026-05-02T07:36:04.981Z</time></trkpt><trkpt lat="43.222415" lon="13.1138367"><ele>269.0</ele><time>2026-05-02T07:36:05.981Z</time></trkpt><trkpt lat="43.2224017" lon="13.1136133"><ele>268.0</ele><time>2026-05-02T07:36:06.982Z</time></trkpt><trkpt lat="43.22239" lon="13.11339"><ele>266.0</ele><time>2026-05-02T07:36:07.981Z</time></trkpt><trkpt lat="43.2223733" lon="13.1131633"><ele>264.0</ele><time>2026-05-02T07:36:08.982Z</time></trkpt><trkpt lat="43.2223517" lon="13.11293"><ele>262.0</ele><time>2026-05-02T07:36:09.981Z</time></trkpt><trkpt lat="43.2223167" lon="13.11268"><ele>270.66666666666663</ele><time>2026-05-02T07:36:10.982Z</time></trkpt><trkpt lat="43.2222683" lon="13.1124233"><ele>279.3333333333333</ele><time>2026-05-02T07:36:11.982Z</time></trkpt><trkpt lat="43.2222167" lon="13.1121733"><ele>288.0</ele><time>2026-05-02T07:36:12.982Z</time></trkpt><trkpt lat="43.22216" lon="13.111935"><ele>288.0</ele><time>2026-05-02T07:36:13.981Z</time></trkpt><trkpt lat="43.2221017" lon="13.111695"><ele>288.0</ele><time>2026-05-02T07:36:14.982Z</time></trkpt><trkpt lat="43.222045" lon="13.1114467"><ele>288.0</ele><time>2026-05-02T07:36:15.981Z</time></trkpt><trkpt lat="43.2219933" lon="13.111195"><ele>285.3333333333333</ele><time>2026-05-02T07:36:16.982Z</time></trkpt><trkpt lat="43.2219433" lon="13.1109433"><ele>282.66666666666663</ele><time>2026-05-02T07:36:17.982Z</time></trkpt><trkpt lat="43.2218967" lon="13.1106917"><ele>280.0</ele><time>2026-05-02T07:36:18.982Z</time></trkpt><trkpt lat="43.2218533" lon="13.110435"><ele>278.3333333333333</ele><time>2026-05-02T07:36:19.982Z</time></trkpt><trkpt lat="43.2218117" lon="13.11018"><ele>276.6666666666667</ele><time>2026-05-02T07:36:20.982Z</time></trkpt><trkpt lat="43.2217717" lon="13.1099267"><ele>275.0</ele><time>2026-05-02T07:36:21.981Z</time></trkpt><trkpt lat="43.2217333" lon="13.1096767"><ele>273.0</ele><time>2026-05-02T07:36:22.981Z</time></trkpt><trkpt lat="43.2216967" lon="13.109435"><ele>271.0</ele><time>2026-05-02T07:36:23.981Z</time></trkpt><trkpt lat="43.2216633" lon="13.1092033"><ele>269.0</ele><time>2026-05-02T07:36:24.982Z</time></trkpt><trkpt lat="43.2216317" lon="13.1089667"><ele>268.0</ele><time>2026-05-02T07:36:25.983Z</time></trkpt><trkpt lat="43.2215967" lon="13.1087333"><ele>267.0</ele><time>2026-05-02T07:36:26.981Z</time></trkpt><trkpt lat="43.2215567" lon="13.1084917"><ele>266.0</ele><time>2026-05-02T07:36:27.982Z</time></trkpt><trkpt lat="43.221515" lon="13.1082433"><ele>277.33333333333337</ele><time>2026-05-02T07:36:28.983Z</time></trkpt><trkpt lat="43.2214717" lon="13.108005"><ele>288.6666666666667</ele><time>2026-05-02T07:36:29.982Z</time></trkpt><trkpt lat="43.2214317" lon="13.1077583"><ele>300.0</ele><time>2026-05-02T07:36:30.981Z</time></trkpt><trkpt lat="43.2213883" lon="13.1075117"><ele>297.0</ele><time>2026-05-02T07:36:31.981Z</time></trkpt><trkpt lat="43.2213483" lon="13.1072617"><ele>294.0</ele><time>2026-05-02T07:36:32.982Z</time></trkpt><trkpt lat="43.2213067" lon="13.1070083"><ele>291.0</ele><time>2026-05-02T07:36:33.981Z</time></trkpt><trkpt lat="43.22127" lon="13.1067583"><ele>288.0</ele><time>2026-05-02T07:36:34.983Z</time></trkpt><trkpt lat="43.2212283" lon="13.10652"><ele>285.0</ele><time>2026-05-02T07:36:35.981Z</time></trkpt><trkpt lat="43.2211833" lon="13.1062817"><ele>282.0</ele><time>2026-05-02T07:36:36.982Z</time></trkpt><trkpt lat="43.221145" lon="13.1060467"><ele>282.0</ele><time>2026-05-02T07:36:37.981Z</time></trkpt><trkpt lat="43.2210967" lon="13.1058067"><ele>282.0</ele><time>2026-05-02T07:36:38.982Z</time></trkpt><trkpt lat="43.2210483" lon="13.1055667"><ele>282.0</ele><time>2026-05-02T07:36:39.982Z</time></trkpt><trkpt lat="43.2209983" lon="13.10535"><ele>279.6666666666667</ele><time>2026-05-02T07:36:40.982Z</time></trkpt><trkpt lat="43.2209483" lon="13.10515"><ele>277.33333333333337</ele><time>2026-05-02T07:36:41.982Z</time></trkpt><trkpt lat="43.2208967" lon="13.1049483"><ele>275.0</ele><time>2026-05-02T07:36:42.982Z</time></trkpt><trkpt lat="43.2208483" lon="13.1047617"><ele>274.0</ele><time>2026-05-02T07:36:43.982Z</time></trkpt><trkpt lat="43.2208" lon="13.104585"><ele>273.0</ele><time>2026-05-02T07:36:44.981Z</time></trkpt><trkpt lat="43.2207483" lon="13.1044167"><ele>272.0</ele><time>2026-05-02T07:36:45.982Z</time></trkpt><trkpt lat="43.2206967" lon="13.1042583"><ele>271.0</ele><time>2026-05-02T07:36:46.981Z</time></trkpt><trkpt lat="43.2206467" lon="13.1041133"><ele>272.8</ele><time>2026-05-02T07:36:47.982Z</time></trkpt><trkpt lat="43.2205967" lon="13.1039817"><ele>274.6</ele><time>2026-05-02T07:36:48.982Z</time></trkpt><trkpt lat="43.2205517" lon="13.10386"><ele>276.4</ele><time>2026-05-02T07:36:49.981Z</time></trkpt><trkpt lat="43.2205117" lon="13.1037417"><ele>278.2</ele><time>2026-05-02T07:36:50.981Z</time></trkpt><trkpt lat="43.2204733" lon="13.1036183"><ele>280.0</ele><time>2026-05-02T07:36:51.981Z</time></trkpt><trkpt lat="43.2204317" lon="13.1034933"><ele>280.0</ele><time>2026-05-02T07:36:52.982Z</time></trkpt><trkpt lat="43.2203883" lon="13.1033533"><ele>280.0</ele><time>2026-05-02T07:36:53.981Z</time></trkpt><trkpt lat="43.2203433" lon="13.1032083"><ele>280.0</ele><time>2026-05-02T07:36:54.981Z</time></trkpt><trkpt lat="43.2202983" lon="13.1030733"><ele>280.0</ele><time>2026-05-02T07:36:55.981Z</time></trkpt><trkpt lat="43.2202483" lon="13.10297"><ele>280.0</ele><time>2026-05-02T07:36:56.982Z</time></trkpt><trkpt lat="43.2201917" lon="13.1028917"><ele>278.6</ele><time>2026-05-02T07:36:57.983Z</time></trkpt><trkpt lat="43.2201217" lon="13.1028517"><ele>277.2</ele><time>2026-05-02T07:36:58.982Z</time></trkpt><trkpt lat="43.2200467" lon="13.1028433"><ele>275.8</ele><time>2026-05-02T07:36:59.981Z</time></trkpt><trkpt lat="43.2199617" lon="13.102865"><ele>274.4</ele><time>2026-05-02T07:37:00.981Z</time></trkpt><trkpt lat="43.219855" lon="13.1029183"><ele>273.0</ele><time>2026-05-02T07:37:01.981Z</time></trkpt><trkpt lat="43.219745" lon="13.102955"><ele>273.0</ele><time>2026-05-02T07:37:02.981Z</time></trkpt><trkpt lat="43.21962" lon="13.102975"><ele>273.0</ele><time>2026-05-02T07:37:03.982Z</time></trkpt><trkpt lat="43.2194917" lon="13.102985"><ele>273.0</ele><time>2026-05-02T07:37:04.982Z</time></trkpt><trkpt lat="43.219355" lon="13.1030017"><ele>273.0</ele><time>2026-05-02T07:37:05.982Z</time></trkpt><trkpt lat="43.2192117" lon="13.1030283"><ele>273.0</ele><time>2026-05-02T07:37:06.981Z</time></trkpt><trkpt lat="43.2190617" lon="13.10306"><ele>273.0</ele><time>2026-05-02T07:37:07.981Z</time></trkpt><trkpt lat="43.21891" lon="13.103085"><ele>273.0</ele><time>2026-05-02T07:37:08.983Z</time></trkpt><trkpt lat="43.2187733" lon="13.10309"><ele>273.0</ele><time>2026-05-02T07:37:09.981Z</time></trkpt><trkpt lat="43.21864" lon="13.103075"><ele>275.25</ele><time>2026-05-02T07:37:10.982Z</time></trkpt><trkpt lat="43.2185033" lon="13.103035"><ele>277.5</ele><time>2026-05-02T07:37:11.982Z</time></trkpt><trkpt lat="43.2183767" lon="13.10298"><ele>279.75</ele><time>2026-05-02T07:37:12.982Z</time></trkpt><trkpt lat="43.218265" lon="13.1029283"><ele>282.0</ele><time>2026-05-02T07:37:13.983Z</time></trkpt><trkpt lat="43.2181567" lon="13.1028933"><ele>285.25</ele><time>2026-05-02T07:37:14.982Z</time></trkpt><trkpt lat="43.2180383" lon="13.1028817"><ele>288.5</ele><time>2026-05-02T07:37:15.981Z</time></trkpt><trkpt lat="43.21791" lon="13.10288"><ele>291.75</ele><time>2026-05-02T07:37:16.981Z</time></trkpt><trkpt lat="43.21777" lon="13.1028867"><ele>295.0</ele><time>2026-05-02T07:37:17.982Z</time></trkpt><trkpt lat="43.2176267" lon="13.1028767"><ele>295.0</ele><time>2026-05-02T07:37:18.982Z</time></trkpt><trkpt lat="43.217485" lon="13.1028567"><ele>295.0</ele><time>2026-05-02T07:37:19.982Z</time></trkpt><trkpt lat="43.217355" lon="13.1028317"><ele>295.0</ele><time>2026-05-02T07:37:20.982Z</time></trkpt><trkpt lat="43.2172383" lon="13.10282"><ele>295.0</ele><time>2026-05-02T07:37:21.983Z</time></trkpt><trkpt lat="43.2171317" lon="13.1028283"><ele>296.8</ele><time>2026-05-02T07:37:22.982Z</time></trkpt><trkpt lat="43.2170317" lon="13.1028533"><ele>298.6</ele><time>2026-05-02T07:37:23.981Z</time></trkpt><trkpt lat="43.216945" lon="13.1028983"><ele>300.4</ele><time>2026-05-02T07:37:24.981Z</time></trkpt><trkpt lat="43.2168733" lon="13.1029533"><ele>302.2</ele><time>2026-05-02T07:37:25.982Z</time></trkpt><trkpt lat="43.2168217" lon="13.1030767"><ele>304.0</ele><time>2026-05-02T07:37:27.981Z</time></trkpt><trkpt lat="43.2168617" lon="13.1032267"><ele>307.79999999999995</ele><time>2026-05-02T07:37:29.981Z</time></trkpt><trkpt lat="43.216905" lon="13.1033017"><ele>311.59999999999997</ele><time>2026-05-02T07:37:30.981Z</time></trkpt><trkpt lat="43.2169583" lon="13.10338"><ele>315.4</ele><time>2026-05-02T07:37:31.981Z</time></trkpt><trkpt lat="43.2170233" lon="13.103465"><ele>319.2</ele><time>2026-05-02T07:37:32.983Z</time></trkpt><trkpt lat="43.2171017" lon="13.10356"><ele>323.0</ele><time>2026-05-02T07:37:33.981Z</time></trkpt><trkpt lat="43.2171933" lon="13.1036567"><ele>323.0</ele><time>2026-05-02T07:37:34.981Z</time></trkpt><trkpt lat="43.2172883" lon="13.1037517"><ele>323.0</ele><time>2026-05-02T07:37:35.983Z</time></trkpt><trkpt lat="43.2173717" lon="13.103835"><ele>323.0</ele><time>2026-05-02T07:37:36.982Z</time></trkpt><trkpt lat="43.2174417" lon="13.103905"><ele>323.0</ele><time>2026-05-02T07:37:37.982Z</time></trkpt><trkpt lat="43.2175" lon="13.10396"><ele>323.0</ele><time>2026-05-02T07:37:38.981Z</time></trkpt><trkpt lat="43.2175683" lon="13.10406"><ele>324.5</ele><time>2026-05-02T07:37:40.983Z</time></trkpt><trkpt lat="43.21758" lon="13.1041567"><ele>326.0</ele><time>2026-05-02T07:37:42.983Z</time></trkpt><trkpt lat="43.2175217" lon="13.104255"><ele>327.5</ele><time>2026-05-02T07:37:44.984Z</time></trkpt><trkpt lat="43.2174033" lon="13.1043383"><ele>329.0</ele><time>2026-05-02T07:37:46.983Z</time></trkpt><trkpt lat="43.21734" lon="13.1043767"><ele>330.5</ele><time>2026-05-02T07:37:47.983Z</time></trkpt><trkpt lat="43.217275" lon="13.1043983"><ele>332.0</ele><time>2026-05-02T07:37:48.983Z</time></trkpt><trkpt lat="43.2172083" lon="13.1044033"><ele>333.5</ele><time>2026-05-02T07:37:49.984Z</time></trkpt><trkpt lat="43.2171317" lon="13.104385"><ele>335.0</ele><time>2026-05-02T07:37:50.984Z</time></trkpt><trkpt lat="43.21705" lon="13.1043483"><ele>336.5</ele><time>2026-05-02T07:37:51.983Z</time></trkpt><trkpt lat="43.2169633" lon="13.104305"><ele>338.0</ele><time>2026-05-02T07:37:52.983Z</time></trkpt><trkpt lat="43.2168733" lon="13.1042633"><ele>339.5</ele><time>2026-05-02T07:37:53.982Z</time></trkpt><trkpt lat="43.2167817" lon="13.1042217"><ele>341.0</ele><time>2026-05-02T07:37:54.984Z</time></trkpt><trkpt lat="43.2167" lon="13.1041817"><ele>341.0</ele><time>2026-05-02T07:37:55.983Z</time></trkpt><trkpt lat="43.21662" lon="13.1041467"><ele>341.0</ele><time>2026-05-02T07:37:56.984Z</time></trkpt><trkpt lat="43.2165417" lon="13.1041067"><ele>341.0</ele><time>2026-05-02T07:37:57.983Z</time></trkpt><trkpt lat="43.21646" lon="13.1040717"><ele>341.0</ele><time>2026-05-02T07:37:58.983Z</time></trkpt><trkpt lat="43.2163767" lon="13.104045"><ele>341.0</ele><time>2026-05-02T07:37:59.983Z</time></trkpt><trkpt lat="43.2163017" lon="13.104035"><ele>341.0</ele><time>2026-05-02T07:38:00.983Z</time></trkpt><trkpt lat="43.2162333" lon="13.10405"><ele>341.83333333333337</ele><time>2026-05-02T07:38:01.981Z</time></trkpt><trkpt lat="43.21616" lon="13.10409"><ele>342.6666666666667</ele><time>2026-05-02T07:38:02.983Z</time></trkpt><trkpt lat="43.2160917" lon="13.1041533"><ele>343.5</ele><time>2026-05-02T07:38:03.981Z</time></trkpt><trkpt lat="43.2160467" lon="13.1042367"><ele>344.3333333333333</ele><time>2026-05-02T07:38:04.982Z</time></trkpt><trkpt lat="43.2160083" lon="13.1043283"><ele>345.16666666666663</ele><time>2026-05-02T07:38:05.981Z</time></trkpt><trkpt lat="43.2159717" lon="13.1044017"><ele>346.0</ele><time>2026-05-02T07:38:06.983Z</time></trkpt><trkpt lat="43.2159" lon="13.1045083"><ele>346.0</ele><time>2026-05-02T07:38:08.984Z</time></trkpt><trkpt lat="43.21579" lon="13.10457"><ele>346.0</ele><time>2026-05-02T07:38:10.982Z</time></trkpt><trkpt lat="43.2156717" lon="13.1046183"><ele>346.0</ele><time>2026-05-02T07:38:12.984Z</time></trkpt><trkpt lat="43.2155633" lon="13.1047083"><ele>346.0</ele><time>2026-05-02T07:38:14.982Z</time></trkpt><trkpt lat="43.2155083" lon="13.1047617"><ele>346.0</ele><time>2026-05-02T07:38:15.982Z</time></trkpt><trkpt lat="43.2154433" lon="13.1048083"><ele>345.5</ele><time>2026-05-02T07:38:16.981Z</time></trkpt><trkpt lat="43.2153767" lon="13.104845"><ele>345.0</ele><time>2026-05-02T07:38:17.983Z</time></trkpt><trkpt lat="43.2153133" lon="13.1048783"><ele>344.5</ele><time>2026-05-02T07:38:18.982Z</time></trkpt><trkpt lat="43.21519" lon="13.10492"><ele>344.0</ele><time>2026-05-02T07:38:20.982Z</time></trkpt><trkpt lat="43.2151233" lon="13.1049417"><ele>343.5</ele><time>2026-05-02T07:38:21.985Z</time></trkpt><trkpt lat="43.2150533" lon="13.10497"><ele>343.0</ele><time>2026-05-02T07:38:22.982Z</time></trkpt><trkpt lat="43.2149833" lon="13.1050067"><ele>347.66666666666663</ele><time>2026-05-02T07:38:23.981Z</time></trkpt><trkpt lat="43.2149133" lon="13.105045"><ele>352.3333333333333</ele><time>2026-05-02T07:38:24.984Z</time></trkpt><trkpt lat="43.2148433" lon="13.1050783"><ele>357.0</ele><time>2026-05-02T07:38:25.983Z</time></trkpt><trkpt lat="43.2147717" lon="13.105105"><ele>361.6666666666667</ele><time>2026-05-02T07:38:26.982Z</time></trkpt><trkpt lat="43.2146933" lon="13.1051283"><ele>366.33333333333337</ele><time>2026-05-02T07:38:27.983Z</time></trkpt><trkpt lat="43.214615" lon="13.105155"><ele>371.0</ele><time>2026-05-02T07:38:28.981Z</time></trkpt><trkpt lat="43.21453" lon="13.1051833"><ele>371.8</ele><time>2026-05-02T07:38:29.982Z</time></trkpt><trkpt lat="43.2144433" lon="13.10521"><ele>372.6</ele><time>2026-05-02T07:38:30.982Z</time></trkpt><trkpt lat="43.21435" lon="13.1052433"><ele>373.4</ele><time>2026-05-02T07:38:31.983Z</time></trkpt><trkpt lat="43.214255" lon="13.105275"><ele>374.2</ele><time>2026-05-02T07:38:32.983Z</time></trkpt><trkpt lat="43.2141533" lon="13.1053133"><ele>375.0</ele><time>2026-05-02T07:38:33.983Z</time></trkpt><trkpt lat="43.2140517" lon="13.105355"><ele>375.6</ele><time>2026-05-02T07:38:34.983Z</time></trkpt><trkpt lat="43.2139467" lon="13.10539"><ele>376.2</ele><time>2026-05-02T07:38:35.982Z</time></trkpt><trkpt lat="43.21384" lon="13.1054167"><ele>376.79999999999995</ele><time>2026-05-02T07:38:36.983Z</time></trkpt><trkpt lat="43.2137333" lon="13.1054333"><ele>377.4</ele><time>2026-05-02T07:38:37.982Z</time></trkpt><trkpt lat="43.2136283" lon="13.10545"><ele>378.0</ele><time>2026-05-02T07:38:38.983Z</time></trkpt><trkpt lat="43.2135267" lon="13.1054667"><ele>378.0</ele><time>2026-05-02T07:38:39.983Z</time></trkpt><trkpt lat="43.2134333" lon="13.1054833"><ele>378.0</ele><time>2026-05-02T07:38:40.982Z</time></trkpt><trkpt lat="43.21334" lon="13.1055083"><ele>378.0</ele><time>2026-05-02T07:38:41.982Z</time></trkpt><trkpt lat="43.2132567" lon="13.1055367"><ele>378.0</ele><time>2026-05-02T07:38:42.982Z</time></trkpt><trkpt lat="43.213185" lon="13.105575"><ele>378.0</ele><time>2026-05-02T07:38:43.982Z</time></trkpt><trkpt lat="43.2131167" lon="13.10562"><ele>378.0</ele><time>2026-05-02T07:38:44.983Z</time></trkpt><trkpt lat="43.2130533" lon="13.1056583"><ele>379.0</ele><time>2026-05-02T07:38:45.982Z</time></trkpt><trkpt lat="43.21298" lon="13.1056983"><ele>380.0</ele><time>2026-05-02T07:38:46.982Z</time></trkpt><trkpt lat="43.2129067" lon="13.1057233"><ele>381.0</ele><time>2026-05-02T07:38:47.983Z</time></trkpt><trkpt lat="43.2128433" lon="13.1057317"><ele>382.0</ele><time>2026-05-02T07:38:48.982Z</time></trkpt><trkpt lat="43.212735" lon="13.10571"><ele>383.0</ele><time>2026-05-02T07:38:50.983Z</time></trkpt><trkpt lat="43.2126133" lon="13.10567"><ele>383.0</ele><time>2026-05-02T07:38:52.982Z</time></trkpt><trkpt lat="43.2125367" lon="13.105655"><ele>383.0</ele><time>2026-05-02T07:38:53.983Z</time></trkpt><trkpt lat="43.2124517" lon="13.10564"><ele>383.0</ele><time>2026-05-02T07:38:54.983Z</time></trkpt><trkpt lat="43.2123633" lon="13.1056333"><ele>383.0</ele><time>2026-05-02T07:38:55.984Z</time></trkpt><trkpt lat="43.212275" lon="13.1056283"><ele>383.0</ele><time>2026-05-02T07:38:56.984Z</time></trkpt><trkpt lat="43.2121817" lon="13.1056233"><ele>383.0</ele><time>2026-05-02T07:38:57.983Z</time></trkpt><trkpt lat="43.2120917" lon="13.10562"><ele>385.1666666666667</ele><time>2026-05-02T07:38:58.983Z</time></trkpt><trkpt lat="43.2120117" lon="13.1056117"><ele>387.33333333333337</ele><time>2026-05-02T07:38:59.983Z</time></trkpt><trkpt lat="43.2119433" lon="13.105605"><ele>389.5</ele><time>2026-05-02T07:39:00.982Z</time></trkpt><trkpt lat="43.2118767" lon="13.105605"><ele>391.6666666666667</ele><time>2026-05-02T07:39:01.984Z</time></trkpt><trkpt lat="43.2118083" lon="13.105605"><ele>393.8333333333333</ele><time>2026-05-02T07:39:02.984Z</time></trkpt><trkpt lat="43.2117067" lon="13.105645"><ele>396.0</ele><time>2026-05-02T07:39:04.983Z</time></trkpt><trkpt lat="43.2116017" lon="13.10571"><ele>396.0</ele><time>2026-05-02T07:39:06.983Z</time></trkpt><trkpt lat="43.2115367" lon="13.1057367"><ele>396.0</ele><time>2026-05-02T07:39:07.983Z</time></trkpt><trkpt lat="43.2114667" lon="13.1057633"><ele>396.0</ele><time>2026-05-02T07:39:08.985Z</time></trkpt><trkpt lat="43.2114" lon="13.105795"><ele>396.0</ele><time>2026-05-02T07:39:09.984Z</time></trkpt><trkpt lat="43.2113217" lon="13.1058333"><ele>396.0</ele><time>2026-05-02T07:39:10.983Z</time></trkpt><trkpt lat="43.2112367" lon="13.1058633"><ele>396.0</ele><time>2026-05-02T07:39:11.983Z</time></trkpt><trkpt lat="43.2111583" lon="13.1058733"><ele>401.20000000000005</ele><time>2026-05-02T07:39:12.984Z</time></trkpt><trkpt lat="43.2110533" lon="13.1058467"><ele>406.40000000000003</ele><time>2026-05-02T07:39:14.983Z</time></trkpt><trkpt lat="43.21094" lon="13.1057967"><ele>411.6</ele><time>2026-05-02T07:39:16.982Z</time></trkpt><trkpt lat="43.210805" lon="13.10577"><ele>416.8</ele><time>2026-05-02T07:39:18.984Z</time></trkpt><trkpt lat="43.2107233" lon="13.105755"><ele>422.0</ele><time>2026-05-02T07:39:19.984Z</time></trkpt><trkpt lat="43.21062" lon="13.10574"><ele>423.8</ele><time>2026-05-02T07:39:20.983Z</time></trkpt><trkpt lat="43.2105133" lon="13.1057333"><ele>425.6</ele><time>2026-05-02T07:39:21.983Z</time></trkpt><trkpt lat="43.21041" lon="13.1057333"><ele>427.40000000000003</ele><time>2026-05-02T07:39:22.983Z</time></trkpt><trkpt lat="43.2103167" lon="13.10574"><ele>429.20000000000005</ele><time>2026-05-02T07:39:23.983Z</time></trkpt><trkpt lat="43.2102433" lon="13.1057417"><ele>431.0</ele><time>2026-05-02T07:39:24.983Z</time></trkpt><trkpt lat="43.21017" lon="13.1057433"><ele>431.0</ele><time>2026-05-02T07:39:25.984Z</time></trkpt><trkpt lat="43.210105" lon="13.1057383"><ele>431.0</ele><time>2026-05-02T07:39:26.983Z</time></trkpt><trkpt lat="43.2099817" lon="13.105705"><ele>431.0</ele><time>2026-05-02T07:39:28.983Z</time></trkpt><trkpt lat="43.209865" lon="13.1056783"><ele>431.0</ele><time>2026-05-02T07:39:30.983Z</time></trkpt><trkpt lat="43.2097517" lon="13.1056567"><ele>431.0</ele><time>2026-05-02T07:39:32.983Z</time></trkpt><trkpt lat="43.2096367" lon="13.1056333"><ele>434.49999999999994</ele><time>2026-05-02T07:39:34.983Z</time></trkpt><trkpt lat="43.2095533" lon="13.10562"><ele>438.0</ele><time>2026-05-02T07:39:35.984Z</time></trkpt><trkpt lat="43.2094783" lon="13.1056083"><ele>441.5</ele><time>2026-05-02T07:39:36.983Z</time></trkpt><trkpt lat="43.2094033" lon="13.10561"><ele>445.0</ele><time>2026-05-02T07:39:37.983Z</time></trkpt><trkpt lat="43.2093383" lon="13.1056233"><ele>448.49999999999994</ele><time>2026-05-02T07:39:38.983Z</time></trkpt><trkpt lat="43.209265" lon="13.1056533"><ele>452.0</ele><time>2026-05-02T07:39:39.984Z</time></trkpt><trkpt lat="43.2091867" lon="13.1056883"><ele>451.99999999999994</ele><time>2026-05-02T07:39:40.983Z</time></trkpt><trkpt lat="43.2090967" lon="13.1057217"><ele>452.0</ele><time>2026-05-02T07:39:41.983Z</time></trkpt><trkpt lat="43.2090117" lon="13.105745"><ele>452.0</ele><time>2026-05-02T07:39:42.983Z</time></trkpt><trkpt lat="43.208925" lon="13.1057733"><ele>452.0</ele><time>2026-05-02T07:39:43.984Z</time></trkpt><trkpt lat="43.2088433" lon="13.1058033"><ele>451.99999999999994</ele><time>2026-05-02T07:39:44.984Z</time></trkpt><trkpt lat="43.2087667" lon="13.1058267"><ele>452.0</ele><time>2026-05-02T07:39:45.984Z</time></trkpt><trkpt lat="43.208685" lon="13.105835"><ele>454.20000000000005</ele><time>2026-05-02T07:39:46.983Z</time></trkpt><trkpt lat="43.2086017" lon="13.10582"><ele>456.40000000000003</ele><time>2026-05-02T07:39:47.983Z</time></trkpt><trkpt lat="43.2085083" lon="13.1057967"><ele>458.59999999999997</ele><time>2026-05-02T07:39:48.985Z</time></trkpt><trkpt lat="43.20841" lon="13.1057817"><ele>460.79999999999995</ele><time>2026-05-02T07:39:49.984Z</time></trkpt><trkpt lat="43.2082917" lon="13.1057683"><ele>463.0</ele><time>2026-05-02T07:39:50.984Z</time></trkpt><trkpt lat="43.2081717" lon="13.1057383"><ele>464.2</ele><time>2026-05-02T07:39:51.984Z</time></trkpt><trkpt lat="43.2080583" lon="13.105705"><ele>465.4</ele><time>2026-05-02T07:39:52.982Z</time></trkpt><trkpt lat="43.207945" lon="13.1056767"><ele>466.59999999999997</ele><time>2026-05-02T07:39:53.987Z</time></trkpt><trkpt lat="43.2078383" lon="13.1056417"><ele>467.79999999999995</ele><time>2026-05-02T07:39:54.983Z</time></trkpt><trkpt lat="43.2077433" lon="13.10561"><ele>469.0</ele><time>2026-05-02T07:39:55.981Z</time></trkpt><trkpt lat="43.207655" lon="13.105595"><ele>469.0</ele><time>2026-05-02T07:39:56.982Z</time></trkpt><trkpt lat="43.2075733" lon="13.1055867"><ele>469.0</ele><time>2026-05-02T07:39:57.983Z</time></trkpt><trkpt lat="43.2075067" lon="13.1055833"><ele>469.0</ele><time>2026-05-02T07:39:58.982Z</time></trkpt><trkpt lat="43.2073983" lon="13.1056067"><ele>469.0</ele><time>2026-05-02T07:40:00.983Z</time></trkpt><trkpt lat="43.2073283" lon="13.1056967"><ele>469.0</ele><time>2026-05-02T07:40:02.983Z</time></trkpt><trkpt lat="43.207325" lon="13.1058367"><ele>469.33333333333337</ele><time>2026-05-02T07:40:04.982Z</time></trkpt><trkpt lat="43.2073533" lon="13.1059283"><ele>469.6666666666667</ele><time>2026-05-02T07:40:06.982Z</time></trkpt><trkpt lat="43.2074083" lon="13.10603"><ele>470.0</ele><time>2026-05-02T07:40:08.983Z</time></trkpt><trkpt lat="43.207485" lon="13.10616"><ele>470.33333333333337</ele><time>2026-05-02T07:40:10.982Z</time></trkpt><trkpt lat="43.2075317" lon="13.10624"><ele>470.6666666666667</ele><time>2026-05-02T07:40:11.982Z</time></trkpt><trkpt lat="43.2075833" lon="13.1063267"><ele>471.0</ele><time>2026-05-02T07:40:12.982Z</time></trkpt><trkpt lat="43.2076367" lon="13.1064333"><ele>471.0</ele><time>2026-05-02T07:40:13.982Z</time></trkpt><trkpt lat="43.207685" lon="13.1065417"><ele>471.0</ele><time>2026-05-02T07:40:14.981Z</time></trkpt><trkpt lat="43.2077333" lon="13.106645"><ele>471.0</ele><time>2026-05-02T07:40:15.982Z</time></trkpt><trkpt lat="43.20778" lon="13.106745"><ele>471.0</ele><time>2026-05-02T07:40:16.982Z</time></trkpt><trkpt lat="43.20782" lon="13.1068317"><ele>471.0</ele><time>2026-05-02T07:40:17.981Z</time></trkpt><trkpt lat="43.207865" lon="13.10691"><ele>471.0</ele><time>2026-05-02T07:40:18.981Z</time></trkpt><trkpt lat="43.2079167" lon="13.1069867"><ele>473.5</ele><time>2026-05-02T07:40:19.982Z</time></trkpt><trkpt lat="43.2079733" lon="13.10707"><ele>476.0</ele><time>2026-05-02T07:40:20.981Z</time></trkpt><trkpt lat="43.2080367" lon="13.107155"><ele>478.5</ele><time>2026-05-02T07:40:21.982Z</time></trkpt><trkpt lat="43.208095" lon="13.1072433"><ele>481.0</ele><time>2026-05-02T07:40:22.982Z</time></trkpt><trkpt lat="43.2081567" lon="13.1073383"><ele>483.5</ele><time>2026-05-02T07:40:23.981Z</time></trkpt><trkpt lat="43.20822" lon="13.1074367"><ele>486.0</ele><time>2026-05-02T07:40:24.981Z</time></trkpt><trkpt lat="43.2082867" lon="13.1075283"><ele>488.20000000000005</ele><time>2026-05-02T07:40:25.982Z</time></trkpt><trkpt lat="43.2083483" lon="13.107625"><ele>490.40000000000003</ele><time>2026-05-02T07:40:26.983Z</time></trkpt><trkpt lat="43.2084167" lon="13.1077167"><ele>492.6</ele><time>2026-05-02T07:40:27.981Z</time></trkpt><trkpt lat="43.2084817" lon="13.107805"><ele>494.8</ele><time>2026-05-02T07:40:28.982Z</time></trkpt><trkpt lat="43.2085533" lon="13.1078817"><ele>497.0</ele><time>2026-05-02T07:40:29.983Z</time></trkpt><trkpt lat="43.2086267" lon="13.1079633"><ele>496.99999999999994</ele><time>2026-05-02T07:40:30.982Z</time></trkpt><trkpt lat="43.2086983" lon="13.1080383"><ele>497.0</ele><time>2026-05-02T07:40:31.984Z</time></trkpt><trkpt lat="43.2087683" lon="13.1081183"><ele>497.0</ele><time>2026-05-02T07:40:32.981Z</time></trkpt><trkpt lat="43.2088233" lon="13.1081967"><ele>497.0</ele><time>2026-05-02T07:40:33.981Z</time></trkpt><trkpt lat="43.2088767" lon="13.108275"><ele>496.99999999999994</ele><time>2026-05-02T07:40:34.982Z</time></trkpt><trkpt lat="43.20894" lon="13.1083433"><ele>497.0</ele><time>2026-05-02T07:40:35.982Z</time></trkpt><trkpt lat="43.2090017" lon="13.108415"><ele>499.6</ele><time>2026-05-02T07:40:36.981Z</time></trkpt><trkpt lat="43.2090717" lon="13.10849"><ele>502.20000000000005</ele><time>2026-05-02T07:40:37.982Z</time></trkpt><trkpt lat="43.2091367" lon="13.10857"><ele>504.8</ele><time>2026-05-02T07:40:38.982Z</time></trkpt><trkpt lat="43.2091983" lon="13.1086633"><ele>507.4</ele><time>2026-05-02T07:40:39.982Z</time></trkpt><trkpt lat="43.2092683" lon="13.1087633"><ele>510.0</ele><time>2026-05-02T07:40:40.982Z</time></trkpt><trkpt lat="43.2093383" lon="13.1088517"><ele>510.0</ele><time>2026-05-02T07:40:41.981Z</time></trkpt><trkpt lat="43.2094067" lon="13.1089317"><ele>510.0</ele><time>2026-05-02T07:40:42.981Z</time></trkpt><trkpt lat="43.2094667" lon="13.10901"><ele>510.0</ele><time>2026-05-02T07:40:43.981Z</time></trkpt><trkpt lat="43.2095167" lon="13.1090967"><ele>510.0</ele><time>2026-05-02T07:40:44.981Z</time></trkpt><trkpt lat="43.2095567" lon="13.1091817"><ele>510.0</ele><time>2026-05-02T07:40:45.982Z</time></trkpt><trkpt lat="43.209595" lon="13.109265"><ele>510.0</ele><time>2026-05-02T07:40:46.981Z</time></trkpt><trkpt lat="43.2096333" lon="13.109345"><ele>513.8571428571429</ele><time>2026-05-02T07:40:47.982Z</time></trkpt><trkpt lat="43.2096633" lon="13.10943"><ele>517.7142857142858</ele><time>2026-05-02T07:40:48.981Z</time></trkpt><trkpt lat="43.2096917" lon="13.1095183"><ele>521.5714285714286</ele><time>2026-05-02T07:40:49.983Z</time></trkpt><trkpt lat="43.2097183" lon="13.109605"><ele>525.4285714285714</ele><time>2026-05-02T07:40:50.982Z</time></trkpt><trkpt lat="43.2097467" lon="13.1096967"><ele>529.2857142857142</ele><time>2026-05-02T07:40:51.981Z</time></trkpt><trkpt lat="43.2097783" lon="13.1097883"><ele>533.1428571428571</ele><time>2026-05-02T07:40:52.982Z</time></trkpt><trkpt lat="43.2098067" lon="13.10988"><ele>537.0</ele><time>2026-05-02T07:40:53.982Z</time></trkpt><trkpt lat="43.209835" lon="13.1099733"><ele>539.0</ele><time>2026-05-02T07:40:54.981Z</time></trkpt><trkpt lat="43.2098567" lon="13.11007"><ele>541.0</ele><time>2026-05-02T07:40:55.981Z</time></trkpt><trkpt lat="43.20988" lon="13.1101767"><ele>543.0</ele><time>2026-05-02T07:40:56.982Z</time></trkpt><trkpt lat="43.2099033" lon="13.1102683"><ele>545.0</ele><time>2026-05-02T07:40:57.981Z</time></trkpt><trkpt lat="43.2099483" lon="13.11042"><ele>547.0</ele><time>2026-05-02T07:40:59.983Z</time></trkpt><trkpt lat="43.2099817" lon="13.11057"><ele>547.0</ele><time>2026-05-02T07:41:01.981Z</time></trkpt><trkpt lat="43.21001" lon="13.1106483"><ele>547.0</ele><time>2026-05-02T07:41:02.982Z</time></trkpt><trkpt lat="43.210045" lon="13.1107317"><ele>547.0</ele><time>2026-05-02T07:41:03.981Z</time></trkpt><trkpt lat="43.2100833" lon="13.11081"><ele>547.0</ele><time>2026-05-02T07:41:04.982Z</time></trkpt><trkpt lat="43.2101267" lon="13.1108817"><ele>547.0</ele><time>2026-05-02T07:41:05.982Z</time></trkpt><trkpt lat="43.21021" lon="13.1110167"><ele>547.0</ele><time>2026-05-02T07:41:07.983Z</time></trkpt><trkpt lat="43.2102617" lon="13.1110883"><ele>551.4</ele><time>2026-05-02T07:41:08.982Z</time></trkpt><trkpt lat="43.2103117" lon="13.1111483"><ele>555.8000000000001</ele><time>2026-05-02T07:41:09.981Z</time></trkpt><trkpt lat="43.21039" lon="13.1112617"><ele>560.2</ele><time>2026-05-02T07:41:11.982Z</time></trkpt><trkpt lat="43.2104467" lon="13.11141"><ele>564.6</ele><time>2026-05-02T07:41:13.982Z</time></trkpt><trkpt lat="43.2105067" lon="13.1115567"><ele>569.0</ele><time>2026-05-02T07:41:15.982Z</time></trkpt><trkpt lat="43.2105483" lon="13.1116233"><ele>569.5</ele><time>2026-05-02T07:41:16.982Z</time></trkpt><trkpt lat="43.21058" lon="13.1117117"><ele>570.0</ele><time>2026-05-02T07:41:17.981Z</time></trkpt><trkpt lat="43.210615" lon="13.1118"><ele>570.5</ele><time>2026-05-02T07:41:18.981Z</time></trkpt><trkpt lat="43.210665" lon="13.1118767"><ele>571.0</ele><time>2026-05-02T07:41:19.982Z</time></trkpt><trkpt lat="43.210735" lon="13.1119483"><ele>571.5</ele><time>2026-05-02T07:41:20.982Z</time></trkpt><trkpt lat="43.2107867" lon="13.1120083"><ele>572.0</ele><time>2026-05-02T07:41:21.982Z</time></trkpt><trkpt lat="43.210865" lon="13.112075"><ele>571.9999999999999</ele><time>2026-05-02T07:41:22.982Z</time></trkpt><trkpt lat="43.210925" lon="13.1121333"><ele>572.0</ele><time>2026-05-02T07:41:23.982Z</time></trkpt><trkpt lat="43.2109867" lon="13.11219"><ele>572.0</ele><time>2026-05-02T07:41:24.981Z</time></trkpt><trkpt lat="43.2110483" lon="13.112245"><ele>572.0</ele><time>2026-05-02T07:41:25.982Z</time></trkpt><trkpt lat="43.2111117" lon="13.1123"><ele>572.0</ele><time>2026-05-02T07:41:26.983Z</time></trkpt><trkpt lat="43.211165" lon="13.11236"><ele>571.9999999999999</ele><time>2026-05-02T07:41:27.981Z</time></trkpt><trkpt lat="43.2112167" lon="13.11242"><ele>572.0</ele><time>2026-05-02T07:41:28.983Z</time></trkpt><trkpt lat="43.211265" lon="13.1124917"><ele>575.5714285714286</ele><time>2026-05-02T07:41:29.982Z</time></trkpt><trkpt lat="43.2112983" lon="13.1125667"><ele>579.1428571428571</ele><time>2026-05-02T07:41:30.981Z</time></trkpt><trkpt lat="43.2113283" lon="13.1126583"><ele>582.7142857142858</ele><time>2026-05-02T07:41:31.981Z</time></trkpt><trkpt lat="43.2113533" lon="13.112745"><ele>586.2857142857142</ele><time>2026-05-02T07:41:32.983Z</time></trkpt><trkpt lat="43.2113717" lon="13.11284"><ele>589.8571428571429</ele><time>2026-05-02T07:41:33.981Z</time></trkpt><trkpt lat="43.2113933" lon="13.11293"><ele>593.4285714285714</ele><time>2026-05-02T07:41:34.982Z</time></trkpt><trkpt lat="43.2114117" lon="13.1130183"><ele>597.0</ele><time>2026-05-02T07:41:35.981Z</time></trkpt><trkpt lat="43.2114317" lon="13.113105"><ele>597.8000000000001</ele><time>2026-05-02T07:41:36.981Z</time></trkpt><trkpt lat="43.2114767" lon="13.113245"><ele>598.6</ele><time>2026-05-02T07:41:38.981Z</time></trkpt><trkpt lat="43.211545" lon="13.113385"><ele>599.4000000000001</ele><time>2026-05-02T07:41:40.981Z</time></trkpt><trkpt lat="43.2115983" lon="13.113465"><ele>600.2</ele><time>2026-05-02T07:41:41.981Z</time></trkpt><trkpt lat="43.21165" lon="13.113545"><ele>601.0</ele><time>2026-05-02T07:41:42.982Z</time></trkpt><trkpt lat="43.21169" lon="13.113625"><ele>601.0</ele><time>2026-05-02T07:41:43.981Z</time></trkpt><trkpt lat="43.2117267" lon="13.1137"><ele>601.0</ele><time>2026-05-02T07:41:44.981Z</time></trkpt><trkpt lat="43.2117567" lon="13.1137767"><ele>601.0</ele><time>2026-05-02T07:41:45.981Z</time></trkpt><trkpt lat="43.2117933" lon="13.1139233"><ele>601.0</ele><time>2026-05-02T07:41:47.982Z</time></trkpt><trkpt lat="43.21185" lon="13.1140233"><ele>601.0</ele><time>2026-05-02T07:41:49.982Z</time></trkpt><trkpt lat="43.2118817" lon="13.1140983"><ele>601.0</ele><time>2026-05-02T07:41:50.981Z</time></trkpt><trkpt lat="43.2119167" lon="13.1141767"><ele>604.6666666666667</ele><time>2026-05-02T07:41:51.982Z</time></trkpt><trkpt lat="43.21196" lon="13.1142633"><ele>608.3333333333334</ele><time>2026-05-02T07:41:52.981Z</time></trkpt><trkpt lat="43.2119983" lon="13.114355"><ele>612.0</ele><time>2026-05-02T07:41:53.982Z</time></trkpt><trkpt lat="43.21204" lon="13.1144417"><ele>615.6666666666666</ele><time>2026-05-02T07:41:54.982Z</time></trkpt><trkpt lat="43.212085" lon="13.1145367"><ele>619.3333333333333</ele><time>2026-05-02T07:41:55.983Z</time></trkpt><trkpt lat="43.2121367" lon="13.114615"><ele>623.0</ele><time>2026-05-02T07:41:56.981Z</time></trkpt><trkpt lat="43.2121883" lon="13.11469"><ele>623.0</ele><time>2026-05-02T07:41:57.982Z</time></trkpt><trkpt lat="43.2122467" lon="13.1147767"><ele>623.0</ele><time>2026-05-02T07:41:58.981Z</time></trkpt><trkpt lat="43.2122933" lon="13.114855"><ele>623.0</ele><time>2026-05-02T07:41:59.982Z</time></trkpt><trkpt lat="43.21235" lon="13.1149317"><ele>623.0</ele><time>2026-05-02T07:42:00.981Z</time></trkpt><trkpt lat="43.2123933" lon="13.1150083"><ele>623.0</ele><time>2026-05-02T07:42:01.981Z</time></trkpt><trkpt lat="43.212435" lon="13.1150833"><ele>623.0</ele><time>2026-05-02T07:42:02.982Z</time></trkpt><trkpt lat="43.2124867" lon="13.1151533"><ele>621.5</ele><time>2026-05-02T07:42:03.982Z</time></trkpt><trkpt lat="43.2125333" lon="13.1152233"><ele>620.0</ele><time>2026-05-02T07:42:04.983Z</time></trkpt><trkpt lat="43.21259" lon="13.1152817"><ele>618.5</ele><time>2026-05-02T07:42:05.981Z</time></trkpt><trkpt lat="43.2126417" lon="13.1153517"><ele>617.0</ele><time>2026-05-02T07:42:06.981Z</time></trkpt><trkpt lat="43.2127383" lon="13.11547"><ele>615.5</ele><time>2026-05-02T07:42:08.981Z</time></trkpt><trkpt lat="43.2127817" lon="13.1155333"><ele>614.0</ele><time>2026-05-02T07:42:09.981Z</time></trkpt><trkpt lat="43.2128667" lon="13.1156567"><ele>613.9999999999999</ele><time>2026-05-02T07:42:11.982Z</time></trkpt><trkpt lat="43.2129133" lon="13.1157217"><ele>614.0</ele><time>2026-05-02T07:42:12.982Z</time></trkpt><trkpt lat="43.2129733" lon="13.115785"><ele>614.0</ele><time>2026-05-02T07:42:13.983Z</time></trkpt><trkpt lat="43.2130217" lon="13.115855"><ele>614.0</ele><time>2026-05-02T07:42:14.982Z</time></trkpt><trkpt lat="43.213065" lon="13.1159333"><ele>614.0</ele><time>2026-05-02T07:42:15.982Z</time></trkpt><trkpt lat="43.2131017" lon="13.116015"><ele>613.9999999999999</ele><time>2026-05-02T07:42:16.981Z</time></trkpt><trkpt lat="43.21313" lon="13.1160983"><ele>614.0</ele><time>2026-05-02T07:42:17.982Z</time></trkpt><trkpt lat="43.213155" lon="13.116185"><ele>614.3333333333333</ele><time>2026-05-02T07:42:18.982Z</time></trkpt><trkpt lat="43.213185" lon="13.1162767"><ele>614.6666666666666</ele><time>2026-05-02T07:42:19.981Z</time></trkpt><trkpt lat="43.2132167" lon="13.1163817"><ele>615.0</ele><time>2026-05-02T07:42:20.983Z</time></trkpt><trkpt lat="43.213255" lon="13.11649"><ele>615.3333333333334</ele><time>2026-05-02T07:42:21.982Z</time></trkpt><trkpt lat="43.213285" lon="13.1165883"><ele>615.6666666666667</ele><time>2026-05-02T07:42:22.982Z</time></trkpt><trkpt lat="43.2133217" lon="13.1166967"><ele>616.0</ele><time>2026-05-02T07:42:23.981Z</time></trkpt><trkpt lat="43.2133567" lon="13.1167967"><ele>616.0</ele><time>2026-05-02T07:42:24.981Z</time></trkpt><trkpt lat="43.2133917" lon="13.116895"><ele>616.0</ele><time>2026-05-02T07:42:25.983Z</time></trkpt><trkpt lat="43.2134217" lon="13.1169933"><ele>616.0</ele><time>2026-05-02T07:42:26.983Z</time></trkpt><trkpt lat="43.21346" lon="13.117095"><ele>616.0</ele><time>2026-05-02T07:42:27.981Z</time></trkpt><trkpt lat="43.21349" lon="13.1171933"><ele>616.0</ele><time>2026-05-02T07:42:28.982Z</time></trkpt><trkpt lat="43.2135283" lon="13.1172917"><ele>616.0</ele><time>2026-05-02T07:42:29.982Z</time></trkpt><trkpt lat="43.2135717" lon="13.11738"><ele>618.1666666666667</ele><time>2026-05-02T07:42:30.983Z</time></trkpt><trkpt lat="43.2136117" lon="13.1174717"><ele>620.3333333333334</ele><time>2026-05-02T07:42:31.986Z</time></trkpt><trkpt lat="43.2136417" lon="13.117565"><ele>622.5</ele><time>2026-05-02T07:42:32.981Z</time></trkpt><trkpt lat="43.21367" lon="13.11767"><ele>624.6666666666666</ele><time>2026-05-02T07:42:33.982Z</time></trkpt><trkpt lat="43.2137017" lon="13.1177683"><ele>626.8333333333333</ele><time>2026-05-02T07:42:34.981Z</time></trkpt><trkpt lat="43.21374" lon="13.1178667"><ele>629.0</ele><time>2026-05-02T07:42:35.981Z</time></trkpt><trkpt lat="43.213775" lon="13.1179617"><ele>629.0</ele><time>2026-05-02T07:42:36.983Z</time></trkpt><trkpt lat="43.2138067" lon="13.1180433"><ele>629.0</ele><time>2026-05-02T07:42:37.981Z</time></trkpt><trkpt lat="43.2138683" lon="13.118175"><ele>629.0</ele><time>2026-05-02T07:42:39.982Z</time></trkpt><trkpt lat="43.2138933" lon="13.1182683"><ele>629.0</ele><time>2026-05-02T07:42:41.982Z</time></trkpt><trkpt lat="43.2139417" lon="13.1183483"><ele>629.0</ele><time>2026-05-02T07:42:44.983Z</time></trkpt><trkpt lat="43.213995" lon="13.1184117"><ele>629.0</ele><time>2026-05-02T07:42:52.981Z</time></trkpt><trkpt lat="43.214025" lon="13.118515"><ele>627.2</ele><time>2026-05-02T07:42:55.981Z</time></trkpt><trkpt lat="43.21404" lon="13.1186417"><ele>625.4</ele><time>2026-05-02T07:42:58.981Z</time></trkpt><trkpt lat="43.2140583" lon="13.11876"><ele>623.6</ele><time>2026-05-02T07:43:00.981Z</time></trkpt><trkpt lat="43.2141283" lon="13.1188817"><ele>621.8</ele><time>2026-05-02T07:43:02.983Z</time></trkpt><trkpt lat="43.214185" lon="13.1189867"><ele>620.0</ele><time>2026-05-02T07:43:04.982Z</time></trkpt><trkpt lat="43.2142283" lon="13.1190717"><ele>620.0</ele><time>2026-05-02T07:43:06.981Z</time></trkpt><trkpt lat="43.2142617" lon="13.1191833"><ele>620.0</ele><time>2026-05-02T07:43:08.982Z</time></trkpt><trkpt lat="43.214295" lon="13.1193433"><ele>620.0</ele><time>2026-05-02T07:43:10.982Z</time></trkpt><trkpt lat="43.2142967" lon="13.119505"><ele>620.0</ele><time>2026-05-02T07:43:12.982Z</time></trkpt><trkpt lat="43.2143017" lon="13.1196783"><ele>620.0</ele><time>2026-05-02T07:43:14.982Z</time></trkpt><trkpt lat="43.2142983" lon="13.1197783"><ele>620.0</ele><time>2026-05-02T07:43:15.981Z</time></trkpt><trkpt lat="43.2142967" lon="13.119875"><ele>620.0</ele><time>2026-05-02T07:43:16.981Z</time></trkpt><trkpt lat="43.2143017" lon="13.119965"><ele>620.0</ele><time>2026-05-02T07:43:17.982Z</time></trkpt><trkpt lat="43.2143167" lon="13.1200533"><ele>620.0</ele><time>2026-05-02T07:43:18.981Z</time></trkpt><trkpt lat="43.2143283" lon="13.1201533"><ele>620.0</ele><time>2026-05-02T07:43:19.983Z</time></trkpt><trkpt lat="43.214345" lon="13.1202517"><ele>620.0</ele><time>2026-05-02T07:43:20.983Z</time></trkpt><trkpt lat="43.2143583" lon="13.12035"><ele>621.7142857142858</ele><time>2026-05-02T07:43:21.983Z</time></trkpt><trkpt lat="43.2143683" lon="13.120445"><ele>623.4285714285714</ele><time>2026-05-02T07:43:22.982Z</time></trkpt><trkpt lat="43.2143833" lon="13.12053"><ele>625.1428571428571</ele><time>2026-05-02T07:43:23.982Z</time></trkpt><trkpt lat="43.2144" lon="13.1206217"><ele>626.8571428571429</ele><time>2026-05-02T07:43:24.982Z</time></trkpt><trkpt lat="43.2144183" lon="13.1207217"><ele>628.5714285714286</ele><time>2026-05-02T07:43:25.983Z</time></trkpt><trkpt lat="43.2144383" lon="13.120815"><ele>630.2857142857143</ele><time>2026-05-02T07:43:26.984Z</time></trkpt><trkpt lat="43.214455" lon="13.1209"><ele>632.0</ele><time>2026-05-02T07:43:27.982Z</time></trkpt><trkpt lat="43.2145" lon="13.1210767"><ele>633.8333333333333</ele><time>2026-05-02T07:43:29.983Z</time></trkpt><trkpt lat="43.2145233" lon="13.121175"><ele>635.6666666666666</ele><time>2026-05-02T07:43:30.985Z</time></trkpt><trkpt lat="43.214555" lon="13.12127"><ele>637.5</ele><time>2026-05-02T07:43:31.981Z</time></trkpt><trkpt lat="43.21457" lon="13.121365"><ele>639.3333333333334</ele><time>2026-05-02T07:43:32.982Z</time></trkpt><trkpt lat="43.2145833" lon="13.1214683"><ele>641.1666666666667</ele><time>2026-05-02T07:43:33.982Z</time></trkpt><trkpt lat="43.2146017" lon="13.12158"><ele>643.0</ele><time>2026-05-02T07:43:34.983Z</time></trkpt><trkpt lat="43.21462" lon="13.1216933"><ele>644.0</ele><time>2026-05-02T07:43:35.982Z</time></trkpt><trkpt lat="43.2146317" lon="13.1218083"><ele>645.0</ele><time>2026-05-02T07:43:36.981Z</time></trkpt><trkpt lat="43.2146467" lon="13.1219167"><ele>646.0</ele><time>2026-05-02T07:43:37.983Z</time></trkpt><trkpt lat="43.2146567" lon="13.1220217"><ele>647.0</ele><time>2026-05-02T07:43:38.983Z</time></trkpt><trkpt lat="43.2146667" lon="13.1221267"><ele>648.0</ele><time>2026-05-02T07:43:39.981Z</time></trkpt><trkpt lat="43.2146783" lon="13.1222367"><ele>649.0</ele><time>2026-05-02T07:43:40.981Z</time></trkpt><trkpt lat="43.2146833" lon="13.1223483"><ele>650.0</ele><time>2026-05-02T07:43:41.982Z</time></trkpt><trkpt lat="43.214685" lon="13.1224667"><ele>651.0</ele><time>2026-05-02T07:43:42.982Z</time></trkpt><trkpt lat="43.2146833" lon="13.1225883"><ele>652.0</ele><time>2026-05-02T07:43:43.981Z</time></trkpt><trkpt lat="43.2146817" lon="13.1227183"><ele>653.0</ele><time>2026-05-02T07:43:44.982Z</time></trkpt><trkpt lat="43.2146817" lon="13.1228517"><ele>654.0</ele><time>2026-05-02T07:43:45.981Z</time></trkpt><trkpt lat="43.214675" lon="13.1229717"><ele>654.0</ele><time>2026-05-02T07:43:46.982Z</time></trkpt><trkpt lat="43.214675" lon="13.1230783"><ele>654.0</ele><time>2026-05-02T07:43:47.983Z</time></trkpt><trkpt lat="43.214685" lon="13.1231717"><ele>654.0</ele><time>2026-05-02T07:43:48.982Z</time></trkpt><trkpt lat="43.2146983" lon="13.1232633"><ele>654.0</ele><time>2026-05-02T07:43:49.981Z</time></trkpt><trkpt lat="43.2147017" lon="13.1233533"><ele>654.0</ele><time>2026-05-02T07:43:50.982Z</time></trkpt><trkpt lat="43.21472" lon="13.12352"><ele>654.0</ele><time>2026-05-02T07:43:52.981Z</time></trkpt><trkpt lat="43.2147317" lon="13.1236783"><ele>655.6</ele><time>2026-05-02T07:43:54.982Z</time></trkpt><trkpt lat="43.2147283" lon="13.123835"><ele>657.2</ele><time>2026-05-02T07:43:56.983Z</time></trkpt><trkpt lat="43.214735" lon="13.1239917"><ele>658.8000000000001</ele><time>2026-05-02T07:43:58.982Z</time></trkpt><trkpt lat="43.2147517" lon="13.1241167"><ele>660.4000000000001</ele><time>2026-05-02T07:44:00.981Z</time></trkpt><trkpt lat="43.2147617" lon="13.1242067"><ele>662.0</ele><time>2026-05-02T07:44:03.981Z</time></trkpt><trkpt lat="43.2147767" lon="13.1243383"><ele>663.2</ele><time>2026-05-02T07:44:11.982Z</time></trkpt><trkpt lat="43.2147617" lon="13.1244883"><ele>664.4000000000001</ele><time>2026-05-02T07:44:13.982Z</time></trkpt><trkpt lat="43.2147367" lon="13.1246667"><ele>665.5999999999999</ele><time>2026-05-02T07:44:15.983Z</time></trkpt><trkpt lat="43.21473" lon="13.12476"><ele>666.8</ele><time>2026-05-02T07:44:16.981Z</time></trkpt><trkpt lat="43.2147217" lon="13.124855"><ele>668.0</ele><time>2026-05-02T07:44:17.982Z</time></trkpt><trkpt lat="43.2147" lon="13.1249617"><ele>668.7142857142857</ele><time>2026-05-02T07:44:18.982Z</time></trkpt><trkpt lat="43.2146717" lon="13.12507"><ele>669.4285714285714</ele><time>2026-05-02T07:44:19.982Z</time></trkpt><trkpt lat="43.2146483" lon="13.1251617"><ele>670.1428571428571</ele><time>2026-05-02T07:44:20.982Z</time></trkpt><trkpt lat="43.21463" lon="13.125255"><ele>670.8571428571429</ele><time>2026-05-02T07:44:21.981Z</time></trkpt><trkpt lat="43.2146067" lon="13.1253517"><ele>671.5714285714286</ele><time>2026-05-02T07:44:22.981Z</time></trkpt><trkpt lat="43.21458" lon="13.12545"><ele>672.2857142857143</ele><time>2026-05-02T07:44:23.982Z</time></trkpt><trkpt lat="43.214555" lon="13.1255367"><ele>673.0</ele><time>2026-05-02T07:44:24.982Z</time></trkpt><trkpt lat="43.2145283" lon="13.1256167"><ele>673.0</ele><time>2026-05-02T07:44:25.981Z</time></trkpt><trkpt lat="43.2144983" lon="13.1257"><ele>673.0</ele><time>2026-05-02T07:44:26.983Z</time></trkpt><trkpt lat="43.2144717" lon="13.125785"><ele>673.0</ele><time>2026-05-02T07:44:27.983Z</time></trkpt><trkpt lat="43.21445" lon="13.12588"><ele>673.0</ele><time>2026-05-02T07:44:28.982Z</time></trkpt><trkpt lat="43.2144333" lon="13.125995"><ele>673.0</ele><time>2026-05-02T07:44:29.982Z</time></trkpt><trkpt lat="43.214425" lon="13.1261517"><ele>673.0</ele><time>2026-05-02T07:44:31.982Z</time></trkpt><trkpt lat="43.2144117" lon="13.1263017"><ele>672.8333333333334</ele><time>2026-05-02T07:44:33.982Z</time></trkpt><trkpt lat="43.21439" lon="13.1264783"><ele>672.6666666666667</ele><time>2026-05-02T07:44:35.983Z</time></trkpt><trkpt lat="43.2143783" lon="13.1265867"><ele>672.5</ele><time>2026-05-02T07:44:36.981Z</time></trkpt><trkpt lat="43.21436" lon="13.1267017"><ele>672.3333333333334</ele><time>2026-05-02T07:44:37.981Z</time></trkpt><trkpt lat="43.2143467" lon="13.126805"><ele>672.1666666666666</ele><time>2026-05-02T07:44:38.982Z</time></trkpt><trkpt lat="43.2143233" lon="13.126905"><ele>672.0</ele><time>2026-05-02T07:44:39.981Z</time></trkpt><trkpt lat="43.2142933" lon="13.12699"><ele>671.2857142857143</ele><time>2026-05-02T07:44:40.981Z</time></trkpt><trkpt lat="43.2142583" lon="13.127065"><ele>670.5714285714286</ele><time>2026-05-02T07:44:41.981Z</time></trkpt><trkpt lat="43.2141883" lon="13.1271633"><ele>669.8571428571429</ele><time>2026-05-02T07:44:43.983Z</time></trkpt><trkpt lat="43.2141333" lon="13.12721"><ele>669.1428571428571</ele><time>2026-05-02T07:44:45.982Z</time></trkpt><trkpt lat="43.2141" lon="13.127135"><ele>668.4285714285714</ele><time>2026-05-02T07:44:58.984Z</time></trkpt><trkpt lat="43.214065" lon="13.1270317"><ele>667.7142857142858</ele><time>2026-05-02T07:45:00.983Z</time></trkpt><trkpt lat="43.2140183" lon="13.1269567"><ele>667.0</ele><time>2026-05-02T07:45:02.983Z</time></trkpt><trkpt lat="43.2139617" lon="13.12686"><ele>669.8</ele><time>2026-05-02T07:45:04.981Z</time></trkpt><trkpt lat="43.2139" lon="13.1267417"><ele>672.6</ele><time>2026-05-02T07:45:06.982Z</time></trkpt><trkpt lat="43.2138317" lon="13.1266117"><ele>675.4</ele><time>2026-05-02T07:45:08.983Z</time></trkpt><trkpt lat="43.21376" lon="13.1264767"><ele>678.1999999999999</ele><time>2026-05-02T07:45:10.982Z</time></trkpt><trkpt lat="43.21372" lon="13.1264083"><ele>681.0</ele><time>2026-05-02T07:45:11.982Z</time></trkpt><trkpt lat="43.213645" lon="13.1262783"><ele>683.0</ele><time>2026-05-02T07:45:13.983Z</time></trkpt><trkpt lat="43.2135733" lon="13.126155"><ele>685.0</ele><time>2026-05-02T07:45:15.983Z</time></trkpt><trkpt lat="43.213495" lon="13.1260367"><ele>687.0</ele><time>2026-05-02T07:45:17.981Z</time></trkpt><trkpt lat="43.213395" lon="13.1259333"><ele>689.0</ele><time>2026-05-02T07:45:19.982Z</time></trkpt><trkpt lat="43.2133333" lon="13.1258917"><ele>691.0</ele><time>2026-05-02T07:45:20.983Z</time></trkpt><trkpt lat="43.21328" lon="13.1258433"><ele>693.0</ele><time>2026-05-02T07:45:21.983Z</time></trkpt><trkpt lat="43.21319" lon="13.125715"><ele>695.0</ele><time>2026-05-02T07:45:23.982Z</time></trkpt><trkpt lat="43.21314" lon="13.12564"><ele>697.0</ele><time>2026-05-02T07:45:24.981Z</time></trkpt><trkpt lat="43.213095" lon="13.1255683"><ele>699.0</ele><time>2026-05-02T07:45:25.983Z</time></trkpt><trkpt lat="43.2130533" lon="13.1254983"><ele>701.0</ele><time>2026-05-02T07:45:26.982Z</time></trkpt><trkpt lat="43.21301" lon="13.1254233"><ele>703.0</ele><time>2026-05-02T07:45:27.982Z</time></trkpt><trkpt lat="43.2129667" lon="13.125345"><ele>706.0</ele><time>2026-05-02T07:45:28.983Z</time></trkpt><trkpt lat="43.2129233" lon="13.1252667"><ele>709.0</ele><time>2026-05-02T07:45:29.982Z</time></trkpt><trkpt lat="43.212885" lon="13.1251883"><ele>712.0</ele><time>2026-05-02T07:45:30.983Z</time></trkpt><trkpt lat="43.2128467" lon="13.1251133"><ele>715.0</ele><time>2026-05-02T07:45:31.983Z</time></trkpt><trkpt lat="43.2128017" lon="13.125045"><ele>718.0</ele><time>2026-05-02T07:45:32.982Z</time></trkpt><trkpt lat="43.2127467" lon="13.12498"><ele>721.0</ele><time>2026-05-02T07:45:33.982Z</time></trkpt><trkpt lat="43.2126867" lon="13.1249217"><ele>724.0</ele><time>2026-05-02T07:45:34.982Z</time></trkpt><trkpt lat="43.212625" lon="13.12486"><ele>725.4285714285714</ele><time>2026-05-02T07:45:35.982Z</time></trkpt><trkpt lat="43.212565" lon="13.1247967"><ele>726.8571428571429</ele><time>2026-05-02T07:45:36.983Z</time></trkpt><trkpt lat="43.2125183" lon="13.1247267"><ele>728.2857142857142</ele><time>2026-05-02T07:45:37.986Z</time></trkpt><trkpt lat="43.2124767" lon="13.1246467"><ele>729.7142857142858</ele><time>2026-05-02T07:45:38.982Z</time></trkpt><trkpt lat="43.2124383" lon="13.124565"><ele>731.1428571428572</ele><time>2026-05-02T07:45:39.982Z</time></trkpt><trkpt lat="43.212395" lon="13.1244833"><ele>732.5714285714286</ele><time>2026-05-02T07:45:40.982Z</time></trkpt><trkpt lat="43.2123517" lon="13.1244017"><ele>734.0</ele><time>2026-05-02T07:45:41.981Z</time></trkpt><trkpt lat="43.212305" lon="13.124325"><ele>736.0</ele><time>2026-05-02T07:45:42.983Z</time></trkpt><trkpt lat="43.2122617" lon="13.1242483"><ele>738.0</ele><time>2026-05-02T07:45:43.983Z</time></trkpt><trkpt lat="43.21222" lon="13.12417"><ele>740.0</ele><time>2026-05-02T07:45:44.983Z</time></trkpt><trkpt lat="43.212185" lon="13.1240883"><ele>742.0</ele><time>2026-05-02T07:45:45.982Z</time></trkpt><trkpt lat="43.21215" lon="13.1240083"><ele>744.0</ele><time>2026-05-02T07:45:46.983Z</time></trkpt><trkpt lat="43.2121117" lon="13.12393"><ele>746.0</ele><time>2026-05-02T07:45:47.984Z</time></trkpt><trkpt lat="43.2120717" lon="13.12385"><ele>748.0</ele><time>2026-05-02T07:45:48.982Z</time></trkpt><trkpt lat="43.2120333" lon="13.1237733"><ele>749.8333333333334</ele><time>2026-05-02T07:45:49.982Z</time></trkpt><trkpt lat="43.21199" lon="13.1236967"><ele>751.6666666666667</ele><time>2026-05-02T07:45:50.983Z</time></trkpt><trkpt lat="43.2119467" lon="13.1236217"><ele>753.5</ele><time>2026-05-02T07:45:51.982Z</time></trkpt><trkpt lat="43.2118967" lon="13.1235483"><ele>755.3333333333334</ele><time>2026-05-02T07:45:52.983Z</time></trkpt><trkpt lat="43.2118433" lon="13.123465"><ele>757.1666666666666</ele><time>2026-05-02T07:45:53.983Z</time></trkpt><trkpt lat="43.2117883" lon="13.12337"><ele>759.0</ele><time>2026-05-02T07:45:54.982Z</time></trkpt><trkpt lat="43.21173" lon="13.12327"><ele>760.0</ele><time>2026-05-02T07:45:55.982Z</time></trkpt><trkpt lat="43.21167" lon="13.12317"><ele>761.0</ele><time>2026-05-02T07:45:56.982Z</time></trkpt><trkpt lat="43.2116133" lon="13.1230717"><ele>762.0</ele><time>2026-05-02T07:45:57.982Z</time></trkpt><trkpt lat="43.21156" lon="13.1229733"><ele>763.0</ele><time>2026-05-02T07:45:58.982Z</time></trkpt><trkpt lat="43.2114983" lon="13.1228733"><ele>764.0</ele><time>2026-05-02T07:45:59.983Z</time></trkpt><trkpt lat="43.2114467" lon="13.12278"><ele>766.6666666666666</ele><time>2026-05-02T07:46:00.982Z</time></trkpt><trkpt lat="43.2113883" lon="13.1226883"><ele>769.3333333333333</ele><time>2026-05-02T07:46:01.982Z</time></trkpt><trkpt lat="43.21133" lon="13.1225967"><ele>772.0</ele><time>2026-05-02T07:46:02.982Z</time></trkpt><trkpt lat="43.2112733" lon="13.1225083"><ele>774.6666666666666</ele><time>2026-05-02T07:46:03.982Z</time></trkpt><trkpt lat="43.21122" lon="13.1224267"><ele>777.3333333333334</ele><time>2026-05-02T07:46:04.983Z</time></trkpt><trkpt lat="43.211165" lon="13.1223433"><ele>780.0</ele><time>2026-05-02T07:46:05.982Z</time></trkpt><trkpt lat="43.2111083" lon="13.1222617"><ele>780.8333333333334</ele><time>2026-05-02T07:46:06.982Z</time></trkpt><trkpt lat="43.2110533" lon="13.1221783"><ele>781.6666666666667</ele><time>2026-05-02T07:46:07.983Z</time></trkpt><trkpt lat="43.210995" lon="13.12209"><ele>782.5</ele><time>2026-05-02T07:46:08.984Z</time></trkpt><trkpt lat="43.2109417" lon="13.1219983"><ele>783.3333333333334</ele><time>2026-05-02T07:46:09.982Z</time></trkpt><trkpt lat="43.2108867" lon="13.1219033"><ele>784.1666666666667</ele><time>2026-05-02T07:46:10.982Z</time></trkpt><trkpt lat="43.2108333" lon="13.1218067"><ele>785.0</ele><time>2026-05-02T07:46:11.982Z</time></trkpt><trkpt lat="43.2107733" lon="13.1217117"><ele>785.0</ele><time>2026-05-02T07:46:12.983Z</time></trkpt><trkpt lat="43.21071" lon="13.1216233"><ele>785.0</ele><time>2026-05-02T07:46:13.983Z</time></trkpt><trkpt lat="43.210645" lon="13.121535"><ele>785.0</ele><time>2026-05-02T07:46:14.982Z</time></trkpt><trkpt lat="43.2105783" lon="13.1214483"><ele>785.0</ele><time>2026-05-02T07:46:15.983Z</time></trkpt><trkpt lat="43.2105083" lon="13.1213633"><ele>785.0</ele><time>2026-05-02T07:46:16.983Z</time></trkpt><trkpt lat="43.2104367" lon="13.1212783"><ele>787.2</ele><time>2026-05-02T07:46:17.983Z</time></trkpt><trkpt lat="43.2103617" lon="13.12119"><ele>789.4</ele><time>2026-05-02T07:46:18.983Z</time></trkpt><trkpt lat="43.2102833" lon="13.1210967"><ele>791.5999999999999</ele><time>2026-05-02T07:46:19.984Z</time></trkpt><trkpt lat="43.2102017" lon="13.1210017"><ele>793.8</ele><time>2026-05-02T07:46:20.982Z</time></trkpt><trkpt lat="43.2101167" lon="13.1209083"><ele>796.0</ele><time>2026-05-02T07:46:21.982Z</time></trkpt><trkpt lat="43.21003" lon="13.120815"><ele>795.5</ele><time>2026-05-02T07:46:22.982Z</time></trkpt><trkpt lat="43.2099383" lon="13.12072"><ele>795.0</ele><time>2026-05-02T07:46:23.983Z</time></trkpt><trkpt lat="43.209845" lon="13.120625"><ele>794.5</ele><time>2026-05-02T07:46:24.983Z</time></trkpt><trkpt lat="43.20975" lon="13.12053"><ele>794.0</ele><time>2026-05-02T07:46:25.981Z</time></trkpt><trkpt lat="43.209655" lon="13.1204417"><ele>797.0</ele><time>2026-05-02T07:46:26.981Z</time></trkpt><trkpt lat="43.2095583" lon="13.1203567"><ele>800.0</ele><time>2026-05-02T07:46:27.981Z</time></trkpt><trkpt lat="43.2094633" lon="13.1202733"><ele>803.0</ele><time>2026-05-02T07:46:28.981Z</time></trkpt><trkpt lat="43.209365" lon="13.12019"><ele>806.0</ele><time>2026-05-02T07:46:29.981Z</time></trkpt><trkpt lat="43.2092583" lon="13.1201017"><ele>806.0</ele><time>2026-05-02T07:46:30.982Z</time></trkpt><trkpt lat="43.209145" lon="13.1200083"><ele>806.0</ele><time>2026-05-02T07:46:31.981Z</time></trkpt><trkpt lat="43.2090367" lon="13.119925"><ele>806.0</ele><time>2026-05-02T07:46:32.981Z</time></trkpt><trkpt lat="43.2089417" lon="13.1198533"><ele>806.0</ele><time>2026-05-02T07:46:33.981Z</time></trkpt><trkpt lat="43.2088517" lon="13.1197833"><ele>806.8333333333334</ele><time>2026-05-02T07:46:34.981Z</time></trkpt><trkpt lat="43.20877" lon="13.1197183"><ele>807.6666666666667</ele><time>2026-05-02T07:46:35.982Z</time></trkpt><trkpt lat="43.2087017" lon="13.1196633"><ele>808.5</ele><time>2026-05-02T07:46:36.982Z</time></trkpt><trkpt lat="43.2086467" lon="13.119615"><ele>809.3333333333333</ele><time>2026-05-02T07:46:37.981Z</time></trkpt><trkpt lat="43.2085467" lon="13.1195217"><ele>810.1666666666666</ele><time>2026-05-02T07:46:39.981Z</time></trkpt><trkpt lat="43.20849" lon="13.1194733"><ele>811.0</ele><time>2026-05-02T07:46:40.981Z</time></trkpt><trkpt lat="43.2084233" lon="13.1194283"><ele>811.0</ele><time>2026-05-02T07:46:41.981Z</time></trkpt><trkpt lat="43.2083417" lon="13.1194083"><ele>811.0</ele><time>2026-05-02T07:46:42.981Z</time></trkpt><trkpt lat="43.2082383" lon="13.1194033"><ele>811.0</ele><time>2026-05-02T07:46:43.982Z</time></trkpt><trkpt lat="43.2081117" lon="13.119415"><ele>811.0</ele><time>2026-05-02T07:46:44.982Z</time></trkpt><trkpt lat="43.207995" lon="13.11943"><ele>811.0</ele><time>2026-05-02T07:46:45.982Z</time></trkpt><trkpt lat="43.2078883" lon="13.1194567"><ele>812.1999999999999</ele><time>2026-05-02T07:46:46.981Z</time></trkpt><trkpt lat="43.2077917" lon="13.119495"><ele>813.4</ele><time>2026-05-02T07:46:47.982Z</time></trkpt><trkpt lat="43.2077" lon="13.1195433"><ele>814.6</ele><time>2026-05-02T07:46:48.982Z</time></trkpt><trkpt lat="43.2076133" lon="13.11961"><ele>815.8</ele><time>2026-05-02T07:46:49.981Z</time></trkpt><trkpt lat="43.2075283" lon="13.1197"><ele>817.0</ele><time>2026-05-02T07:46:50.981Z</time></trkpt><trkpt lat="43.2074367" lon="13.1198267"><ele>817.75</ele><time>2026-05-02T07:46:51.981Z</time></trkpt><trkpt lat="43.2073517" lon="13.1199633"><ele>818.5</ele><time>2026-05-02T07:46:52.981Z</time></trkpt><trkpt lat="43.2072783" lon="13.1200933"><ele>819.25</ele><time>2026-05-02T07:46:53.981Z</time></trkpt><trkpt lat="43.2072083" lon="13.1202033"><ele>820.0</ele><time>2026-05-02T07:46:54.981Z</time></trkpt><trkpt lat="43.2071417" lon="13.1202933"><ele>821.4</ele><time>2026-05-02T07:46:55.981Z</time></trkpt><trkpt lat="43.2070683" lon="13.1203733"><ele>822.8</ele><time>2026-05-02T07:46:56.981Z</time></trkpt><trkpt lat="43.2069883" lon="13.1204417"><ele>824.2</ele><time>2026-05-02T07:46:57.982Z</time></trkpt><trkpt lat="43.2069" lon="13.1204867"><ele>825.6</ele><time>2026-05-02T07:46:58.982Z</time></trkpt><trkpt lat="43.206815" lon="13.1205183"><ele>827.0</ele><time>2026-05-02T07:46:59.981Z</time></trkpt><trkpt lat="43.20672" lon="13.12052"><ele>827.0</ele><time>2026-05-02T07:47:00.982Z</time></trkpt><trkpt lat="43.2066233" lon="13.1205083"><ele>827.0</ele><time>2026-05-02T07:47:01.981Z</time></trkpt><trkpt lat="43.2065217" lon="13.1204917"><ele>827.0</ele><time>2026-05-02T07:47:02.981Z</time></trkpt><trkpt lat="43.20642" lon="13.1204833"><ele>827.0</ele><time>2026-05-02T07:47:03.981Z</time></trkpt><trkpt lat="43.2063233" lon="13.1204867"><ele>827.0</ele><time>2026-05-02T07:47:04.981Z</time></trkpt><trkpt lat="43.20623" lon="13.120515"><ele>827.3333333333334</ele><time>2026-05-02T07:47:05.981Z</time></trkpt><trkpt lat="43.2061433" lon="13.1205667"><ele>827.6666666666667</ele><time>2026-05-02T07:47:06.984Z</time></trkpt><trkpt lat="43.206065" lon="13.120635"><ele>828.0</ele><time>2026-05-02T07:47:07.982Z</time></trkpt><trkpt lat="43.205995" lon="13.1206983"><ele>828.3333333333333</ele><time>2026-05-02T07:47:08.982Z</time></trkpt><trkpt lat="43.20592" lon="13.1207567"><ele>828.6666666666666</ele><time>2026-05-02T07:47:09.981Z</time></trkpt><trkpt lat="43.205845" lon="13.1207933"><ele>829.0</ele><time>2026-05-02T07:47:10.981Z</time></trkpt><trkpt lat="43.2057683" lon="13.120815"><ele>829.0</ele><time>2026-05-02T07:47:11.981Z</time></trkpt><trkpt lat="43.2056817" lon="13.1208117"><ele>829.0</ele><time>2026-05-02T07:47:12.983Z</time></trkpt><trkpt lat="43.2055867" lon="13.1207817"><ele>829.0</ele><time>2026-05-02T07:47:13.981Z</time></trkpt><trkpt lat="43.20549" lon="13.12075"><ele>829.0</ele><time>2026-05-02T07:47:14.982Z</time></trkpt><trkpt lat="43.2053983" lon="13.1207233"><ele>829.0</ele><time>2026-05-02T07:47:15.981Z</time></trkpt><trkpt lat="43.205305" lon="13.1206983"><ele>828.0</ele><time>2026-05-02T07:47:16.983Z</time></trkpt><trkpt lat="43.2052167" lon="13.120675"><ele>827.0</ele><time>2026-05-02T07:47:17.983Z</time></trkpt><trkpt lat="43.20513" lon="13.1206483"><ele>826.0</ele><time>2026-05-02T07:47:18.981Z</time></trkpt><trkpt lat="43.20504" lon="13.120625"><ele>825.0</ele><time>2026-05-02T07:47:19.981Z</time></trkpt><trkpt lat="43.2049433" lon="13.1205967"><ele>824.0</ele><time>2026-05-02T07:47:20.982Z</time></trkpt><trkpt lat="43.20484" lon="13.1205667"><ele>822.8000000000001</ele><time>2026-05-02T07:47:21.981Z</time></trkpt><trkpt lat="43.20474" lon="13.1205367"><ele>821.6</ele><time>2026-05-02T07:47:22.981Z</time></trkpt><trkpt lat="43.2046483" lon="13.1205033"><ele>820.4</ele><time>2026-05-02T07:47:23.981Z</time></trkpt><trkpt lat="43.20456" lon="13.1204733"><ele>819.2</ele><time>2026-05-02T07:47:24.982Z</time></trkpt><trkpt lat="43.2044717" lon="13.12044"><ele>818.0</ele><time>2026-05-02T07:47:25.982Z</time></trkpt><trkpt lat="43.2043833" lon="13.120405"><ele>818.0</ele><time>2026-05-02T07:47:26.981Z</time></trkpt><trkpt lat="43.2042917" lon="13.1203717"><ele>818.0</ele><time>2026-05-02T07:47:27.981Z</time></trkpt><trkpt lat="43.204205" lon="13.120335"><ele>818.0</ele><time>2026-05-02T07:47:28.981Z</time></trkpt><trkpt lat="43.2041167" lon="13.1202983"><ele>818.0</ele><time>2026-05-02T07:47:29.981Z</time></trkpt><trkpt lat="43.20403" lon="13.1202617"><ele>818.0</ele><time>2026-05-02T07:47:30.982Z</time></trkpt><trkpt lat="43.20395" lon="13.12023"><ele>817.3333333333334</ele><time>2026-05-02T07:47:31.98Z</time></trkpt><trkpt lat="43.2038767" lon="13.1201983"><ele>816.6666666666667</ele><time>2026-05-02T07:47:32.981Z</time></trkpt><trkpt lat="43.203805" lon="13.1201633"><ele>816.0</ele><time>2026-05-02T07:47:33.983Z</time></trkpt><trkpt lat="43.2037317" lon="13.120115"><ele>815.3333333333333</ele><time>2026-05-02T07:47:34.981Z</time></trkpt><trkpt lat="43.2036533" lon="13.1200567"><ele>814.6666666666666</ele><time>2026-05-02T07:47:35.981Z</time></trkpt><trkpt lat="43.2035683" lon="13.1199867"><ele>814.0</ele><time>2026-05-02T07:47:36.982Z</time></trkpt><trkpt lat="43.203485" lon="13.1199167"><ele>814.2</ele><time>2026-05-02T07:47:37.981Z</time></trkpt><trkpt lat="43.2033967" lon="13.11985"><ele>814.4000000000001</ele><time>2026-05-02T07:47:38.982Z</time></trkpt><trkpt lat="43.2033083" lon="13.11978"><ele>814.6</ele><time>2026-05-02T07:47:39.982Z</time></trkpt><trkpt lat="43.2032167" lon="13.119705"><ele>814.8</ele><time>2026-05-02T07:47:40.982Z</time></trkpt><trkpt lat="43.203125" lon="13.11963"><ele>815.0</ele><time>2026-05-02T07:47:41.984Z</time></trkpt><trkpt lat="43.203035" lon="13.1195583"><ele>812.8</ele><time>2026-05-02T07:47:42.981Z</time></trkpt><trkpt lat="43.2029433" lon="13.11949"><ele>810.6</ele><time>2026-05-02T07:47:43.981Z</time></trkpt><trkpt lat="43.2028533" lon="13.1194283"><ele>808.4000000000001</ele><time>2026-05-02T07:47:44.983Z</time></trkpt><trkpt lat="43.2027667" lon="13.1193767"><ele>806.2</ele><time>2026-05-02T07:47:45.981Z</time></trkpt><trkpt lat="43.20268" lon="13.1193333"><ele>804.0</ele><time>2026-05-02T07:47:46.981Z</time></trkpt><trkpt lat="43.2025967" lon="13.11929"><ele>804.0</ele><time>2026-05-02T07:47:47.982Z</time></trkpt><trkpt lat="43.20251" lon="13.11924"><ele>804.0</ele><time>2026-05-02T07:47:48.982Z</time></trkpt><trkpt lat="43.202425" lon="13.11918"><ele>804.0</ele><time>2026-05-02T07:47:49.982Z</time></trkpt><trkpt lat="43.2023367" lon="13.1191083"><ele>804.0</ele><time>2026-05-02T07:47:50.981Z</time></trkpt><trkpt lat="43.2022467" lon="13.1190333"><ele>804.0</ele><time>2026-05-02T07:47:51.982Z</time></trkpt><trkpt lat="43.20216" lon="13.1189583"><ele>801.2</ele><time>2026-05-02T07:47:52.982Z</time></trkpt><trkpt lat="43.2020783" lon="13.1188783"><ele>798.4000000000001</ele><time>2026-05-02T07:47:53.981Z</time></trkpt><trkpt lat="43.2019917" lon="13.11879"><ele>795.6</ele><time>2026-05-02T07:47:54.981Z</time></trkpt><trkpt lat="43.20191" lon="13.1186983"><ele>792.8</ele><time>2026-05-02T07:47:55.982Z</time></trkpt><trkpt lat="43.2018333" lon="13.118605"><ele>790.0</ele><time>2026-05-02T07:47:56.982Z</time></trkpt><trkpt lat="43.201755" lon="13.118505"><ele>790.0</ele><time>2026-05-02T07:47:57.981Z</time></trkpt><trkpt lat="43.2016733" lon="13.1184"><ele>790.0</ele><time>2026-05-02T07:47:58.981Z</time></trkpt><trkpt lat="43.2015917" lon="13.1183"><ele>790.0</ele><time>2026-05-02T07:47:59.981Z</time></trkpt><trkpt lat="43.2014983" lon="13.1182033"><ele>790.0</ele><time>2026-05-02T07:48:00.983Z</time></trkpt><trkpt lat="43.2014" lon="13.1181083"><ele>787.0</ele><time>2026-05-02T07:48:01.981Z</time></trkpt><trkpt lat="43.2013" lon="13.1180117"><ele>784.0</ele><time>2026-05-02T07:48:02.981Z</time></trkpt><trkpt lat="43.2012067" lon="13.1179167"><ele>781.0</ele><time>2026-05-02T07:48:03.981Z</time></trkpt><trkpt lat="43.20112" lon="13.11783"><ele>778.0</ele><time>2026-05-02T07:48:04.982Z</time></trkpt><trkpt lat="43.2010433" lon="13.11775"><ele>775.0</ele><time>2026-05-02T07:48:05.983Z</time></trkpt><trkpt lat="43.2009717" lon="13.117665"><ele>775.0</ele><time>2026-05-02T07:48:06.981Z</time></trkpt><trkpt lat="43.20091" lon="13.1175683"><ele>775.0</ele><time>2026-05-02T07:48:07.981Z</time></trkpt><trkpt lat="43.2008483" lon="13.1174667"><ele>775.0</ele><time>2026-05-02T07:48:08.982Z</time></trkpt><trkpt lat="43.2007767" lon="13.11738"><ele>775.0</ele><time>2026-05-02T07:48:09.982Z</time></trkpt><trkpt lat="43.2006933" lon="13.1173167"><ele>775.0</ele><time>2026-05-02T07:48:10.982Z</time></trkpt><trkpt lat="43.2006033" lon="13.1172633"><ele>771.4</ele><time>2026-05-02T07:48:11.981Z</time></trkpt><trkpt lat="43.2005067" lon="13.1172083"><ele>767.8</ele><time>2026-05-02T07:48:12.981Z</time></trkpt><trkpt lat="43.2004117" lon="13.117145"><ele>764.2</ele><time>2026-05-02T07:48:13.982Z</time></trkpt><trkpt lat="43.2003133" lon="13.11707"><ele>760.6</ele><time>2026-05-02T07:48:14.982Z</time></trkpt><trkpt lat="43.20021" lon="13.1169833"><ele>757.0</ele><time>2026-05-02T07:48:15.984Z</time></trkpt><trkpt lat="43.2001017" lon="13.1168917"><ele>757.0</ele><time>2026-05-02T07:48:16.981Z</time></trkpt><trkpt lat="43.1999983" lon="13.1168"><ele>757.0</ele><time>2026-05-02T07:48:17.982Z</time></trkpt><trkpt lat="43.1998967" lon="13.11671"><ele>757.0</ele><time>2026-05-02T07:48:18.981Z</time></trkpt><trkpt lat="43.1997967" lon="13.1166233"><ele>757.0</ele><time>2026-05-02T07:48:19.982Z</time></trkpt><trkpt lat="43.19971" lon="13.116545"><ele>755.1666666666667</ele><time>2026-05-02T07:48:20.983Z</time></trkpt><trkpt lat="43.199635" lon="13.1164767"><ele>753.3333333333334</ele><time>2026-05-02T07:48:21.981Z</time></trkpt><trkpt lat="43.1995667" lon="13.116415"><ele>751.5</ele><time>2026-05-02T07:48:22.982Z</time></trkpt><trkpt lat="43.19951" lon="13.1163633"><ele>749.6666666666666</ele><time>2026-05-02T07:48:23.982Z</time></trkpt><trkpt lat="43.1994267" lon="13.11628"><ele>747.8333333333333</ele><time>2026-05-02T07:48:25.983Z</time></trkpt><trkpt lat="43.1993483" lon="13.1161983"><ele>746.0</ele><time>2026-05-02T07:48:27.982Z</time></trkpt><trkpt lat="43.1992783" lon="13.1161433"><ele>746.0</ele><time>2026-05-02T07:48:29.982Z</time></trkpt><trkpt lat="43.1992083" lon="13.1161117"><ele>746.0</ele><time>2026-05-02T07:48:31.981Z</time></trkpt><trkpt lat="43.1991333" lon="13.116075"><ele>746.0</ele><time>2026-05-02T07:48:33.981Z</time></trkpt><trkpt lat="43.1990633" lon="13.1160267"><ele>746.0</ele><time>2026-05-02T07:48:35.982Z</time></trkpt><trkpt lat="43.1989867" lon="13.1159783"><ele>746.0</ele><time>2026-05-02T07:48:37.983Z</time></trkpt><trkpt lat="43.1989017" lon="13.115935"><ele>746.0</ele><time>2026-05-02T07:48:39.983Z</time></trkpt><trkpt lat="43.1988267" lon="13.1159133"><ele>744.8333333333333</ele><time>2026-05-02T07:48:41.982Z</time></trkpt><trkpt lat="43.198745" lon="13.1159333"><ele>743.6666666666666</ele><time>2026-05-02T07:48:43.982Z</time></trkpt><trkpt lat="43.1986683" lon="13.11599"><ele>742.5</ele><time>2026-05-02T07:48:45.982Z</time></trkpt><trkpt lat="43.1985917" lon="13.116065"><ele>741.3333333333334</ele><time>2026-05-02T07:48:47.983Z</time></trkpt><trkpt lat="43.19852" lon="13.1161533"><ele>740.1666666666667</ele><time>2026-05-02T07:48:49.982Z</time></trkpt><trkpt lat="43.1984667" lon="13.1162267"><ele>739.0</ele><time>2026-05-02T07:48:51.981Z</time></trkpt><trkpt lat="43.1984117" lon="13.1162883"><ele>739.0</ele><time>2026-05-02T07:48:54.982Z</time></trkpt><trkpt lat="43.1983533" lon="13.1163583"><ele>739.0</ele><time>2026-05-02T07:48:57.983Z</time></trkpt><trkpt lat="43.19831" lon="13.1164367"><ele>739.0</ele><time>2026-05-02T07:48:59.982Z</time></trkpt><trkpt lat="43.1982633" lon="13.1165217"><ele>739.0</ele><time>2026-05-02T07:49:01.981Z</time></trkpt><trkpt lat="43.19821" lon="13.1166267"><ele>739.0</ele><time>2026-05-02T07:49:03.982Z</time></trkpt><trkpt lat="43.198155" lon="13.1167417"><ele>739.0</ele><time>2026-05-02T07:49:05.983Z</time></trkpt><trkpt lat="43.1981033" lon="13.11686"><ele>737.6666666666667</ele><time>2026-05-02T07:49:07.982Z</time></trkpt><trkpt lat="43.19806" lon="13.116955"><ele>736.3333333333334</ele><time>2026-05-02T07:49:09.982Z</time></trkpt><trkpt lat="43.1980167" lon="13.11702"><ele>735.0</ele><time>2026-05-02T07:49:11.982Z</time></trkpt><trkpt lat="43.1979433" lon="13.116985"><ele>733.6666666666666</ele><time>2026-05-02T07:49:15.983Z</time></trkpt><trkpt lat="43.1979367" lon="13.1168683"><ele>732.3333333333333</ele><time>2026-05-02T07:49:18.981Z</time></trkpt><trkpt lat="43.1979567" lon="13.1167633"><ele>731.0</ele><time>2026-05-02T07:49:20.983Z</time></trkpt><trkpt lat="43.1979983" lon="13.1166583"><ele>731.4</ele><time>2026-05-02T07:49:22.982Z</time></trkpt><trkpt lat="43.19806" lon="13.1165467"><ele>731.8</ele><time>2026-05-02T07:49:24.983Z</time></trkpt><trkpt lat="43.1981517" lon="13.1164117"><ele>732.1999999999999</ele><time>2026-05-02T07:49:26.983Z</time></trkpt><trkpt lat="43.1982067" lon="13.1163333"><ele>732.5999999999999</ele><time>2026-05-02T07:49:27.983Z</time></trkpt><trkpt lat="43.1982617" lon="13.1162533"><ele>733.0</ele><time>2026-05-02T07:49:28.982Z</time></trkpt><trkpt lat="43.1983167" lon="13.1161733"><ele>733.6666666666667</ele><time>2026-05-02T07:49:29.982Z</time></trkpt><trkpt lat="43.1983733" lon="13.1160917"><ele>734.3333333333334</ele><time>2026-05-02T07:49:30.982Z</time></trkpt><trkpt lat="43.19843" lon="13.11601"><ele>735.0</ele><time>2026-05-02T07:49:31.981Z</time></trkpt><trkpt lat="43.1984833" lon="13.115935"><ele>735.6666666666666</ele><time>2026-05-02T07:49:32.983Z</time></trkpt><trkpt lat="43.1985317" lon="13.1158683"><ele>736.3333333333333</ele><time>2026-05-02T07:49:33.982Z</time></trkpt><trkpt lat="43.1986117" lon="13.1157483"><ele>737.0</ele><time>2026-05-02T07:49:35.983Z</time></trkpt><trkpt lat="43.1986867" lon="13.1156383"><ele>737.0</ele><time>2026-05-02T07:49:37.982Z</time></trkpt><trkpt lat="43.1987483" lon="13.1155567"><ele>737.0</ele><time>2026-05-02T07:49:39.982Z</time></trkpt><trkpt lat="43.1987767" lon="13.1154567"><ele>737.0</ele><time>2026-05-02T07:49:42.982Z</time></trkpt><trkpt lat="43.198735" lon="13.1153667"><ele>737.0</ele><time>2026-05-02T07:49:46.983Z</time></trkpt><trkpt lat="43.1986783" lon="13.1153233"><ele>737.0</ele><time>2026-05-02T07:49:48.982Z</time></trkpt><trkpt lat="43.1986" lon="13.1152817"><ele>737.0</ele><time>2026-05-02T07:49:50.983Z</time></trkpt><trkpt lat="43.19852" lon="13.1152417"><ele>737.0</ele><time>2026-05-02T07:49:52.982Z</time></trkpt><trkpt lat="43.1984417" lon="13.1152033"><ele>737.0</ele><time>2026-05-02T07:49:54.981Z</time></trkpt><trkpt lat="43.1984883" lon="13.11513"><ele>737.0</ele><time>2026-05-02T07:49:59.982Z</time></trkpt><trkpt lat="43.1985633" lon="13.11519"><ele>737.0</ele><time>2026-05-02T07:50:01.982Z</time></trkpt><trkpt lat="43.1986517" lon="13.1152983"><ele>737.0</ele><time>2026-05-02T07:50:03.982Z</time></trkpt><trkpt lat="43.1987167" lon="13.1153933"><ele>737.0</ele><time>2026-05-02T07:50:05.982Z</time></trkpt><trkpt lat="43.198735" lon="13.1154783"><ele>737.0</ele><time>2026-05-02T07:50:08.983Z</time></trkpt><trkpt lat="43.19866" lon="13.11552"><ele>737.0</ele><time>2026-05-02T07:51:29.982Z</time></trkpt><trkpt lat="43.198575" lon="13.115535"><ele>737.0</ele><time>2026-05-02T07:51:31.984Z</time></trkpt><trkpt lat="43.1984533" lon="13.115575"><ele>737.0</ele><time>2026-05-02T07:51:33.981Z</time></trkpt><trkpt lat="43.198385" lon="13.1155983"><ele>737.0</ele><time>2026-05-02T07:51:34.983Z</time></trkpt><trkpt lat="43.1983183" lon="13.1156183"><ele>737.0000000000001</ele><time>2026-05-02T07:51:35.982Z</time></trkpt><trkpt lat="43.1982517" lon="13.1156383"><ele>737.0</ele><time>2026-05-02T07:51:36.981Z</time></trkpt><trkpt lat="43.1981817" lon="13.1156533"><ele>737.0</ele><time>2026-05-02T07:51:37.981Z</time></trkpt><trkpt lat="43.1981133" lon="13.1156683"><ele>737.0</ele><time>2026-05-02T07:51:38.983Z</time></trkpt><trkpt lat="43.1980417" lon="13.11568"><ele>737.0</ele><time>2026-05-02T07:51:39.981Z</time></trkpt><trkpt lat="43.1979767" lon="13.11569"><ele>737.0000000000001</ele><time>2026-05-02T07:51:40.982Z</time></trkpt><trkpt lat="43.19791" lon="13.1157"><ele>737.0</ele><time>2026-05-02T07:51:41.981Z</time></trkpt><trkpt lat="43.1978367" lon="13.11571"><ele>736.4285714285714</ele><time>2026-05-02T07:51:42.982Z</time></trkpt><trkpt lat="43.19776" lon="13.11572"><ele>735.8571428571429</ele><time>2026-05-02T07:51:43.982Z</time></trkpt><trkpt lat="43.197685" lon="13.11573"><ele>735.2857142857142</ele><time>2026-05-02T07:51:44.983Z</time></trkpt><trkpt lat="43.19761" lon="13.11574"><ele>734.7142857142858</ele><time>2026-05-02T07:51:45.981Z</time></trkpt><trkpt lat="43.1975383" lon="13.1157467"><ele>734.1428571428571</ele><time>2026-05-02T07:51:46.981Z</time></trkpt><trkpt lat="43.197465" lon="13.1157517"><ele>733.5714285714286</ele><time>2026-05-02T07:51:47.981Z</time></trkpt><trkpt lat="43.1973983" lon="13.1157567"><ele>733.0</ele><time>2026-05-02T07:51:48.981Z</time></trkpt><trkpt lat="43.197335" lon="13.115765"><ele>731.5714285714286</ele><time>2026-05-02T07:51:49.982Z</time></trkpt><trkpt lat="43.1972667" lon="13.115775"><ele>730.1428571428571</ele><time>2026-05-02T07:51:50.981Z</time></trkpt><trkpt lat="43.1971933" lon="13.115785"><ele>728.7142857142858</ele><time>2026-05-02T07:51:51.981Z</time></trkpt><trkpt lat="43.1971217" lon="13.115795"><ele>727.2857142857142</ele><time>2026-05-02T07:51:52.982Z</time></trkpt><trkpt lat="43.19705" lon="13.1158033"><ele>725.8571428571429</ele><time>2026-05-02T07:51:53.981Z</time></trkpt><trkpt lat="43.19698" lon="13.1158117"><ele>724.4285714285714</ele><time>2026-05-02T07:51:54.983Z</time></trkpt><trkpt lat="43.196915" lon="13.1158183"><ele>723.0</ele><time>2026-05-02T07:51:55.981Z</time></trkpt><trkpt lat="43.1968133" lon="13.1158317"><ele>723.0</ele><time>2026-05-02T07:51:57.982Z</time></trkpt><trkpt lat="43.19673" lon="13.1158567"><ele>723.0</ele><time>2026-05-02T07:51:59.981Z</time></trkpt><trkpt lat="43.196665" lon="13.1158983"><ele>723.0</ele><time>2026-05-02T07:52:01.982Z</time></trkpt><trkpt lat="43.19661" lon="13.115955"><ele>723.0</ele><time>2026-05-02T07:52:03.982Z</time></trkpt><trkpt lat="43.196555" lon="13.116035"><ele>723.0</ele><time>2026-05-02T07:52:07.982Z</time></trkpt><trkpt lat="43.1964883" lon="13.116125"><ele>723.0</ele><time>2026-05-02T07:52:10.981Z</time></trkpt><trkpt lat="43.196395" lon="13.1162117"><ele>722.6666666666666</ele><time>2026-05-02T07:52:12.982Z</time></trkpt><trkpt lat="43.196335" lon="13.1162667"><ele>722.3333333333334</ele><time>2026-05-02T07:52:13.982Z</time></trkpt><trkpt lat="43.1962717" lon="13.116325"><ele>722.0</ele><time>2026-05-02T07:52:14.983Z</time></trkpt><trkpt lat="43.1962083" lon="13.116385"><ele>721.6666666666667</ele><time>2026-05-02T07:52:15.981Z</time></trkpt><trkpt lat="43.196145" lon="13.1164483"><ele>721.3333333333334</ele><time>2026-05-02T07:52:16.982Z</time></trkpt><trkpt lat="43.1960883" lon="13.1165083"><ele>721.0</ele><time>2026-05-02T07:52:17.982Z</time></trkpt><trkpt lat="43.195995" lon="13.1166167"><ele>721.0</ele><time>2026-05-02T07:52:19.982Z</time></trkpt><trkpt lat="43.1959083" lon="13.11673"><ele>721.0</ele><time>2026-05-02T07:52:21.982Z</time></trkpt><trkpt lat="43.1958617" lon="13.11679"><ele>721.0</ele><time>2026-05-02T07:52:22.981Z</time></trkpt><trkpt lat="43.1958083" lon="13.116855"><ele>721.0</ele><time>2026-05-02T07:52:23.983Z</time></trkpt><trkpt lat="43.19575" lon="13.116925"><ele>721.0</ele><time>2026-05-02T07:52:24.982Z</time></trkpt><trkpt lat="43.1956983" lon="13.11699"><ele>721.0</ele><time>2026-05-02T07:52:25.982Z</time></trkpt><trkpt lat="43.195645" lon="13.117055"><ele>721.0</ele><time>2026-05-02T07:52:26.982Z</time></trkpt><trkpt lat="43.1955967" lon="13.117115"><ele>721.0</ele><time>2026-05-02T07:52:27.982Z</time></trkpt><trkpt lat="43.1955" lon="13.1172317"><ele>721.0</ele><time>2026-05-02T07:52:29.982Z</time></trkpt><trkpt lat="43.195405" lon="13.1173433"><ele>721.0</ele><time>2026-05-02T07:52:31.982Z</time></trkpt><trkpt lat="43.1953567" lon="13.1174033"><ele>721.0</ele><time>2026-05-02T07:52:32.984Z</time></trkpt><trkpt lat="43.1953083" lon="13.11746"><ele>721.0</ele><time>2026-05-02T07:52:33.982Z</time></trkpt><trkpt lat="43.195215" lon="13.117565"><ele>720.4</ele><time>2026-05-02T07:52:35.981Z</time></trkpt><trkpt lat="43.19513" lon="13.1176517"><ele>719.8</ele><time>2026-05-02T07:52:37.982Z</time></trkpt><trkpt lat="43.1950633" lon="13.1177233"><ele>719.1999999999999</ele><time>2026-05-02T07:52:39.982Z</time></trkpt><trkpt lat="43.1950117" lon="13.1177733"><ele>718.5999999999999</ele><time>2026-05-02T07:52:56.983Z</time></trkpt><trkpt lat="43.1949383" lon="13.117775"><ele>718.0</ele><time>2026-05-02T07:52:58.983Z</time></trkpt><trkpt lat="43.1948017" lon="13.1177917"><ele>719.8</ele><time>2026-05-02T07:53:00.983Z</time></trkpt><trkpt lat="43.1947133" lon="13.11781"><ele>721.5999999999999</ele><time>2026-05-02T07:53:01.981Z</time></trkpt><trkpt lat="43.1946117" lon="13.1178433"><ele>723.4000000000001</ele><time>2026-05-02T07:53:02.983Z</time></trkpt><trkpt lat="43.1944983" lon="13.117895"><ele>725.2</ele><time>2026-05-02T07:53:03.981Z</time></trkpt><trkpt lat="43.1943783" lon="13.1179533"><ele>727.0</ele><time>2026-05-02T07:53:04.982Z</time></trkpt><trkpt lat="43.1942517" lon="13.1180167"><ele>727.0</ele><time>2026-05-02T07:53:05.982Z</time></trkpt><trkpt lat="43.1941283" lon="13.11808"><ele>727.0</ele><time>2026-05-02T07:53:06.982Z</time></trkpt><trkpt lat="43.1940067" lon="13.1181417"><ele>727.0</ele><time>2026-05-02T07:53:07.983Z</time></trkpt><trkpt lat="43.1938767" lon="13.1182067"><ele>727.0</ele><time>2026-05-02T07:53:08.982Z</time></trkpt><trkpt lat="43.193745" lon="13.1182667"><ele>730.0</ele><time>2026-05-02T07:53:09.983Z</time></trkpt><trkpt lat="43.193615" lon="13.118325"><ele>733.0</ele><time>2026-05-02T07:53:10.983Z</time></trkpt><trkpt lat="43.1934967" lon="13.118385"><ele>736.0</ele><time>2026-05-02T07:53:11.982Z</time></trkpt><trkpt lat="43.1933833" lon="13.1184517"><ele>739.0</ele><time>2026-05-02T07:53:12.981Z</time></trkpt><trkpt lat="43.1932683" lon="13.11853"><ele>740.5</ele><time>2026-05-02T07:53:13.982Z</time></trkpt><trkpt lat="43.1931517" lon="13.1186217"><ele>742.0</ele><time>2026-05-02T07:53:14.983Z</time></trkpt><trkpt lat="43.1930383" lon="13.1187167"><ele>743.5</ele><time>2026-05-02T07:53:15.983Z</time></trkpt><trkpt lat="43.192925" lon="13.1188133"><ele>745.0</ele><time>2026-05-02T07:53:16.982Z</time></trkpt><trkpt lat="43.1928067" lon="13.1189283"><ele>745.0</ele><time>2026-05-02T07:53:17.982Z</time></trkpt><trkpt lat="43.1926883" lon="13.119055"><ele>745.0</ele><time>2026-05-02T07:53:18.982Z</time></trkpt><trkpt lat="43.192575" lon="13.1191883"><ele>745.0</ele><time>2026-05-02T07:53:19.982Z</time></trkpt><trkpt lat="43.1924667" lon="13.1193267"><ele>745.0</ele><time>2026-05-02T07:53:20.984Z</time></trkpt><trkpt lat="43.1923717" lon="13.1194583"><ele>746.6</ele><time>2026-05-02T07:53:21.984Z</time></trkpt><trkpt lat="43.192285" lon="13.1195783"><ele>748.2</ele><time>2026-05-02T07:53:22.982Z</time></trkpt><trkpt lat="43.1922167" lon="13.1196833"><ele>749.8</ele><time>2026-05-02T07:53:23.983Z</time></trkpt><trkpt lat="43.1921567" lon="13.119775"><ele>751.4</ele><time>2026-05-02T07:53:24.984Z</time></trkpt><trkpt lat="43.1920867" lon="13.1198517"><ele>753.0</ele><time>2026-05-02T07:53:25.983Z</time></trkpt><trkpt lat="43.1920067" lon="13.119915"><ele>753.75</ele><time>2026-05-02T07:53:26.983Z</time></trkpt><trkpt lat="43.1919133" lon="13.119975"><ele>754.5</ele><time>2026-05-02T07:53:27.984Z</time></trkpt><trkpt lat="43.1918067" lon="13.12003"><ele>755.25</ele><time>2026-05-02T07:53:28.982Z</time></trkpt><trkpt lat="43.1916967" lon="13.120095"><ele>756.0</ele><time>2026-05-02T07:53:29.983Z</time></trkpt><trkpt lat="43.191595" lon="13.120165"><ele>755.0</ele><time>2026-05-02T07:53:30.984Z</time></trkpt><trkpt lat="43.1915" lon="13.1202283"><ele>754.0</ele><time>2026-05-02T07:53:31.981Z</time></trkpt><trkpt lat="43.1914083" lon="13.1202917"><ele>753.0</ele><time>2026-05-02T07:53:32.983Z</time></trkpt><trkpt lat="43.1913167" lon="13.120355"><ele>752.0</ele><time>2026-05-02T07:53:33.983Z</time></trkpt><trkpt lat="43.1912217" lon="13.1204167"><ele>751.0</ele><time>2026-05-02T07:53:34.983Z</time></trkpt><trkpt lat="43.19112" lon="13.120465"><ele>751.0</ele><time>2026-05-02T07:53:35.983Z</time></trkpt><trkpt lat="43.1910183" lon="13.1204983"><ele>751.0</ele><time>2026-05-02T07:53:36.983Z</time></trkpt><trkpt lat="43.19092" lon="13.1205217"><ele>751.0</ele><time>2026-05-02T07:53:37.983Z</time></trkpt><trkpt lat="43.1908267" lon="13.1205333"><ele>751.0</ele><time>2026-05-02T07:53:38.982Z</time></trkpt><trkpt lat="43.190735" lon="13.1205217"><ele>751.0</ele><time>2026-05-02T07:53:39.982Z</time></trkpt><trkpt lat="43.1906317" lon="13.1204767"><ele>749.8</ele><time>2026-05-02T07:53:40.982Z</time></trkpt><trkpt lat="43.1905267" lon="13.120415"><ele>748.5999999999999</ele><time>2026-05-02T07:53:41.984Z</time></trkpt><trkpt lat="43.1904183" lon="13.12035"><ele>747.4</ele><time>2026-05-02T07:53:42.983Z</time></trkpt><trkpt lat="43.1903117" lon="13.1202883"><ele>746.2</ele><time>2026-05-02T07:53:43.982Z</time></trkpt><trkpt lat="43.19022" lon="13.1202317"><ele>745.0</ele><time>2026-05-02T07:53:44.983Z</time></trkpt><trkpt lat="43.1901433" lon="13.12017"><ele>745.0</ele><time>2026-05-02T07:53:45.982Z</time></trkpt><trkpt lat="43.190095" lon="13.1201067"><ele>745.0</ele><time>2026-05-02T07:53:46.982Z</time></trkpt><trkpt lat="43.1900467" lon="13.1199883"><ele>745.0</ele><time>2026-05-02T07:53:48.983Z</time></trkpt><trkpt lat="43.1899583" lon="13.1199717"><ele>745.0</ele><time>2026-05-02T07:53:51.983Z</time></trkpt><trkpt lat="43.1898767" lon="13.1200267"><ele>745.0</ele><time>2026-05-02T07:53:53.983Z</time></trkpt><trkpt lat="43.189775" lon="13.1201183"><ele>745.8333333333334</ele><time>2026-05-02T07:53:55.983Z</time></trkpt><trkpt lat="43.18971" lon="13.1201483"><ele>746.6666666666667</ele><time>2026-05-02T07:53:56.982Z</time></trkpt><trkpt lat="43.1896267" lon="13.1201717"><ele>747.5</ele><time>2026-05-02T07:53:57.982Z</time></trkpt><trkpt lat="43.1895433" lon="13.1201883"><ele>748.3333333333334</ele><time>2026-05-02T07:53:58.982Z</time></trkpt><trkpt lat="43.18946" lon="13.120215"><ele>749.1666666666666</ele><time>2026-05-02T07:53:59.983Z</time></trkpt><trkpt lat="43.1893783" lon="13.1202617"><ele>750.0</ele><time>2026-05-02T07:54:00.983Z</time></trkpt><trkpt lat="43.18929" lon="13.1203333"><ele>750.0</ele><time>2026-05-02T07:54:01.982Z</time></trkpt><trkpt lat="43.1891967" lon="13.1204117"><ele>750.0</ele><time>2026-05-02T07:54:02.982Z</time></trkpt><trkpt lat="43.1891017" lon="13.1204933"><ele>750.0</ele><time>2026-05-02T07:54:03.983Z</time></trkpt><trkpt lat="43.1889983" lon="13.120575"><ele>750.0</ele><time>2026-05-02T07:54:04.982Z</time></trkpt><trkpt lat="43.1888967" lon="13.1206567"><ele>749.8</ele><time>2026-05-02T07:54:05.982Z</time></trkpt><trkpt lat="43.1887983" lon="13.120735"><ele>749.6</ele><time>2026-05-02T07:54:06.982Z</time></trkpt><trkpt lat="43.1886967" lon="13.12081"><ele>749.4000000000001</ele><time>2026-05-02T07:54:07.982Z</time></trkpt><trkpt lat="43.1886067" lon="13.1208833"><ele>749.2</ele><time>2026-05-02T07:54:08.983Z</time></trkpt><trkpt lat="43.1885217" lon="13.1209417"><ele>749.0</ele><time>2026-05-02T07:54:09.982Z</time></trkpt><trkpt lat="43.1884417" lon="13.1209967"><ele>749.0</ele><time>2026-05-02T07:54:10.983Z</time></trkpt><trkpt lat="43.1883617" lon="13.12106"><ele>749.0</ele><time>2026-05-02T07:54:11.983Z</time></trkpt><trkpt lat="43.1882767" lon="13.1211183"><ele>749.0</ele><time>2026-05-02T07:54:12.982Z</time></trkpt><trkpt lat="43.18819" lon="13.1211683"><ele>749.0</ele><time>2026-05-02T07:54:13.982Z</time></trkpt><trkpt lat="43.1881017" lon="13.1212067"><ele>749.0</ele><time>2026-05-02T07:54:14.983Z</time></trkpt><trkpt lat="43.1880017" lon="13.121245"><ele>749.25</ele><time>2026-05-02T07:54:15.983Z</time></trkpt><trkpt lat="43.18789" lon="13.121285"><ele>749.5</ele><time>2026-05-02T07:54:16.982Z</time></trkpt><trkpt lat="43.1877733" lon="13.1213283"><ele>749.75</ele><time>2026-05-02T07:54:17.982Z</time></trkpt><trkpt lat="43.1876633" lon="13.12137"><ele>750.0</ele><time>2026-05-02T07:54:18.982Z</time></trkpt><trkpt lat="43.18755" lon="13.1214233"><ele>750.0</ele><time>2026-05-02T07:54:19.983Z</time></trkpt><trkpt lat="43.1874283" lon="13.12148"><ele>750.0</ele><time>2026-05-02T07:54:20.984Z</time></trkpt><trkpt lat="43.1873017" lon="13.1215483"><ele>750.0</ele><time>2026-05-02T07:54:21.984Z</time></trkpt><trkpt lat="43.1871767" lon="13.12162"><ele>750.0</ele><time>2026-05-02T07:54:22.983Z</time></trkpt><trkpt lat="43.1870633" lon="13.121695"><ele>750.25</ele><time>2026-05-02T07:54:23.982Z</time></trkpt><trkpt lat="43.1869467" lon="13.1217533"><ele>750.5</ele><time>2026-05-02T07:54:24.982Z</time></trkpt><trkpt lat="43.1868267" lon="13.1217917"><ele>750.75</ele><time>2026-05-02T07:54:25.982Z</time></trkpt><trkpt lat="43.1867" lon="13.1218083"><ele>751.0</ele><time>2026-05-02T07:54:26.982Z</time></trkpt><trkpt lat="43.18657" lon="13.1218017"><ele>751.25</ele><time>2026-05-02T07:54:27.982Z</time></trkpt><trkpt lat="43.1864367" lon="13.12179"><ele>751.5</ele><time>2026-05-02T07:54:28.983Z</time></trkpt><trkpt lat="43.186305" lon="13.12179"><ele>751.75</ele><time>2026-05-02T07:54:29.984Z</time></trkpt><trkpt lat="43.186175" lon="13.1218133"><ele>752.0</ele><time>2026-05-02T07:54:30.982Z</time></trkpt><trkpt lat="43.18604" lon="13.12186"><ele>752.0</ele><time>2026-05-02T07:54:31.982Z</time></trkpt><trkpt lat="43.1859033" lon="13.1219217"><ele>752.0</ele><time>2026-05-02T07:54:32.982Z</time></trkpt><trkpt lat="43.1857783" lon="13.1219867"><ele>752.0</ele><time>2026-05-02T07:54:33.982Z</time></trkpt><trkpt lat="43.1856633" lon="13.12206"><ele>752.0</ele><time>2026-05-02T07:54:34.982Z</time></trkpt><trkpt lat="43.1855667" lon="13.122145"><ele>752.0</ele><time>2026-05-02T07:54:35.982Z</time></trkpt><trkpt lat="43.1854833" lon="13.12225"><ele>752.0</ele><time>2026-05-02T07:54:36.982Z</time></trkpt><trkpt lat="43.18541" lon="13.1223717"><ele>752.0</ele><time>2026-05-02T07:54:37.984Z</time></trkpt><trkpt lat="43.185355" lon="13.1224933"><ele>752.0</ele><time>2026-05-02T07:54:38.983Z</time></trkpt><trkpt lat="43.1853067" lon="13.1225967"><ele>752.0</ele><time>2026-05-02T07:54:39.982Z</time></trkpt><trkpt lat="43.18526" lon="13.1226733"><ele>752.0</ele><time>2026-05-02T07:54:40.983Z</time></trkpt><trkpt lat="43.185205" lon="13.1227167"><ele>752.0</ele><time>2026-05-02T07:54:41.983Z</time></trkpt><trkpt lat="43.1851333" lon="13.1227433"><ele>752.0</ele><time>2026-05-02T07:54:42.982Z</time></trkpt><trkpt lat="43.185055" lon="13.1227817"><ele>752.0</ele><time>2026-05-02T07:54:43.982Z</time></trkpt><trkpt lat="43.1849767" lon="13.1228433"><ele>752.0</ele><time>2026-05-02T07:54:44.982Z</time></trkpt><trkpt lat="43.1849033" lon="13.1229133"><ele>752.0</ele><time>2026-05-02T07:54:45.982Z</time></trkpt><trkpt lat="43.1848433" lon="13.12298"><ele>751.6</ele><time>2026-05-02T07:54:46.982Z</time></trkpt><trkpt lat="43.1847717" lon="13.1230767"><ele>751.2</ele><time>2026-05-02T07:54:48.982Z</time></trkpt><trkpt lat="43.1847317" lon="13.1231933"><ele>750.8</ele><time>2026-05-02T07:54:51.983Z</time></trkpt><trkpt lat="43.1846567" lon="13.1232767"><ele>750.4</ele><time>2026-05-02T07:54:54.983Z</time></trkpt><trkpt lat="43.1845767" lon="13.1233117"><ele>750.0</ele><time>2026-05-02T07:54:56.983Z</time></trkpt><trkpt lat="43.1844733" lon="13.12337"><ele>749.0</ele><time>2026-05-02T07:54:58.982Z</time></trkpt><trkpt lat="43.1843617" lon="13.1234383"><ele>748.0</ele><time>2026-05-02T07:55:00.982Z</time></trkpt><trkpt lat="43.1843" lon="13.1234617"><ele>747.0</ele><time>2026-05-02T07:55:01.981Z</time></trkpt><trkpt lat="43.1841983" lon="13.1235333"><ele>746.0</ele><time>2026-05-02T07:55:03.981Z</time></trkpt><trkpt lat="43.18414" lon="13.1236483"><ele>745.0</ele><time>2026-05-02T07:55:05.982Z</time></trkpt><trkpt lat="43.18407" lon="13.1238017"><ele>745.0</ele><time>2026-05-02T07:55:07.982Z</time></trkpt><trkpt lat="43.1840283" lon="13.12389"><ele>745.0</ele><time>2026-05-02T07:55:08.982Z</time></trkpt><trkpt lat="43.1839917" lon="13.1239817"><ele>745.0</ele><time>2026-05-02T07:55:09.981Z</time></trkpt><trkpt lat="43.1839633" lon="13.1240683"><ele>745.0</ele><time>2026-05-02T07:55:10.982Z</time></trkpt><trkpt lat="43.1839367" lon="13.12415"><ele>745.0</ele><time>2026-05-02T07:55:11.981Z</time></trkpt><trkpt lat="43.1839017" lon="13.1242467"><ele>745.0</ele><time>2026-05-02T07:55:12.981Z</time></trkpt><trkpt lat="43.1838617" lon="13.1243417"><ele>745.0</ele><time>2026-05-02T07:55:13.981Z</time></trkpt><trkpt lat="43.183815" lon="13.1244433"><ele>743.3333333333334</ele><time>2026-05-02T07:55:14.982Z</time></trkpt><trkpt lat="43.1837633" lon="13.1245417"><ele>741.6666666666667</ele><time>2026-05-02T07:55:15.982Z</time></trkpt><trkpt lat="43.183715" lon="13.124625"><ele>740.0</ele><time>2026-05-02T07:55:16.982Z</time></trkpt><trkpt lat="43.18367" lon="13.12469"><ele>738.3333333333334</ele><time>2026-05-02T07:55:17.982Z</time></trkpt><trkpt lat="43.1836117" lon="13.1247717"><ele>736.6666666666666</ele><time>2026-05-02T07:55:19.982Z</time></trkpt><trkpt lat="43.1835567" lon="13.1248367"><ele>735.0</ele><time>2026-05-02T07:55:21.981Z</time></trkpt><trkpt lat="43.18348" lon="13.124925"><ele>735.0</ele><time>2026-05-02T07:55:23.982Z</time></trkpt><trkpt lat="43.1833983" lon="13.1250483"><ele>735.0</ele><time>2026-05-02T07:55:25.982Z</time></trkpt><trkpt lat="43.1833583" lon="13.12512"><ele>735.0</ele><time>2026-05-02T07:55:26.982Z</time></trkpt><trkpt lat="43.1833133" lon="13.1251917"><ele>735.0</ele><time>2026-05-02T07:55:27.982Z</time></trkpt><trkpt lat="43.183265" lon="13.125255"><ele>735.0</ele><time>2026-05-02T07:55:28.982Z</time></trkpt><trkpt lat="43.1832067" lon="13.12531"><ele>735.0</ele><time>2026-05-02T07:55:29.981Z</time></trkpt><trkpt lat="43.18314" lon="13.12536"><ele>734.8333333333334</ele><time>2026-05-02T07:55:30.981Z</time></trkpt><trkpt lat="43.1830817" lon="13.12541"><ele>734.6666666666666</ele><time>2026-05-02T07:55:31.981Z</time></trkpt><trkpt lat="43.1830283" lon="13.1254633"><ele>734.5</ele><time>2026-05-02T07:55:32.982Z</time></trkpt><trkpt lat="43.182935" lon="13.1255717"><ele>734.3333333333333</ele><time>2026-05-02T07:55:34.982Z</time></trkpt><trkpt lat="43.18288" lon="13.1256233"><ele>734.1666666666666</ele><time>2026-05-02T07:55:35.985Z</time></trkpt><trkpt lat="43.18282" lon="13.125665"><ele>734.0</ele><time>2026-05-02T07:55:36.983Z</time></trkpt><trkpt lat="43.1827567" lon="13.125695"><ele>734.0</ele><time>2026-05-02T07:55:37.982Z</time></trkpt><trkpt lat="43.1826917" lon="13.1257167"><ele>734.0</ele><time>2026-05-02T07:55:38.981Z</time></trkpt><trkpt lat="43.18263" lon="13.1257383"><ele>734.0</ele><time>2026-05-02T07:55:39.982Z</time></trkpt><trkpt lat="43.1825533" lon="13.1257717"><ele>734.0</ele><time>2026-05-02T07:55:41.981Z</time></trkpt><trkpt lat="43.1824717" lon="13.1258333"><ele>734.0</ele><time>2026-05-02T07:55:44.982Z</time></trkpt><trkpt lat="43.1824217" lon="13.1259017"><ele>734.0</ele><time>2026-05-02T07:55:46.983Z</time></trkpt><trkpt lat="43.1823833" lon="13.1259817"><ele>734.0</ele><time>2026-05-02T07:55:48.983Z</time></trkpt><trkpt lat="43.1823383" lon="13.126065"><ele>733.8333333333333</ele><time>2026-05-02T07:55:50.983Z</time></trkpt><trkpt lat="43.1822633" lon="13.1261183"><ele>733.6666666666666</ele><time>2026-05-02T07:55:52.982Z</time></trkpt><trkpt lat="43.182155" lon="13.1261333"><ele>733.5</ele><time>2026-05-02T07:55:54.983Z</time></trkpt><trkpt lat="43.1820917" lon="13.1261417"><ele>733.3333333333334</ele><time>2026-05-02T07:55:55.982Z</time></trkpt><trkpt lat="43.1820217" lon="13.126155"><ele>733.1666666666667</ele><time>2026-05-02T07:55:56.983Z</time></trkpt><trkpt lat="43.1819467" lon="13.1261783"><ele>733.0</ele><time>2026-05-02T07:55:57.983Z</time></trkpt><trkpt lat="43.1818667" lon="13.1262033"><ele>733.0</ele><time>2026-05-02T07:55:58.982Z</time></trkpt><trkpt lat="43.181655" lon="13.1262483"><ele>733.0</ele><time>2026-05-02T07:56:00.981Z</time></trkpt><trkpt lat="43.1815867" lon="13.126285"><ele>733.0</ele><time>2026-05-02T07:56:01.982Z</time></trkpt><trkpt lat="43.181515" lon="13.1263333"><ele>733.0</ele><time>2026-05-02T07:56:02.982Z</time></trkpt><trkpt lat="43.181445" lon="13.1263967"><ele>734.0</ele><time>2026-05-02T07:56:03.982Z</time></trkpt><trkpt lat="43.1813783" lon="13.12647"><ele>735.0</ele><time>2026-05-02T07:56:04.981Z</time></trkpt><trkpt lat="43.1813117" lon="13.1265433"><ele>736.0</ele><time>2026-05-02T07:56:05.981Z</time></trkpt><trkpt lat="43.1812433" lon="13.126635"><ele>737.0</ele><time>2026-05-02T07:56:06.983Z</time></trkpt><trkpt lat="43.18117" lon="13.1267183"><ele>738.0</ele><time>2026-05-02T07:56:07.982Z</time></trkpt><trkpt lat="43.1810983" lon="13.126795"><ele>739.25</ele><time>2026-05-02T07:56:08.981Z</time></trkpt><trkpt lat="43.1810067" lon="13.1268733"><ele>740.5</ele><time>2026-05-02T07:56:09.984Z</time></trkpt><trkpt lat="43.1809017" lon="13.12696"><ele>741.75</ele><time>2026-05-02T07:56:10.983Z</time></trkpt><trkpt lat="43.1807967" lon="13.1270533"><ele>743.0</ele><time>2026-05-02T07:56:11.982Z</time></trkpt><trkpt lat="43.1806667" lon="13.12716"><ele>743.6666666666666</ele><time>2026-05-02T07:56:12.983Z</time></trkpt><trkpt lat="43.18053" lon="13.127255"><ele>744.3333333333334</ele><time>2026-05-02T07:56:13.983Z</time></trkpt><trkpt lat="43.1803917" lon="13.127345"><ele>745.0</ele><time>2026-05-02T07:56:14.982Z</time></trkpt><trkpt lat="43.1802567" lon="13.12744"><ele>747.0</ele><time>2026-05-02T07:56:15.984Z</time></trkpt><trkpt lat="43.180125" lon="13.1275433"><ele>749.0</ele><time>2026-05-02T07:56:16.982Z</time></trkpt><trkpt lat="43.1799983" lon="13.1276517"><ele>751.0</ele><time>2026-05-02T07:56:17.983Z</time></trkpt><trkpt lat="43.1798683" lon="13.127755"><ele>752.25</ele><time>2026-05-02T07:56:18.984Z</time></trkpt><trkpt lat="43.17974" lon="13.127845"><ele>753.5</ele><time>2026-05-02T07:56:19.983Z</time></trkpt><trkpt lat="43.1796117" lon="13.127925"><ele>754.75</ele><time>2026-05-02T07:56:20.984Z</time></trkpt><trkpt lat="43.1794883" lon="13.128005"><ele>756.0</ele><time>2026-05-02T07:56:21.983Z</time></trkpt><trkpt lat="43.1793617" lon="13.12808"><ele>756.0</ele><time>2026-05-02T07:56:22.982Z</time></trkpt><trkpt lat="43.1792367" lon="13.1281567"><ele>756.0</ele><time>2026-05-02T07:56:23.984Z</time></trkpt><trkpt lat="43.1791133" lon="13.12824"><ele>756.0</ele><time>2026-05-02T07:56:24.984Z</time></trkpt><trkpt lat="43.1789967" lon="13.1283333"><ele>756.0</ele><time>2026-05-02T07:56:25.982Z</time></trkpt><trkpt lat="43.178885" lon="13.1284367"><ele>759.25</ele><time>2026-05-02T07:56:26.982Z</time></trkpt><trkpt lat="43.17877" lon="13.12854"><ele>762.5</ele><time>2026-05-02T07:56:27.982Z</time></trkpt><trkpt lat="43.1786467" lon="13.1286383"><ele>765.75</ele><time>2026-05-02T07:56:28.982Z</time></trkpt><trkpt lat="43.17853" lon="13.1287333"><ele>769.0</ele><time>2026-05-02T07:56:29.984Z</time></trkpt><trkpt lat="43.17843" lon="13.1288267"><ele>769.0</ele><time>2026-05-02T07:56:30.983Z</time></trkpt><trkpt lat="43.1783367" lon="13.12893"><ele>769.0</ele><time>2026-05-02T07:56:31.983Z</time></trkpt><trkpt lat="43.1782467" lon="13.1290183"><ele>769.0</ele><time>2026-05-02T07:56:32.984Z</time></trkpt><trkpt lat="43.1781633" lon="13.1290817"><ele>769.0</ele><time>2026-05-02T07:56:33.983Z</time></trkpt><trkpt lat="43.1780783" lon="13.12915"><ele>769.0</ele><time>2026-05-02T07:56:34.983Z</time></trkpt><trkpt lat="43.178" lon="13.1292317"><ele>770.6666666666666</ele><time>2026-05-02T07:56:35.984Z</time></trkpt><trkpt lat="43.1779417" lon="13.129315"><ele>772.3333333333333</ele><time>2026-05-02T07:56:36.984Z</time></trkpt><trkpt lat="43.1778933" lon="13.1294"><ele>774.0</ele><time>2026-05-02T07:56:37.986Z</time></trkpt><trkpt lat="43.1778467" lon="13.1294867"><ele>775.6666666666667</ele><time>2026-05-02T07:56:38.983Z</time></trkpt><trkpt lat="43.1778" lon="13.1295683"><ele>777.3333333333334</ele><time>2026-05-02T07:56:39.982Z</time></trkpt><trkpt lat="43.1777467" lon="13.1296483"><ele>779.0</ele><time>2026-05-02T07:56:40.983Z</time></trkpt><trkpt lat="43.1776867" lon="13.1297233"><ele>779.0000000000001</ele><time>2026-05-02T07:56:41.983Z</time></trkpt><trkpt lat="43.1776267" lon="13.1298033"><ele>779.0</ele><time>2026-05-02T07:56:42.984Z</time></trkpt><trkpt lat="43.17757" lon="13.1298833"><ele>779.0</ele><time>2026-05-02T07:56:43.983Z</time></trkpt><trkpt lat="43.177515" lon="13.1299617"><ele>779.0</ele><time>2026-05-02T07:56:44.982Z</time></trkpt><trkpt lat="43.1774667" lon="13.1300267"><ele>779.0000000000001</ele><time>2026-05-02T07:56:45.984Z</time></trkpt><trkpt lat="43.1773717" lon="13.130115"><ele>779.0</ele><time>2026-05-02T07:56:47.983Z</time></trkpt><trkpt lat="43.177265" lon="13.1301533"><ele>779.6</ele><time>2026-05-02T07:56:49.983Z</time></trkpt><trkpt lat="43.177135" lon="13.1301817"><ele>780.2</ele><time>2026-05-02T07:56:51.983Z</time></trkpt><trkpt lat="43.1770517" lon="13.1302133"><ele>780.8000000000001</ele><time>2026-05-02T07:56:52.983Z</time></trkpt><trkpt lat="43.1769617" lon="13.1302617"><ele>781.4000000000001</ele><time>2026-05-02T07:56:53.984Z</time></trkpt><trkpt lat="43.1768733" lon="13.13032"><ele>782.0</ele><time>2026-05-02T07:56:54.983Z</time></trkpt><trkpt lat="43.1767933" lon="13.1303867"><ele>782.0</ele><time>2026-05-02T07:56:55.984Z</time></trkpt><trkpt lat="43.1767233" lon="13.130465"><ele>782.0</ele><time>2026-05-02T07:56:56.983Z</time></trkpt><trkpt lat="43.1766667" lon="13.1305533"><ele>782.0</ele><time>2026-05-02T07:56:57.984Z</time></trkpt><trkpt lat="43.176615" lon="13.1306583"><ele>782.0</ele><time>2026-05-02T07:56:58.983Z</time></trkpt><trkpt lat="43.17657" lon="13.13078"><ele>782.0</ele><time>2026-05-02T07:56:59.982Z</time></trkpt><trkpt lat="43.1765233" lon="13.1309167"><ele>784.6</ele><time>2026-05-02T07:57:00.984Z</time></trkpt><trkpt lat="43.1764833" lon="13.1310583"><ele>787.2</ele><time>2026-05-02T07:57:01.982Z</time></trkpt><trkpt lat="43.176445" lon="13.13119"><ele>789.8</ele><time>2026-05-02T07:57:02.983Z</time></trkpt><trkpt lat="43.1764083" lon="13.1313017"><ele>792.4</ele><time>2026-05-02T07:57:03.982Z</time></trkpt><trkpt lat="43.176375" lon="13.131395"><ele>795.0</ele><time>2026-05-02T07:57:04.982Z</time></trkpt><trkpt lat="43.1763367" lon="13.13148"><ele>795.0</ele><time>2026-05-02T07:57:05.982Z</time></trkpt><trkpt lat="43.1762917" lon="13.1315567"><ele>795.0</ele><time>2026-05-02T07:57:06.983Z</time></trkpt><trkpt lat="43.1762467" lon="13.1316217"><ele>795.0</ele><time>2026-05-02T07:57:07.983Z</time></trkpt><trkpt lat="43.1762017" lon="13.1316867"><ele>795.0</ele><time>2026-05-02T07:57:08.983Z</time></trkpt><trkpt lat="43.1761633" lon="13.13176"><ele>795.0</ele><time>2026-05-02T07:57:09.984Z</time></trkpt><trkpt lat="43.176135" lon="13.13185"><ele>795.0</ele><time>2026-05-02T07:57:10.984Z</time></trkpt><trkpt lat="43.1761" lon="13.1319417"><ele>795.0</ele><time>2026-05-02T07:57:11.983Z</time></trkpt><trkpt lat="43.1760517" lon="13.1320183"><ele>796.1666666666666</ele><time>2026-05-02T07:57:12.983Z</time></trkpt><trkpt lat="43.176" lon="13.1320867"><ele>797.3333333333333</ele><time>2026-05-02T07:57:13.983Z</time></trkpt><trkpt lat="43.1759567" lon="13.1321583"><ele>798.5</ele><time>2026-05-02T07:57:14.983Z</time></trkpt><trkpt lat="43.17593" lon="13.1322417"><ele>799.6666666666666</ele><time>2026-05-02T07:57:15.983Z</time></trkpt><trkpt lat="43.1758833" lon="13.1323817"><ele>800.8333333333333</ele><time>2026-05-02T07:57:17.982Z</time></trkpt><trkpt lat="43.175805" lon="13.1324633"><ele>802.0</ele><time>2026-05-02T07:57:19.981Z</time></trkpt><trkpt lat="43.1757417" lon="13.1324967"><ele>805.1428571428571</ele><time>2026-05-02T07:57:20.982Z</time></trkpt><trkpt lat="43.1756717" lon="13.1325383"><ele>808.2857142857143</ele><time>2026-05-02T07:57:21.981Z</time></trkpt><trkpt lat="43.1756017" lon="13.1325833"><ele>811.4285714285713</ele><time>2026-05-02T07:57:22.983Z</time></trkpt><trkpt lat="43.1755317" lon="13.13263"><ele>814.5714285714286</ele><time>2026-05-02T07:57:23.981Z</time></trkpt><trkpt lat="43.175475" lon="13.1326933"><ele>817.7142857142857</ele><time>2026-05-02T07:57:24.982Z</time></trkpt><trkpt lat="43.1754283" lon="13.13277"><ele>820.8571428571428</ele><time>2026-05-02T07:57:25.981Z</time></trkpt><trkpt lat="43.1753917" lon="13.132855"><ele>824.0</ele><time>2026-05-02T07:57:26.982Z</time></trkpt><trkpt lat="43.17535" lon="13.1329483"><ele>824.0000000000001</ele><time>2026-05-02T07:57:27.982Z</time></trkpt><trkpt lat="43.1753067" lon="13.1330367"><ele>824.0</ele><time>2026-05-02T07:57:28.982Z</time></trkpt><trkpt lat="43.1752617" lon="13.133125"><ele>824.0</ele><time>2026-05-02T07:57:29.982Z</time></trkpt><trkpt lat="43.1752133" lon="13.1332183"><ele>824.0</ele><time>2026-05-02T07:57:30.983Z</time></trkpt><trkpt lat="43.1751583" lon="13.1333083"><ele>824.0000000000001</ele><time>2026-05-02T07:57:31.982Z</time></trkpt><trkpt lat="43.1750933" lon="13.1333933"><ele>824.0</ele><time>2026-05-02T07:57:32.982Z</time></trkpt><trkpt lat="43.1750133" lon="13.1334833"><ele>826.2</ele><time>2026-05-02T07:57:33.982Z</time></trkpt><trkpt lat="43.174935" lon="13.133585"><ele>828.4000000000001</ele><time>2026-05-02T07:57:34.982Z</time></trkpt><trkpt lat="43.1748617" lon="13.133695"><ele>830.6</ele><time>2026-05-02T07:57:35.983Z</time></trkpt><trkpt lat="43.17479" lon="13.1338067"><ele>832.8</ele><time>2026-05-02T07:57:36.984Z</time></trkpt><trkpt lat="43.1747233" lon="13.1339217"><ele>835.0</ele><time>2026-05-02T07:57:37.983Z</time></trkpt><trkpt lat="43.1746617" lon="13.1340333"><ele>839.4</ele><time>2026-05-02T07:57:38.984Z</time></trkpt><trkpt lat="43.1746" lon="13.1341433"><ele>843.8</ele><time>2026-05-02T07:57:39.983Z</time></trkpt><trkpt lat="43.1745517" lon="13.134255"><ele>848.2</ele><time>2026-05-02T07:57:40.983Z</time></trkpt><trkpt lat="43.1745117" lon="13.1343733"><ele>852.6</ele><time>2026-05-02T07:57:41.981Z</time></trkpt><trkpt lat="43.1744717" lon="13.1344883"><ele>857.0</ele><time>2026-05-02T07:57:42.983Z</time></trkpt><trkpt lat="43.1744217" lon="13.134595"><ele>857.0</ele><time>2026-05-02T07:57:43.983Z</time></trkpt><trkpt lat="43.1743683" lon="13.1347033"><ele>857.0</ele><time>2026-05-02T07:57:44.983Z</time></trkpt><trkpt lat="43.1743133" lon="13.1348067"><ele>857.0</ele><time>2026-05-02T07:57:45.984Z</time></trkpt><trkpt lat="43.1742517" lon="13.1349083"><ele>857.0</ele><time>2026-05-02T07:57:46.984Z</time></trkpt><trkpt lat="43.174185" lon="13.1350117"><ele>857.0</ele><time>2026-05-02T07:57:47.984Z</time></trkpt><trkpt lat="43.1741117" lon="13.1351083"><ele>858.6</ele><time>2026-05-02T07:57:48.983Z</time></trkpt><trkpt lat="43.174035" lon="13.13521"><ele>860.2</ele><time>2026-05-02T07:57:49.984Z</time></trkpt><trkpt lat="43.17396" lon="13.1353067"><ele>861.8</ele><time>2026-05-02T07:57:50.983Z</time></trkpt><trkpt lat="43.1738833" lon="13.1353917"><ele>863.4</ele><time>2026-05-02T07:57:51.983Z</time></trkpt><trkpt lat="43.1738083" lon="13.1354667"><ele>865.0</ele><time>2026-05-02T07:57:52.983Z</time></trkpt><trkpt lat="43.173735" lon="13.1355417"><ele>867.6</ele><time>2026-05-02T07:57:53.982Z</time></trkpt><trkpt lat="43.1736567" lon="13.1356267"><ele>870.2</ele><time>2026-05-02T07:57:54.983Z</time></trkpt><trkpt lat="43.1735717" lon="13.1357183"><ele>872.8</ele><time>2026-05-02T07:57:55.982Z</time></trkpt><trkpt lat="43.17348" lon="13.1358067"><ele>875.4</ele><time>2026-05-02T07:57:56.983Z</time></trkpt><trkpt lat="43.1733883" lon="13.1358917"><ele>878.0</ele><time>2026-05-02T07:57:57.982Z</time></trkpt><trkpt lat="43.173295" lon="13.13598"><ele>879.4</ele><time>2026-05-02T07:57:58.984Z</time></trkpt><trkpt lat="43.1731967" lon="13.1360733"><ele>880.8</ele><time>2026-05-02T07:57:59.983Z</time></trkpt><trkpt lat="43.1731017" lon="13.1361617"><ele>882.2</ele><time>2026-05-02T07:58:00.982Z</time></trkpt><trkpt lat="43.1730167" lon="13.1362267"><ele>883.6</ele><time>2026-05-02T07:58:01.981Z</time></trkpt><trkpt lat="43.1729483" lon="13.1362867"><ele>885.0</ele><time>2026-05-02T07:58:02.982Z</time></trkpt><trkpt lat="43.172885" lon="13.136355"><ele>885.2</ele><time>2026-05-02T07:58:03.983Z</time></trkpt><trkpt lat="43.1728367" lon="13.1364383"><ele>885.4</ele><time>2026-05-02T07:58:04.983Z</time></trkpt><trkpt lat="43.1728" lon="13.13655"><ele>885.5999999999999</ele><time>2026-05-02T07:58:05.984Z</time></trkpt><trkpt lat="43.1727867" lon="13.1367017"><ele>885.8</ele><time>2026-05-02T07:58:06.983Z</time></trkpt><trkpt lat="43.172785" lon="13.1368717"><ele>886.0</ele><time>2026-05-02T07:58:07.984Z</time></trkpt><trkpt lat="43.1727867" lon="13.13704"><ele>887.75</ele><time>2026-05-02T07:58:08.983Z</time></trkpt><trkpt lat="43.1727817" lon="13.13721"><ele>889.5</ele><time>2026-05-02T07:58:09.983Z</time></trkpt><trkpt lat="43.1727767" lon="13.1373767"><ele>891.25</ele><time>2026-05-02T07:58:10.983Z</time></trkpt><trkpt lat="43.1727667" lon="13.13753"><ele>893.0</ele><time>2026-05-02T07:58:11.982Z</time></trkpt><trkpt lat="43.1727483" lon="13.1376683"><ele>894.0</ele><time>2026-05-02T07:58:12.982Z</time></trkpt><trkpt lat="43.17272" lon="13.1377967"><ele>895.0</ele><time>2026-05-02T07:58:13.982Z</time></trkpt><trkpt lat="43.17268" lon="13.1379233"><ele>896.0</ele><time>2026-05-02T07:58:14.983Z</time></trkpt><trkpt lat="43.1726333" lon="13.138035"><ele>897.0</ele><time>2026-05-02T07:58:15.985Z</time></trkpt><trkpt lat="43.17258" lon="13.13813"><ele>898.0</ele><time>2026-05-02T07:58:16.984Z</time></trkpt><trkpt lat="43.172525" lon="13.1382117"><ele>897.9999999999999</ele><time>2026-05-02T07:58:17.983Z</time></trkpt><trkpt lat="43.172465" lon="13.13829"><ele>898.0</ele><time>2026-05-02T07:58:18.983Z</time></trkpt><trkpt lat="43.1724133" lon="13.1383733"><ele>898.0</ele><time>2026-05-02T07:58:19.983Z</time></trkpt><trkpt lat="43.1723667" lon="13.1384617"><ele>898.0</ele><time>2026-05-02T07:58:20.982Z</time></trkpt><trkpt lat="43.172335" lon="13.1385567"><ele>897.9999999999999</ele><time>2026-05-02T07:58:21.982Z</time></trkpt><trkpt lat="43.1722983" lon="13.138645"><ele>898.0</ele><time>2026-05-02T07:58:22.982Z</time></trkpt><trkpt lat="43.172255" lon="13.1387317"><ele>897.9999999999999</ele><time>2026-05-02T07:58:23.983Z</time></trkpt><trkpt lat="43.172205" lon="13.1388133"><ele>898.0</ele><time>2026-05-02T07:58:24.982Z</time></trkpt><trkpt lat="43.1721517" lon="13.13888"><ele>898.0</ele><time>2026-05-02T07:58:25.983Z</time></trkpt><trkpt lat="43.1720933" lon="13.138935"><ele>898.0</ele><time>2026-05-02T07:58:26.983Z</time></trkpt><trkpt lat="43.1720283" lon="13.1389817"><ele>897.9999999999999</ele><time>2026-05-02T07:58:27.982Z</time></trkpt><trkpt lat="43.1719467" lon="13.139015"><ele>898.0</ele><time>2026-05-02T07:58:28.982Z</time></trkpt><trkpt lat="43.17186" lon="13.1390417"><ele>898.6666666666666</ele><time>2026-05-02T07:58:29.983Z</time></trkpt><trkpt lat="43.1717767" lon="13.1390767"><ele>899.3333333333333</ele><time>2026-05-02T07:58:30.982Z</time></trkpt><trkpt lat="43.1716983" lon="13.1391317"><ele>900.0</ele><time>2026-05-02T07:58:31.983Z</time></trkpt><trkpt lat="43.171625" lon="13.1392033"><ele>900.6666666666667</ele><time>2026-05-02T07:58:32.982Z</time></trkpt><trkpt lat="43.1715567" lon="13.1392933"><ele>901.3333333333334</ele><time>2026-05-02T07:58:33.983Z</time></trkpt><trkpt lat="43.1715" lon="13.1393867"><ele>902.0</ele><time>2026-05-02T07:58:34.985Z</time></trkpt><trkpt lat="43.1714483" lon="13.1394783"><ele>902.8</ele><time>2026-05-02T07:58:35.983Z</time></trkpt><trkpt lat="43.1713983" lon="13.1395733"><ele>903.6</ele><time>2026-05-02T07:58:36.983Z</time></trkpt><trkpt lat="43.1713467" lon="13.1396533"><ele>904.3999999999999</ele><time>2026-05-02T07:58:37.984Z</time></trkpt><trkpt lat="43.1712517" lon="13.1397483"><ele>905.1999999999999</ele><time>2026-05-02T07:58:39.984Z</time></trkpt><trkpt lat="43.1711533" lon="13.13981"><ele>906.0</ele><time>2026-05-02T07:58:41.984Z</time></trkpt><trkpt lat="43.1710667" lon="13.1398583"><ele>906.1666666666666</ele><time>2026-05-02T07:58:43.983Z</time></trkpt><trkpt lat="43.1709833" lon="13.1399467"><ele>906.3333333333333</ele><time>2026-05-02T07:58:45.984Z</time></trkpt><trkpt lat="43.1709367" lon="13.14002"><ele>906.5</ele><time>2026-05-02T07:58:46.983Z</time></trkpt><trkpt lat="43.1708867" lon="13.1401067"><ele>906.6666666666666</ele><time>2026-05-02T07:58:47.984Z</time></trkpt><trkpt lat="43.1708317" lon="13.14019"><ele>906.8333333333333</ele><time>2026-05-02T07:58:48.984Z</time></trkpt><trkpt lat="43.1707667" lon="13.1402633"><ele>907.0</ele><time>2026-05-02T07:58:49.983Z</time></trkpt><trkpt lat="43.170685" lon="13.140325"><ele>909.2</ele><time>2026-05-02T07:58:50.983Z</time></trkpt><trkpt lat="43.1705933" lon="13.1403817"><ele>911.4000000000001</ele><time>2026-05-02T07:58:51.983Z</time></trkpt><trkpt lat="43.1704933" lon="13.1404367"><ele>913.5999999999999</ele><time>2026-05-02T07:58:52.984Z</time></trkpt><trkpt lat="43.1703933" lon="13.1404933"><ele>915.8</ele><time>2026-05-02T07:58:53.983Z</time></trkpt><trkpt lat="43.170295" lon="13.140555"><ele>918.0</ele><time>2026-05-02T07:58:54.984Z</time></trkpt><trkpt lat="43.1701917" lon="13.1406233"><ele>918.0</ele><time>2026-05-02T07:58:55.984Z</time></trkpt><trkpt lat="43.170085" lon="13.14069"><ele>918.0</ele><time>2026-05-02T07:58:56.985Z</time></trkpt><trkpt lat="43.1699733" lon="13.14075"><ele>918.0</ele><time>2026-05-02T07:58:57.985Z</time></trkpt><trkpt lat="43.169855" lon="13.1408"><ele>918.0</ele><time>2026-05-02T07:58:58.984Z</time></trkpt><trkpt lat="43.16973" lon="13.1408433"><ele>922.5</ele><time>2026-05-02T07:58:59.985Z</time></trkpt><trkpt lat="43.1696067" lon="13.1408817"><ele>927.0</ele><time>2026-05-02T07:59:00.984Z</time></trkpt><trkpt lat="43.1694817" lon="13.14092"><ele>931.5</ele><time>2026-05-02T07:59:01.982Z</time></trkpt><trkpt lat="43.1693617" lon="13.1409617"><ele>936.0</ele><time>2026-05-02T07:59:02.983Z</time></trkpt><trkpt lat="43.16924" lon="13.1410033"><ele>936.0</ele><time>2026-05-02T07:59:03.983Z</time></trkpt><trkpt lat="43.1691217" lon="13.1410383"><ele>936.0</ele><time>2026-05-02T07:59:04.983Z</time></trkpt><trkpt lat="43.1690017" lon="13.1410717"><ele>936.0</ele><time>2026-05-02T07:59:05.983Z</time></trkpt><trkpt lat="43.168885" lon="13.141105"><ele>936.0</ele><time>2026-05-02T07:59:06.983Z</time></trkpt><trkpt lat="43.1687683" lon="13.1411433"><ele>938.8</ele><time>2026-05-02T07:59:07.983Z</time></trkpt><trkpt lat="43.1686583" lon="13.1411833"><ele>941.5999999999999</ele><time>2026-05-02T07:59:08.983Z</time></trkpt><trkpt lat="43.168555" lon="13.1412133"><ele>944.4</ele><time>2026-05-02T07:59:09.984Z</time></trkpt><trkpt lat="43.1684483" lon="13.1412367"><ele>947.2</ele><time>2026-05-02T07:59:10.984Z</time></trkpt><trkpt lat="43.1683433" lon="13.1412517"><ele>950.0</ele><time>2026-05-02T07:59:11.984Z</time></trkpt><trkpt lat="43.1682383" lon="13.1412683"><ele>952.0</ele><time>2026-05-02T07:59:12.983Z</time></trkpt><trkpt lat="43.16813" lon="13.141285"><ele>954.0</ele><time>2026-05-02T07:59:13.983Z</time></trkpt><trkpt lat="43.168025" lon="13.1413067"><ele>956.0</ele><time>2026-05-02T07:59:14.983Z</time></trkpt><trkpt lat="43.167915" lon="13.1413317"><ele>958.0</ele><time>2026-05-02T07:59:15.984Z</time></trkpt><trkpt lat="43.1678033" lon="13.1413517"><ele>960.0</ele><time>2026-05-02T07:59:16.984Z</time></trkpt><trkpt lat="43.1676967" lon="13.1413533"><ele>960.0</ele><time>2026-05-02T07:59:17.984Z</time></trkpt><trkpt lat="43.167595" lon="13.1413383"><ele>960.0</ele><time>2026-05-02T07:59:18.985Z</time></trkpt><trkpt lat="43.1674983" lon="13.1413083"><ele>960.0</ele><time>2026-05-02T07:59:19.984Z</time></trkpt><trkpt lat="43.1674033" lon="13.1412667"><ele>960.0</ele><time>2026-05-02T07:59:20.984Z</time></trkpt><trkpt lat="43.1673067" lon="13.1412033"><ele>960.0</ele><time>2026-05-02T07:59:21.983Z</time></trkpt><trkpt lat="43.16721" lon="13.141135"><ele>960.8</ele><time>2026-05-02T07:59:22.983Z</time></trkpt><trkpt lat="43.16711" lon="13.1410667"><ele>961.6</ele><time>2026-05-02T07:59:23.984Z</time></trkpt><trkpt lat="43.1670117" lon="13.1409983"><ele>962.4000000000001</ele><time>2026-05-02T07:59:24.984Z</time></trkpt><trkpt lat="43.1669117" lon="13.1409333"><ele>963.2</ele><time>2026-05-02T07:59:25.984Z</time></trkpt><trkpt lat="43.1668067" lon="13.1408783"><ele>964.0</ele><time>2026-05-02T07:59:26.984Z</time></trkpt><trkpt lat="43.1666933" lon="13.1408283"><ele>964.0</ele><time>2026-05-02T07:59:27.984Z</time></trkpt><trkpt lat="43.1665733" lon="13.1407817"><ele>964.0</ele><time>2026-05-02T07:59:28.983Z</time></trkpt><trkpt lat="43.1664483" lon="13.14074"><ele>964.0</ele><time>2026-05-02T07:59:29.984Z</time></trkpt><trkpt lat="43.1663283" lon="13.1407"><ele>964.0</ele><time>2026-05-02T07:59:30.987Z</time></trkpt><trkpt lat="43.1662183" lon="13.1406533"><ele>964.8000000000001</ele><time>2026-05-02T07:59:31.982Z</time></trkpt><trkpt lat="43.16612" lon="13.140595"><ele>965.6000000000001</ele><time>2026-05-02T07:59:32.983Z</time></trkpt><trkpt lat="43.1660317" lon="13.1405317"><ele>966.4</ele><time>2026-05-02T07:59:33.983Z</time></trkpt><trkpt lat="43.1659417" lon="13.1404633"><ele>967.2</ele><time>2026-05-02T07:59:34.982Z</time></trkpt><trkpt lat="43.1658533" lon="13.1404017"><ele>968.0</ele><time>2026-05-02T07:59:35.982Z</time></trkpt><trkpt lat="43.1657633" lon="13.14036"><ele>968.5999999999999</ele><time>2026-05-02T07:59:36.984Z</time></trkpt><trkpt lat="43.1656717" lon="13.1403433"><ele>969.1999999999999</ele><time>2026-05-02T07:59:37.984Z</time></trkpt><trkpt lat="43.1655667" lon="13.1403567"><ele>969.8</ele><time>2026-05-02T07:59:38.984Z</time></trkpt><trkpt lat="43.1654533" lon="13.140385"><ele>970.4</ele><time>2026-05-02T07:59:39.985Z</time></trkpt><trkpt lat="43.1653367" lon="13.1404167"><ele>971.0</ele><time>2026-05-02T07:59:40.984Z</time></trkpt><trkpt lat="43.1652183" lon="13.1404283"><ele>971.0</ele><time>2026-05-02T07:59:41.984Z</time></trkpt><trkpt lat="43.1651083" lon="13.1404483"><ele>970.9999999999999</ele><time>2026-05-02T07:59:42.982Z</time></trkpt><trkpt lat="43.165005" lon="13.1404933"><ele>970.9999999999999</ele><time>2026-05-02T07:59:43.982Z</time></trkpt><trkpt lat="43.1649" lon="13.1405567"><ele>971.0</ele><time>2026-05-02T07:59:44.984Z</time></trkpt><trkpt lat="43.1648033" lon="13.1406267"><ele>971.0</ele><time>2026-05-02T07:59:45.984Z</time></trkpt><trkpt lat="43.1647217" lon="13.1406867"><ele>971.6666666666667</ele><time>2026-05-02T07:59:46.984Z</time></trkpt><trkpt lat="43.164655" lon="13.1407317"><ele>972.3333333333334</ele><time>2026-05-02T07:59:47.985Z</time></trkpt><trkpt lat="43.1645783" lon="13.140785"><ele>973.0</ele><time>2026-05-02T07:59:49.983Z</time></trkpt><trkpt lat="43.164505" lon="13.14084"><ele>973.6666666666667</ele><time>2026-05-02T08:00:14.983Z</time></trkpt><trkpt lat="43.1644017" lon="13.1409033"><ele>974.3333333333334</ele><time>2026-05-02T08:00:16.982Z</time></trkpt><trkpt lat="43.1643433" lon="13.1409417"><ele>975.0</ele><time>2026-05-02T08:00:17.983Z</time></trkpt><trkpt lat="43.16428" lon="13.1409833"><ele>975.0</ele><time>2026-05-02T08:00:18.983Z</time></trkpt><trkpt lat="43.1642067" lon="13.1410317"><ele>975.0</ele><time>2026-05-02T08:00:19.983Z</time></trkpt><trkpt lat="43.164125" lon="13.1410983"><ele>975.0</ele><time>2026-05-02T08:00:20.982Z</time></trkpt><trkpt lat="43.1640467" lon="13.14118"><ele>975.0</ele><time>2026-05-02T08:00:21.984Z</time></trkpt><trkpt lat="43.1639767" lon="13.1412767"><ele>975.0</ele><time>2026-05-02T08:00:22.983Z</time></trkpt><trkpt lat="43.1639083" lon="13.1413867"><ele>975.6</ele><time>2026-05-02T08:00:23.982Z</time></trkpt><trkpt lat="43.1638367" lon="13.1414983"><ele>976.2</ele><time>2026-05-02T08:00:24.983Z</time></trkpt><trkpt lat="43.1637633" lon="13.1416083"><ele>976.8</ele><time>2026-05-02T08:00:25.982Z</time></trkpt><trkpt lat="43.163685" lon="13.141715"><ele>977.4</ele><time>2026-05-02T08:00:26.983Z</time></trkpt><trkpt lat="43.1636117" lon="13.14182"><ele>978.0</ele><time>2026-05-02T08:00:27.983Z</time></trkpt><trkpt lat="43.16354" lon="13.14192"><ele>978.0</ele><time>2026-05-02T08:00:28.982Z</time></trkpt><trkpt lat="43.16346" lon="13.142015"><ele>978.0</ele><time>2026-05-02T08:00:29.982Z</time></trkpt><trkpt lat="43.1633733" lon="13.142105"><ele>978.0</ele><time>2026-05-02T08:00:30.985Z</time></trkpt><trkpt lat="43.1632783" lon="13.142185"><ele>978.0</ele><time>2026-05-02T08:00:31.982Z</time></trkpt><trkpt lat="43.1631817" lon="13.1422517"><ele>978.0</ele><time>2026-05-02T08:00:32.983Z</time></trkpt><trkpt lat="43.16308" lon="13.1423083"><ele>977.75</ele><time>2026-05-02T08:00:33.984Z</time></trkpt><trkpt lat="43.1629683" lon="13.1423517"><ele>977.5</ele><time>2026-05-02T08:00:34.982Z</time></trkpt><trkpt lat="43.1628517" lon="13.14238"><ele>977.25</ele><time>2026-05-02T08:00:35.982Z</time></trkpt><trkpt lat="43.162735" lon="13.1424017"><ele>977.0</ele><time>2026-05-02T08:00:36.984Z</time></trkpt><trkpt lat="43.1626217" lon="13.1424167"><ele>977.0</ele><time>2026-05-02T08:00:37.982Z</time></trkpt><trkpt lat="43.1625133" lon="13.142425"><ele>977.0</ele><time>2026-05-02T08:00:38.982Z</time></trkpt><trkpt lat="43.162415" lon="13.1424267"><ele>977.0</ele><time>2026-05-02T08:00:39.983Z</time></trkpt><trkpt lat="43.16232" lon="13.14242"><ele>977.0</ele><time>2026-05-02T08:00:40.983Z</time></trkpt><trkpt lat="43.162225" lon="13.1423967"><ele>977.0</ele><time>2026-05-02T08:00:41.982Z</time></trkpt><trkpt lat="43.16212" lon="13.1423683"><ele>977.5</ele><time>2026-05-02T08:00:42.981Z</time></trkpt><trkpt lat="43.162005" lon="13.1423483"><ele>978.0</ele><time>2026-05-02T08:00:43.981Z</time></trkpt><trkpt lat="43.1618817" lon="13.142345"><ele>978.5</ele><time>2026-05-02T08:00:44.982Z</time></trkpt><trkpt lat="43.1617567" lon="13.142355"><ele>979.0</ele><time>2026-05-02T08:00:45.982Z</time></trkpt><trkpt lat="43.1616333" lon="13.1423667"><ele>979.0</ele><time>2026-05-02T08:00:46.981Z</time></trkpt><trkpt lat="43.161515" lon="13.1423783"><ele>979.0000000000001</ele><time>2026-05-02T08:00:47.983Z</time></trkpt><trkpt lat="43.1614083" lon="13.142395"><ele>979.0000000000001</ele><time>2026-05-02T08:00:48.982Z</time></trkpt><trkpt lat="43.1613117" lon="13.1424383"><ele>979.0</ele><time>2026-05-02T08:00:49.981Z</time></trkpt><trkpt lat="43.1612233" lon="13.1425167"><ele>979.0</ele><time>2026-05-02T08:00:50.982Z</time></trkpt><trkpt lat="43.16115" lon="13.1426317"><ele>978.75</ele><time>2026-05-02T08:00:51.982Z</time></trkpt><trkpt lat="43.1610833" lon="13.1427733"><ele>978.5</ele><time>2026-05-02T08:00:52.982Z</time></trkpt><trkpt lat="43.1610167" lon="13.1429283"><ele>978.25</ele><time>2026-05-02T08:00:53.982Z</time></trkpt><trkpt lat="43.1609583" lon="13.14309"><ele>978.0</ele><time>2026-05-02T08:00:54.981Z</time></trkpt><trkpt lat="43.16091" lon="13.143265"><ele>977.25</ele><time>2026-05-02T08:00:55.983Z</time></trkpt><trkpt lat="43.160865" lon="13.14345"><ele>976.5</ele><time>2026-05-02T08:00:56.981Z</time></trkpt><trkpt lat="43.16082" lon="13.1436467"><ele>975.75</ele><time>2026-05-02T08:00:57.982Z</time></trkpt><trkpt lat="43.160785" lon="13.1438483"><ele>975.0</ele><time>2026-05-02T08:00:58.982Z</time></trkpt><trkpt lat="43.1607617" lon="13.1440517"><ele>975.0</ele><time>2026-05-02T08:00:59.983Z</time></trkpt><trkpt lat="43.1607367" lon="13.1442567"><ele>975.0</ele><time>2026-05-02T08:01:00.983Z</time></trkpt><trkpt lat="43.1607" lon="13.1444683"><ele>975.0</ele><time>2026-05-02T08:01:01.982Z</time></trkpt><trkpt lat="43.1606533" lon="13.1446817"><ele>978.0</ele><time>2026-05-02T08:01:02.982Z</time></trkpt><trkpt lat="43.1606033" lon="13.1448867"><ele>981.0</ele><time>2026-05-02T08:01:03.981Z</time></trkpt><trkpt lat="43.160555" lon="13.145075"><ele>984.0</ele><time>2026-05-02T08:01:04.983Z</time></trkpt><trkpt lat="43.160505" lon="13.1452517"><ele>987.0</ele><time>2026-05-02T08:01:05.982Z</time></trkpt><trkpt lat="43.1604567" lon="13.1454183"><ele>987.0</ele><time>2026-05-02T08:01:06.981Z</time></trkpt><trkpt lat="43.16041" lon="13.145575"><ele>987.0</ele><time>2026-05-02T08:01:07.981Z</time></trkpt><trkpt lat="43.1603783" lon="13.1457283"><ele>987.0</ele><time>2026-05-02T08:01:08.983Z</time></trkpt><trkpt lat="43.1603617" lon="13.1458883"><ele>987.0</ele><time>2026-05-02T08:01:09.982Z</time></trkpt><trkpt lat="43.1603633" lon="13.1460667"><ele>987.5</ele><time>2026-05-02T08:01:10.981Z</time></trkpt><trkpt lat="43.16037" lon="13.14626"><ele>988.0</ele><time>2026-05-02T08:01:11.983Z</time></trkpt><trkpt lat="43.16037" lon="13.1464417"><ele>988.5</ele><time>2026-05-02T08:01:12.982Z</time></trkpt><trkpt lat="43.16036" lon="13.1466083"><ele>989.0</ele><time>2026-05-02T08:01:13.982Z</time></trkpt><trkpt lat="43.1603467" lon="13.14677"><ele>989.75</ele><time>2026-05-02T08:01:14.982Z</time></trkpt><trkpt lat="43.1603317" lon="13.1469283"><ele>990.5</ele><time>2026-05-02T08:01:15.983Z</time></trkpt><trkpt lat="43.160305" lon="13.14709"><ele>991.25</ele><time>2026-05-02T08:01:16.982Z</time></trkpt><trkpt lat="43.1602717" lon="13.147255"><ele>992.0</ele><time>2026-05-02T08:01:17.981Z</time></trkpt><trkpt lat="43.16023" lon="13.1474167"><ele>992.75</ele><time>2026-05-02T08:01:18.982Z</time></trkpt><trkpt lat="43.16018" lon="13.1475783"><ele>993.5</ele><time>2026-05-02T08:01:19.981Z</time></trkpt><trkpt lat="43.1601217" lon="13.1477367"><ele>994.25</ele><time>2026-05-02T08:01:20.983Z</time></trkpt><trkpt lat="43.1600583" lon="13.1478867"><ele>995.0</ele><time>2026-05-02T08:01:21.983Z</time></trkpt><trkpt lat="43.15999" lon="13.1480233"><ele>995.0</ele><time>2026-05-02T08:01:22.981Z</time></trkpt><trkpt lat="43.1599167" lon="13.1481483"><ele>995.0</ele><time>2026-05-02T08:01:23.982Z</time></trkpt><trkpt lat="43.15984" lon="13.14827"><ele>995.0</ele><time>2026-05-02T08:01:24.982Z</time></trkpt><trkpt lat="43.1597567" lon="13.1483917"><ele>995.0</ele><time>2026-05-02T08:01:25.982Z</time></trkpt><trkpt lat="43.1596683" lon="13.148505"><ele>998.0</ele><time>2026-05-02T08:01:26.984Z</time></trkpt><trkpt lat="43.1595817" lon="13.14861"><ele>1001.0</ele><time>2026-05-02T08:01:27.983Z</time></trkpt><trkpt lat="43.15949" lon="13.1487167"><ele>1004.0</ele><time>2026-05-02T08:01:28.983Z</time></trkpt><trkpt lat="43.159395" lon="13.1488217"><ele>1007.0</ele><time>2026-05-02T08:01:29.983Z</time></trkpt><trkpt lat="43.1593" lon="13.1489267"><ele>1007.0</ele><time>2026-05-02T08:01:30.984Z</time></trkpt><trkpt lat="43.159205" lon="13.1490267"><ele>1007.0</ele><time>2026-05-02T08:01:31.982Z</time></trkpt><trkpt lat="43.1591133" lon="13.1491167"><ele>1007.0</ele><time>2026-05-02T08:01:32.983Z</time></trkpt><trkpt lat="43.159035" lon="13.1491917"><ele>1007.0</ele><time>2026-05-02T08:01:33.982Z</time></trkpt><trkpt lat="43.158975" lon="13.1492667"><ele>1007.0</ele><time>2026-05-02T08:01:34.983Z</time></trkpt><trkpt lat="43.15893" lon="13.149355"><ele>1006.6666666666667</ele><time>2026-05-02T08:01:35.983Z</time></trkpt><trkpt lat="43.158905" lon="13.1494583"><ele>1006.3333333333334</ele><time>2026-05-02T08:01:36.983Z</time></trkpt><trkpt lat="43.1588983" lon="13.1495717"><ele>1006.0</ele><time>2026-05-02T08:01:37.983Z</time></trkpt><trkpt lat="43.1589017" lon="13.14968"><ele>1005.6666666666667</ele><time>2026-05-02T08:01:38.983Z</time></trkpt><trkpt lat="43.1589083" lon="13.1497783"><ele>1005.3333333333334</ele><time>2026-05-02T08:01:39.982Z</time></trkpt><trkpt lat="43.1589167" lon="13.14987"><ele>1005.0</ele><time>2026-05-02T08:01:40.982Z</time></trkpt><trkpt lat="43.1589367" lon="13.150025"><ele>1005.0</ele><time>2026-05-02T08:01:42.983Z</time></trkpt><trkpt lat="43.1589833" lon="13.1501733"><ele>1005.0</ele><time>2026-05-02T08:01:44.983Z</time></trkpt><trkpt lat="43.159065" lon="13.15031"><ele>1005.0</ele><time>2026-05-02T08:01:46.983Z</time></trkpt><trkpt lat="43.1591167" lon="13.1503717"><ele>1005.0</ele><time>2026-05-02T08:01:47.983Z</time></trkpt><trkpt lat="43.159175" lon="13.1504283"><ele>1005.0</ele><time>2026-05-02T08:01:48.983Z</time></trkpt><trkpt lat="43.1592383" lon="13.1504833"><ele>1004.2857142857144</ele><time>2026-05-02T08:01:49.984Z</time></trkpt><trkpt lat="43.1593017" lon="13.1505333"><ele>1003.5714285714287</ele><time>2026-05-02T08:01:50.984Z</time></trkpt><trkpt lat="43.1593667" lon="13.15058"><ele>1002.8571428571429</ele><time>2026-05-02T08:01:51.984Z</time></trkpt><trkpt lat="43.1594333" lon="13.1506333"><ele>1002.1428571428572</ele><time>2026-05-02T08:01:52.982Z</time></trkpt><trkpt lat="43.1594967" lon="13.15069"><ele>1001.4285714285716</ele><time>2026-05-02T08:01:53.982Z</time></trkpt><trkpt lat="43.159555" lon="13.1507483"><ele>1000.7142857142857</ele><time>2026-05-02T08:01:54.982Z</time></trkpt><trkpt lat="43.1596133" lon="13.1508083"><ele>1000.0</ele><time>2026-05-02T08:01:55.982Z</time></trkpt><trkpt lat="43.15967" lon="13.1508733"><ele>998.9999999999999</ele><time>2026-05-02T08:01:56.982Z</time></trkpt><trkpt lat="43.1597267" lon="13.1509417"><ele>998.0</ele><time>2026-05-02T08:01:57.983Z</time></trkpt><trkpt lat="43.159785" lon="13.1510133"><ele>997.0</ele><time>2026-05-02T08:01:58.982Z</time></trkpt><trkpt lat="43.1598417" lon="13.15109"><ele>996.0</ele><time>2026-05-02T08:01:59.983Z</time></trkpt><trkpt lat="43.1598983" lon="13.1511667"><ele>994.9999999999999</ele><time>2026-05-02T08:02:00.984Z</time></trkpt><trkpt lat="43.1599517" lon="13.1512433"><ele>994.0</ele><time>2026-05-02T08:02:01.981Z</time></trkpt><trkpt lat="43.1600133" lon="13.151325"><ele>993.0</ele><time>2026-05-02T08:02:02.983Z</time></trkpt><trkpt lat="43.1600817" lon="13.15141"><ele>992.0000000000001</ele><time>2026-05-02T08:02:03.982Z</time></trkpt><trkpt lat="43.160155" lon="13.1514967"><ele>991.0000000000001</ele><time>2026-05-02T08:02:04.981Z</time></trkpt><trkpt lat="43.1602283" lon="13.151585"><ele>990.0</ele><time>2026-05-02T08:02:05.981Z</time></trkpt><trkpt lat="43.1603017" lon="13.1516733"><ele>989.0</ele><time>2026-05-02T08:02:06.983Z</time></trkpt><trkpt lat="43.160375" lon="13.1517533"><ele>987.5000000000001</ele><time>2026-05-02T08:02:07.983Z</time></trkpt><trkpt lat="43.1604467" lon="13.1518283"><ele>986.0</ele><time>2026-05-02T08:02:08.982Z</time></trkpt><trkpt lat="43.1605183" lon="13.1519017"><ele>984.5</ele><time>2026-05-02T08:02:09.982Z</time></trkpt><trkpt lat="43.160585" lon="13.1519833"><ele>983.0</ele><time>2026-05-02T08:02:10.982Z</time></trkpt><trkpt lat="43.1606467" lon="13.1520667"><ele>981.5000000000001</ele><time>2026-05-02T08:02:11.981Z</time></trkpt><trkpt lat="43.1607083" lon="13.15215"><ele>980.0</ele><time>2026-05-02T08:02:12.983Z</time></trkpt><trkpt lat="43.1607617" lon="13.1522333"><ele>978.4285714285714</ele><time>2026-05-02T08:02:13.982Z</time></trkpt><trkpt lat="43.1608067" lon="13.1523167"><ele>976.8571428571429</ele><time>2026-05-02T08:02:14.983Z</time></trkpt><trkpt lat="43.1608433" lon="13.1524033"><ele>975.2857142857142</ele><time>2026-05-02T08:02:15.982Z</time></trkpt><trkpt lat="43.1608733" lon="13.15249"><ele>973.7142857142857</ele><time>2026-05-02T08:02:16.982Z</time></trkpt><trkpt lat="43.1609" lon="13.15258"><ele>972.1428571428571</ele><time>2026-05-02T08:02:17.982Z</time></trkpt><trkpt lat="43.160925" lon="13.152675"><ele>970.5714285714284</ele><time>2026-05-02T08:02:18.983Z</time></trkpt><trkpt lat="43.1609417" lon="13.1527717"><ele>968.9999999999999</ele><time>2026-05-02T08:02:19.981Z</time></trkpt><trkpt lat="43.160955" lon="13.1528667"><ele>968.1666666666666</ele><time>2026-05-02T08:02:20.982Z</time></trkpt><trkpt lat="43.16096" lon="13.1529567"><ele>967.3333333333333</ele><time>2026-05-02T08:02:21.981Z</time></trkpt><trkpt lat="43.160965" lon="13.1530533"><ele>966.5</ele><time>2026-05-02T08:02:22.983Z</time></trkpt><trkpt lat="43.16097" lon="13.1531567"><ele>965.6666666666666</ele><time>2026-05-02T08:02:23.983Z</time></trkpt><trkpt lat="43.1609733" lon="13.15327"><ele>964.8333333333333</ele><time>2026-05-02T08:02:24.983Z</time></trkpt><trkpt lat="43.160975" lon="13.153385"><ele>964.0</ele><time>2026-05-02T08:02:25.981Z</time></trkpt><trkpt lat="43.160975" lon="13.1534967"><ele>962.6666666666666</ele><time>2026-05-02T08:02:26.981Z</time></trkpt><trkpt lat="43.160975" lon="13.153605"><ele>961.3333333333333</ele><time>2026-05-02T08:02:27.982Z</time></trkpt><trkpt lat="43.1609733" lon="13.1537133"><ele>960.0</ele><time>2026-05-02T08:02:28.982Z</time></trkpt><trkpt lat="43.1609683" lon="13.1538167"><ele>958.6666666666667</ele><time>2026-05-02T08:02:29.981Z</time></trkpt><trkpt lat="43.16096" lon="13.1539167"><ele>957.3333333333334</ele><time>2026-05-02T08:02:30.982Z</time></trkpt><trkpt lat="43.1609517" lon="13.15402"><ele>956.0</ele><time>2026-05-02T08:02:31.983Z</time></trkpt><trkpt lat="43.1609383" lon="13.154125"><ele>954.0</ele><time>2026-05-02T08:02:32.982Z</time></trkpt><trkpt lat="43.1609167" lon="13.1542317"><ele>951.9999999999999</ele><time>2026-05-02T08:02:33.983Z</time></trkpt><trkpt lat="43.160885" lon="13.1543467"><ele>949.9999999999999</ele><time>2026-05-02T08:02:34.982Z</time></trkpt><trkpt lat="43.1608433" lon="13.1544717"><ele>948.0</ele><time>2026-05-02T08:02:35.982Z</time></trkpt><trkpt lat="43.1607983" lon="13.154605"><ele>946.0</ele><time>2026-05-02T08:02:36.983Z</time></trkpt><trkpt lat="43.1607517" lon="13.1547417"><ele>943.5999999999999</ele><time>2026-05-02T08:02:37.982Z</time></trkpt><trkpt lat="43.1607083" lon="13.1548783"><ele>941.1999999999999</ele><time>2026-05-02T08:02:38.983Z</time></trkpt><trkpt lat="43.160665" lon="13.1550167"><ele>938.8000000000001</ele><time>2026-05-02T08:02:39.983Z</time></trkpt><trkpt lat="43.160625" lon="13.1551533"><ele>936.4000000000001</ele><time>2026-05-02T08:02:40.983Z</time></trkpt><trkpt lat="43.1605917" lon="13.1552767"><ele>934.0</ele><time>2026-05-02T08:02:41.982Z</time></trkpt><trkpt lat="43.1605617" lon="13.1553867"><ele>932.4999999999999</ele><time>2026-05-02T08:02:42.982Z</time></trkpt><trkpt lat="43.160535" lon="13.1554933"><ele>931.0</ele><time>2026-05-02T08:02:43.982Z</time></trkpt><trkpt lat="43.16051" lon="13.1556033"><ele>929.5</ele><time>2026-05-02T08:02:44.984Z</time></trkpt><trkpt lat="43.16048" lon="13.15572"><ele>928.0</ele><time>2026-05-02T08:02:45.982Z</time></trkpt><trkpt lat="43.16045" lon="13.155825"><ele>926.4999999999999</ele><time>2026-05-02T08:02:46.982Z</time></trkpt><trkpt lat="43.16043" lon="13.1559183"><ele>925.0</ele><time>2026-05-02T08:02:47.982Z</time></trkpt><trkpt lat="43.1604117" lon="13.15601"><ele>923.0</ele><time>2026-05-02T08:02:48.983Z</time></trkpt><trkpt lat="43.1603933" lon="13.156115"><ele>921.0</ele><time>2026-05-02T08:02:49.983Z</time></trkpt><trkpt lat="43.1603733" lon="13.1562333"><ele>919.0</ele><time>2026-05-02T08:02:50.983Z</time></trkpt><trkpt lat="43.1603417" lon="13.15636"><ele>917.0</ele><time>2026-05-02T08:02:51.982Z</time></trkpt><trkpt lat="43.160305" lon="13.1564817"><ele>915.0</ele><time>2026-05-02T08:02:52.982Z</time></trkpt><trkpt lat="43.1602683" lon="13.1565967"><ele>913.4</ele><time>2026-05-02T08:02:53.982Z</time></trkpt><trkpt lat="43.1602367" lon="13.1567183"><ele>911.8</ele><time>2026-05-02T08:02:54.982Z</time></trkpt><trkpt lat="43.160205" lon="13.1568567"><ele>910.2</ele><time>2026-05-02T08:02:55.982Z</time></trkpt><trkpt lat="43.1601683" lon="13.157"><ele>908.6</ele><time>2026-05-02T08:02:56.983Z</time></trkpt><trkpt lat="43.1601267" lon="13.1571383"><ele>907.0</ele><time>2026-05-02T08:02:57.983Z</time></trkpt><trkpt lat="43.1600817" lon="13.1572683"><ele>906.2</ele><time>2026-05-02T08:02:58.984Z</time></trkpt><trkpt lat="43.160035" lon="13.1573917"><ele>905.4000000000001</ele><time>2026-05-02T08:02:59.983Z</time></trkpt><trkpt lat="43.1599817" lon="13.15751"><ele>904.5999999999999</ele><time>2026-05-02T08:03:00.982Z</time></trkpt><trkpt lat="43.159915" lon="13.157615"><ele>903.8</ele><time>2026-05-02T08:03:01.983Z</time></trkpt><trkpt lat="43.1598417" lon="13.1577083"><ele>903.0</ele><time>2026-05-02T08:03:02.984Z</time></trkpt><trkpt lat="43.159765" lon="13.1577867"><ele>902.8</ele><time>2026-05-02T08:03:03.983Z</time></trkpt><trkpt lat="43.1596767" lon="13.1578483"><ele>902.5999999999999</ele><time>2026-05-02T08:03:04.981Z</time></trkpt><trkpt lat="43.159575" lon="13.1578983"><ele>902.4000000000001</ele><time>2026-05-02T08:03:05.984Z</time></trkpt><trkpt lat="43.15947" lon="13.1579483"><ele>902.2</ele><time>2026-05-02T08:03:06.983Z</time></trkpt><trkpt lat="43.1593683" lon="13.1580117"><ele>902.0</ele><time>2026-05-02T08:03:07.982Z</time></trkpt><trkpt lat="43.1592717" lon="13.15808"><ele>902.0</ele><time>2026-05-02T08:03:08.983Z</time></trkpt><trkpt lat="43.159185" lon="13.15816"><ele>902.0</ele><time>2026-05-02T08:03:09.982Z</time></trkpt><trkpt lat="43.1591167" lon="13.1582567"><ele>902.0</ele><time>2026-05-02T08:03:10.982Z</time></trkpt><trkpt lat="43.1590617" lon="13.1583717"><ele>902.0</ele><time>2026-05-02T08:03:11.981Z</time></trkpt><trkpt lat="43.1590133" lon="13.1585083"><ele>902.0</ele><time>2026-05-02T08:03:12.981Z</time></trkpt><trkpt lat="43.15896" lon="13.1586567"><ele>902.8</ele><time>2026-05-02T08:03:13.982Z</time></trkpt><trkpt lat="43.158905" lon="13.1588017"><ele>903.6</ele><time>2026-05-02T08:03:14.982Z</time></trkpt><trkpt lat="43.1588583" lon="13.1589333"><ele>904.3999999999999</ele><time>2026-05-02T08:03:15.981Z</time></trkpt><trkpt lat="43.158825" lon="13.1590717"><ele>905.1999999999999</ele><time>2026-05-02T08:03:16.983Z</time></trkpt><trkpt lat="43.1588083" lon="13.15922"><ele>906.0</ele><time>2026-05-02T08:03:17.982Z</time></trkpt><trkpt lat="43.1587967" lon="13.1593667"><ele>906.0</ele><time>2026-05-02T08:03:18.983Z</time></trkpt><trkpt lat="43.1587867" lon="13.1595083"><ele>905.9999999999999</ele><time>2026-05-02T08:03:19.982Z</time></trkpt><trkpt lat="43.15878" lon="13.1596517"><ele>905.9999999999999</ele><time>2026-05-02T08:03:20.983Z</time></trkpt><trkpt lat="43.1587817" lon="13.15979"><ele>906.0</ele><time>2026-05-02T08:03:21.982Z</time></trkpt><trkpt lat="43.1587967" lon="13.1599283"><ele>906.0</ele><time>2026-05-02T08:03:22.983Z</time></trkpt><trkpt lat="43.1588217" lon="13.160075"><ele>905.1999999999999</ele><time>2026-05-02T08:03:23.982Z</time></trkpt><trkpt lat="43.1588483" lon="13.160225"><ele>904.3999999999999</ele><time>2026-05-02T08:03:24.983Z</time></trkpt><trkpt lat="43.1588767" lon="13.16037"><ele>903.6</ele><time>2026-05-02T08:03:25.982Z</time></trkpt><trkpt lat="43.158905" lon="13.160515"><ele>902.8</ele><time>2026-05-02T08:03:26.983Z</time></trkpt><trkpt lat="43.1589317" lon="13.160665"><ele>902.0</ele><time>2026-05-02T08:03:27.982Z</time></trkpt><trkpt lat="43.1589533" lon="13.16082"><ele>901.25</ele><time>2026-05-02T08:03:28.982Z</time></trkpt><trkpt lat="43.1589833" lon="13.1609817"><ele>900.5</ele><time>2026-05-02T08:03:29.982Z</time></trkpt><trkpt lat="43.1590183" lon="13.16115"><ele>899.75</ele><time>2026-05-02T08:03:30.983Z</time></trkpt><trkpt lat="43.1590567" lon="13.1613183"><ele>899.0</ele><time>2026-05-02T08:03:31.985Z</time></trkpt><trkpt lat="43.1591017" lon="13.1614767"><ele>896.25</ele><time>2026-05-02T08:03:32.983Z</time></trkpt><trkpt lat="43.15915" lon="13.1616233"><ele>893.5</ele><time>2026-05-02T08:03:33.983Z</time></trkpt><trkpt lat="43.1592033" lon="13.16176"><ele>890.75</ele><time>2026-05-02T08:03:34.983Z</time></trkpt><trkpt lat="43.1592583" lon="13.1618933"><ele>888.0</ele><time>2026-05-02T08:03:35.982Z</time></trkpt><trkpt lat="43.1593167" lon="13.1620267"><ele>888.0</ele><time>2026-05-02T08:03:36.982Z</time></trkpt><trkpt lat="43.1593733" lon="13.1621533"><ele>888.0</ele><time>2026-05-02T08:03:37.983Z</time></trkpt><trkpt lat="43.1594233" lon="13.1622817"><ele>888.0</ele><time>2026-05-02T08:03:38.982Z</time></trkpt><trkpt lat="43.159465" lon="13.1624183"><ele>888.0</ele><time>2026-05-02T08:03:39.982Z</time></trkpt><trkpt lat="43.15951" lon="13.1625617"><ele>888.0</ele><time>2026-05-02T08:03:40.981Z</time></trkpt><trkpt lat="43.159555" lon="13.1627067"><ele>886.4</ele><time>2026-05-02T08:03:41.982Z</time></trkpt><trkpt lat="43.1595967" lon="13.16285"><ele>884.8</ele><time>2026-05-02T08:03:42.983Z</time></trkpt><trkpt lat="43.1596367" lon="13.1629833"><ele>883.2</ele><time>2026-05-02T08:03:43.983Z</time></trkpt><trkpt lat="43.1596717" lon="13.1631167"><ele>881.6</ele><time>2026-05-02T08:03:44.983Z</time></trkpt><trkpt lat="43.1596983" lon="13.1632467"><ele>880.0</ele><time>2026-05-02T08:03:45.981Z</time></trkpt><trkpt lat="43.1597233" lon="13.1633783"><ele>878.6</ele><time>2026-05-02T08:03:46.982Z</time></trkpt><trkpt lat="43.1597667" lon="13.16352"><ele>877.2</ele><time>2026-05-02T08:03:47.982Z</time></trkpt><trkpt lat="43.1598267" lon="13.1636583"><ele>875.8</ele><time>2026-05-02T08:03:48.982Z</time></trkpt><trkpt lat="43.1598917" lon="13.163785"><ele>874.4</ele><time>2026-05-02T08:03:49.983Z</time></trkpt><trkpt lat="43.15995" lon="13.163895"><ele>873.0</ele><time>2026-05-02T08:03:50.982Z</time></trkpt><trkpt lat="43.16" lon="13.1640067"><ele>871.1666666666666</ele><time>2026-05-02T08:03:51.982Z</time></trkpt><trkpt lat="43.160045" lon="13.164115"><ele>869.3333333333333</ele><time>2026-05-02T08:03:52.983Z</time></trkpt><trkpt lat="43.1600867" lon="13.164215"><ele>867.5</ele><time>2026-05-02T08:03:53.983Z</time></trkpt><trkpt lat="43.1601217" lon="13.1642967"><ele>865.6666666666666</ele><time>2026-05-02T08:03:54.982Z</time></trkpt><trkpt lat="43.1601367" lon="13.1643867"><ele>863.8333333333333</ele><time>2026-05-02T08:03:57.983Z</time></trkpt><trkpt lat="43.1601117" lon="13.1644833"><ele>862.0</ele><time>2026-05-02T08:04:04.983Z</time></trkpt><trkpt lat="43.1600917" lon="13.1645817"><ele>862.0</ele><time>2026-05-02T08:04:06.982Z</time></trkpt><trkpt lat="43.160065" lon="13.1646933"><ele>862.0</ele><time>2026-05-02T08:04:08.982Z</time></trkpt><trkpt lat="43.1600283" lon="13.164805"><ele>862.0</ele><time>2026-05-02T08:04:10.983Z</time></trkpt><trkpt lat="43.1599833" lon="13.1649417"><ele>862.0</ele><time>2026-05-02T08:04:12.982Z</time></trkpt><trkpt lat="43.1599317" lon="13.165115"><ele>862.0</ele><time>2026-05-02T08:04:14.982Z</time></trkpt><trkpt lat="43.1598967" lon="13.1652283"><ele>859.4000000000001</ele><time>2026-05-02T08:04:15.981Z</time></trkpt><trkpt lat="43.1598617" lon="13.1653617"><ele>856.8000000000001</ele><time>2026-05-02T08:04:16.983Z</time></trkpt><trkpt lat="43.15983" lon="13.1655033"><ele>854.2</ele><time>2026-05-02T08:04:17.982Z</time></trkpt><trkpt lat="43.1598017" lon="13.1656483"><ele>851.6</ele><time>2026-05-02T08:04:18.982Z</time></trkpt><trkpt lat="43.1597783" lon="13.1657867"><ele>849.0</ele><time>2026-05-02T08:04:19.982Z</time></trkpt><trkpt lat="43.15976" lon="13.16592"><ele>846.2</ele><time>2026-05-02T08:04:20.982Z</time></trkpt><trkpt lat="43.1597517" lon="13.1660533"><ele>843.4000000000001</ele><time>2026-05-02T08:04:21.982Z</time></trkpt><trkpt lat="43.159755" lon="13.16618"><ele>840.6</ele><time>2026-05-02T08:04:22.982Z</time></trkpt><trkpt lat="43.1597683" lon="13.1663117"><ele>837.8</ele><time>2026-05-02T08:04:23.983Z</time></trkpt><trkpt lat="43.159785" lon="13.16644"><ele>835.0</ele><time>2026-05-02T08:04:24.983Z</time></trkpt><trkpt lat="43.1597967" lon="13.1665717"><ele>834.4</ele><time>2026-05-02T08:04:25.983Z</time></trkpt><trkpt lat="43.1598083" lon="13.166715"><ele>833.8</ele><time>2026-05-02T08:04:26.983Z</time></trkpt><trkpt lat="43.1598233" lon="13.1668717"><ele>833.2</ele><time>2026-05-02T08:04:27.983Z</time></trkpt><trkpt lat="43.1598483" lon="13.167025"><ele>832.6</ele><time>2026-05-02T08:04:28.982Z</time></trkpt><trkpt lat="43.15988" lon="13.1671667"><ele>832.0</ele><time>2026-05-02T08:04:29.982Z</time></trkpt><trkpt lat="43.1599183" lon="13.1673017"><ele>833.5</ele><time>2026-05-02T08:04:30.982Z</time></trkpt><trkpt lat="43.1599617" lon="13.1674483"><ele>835.0</ele><time>2026-05-02T08:04:31.982Z</time></trkpt><trkpt lat="43.1600033" lon="13.1676"><ele>836.5</ele><time>2026-05-02T08:04:32.982Z</time></trkpt><trkpt lat="43.160035" lon="13.1677467"><ele>838.0</ele><time>2026-05-02T08:04:33.983Z</time></trkpt><trkpt lat="43.1600617" lon="13.16789"><ele>838.0</ele><time>2026-05-02T08:04:34.983Z</time></trkpt><trkpt lat="43.160085" lon="13.16803"><ele>838.0</ele><time>2026-05-02T08:04:35.984Z</time></trkpt><trkpt lat="43.1601083" lon="13.1681683"><ele>838.0</ele><time>2026-05-02T08:04:36.982Z</time></trkpt><trkpt lat="43.160135" lon="13.1682983"><ele>838.0</ele><time>2026-05-02T08:04:37.983Z</time></trkpt><trkpt lat="43.1601633" lon="13.1684183"><ele>838.0</ele><time>2026-05-02T08:04:38.982Z</time></trkpt><trkpt lat="43.16019" lon="13.168545"><ele>840.8</ele><time>2026-05-02T08:04:39.983Z</time></trkpt><trkpt lat="43.160215" lon="13.1686733"><ele>843.5999999999999</ele><time>2026-05-02T08:04:40.983Z</time></trkpt><trkpt lat="43.1602383" lon="13.1688"><ele>846.4000000000001</ele><time>2026-05-02T08:04:41.983Z</time></trkpt><trkpt lat="43.1602733" lon="13.1689167"><ele>849.2</ele><time>2026-05-02T08:04:42.982Z</time></trkpt><trkpt lat="43.16032" lon="13.169035"><ele>852.0</ele><time>2026-05-02T08:04:43.983Z</time></trkpt><trkpt lat="43.1603667" lon="13.16917"><ele>854.5</ele><time>2026-05-02T08:04:44.983Z</time></trkpt><trkpt lat="43.1604117" lon="13.169315"><ele>857.0</ele><time>2026-05-02T08:04:45.983Z</time></trkpt><trkpt lat="43.160455" lon="13.1694633"><ele>859.5</ele><time>2026-05-02T08:04:46.982Z</time></trkpt><trkpt lat="43.1605017" lon="13.16961"><ele>862.0</ele><time>2026-05-02T08:04:47.982Z</time></trkpt><trkpt lat="43.1605433" lon="13.1697567"><ele>863.0</ele><time>2026-05-02T08:04:48.982Z</time></trkpt><trkpt lat="43.160585" lon="13.169905"><ele>864.0</ele><time>2026-05-02T08:04:49.983Z</time></trkpt><trkpt lat="43.1606233" lon="13.1700517"><ele>865.0</ele><time>2026-05-02T08:04:50.984Z</time></trkpt><trkpt lat="43.1606633" lon="13.1701983"><ele>866.0</ele><time>2026-05-02T08:04:51.983Z</time></trkpt><trkpt lat="43.1607083" lon="13.1703417"><ele>866.1666666666667</ele><time>2026-05-02T08:04:52.982Z</time></trkpt><trkpt lat="43.1607567" lon="13.1704817"><ele>866.3333333333334</ele><time>2026-05-02T08:04:53.984Z</time></trkpt><trkpt lat="43.1608033" lon="13.1706083"><ele>866.5</ele><time>2026-05-02T08:04:54.982Z</time></trkpt><trkpt lat="43.160845" lon="13.1707167"><ele>866.6666666666667</ele><time>2026-05-02T08:04:55.983Z</time></trkpt><trkpt lat="43.16088" lon="13.1707967"><ele>866.8333333333334</ele><time>2026-05-02T08:04:56.983Z</time></trkpt><trkpt lat="43.1609217" lon="13.1708817"><ele>867.0</ele><time>2026-05-02T08:04:58.982Z</time></trkpt><trkpt lat="43.160955" lon="13.1709617"><ele>867.5</ele><time>2026-05-02T08:05:28.982Z</time></trkpt><trkpt lat="43.16102" lon="13.1710933"><ele>868.0</ele><time>2026-05-02T08:05:30.983Z</time></trkpt><trkpt lat="43.1610617" lon="13.171165"><ele>868.5</ele><time>2026-05-02T08:05:31.983Z</time></trkpt><trkpt lat="43.1611117" lon="13.1712317"><ele>869.0</ele><time>2026-05-02T08:05:32.982Z</time></trkpt><trkpt lat="43.1611717" lon="13.171285"><ele>869.5</ele><time>2026-05-02T08:05:33.983Z</time></trkpt><trkpt lat="43.1612433" lon="13.1713383"><ele>870.0</ele><time>2026-05-02T08:05:34.982Z</time></trkpt><trkpt lat="43.1613217" lon="13.1713917"><ele>870.0</ele><time>2026-05-02T08:05:35.985Z</time></trkpt><trkpt lat="43.1614033" lon="13.1714467"><ele>870.0</ele><time>2026-05-02T08:05:36.983Z</time></trkpt><trkpt lat="43.1614833" lon="13.1714983"><ele>870.0</ele><time>2026-05-02T08:05:37.983Z</time></trkpt><trkpt lat="43.1615617" lon="13.1715483"><ele>870.0</ele><time>2026-05-02T08:05:38.985Z</time></trkpt><trkpt lat="43.1616433" lon="13.1715983"><ele>870.0</ele><time>2026-05-02T08:05:39.983Z</time></trkpt><trkpt lat="43.161725" lon="13.1716517"><ele>870.0</ele><time>2026-05-02T08:05:40.982Z</time></trkpt><trkpt lat="43.1618033" lon="13.1717033"><ele>868.0</ele><time>2026-05-02T08:05:41.981Z</time></trkpt><trkpt lat="43.16188" lon="13.1717567"><ele>866.0</ele><time>2026-05-02T08:05:42.982Z</time></trkpt><trkpt lat="43.16196" lon="13.17181"><ele>864.0</ele><time>2026-05-02T08:05:43.982Z</time></trkpt><trkpt lat="43.1620417" lon="13.1718633"><ele>862.0</ele><time>2026-05-02T08:05:44.981Z</time></trkpt><trkpt lat="43.1621233" lon="13.1719167"><ele>860.0</ele><time>2026-05-02T08:05:45.981Z</time></trkpt><trkpt lat="43.1622017" lon="13.17197"><ele>858.0</ele><time>2026-05-02T08:05:46.982Z</time></trkpt><trkpt lat="43.1622733" lon="13.1720233"><ele>858.0</ele><time>2026-05-02T08:05:47.982Z</time></trkpt><trkpt lat="43.16234" lon="13.1720833"><ele>858.0</ele><time>2026-05-02T08:05:48.981Z</time></trkpt><trkpt lat="43.1624" lon="13.172155"><ele>858.0</ele><time>2026-05-02T08:05:49.982Z</time></trkpt><trkpt lat="43.162455" lon="13.172235"><ele>858.0</ele><time>2026-05-02T08:05:50.981Z</time></trkpt><trkpt lat="43.1625133" lon="13.1723267"><ele>858.0</ele><time>2026-05-02T08:05:51.981Z</time></trkpt><trkpt lat="43.16257" lon="13.172425"><ele>858.0</ele><time>2026-05-02T08:05:52.982Z</time></trkpt><trkpt lat="43.16263" lon="13.17253"><ele>857.0</ele><time>2026-05-02T08:05:53.981Z</time></trkpt><trkpt lat="43.1626883" lon="13.1726333"><ele>856.0</ele><time>2026-05-02T08:05:54.981Z</time></trkpt><trkpt lat="43.1627417" lon="13.1727383"><ele>855.0</ele><time>2026-05-02T08:05:55.981Z</time></trkpt><trkpt lat="43.1627917" lon="13.1728417"><ele>854.0</ele><time>2026-05-02T08:05:56.982Z</time></trkpt><trkpt lat="43.1628433" lon="13.1729583"><ele>853.0</ele><time>2026-05-02T08:05:57.982Z</time></trkpt><trkpt lat="43.1628933" lon="13.173085"><ele>853.0</ele><time>2026-05-02T08:05:58.981Z</time></trkpt><trkpt lat="43.1629417" lon="13.17321"><ele>853.0</ele><time>2026-05-02T08:05:59.981Z</time></trkpt><trkpt lat="43.16299" lon="13.173325"><ele>853.0</ele><time>2026-05-02T08:06:00.982Z</time></trkpt><trkpt lat="43.1630433" lon="13.17343"><ele>853.0</ele><time>2026-05-02T08:06:01.982Z</time></trkpt><trkpt lat="43.1631" lon="13.1735417"><ele>853.0</ele><time>2026-05-02T08:06:02.983Z</time></trkpt><trkpt lat="43.16316" lon="13.17366"><ele>852.5999999999999</ele><time>2026-05-02T08:06:03.981Z</time></trkpt><trkpt lat="43.1632183" lon="13.1737817"><ele>852.1999999999999</ele><time>2026-05-02T08:06:04.982Z</time></trkpt><trkpt lat="43.1632767" lon="13.1739"><ele>851.8</ele><time>2026-05-02T08:06:05.981Z</time></trkpt><trkpt lat="43.16333" lon="13.174015"><ele>851.4</ele><time>2026-05-02T08:06:06.982Z</time></trkpt><trkpt lat="43.1633767" lon="13.174125"><ele>851.0</ele><time>2026-05-02T08:06:07.981Z</time></trkpt><trkpt lat="43.163415" lon="13.174235"><ele>849.4</ele><time>2026-05-02T08:06:08.981Z</time></trkpt><trkpt lat="43.1634483" lon="13.174345"><ele>847.8</ele><time>2026-05-02T08:06:09.982Z</time></trkpt><trkpt lat="43.163475" lon="13.1744617"><ele>846.1999999999999</ele><time>2026-05-02T08:06:10.982Z</time></trkpt><trkpt lat="43.1635" lon="13.1745833"><ele>844.5999999999999</ele><time>2026-05-02T08:06:11.982Z</time></trkpt><trkpt lat="43.163525" lon="13.1747083"><ele>843.0</ele><time>2026-05-02T08:06:12.981Z</time></trkpt><trkpt lat="43.1635467" lon="13.1748383"><ele>841.8</ele><time>2026-05-02T08:06:13.981Z</time></trkpt><trkpt lat="43.1635717" lon="13.1749717"><ele>840.5999999999999</ele><time>2026-05-02T08:06:14.982Z</time></trkpt><trkpt lat="43.1635967" lon="13.1751033"><ele>839.4000000000001</ele><time>2026-05-02T08:06:15.981Z</time></trkpt><trkpt lat="43.1636183" lon="13.1752317"><ele>838.2</ele><time>2026-05-02T08:06:16.981Z</time></trkpt><trkpt lat="43.16364" lon="13.1753633"><ele>837.0</ele><time>2026-05-02T08:06:17.981Z</time></trkpt><trkpt lat="43.1636617" lon="13.175495"><ele>837.0</ele><time>2026-05-02T08:06:18.981Z</time></trkpt><trkpt lat="43.16368" lon="13.17562"><ele>837.0</ele><time>2026-05-02T08:06:19.982Z</time></trkpt><trkpt lat="43.1636983" lon="13.17574"><ele>837.0</ele><time>2026-05-02T08:06:20.982Z</time></trkpt><trkpt lat="43.16371" lon="13.1758483"><ele>837.0</ele><time>2026-05-02T08:06:21.982Z</time></trkpt><trkpt lat="43.163715" lon="13.1759567"><ele>837.0</ele><time>2026-05-02T08:06:22.982Z</time></trkpt><trkpt lat="43.1637133" lon="13.17608"><ele>837.0</ele><time>2026-05-02T08:06:23.981Z</time></trkpt><trkpt lat="43.1637083" lon="13.176215"><ele>836.2</ele><time>2026-05-02T08:06:24.981Z</time></trkpt><trkpt lat="43.1637" lon="13.1763517"><ele>835.4000000000001</ele><time>2026-05-02T08:06:25.981Z</time></trkpt><trkpt lat="43.1636933" lon="13.1764867"><ele>834.5999999999999</ele><time>2026-05-02T08:06:26.982Z</time></trkpt><trkpt lat="43.1636817" lon="13.1766217"><ele>833.8</ele><time>2026-05-02T08:06:27.982Z</time></trkpt><trkpt lat="43.1636733" lon="13.17676"><ele>833.0</ele><time>2026-05-02T08:06:28.981Z</time></trkpt><trkpt lat="43.1636717" lon="13.1769"><ele>831.5999999999999</ele><time>2026-05-02T08:06:29.981Z</time></trkpt><trkpt lat="43.16367" lon="13.1770383"><ele>830.1999999999999</ele><time>2026-05-02T08:06:30.981Z</time></trkpt><trkpt lat="43.163675" lon="13.1771717"><ele>828.8</ele><time>2026-05-02T08:06:31.982Z</time></trkpt><trkpt lat="43.163685" lon="13.1773017"><ele>827.4</ele><time>2026-05-02T08:06:32.981Z</time></trkpt><trkpt lat="43.163695" lon="13.17743"><ele>826.0</ele><time>2026-05-02T08:06:33.982Z</time></trkpt><trkpt lat="43.1637033" lon="13.177555"><ele>825.5999999999999</ele><time>2026-05-02T08:06:34.981Z</time></trkpt><trkpt lat="43.1637233" lon="13.1776817"><ele>825.2</ele><time>2026-05-02T08:06:35.983Z</time></trkpt><trkpt lat="43.1637433" lon="13.177805"><ele>824.8</ele><time>2026-05-02T08:06:36.981Z</time></trkpt><trkpt lat="43.16377" lon="13.1779217"><ele>824.4000000000001</ele><time>2026-05-02T08:06:37.981Z</time></trkpt><trkpt lat="43.1637967" lon="13.1780367"><ele>824.0</ele><time>2026-05-02T08:06:38.983Z</time></trkpt><trkpt lat="43.1638233" lon="13.1781483"><ele>823.5000000000001</ele><time>2026-05-02T08:06:39.982Z</time></trkpt><trkpt lat="43.1638467" lon="13.1782567"><ele>823.0</ele><time>2026-05-02T08:06:40.982Z</time></trkpt><trkpt lat="43.1638633" lon="13.1783633"><ele>822.5</ele><time>2026-05-02T08:06:41.982Z</time></trkpt><trkpt lat="43.16388" lon="13.17847"><ele>822.0</ele><time>2026-05-02T08:06:42.986Z</time></trkpt><trkpt lat="43.163895" lon="13.178575"><ele>821.5000000000001</ele><time>2026-05-02T08:06:43.982Z</time></trkpt><trkpt lat="43.1639067" lon="13.1786867"><ele>821.0</ele><time>2026-05-02T08:06:44.982Z</time></trkpt><trkpt lat="43.1639217" lon="13.178805"><ele>821.0000000000001</ele><time>2026-05-02T08:06:45.984Z</time></trkpt><trkpt lat="43.1639383" lon="13.17892"><ele>821.0</ele><time>2026-05-02T08:06:46.981Z</time></trkpt><trkpt lat="43.1639533" lon="13.1790283"><ele>821.0</ele><time>2026-05-02T08:06:47.981Z</time></trkpt><trkpt lat="43.1639567" lon="13.179135"><ele>821.0</ele><time>2026-05-02T08:06:48.981Z</time></trkpt><trkpt lat="43.1639583" lon="13.1792417"><ele>821.0000000000001</ele><time>2026-05-02T08:06:49.981Z</time></trkpt><trkpt lat="43.1639567" lon="13.1793433"><ele>821.0</ele><time>2026-05-02T08:06:50.982Z</time></trkpt><trkpt lat="43.1639567" lon="13.179445"><ele>820.0</ele><time>2026-05-02T08:06:51.981Z</time></trkpt><trkpt lat="43.16396" lon="13.1795533"><ele>819.0</ele><time>2026-05-02T08:06:52.982Z</time></trkpt><trkpt lat="43.1639617" lon="13.1796667"><ele>818.0</ele><time>2026-05-02T08:06:53.982Z</time></trkpt><trkpt lat="43.1639583" lon="13.179785"><ele>817.0</ele><time>2026-05-02T08:06:54.981Z</time></trkpt><trkpt lat="43.1639533" lon="13.17992"><ele>816.0</ele><time>2026-05-02T08:06:55.982Z</time></trkpt><trkpt lat="43.163945" lon="13.1800783"><ele>814.5999999999999</ele><time>2026-05-02T08:06:56.982Z</time></trkpt><trkpt lat="43.1639383" lon="13.1802383"><ele>813.2</ele><time>2026-05-02T08:06:57.981Z</time></trkpt><trkpt lat="43.1639383" lon="13.180385"><ele>811.8</ele><time>2026-05-02T08:06:58.981Z</time></trkpt><trkpt lat="43.1639417" lon="13.180515"><ele>810.4000000000001</ele><time>2026-05-02T08:06:59.981Z</time></trkpt><trkpt lat="43.1639417" lon="13.18063"><ele>809.0</ele><time>2026-05-02T08:07:00.982Z</time></trkpt><trkpt lat="43.1639433" lon="13.1807433"><ele>806.2</ele><time>2026-05-02T08:07:01.982Z</time></trkpt><trkpt lat="43.163945" lon="13.1808567"><ele>803.4000000000001</ele><time>2026-05-02T08:07:02.981Z</time></trkpt><trkpt lat="43.1639567" lon="13.1809717"><ele>800.6</ele><time>2026-05-02T08:07:03.981Z</time></trkpt><trkpt lat="43.16397" lon="13.1810983"><ele>797.8</ele><time>2026-05-02T08:07:04.981Z</time></trkpt><trkpt lat="43.16399" lon="13.1812267"><ele>795.0</ele><time>2026-05-02T08:07:05.982Z</time></trkpt><trkpt lat="43.1640133" lon="13.18136"><ele>795.0</ele><time>2026-05-02T08:07:06.982Z</time></trkpt><trkpt lat="43.16403" lon="13.1815067"><ele>795.0</ele><time>2026-05-02T08:07:07.981Z</time></trkpt><trkpt lat="43.164045" lon="13.18165"><ele>795.0</ele><time>2026-05-02T08:07:08.981Z</time></trkpt><trkpt lat="43.1640667" lon="13.181775"><ele>795.0</ele><time>2026-05-02T08:07:09.982Z</time></trkpt><trkpt lat="43.1640967" lon="13.1818967"><ele>795.0</ele><time>2026-05-02T08:07:10.981Z</time></trkpt><trkpt lat="43.1641267" lon="13.1820117"><ele>793.3333333333334</ele><time>2026-05-02T08:07:11.981Z</time></trkpt><trkpt lat="43.1641633" lon="13.182115"><ele>791.6666666666667</ele><time>2026-05-02T08:07:12.981Z</time></trkpt><trkpt lat="43.1642067" lon="13.1822117"><ele>790.0</ele><time>2026-05-02T08:07:13.982Z</time></trkpt><trkpt lat="43.1642583" lon="13.182305"><ele>788.3333333333334</ele><time>2026-05-02T08:07:14.983Z</time></trkpt><trkpt lat="43.1643133" lon="13.1823833"><ele>786.6666666666667</ele><time>2026-05-02T08:07:15.982Z</time></trkpt><trkpt lat="43.16436" lon="13.1824617"><ele>785.0</ele><time>2026-05-02T08:07:16.981Z</time></trkpt><trkpt lat="43.1644" lon="13.1825517"><ele>783.4</ele><time>2026-05-02T08:07:17.982Z</time></trkpt><trkpt lat="43.1644483" lon="13.1826433"><ele>781.8</ele><time>2026-05-02T08:07:18.983Z</time></trkpt><trkpt lat="43.1645167" lon="13.1827317"><ele>780.2</ele><time>2026-05-02T08:07:19.983Z</time></trkpt><trkpt lat="43.1646017" lon="13.1828267"><ele>778.6</ele><time>2026-05-02T08:07:20.983Z</time></trkpt><trkpt lat="43.1646967" lon="13.1829083"><ele>777.0</ele><time>2026-05-02T08:07:21.982Z</time></trkpt><trkpt lat="43.1647833" lon="13.1829717"><ele>777.0</ele><time>2026-05-02T08:07:22.982Z</time></trkpt><trkpt lat="43.1648617" lon="13.1830183"><ele>777.0</ele><time>2026-05-02T08:07:23.982Z</time></trkpt><trkpt lat="43.1649433" lon="13.1830567"><ele>777.0</ele><time>2026-05-02T08:07:24.982Z</time></trkpt><trkpt lat="43.1650267" lon="13.1830883"><ele>777.0</ele><time>2026-05-02T08:07:25.981Z</time></trkpt><trkpt lat="43.165105" lon="13.18312"><ele>777.0</ele><time>2026-05-02T08:07:26.982Z</time></trkpt><trkpt lat="43.1651767" lon="13.1831617"><ele>777.0</ele><time>2026-05-02T08:07:27.981Z</time></trkpt><trkpt lat="43.16524" lon="13.1832067"><ele>776.6666666666666</ele><time>2026-05-02T08:07:28.982Z</time></trkpt><trkpt lat="43.16531" lon="13.18325"><ele>776.3333333333333</ele><time>2026-05-02T08:07:29.982Z</time></trkpt><trkpt lat="43.165385" lon="13.183285"><ele>776.0</ele><time>2026-05-02T08:07:30.981Z</time></trkpt><trkpt lat="43.1654517" lon="13.18331"><ele>775.6666666666666</ele><time>2026-05-02T08:07:31.981Z</time></trkpt><trkpt lat="43.165555" lon="13.1833467"><ele>775.3333333333333</ele><time>2026-05-02T08:07:33.982Z</time></trkpt><trkpt lat="43.1656567" lon="13.1833983"><ele>775.0</ele><time>2026-05-02T08:07:35.981Z</time></trkpt><trkpt lat="43.1657167" lon="13.18343"><ele>774.9999999999999</ele><time>2026-05-02T08:07:36.982Z</time></trkpt><trkpt lat="43.1657867" lon="13.18346"><ele>775.0</ele><time>2026-05-02T08:07:37.981Z</time></trkpt><trkpt lat="43.1658617" lon="13.1834783"><ele>775.0</ele><time>2026-05-02T08:07:38.981Z</time></trkpt><trkpt lat="43.1659433" lon="13.18349"><ele>775.0</ele><time>2026-05-02T08:07:39.982Z</time></trkpt><trkpt lat="43.1660267" lon="13.1834983"><ele>774.9999999999999</ele><time>2026-05-02T08:07:40.983Z</time></trkpt><trkpt lat="43.1661167" lon="13.1835033"><ele>775.0</ele><time>2026-05-02T08:07:42.982Z</time></trkpt><trkpt lat="43.1662067" lon="13.1834983"><ele>774.9999999999999</ele><time>2026-05-02T08:07:44.982Z</time></trkpt><trkpt lat="43.1663267" lon="13.1834933"><ele>775.0</ele><time>2026-05-02T08:07:46.981Z</time></trkpt><trkpt lat="43.1663917" lon="13.1834967"><ele>775.0</ele><time>2026-05-02T08:07:47.982Z</time></trkpt><trkpt lat="43.1664567" lon="13.1834967"><ele>775.0</ele><time>2026-05-02T08:07:48.982Z</time></trkpt><trkpt lat="43.1665617" lon="13.1834783"><ele>774.9999999999999</ele><time>2026-05-02T08:07:50.981Z</time></trkpt><trkpt lat="43.1666267" lon="13.183465"><ele>775.0</ele><time>2026-05-02T08:07:51.981Z</time></trkpt><trkpt lat="43.1666967" lon="13.1834633"><ele>774.7142857142857</ele><time>2026-05-02T08:07:52.982Z</time></trkpt><trkpt lat="43.1667633" lon="13.1834833"><ele>774.4285714285714</ele><time>2026-05-02T08:07:53.981Z</time></trkpt><trkpt lat="43.16683" lon="13.1835283"><ele>774.1428571428571</ele><time>2026-05-02T08:07:54.982Z</time></trkpt><trkpt lat="43.1668933" lon="13.1835733"><ele>773.8571428571429</ele><time>2026-05-02T08:07:55.981Z</time></trkpt><trkpt lat="43.166955" lon="13.1836067"><ele>773.5714285714286</ele><time>2026-05-02T08:07:56.982Z</time></trkpt><trkpt lat="43.167015" lon="13.1836333"><ele>773.2857142857142</ele><time>2026-05-02T08:07:57.981Z</time></trkpt><trkpt lat="43.1671033" lon="13.183705"><ele>773.0</ele><time>2026-05-02T08:07:59.982Z</time></trkpt><trkpt lat="43.1671433" lon="13.183825"><ele>773.0000000000001</ele><time>2026-05-02T08:08:01.982Z</time></trkpt><trkpt lat="43.1671283" lon="13.18398"><ele>773.0</ele><time>2026-05-02T08:08:03.981Z</time></trkpt><trkpt lat="43.1671067" lon="13.1841483"><ele>773.0</ele><time>2026-05-02T08:08:05.981Z</time></trkpt><trkpt lat="43.1670967" lon="13.1842433"><ele>773.0</ele><time>2026-05-02T08:08:06.982Z</time></trkpt><trkpt lat="43.1670883" lon="13.1843367"><ele>773.0000000000001</ele><time>2026-05-02T08:08:07.981Z</time></trkpt><trkpt lat="43.1670767" lon="13.1844233"><ele>773.0</ele><time>2026-05-02T08:08:08.983Z</time></trkpt><trkpt lat="43.1670567" lon="13.1845117"><ele>771.8333333333334</ele><time>2026-05-02T08:08:09.982Z</time></trkpt><trkpt lat="43.167035" lon="13.184605"><ele>770.6666666666667</ele><time>2026-05-02T08:08:10.982Z</time></trkpt><trkpt lat="43.1670167" lon="13.1846967"><ele>769.5</ele><time>2026-05-02T08:08:11.982Z</time></trkpt><trkpt lat="43.1669983" lon="13.1847833"><ele>768.3333333333334</ele><time>2026-05-02T08:08:12.982Z</time></trkpt><trkpt lat="43.1669483" lon="13.18493"><ele>767.1666666666667</ele><time>2026-05-02T08:08:14.982Z</time></trkpt><trkpt lat="43.1668767" lon="13.1850633"><ele>766.0</ele><time>2026-05-02T08:08:16.981Z</time></trkpt><trkpt lat="43.1668083" lon="13.185185"><ele>765.0</ele><time>2026-05-02T08:08:18.982Z</time></trkpt><trkpt lat="43.1667567" lon="13.18524"><ele>764.0</ele><time>2026-05-02T08:08:19.981Z</time></trkpt><trkpt lat="43.1666583" lon="13.185345"><ele>763.0</ele><time>2026-05-02T08:08:21.982Z</time></trkpt><trkpt lat="43.1665983" lon="13.1854"><ele>762.0</ele><time>2026-05-02T08:08:22.983Z</time></trkpt><trkpt lat="43.1665317" lon="13.1854583"><ele>761.0</ele><time>2026-05-02T08:08:23.981Z</time></trkpt><trkpt lat="43.1664683" lon="13.1855133"><ele>760.0</ele><time>2026-05-02T08:08:24.983Z</time></trkpt><trkpt lat="43.1664133" lon="13.185565"><ele>760.0</ele><time>2026-05-02T08:08:25.985Z</time></trkpt><trkpt lat="43.1663567" lon="13.1856217"><ele>760.0</ele><time>2026-05-02T08:08:26.983Z</time></trkpt><trkpt lat="43.1662967" lon="13.1856817"><ele>760.0</ele><time>2026-05-02T08:08:27.983Z</time></trkpt><trkpt lat="43.1662217" lon="13.18575"><ele>760.0</ele><time>2026-05-02T08:08:28.981Z</time></trkpt><trkpt lat="43.16615" lon="13.1858017"><ele>760.0</ele><time>2026-05-02T08:08:29.983Z</time></trkpt><trkpt lat="43.1660917" lon="13.1858517"><ele>760.0</ele><time>2026-05-02T08:08:30.983Z</time></trkpt><trkpt lat="43.166035" lon="13.185895"><ele>760.0</ele><time>2026-05-02T08:08:31.982Z</time></trkpt><trkpt lat="43.1659367" lon="13.1859733"><ele>757.3333333333334</ele><time>2026-05-02T08:08:33.982Z</time></trkpt><trkpt lat="43.165845" lon="13.1860283"><ele>754.6666666666667</ele><time>2026-05-02T08:08:35.982Z</time></trkpt><trkpt lat="43.1657867" lon="13.186065"><ele>752.0</ele><time>2026-05-02T08:08:36.981Z</time></trkpt><trkpt lat="43.1657217" lon="13.1861067"><ele>749.3333333333334</ele><time>2026-05-02T08:08:37.982Z</time></trkpt><trkpt lat="43.1656583" lon="13.1861567"><ele>746.6666666666666</ele><time>2026-05-02T08:08:38.982Z</time></trkpt><trkpt lat="43.16558" lon="13.1862533"><ele>744.0</ele><time>2026-05-02T08:08:40.981Z</time></trkpt><trkpt lat="43.1655517" lon="13.186355"><ele>743.8000000000001</ele><time>2026-05-02T08:08:42.983Z</time></trkpt><trkpt lat="43.1655617" lon="13.18646"><ele>743.6</ele><time>2026-05-02T08:08:44.982Z</time></trkpt><trkpt lat="43.1656017" lon="13.18657"><ele>743.4</ele><time>2026-05-02T08:08:46.982Z</time></trkpt><trkpt lat="43.1656417" lon="13.1866683"><ele>743.2</ele><time>2026-05-02T08:08:48.983Z</time></trkpt><trkpt lat="43.1656867" lon="13.18678"><ele>743.0</ele><time>2026-05-02T08:08:50.982Z</time></trkpt><trkpt lat="43.1657417" lon="13.18692"><ele>739.8</ele><time>2026-05-02T08:08:52.982Z</time></trkpt><trkpt lat="43.165795" lon="13.1870567"><ele>736.5999999999999</ele><time>2026-05-02T08:08:54.983Z</time></trkpt><trkpt lat="43.1658283" lon="13.1871867"><ele>733.4000000000001</ele><time>2026-05-02T08:08:56.981Z</time></trkpt><trkpt lat="43.16579" lon="13.1872833"><ele>730.2</ele><time>2026-05-02T08:08:59.982Z</time></trkpt><trkpt lat="43.1657333" lon="13.18734"><ele>727.0</ele><time>2026-05-02T08:09:01.983Z</time></trkpt><trkpt lat="43.1656467" lon="13.1874417"><ele>724.6666666666667</ele><time>2026-05-02T08:09:03.983Z</time></trkpt><trkpt lat="43.1655917" lon="13.1875033"><ele>722.3333333333334</ele><time>2026-05-02T08:09:04.981Z</time></trkpt><trkpt lat="43.16552" lon="13.187585"><ele>720.0</ele><time>2026-05-02T08:09:05.983Z</time></trkpt><trkpt lat="43.1654733" lon="13.18765"><ele>717.6666666666666</ele><time>2026-05-02T08:09:06.982Z</time></trkpt><trkpt lat="43.165425" lon="13.1877117"><ele>715.3333333333333</ele><time>2026-05-02T08:09:07.983Z</time></trkpt><trkpt lat="43.1653483" lon="13.1877917"><ele>713.0</ele><time>2026-05-02T08:09:09.982Z</time></trkpt><trkpt lat="43.1652667" lon="13.1878567"><ele>713.0</ele><time>2026-05-02T08:09:11.982Z</time></trkpt><trkpt lat="43.165185" lon="13.1879167"><ele>713.0</ele><time>2026-05-02T08:09:13.982Z</time></trkpt><trkpt lat="43.1650817" lon="13.1879983"><ele>713.0</ele><time>2026-05-02T08:09:15.982Z</time></trkpt><trkpt lat="43.16502" lon="13.18804"><ele>713.0</ele><time>2026-05-02T08:09:16.983Z</time></trkpt><trkpt lat="43.1649533" lon="13.1880867"><ele>713.0</ele><time>2026-05-02T08:09:17.982Z</time></trkpt><trkpt lat="43.1648917" lon="13.1881317"><ele>713.0</ele><time>2026-05-02T08:09:18.982Z</time></trkpt><trkpt lat="43.1647783" lon="13.188215"><ele>709.2857142857142</ele><time>2026-05-02T08:09:20.983Z</time></trkpt><trkpt lat="43.16472" lon="13.1882533"><ele>705.5714285714287</ele><time>2026-05-02T08:09:21.981Z</time></trkpt><trkpt lat="43.1646583" lon="13.1882867"><ele>701.8571428571429</ele><time>2026-05-02T08:09:22.982Z</time></trkpt><trkpt lat="43.16459" lon="13.188335"><ele>698.1428571428571</ele><time>2026-05-02T08:09:23.982Z</time></trkpt><trkpt lat="43.1645217" lon="13.1883867"><ele>694.4285714285713</ele><time>2026-05-02T08:09:24.983Z</time></trkpt><trkpt lat="43.1644533" lon="13.188445"><ele>690.7142857142858</ele><time>2026-05-02T08:09:25.982Z</time></trkpt><trkpt lat="43.1643983" lon="13.1884883"><ele>687.0</ele><time>2026-05-02T08:09:26.983Z</time></trkpt><trkpt lat="43.1643383" lon="13.1885267"><ele>687.0</ele><time>2026-05-02T08:09:27.982Z</time></trkpt><trkpt lat="43.1642717" lon="13.1885667"><ele>687.0</ele><time>2026-05-02T08:09:28.982Z</time></trkpt><trkpt lat="43.1642117" lon="13.1886"><ele>687.0</ele><time>2026-05-02T08:09:29.982Z</time></trkpt><trkpt lat="43.1641017" lon="13.1886817"><ele>687.0</ele><time>2026-05-02T08:09:31.983Z</time></trkpt><trkpt lat="43.16404" lon="13.1887433"><ele>687.0</ele><time>2026-05-02T08:09:32.983Z</time></trkpt><trkpt lat="43.1639817" lon="13.1888117"><ele>687.0</ele><time>2026-05-02T08:09:33.982Z</time></trkpt><trkpt lat="43.1639183" lon="13.188875"><ele>686.1666666666666</ele><time>2026-05-02T08:09:34.985Z</time></trkpt><trkpt lat="43.1637983" lon="13.18897"><ele>685.3333333333334</ele><time>2026-05-02T08:09:36.983Z</time></trkpt><trkpt lat="43.163725" lon="13.18902"><ele>684.5</ele><time>2026-05-02T08:09:37.982Z</time></trkpt><trkpt lat="43.16366" lon="13.18906"><ele>683.6666666666667</ele><time>2026-05-02T08:09:38.983Z</time></trkpt><trkpt lat="43.1635883" lon="13.1891083"><ele>682.8333333333334</ele><time>2026-05-02T08:09:39.983Z</time></trkpt><trkpt lat="43.163525" lon="13.1891533"><ele>682.0</ele><time>2026-05-02T08:09:40.982Z</time></trkpt><trkpt lat="43.1634633" lon="13.1892033"><ele>679.2</ele><time>2026-05-02T08:09:41.983Z</time></trkpt><trkpt lat="43.16336" lon="13.1893"><ele>676.4000000000001</ele><time>2026-05-02T08:09:43.983Z</time></trkpt><trkpt lat="43.1633267" lon="13.1894083"><ele>673.5999999999999</ele><time>2026-05-02T08:09:45.983Z</time></trkpt><trkpt lat="43.163355" lon="13.1895117"><ele>670.8</ele><time>2026-05-02T08:09:47.983Z</time></trkpt><trkpt lat="43.1634133" lon="13.1896333"><ele>668.0</ele><time>2026-05-02T08:09:49.983Z</time></trkpt><trkpt lat="43.163485" lon="13.189755"><ele>668.0</ele><time>2026-05-02T08:09:51.982Z</time></trkpt><trkpt lat="43.1635783" lon="13.1898333"><ele>668.0</ele><time>2026-05-02T08:09:53.982Z</time></trkpt><trkpt lat="43.1636817" lon="13.1898767"><ele>668.0</ele><time>2026-05-02T08:09:55.982Z</time></trkpt><trkpt lat="43.1637817" lon="13.1899383"><ele>668.0</ele><time>2026-05-02T08:09:57.983Z</time></trkpt><trkpt lat="43.1638317" lon="13.1899917"><ele>668.0</ele><time>2026-05-02T08:09:58.982Z</time></trkpt><trkpt lat="43.1639333" lon="13.1901067"><ele>665.4</ele><time>2026-05-02T08:10:00.982Z</time></trkpt><trkpt lat="43.1639833" lon="13.1901633"><ele>662.8</ele><time>2026-05-02T08:10:01.983Z</time></trkpt><trkpt lat="43.1640817" lon="13.1902617"><ele>660.2</ele><time>2026-05-02T08:10:03.982Z</time></trkpt><trkpt lat="43.16418" lon="13.190345"><ele>657.6</ele><time>2026-05-02T08:10:05.983Z</time></trkpt><trkpt lat="43.164285" lon="13.19043"><ele>655.0</ele><time>2026-05-02T08:10:07.983Z</time></trkpt><trkpt lat="43.1643467" lon="13.1904717"><ele>655.0</ele><time>2026-05-02T08:10:08.983Z</time></trkpt><trkpt lat="43.164415" lon="13.1905233"><ele>655.0</ele><time>2026-05-02T08:10:09.982Z</time></trkpt><trkpt lat="43.16448" lon="13.1905767"><ele>655.0</ele><time>2026-05-02T08:10:10.982Z</time></trkpt><trkpt lat="43.1645483" lon="13.19063"><ele>655.0</ele><time>2026-05-02T08:10:11.983Z</time></trkpt><trkpt lat="43.1646117" lon="13.19068"><ele>655.0</ele><time>2026-05-02T08:10:12.982Z</time></trkpt><trkpt lat="43.1646717" lon="13.190725"><ele>655.0</ele><time>2026-05-02T08:10:13.982Z</time></trkpt><trkpt lat="43.1647333" lon="13.190765"><ele>655.0</ele><time>2026-05-02T08:10:14.982Z</time></trkpt><trkpt lat="43.1647983" lon="13.1908083"><ele>651.4285714285714</ele><time>2026-05-02T08:10:15.982Z</time></trkpt><trkpt lat="43.164865" lon="13.1908583"><ele>647.8571428571429</ele><time>2026-05-02T08:10:16.983Z</time></trkpt><trkpt lat="43.1649333" lon="13.1909117"><ele>644.2857142857142</ele><time>2026-05-02T08:10:17.983Z</time></trkpt><trkpt lat="43.1649967" lon="13.190965"><ele>640.7142857142858</ele><time>2026-05-02T08:10:18.982Z</time></trkpt><trkpt lat="43.16505" lon="13.191015"><ele>637.1428571428571</ele><time>2026-05-02T08:10:19.983Z</time></trkpt><trkpt lat="43.1651117" lon="13.19107"><ele>633.5714285714286</ele><time>2026-05-02T08:10:20.982Z</time></trkpt><trkpt lat="43.16517" lon="13.1911217"><ele>630.0</ele><time>2026-05-02T08:10:21.982Z</time></trkpt><trkpt lat="43.1652633" lon="13.1911917"><ele>630.0</ele><time>2026-05-02T08:10:23.984Z</time></trkpt><trkpt lat="43.1653767" lon="13.1912733"><ele>630.0</ele><time>2026-05-02T08:10:25.982Z</time></trkpt><trkpt lat="43.1654383" lon="13.1913067"><ele>630.0</ele><time>2026-05-02T08:10:26.983Z</time></trkpt><trkpt lat="43.16556" lon="13.191365"><ele>630.0</ele><time>2026-05-02T08:10:28.982Z</time></trkpt><trkpt lat="43.16567" lon="13.1914083"><ele>630.0</ele><time>2026-05-02T08:10:30.983Z</time></trkpt><trkpt lat="43.1657883" lon="13.19146"><ele>630.0</ele><time>2026-05-02T08:10:32.984Z</time></trkpt><trkpt lat="43.16585" lon="13.1914833"><ele>630.0</ele><time>2026-05-02T08:10:33.983Z</time></trkpt><trkpt lat="43.1659683" lon="13.19155"><ele>630.0</ele><time>2026-05-02T08:10:35.983Z</time></trkpt><trkpt lat="43.16603" lon="13.19159"><ele>630.0</ele><time>2026-05-02T08:10:36.983Z</time></trkpt><trkpt lat="43.16614" lon="13.1916733"><ele>630.0</ele><time>2026-05-02T08:10:38.981Z</time></trkpt><trkpt lat="43.1662033" lon="13.191705"><ele>623.6</ele><time>2026-05-02T08:10:39.982Z</time></trkpt><trkpt lat="43.166305" lon="13.191725"><ele>617.2</ele><time>2026-05-02T08:10:41.981Z</time></trkpt><trkpt lat="43.166395" lon="13.19177"><ele>610.8</ele><time>2026-05-02T08:10:43.982Z</time></trkpt><trkpt lat="43.1664617" lon="13.1918083"><ele>604.4</ele><time>2026-05-02T08:10:44.981Z</time></trkpt><trkpt lat="43.1665433" lon="13.19185"><ele>598.0</ele><time>2026-05-02T08:10:45.982Z</time></trkpt><trkpt lat="43.1666417" lon="13.191885"><ele>597.1999999999999</ele><time>2026-05-02T08:10:46.981Z</time></trkpt><trkpt lat="43.16674" lon="13.1919117"><ele>596.4</ele><time>2026-05-02T08:10:47.982Z</time></trkpt><trkpt lat="43.1668333" lon="13.1919283"><ele>595.5999999999999</ele><time>2026-05-02T08:10:48.981Z</time></trkpt><trkpt lat="43.166935" lon="13.191935"><ele>594.8</ele><time>2026-05-02T08:10:49.982Z</time></trkpt><trkpt lat="43.1670283" lon="13.191935"><ele>594.0</ele><time>2026-05-02T08:10:50.981Z</time></trkpt><trkpt lat="43.1671217" lon="13.191935"><ele>594.0</ele><time>2026-05-02T08:10:51.981Z</time></trkpt><trkpt lat="43.1672183" lon="13.1919367"><ele>594.0</ele><time>2026-05-02T08:10:52.983Z</time></trkpt><trkpt lat="43.167325" lon="13.1919383"><ele>594.0</ele><time>2026-05-02T08:10:53.981Z</time></trkpt><trkpt lat="43.1674233" lon="13.1919483"><ele>594.0</ele><time>2026-05-02T08:10:54.981Z</time></trkpt><trkpt lat="43.1675283" lon="13.1919633"><ele>594.0</ele><time>2026-05-02T08:10:55.982Z</time></trkpt><trkpt lat="43.1676317" lon="13.1919817"><ele>594.0</ele><time>2026-05-02T08:10:56.982Z</time></trkpt><trkpt lat="43.1677167" lon="13.1920067"><ele>594.0</ele><time>2026-05-02T08:10:57.981Z</time></trkpt><trkpt lat="43.1678017" lon="13.1920317"><ele>594.0</ele><time>2026-05-02T08:10:58.981Z</time></trkpt><trkpt lat="43.1678817" lon="13.1920717"><ele>594.0</ele><time>2026-05-02T08:10:59.982Z</time></trkpt><trkpt lat="43.1679667" lon="13.19213"><ele>594.0</ele><time>2026-05-02T08:11:00.982Z</time></trkpt><trkpt lat="43.16804" lon="13.1921917"><ele>594.0</ele><time>2026-05-02T08:11:01.982Z</time></trkpt><trkpt lat="43.1681133" lon="13.192255"><ele>594.0</ele><time>2026-05-02T08:11:02.982Z</time></trkpt><trkpt lat="43.1681867" lon="13.192305"><ele>594.0</ele><time>2026-05-02T08:11:03.982Z</time></trkpt><trkpt lat="43.168265" lon="13.1923533"><ele>594.0</ele><time>2026-05-02T08:11:04.982Z</time></trkpt><trkpt lat="43.168345" lon="13.192405"><ele>594.0</ele><time>2026-05-02T08:11:05.981Z</time></trkpt><trkpt lat="43.1684267" lon="13.1924517"><ele>594.0</ele><time>2026-05-02T08:11:06.981Z</time></trkpt><trkpt lat="43.168505" lon="13.1924967"><ele>594.0</ele><time>2026-05-02T08:11:07.982Z</time></trkpt><trkpt lat="43.1685833" lon="13.1925283"><ele>589.6</ele><time>2026-05-02T08:11:08.982Z</time></trkpt><trkpt lat="43.1686517" lon="13.1925517"><ele>585.2</ele><time>2026-05-02T08:11:09.981Z</time></trkpt><trkpt lat="43.1687367" lon="13.19258"><ele>580.8000000000001</ele><time>2026-05-02T08:11:10.981Z</time></trkpt><trkpt lat="43.1688367" lon="13.1926267"><ele>576.4</ele><time>2026-05-02T08:11:11.983Z</time></trkpt><trkpt lat="43.1689483" lon="13.1926883"><ele>572.0</ele><time>2026-05-02T08:11:12.981Z</time></trkpt><trkpt lat="43.1690517" lon="13.1927633"><ele>571.4</ele><time>2026-05-02T08:11:13.982Z</time></trkpt><trkpt lat="43.1691433" lon="13.192845"><ele>570.8000000000001</ele><time>2026-05-02T08:11:14.981Z</time></trkpt><trkpt lat="43.1692217" lon="13.192935"><ele>570.2</ele><time>2026-05-02T08:11:15.981Z</time></trkpt><trkpt lat="43.169285" lon="13.1930267"><ele>569.6</ele><time>2026-05-02T08:11:16.981Z</time></trkpt><trkpt lat="43.1693383" lon="13.1931267"><ele>569.0</ele><time>2026-05-02T08:11:17.981Z</time></trkpt><trkpt lat="43.1693783" lon="13.19323"><ele>568.6666666666666</ele><time>2026-05-02T08:11:18.982Z</time></trkpt><trkpt lat="43.1694133" lon="13.1933333"><ele>568.3333333333333</ele><time>2026-05-02T08:11:19.981Z</time></trkpt><trkpt lat="43.169445" lon="13.1934317"><ele>568.0</ele><time>2026-05-02T08:11:20.981Z</time></trkpt><trkpt lat="43.1694683" lon="13.19353"><ele>567.6666666666666</ele><time>2026-05-02T08:11:21.981Z</time></trkpt><trkpt lat="43.1694717" lon="13.193695"><ele>567.3333333333334</ele><time>2026-05-02T08:11:23.982Z</time></trkpt><trkpt lat="43.1694583" lon="13.19378"><ele>567.0</ele><time>2026-05-02T08:11:24.981Z</time></trkpt><trkpt lat="43.16943" lon="13.1939217"><ele>566.0</ele><time>2026-05-02T08:11:26.981Z</time></trkpt><trkpt lat="43.169375" lon="13.19405"><ele>565.0</ele><time>2026-05-02T08:11:28.982Z</time></trkpt><trkpt lat="43.1692933" lon="13.194165"><ele>564.0</ele><time>2026-05-02T08:11:30.981Z</time></trkpt><trkpt lat="43.1692283" lon="13.1942183"><ele>563.0</ele><time>2026-05-02T08:11:31.982Z</time></trkpt><trkpt lat="43.1691483" lon="13.1942767"><ele>562.0</ele><time>2026-05-02T08:11:32.983Z</time></trkpt><trkpt lat="43.16906" lon="13.1943267"><ele>559.6666666666667</ele><time>2026-05-02T08:11:33.982Z</time></trkpt><trkpt lat="43.1689717" lon="13.19437"><ele>557.3333333333334</ele><time>2026-05-02T08:11:34.981Z</time></trkpt><trkpt lat="43.1688817" lon="13.1944033"><ele>555.0</ele><time>2026-05-02T08:11:35.981Z</time></trkpt><trkpt lat="43.168795" lon="13.1944283"><ele>552.6666666666666</ele><time>2026-05-02T08:11:36.981Z</time></trkpt><trkpt lat="43.1687167" lon="13.1944567"><ele>550.3333333333333</ele><time>2026-05-02T08:11:37.981Z</time></trkpt><trkpt lat="43.1686567" lon="13.1944883"><ele>548.0</ele><time>2026-05-02T08:11:38.982Z</time></trkpt><trkpt lat="43.1686" lon="13.1945917"><ele>548.0</ele><time>2026-05-02T08:11:40.981Z</time></trkpt><trkpt lat="43.1686467" lon="13.1946967"><ele>548.0</ele><time>2026-05-02T08:11:42.981Z</time></trkpt><trkpt lat="43.1687683" lon="13.19471"><ele>548.0</ele><time>2026-05-02T08:11:44.982Z</time></trkpt><trkpt lat="43.1688433" lon="13.1946867"><ele>548.0</ele><time>2026-05-02T08:11:45.981Z</time></trkpt><trkpt lat="43.1689217" lon="13.19466"><ele>548.0</ele><time>2026-05-02T08:11:46.981Z</time></trkpt><trkpt lat="43.1690083" lon="13.19464"><ele>550.8</ele><time>2026-05-02T08:11:47.982Z</time></trkpt><trkpt lat="43.169105" lon="13.1946417"><ele>553.5999999999999</ele><time>2026-05-02T08:11:48.982Z</time></trkpt><trkpt lat="43.1692033" lon="13.194665"><ele>556.4000000000001</ele><time>2026-05-02T08:11:49.984Z</time></trkpt><trkpt lat="43.1692983" lon="13.1947"><ele>559.2</ele><time>2026-05-02T08:11:50.983Z</time></trkpt><trkpt lat="43.169395" lon="13.1947483"><ele>562.0</ele><time>2026-05-02T08:11:51.982Z</time></trkpt><trkpt lat="43.16949" lon="13.194805"><ele>560.6666666666667</ele><time>2026-05-02T08:11:52.981Z</time></trkpt><trkpt lat="43.1695767" lon="13.1948733"><ele>559.3333333333334</ele><time>2026-05-02T08:11:53.982Z</time></trkpt><trkpt lat="43.169645" lon="13.1949517"><ele>558.0</ele><time>2026-05-02T08:11:54.981Z</time></trkpt><trkpt lat="43.1697067" lon="13.1950283"><ele>556.6666666666666</ele><time>2026-05-02T08:11:55.982Z</time></trkpt><trkpt lat="43.1697683" lon="13.19511"><ele>555.3333333333333</ele><time>2026-05-02T08:11:56.981Z</time></trkpt><trkpt lat="43.16984" lon="13.1951817"><ele>554.0</ele><time>2026-05-02T08:11:57.981Z</time></trkpt><trkpt lat="43.1699167" lon="13.1952367"><ele>554.0</ele><time>2026-05-02T08:11:58.982Z</time></trkpt><trkpt lat="43.1700017" lon="13.1952667"><ele>554.0</ele><time>2026-05-02T08:11:59.981Z</time></trkpt><trkpt lat="43.170085" lon="13.195275"><ele>554.0</ele><time>2026-05-02T08:12:00.983Z</time></trkpt><trkpt lat="43.1701767" lon="13.1952583"><ele>554.0</ele><time>2026-05-02T08:12:01.981Z</time></trkpt><trkpt lat="43.1702733" lon="13.1952283"><ele>554.0</ele><time>2026-05-02T08:12:02.981Z</time></trkpt><trkpt lat="43.1703583" lon="13.1952033"><ele>554.0</ele><time>2026-05-02T08:12:03.982Z</time></trkpt><trkpt lat="43.1704333" lon="13.1951933"><ele>554.0</ele><time>2026-05-02T08:12:04.982Z</time></trkpt><trkpt lat="43.17051" lon="13.1952383"><ele>554.0</ele><time>2026-05-02T08:12:06.981Z</time></trkpt><trkpt lat="43.1704883" lon="13.1953467"><ele>554.0</ele><time>2026-05-02T08:12:08.981Z</time></trkpt><trkpt lat="43.1704367" lon="13.1954133"><ele>554.0</ele><time>2026-05-02T08:12:09.981Z</time></trkpt><trkpt lat="43.17037" lon="13.1954967"><ele>554.0</ele><time>2026-05-02T08:12:10.981Z</time></trkpt><trkpt lat="43.1703117" lon="13.1955867"><ele>550.8333333333333</ele><time>2026-05-02T08:12:11.981Z</time></trkpt><trkpt lat="43.1702667" lon="13.1956717"><ele>547.6666666666666</ele><time>2026-05-02T08:12:12.981Z</time></trkpt><trkpt lat="43.1702267" lon="13.1957633"><ele>544.5</ele><time>2026-05-02T08:12:13.982Z</time></trkpt><trkpt lat="43.170195" lon="13.195855"><ele>541.3333333333334</ele><time>2026-05-02T08:12:14.981Z</time></trkpt><trkpt lat="43.1701733" lon="13.1959417"><ele>538.1666666666667</ele><time>2026-05-02T08:12:15.982Z</time></trkpt><trkpt lat="43.170185" lon="13.19607"><ele>535.0</ele><time>2026-05-02T08:12:17.982Z</time></trkpt><trkpt lat="43.1702617" lon="13.19614"><ele>535.0</ele><time>2026-05-02T08:12:19.982Z</time></trkpt><trkpt lat="43.1703317" lon="13.1961817"><ele>535.0</ele><time>2026-05-02T08:12:21.983Z</time></trkpt><trkpt lat="43.1702767" lon="13.1962483"><ele>535.0</ele><time>2026-05-02T08:12:34.982Z</time></trkpt><trkpt lat="43.1701433" lon="13.1961933"><ele>535.0</ele><time>2026-05-02T08:12:36.982Z</time></trkpt><trkpt lat="43.1700617" lon="13.1961683"><ele>535.0</ele><time>2026-05-02T08:12:37.982Z</time></trkpt><trkpt lat="43.1699733" lon="13.1961367"><ele>535.0</ele><time>2026-05-02T08:12:38.981Z</time></trkpt><trkpt lat="43.16988" lon="13.1961083"><ele>535.0</ele><time>2026-05-02T08:12:39.984Z</time></trkpt><trkpt lat="43.1697817" lon="13.19608"><ele>535.0</ele><time>2026-05-02T08:12:40.981Z</time></trkpt><trkpt lat="43.1696783" lon="13.19606"><ele>535.0</ele><time>2026-05-02T08:12:41.982Z</time></trkpt><trkpt lat="43.1695767" lon="13.1960367"><ele>535.0</ele><time>2026-05-02T08:12:42.982Z</time></trkpt><trkpt lat="43.1694717" lon="13.1960133"><ele>534.4</ele><time>2026-05-02T08:12:43.981Z</time></trkpt><trkpt lat="43.1693667" lon="13.195995"><ele>533.8</ele><time>2026-05-02T08:12:44.982Z</time></trkpt><trkpt lat="43.1692583" lon="13.1959817"><ele>533.2</ele><time>2026-05-02T08:12:45.982Z</time></trkpt><trkpt lat="43.169145" lon="13.19597"><ele>532.6</ele><time>2026-05-02T08:12:46.982Z</time></trkpt><trkpt lat="43.169025" lon="13.195965"><ele>532.0</ele><time>2026-05-02T08:12:47.982Z</time></trkpt><trkpt lat="43.1688983" lon="13.1959683"><ele>530.25</ele><time>2026-05-02T08:12:48.982Z</time></trkpt><trkpt lat="43.1687667" lon="13.195965"><ele>528.5</ele><time>2026-05-02T08:12:49.983Z</time></trkpt><trkpt lat="43.16863" lon="13.195955"><ele>526.75</ele><time>2026-05-02T08:12:50.981Z</time></trkpt><trkpt lat="43.1684933" lon="13.19593"><ele>525.0</ele><time>2026-05-02T08:12:51.982Z</time></trkpt><trkpt lat="43.1683583" lon="13.1958917"><ele>525.0</ele><time>2026-05-02T08:12:52.983Z</time></trkpt><trkpt lat="43.1682283" lon="13.1958433"><ele>525.0</ele><time>2026-05-02T08:12:53.982Z</time></trkpt><trkpt lat="43.1681067" lon="13.1957933"><ele>525.0</ele><time>2026-05-02T08:12:54.981Z</time></trkpt><trkpt lat="43.16799" lon="13.1957483"><ele>525.0</ele><time>2026-05-02T08:12:55.982Z</time></trkpt><trkpt lat="43.1678733" lon="13.1957067"><ele>525.0</ele><time>2026-05-02T08:12:56.981Z</time></trkpt><trkpt lat="43.1677583" lon="13.1956683"><ele>525.0</ele><time>2026-05-02T08:12:57.981Z</time></trkpt><trkpt lat="43.16764" lon="13.195645"><ele>525.0</ele><time>2026-05-02T08:12:58.982Z</time></trkpt><trkpt lat="43.1675183" lon="13.195625"><ele>525.0</ele><time>2026-05-02T08:12:59.982Z</time></trkpt><trkpt lat="43.1673983" lon="13.1956017"><ele>523.5</ele><time>2026-05-02T08:13:00.982Z</time></trkpt><trkpt lat="43.167275" lon="13.19557"><ele>522.0</ele><time>2026-05-02T08:13:01.981Z</time></trkpt><trkpt lat="43.1671467" lon="13.1955367"><ele>520.5</ele><time>2026-05-02T08:13:02.982Z</time></trkpt><trkpt lat="43.1670133" lon="13.1955083"><ele>519.0</ele><time>2026-05-02T08:13:03.981Z</time></trkpt><trkpt lat="43.16688" lon="13.1954933"><ele>519.0</ele><time>2026-05-02T08:13:04.981Z</time></trkpt><trkpt lat="43.1667533" lon="13.1954833"><ele>519.0</ele><time>2026-05-02T08:13:05.983Z</time></trkpt><trkpt lat="43.166635" lon="13.195475"><ele>519.0</ele><time>2026-05-02T08:13:06.983Z</time></trkpt><trkpt lat="43.166515" lon="13.1954683"><ele>519.0</ele><time>2026-05-02T08:13:07.982Z</time></trkpt><trkpt lat="43.166395" lon="13.1954633"><ele>519.25</ele><time>2026-05-02T08:13:08.982Z</time></trkpt><trkpt lat="43.1662733" lon="13.1954583"><ele>519.5</ele><time>2026-05-02T08:13:09.983Z</time></trkpt><trkpt lat="43.1661483" lon="13.19545"><ele>519.75</ele><time>2026-05-02T08:13:10.982Z</time></trkpt><trkpt lat="43.1660183" lon="13.1954417"><ele>520.0</ele><time>2026-05-02T08:13:11.982Z</time></trkpt><trkpt lat="43.1658883" lon="13.19543"><ele>520.0</ele><time>2026-05-02T08:13:12.982Z</time></trkpt><trkpt lat="43.1657567" lon="13.1954183"><ele>520.0</ele><time>2026-05-02T08:13:13.982Z</time></trkpt><trkpt lat="43.165625" lon="13.1954067"><ele>520.0</ele><time>2026-05-02T08:13:14.983Z</time></trkpt><trkpt lat="43.165495" lon="13.1953967"><ele>520.0</ele><time>2026-05-02T08:13:15.983Z</time></trkpt><trkpt lat="43.1653583" lon="13.1954017"><ele>519.75</ele><time>2026-05-02T08:13:16.981Z</time></trkpt><trkpt lat="43.165225" lon="13.1954383"><ele>519.5</ele><time>2026-05-02T08:13:17.983Z</time></trkpt><trkpt lat="43.1651017" lon="13.1955033"><ele>519.25</ele><time>2026-05-02T08:13:18.983Z</time></trkpt><trkpt lat="43.164975" lon="13.19558"><ele>519.0</ele><time>2026-05-02T08:13:19.983Z</time></trkpt><trkpt lat="43.1648533" lon="13.1956533"><ele>514.5</ele><time>2026-05-02T08:13:20.983Z</time></trkpt><trkpt lat="43.1647283" lon="13.195705"><ele>510.0</ele><time>2026-05-02T08:13:21.983Z</time></trkpt><trkpt lat="43.164595" lon="13.1957267"><ele>505.5</ele><time>2026-05-02T08:13:22.983Z</time></trkpt><trkpt lat="43.1644517" lon="13.1957283"><ele>501.0</ele><time>2026-05-02T08:13:23.983Z</time></trkpt><trkpt lat="43.1643083" lon="13.1957083"><ele>501.0</ele><time>2026-05-02T08:13:24.983Z</time></trkpt><trkpt lat="43.1641633" lon="13.19569"><ele>501.0</ele><time>2026-05-02T08:13:25.982Z</time></trkpt><trkpt lat="43.164025" lon="13.195665"><ele>501.0</ele><time>2026-05-02T08:13:26.983Z</time></trkpt><trkpt lat="43.1638967" lon="13.1956417"><ele>501.0</ele><time>2026-05-02T08:13:27.983Z</time></trkpt><trkpt lat="43.1637717" lon="13.19564"><ele>500.0</ele><time>2026-05-02T08:13:28.983Z</time></trkpt><trkpt lat="43.16365" lon="13.195665"><ele>499.0</ele><time>2026-05-02T08:13:29.984Z</time></trkpt><trkpt lat="43.16353" lon="13.1957267"><ele>498.0</ele><time>2026-05-02T08:13:30.983Z</time></trkpt><trkpt lat="43.1634067" lon="13.19583"><ele>497.0</ele><time>2026-05-02T08:13:31.982Z</time></trkpt><trkpt lat="43.1632817" lon="13.1959517"><ele>497.75</ele><time>2026-05-02T08:13:32.983Z</time></trkpt><trkpt lat="43.1631533" lon="13.1960683"><ele>498.5</ele><time>2026-05-02T08:13:33.981Z</time></trkpt><trkpt lat="43.1630317" lon="13.196175"><ele>499.25</ele><time>2026-05-02T08:13:34.982Z</time></trkpt><trkpt lat="43.1629167" lon="13.1962517"><ele>500.0</ele><time>2026-05-02T08:13:35.983Z</time></trkpt><trkpt lat="43.1627967" lon="13.1962967"><ele>500.0</ele><time>2026-05-02T08:13:36.982Z</time></trkpt><trkpt lat="43.16266" lon="13.196305"><ele>500.0</ele><time>2026-05-02T08:13:37.982Z</time></trkpt><trkpt lat="43.1625117" lon="13.19627"><ele>500.0</ele><time>2026-05-02T08:13:38.983Z</time></trkpt><trkpt lat="43.1623467" lon="13.1961967"><ele>495.66666666666663</ele><time>2026-05-02T08:13:39.982Z</time></trkpt><trkpt lat="43.1621567" lon="13.196105"><ele>491.33333333333337</ele><time>2026-05-02T08:13:40.981Z</time></trkpt><trkpt lat="43.1619617" lon="13.1960133"><ele>487.0</ele><time>2026-05-02T08:13:41.981Z</time></trkpt><trkpt lat="43.1617783" lon="13.1959417"><ele>487.0</ele><time>2026-05-02T08:13:42.982Z</time></trkpt><trkpt lat="43.1616067" lon="13.1958717"><ele>487.0</ele><time>2026-05-02T08:13:43.982Z</time></trkpt><trkpt lat="43.1614433" lon="13.1958083"><ele>487.0</ele><time>2026-05-02T08:13:44.983Z</time></trkpt><trkpt lat="43.1612917" lon="13.1957317"><ele>482.5</ele><time>2026-05-02T08:13:45.982Z</time></trkpt><trkpt lat="43.161155" lon="13.19563"><ele>478.0</ele><time>2026-05-02T08:13:46.982Z</time></trkpt><trkpt lat="43.1610417" lon="13.1955033"><ele>473.5</ele><time>2026-05-02T08:13:47.983Z</time></trkpt><trkpt lat="43.160965" lon="13.195365"><ele>469.0</ele><time>2026-05-02T08:13:48.982Z</time></trkpt><trkpt lat="43.160935" lon="13.195205"><ele>469.0</ele><time>2026-05-02T08:13:49.982Z</time></trkpt><trkpt lat="43.1609567" lon="13.1950333"><ele>469.0</ele><time>2026-05-02T08:13:50.982Z</time></trkpt><trkpt lat="43.1610067" lon="13.1948867"><ele>469.0</ele><time>2026-05-02T08:13:51.982Z</time></trkpt><trkpt lat="43.1610417" lon="13.1947617"><ele>469.0</ele><time>2026-05-02T08:13:52.981Z</time></trkpt><trkpt lat="43.16104" lon="13.19464"><ele>469.0</ele><time>2026-05-02T08:13:53.983Z</time></trkpt><trkpt lat="43.1610117" lon="13.1945183"><ele>468.25</ele><time>2026-05-02T08:13:54.982Z</time></trkpt><trkpt lat="43.16093" lon="13.19438"><ele>467.5</ele><time>2026-05-02T08:13:55.983Z</time></trkpt><trkpt lat="43.160845" lon="13.1942433"><ele>466.75</ele><time>2026-05-02T08:13:56.982Z</time></trkpt><trkpt lat="43.1607717" lon="13.194115"><ele>466.0</ele><time>2026-05-02T08:13:57.981Z</time></trkpt><trkpt lat="43.1606917" lon="13.194015"><ele>472.5</ele><time>2026-05-02T08:13:58.982Z</time></trkpt><trkpt lat="43.1606033" lon="13.19395"><ele>479.0</ele><time>2026-05-02T08:13:59.982Z</time></trkpt><trkpt lat="43.16048" lon="13.1939433"><ele>485.5</ele><time>2026-05-02T08:14:00.983Z</time></trkpt><trkpt lat="43.1603417" lon="13.1939533"><ele>492.0</ele><time>2026-05-02T08:14:01.981Z</time></trkpt><trkpt lat="43.1601917" lon="13.1939183"><ele>492.0</ele><time>2026-05-02T08:14:02.983Z</time></trkpt><trkpt lat="43.1600517" lon="13.1938267"><ele>492.0</ele><time>2026-05-02T08:14:03.981Z</time></trkpt><trkpt lat="43.1599133" lon="13.1937033"><ele>492.0</ele><time>2026-05-02T08:14:04.982Z</time></trkpt><trkpt lat="43.1597767" lon="13.1935633"><ele>485.66666666666663</ele><time>2026-05-02T08:14:05.981Z</time></trkpt><trkpt lat="43.1596267" lon="13.19343"><ele>479.3333333333333</ele><time>2026-05-02T08:14:06.981Z</time></trkpt><trkpt lat="43.1594667" lon="13.19331"><ele>473.0</ele><time>2026-05-02T08:14:07.983Z</time></trkpt><trkpt lat="43.15931" lon="13.193215"><ele>477.0</ele><time>2026-05-02T08:14:08.983Z</time></trkpt><trkpt lat="43.1591717" lon="13.193135"><ele>481.0</ele><time>2026-05-02T08:14:09.983Z</time></trkpt><trkpt lat="43.1590517" lon="13.1930783"><ele>485.0</ele><time>2026-05-02T08:14:10.982Z</time></trkpt><trkpt lat="43.1589433" lon="13.1930533"><ele>489.0</ele><time>2026-05-02T08:14:11.982Z</time></trkpt><trkpt lat="43.1588283" lon="13.1930867"><ele>489.25</ele><time>2026-05-02T08:14:12.982Z</time></trkpt><trkpt lat="43.1587217" lon="13.193175"><ele>489.5</ele><time>2026-05-02T08:14:13.982Z</time></trkpt><trkpt lat="43.1586117" lon="13.193285"><ele>489.75</ele><time>2026-05-02T08:14:14.983Z</time></trkpt><trkpt lat="43.1585033" lon="13.1934033"><ele>490.0</ele><time>2026-05-02T08:14:15.983Z</time></trkpt><trkpt lat="43.1584" lon="13.19353"><ele>490.0</ele><time>2026-05-02T08:14:16.982Z</time></trkpt><trkpt lat="43.1583017" lon="13.19367"><ele>490.0</ele><time>2026-05-02T08:14:17.982Z</time></trkpt><trkpt lat="43.1582233" lon="13.1938317"><ele>490.0</ele><time>2026-05-02T08:14:18.983Z</time></trkpt><trkpt lat="43.1581717" lon="13.1940233"><ele>490.0</ele><time>2026-05-02T08:14:19.982Z</time></trkpt><trkpt lat="43.1581467" lon="13.1942483"><ele>485.33333333333337</ele><time>2026-05-02T08:14:20.982Z</time></trkpt><trkpt lat="43.1581417" lon="13.1944933"><ele>480.66666666666663</ele><time>2026-05-02T08:14:21.983Z</time></trkpt><trkpt lat="43.1581767" lon="13.1947517"><ele>476.0</ele><time>2026-05-02T08:14:22.982Z</time></trkpt><trkpt lat="43.1582217" lon="13.1950183"><ele>476.0</ele><time>2026-05-02T08:14:23.981Z</time></trkpt><trkpt lat="43.15826" lon="13.195295"><ele>476.0</ele><time>2026-05-02T08:14:24.982Z</time></trkpt><trkpt lat="43.1582933" lon="13.1955617"><ele>476.0</ele><time>2026-05-02T08:14:25.983Z</time></trkpt><trkpt lat="43.15832" lon="13.1957967"><ele>476.75</ele><time>2026-05-02T08:14:26.982Z</time></trkpt><trkpt lat="43.1583433" lon="13.1959967"><ele>477.5</ele><time>2026-05-02T08:14:27.983Z</time></trkpt><trkpt lat="43.1583617" lon="13.1961633"><ele>478.25</ele><time>2026-05-02T08:14:28.982Z</time></trkpt><trkpt lat="43.15834" lon="13.1963033"><ele>479.0</ele><time>2026-05-02T08:14:29.982Z</time></trkpt><trkpt lat="43.1582767" lon="13.1964167"><ele>481.3333333333333</ele><time>2026-05-02T08:14:30.981Z</time></trkpt><trkpt lat="43.15817" lon="13.1965083"><ele>483.66666666666663</ele><time>2026-05-02T08:14:31.982Z</time></trkpt><trkpt lat="43.158015" lon="13.196575"><ele>486.0</ele><time>2026-05-02T08:14:32.983Z</time></trkpt><trkpt lat="43.1578433" lon="13.1966133"><ele>486.0</ele><time>2026-05-02T08:14:33.983Z</time></trkpt><trkpt lat="43.1576467" lon="13.1966517"><ele>486.0</ele><time>2026-05-02T08:14:34.983Z</time></trkpt><trkpt lat="43.1574467" lon="13.19669"><ele>486.0</ele><time>2026-05-02T08:14:35.983Z</time></trkpt><trkpt lat="43.1572633" lon="13.1967333"><ele>488.0</ele><time>2026-05-02T08:14:36.982Z</time></trkpt><trkpt lat="43.1570917" lon="13.1967833"><ele>490.0</ele><time>2026-05-02T08:14:37.982Z</time></trkpt><trkpt lat="43.1569317" lon="13.1968267"><ele>492.0</ele><time>2026-05-02T08:14:38.982Z</time></trkpt><trkpt lat="43.1567883" lon="13.1968633"><ele>492.0</ele><time>2026-05-02T08:14:39.982Z</time></trkpt><trkpt lat="43.1566417" lon="13.196895"><ele>492.0</ele><time>2026-05-02T08:14:40.982Z</time></trkpt><trkpt lat="43.1565" lon="13.19692"><ele>492.0</ele><time>2026-05-02T08:14:41.982Z</time></trkpt><trkpt lat="43.1563683" lon="13.19694"><ele>492.0</ele><time>2026-05-02T08:14:42.982Z</time></trkpt><trkpt lat="43.1562367" lon="13.1969383"><ele>491.0</ele><time>2026-05-02T08:14:43.983Z</time></trkpt><trkpt lat="43.1561017" lon="13.1969117"><ele>490.0</ele><time>2026-05-02T08:14:44.983Z</time></trkpt><trkpt lat="43.1559633" lon="13.1968733"><ele>489.0</ele><time>2026-05-02T08:14:45.983Z</time></trkpt><trkpt lat="43.1558267" lon="13.1968333"><ele>488.0</ele><time>2026-05-02T08:14:46.983Z</time></trkpt><trkpt lat="43.155695" lon="13.1968017"><ele>486.25</ele><time>2026-05-02T08:14:47.983Z</time></trkpt><trkpt lat="43.155565" lon="13.19678"><ele>484.5</ele><time>2026-05-02T08:14:48.982Z</time></trkpt><trkpt lat="43.1554367" lon="13.19676"><ele>482.75</ele><time>2026-05-02T08:14:49.982Z</time></trkpt><trkpt lat="43.1553067" lon="13.19674"><ele>481.0</ele><time>2026-05-02T08:14:50.982Z</time></trkpt><trkpt lat="43.1551783" lon="13.19673"><ele>481.0</ele><time>2026-05-02T08:14:51.982Z</time></trkpt><trkpt lat="43.1550517" lon="13.1967383"><ele>481.0</ele><time>2026-05-02T08:14:52.982Z</time></trkpt><trkpt lat="43.154935" lon="13.1967667"><ele>481.0</ele><time>2026-05-02T08:14:53.982Z</time></trkpt><trkpt lat="43.15484" lon="13.1968333"><ele>481.0</ele><time>2026-05-02T08:14:54.983Z</time></trkpt><trkpt lat="43.154775" lon="13.1969367"><ele>480.0</ele><time>2026-05-02T08:14:55.984Z</time></trkpt><trkpt lat="43.1547433" lon="13.1970733"><ele>479.0</ele><time>2026-05-02T08:14:56.982Z</time></trkpt><trkpt lat="43.1547367" lon="13.1972433"><ele>478.0</ele><time>2026-05-02T08:14:57.983Z</time></trkpt><trkpt lat="43.1547417" lon="13.1974367"><ele>477.0</ele><time>2026-05-02T08:14:58.983Z</time></trkpt><trkpt lat="43.1547317" lon="13.1976483"><ele>473.0</ele><time>2026-05-02T08:14:59.983Z</time></trkpt><trkpt lat="43.1547083" lon="13.1978683"><ele>469.0</ele><time>2026-05-02T08:15:00.982Z</time></trkpt><trkpt lat="43.1546817" lon="13.1980917"><ele>465.0</ele><time>2026-05-02T08:15:01.983Z</time></trkpt><trkpt lat="43.1546533" lon="13.1983233"><ele>462.66666666666663</ele><time>2026-05-02T08:15:02.983Z</time></trkpt><trkpt lat="43.1546233" lon="13.198545"><ele>460.3333333333333</ele><time>2026-05-02T08:15:03.984Z</time></trkpt><trkpt lat="43.1545983" lon="13.1987533"><ele>458.0</ele><time>2026-05-02T08:15:04.983Z</time></trkpt><trkpt lat="43.1545667" lon="13.1989383"><ele>457.79999999999995</ele><time>2026-05-02T08:15:05.981Z</time></trkpt><trkpt lat="43.1545333" lon="13.1990967"><ele>457.59999999999997</ele><time>2026-05-02T08:15:06.982Z</time></trkpt><trkpt lat="43.1544833" lon="13.1992217"><ele>457.40000000000003</ele><time>2026-05-02T08:15:07.981Z</time></trkpt><trkpt lat="43.1544067" lon="13.199305"><ele>457.20000000000005</ele><time>2026-05-02T08:15:08.981Z</time></trkpt><trkpt lat="43.1543" lon="13.1993417"><ele>457.0</ele><time>2026-05-02T08:15:09.982Z</time></trkpt><trkpt lat="43.1541717" lon="13.1993617"><ele>454.25</ele><time>2026-05-02T08:15:10.981Z</time></trkpt><trkpt lat="43.1540267" lon="13.19939"><ele>451.5</ele><time>2026-05-02T08:15:11.982Z</time></trkpt><trkpt lat="43.1538767" lon="13.1994217"><ele>448.75</ele><time>2026-05-02T08:15:12.981Z</time></trkpt><trkpt lat="43.1537317" lon="13.19946"><ele>446.0</ele><time>2026-05-02T08:15:13.982Z</time></trkpt><trkpt lat="43.1535917" lon="13.1995117"><ele>446.0</ele><time>2026-05-02T08:15:14.981Z</time></trkpt><trkpt lat="43.1534617" lon="13.19958"><ele>446.0</ele><time>2026-05-02T08:15:15.982Z</time></trkpt><trkpt lat="43.1533467" lon="13.1996617"><ele>446.0</ele><time>2026-05-02T08:15:16.981Z</time></trkpt><trkpt lat="43.1532483" lon="13.1997533"><ele>446.0</ele><time>2026-05-02T08:15:17.982Z</time></trkpt><trkpt lat="43.1531783" lon="13.199865"><ele>448.0</ele><time>2026-05-02T08:15:18.981Z</time></trkpt><trkpt lat="43.1531467" lon="13.2000117"><ele>450.0</ele><time>2026-05-02T08:15:19.982Z</time></trkpt><trkpt lat="43.153145" lon="13.200175"><ele>452.0</ele><time>2026-05-02T08:15:20.982Z</time></trkpt><trkpt lat="43.153175" lon="13.2003367"><ele>454.0</ele><time>2026-05-02T08:15:21.982Z</time></trkpt><trkpt lat="43.15323" lon="13.2004633"><ele>454.00000000000006</ele><time>2026-05-02T08:15:22.981Z</time></trkpt><trkpt lat="43.1532667" lon="13.20055"><ele>454.0</ele><time>2026-05-02T08:15:23.982Z</time></trkpt><trkpt lat="43.1533117" lon="13.2006417"><ele>454.0</ele><time>2026-05-02T08:15:25.981Z</time></trkpt><trkpt lat="43.1533467" lon="13.2007167"><ele>454.0</ele><time>2026-05-02T08:15:31.981Z</time></trkpt><trkpt lat="43.1532933" lon="13.2008117"><ele>454.00000000000006</ele><time>2026-05-02T08:15:34.981Z</time></trkpt><trkpt lat="43.1532183" lon="13.20081"><ele>454.0</ele><time>2026-05-02T08:15:36.982Z</time></trkpt><trkpt lat="43.1531417" lon="13.2007233"><ele>450.6</ele><time>2026-05-02T08:15:38.981Z</time></trkpt><trkpt lat="43.1530633" lon="13.2006033"><ele>447.2</ele><time>2026-05-02T08:15:40.981Z</time></trkpt><trkpt lat="43.1529833" lon="13.2004667"><ele>443.80000000000007</ele><time>2026-05-02T08:15:42.982Z</time></trkpt><trkpt lat="43.1529483" lon="13.2003883"><ele>440.40000000000003</ele><time>2026-05-02T08:15:43.981Z</time></trkpt><trkpt lat="43.1529083" lon="13.2003017"><ele>437.0</ele><time>2026-05-02T08:15:44.981Z</time></trkpt><trkpt lat="43.1528667" lon="13.2002083"><ele>437.0</ele><time>2026-05-02T08:15:45.981Z</time></trkpt><trkpt lat="43.152825" lon="13.2001083"><ele>437.0</ele><time>2026-05-02T08:15:46.981Z</time></trkpt><trkpt lat="43.1527867" lon="13.2000083"><ele>437.0</ele><time>2026-05-02T08:15:47.981Z</time></trkpt><trkpt lat="43.1527567" lon="13.1999083"><ele>437.0</ele><time>2026-05-02T08:15:48.982Z</time></trkpt><trkpt lat="43.1527333" lon="13.1998117"><ele>437.0</ele><time>2026-05-02T08:15:49.982Z</time></trkpt><trkpt lat="43.1527217" lon="13.199725"><ele>437.0</ele><time>2026-05-02T08:15:50.982Z</time></trkpt><trkpt lat="43.152725" lon="13.1996367"><ele>437.0</ele><time>2026-05-02T08:15:51.981Z</time></trkpt><trkpt lat="43.1527483" lon="13.1995383"><ele>435.25</ele><time>2026-05-02T08:15:52.981Z</time></trkpt><trkpt lat="43.1528" lon="13.1994267"><ele>433.5</ele><time>2026-05-02T08:15:53.981Z</time></trkpt><trkpt lat="43.15287" lon="13.1993"><ele>431.75</ele><time>2026-05-02T08:15:54.982Z</time></trkpt><trkpt lat="43.1529517" lon="13.1991683"><ele>430.0</ele><time>2026-05-02T08:15:55.982Z</time></trkpt><trkpt lat="43.1530317" lon="13.1990283"><ele>429.8</ele><time>2026-05-02T08:15:56.982Z</time></trkpt><trkpt lat="43.153095" lon="13.1988867"><ele>429.6</ele><time>2026-05-02T08:15:57.982Z</time></trkpt><trkpt lat="43.15313" lon="13.198755"><ele>429.4</ele><time>2026-05-02T08:15:58.981Z</time></trkpt><trkpt lat="43.15313" lon="13.1986183"><ele>429.2</ele><time>2026-05-02T08:15:59.982Z</time></trkpt><trkpt lat="43.1530883" lon="13.1984783"><ele>429.0</ele><time>2026-05-02T08:16:00.981Z</time></trkpt><trkpt lat="43.1530333" lon="13.1983417"><ele>429.0</ele><time>2026-05-02T08:16:01.982Z</time></trkpt><trkpt lat="43.1529517" lon="13.198225"><ele>429.0</ele><time>2026-05-02T08:16:02.981Z</time></trkpt><trkpt lat="43.1528717" lon="13.198115"><ele>429.0</ele><time>2026-05-02T08:16:03.982Z</time></trkpt><trkpt lat="43.1527933" lon="13.1980167"><ele>429.0</ele><time>2026-05-02T08:16:04.982Z</time></trkpt><trkpt lat="43.15271" lon="13.197935"><ele>429.0</ele><time>2026-05-02T08:16:05.981Z</time></trkpt><trkpt lat="43.1526217" lon="13.1978633"><ele>429.6</ele><time>2026-05-02T08:16:06.981Z</time></trkpt><trkpt lat="43.1525317" lon="13.1977983"><ele>430.2</ele><time>2026-05-02T08:16:07.982Z</time></trkpt><trkpt lat="43.15244" lon="13.1977433"><ele>430.80000000000007</ele><time>2026-05-02T08:16:08.981Z</time></trkpt><trkpt lat="43.1523533" lon="13.1976933"><ele>431.40000000000003</ele><time>2026-05-02T08:16:09.982Z</time></trkpt><trkpt lat="43.1522633" lon="13.1976517"><ele>432.0</ele><time>2026-05-02T08:16:10.981Z</time></trkpt><trkpt lat="43.1521783" lon="13.1976167"><ele>432.0</ele><time>2026-05-02T08:16:11.982Z</time></trkpt><trkpt lat="43.1520883" lon="13.1975967"><ele>432.0</ele><time>2026-05-02T08:16:12.982Z</time></trkpt><trkpt lat="43.151995" lon="13.1975967"><ele>432.0</ele><time>2026-05-02T08:16:13.981Z</time></trkpt><trkpt lat="43.1519033" lon="13.1976167"><ele>432.0</ele><time>2026-05-02T08:16:14.981Z</time></trkpt><trkpt lat="43.1518183" lon="13.19764"><ele>432.0</ele><time>2026-05-02T08:16:15.982Z</time></trkpt><trkpt lat="43.1517367" lon="13.1976533"><ele>432.0</ele><time>2026-05-02T08:16:16.982Z</time></trkpt><trkpt lat="43.1516533" lon="13.197665"><ele>432.0</ele><time>2026-05-02T08:16:17.982Z</time></trkpt><trkpt lat="43.151565" lon="13.1976783"><ele>432.0</ele><time>2026-05-02T08:16:18.983Z</time></trkpt><trkpt lat="43.1514683" lon="13.1976983"><ele>432.0</ele><time>2026-05-02T08:16:19.982Z</time></trkpt><trkpt lat="43.1513883" lon="13.19774"><ele>432.0</ele><time>2026-05-02T08:16:20.981Z</time></trkpt><trkpt lat="43.1513" lon="13.19776"><ele>432.0</ele><time>2026-05-02T08:16:21.985Z</time></trkpt><trkpt lat="43.15123" lon="13.1977717"><ele>432.0</ele><time>2026-05-02T08:16:22.982Z</time></trkpt><trkpt lat="43.1511633" lon="13.1977833"><ele>430.5</ele><time>2026-05-02T08:16:23.982Z</time></trkpt><trkpt lat="43.15105" lon="13.1977817"><ele>429.0</ele><time>2026-05-02T08:16:25.983Z</time></trkpt><trkpt lat="43.1509383" lon="13.19776"><ele>427.5</ele><time>2026-05-02T08:16:27.981Z</time></trkpt><trkpt lat="43.1508333" lon="13.1977067"><ele>426.0</ele><time>2026-05-02T08:16:29.983Z</time></trkpt><trkpt lat="43.1507217" lon="13.1976467"><ele>424.8333333333333</ele><time>2026-05-02T08:16:31.981Z</time></trkpt><trkpt lat="43.1506667" lon="13.1976017"><ele>423.66666666666663</ele><time>2026-05-02T08:16:32.983Z</time></trkpt><trkpt lat="43.1506017" lon="13.1975667"><ele>422.5</ele><time>2026-05-02T08:16:33.982Z</time></trkpt><trkpt lat="43.1505233" lon="13.1975483"><ele>421.3333333333333</ele><time>2026-05-02T08:16:34.982Z</time></trkpt><trkpt lat="43.1504383" lon="13.19752"><ele>420.16666666666663</ele><time>2026-05-02T08:16:35.981Z</time></trkpt><trkpt lat="43.15035" lon="13.1974817"><ele>419.0</ele><time>2026-05-02T08:16:36.981Z</time></trkpt><trkpt lat="43.1502633" lon="13.1974083"><ele>419.0</ele><time>2026-05-02T08:16:37.981Z</time></trkpt><trkpt lat="43.1501783" lon="13.1973517"><ele>419.0</ele><time>2026-05-02T08:16:38.982Z</time></trkpt><trkpt lat="43.150095" lon="13.1973017"><ele>419.0</ele><time>2026-05-02T08:16:39.982Z</time></trkpt><trkpt lat="43.15001" lon="13.19728"><ele>419.0</ele><time>2026-05-02T08:16:40.982Z</time></trkpt><trkpt lat="43.1499233" lon="13.1972767"><ele>419.0</ele><time>2026-05-02T08:16:41.981Z</time></trkpt><trkpt lat="43.1498433" lon="13.1973583"><ele>419.0</ele><time>2026-05-02T08:16:42.982Z</time></trkpt><trkpt lat="43.149765" lon="13.1974717"><ele>419.0</ele><time>2026-05-02T08:16:43.981Z</time></trkpt><trkpt lat="43.14968" lon="13.1975983"><ele>419.0</ele><time>2026-05-02T08:16:44.982Z</time></trkpt><trkpt lat="43.149585" lon="13.197725"><ele>419.0</ele><time>2026-05-02T08:16:45.982Z</time></trkpt><trkpt lat="43.1494667" lon="13.1978283"><ele>419.0</ele><time>2026-05-02T08:16:46.981Z</time></trkpt><trkpt lat="43.1493433" lon="13.1979067"><ele>419.0</ele><time>2026-05-02T08:16:47.982Z</time></trkpt><trkpt lat="43.14923" lon="13.1979833"><ele>419.0</ele><time>2026-05-02T08:16:48.982Z</time></trkpt><trkpt lat="43.14913" lon="13.19807"><ele>419.0</ele><time>2026-05-02T08:16:49.983Z</time></trkpt><trkpt lat="43.1490667" lon="13.19818"><ele>416.4</ele><time>2026-05-02T08:16:50.982Z</time></trkpt><trkpt lat="43.1490417" lon="13.1983033"><ele>413.79999999999995</ele><time>2026-05-02T08:16:51.983Z</time></trkpt><trkpt lat="43.1490617" lon="13.19843"><ele>411.20000000000005</ele><time>2026-05-02T08:16:52.982Z</time></trkpt><trkpt lat="43.1491233" lon="13.1985317"><ele>408.6</ele><time>2026-05-02T08:16:53.982Z</time></trkpt><trkpt lat="43.1492167" lon="13.19858"><ele>406.0</ele><time>2026-05-02T08:16:54.983Z</time></trkpt><trkpt lat="43.1493333" lon="13.1985683"><ele>406.0</ele><time>2026-05-02T08:16:55.982Z</time></trkpt><trkpt lat="43.1494583" lon="13.1985267"><ele>406.0</ele><time>2026-05-02T08:16:56.982Z</time></trkpt><trkpt lat="43.1495867" lon="13.1984667"><ele>406.0</ele><time>2026-05-02T08:16:57.981Z</time></trkpt><trkpt lat="43.14971" lon="13.1984083"><ele>406.0</ele><time>2026-05-02T08:16:58.983Z</time></trkpt><trkpt lat="43.149825" lon="13.1983633"><ele>406.0</ele><time>2026-05-02T08:16:59.981Z</time></trkpt><trkpt lat="43.14993" lon="13.1983433"><ele>406.0</ele><time>2026-05-02T08:17:00.982Z</time></trkpt><trkpt lat="43.15002" lon="13.1983533"><ele>406.0</ele><time>2026-05-02T08:17:01.982Z</time></trkpt><trkpt lat="43.1500817" lon="13.1984467"><ele>406.0</ele><time>2026-05-02T08:17:02.982Z</time></trkpt><trkpt lat="43.1501267" lon="13.1985867"><ele>406.0</ele><time>2026-05-02T08:17:03.982Z</time></trkpt><trkpt lat="43.1501617" lon="13.1987467"><ele>406.0</ele><time>2026-05-02T08:17:04.982Z</time></trkpt><trkpt lat="43.1502017" lon="13.198915"><ele>406.0</ele><time>2026-05-02T08:17:05.982Z</time></trkpt><trkpt lat="43.1502317" lon="13.1990867"><ele>406.0</ele><time>2026-05-02T08:17:06.984Z</time></trkpt><trkpt lat="43.1502717" lon="13.1992483"><ele>406.0</ele><time>2026-05-02T08:17:07.984Z</time></trkpt><trkpt lat="43.1503333" lon="13.1993883"><ele>404.25</ele><time>2026-05-02T08:17:08.984Z</time></trkpt><trkpt lat="43.1504333" lon="13.1994983"><ele>402.5</ele><time>2026-05-02T08:17:09.983Z</time></trkpt><trkpt lat="43.15055" lon="13.19957"><ele>400.75</ele><time>2026-05-02T08:17:10.982Z</time></trkpt><trkpt lat="43.1506717" lon="13.1996117"><ele>399.0</ele><time>2026-05-02T08:17:11.984Z</time></trkpt><trkpt lat="43.15078" lon="13.1996517"><ele>399.0</ele><time>2026-05-02T08:17:12.984Z</time></trkpt><trkpt lat="43.1508617" lon="13.1997067"><ele>399.0</ele><time>2026-05-02T08:17:13.984Z</time></trkpt><trkpt lat="43.1509167" lon="13.1997867"><ele>399.0</ele><time>2026-05-02T08:17:14.984Z</time></trkpt><trkpt lat="43.1509233" lon="13.1998983"><ele>399.0</ele><time>2026-05-02T08:17:15.981Z</time></trkpt><trkpt lat="43.1509067" lon="13.2000233"><ele>399.0</ele><time>2026-05-02T08:17:16.982Z</time></trkpt><trkpt lat="43.150865" lon="13.2001817"><ele>396.5</ele><time>2026-05-02T08:17:17.983Z</time></trkpt><trkpt lat="43.1508317" lon="13.2003517"><ele>394.0</ele><time>2026-05-02T08:17:18.983Z</time></trkpt><trkpt lat="43.15078" lon="13.2005183"><ele>391.5</ele><time>2026-05-02T08:17:19.983Z</time></trkpt><trkpt lat="43.150705" lon="13.20068"><ele>389.0</ele><time>2026-05-02T08:17:20.983Z</time></trkpt><trkpt lat="43.1506267" lon="13.2008383"><ele>383.25</ele><time>2026-05-02T08:17:21.983Z</time></trkpt><trkpt lat="43.1505533" lon="13.2010033"><ele>377.5</ele><time>2026-05-02T08:17:22.982Z</time></trkpt><trkpt lat="43.1505017" lon="13.20117"><ele>371.75</ele><time>2026-05-02T08:17:23.982Z</time></trkpt><trkpt lat="43.1504567" lon="13.2013433"><ele>366.0</ele><time>2026-05-02T08:17:24.983Z</time></trkpt><trkpt lat="43.1504083" lon="13.201505"><ele>366.0</ele><time>2026-05-02T08:17:25.981Z</time></trkpt><trkpt lat="43.15034" lon="13.20166"><ele>366.0</ele><time>2026-05-02T08:17:26.982Z</time></trkpt><trkpt lat="43.15026" lon="13.201815"><ele>366.0</ele><time>2026-05-02T08:17:27.981Z</time></trkpt><trkpt lat="43.15018" lon="13.2019683"><ele>366.0</ele><time>2026-05-02T08:17:28.981Z</time></trkpt><trkpt lat="43.1500983" lon="13.2021167"><ele>366.0</ele><time>2026-05-02T08:17:29.982Z</time></trkpt><trkpt lat="43.15002" lon="13.2022533"><ele>366.0</ele><time>2026-05-02T08:17:30.982Z</time></trkpt><trkpt lat="43.1499617" lon="13.2023933"><ele>366.0</ele><time>2026-05-02T08:17:31.982Z</time></trkpt><trkpt lat="43.1499467" lon="13.202555"><ele>366.0</ele><time>2026-05-02T08:17:32.981Z</time></trkpt><trkpt lat="43.149965" lon="13.2027233"><ele>366.8333333333333</ele><time>2026-05-02T08:17:33.982Z</time></trkpt><trkpt lat="43.1499867" lon="13.2028717"><ele>367.6666666666667</ele><time>2026-05-02T08:17:34.981Z</time></trkpt><trkpt lat="43.1499817" lon="13.2029917"><ele>368.5</ele><time>2026-05-02T08:17:35.981Z</time></trkpt><trkpt lat="43.14996" lon="13.203095"><ele>369.33333333333337</ele><time>2026-05-02T08:17:36.981Z</time></trkpt><trkpt lat="43.1498833" lon="13.203115"><ele>370.1666666666667</ele><time>2026-05-02T08:17:37.981Z</time></trkpt><trkpt lat="43.1498033" lon="13.2030567"><ele>371.0</ele><time>2026-05-02T08:17:38.982Z</time></trkpt><trkpt lat="43.149755" lon="13.2029367"><ele>366.25</ele><time>2026-05-02T08:17:39.982Z</time></trkpt><trkpt lat="43.1497317" lon="13.202775"><ele>361.5</ele><time>2026-05-02T08:17:40.982Z</time></trkpt><trkpt lat="43.1497133" lon="13.20261"><ele>356.75</ele><time>2026-05-02T08:17:41.981Z</time></trkpt><trkpt lat="43.14969" lon="13.2024517"><ele>352.0</ele><time>2026-05-02T08:17:42.982Z</time></trkpt><trkpt lat="43.1496717" lon="13.2022933"><ele>349.75</ele><time>2026-05-02T08:17:43.982Z</time></trkpt><trkpt lat="43.1496667" lon="13.202145"><ele>347.5</ele><time>2026-05-02T08:17:44.985Z</time></trkpt><trkpt lat="43.1496933" lon="13.2020033"><ele>345.25</ele><time>2026-05-02T08:17:45.983Z</time></trkpt><trkpt lat="43.14975" lon="13.2018667"><ele>343.0</ele><time>2026-05-02T08:17:46.982Z</time></trkpt><trkpt lat="43.1498217" lon="13.201735"><ele>343.16666666666663</ele><time>2026-05-02T08:17:47.983Z</time></trkpt><trkpt lat="43.14989" lon="13.20161"><ele>343.3333333333333</ele><time>2026-05-02T08:17:48.983Z</time></trkpt><trkpt lat="43.1499467" lon="13.2014983"><ele>343.5</ele><time>2026-05-02T08:17:49.982Z</time></trkpt><trkpt lat="43.1499717" lon="13.2013933"><ele>343.6666666666667</ele><time>2026-05-02T08:17:50.983Z</time></trkpt><trkpt lat="43.149955" lon="13.2013067"><ele>343.83333333333337</ele><time>2026-05-02T08:17:51.983Z</time></trkpt><trkpt lat="43.1498983" lon="13.201265"><ele>344.0</ele><time>2026-05-02T08:17:52.983Z</time></trkpt><trkpt lat="43.149825" lon="13.20129"><ele>344.0</ele><time>2026-05-02T08:17:53.983Z</time></trkpt><trkpt lat="43.1497467" lon="13.2013833"><ele>344.0</ele><time>2026-05-02T08:17:54.982Z</time></trkpt><trkpt lat="43.1496567" lon="13.2015167"><ele>344.0</ele><time>2026-05-02T08:17:55.981Z</time></trkpt><trkpt lat="43.1495467" lon="13.201655"><ele>344.0</ele><time>2026-05-02T08:17:56.982Z</time></trkpt><trkpt lat="43.1494167" lon="13.2017733"><ele>343.75</ele><time>2026-05-02T08:17:57.981Z</time></trkpt><trkpt lat="43.1492783" lon="13.2018667"><ele>343.5</ele><time>2026-05-02T08:17:58.981Z</time></trkpt><trkpt lat="43.1491467" lon="13.201935"><ele>343.25</ele><time>2026-05-02T08:17:59.982Z</time></trkpt><trkpt lat="43.1490267" lon="13.20203"><ele>343.0</ele><time>2026-05-02T08:18:00.983Z</time></trkpt><trkpt lat="43.1489183" lon="13.2021567"><ele>339.66666666666663</ele><time>2026-05-02T08:18:01.982Z</time></trkpt><trkpt lat="43.14882" lon="13.20233"><ele>336.3333333333333</ele><time>2026-05-02T08:18:02.982Z</time></trkpt><trkpt lat="43.1487117" lon="13.2024833"><ele>333.0</ele><time>2026-05-02T08:18:03.982Z</time></trkpt><trkpt lat="43.1485917" lon="13.20261"><ele>333.0</ele><time>2026-05-02T08:18:04.982Z</time></trkpt><trkpt lat="43.1484717" lon="13.2027167"><ele>333.0</ele><time>2026-05-02T08:18:05.983Z</time></trkpt><trkpt lat="43.14835" lon="13.2028117"><ele>333.0</ele><time>2026-05-02T08:18:06.982Z</time></trkpt><trkpt lat="43.1482267" lon="13.2028967"><ele>333.0</ele><time>2026-05-02T08:18:07.982Z</time></trkpt><trkpt lat="43.1481117" lon="13.2029733"><ele>330.59999999999997</ele><time>2026-05-02T08:18:08.983Z</time></trkpt><trkpt lat="43.148" lon="13.203045"><ele>328.2</ele><time>2026-05-02T08:18:09.983Z</time></trkpt><trkpt lat="43.147895" lon="13.203115"><ele>325.8</ele><time>2026-05-02T08:18:10.983Z</time></trkpt><trkpt lat="43.147795" lon="13.2031833"><ele>323.4</ele><time>2026-05-02T08:18:11.981Z</time></trkpt><trkpt lat="43.147725" lon="13.203275"><ele>321.0</ele><time>2026-05-02T08:18:12.981Z</time></trkpt><trkpt lat="43.147685" lon="13.2034"><ele>321.0</ele><time>2026-05-02T08:18:13.981Z</time></trkpt><trkpt lat="43.1476817" lon="13.20355"><ele>321.0</ele><time>2026-05-02T08:18:14.982Z</time></trkpt><trkpt lat="43.147695" lon="13.2036967"><ele>321.0</ele><time>2026-05-02T08:18:15.985Z</time></trkpt><trkpt lat="43.1477167" lon="13.203835"><ele>321.0</ele><time>2026-05-02T08:18:16.982Z</time></trkpt><trkpt lat="43.14774" lon="13.203975"><ele>321.0</ele><time>2026-05-02T08:18:17.982Z</time></trkpt><trkpt lat="43.14776" lon="13.2041167"><ele>321.0</ele><time>2026-05-02T08:18:18.983Z</time></trkpt><trkpt lat="43.14777" lon="13.20426"><ele>321.0</ele><time>2026-05-02T08:18:19.983Z</time></trkpt><trkpt lat="43.1477583" lon="13.2044083"><ele>321.0</ele><time>2026-05-02T08:18:20.982Z</time></trkpt><trkpt lat="43.147735" lon="13.2045517"><ele>321.0</ele><time>2026-05-02T08:18:21.982Z</time></trkpt><trkpt lat="43.1476917" lon="13.2046833"><ele>321.0</ele><time>2026-05-02T08:18:22.982Z</time></trkpt><trkpt lat="43.14765" lon="13.2048133"><ele>321.20000000000005</ele><time>2026-05-02T08:18:23.982Z</time></trkpt><trkpt lat="43.147605" lon="13.2049417"><ele>321.40000000000003</ele><time>2026-05-02T08:18:24.982Z</time></trkpt><trkpt lat="43.1475583" lon="13.205065"><ele>321.6</ele><time>2026-05-02T08:18:25.982Z</time></trkpt><trkpt lat="43.1475083" lon="13.2051867"><ele>321.8</ele><time>2026-05-02T08:18:26.983Z</time></trkpt><trkpt lat="43.1474533" lon="13.205305"><ele>322.0</ele><time>2026-05-02T08:18:27.982Z</time></trkpt><trkpt lat="43.1474033" lon="13.2054133"><ele>318.20000000000005</ele><time>2026-05-02T08:18:28.983Z</time></trkpt><trkpt lat="43.1473433" lon="13.2054967"><ele>314.40000000000003</ele><time>2026-05-02T08:18:29.981Z</time></trkpt><trkpt lat="43.14727" lon="13.205575"><ele>310.6</ele><time>2026-05-02T08:18:30.981Z</time></trkpt><trkpt lat="43.1471883" lon="13.20565"><ele>306.8</ele><time>2026-05-02T08:18:31.982Z</time></trkpt><trkpt lat="43.1471117" lon="13.2057217"><ele>303.0</ele><time>2026-05-02T08:18:32.982Z</time></trkpt><trkpt lat="43.1470367" lon="13.205795"><ele>303.0</ele><time>2026-05-02T08:18:33.982Z</time></trkpt><trkpt lat="43.146965" lon="13.205875"><ele>303.0</ele><time>2026-05-02T08:18:34.982Z</time></trkpt><trkpt lat="43.146895" lon="13.2059617"><ele>303.0</ele><time>2026-05-02T08:18:35.982Z</time></trkpt><trkpt lat="43.1468283" lon="13.2060467"><ele>303.0</ele><time>2026-05-02T08:18:36.982Z</time></trkpt><trkpt lat="43.146775" lon="13.2061317"><ele>303.0</ele><time>2026-05-02T08:18:37.982Z</time></trkpt><trkpt lat="43.146735" lon="13.2062383"><ele>303.0</ele><time>2026-05-02T08:18:38.983Z</time></trkpt><trkpt lat="43.1467183" lon="13.2063583"><ele>303.0</ele><time>2026-05-02T08:18:39.983Z</time></trkpt><trkpt lat="43.1467317" lon="13.2064833"><ele>303.0</ele><time>2026-05-02T08:18:40.981Z</time></trkpt><trkpt lat="43.14678" lon="13.2066017"><ele>303.0</ele><time>2026-05-02T08:18:41.982Z</time></trkpt><trkpt lat="43.146855" lon="13.206705"><ele>303.0</ele><time>2026-05-02T08:18:42.983Z</time></trkpt><trkpt lat="43.1469283" lon="13.2068"><ele>303.0</ele><time>2026-05-02T08:18:43.981Z</time></trkpt><trkpt lat="43.1470033" lon="13.2068833"><ele>303.2</ele><time>2026-05-02T08:18:44.982Z</time></trkpt><trkpt lat="43.1470783" lon="13.2069633"><ele>303.4</ele><time>2026-05-02T08:18:45.982Z</time></trkpt><trkpt lat="43.14716" lon="13.2070433"><ele>303.59999999999997</ele><time>2026-05-02T08:18:46.981Z</time></trkpt><trkpt lat="43.1472467" lon="13.2071283"><ele>303.8</ele><time>2026-05-02T08:18:47.982Z</time></trkpt><trkpt lat="43.14733" lon="13.2072233"><ele>304.0</ele><time>2026-05-02T08:18:48.983Z</time></trkpt><trkpt lat="43.1474083" lon="13.2073317"><ele>304.59999999999997</ele><time>2026-05-02T08:18:49.981Z</time></trkpt><trkpt lat="43.1474783" lon="13.2074533"><ele>305.2</ele><time>2026-05-02T08:18:50.982Z</time></trkpt><trkpt lat="43.1475467" lon="13.2075783"><ele>305.79999999999995</ele><time>2026-05-02T08:18:51.983Z</time></trkpt><trkpt lat="43.1476117" lon="13.2077083"><ele>306.4</ele><time>2026-05-02T08:18:52.983Z</time></trkpt><trkpt lat="43.147665" lon="13.2078333"><ele>307.0</ele><time>2026-05-02T08:18:53.981Z</time></trkpt><trkpt lat="43.1477083" lon="13.2079467"><ele>307.0</ele><time>2026-05-02T08:18:54.983Z</time></trkpt><trkpt lat="43.1477467" lon="13.20805"><ele>307.0</ele><time>2026-05-02T08:18:55.981Z</time></trkpt><trkpt lat="43.14778" lon="13.2081583"><ele>307.0</ele><time>2026-05-02T08:18:56.983Z</time></trkpt><trkpt lat="43.1478067" lon="13.2082883"><ele>307.0</ele><time>2026-05-02T08:18:57.981Z</time></trkpt><trkpt lat="43.147835" lon="13.2084517"><ele>307.0</ele><time>2026-05-02T08:18:58.981Z</time></trkpt><trkpt lat="43.1478733" lon="13.208645"><ele>304.0</ele><time>2026-05-02T08:18:59.982Z</time></trkpt><trkpt lat="43.14792" lon="13.2088617"><ele>301.0</ele><time>2026-05-02T08:19:00.983Z</time></trkpt><trkpt lat="43.1479683" lon="13.209105"><ele>298.0</ele><time>2026-05-02T08:19:01.983Z</time></trkpt><trkpt lat="43.1480183" lon="13.20935"><ele>295.3333333333333</ele><time>2026-05-02T08:19:02.982Z</time></trkpt><trkpt lat="43.148065" lon="13.2095833"><ele>292.6666666666667</ele><time>2026-05-02T08:19:03.983Z</time></trkpt><trkpt lat="43.1481117" lon="13.2098017"><ele>290.0</ele><time>2026-05-02T08:19:04.983Z</time></trkpt><trkpt lat="43.148155" lon="13.21001"><ele>288.33333333333337</ele><time>2026-05-02T08:19:05.983Z</time></trkpt><trkpt lat="43.1482033" lon="13.2102067"><ele>286.6666666666667</ele><time>2026-05-02T08:19:06.982Z</time></trkpt><trkpt lat="43.1482533" lon="13.2104"><ele>285.0</ele><time>2026-05-02T08:19:07.984Z</time></trkpt><trkpt lat="43.1483133" lon="13.210595"><ele>286.3333333333333</ele><time>2026-05-02T08:19:08.983Z</time></trkpt><trkpt lat="43.1483917" lon="13.2107833"><ele>287.66666666666663</ele><time>2026-05-02T08:19:09.981Z</time></trkpt><trkpt lat="43.148485" lon="13.2109667"><ele>289.0</ele><time>2026-05-02T08:19:10.983Z</time></trkpt><trkpt lat="43.1485917" lon="13.2111383"><ele>289.0</ele><time>2026-05-02T08:19:11.984Z</time></trkpt><trkpt lat="43.1486933" lon="13.2113033"><ele>289.0</ele><time>2026-05-02T08:19:12.982Z</time></trkpt><trkpt lat="43.1487883" lon="13.2114567"><ele>289.0</ele><time>2026-05-02T08:19:13.982Z</time></trkpt><trkpt lat="43.1488783" lon="13.2116033"><ele>289.0</ele><time>2026-05-02T08:19:14.983Z</time></trkpt><trkpt lat="43.1489617" lon="13.2117517"><ele>289.2</ele><time>2026-05-02T08:19:15.986Z</time></trkpt><trkpt lat="43.1490433" lon="13.2118933"><ele>289.4</ele><time>2026-05-02T08:19:16.983Z</time></trkpt><trkpt lat="43.1491133" lon="13.2120267"><ele>289.6</ele><time>2026-05-02T08:19:17.983Z</time></trkpt><trkpt lat="43.1491667" lon="13.2121467"><ele>289.8</ele><time>2026-05-02T08:19:18.982Z</time></trkpt><trkpt lat="43.1491983" lon="13.2122467"><ele>290.0</ele><time>2026-05-02T08:19:19.983Z</time></trkpt><trkpt lat="43.1492033" lon="13.2123367"><ele>288.6666666666667</ele><time>2026-05-02T08:19:20.982Z</time></trkpt><trkpt lat="43.1491367" lon="13.212455"><ele>287.33333333333337</ele><time>2026-05-02T08:19:22.983Z</time></trkpt><trkpt lat="43.1490333" lon="13.2124583"><ele>286.0</ele><time>2026-05-02T08:19:24.983Z</time></trkpt><trkpt lat="43.148975" lon="13.2124233"><ele>284.6666666666667</ele><time>2026-05-02T08:19:25.982Z</time></trkpt><trkpt lat="43.1489233" lon="13.2123683"><ele>283.3333333333333</ele><time>2026-05-02T08:19:26.983Z</time></trkpt><trkpt lat="43.1488767" lon="13.2122883"><ele>282.0</ele><time>2026-05-02T08:19:27.983Z</time></trkpt><trkpt lat="43.1488267" lon="13.2121967"><ele>281.8</ele><time>2026-05-02T08:19:28.981Z</time></trkpt><trkpt lat="43.14877" lon="13.2121167"><ele>281.6</ele><time>2026-05-02T08:19:29.981Z</time></trkpt><trkpt lat="43.1486983" lon="13.2120417"><ele>281.40000000000003</ele><time>2026-05-02T08:19:30.981Z</time></trkpt><trkpt lat="43.1486167" lon="13.2119583"><ele>281.2</ele><time>2026-05-02T08:19:31.982Z</time></trkpt><trkpt lat="43.148535" lon="13.21187"><ele>281.0</ele><time>2026-05-02T08:19:32.982Z</time></trkpt><trkpt lat="43.1484517" lon="13.2117767"><ele>281.0</ele><time>2026-05-02T08:19:33.982Z</time></trkpt><trkpt lat="43.1483583" lon="13.2116783"><ele>281.0</ele><time>2026-05-02T08:19:34.982Z</time></trkpt><trkpt lat="43.1482583" lon="13.21158"><ele>281.0</ele><time>2026-05-02T08:19:35.981Z</time></trkpt><trkpt lat="43.1481567" lon="13.2114733"><ele>281.0</ele><time>2026-05-02T08:19:36.982Z</time></trkpt><trkpt lat="43.1480583" lon="13.211355"><ele>280.75</ele><time>2026-05-02T08:19:37.981Z</time></trkpt><trkpt lat="43.147965" lon="13.21123"><ele>280.5</ele><time>2026-05-02T08:19:38.981Z</time></trkpt><trkpt lat="43.1478767" lon="13.2111017"><ele>280.25</ele><time>2026-05-02T08:19:39.981Z</time></trkpt><trkpt lat="43.147785" lon="13.210965"><ele>280.0</ele><time>2026-05-02T08:19:40.982Z</time></trkpt><trkpt lat="43.14769" lon="13.2108117"><ele>281.66666666666663</ele><time>2026-05-02T08:19:41.982Z</time></trkpt><trkpt lat="43.147595" lon="13.2106333"><ele>283.3333333333333</ele><time>2026-05-02T08:19:42.982Z</time></trkpt><trkpt lat="43.1475067" lon="13.2104417"><ele>285.0</ele><time>2026-05-02T08:19:43.981Z</time></trkpt><trkpt lat="43.14742" lon="13.2102467"><ele>284.3333333333333</ele><time>2026-05-02T08:19:44.982Z</time></trkpt><trkpt lat="43.147335" lon="13.210045"><ele>283.66666666666663</ele><time>2026-05-02T08:19:45.981Z</time></trkpt><trkpt lat="43.1472533" lon="13.2098367"><ele>283.0</ele><time>2026-05-02T08:19:46.981Z</time></trkpt><trkpt lat="43.14718" lon="13.2096317"><ele>283.0</ele><time>2026-05-02T08:19:47.981Z</time></trkpt><trkpt lat="43.1471133" lon="13.2094317"><ele>283.0</ele><time>2026-05-02T08:19:48.981Z</time></trkpt><trkpt lat="43.147045" lon="13.20924"><ele>283.0</ele><time>2026-05-02T08:19:49.981Z</time></trkpt><trkpt lat="43.14698" lon="13.2090567"><ele>284.75</ele><time>2026-05-02T08:19:50.981Z</time></trkpt><trkpt lat="43.1469183" lon="13.2088917"><ele>286.5</ele><time>2026-05-02T08:19:51.981Z</time></trkpt><trkpt lat="43.1468617" lon="13.20874"><ele>288.25</ele><time>2026-05-02T08:19:52.982Z</time></trkpt><trkpt lat="43.1468117" lon="13.2086017"><ele>290.0</ele><time>2026-05-02T08:19:53.981Z</time></trkpt><trkpt lat="43.146765" lon="13.208475"><ele>290.0</ele><time>2026-05-02T08:19:54.982Z</time></trkpt><trkpt lat="43.1467217" lon="13.2083567"><ele>290.0</ele><time>2026-05-02T08:19:55.982Z</time></trkpt><trkpt lat="43.1466867" lon="13.20825"><ele>290.0</ele><time>2026-05-02T08:19:56.981Z</time></trkpt><trkpt lat="43.14665" lon="13.2081583"><ele>290.0</ele><time>2026-05-02T08:19:57.981Z</time></trkpt><trkpt lat="43.1466167" lon="13.208075"><ele>290.0</ele><time>2026-05-02T08:19:58.981Z</time></trkpt><trkpt lat="43.1465633" lon="13.20795"><ele>290.0</ele><time>2026-05-02T08:20:00.982Z</time></trkpt><trkpt lat="43.146505" lon="13.2078617"><ele>290.0</ele><time>2026-05-02T08:20:02.982Z</time></trkpt><trkpt lat="43.1464267" lon="13.2078233"><ele>290.0</ele><time>2026-05-02T08:20:04.981Z</time></trkpt><trkpt lat="43.146365" lon="13.2077983"><ele>290.0</ele><time>2026-05-02T08:20:06.982Z</time></trkpt><trkpt lat="43.1463817" lon="13.207895"><ele>290.0</ele><time>2026-05-02T08:30:36.985Z</time></trkpt><trkpt lat="43.14639" lon="13.20803"><ele>290.0</ele><time>2026-05-02T08:30:38.984Z</time></trkpt><trkpt lat="43.1463733" lon="13.208125"><ele>290.0</ele><time>2026-05-02T08:30:40.982Z</time></trkpt><trkpt lat="43.1463117" lon="13.2081933"><ele>290.0</ele><time>2026-05-02T08:30:43.984Z</time></trkpt><trkpt lat="43.1462367" lon="13.2081917"><ele>290.0</ele><time>2026-05-02T08:30:45.984Z</time></trkpt><trkpt lat="43.1461217" lon="13.2081083"><ele>290.0</ele><time>2026-05-02T08:30:47.983Z</time></trkpt><trkpt lat="43.1460483" lon="13.20804"><ele>290.0</ele><time>2026-05-02T08:30:48.984Z</time></trkpt><trkpt lat="43.1459667" lon="13.2079633"><ele>290.0</ele><time>2026-05-02T08:30:49.984Z</time></trkpt><trkpt lat="43.1458833" lon="13.2078883"><ele>290.0</ele><time>2026-05-02T08:30:50.984Z</time></trkpt><trkpt lat="43.1457983" lon="13.207815"><ele>290.0</ele><time>2026-05-02T08:30:51.983Z</time></trkpt><trkpt lat="43.1457133" lon="13.2077433"><ele>290.0</ele><time>2026-05-02T08:30:52.983Z</time></trkpt><trkpt lat="43.145625" lon="13.207675"><ele>290.0</ele><time>2026-05-02T08:30:53.983Z</time></trkpt><trkpt lat="43.1455367" lon="13.2076017"><ele>290.0</ele><time>2026-05-02T08:30:54.983Z</time></trkpt><trkpt lat="43.1454433" lon="13.2075283"><ele>288.25</ele><time>2026-05-02T08:30:55.984Z</time></trkpt><trkpt lat="43.1453433" lon="13.207445"><ele>286.5</ele><time>2026-05-02T08:30:56.983Z</time></trkpt><trkpt lat="43.14523" lon="13.2073483"><ele>284.75</ele><time>2026-05-02T08:30:57.983Z</time></trkpt><trkpt lat="43.14511" lon="13.2072367"><ele>283.0</ele><time>2026-05-02T08:30:58.982Z</time></trkpt><trkpt lat="43.1449867" lon="13.2071217"><ele>284.0</ele><time>2026-05-02T08:30:59.984Z</time></trkpt><trkpt lat="43.14487" lon="13.2070167"><ele>285.0</ele><time>2026-05-02T08:31:00.984Z</time></trkpt><trkpt lat="43.1447617" lon="13.206925"><ele>286.0</ele><time>2026-05-02T08:31:01.983Z</time></trkpt><trkpt lat="43.14466" lon="13.2068517"><ele>287.0</ele><time>2026-05-02T08:31:02.984Z</time></trkpt><trkpt lat="43.14456" lon="13.2068083"><ele>287.0</ele><time>2026-05-02T08:31:03.983Z</time></trkpt><trkpt lat="43.14446" lon="13.2067983"><ele>287.0</ele><time>2026-05-02T08:31:04.983Z</time></trkpt><trkpt lat="43.1443767" lon="13.2068117"><ele>287.0</ele><time>2026-05-02T08:31:05.983Z</time></trkpt><trkpt lat="43.1442933" lon="13.2068133"><ele>287.0</ele><time>2026-05-02T08:31:06.984Z</time></trkpt><trkpt lat="43.1442133" lon="13.2067833"><ele>287.0</ele><time>2026-05-02T08:31:07.984Z</time></trkpt><trkpt lat="43.1441383" lon="13.2067067"><ele>287.0</ele><time>2026-05-02T08:31:08.983Z</time></trkpt><trkpt lat="43.1440583" lon="13.20657"><ele>289.25</ele><time>2026-05-02T08:31:09.984Z</time></trkpt><trkpt lat="43.143985" lon="13.2064283"><ele>291.5</ele><time>2026-05-02T08:31:10.983Z</time></trkpt><trkpt lat="43.1439167" lon="13.2062733"><ele>293.75</ele><time>2026-05-02T08:31:11.983Z</time></trkpt><trkpt lat="43.1438467" lon="13.2061167"><ele>296.0</ele><time>2026-05-02T08:31:12.984Z</time></trkpt><trkpt lat="43.143775" lon="13.2059533"><ele>296.0</ele><time>2026-05-02T08:31:13.984Z</time></trkpt><trkpt lat="43.1436983" lon="13.205785"><ele>296.0</ele><time>2026-05-02T08:31:14.983Z</time></trkpt><trkpt lat="43.1436167" lon="13.2056133"><ele>296.0</ele><time>2026-05-02T08:31:15.984Z</time></trkpt><trkpt lat="43.143525" lon="13.2054483"><ele>296.0</ele><time>2026-05-02T08:31:16.984Z</time></trkpt><trkpt lat="43.14342" lon="13.2053033"><ele>296.33333333333337</ele><time>2026-05-02T08:31:17.983Z</time></trkpt><trkpt lat="43.1433" lon="13.2051833"><ele>296.6666666666667</ele><time>2026-05-02T08:31:18.983Z</time></trkpt><trkpt lat="43.1431767" lon="13.20507"><ele>297.0</ele><time>2026-05-02T08:31:19.982Z</time></trkpt><trkpt lat="43.1430517" lon="13.2049483"><ele>298.6666666666667</ele><time>2026-05-02T08:31:20.984Z</time></trkpt><trkpt lat="43.1429283" lon="13.2048317"><ele>300.33333333333337</ele><time>2026-05-02T08:31:21.983Z</time></trkpt><trkpt lat="43.1427983" lon="13.2047183"><ele>302.0</ele><time>2026-05-02T08:31:22.982Z</time></trkpt><trkpt lat="43.1426683" lon="13.2046183"><ele>302.5</ele><time>2026-05-02T08:31:23.983Z</time></trkpt><trkpt lat="43.1425433" lon="13.2045317"><ele>303.0</ele><time>2026-05-02T08:31:24.982Z</time></trkpt><trkpt lat="43.1424217" lon="13.204455"><ele>303.5</ele><time>2026-05-02T08:31:25.983Z</time></trkpt><trkpt lat="43.1422983" lon="13.2043867"><ele>304.0</ele><time>2026-05-02T08:31:26.982Z</time></trkpt><trkpt lat="43.1421717" lon="13.2043283"><ele>304.5</ele><time>2026-05-02T08:31:27.982Z</time></trkpt><trkpt lat="43.1420417" lon="13.2042817"><ele>305.0</ele><time>2026-05-02T08:31:28.982Z</time></trkpt><trkpt lat="43.141915" lon="13.2042417"><ele>305.5</ele><time>2026-05-02T08:31:29.982Z</time></trkpt><trkpt lat="43.141795" lon="13.2042083"><ele>306.0</ele><time>2026-05-02T08:31:30.983Z</time></trkpt><trkpt lat="43.1416817" lon="13.2041783"><ele>306.0</ele><time>2026-05-02T08:31:31.982Z</time></trkpt><trkpt lat="43.1415733" lon="13.2041467"><ele>306.0</ele><time>2026-05-02T08:31:32.982Z</time></trkpt><trkpt lat="43.141475" lon="13.2041017"><ele>306.0</ele><time>2026-05-02T08:31:33.983Z</time></trkpt><trkpt lat="43.1413933" lon="13.2040367"><ele>306.0</ele><time>2026-05-02T08:31:34.983Z</time></trkpt><trkpt lat="43.1413333" lon="13.2039533"><ele>306.0</ele><time>2026-05-02T08:31:35.983Z</time></trkpt><trkpt lat="43.1412917" lon="13.20385"><ele>307.0</ele><time>2026-05-02T08:31:36.982Z</time></trkpt><trkpt lat="43.1412633" lon="13.2037183"><ele>308.0</ele><time>2026-05-02T08:31:37.982Z</time></trkpt><trkpt lat="43.1412433" lon="13.2035667"><ele>309.0</ele><time>2026-05-02T08:31:38.983Z</time></trkpt><trkpt lat="43.1412333" lon="13.203405"><ele>310.0</ele><time>2026-05-02T08:31:39.982Z</time></trkpt><trkpt lat="43.1412367" lon="13.2032367"><ele>312.75</ele><time>2026-05-02T08:31:40.982Z</time></trkpt><trkpt lat="43.1412517" lon="13.2030583"><ele>315.5</ele><time>2026-05-02T08:31:41.983Z</time></trkpt><trkpt lat="43.1412717" lon="13.2028783"><ele>318.25</ele><time>2026-05-02T08:31:42.983Z</time></trkpt><trkpt lat="43.1412867" lon="13.20271"><ele>321.0</ele><time>2026-05-02T08:31:43.985Z</time></trkpt><trkpt lat="43.1413" lon="13.2025467"><ele>321.0</ele><time>2026-05-02T08:31:44.983Z</time></trkpt><trkpt lat="43.1413083" lon="13.2023867"><ele>321.0</ele><time>2026-05-02T08:31:45.982Z</time></trkpt><trkpt lat="43.1413133" lon="13.2022283"><ele>321.0</ele><time>2026-05-02T08:31:46.982Z</time></trkpt><trkpt lat="43.141315" lon="13.2020717"><ele>321.0</ele><time>2026-05-02T08:31:47.981Z</time></trkpt><trkpt lat="43.141315" lon="13.2019133"><ele>321.0</ele><time>2026-05-02T08:31:48.981Z</time></trkpt><trkpt lat="43.1413067" lon="13.2017567"><ele>321.0</ele><time>2026-05-02T08:31:49.981Z</time></trkpt><trkpt lat="43.1412883" lon="13.2016"><ele>321.0</ele><time>2026-05-02T08:31:50.982Z</time></trkpt><trkpt lat="43.1412633" lon="13.2014417"><ele>321.0</ele><time>2026-05-02T08:31:51.98Z</time></trkpt><trkpt lat="43.1412333" lon="13.201285"><ele>321.0</ele><time>2026-05-02T08:31:52.982Z</time></trkpt><trkpt lat="43.1411933" lon="13.2011267"><ele>321.0</ele><time>2026-05-02T08:31:53.982Z</time></trkpt><trkpt lat="43.1411467" lon="13.200975"><ele>321.0</ele><time>2026-05-02T08:31:54.981Z</time></trkpt><trkpt lat="43.141095" lon="13.2008233"><ele>321.0</ele><time>2026-05-02T08:31:55.981Z</time></trkpt><trkpt lat="43.1410483" lon="13.20068"><ele>320.40000000000003</ele><time>2026-05-02T08:31:56.982Z</time></trkpt><trkpt lat="43.1409967" lon="13.2005483"><ele>319.8</ele><time>2026-05-02T08:31:57.982Z</time></trkpt><trkpt lat="43.1409483" lon="13.2004133"><ele>319.20000000000005</ele><time>2026-05-02T08:31:58.982Z</time></trkpt><trkpt lat="43.1409033" lon="13.200275"><ele>318.6</ele><time>2026-05-02T08:31:59.981Z</time></trkpt><trkpt lat="43.1408567" lon="13.2001383"><ele>318.0</ele><time>2026-05-02T08:32:00.981Z</time></trkpt><trkpt lat="43.1408133" lon="13.2000067"><ele>318.0</ele><time>2026-05-02T08:32:01.981Z</time></trkpt><trkpt lat="43.1407633" lon="13.1998983"><ele>318.0</ele><time>2026-05-02T08:32:02.981Z</time></trkpt><trkpt lat="43.1406933" lon="13.1998267"><ele>318.0</ele><time>2026-05-02T08:32:03.982Z</time></trkpt><trkpt lat="43.1406117" lon="13.1997817"><ele>318.0</ele><time>2026-05-02T08:32:04.981Z</time></trkpt><trkpt lat="43.1405217" lon="13.1997533"><ele>318.0</ele><time>2026-05-02T08:32:05.982Z</time></trkpt><trkpt lat="43.1404283" lon="13.1997267"><ele>319.5</ele><time>2026-05-02T08:32:06.981Z</time></trkpt><trkpt lat="43.1403283" lon="13.1996917"><ele>321.0</ele><time>2026-05-02T08:32:07.981Z</time></trkpt><trkpt lat="43.1402217" lon="13.1996417"><ele>322.5</ele><time>2026-05-02T08:32:08.981Z</time></trkpt><trkpt lat="43.1401117" lon="13.199585"><ele>324.0</ele><time>2026-05-02T08:32:09.982Z</time></trkpt><trkpt lat="43.1399983" lon="13.1995167"><ele>326.0</ele><time>2026-05-02T08:32:10.982Z</time></trkpt><trkpt lat="43.1398817" lon="13.19943"><ele>328.0</ele><time>2026-05-02T08:32:11.981Z</time></trkpt><trkpt lat="43.139765" lon="13.1993233"><ele>330.0</ele><time>2026-05-02T08:32:12.984Z</time></trkpt><trkpt lat="43.139655" lon="13.1992117"><ele>332.0</ele><time>2026-05-02T08:32:13.983Z</time></trkpt><trkpt lat="43.1395517" lon="13.1991183"><ele>332.0</ele><time>2026-05-02T08:32:14.981Z</time></trkpt><trkpt lat="43.13946" lon="13.1990517"><ele>332.0</ele><time>2026-05-02T08:32:15.982Z</time></trkpt><trkpt lat="43.1393817" lon="13.1990033"><ele>332.0</ele><time>2026-05-02T08:32:16.981Z</time></trkpt><trkpt lat="43.1393133" lon="13.198965"><ele>332.0</ele><time>2026-05-02T08:32:17.982Z</time></trkpt><trkpt lat="43.1391933" lon="13.1988983"><ele>332.0</ele><time>2026-05-02T08:32:19.981Z</time></trkpt><trkpt lat="43.1391233" lon="13.1988683"><ele>334.40000000000003</ele><time>2026-05-02T08:32:20.982Z</time></trkpt><trkpt lat="43.1390383" lon="13.19884"><ele>336.8</ele><time>2026-05-02T08:32:21.981Z</time></trkpt><trkpt lat="43.13894" lon="13.1988033"><ele>339.2</ele><time>2026-05-02T08:32:22.982Z</time></trkpt><trkpt lat="43.138825" lon="13.19876"><ele>341.6</ele><time>2026-05-02T08:32:23.981Z</time></trkpt><trkpt lat="43.1387017" lon="13.19871"><ele>344.0</ele><time>2026-05-02T08:32:24.982Z</time></trkpt><trkpt lat="43.1385633" lon="13.1986433"><ele>344.0</ele><time>2026-05-02T08:32:25.982Z</time></trkpt><trkpt lat="43.13842" lon="13.19858"><ele>344.0</ele><time>2026-05-02T08:32:26.982Z</time></trkpt><trkpt lat="43.1382717" lon="13.1985133"><ele>344.0</ele><time>2026-05-02T08:32:27.981Z</time></trkpt><trkpt lat="43.13812" lon="13.198445"><ele>348.0</ele><time>2026-05-02T08:32:28.981Z</time></trkpt><trkpt lat="43.137975" lon="13.19838"><ele>352.0</ele><time>2026-05-02T08:32:29.981Z</time></trkpt><trkpt lat="43.1378533" lon="13.1983217"><ele>356.0</ele><time>2026-05-02T08:32:30.981Z</time></trkpt><trkpt lat="43.1377517" lon="13.1982517"><ele>360.0</ele><time>2026-05-02T08:32:31.981Z</time></trkpt><trkpt lat="43.1376833" lon="13.19816"><ele>362.0</ele><time>2026-05-02T08:32:32.982Z</time></trkpt><trkpt lat="43.13764" lon="13.19804"><ele>364.0</ele><time>2026-05-02T08:32:33.982Z</time></trkpt><trkpt lat="43.13763" lon="13.19791"><ele>366.0</ele><time>2026-05-02T08:32:34.981Z</time></trkpt><trkpt lat="43.1376517" lon="13.197775"><ele>368.0</ele><time>2026-05-02T08:32:35.981Z</time></trkpt><trkpt lat="43.1377033" lon="13.1976367"><ele>370.0</ele><time>2026-05-02T08:32:36.983Z</time></trkpt><trkpt lat="43.1377817" lon="13.1974917"><ele>370.0</ele><time>2026-05-02T08:32:37.981Z</time></trkpt><trkpt lat="43.1378783" lon="13.1973367"><ele>370.0</ele><time>2026-05-02T08:32:38.981Z</time></trkpt><trkpt lat="43.1379917" lon="13.197175"><ele>370.0</ele><time>2026-05-02T08:32:39.981Z</time></trkpt><trkpt lat="43.13811" lon="13.1970183"><ele>372.0</ele><time>2026-05-02T08:32:40.982Z</time></trkpt><trkpt lat="43.1382333" lon="13.1968617"><ele>374.0</ele><time>2026-05-02T08:32:41.981Z</time></trkpt><trkpt lat="43.138355" lon="13.1967083"><ele>376.0</ele><time>2026-05-02T08:32:42.982Z</time></trkpt><trkpt lat="43.138465" lon="13.196555"><ele>382.66666666666663</ele><time>2026-05-02T08:32:43.981Z</time></trkpt><trkpt lat="43.1385733" lon="13.196395"><ele>389.3333333333333</ele><time>2026-05-02T08:32:44.983Z</time></trkpt><trkpt lat="43.13868" lon="13.1962367"><ele>396.0</ele><time>2026-05-02T08:32:45.981Z</time></trkpt><trkpt lat="43.1387967" lon="13.1960867"><ele>396.0</ele><time>2026-05-02T08:32:46.983Z</time></trkpt><trkpt lat="43.138915" lon="13.1959483"><ele>396.0</ele><time>2026-05-02T08:32:47.982Z</time></trkpt><trkpt lat="43.1390317" lon="13.1958083"><ele>396.0</ele><time>2026-05-02T08:32:48.981Z</time></trkpt><trkpt lat="43.1391533" lon="13.1956767"><ele>397.5</ele><time>2026-05-02T08:32:49.982Z</time></trkpt><trkpt lat="43.1392767" lon="13.1955617"><ele>399.0</ele><time>2026-05-02T08:32:50.981Z</time></trkpt><trkpt lat="43.1393867" lon="13.19547"><ele>400.5</ele><time>2026-05-02T08:32:51.982Z</time></trkpt><trkpt lat="43.1394883" lon="13.1954"><ele>402.0</ele><time>2026-05-02T08:32:52.982Z</time></trkpt><trkpt lat="43.13958" lon="13.1953517"><ele>402.0</ele><time>2026-05-02T08:32:53.981Z</time></trkpt><trkpt lat="43.13966" lon="13.1953133"><ele>402.0</ele><time>2026-05-02T08:32:54.981Z</time></trkpt><trkpt lat="43.1397333" lon="13.1952667"><ele>402.0</ele><time>2026-05-02T08:32:55.982Z</time></trkpt><trkpt lat="43.1397733" lon="13.1951833"><ele>402.0</ele><time>2026-05-02T08:32:56.983Z</time></trkpt><trkpt lat="43.13979" lon="13.1950983"><ele>402.0</ele><time>2026-05-02T08:32:57.981Z</time></trkpt><trkpt lat="43.1397617" lon="13.1949733"><ele>402.0</ele><time>2026-05-02T08:32:59.982Z</time></trkpt><trkpt lat="43.139655" lon="13.1949333"><ele>402.0</ele><time>2026-05-02T08:33:01.982Z</time></trkpt><trkpt lat="43.1395633" lon="13.1949333"><ele>402.0</ele><time>2026-05-02T08:33:02.981Z</time></trkpt><trkpt lat="43.1394717" lon="13.19494"><ele>402.0</ele><time>2026-05-02T08:33:03.981Z</time></trkpt><trkpt lat="43.1393833" lon="13.19495"><ele>402.0</ele><time>2026-05-02T08:33:04.981Z</time></trkpt><trkpt lat="43.1392933" lon="13.1949683"><ele>402.0</ele><time>2026-05-02T08:33:05.982Z</time></trkpt><trkpt lat="43.1392017" lon="13.1949933"><ele>402.0</ele><time>2026-05-02T08:33:06.982Z</time></trkpt><trkpt lat="43.13912" lon="13.1950117"><ele>402.0</ele><time>2026-05-02T08:33:07.982Z</time></trkpt><trkpt lat="43.1390383" lon="13.1950283"><ele>402.0</ele><time>2026-05-02T08:33:08.983Z</time></trkpt><trkpt lat="43.1389667" lon="13.1950383"><ele>402.0</ele><time>2026-05-02T08:33:09.981Z</time></trkpt><trkpt lat="43.13887" lon="13.1950017"><ele>402.0</ele><time>2026-05-02T08:33:11.982Z</time></trkpt><trkpt lat="43.1387617" lon="13.1950083"><ele>402.0</ele><time>2026-05-02T08:33:13.981Z</time></trkpt><trkpt lat="43.1386583" lon="13.194985"><ele>402.8</ele><time>2026-05-02T08:33:15.981Z</time></trkpt><trkpt lat="43.1385733" lon="13.194895"><ele>403.6</ele><time>2026-05-02T08:33:17.982Z</time></trkpt><trkpt lat="43.1385933" lon="13.1947383"><ele>404.40000000000003</ele><time>2026-05-02T08:33:19.982Z</time></trkpt><trkpt lat="43.13863" lon="13.1946583"><ele>405.20000000000005</ele><time>2026-05-02T08:33:20.982Z</time></trkpt><trkpt lat="43.1386833" lon="13.1945433"><ele>406.0</ele><time>2026-05-02T08:33:22.981Z</time></trkpt><trkpt lat="43.1386283" lon="13.1944217"><ele>406.0</ele><time>2026-05-02T08:33:25.982Z</time></trkpt><trkpt lat="43.1385183" lon="13.1943417"><ele>406.0</ele><time>2026-05-02T08:33:27.981Z</time></trkpt><trkpt lat="43.1384433" lon="13.1943117"><ele>406.0</ele><time>2026-05-02T08:33:28.982Z</time></trkpt><trkpt lat="43.1383567" lon="13.194275"><ele>406.0</ele><time>2026-05-02T08:33:29.981Z</time></trkpt><trkpt lat="43.1382617" lon="13.194235"><ele>406.0</ele><time>2026-05-02T08:33:30.981Z</time></trkpt><trkpt lat="43.1381583" lon="13.1941833"><ele>406.25</ele><time>2026-05-02T08:33:31.981Z</time></trkpt><trkpt lat="43.1380467" lon="13.1941317"><ele>406.5</ele><time>2026-05-02T08:33:32.982Z</time></trkpt><trkpt lat="43.1379333" lon="13.1940767"><ele>406.75</ele><time>2026-05-02T08:33:33.981Z</time></trkpt><trkpt lat="43.1378183" lon="13.1940117"><ele>407.0</ele><time>2026-05-02T08:33:34.982Z</time></trkpt><trkpt lat="43.1377017" lon="13.1939417"><ele>407.0</ele><time>2026-05-02T08:33:35.982Z</time></trkpt><trkpt lat="43.1375883" lon="13.1938633"><ele>407.0</ele><time>2026-05-02T08:33:36.982Z</time></trkpt><trkpt lat="43.1374767" lon="13.19379"><ele>407.0</ele><time>2026-05-02T08:33:37.981Z</time></trkpt><trkpt lat="43.1373633" lon="13.1937167"><ele>407.0</ele><time>2026-05-02T08:33:38.981Z</time></trkpt><trkpt lat="43.1372533" lon="13.193645"><ele>414.0</ele><time>2026-05-02T08:33:39.981Z</time></trkpt><trkpt lat="43.1371383" lon="13.1935733"><ele>421.0</ele><time>2026-05-02T08:33:40.982Z</time></trkpt><trkpt lat="43.1370167" lon="13.1934983"><ele>428.0</ele><time>2026-05-02T08:33:41.981Z</time></trkpt><trkpt lat="43.1368867" lon="13.1934217"><ele>435.0</ele><time>2026-05-02T08:33:42.981Z</time></trkpt><trkpt lat="43.1367567" lon="13.19334"><ele>435.0</ele><time>2026-05-02T08:33:43.983Z</time></trkpt><trkpt lat="43.1366317" lon="13.1932567"><ele>435.0</ele><time>2026-05-02T08:33:44.982Z</time></trkpt><trkpt lat="43.1365083" lon="13.1931717"><ele>435.0</ele><time>2026-05-02T08:33:45.982Z</time></trkpt><trkpt lat="43.1363867" lon="13.1930817"><ele>435.0</ele><time>2026-05-02T08:33:46.982Z</time></trkpt><trkpt lat="43.136265" lon="13.1929867"><ele>435.33333333333337</ele><time>2026-05-02T08:33:47.982Z</time></trkpt><trkpt lat="43.13614" lon="13.1928817"><ele>435.6666666666667</ele><time>2026-05-02T08:33:48.982Z</time></trkpt><trkpt lat="43.1360117" lon="13.1927733"><ele>436.0</ele><time>2026-05-02T08:33:49.981Z</time></trkpt><trkpt lat="43.1358833" lon="13.1926583"><ele>436.0</ele><time>2026-05-02T08:33:50.983Z</time></trkpt><trkpt lat="43.1357567" lon="13.1925367"><ele>436.0</ele><time>2026-05-02T08:33:51.982Z</time></trkpt><trkpt lat="43.1356317" lon="13.19241"><ele>436.0</ele><time>2026-05-02T08:33:52.981Z</time></trkpt><trkpt lat="43.1355083" lon="13.19228"><ele>439.6666666666667</ele><time>2026-05-02T08:33:53.982Z</time></trkpt><trkpt lat="43.1353833" lon="13.1921483"><ele>443.33333333333337</ele><time>2026-05-02T08:33:54.983Z</time></trkpt><trkpt lat="43.1352583" lon="13.1920217"><ele>447.0</ele><time>2026-05-02T08:33:55.982Z</time></trkpt><trkpt lat="43.1351367" lon="13.1918967"><ele>447.0</ele><time>2026-05-02T08:33:56.983Z</time></trkpt><trkpt lat="43.13502" lon="13.1917783"><ele>447.0</ele><time>2026-05-02T08:33:57.981Z</time></trkpt><trkpt lat="43.134915" lon="13.1916617"><ele>447.0</ele><time>2026-05-02T08:33:58.982Z</time></trkpt><trkpt lat="43.1348183" lon="13.19156"><ele>447.0</ele><time>2026-05-02T08:33:59.981Z</time></trkpt><trkpt lat="43.134725" lon="13.1914633"><ele>449.20000000000005</ele><time>2026-05-02T08:34:00.982Z</time></trkpt><trkpt lat="43.13464" lon="13.1913717"><ele>451.40000000000003</ele><time>2026-05-02T08:34:01.983Z</time></trkpt><trkpt lat="43.1345583" lon="13.1912833"><ele>453.59999999999997</ele><time>2026-05-02T08:34:02.982Z</time></trkpt><trkpt lat="43.1344783" lon="13.191195"><ele>455.79999999999995</ele><time>2026-05-02T08:34:03.982Z</time></trkpt><trkpt lat="43.1343917" lon="13.1911083"><ele>458.0</ele><time>2026-05-02T08:34:04.982Z</time></trkpt><trkpt lat="43.1343017" lon="13.19102"><ele>458.0</ele><time>2026-05-02T08:34:05.981Z</time></trkpt><trkpt lat="43.134205" lon="13.190915"><ele>458.0</ele><time>2026-05-02T08:34:06.983Z</time></trkpt><trkpt lat="43.134115" lon="13.1908117"><ele>458.0</ele><time>2026-05-02T08:34:07.983Z</time></trkpt><trkpt lat="43.13402" lon="13.190705"><ele>458.0</ele><time>2026-05-02T08:34:08.982Z</time></trkpt><trkpt lat="43.1339233" lon="13.1906"><ele>463.25</ele><time>2026-05-02T08:34:09.982Z</time></trkpt><trkpt lat="43.13383" lon="13.1904983"><ele>468.5</ele><time>2026-05-02T08:34:10.985Z</time></trkpt><trkpt lat="43.1337367" lon="13.1903917"><ele>473.75</ele><time>2026-05-02T08:34:11.982Z</time></trkpt><trkpt lat="43.1336433" lon="13.1902867"><ele>479.0</ele><time>2026-05-02T08:34:12.983Z</time></trkpt><trkpt lat="43.1335533" lon="13.190185"><ele>479.0</ele><time>2026-05-02T08:34:13.981Z</time></trkpt><trkpt lat="43.1334683" lon="13.1900833"><ele>479.0</ele><time>2026-05-02T08:34:14.984Z</time></trkpt><trkpt lat="43.1333883" lon="13.1899817"><ele>479.0</ele><time>2026-05-02T08:34:15.981Z</time></trkpt><trkpt lat="43.1333017" lon="13.1898833"><ele>479.0</ele><time>2026-05-02T08:34:16.981Z</time></trkpt><trkpt lat="43.1332167" lon="13.189795"><ele>479.0</ele><time>2026-05-02T08:34:17.982Z</time></trkpt><trkpt lat="43.1331333" lon="13.1897067"><ele>481.79999999999995</ele><time>2026-05-02T08:34:18.982Z</time></trkpt><trkpt lat="43.1330483" lon="13.18962"><ele>484.59999999999997</ele><time>2026-05-02T08:34:19.982Z</time></trkpt><trkpt lat="43.1329633" lon="13.189535"><ele>487.4</ele><time>2026-05-02T08:34:20.983Z</time></trkpt><trkpt lat="43.13287" lon="13.1894517"><ele>490.2</ele><time>2026-05-02T08:34:21.983Z</time></trkpt><trkpt lat="43.1327817" lon="13.1893683"><ele>493.0</ele><time>2026-05-02T08:34:22.982Z</time></trkpt><trkpt lat="43.13269" lon="13.189285"><ele>493.0</ele><time>2026-05-02T08:34:23.983Z</time></trkpt><trkpt lat="43.1326" lon="13.1892033"><ele>492.99999999999994</ele><time>2026-05-02T08:34:24.983Z</time></trkpt><trkpt lat="43.1325083" lon="13.18912"><ele>492.99999999999994</ele><time>2026-05-02T08:34:25.983Z</time></trkpt><trkpt lat="43.1324117" lon="13.18904"><ele>493.0</ele><time>2026-05-02T08:34:26.982Z</time></trkpt><trkpt lat="43.132315" lon="13.1889583"><ele>493.0</ele><time>2026-05-02T08:34:27.983Z</time></trkpt><trkpt lat="43.1322217" lon="13.1888867"><ele>495.0</ele><time>2026-05-02T08:34:28.982Z</time></trkpt><trkpt lat="43.1321383" lon="13.1888217"><ele>496.99999999999994</ele><time>2026-05-02T08:34:29.984Z</time></trkpt><trkpt lat="43.1320517" lon="13.1887633"><ele>498.99999999999994</ele><time>2026-05-02T08:34:30.983Z</time></trkpt><trkpt lat="43.1319667" lon="13.18871"><ele>501.0</ele><time>2026-05-02T08:34:31.983Z</time></trkpt><trkpt lat="43.1318833" lon="13.1886633"><ele>503.0</ele><time>2026-05-02T08:34:32.983Z</time></trkpt><trkpt lat="43.1317967" lon="13.1886133"><ele>503.0</ele><time>2026-05-02T08:34:33.981Z</time></trkpt><trkpt lat="43.13171" lon="13.1885567"><ele>502.99999999999994</ele><time>2026-05-02T08:34:34.982Z</time></trkpt><trkpt lat="43.13162" lon="13.1884933"><ele>502.99999999999994</ele><time>2026-05-02T08:34:35.982Z</time></trkpt><trkpt lat="43.13152" lon="13.1884333"><ele>503.0</ele><time>2026-05-02T08:34:36.983Z</time></trkpt><trkpt lat="43.1314183" lon="13.18838"><ele>503.0</ele><time>2026-05-02T08:34:37.981Z</time></trkpt><trkpt lat="43.1313133" lon="13.1883317"><ele>503.2</ele><time>2026-05-02T08:34:38.984Z</time></trkpt><trkpt lat="43.131205" lon="13.1882883"><ele>503.4</ele><time>2026-05-02T08:34:39.984Z</time></trkpt><trkpt lat="43.1311033" lon="13.1882417"><ele>503.59999999999997</ele><time>2026-05-02T08:34:40.983Z</time></trkpt><trkpt lat="43.1310067" lon="13.1882017"><ele>503.79999999999995</ele><time>2026-05-02T08:34:41.983Z</time></trkpt><trkpt lat="43.1309233" lon="13.18817"><ele>504.0</ele><time>2026-05-02T08:34:42.983Z</time></trkpt><trkpt lat="43.13084" lon="13.1881483"><ele>504.0</ele><time>2026-05-02T08:34:43.982Z</time></trkpt><trkpt lat="43.1307583" lon="13.18813"><ele>504.0</ele><time>2026-05-02T08:34:44.983Z</time></trkpt><trkpt lat="43.13067" lon="13.1881183"><ele>504.0</ele><time>2026-05-02T08:34:45.983Z</time></trkpt><trkpt lat="43.1305767" lon="13.1881133"><ele>504.0</ele><time>2026-05-02T08:34:46.983Z</time></trkpt><trkpt lat="43.13048" lon="13.188105"><ele>504.0</ele><time>2026-05-02T08:34:47.983Z</time></trkpt><trkpt lat="43.1303817" lon="13.188105"><ele>507.79999999999995</ele><time>2026-05-02T08:34:48.983Z</time></trkpt><trkpt lat="43.130285" lon="13.188105"><ele>511.59999999999997</ele><time>2026-05-02T08:34:49.982Z</time></trkpt><trkpt lat="43.13018" lon="13.1880967"><ele>515.4</ele><time>2026-05-02T08:34:50.983Z</time></trkpt><trkpt lat="43.13008" lon="13.188075"><ele>519.1999999999999</ele><time>2026-05-02T08:34:51.983Z</time></trkpt><trkpt lat="43.12997" lon="13.1880483"><ele>523.0</ele><time>2026-05-02T08:34:52.982Z</time></trkpt><trkpt lat="43.12986" lon="13.1880283"><ele>527.6</ele><time>2026-05-02T08:34:53.982Z</time></trkpt><trkpt lat="43.12975" lon="13.1880083"><ele>532.1999999999999</ele><time>2026-05-02T08:34:54.984Z</time></trkpt><trkpt lat="43.1296417" lon="13.18799"><ele>536.8</ele><time>2026-05-02T08:34:55.981Z</time></trkpt><trkpt lat="43.1295333" lon="13.1879667"><ele>541.4</ele><time>2026-05-02T08:34:56.982Z</time></trkpt><trkpt lat="43.1294217" lon="13.1879267"><ele>546.0</ele><time>2026-05-02T08:34:57.981Z</time></trkpt><trkpt lat="43.1293133" lon="13.18787"><ele>546.0</ele><time>2026-05-02T08:34:58.983Z</time></trkpt><trkpt lat="43.1292167" lon="13.1878"><ele>546.0</ele><time>2026-05-02T08:34:59.981Z</time></trkpt><trkpt lat="43.12912" lon="13.1877283"><ele>546.0</ele><time>2026-05-02T08:35:00.982Z</time></trkpt><trkpt lat="43.1290367" lon="13.1876617"><ele>546.0</ele><time>2026-05-02T08:35:01.983Z</time></trkpt><trkpt lat="43.1289617" lon="13.18761"><ele>546.0</ele><time>2026-05-02T08:35:02.982Z</time></trkpt><trkpt lat="43.12888" lon="13.1875633"><ele>552.0</ele><time>2026-05-02T08:35:03.981Z</time></trkpt><trkpt lat="43.1287933" lon="13.18753"><ele>558.0</ele><time>2026-05-02T08:35:04.98Z</time></trkpt><trkpt lat="43.1287033" lon="13.1874917"><ele>564.0</ele><time>2026-05-02T08:35:05.98Z</time></trkpt><trkpt lat="43.12861" lon="13.187455"><ele>570.0</ele><time>2026-05-02T08:35:06.98Z</time></trkpt><trkpt lat="43.12852" lon="13.18742"><ele>576.0</ele><time>2026-05-02T08:35:07.98Z</time></trkpt><trkpt lat="43.1284333" lon="13.1873933"><ele>576.0</ele><time>2026-05-02T08:35:08.981Z</time></trkpt><trkpt lat="43.1283483" lon="13.187365"><ele>576.0</ele><time>2026-05-02T08:35:09.982Z</time></trkpt><trkpt lat="43.128265" lon="13.1873417"><ele>576.0</ele><time>2026-05-02T08:35:10.982Z</time></trkpt><trkpt lat="43.12818" lon="13.1873133"><ele>576.0</ele><time>2026-05-02T08:35:11.981Z</time></trkpt><trkpt lat="43.1280917" lon="13.1872767"><ele>576.0</ele><time>2026-05-02T08:35:12.981Z</time></trkpt><trkpt lat="43.127995" lon="13.1872317"><ele>576.4</ele><time>2026-05-02T08:35:13.98Z</time></trkpt><trkpt lat="43.1278967" lon="13.1871717"><ele>576.8</ele><time>2026-05-02T08:35:14.982Z</time></trkpt><trkpt lat="43.1277983" lon="13.1871117"><ele>577.1999999999999</ele><time>2026-05-02T08:35:15.982Z</time></trkpt><trkpt lat="43.1277017" lon="13.1870533"><ele>577.6</ele><time>2026-05-02T08:35:16.982Z</time></trkpt><trkpt lat="43.1276067" lon="13.186995"><ele>578.0</ele><time>2026-05-02T08:35:17.981Z</time></trkpt><trkpt lat="43.1275167" lon="13.1869367"><ele>578.0</ele><time>2026-05-02T08:35:18.982Z</time></trkpt><trkpt lat="43.1274233" lon="13.1868783"><ele>578.0</ele><time>2026-05-02T08:35:19.982Z</time></trkpt><trkpt lat="43.1273267" lon="13.1868217"><ele>578.0</ele><time>2026-05-02T08:35:20.982Z</time></trkpt><trkpt lat="43.12722" lon="13.1867683"><ele>578.0</ele><time>2026-05-02T08:35:21.982Z</time></trkpt><trkpt lat="43.1271083" lon="13.1867067"><ele>578.0</ele><time>2026-05-02T08:35:22.981Z</time></trkpt><trkpt lat="43.1270017" lon="13.1866317"><ele>582.75</ele><time>2026-05-02T08:35:23.981Z</time></trkpt><trkpt lat="43.1268967" lon="13.1865467"><ele>587.5</ele><time>2026-05-02T08:35:24.981Z</time></trkpt><trkpt lat="43.1267983" lon="13.1864517"><ele>592.25</ele><time>2026-05-02T08:35:25.981Z</time></trkpt><trkpt lat="43.1266867" lon="13.18635"><ele>597.0</ele><time>2026-05-02T08:35:26.981Z</time></trkpt><trkpt lat="43.126575" lon="13.18625"><ele>605.5</ele><time>2026-05-02T08:35:27.98Z</time></trkpt><trkpt lat="43.1264633" lon="13.1861517"><ele>614.0</ele><time>2026-05-02T08:35:28.982Z</time></trkpt><trkpt lat="43.1263567" lon="13.18605"><ele>622.5</ele><time>2026-05-02T08:35:29.981Z</time></trkpt><trkpt lat="43.1262483" lon="13.1859483"><ele>631.0</ele><time>2026-05-02T08:35:30.982Z</time></trkpt><trkpt lat="43.1261333" lon="13.1858533"><ele>631.0</ele><time>2026-05-02T08:35:31.981Z</time></trkpt><trkpt lat="43.1260233" lon="13.1857567"><ele>631.0</ele><time>2026-05-02T08:35:32.982Z</time></trkpt><trkpt lat="43.125925" lon="13.185665"><ele>631.0</ele><time>2026-05-02T08:35:33.981Z</time></trkpt><trkpt lat="43.1258433" lon="13.18559"><ele>631.0</ele><time>2026-05-02T08:35:34.982Z</time></trkpt><trkpt lat="43.1257783" lon="13.1855267"><ele>631.0</ele><time>2026-05-02T08:35:35.981Z</time></trkpt><trkpt lat="43.125725" lon="13.18547"><ele>631.0</ele><time>2026-05-02T08:35:36.981Z</time></trkpt><trkpt lat="43.12569" lon="13.1853617"><ele>631.0</ele><time>2026-05-02T08:35:38.981Z</time></trkpt><trkpt lat="43.1256983" lon="13.1852733"><ele>631.0</ele><time>2026-05-02T08:35:52.982Z</time></trkpt><trkpt lat="43.12574" lon="13.1851583"><ele>631.0</ele><time>2026-05-02T08:35:54.981Z</time></trkpt><trkpt lat="43.125815" lon="13.1850133"><ele>631.0</ele><time>2026-05-02T08:35:56.984Z</time></trkpt><trkpt lat="43.125865" lon="13.18493"><ele>631.0</ele><time>2026-05-02T08:35:57.981Z</time></trkpt><trkpt lat="43.125925" lon="13.1848467"><ele>631.0</ele><time>2026-05-02T08:35:58.982Z</time></trkpt><trkpt lat="43.125985" lon="13.1847517"><ele>631.0</ele><time>2026-05-02T08:35:59.981Z</time></trkpt><trkpt lat="43.1260467" lon="13.1846567"><ele>631.0</ele><time>2026-05-02T08:36:00.981Z</time></trkpt><trkpt lat="43.1261017" lon="13.1845783"><ele>631.0</ele><time>2026-05-02T08:36:01.982Z</time></trkpt><trkpt lat="43.12616" lon="13.184525"><ele>631.0</ele><time>2026-05-02T08:36:02.981Z</time></trkpt><trkpt lat="43.1262233" lon="13.184495"><ele>634.1666666666667</ele><time>2026-05-02T08:36:03.981Z</time></trkpt><trkpt lat="43.12629" lon="13.1844967"><ele>637.3333333333334</ele><time>2026-05-02T08:36:04.982Z</time></trkpt><trkpt lat="43.1263633" lon="13.184495"><ele>640.5</ele><time>2026-05-02T08:36:05.981Z</time></trkpt><trkpt lat="43.1264517" lon="13.184475"><ele>643.6666666666666</ele><time>2026-05-02T08:36:06.982Z</time></trkpt><trkpt lat="43.1265433" lon="13.1844417"><ele>646.8333333333333</ele><time>2026-05-02T08:36:07.982Z</time></trkpt><trkpt lat="43.1266333" lon="13.1844183"><ele>650.0</ele><time>2026-05-02T08:36:08.981Z</time></trkpt><trkpt lat="43.1267283" lon="13.18441"><ele>650.0</ele><time>2026-05-02T08:36:09.981Z</time></trkpt><trkpt lat="43.1268267" lon="13.18442"><ele>650.0</ele><time>2026-05-02T08:36:10.982Z</time></trkpt><trkpt lat="43.1269267" lon="13.184445"><ele>650.0</ele><time>2026-05-02T08:36:11.982Z</time></trkpt><trkpt lat="43.1270217" lon="13.1844667"><ele>650.0</ele><time>2026-05-02T08:36:12.981Z</time></trkpt><trkpt lat="43.127115" lon="13.184465"><ele>650.0</ele><time>2026-05-02T08:36:13.982Z</time></trkpt><trkpt lat="43.1272167" lon="13.184445"><ele>650.0</ele><time>2026-05-02T08:36:14.982Z</time></trkpt><trkpt lat="43.127315" lon="13.18442"><ele>650.0</ele><time>2026-05-02T08:36:15.982Z</time></trkpt><trkpt lat="43.1274183" lon="13.184395"><ele>650.0</ele><time>2026-05-02T08:36:16.982Z</time></trkpt><trkpt lat="43.1275333" lon="13.1843717"><ele>650.0</ele><time>2026-05-02T08:36:17.982Z</time></trkpt><trkpt lat="43.127635" lon="13.1843383"><ele>650.0</ele><time>2026-05-02T08:36:18.981Z</time></trkpt><trkpt lat="43.1277267" lon="13.1842883"><ele>652.8</ele><time>2026-05-02T08:36:19.982Z</time></trkpt><trkpt lat="43.127815" lon="13.1842183"><ele>655.6</ele><time>2026-05-02T08:36:20.982Z</time></trkpt><trkpt lat="43.127895" lon="13.1841217"><ele>658.4000000000001</ele><time>2026-05-02T08:36:21.981Z</time></trkpt><trkpt lat="43.12797" lon="13.1840433"><ele>661.2</ele><time>2026-05-02T08:36:22.981Z</time></trkpt><trkpt lat="43.1280417" lon="13.1839883"><ele>664.0</ele><time>2026-05-02T08:36:23.981Z</time></trkpt><trkpt lat="43.12812" lon="13.183955"><ele>670.4000000000001</ele><time>2026-05-02T08:36:24.983Z</time></trkpt><trkpt lat="43.1282017" lon="13.1839667"><ele>676.8</ele><time>2026-05-02T08:36:25.982Z</time></trkpt><trkpt lat="43.1282733" lon="13.183965"><ele>683.2</ele><time>2026-05-02T08:36:26.983Z</time></trkpt><trkpt lat="43.1283417" lon="13.1839583"><ele>689.5999999999999</ele><time>2026-05-02T08:36:27.981Z</time></trkpt><trkpt lat="43.1284483" lon="13.1839033"><ele>696.0</ele><time>2026-05-02T08:36:29.982Z</time></trkpt><trkpt lat="43.1285517" lon="13.183805"><ele>696.1666666666666</ele><time>2026-05-02T08:36:31.982Z</time></trkpt><trkpt lat="43.1286183" lon="13.1837467"><ele>696.3333333333334</ele><time>2026-05-02T08:36:32.982Z</time></trkpt><trkpt lat="43.1286883" lon="13.18369"><ele>696.5</ele><time>2026-05-02T08:36:33.981Z</time></trkpt><trkpt lat="43.12877" lon="13.1836417"><ele>696.6666666666667</ele><time>2026-05-02T08:36:34.981Z</time></trkpt><trkpt lat="43.1288483" lon="13.1835983"><ele>696.8333333333334</ele><time>2026-05-02T08:36:35.981Z</time></trkpt><trkpt lat="43.1289183" lon="13.1835767"><ele>697.0</ele><time>2026-05-02T08:36:36.982Z</time></trkpt><trkpt lat="43.1289867" lon="13.1835483"><ele>697.0</ele><time>2026-05-02T08:36:37.981Z</time></trkpt><trkpt lat="43.1290567" lon="13.1835033"><ele>697.0</ele><time>2026-05-02T08:36:38.981Z</time></trkpt><trkpt lat="43.1291233" lon="13.1834417"><ele>697.0</ele><time>2026-05-02T08:36:39.981Z</time></trkpt><trkpt lat="43.129195" lon="13.18337"><ele>697.0</ele><time>2026-05-02T08:36:40.981Z</time></trkpt><trkpt lat="43.1292717" lon="13.18329"><ele>697.0</ele><time>2026-05-02T08:36:41.982Z</time></trkpt><trkpt lat="43.129355" lon="13.1832167"><ele>697.0</ele><time>2026-05-02T08:36:42.981Z</time></trkpt><trkpt lat="43.129445" lon="13.183145"><ele>700.2</ele><time>2026-05-02T08:36:43.982Z</time></trkpt><trkpt lat="43.129535" lon="13.183075"><ele>703.4000000000001</ele><time>2026-05-02T08:36:44.981Z</time></trkpt><trkpt lat="43.1296183" lon="13.1829883"><ele>706.5999999999999</ele><time>2026-05-02T08:36:45.982Z</time></trkpt><trkpt lat="43.1296967" lon="13.1829033"><ele>709.8</ele><time>2026-05-02T08:36:46.982Z</time></trkpt><trkpt lat="43.1297733" lon="13.18281"><ele>713.0</ele><time>2026-05-02T08:36:47.984Z</time></trkpt><trkpt lat="43.1298467" lon="13.182715"><ele>714.4</ele><time>2026-05-02T08:36:48.981Z</time></trkpt><trkpt lat="43.1299183" lon="13.1826183"><ele>715.8</ele><time>2026-05-02T08:36:49.981Z</time></trkpt><trkpt lat="43.1299867" lon="13.1825217"><ele>717.2</ele><time>2026-05-02T08:36:50.982Z</time></trkpt><trkpt lat="43.1300517" lon="13.1824233"><ele>718.6</ele><time>2026-05-02T08:36:51.981Z</time></trkpt><trkpt lat="43.13012" lon="13.1823233"><ele>720.0</ele><time>2026-05-02T08:36:52.982Z</time></trkpt><trkpt lat="43.1301867" lon="13.18223"><ele>720.0</ele><time>2026-05-02T08:36:53.981Z</time></trkpt><trkpt lat="43.1302383" lon="13.1821417"><ele>720.0</ele><time>2026-05-02T08:36:54.982Z</time></trkpt><trkpt lat="43.130285" lon="13.1820483"><ele>720.0</ele><time>2026-05-02T08:36:55.982Z</time></trkpt><trkpt lat="43.1303067" lon="13.1819417"><ele>720.0</ele><time>2026-05-02T08:36:56.983Z</time></trkpt><trkpt lat="43.1303317" lon="13.1818217"><ele>720.0</ele><time>2026-05-02T08:36:57.981Z</time></trkpt><trkpt lat="43.130355" lon="13.1817"><ele>720.0</ele><time>2026-05-02T08:36:58.982Z</time></trkpt><trkpt lat="43.1303733" lon="13.18158"><ele>721.6</ele><time>2026-05-02T08:36:59.982Z</time></trkpt><trkpt lat="43.1303917" lon="13.18146"><ele>723.2</ele><time>2026-05-02T08:37:00.982Z</time></trkpt><trkpt lat="43.1304033" lon="13.181345"><ele>724.8</ele><time>2026-05-02T08:37:01.982Z</time></trkpt><trkpt lat="43.1304133" lon="13.1812417"><ele>726.4</ele><time>2026-05-02T08:37:02.981Z</time></trkpt><trkpt lat="43.130405" lon="13.1810867"><ele>728.0</ele><time>2026-05-02T08:37:04.981Z</time></trkpt><trkpt lat="43.1303467" lon="13.1809733"><ele>728.0</ele><time>2026-05-02T08:37:06.982Z</time></trkpt><trkpt lat="43.1302483" lon="13.1809567"><ele>728.0</ele><time>2026-05-02T08:37:08.981Z</time></trkpt><trkpt lat="43.130185" lon="13.180985"><ele>728.0</ele><time>2026-05-02T08:37:09.981Z</time></trkpt><trkpt lat="43.130115" lon="13.1810033"><ele>728.0</ele><time>2026-05-02T08:37:10.982Z</time></trkpt><trkpt lat="43.13005" lon="13.18102"><ele>728.0</ele><time>2026-05-02T08:37:11.982Z</time></trkpt><trkpt lat="43.12998" lon="13.1810367"><ele>728.0</ele><time>2026-05-02T08:37:12.982Z</time></trkpt><trkpt lat="43.1299117" lon="13.1810533"><ele>728.0</ele><time>2026-05-02T08:37:13.982Z</time></trkpt><trkpt lat="43.1298383" lon="13.181065"><ele>730.5</ele><time>2026-05-02T08:37:14.982Z</time></trkpt><trkpt lat="43.12976" lon="13.181065"><ele>733.0</ele><time>2026-05-02T08:37:15.982Z</time></trkpt><trkpt lat="43.1296867" lon="13.18106"><ele>735.5</ele><time>2026-05-02T08:37:16.983Z</time></trkpt><trkpt lat="43.1296117" lon="13.18104"><ele>738.0</ele><time>2026-05-02T08:37:17.982Z</time></trkpt><trkpt lat="43.1295283" lon="13.1810233"><ele>740.5</ele><time>2026-05-02T08:37:18.982Z</time></trkpt><trkpt lat="43.1294417" lon="13.1810083"><ele>743.0</ele><time>2026-05-02T08:37:19.981Z</time></trkpt><trkpt lat="43.1293567" lon="13.1809867"><ele>743.0</ele><time>2026-05-02T08:37:20.982Z</time></trkpt><trkpt lat="43.1292683" lon="13.1809517"><ele>743.0</ele><time>2026-05-02T08:37:21.981Z</time></trkpt><trkpt lat="43.1291783" lon="13.18091"><ele>743.0</ele><time>2026-05-02T08:37:22.981Z</time></trkpt><trkpt lat="43.1290883" lon="13.1808667"><ele>743.0</ele><time>2026-05-02T08:37:23.982Z</time></trkpt><trkpt lat="43.1289933" lon="13.1808217"><ele>743.0</ele><time>2026-05-02T08:37:24.982Z</time></trkpt><trkpt lat="43.1288933" lon="13.180765"><ele>745.5</ele><time>2026-05-02T08:37:25.981Z</time></trkpt><trkpt lat="43.12879" lon="13.1807"><ele>748.0</ele><time>2026-05-02T08:37:26.983Z</time></trkpt><trkpt lat="43.1286817" lon="13.1806417"><ele>750.5</ele><time>2026-05-02T08:37:27.981Z</time></trkpt><trkpt lat="43.1285667" lon="13.1805933"><ele>753.0</ele><time>2026-05-02T08:37:28.982Z</time></trkpt><trkpt lat="43.128455" lon="13.1805483"><ele>754.5999999999999</ele><time>2026-05-02T08:37:29.982Z</time></trkpt><trkpt lat="43.1283533" lon="13.1804917"><ele>756.1999999999999</ele><time>2026-05-02T08:37:30.983Z</time></trkpt><trkpt lat="43.1282617" lon="13.180435"><ele>757.8</ele><time>2026-05-02T08:37:31.981Z</time></trkpt><trkpt lat="43.1281717" lon="13.1803833"><ele>759.4</ele><time>2026-05-02T08:37:32.982Z</time></trkpt><trkpt lat="43.1280817" lon="13.1803317"><ele>761.0</ele><time>2026-05-02T08:37:33.982Z</time></trkpt><trkpt lat="43.1279883" lon="13.180285"><ele>763.5999999999999</ele><time>2026-05-02T08:37:34.983Z</time></trkpt><trkpt lat="43.127895" lon="13.180235"><ele>766.2</ele><time>2026-05-02T08:37:35.983Z</time></trkpt><trkpt lat="43.1277967" lon="13.1801733"><ele>768.8</ele><time>2026-05-02T08:37:36.983Z</time></trkpt><trkpt lat="43.1276967" lon="13.180115"><ele>771.4000000000001</ele><time>2026-05-02T08:37:37.982Z</time></trkpt><trkpt lat="43.1276017" lon="13.1800633"><ele>774.0</ele><time>2026-05-02T08:37:38.982Z</time></trkpt><trkpt lat="43.1275117" lon="13.1800117"><ele>774.0</ele><time>2026-05-02T08:37:39.982Z</time></trkpt><trkpt lat="43.1274317" lon="13.1799617"><ele>774.0</ele><time>2026-05-02T08:37:40.981Z</time></trkpt><trkpt lat="43.1273567" lon="13.1799133"><ele>774.0</ele><time>2026-05-02T08:37:41.982Z</time></trkpt><trkpt lat="43.1272817" lon="13.1798633"><ele>774.0</ele><time>2026-05-02T08:37:42.981Z</time></trkpt><trkpt lat="43.127205" lon="13.1798267"><ele>774.0</ele><time>2026-05-02T08:37:43.982Z</time></trkpt><trkpt lat="43.1271267" lon="13.179805"><ele>774.0</ele><time>2026-05-02T08:37:44.983Z</time></trkpt><trkpt lat="43.1270433" lon="13.1797867"><ele>777.8000000000001</ele><time>2026-05-02T08:37:45.982Z</time></trkpt><trkpt lat="43.1269533" lon="13.17976"><ele>781.6</ele><time>2026-05-02T08:37:46.981Z</time></trkpt><trkpt lat="43.1268617" lon="13.179735"><ele>785.4</ele><time>2026-05-02T08:37:47.981Z</time></trkpt><trkpt lat="43.1267683" lon="13.1797117"><ele>789.2</ele><time>2026-05-02T08:37:48.981Z</time></trkpt><trkpt lat="43.12668" lon="13.1796933"><ele>793.0</ele><time>2026-05-02T08:37:49.982Z</time></trkpt><trkpt lat="43.1265983" lon="13.1796817"><ele>794.0</ele><time>2026-05-02T08:37:50.983Z</time></trkpt><trkpt lat="43.1265133" lon="13.17967"><ele>795.0</ele><time>2026-05-02T08:37:51.982Z</time></trkpt><trkpt lat="43.12642" lon="13.17966"><ele>796.0</ele><time>2026-05-02T08:37:52.983Z</time></trkpt><trkpt lat="43.12633" lon="13.1796433"><ele>797.0</ele><time>2026-05-02T08:37:53.982Z</time></trkpt><trkpt lat="43.12624" lon="13.1796217"><ele>798.0</ele><time>2026-05-02T08:37:54.983Z</time></trkpt><trkpt lat="43.1261483" lon="13.1795933"><ele>798.0</ele><time>2026-05-02T08:37:55.981Z</time></trkpt><trkpt lat="43.1260583" lon="13.1795517"><ele>798.0</ele><time>2026-05-02T08:37:56.982Z</time></trkpt><trkpt lat="43.1259717" lon="13.1795033"><ele>798.0</ele><time>2026-05-02T08:37:57.981Z</time></trkpt><trkpt lat="43.1258883" lon="13.1794517"><ele>798.0</ele><time>2026-05-02T08:37:58.983Z</time></trkpt><trkpt lat="43.1258067" lon="13.1794"><ele>798.0</ele><time>2026-05-02T08:37:59.982Z</time></trkpt><trkpt lat="43.12573" lon="13.1793417"><ele>798.0</ele><time>2026-05-02T08:38:00.982Z</time></trkpt><trkpt lat="43.12566" lon="13.1792767"><ele>798.0</ele><time>2026-05-02T08:38:01.982Z</time></trkpt><trkpt lat="43.1255933" lon="13.17921"><ele>798.0</ele><time>2026-05-02T08:38:02.982Z</time></trkpt><trkpt lat="43.12552" lon="13.1791467"><ele>798.0</ele><time>2026-05-02T08:38:03.983Z</time></trkpt><trkpt lat="43.1254267" lon="13.17909"><ele>798.0</ele><time>2026-05-02T08:38:04.982Z</time></trkpt><trkpt lat="43.12533" lon="13.1790283"><ele>800.4</ele><time>2026-05-02T08:38:05.982Z</time></trkpt><trkpt lat="43.125235" lon="13.1789533"><ele>802.8</ele><time>2026-05-02T08:38:06.982Z</time></trkpt><trkpt lat="43.125145" lon="13.1788683"><ele>805.2</ele><time>2026-05-02T08:38:07.983Z</time></trkpt><trkpt lat="43.12506" lon="13.1787767"><ele>807.6</ele><time>2026-05-02T08:38:08.982Z</time></trkpt><trkpt lat="43.1249767" lon="13.1786833"><ele>810.0</ele><time>2026-05-02T08:38:09.982Z</time></trkpt><trkpt lat="43.1248867" lon="13.1785917"><ele>810.5</ele><time>2026-05-02T08:38:10.981Z</time></trkpt><trkpt lat="43.12479" lon="13.1785"><ele>811.0</ele><time>2026-05-02T08:38:11.982Z</time></trkpt><trkpt lat="43.1246883" lon="13.178415"><ele>811.5</ele><time>2026-05-02T08:38:12.981Z</time></trkpt><trkpt lat="43.124585" lon="13.178335"><ele>812.0</ele><time>2026-05-02T08:38:13.983Z</time></trkpt><trkpt lat="43.1244883" lon="13.1782483"><ele>813.2</ele><time>2026-05-02T08:38:14.982Z</time></trkpt><trkpt lat="43.1243933" lon="13.178165"><ele>814.4000000000001</ele><time>2026-05-02T08:38:15.981Z</time></trkpt><trkpt lat="43.1243083" lon="13.1781267"><ele>815.5999999999999</ele><time>2026-05-02T08:38:16.982Z</time></trkpt><trkpt lat="43.124215" lon="13.1781067"><ele>816.8</ele><time>2026-05-02T08:38:17.981Z</time></trkpt><trkpt lat="43.1241133" lon="13.1780817"><ele>818.0</ele><time>2026-05-02T08:38:18.982Z</time></trkpt><trkpt lat="43.1240083" lon="13.1780417"><ele>820.0</ele><time>2026-05-02T08:38:19.982Z</time></trkpt><trkpt lat="43.123905" lon="13.1779833"><ele>822.0</ele><time>2026-05-02T08:38:20.982Z</time></trkpt><trkpt lat="43.1238017" lon="13.1779067"><ele>824.0</ele><time>2026-05-02T08:38:21.984Z</time></trkpt><trkpt lat="43.1236967" lon="13.17782"><ele>826.0</ele><time>2026-05-02T08:38:22.981Z</time></trkpt><trkpt lat="43.12359" lon="13.1777317"><ele>826.0</ele><time>2026-05-02T08:38:23.982Z</time></trkpt><trkpt lat="43.1234833" lon="13.1776433"><ele>826.0</ele><time>2026-05-02T08:38:24.981Z</time></trkpt><trkpt lat="43.12337" lon="13.177555"><ele>826.0</ele><time>2026-05-02T08:38:25.983Z</time></trkpt><trkpt lat="43.123255" lon="13.177475"><ele>826.0</ele><time>2026-05-02T08:38:26.983Z</time></trkpt><trkpt lat="43.12314" lon="13.177395"><ele>831.0</ele><time>2026-05-02T08:38:27.983Z</time></trkpt><trkpt lat="43.12303" lon="13.1773183"><ele>836.0</ele><time>2026-05-02T08:38:28.981Z</time></trkpt><trkpt lat="43.1229233" lon="13.1772433"><ele>841.0</ele><time>2026-05-02T08:38:29.983Z</time></trkpt><trkpt lat="43.1228317" lon="13.177175"><ele>846.0</ele><time>2026-05-02T08:38:30.982Z</time></trkpt><trkpt lat="43.1227433" lon="13.177095"><ele>846.0</ele><time>2026-05-02T08:38:31.984Z</time></trkpt><trkpt lat="43.1226667" lon="13.1769967"><ele>846.0</ele><time>2026-05-02T08:38:32.982Z</time></trkpt><trkpt lat="43.1226067" lon="13.1768883"><ele>846.0</ele><time>2026-05-02T08:38:33.982Z</time></trkpt><trkpt lat="43.1225583" lon="13.17679"><ele>846.0</ele><time>2026-05-02T08:38:34.981Z</time></trkpt><trkpt lat="43.1225217" lon="13.1767033"><ele>846.0</ele><time>2026-05-02T08:38:35.981Z</time></trkpt><trkpt lat="43.1224883" lon="13.176625"><ele>846.0</ele><time>2026-05-02T08:38:36.981Z</time></trkpt><trkpt lat="43.1224433" lon="13.17655"><ele>848.1666666666666</ele><time>2026-05-02T08:38:37.982Z</time></trkpt><trkpt lat="43.122385" lon="13.1764883"><ele>850.3333333333333</ele><time>2026-05-02T08:38:38.983Z</time></trkpt><trkpt lat="43.1223133" lon="13.1764417"><ele>852.5</ele><time>2026-05-02T08:38:39.982Z</time></trkpt><trkpt lat="43.1222267" lon="13.176415"><ele>854.6666666666666</ele><time>2026-05-02T08:38:40.982Z</time></trkpt><trkpt lat="43.1221283" lon="13.1763983"><ele>856.8333333333333</ele><time>2026-05-02T08:38:41.982Z</time></trkpt><trkpt lat="43.12202" lon="13.1763917"><ele>859.0</ele><time>2026-05-02T08:38:42.984Z</time></trkpt><trkpt lat="43.1219233" lon="13.17639"><ele>858.9999999999999</ele><time>2026-05-02T08:38:43.981Z</time></trkpt><trkpt lat="43.12183" lon="13.17639"><ele>859.0</ele><time>2026-05-02T08:38:44.982Z</time></trkpt><trkpt lat="43.12174" lon="13.1763867"><ele>859.0</ele><time>2026-05-02T08:38:45.981Z</time></trkpt><trkpt lat="43.1216583" lon="13.1763683"><ele>859.0</ele><time>2026-05-02T08:38:46.982Z</time></trkpt><trkpt lat="43.1215883" lon="13.17633"><ele>858.9999999999999</ele><time>2026-05-02T08:38:47.982Z</time></trkpt><trkpt lat="43.1215283" lon="13.176275"><ele>859.0</ele><time>2026-05-02T08:38:48.983Z</time></trkpt><trkpt lat="43.12147" lon="13.17621"><ele>861.4999999999999</ele><time>2026-05-02T08:38:49.983Z</time></trkpt><trkpt lat="43.12141" lon="13.1761367"><ele>864.0</ele><time>2026-05-02T08:38:50.983Z</time></trkpt><trkpt lat="43.1213467" lon="13.1760617"><ele>866.5</ele><time>2026-05-02T08:38:51.982Z</time></trkpt><trkpt lat="43.1212817" lon="13.1759867"><ele>869.0</ele><time>2026-05-02T08:38:52.982Z</time></trkpt><trkpt lat="43.121215" lon="13.1759067"><ele>871.4999999999999</ele><time>2026-05-02T08:38:53.982Z</time></trkpt><trkpt lat="43.121145" lon="13.175825"><ele>874.0</ele><time>2026-05-02T08:38:54.98Z</time></trkpt><trkpt lat="43.1210767" lon="13.1757417"><ele>874.0</ele><time>2026-05-02T08:38:55.98Z</time></trkpt><trkpt lat="43.1210067" lon="13.1756583"><ele>874.0000000000001</ele><time>2026-05-02T08:38:56.982Z</time></trkpt><trkpt lat="43.120935" lon="13.17558"><ele>874.0000000000001</ele><time>2026-05-02T08:38:57.981Z</time></trkpt><trkpt lat="43.1208583" lon="13.1754967"><ele>874.0</ele><time>2026-05-02T08:38:58.982Z</time></trkpt><trkpt lat="43.12078" lon="13.1754183"><ele>874.0</ele><time>2026-05-02T08:38:59.982Z</time></trkpt><trkpt lat="43.120705" lon="13.1753433"><ele>876.4999999999999</ele><time>2026-05-02T08:39:00.981Z</time></trkpt><trkpt lat="43.1206317" lon="13.1752683"><ele>879.0</ele><time>2026-05-02T08:39:01.981Z</time></trkpt><trkpt lat="43.1205583" lon="13.1752017"><ele>881.5</ele><time>2026-05-02T08:39:02.981Z</time></trkpt><trkpt lat="43.12048" lon="13.1751433"><ele>884.0</ele><time>2026-05-02T08:39:03.982Z</time></trkpt><trkpt lat="43.1203983" lon="13.1750967"><ele>886.4999999999999</ele><time>2026-05-02T08:39:04.981Z</time></trkpt><trkpt lat="43.1203117" lon="13.1750567"><ele>889.0</ele><time>2026-05-02T08:39:05.982Z</time></trkpt><trkpt lat="43.1202233" lon="13.17502"><ele>889.0</ele><time>2026-05-02T08:39:06.982Z</time></trkpt><trkpt lat="43.120135" lon="13.1749783"><ele>889.0000000000001</ele><time>2026-05-02T08:39:07.982Z</time></trkpt><trkpt lat="43.120045" lon="13.1749217"><ele>889.0000000000001</ele><time>2026-05-02T08:39:08.982Z</time></trkpt><trkpt lat="43.1199517" lon="13.17486"><ele>889.0</ele><time>2026-05-02T08:39:09.982Z</time></trkpt><trkpt lat="43.1198483" lon="13.1747933"><ele>889.0</ele><time>2026-05-02T08:39:10.981Z</time></trkpt><trkpt lat="43.11974" lon="13.17473"><ele>891.6</ele><time>2026-05-02T08:39:11.982Z</time></trkpt><trkpt lat="43.1196333" lon="13.1746683"><ele>894.2</ele><time>2026-05-02T08:39:12.982Z</time></trkpt><trkpt lat="43.1195333" lon="13.1746083"><ele>896.8000000000001</ele><time>2026-05-02T08:39:13.981Z</time></trkpt><trkpt lat="43.1194333" lon="13.1745483"><ele>899.4000000000001</ele><time>2026-05-02T08:39:14.982Z</time></trkpt><trkpt lat="43.1193367" lon="13.1744883"><ele>902.0</ele><time>2026-05-02T08:39:15.981Z</time></trkpt><trkpt lat="43.1192467" lon="13.17442"><ele>902.0</ele><time>2026-05-02T08:39:16.981Z</time></trkpt><trkpt lat="43.1191583" lon="13.174345"><ele>902.0</ele><time>2026-05-02T08:39:17.981Z</time></trkpt><trkpt lat="43.1190717" lon="13.1742567"><ele>902.0</ele><time>2026-05-02T08:39:18.981Z</time></trkpt><trkpt lat="43.11899" lon="13.1741683"><ele>902.0</ele><time>2026-05-02T08:39:19.981Z</time></trkpt><trkpt lat="43.1189033" lon="13.1740767"><ele>902.0</ele><time>2026-05-02T08:39:20.982Z</time></trkpt><trkpt lat="43.1188117" lon="13.17399"><ele>905.8</ele><time>2026-05-02T08:39:21.982Z</time></trkpt><trkpt lat="43.1187217" lon="13.1739083"><ele>909.6</ele><time>2026-05-02T08:39:22.981Z</time></trkpt><trkpt lat="43.1186383" lon="13.1738433"><ele>913.3999999999999</ele><time>2026-05-02T08:39:23.982Z</time></trkpt><trkpt lat="43.1185567" lon="13.173795"><ele>917.1999999999999</ele><time>2026-05-02T08:39:24.982Z</time></trkpt><trkpt lat="43.1184783" lon="13.1737617"><ele>921.0</ele><time>2026-05-02T08:39:25.982Z</time></trkpt><trkpt lat="43.118395" lon="13.1737417"><ele>921.0</ele><time>2026-05-02T08:39:26.981Z</time></trkpt><trkpt lat="43.11831" lon="13.17373"><ele>921.0</ele><time>2026-05-02T08:39:27.981Z</time></trkpt><trkpt lat="43.1182233" lon="13.1737233"><ele>921.0</ele><time>2026-05-02T08:39:28.981Z</time></trkpt><trkpt lat="43.1181333" lon="13.17372"><ele>921.0</ele><time>2026-05-02T08:39:29.981Z</time></trkpt><trkpt lat="43.1180417" lon="13.173715"><ele>921.0</ele><time>2026-05-02T08:39:30.981Z</time></trkpt><trkpt lat="43.1179483" lon="13.1737133"><ele>921.0</ele><time>2026-05-02T08:39:31.982Z</time></trkpt><trkpt lat="43.11785" lon="13.1737117"><ele>923.5</ele><time>2026-05-02T08:39:32.981Z</time></trkpt><trkpt lat="43.1177483" lon="13.1737117"><ele>926.0</ele><time>2026-05-02T08:39:33.981Z</time></trkpt><trkpt lat="43.11764" lon="13.1737033"><ele>928.5</ele><time>2026-05-02T08:39:34.981Z</time></trkpt><trkpt lat="43.11752" lon="13.1737"><ele>931.0</ele><time>2026-05-02T08:39:35.982Z</time></trkpt><trkpt lat="43.1173967" lon="13.173705"><ele>933.4</ele><time>2026-05-02T08:39:36.982Z</time></trkpt><trkpt lat="43.117275" lon="13.17371"><ele>935.8</ele><time>2026-05-02T08:39:37.981Z</time></trkpt><trkpt lat="43.1171583" lon="13.17371"><ele>938.1999999999999</ele><time>2026-05-02T08:39:38.981Z</time></trkpt><trkpt lat="43.11705" lon="13.1737083"><ele>940.5999999999999</ele><time>2026-05-02T08:39:39.981Z</time></trkpt><trkpt lat="43.1169483" lon="13.1736967"><ele>943.0</ele><time>2026-05-02T08:39:40.982Z</time></trkpt><trkpt lat="43.1168567" lon="13.1736667"><ele>942.9999999999999</ele><time>2026-05-02T08:39:41.981Z</time></trkpt><trkpt lat="43.11677" lon="13.1736283"><ele>943.0</ele><time>2026-05-02T08:39:42.982Z</time></trkpt><trkpt lat="43.11668" lon="13.1735917"><ele>943.0</ele><time>2026-05-02T08:39:43.982Z</time></trkpt><trkpt lat="43.1165933" lon="13.1735667"><ele>943.0</ele><time>2026-05-02T08:39:44.982Z</time></trkpt><trkpt lat="43.1165067" lon="13.173545"><ele>942.9999999999999</ele><time>2026-05-02T08:39:45.981Z</time></trkpt><trkpt lat="43.11642" lon="13.1735317"><ele>943.0</ele><time>2026-05-02T08:39:46.982Z</time></trkpt><trkpt lat="43.1163267" lon="13.17353"><ele>945.8</ele><time>2026-05-02T08:39:47.982Z</time></trkpt><trkpt lat="43.1162333" lon="13.1735283"><ele>948.5999999999999</ele><time>2026-05-02T08:39:48.983Z</time></trkpt><trkpt lat="43.116135" lon="13.1735233"><ele>951.4000000000001</ele><time>2026-05-02T08:39:49.982Z</time></trkpt><trkpt lat="43.1160383" lon="13.173515"><ele>954.2</ele><time>2026-05-02T08:39:50.982Z</time></trkpt><trkpt lat="43.1159367" lon="13.17351"><ele>957.0</ele><time>2026-05-02T08:39:51.981Z</time></trkpt><trkpt lat="43.1158333" lon="13.17351"><ele>959.4000000000001</ele><time>2026-05-02T08:39:52.982Z</time></trkpt><trkpt lat="43.1157267" lon="13.1735183"><ele>961.8000000000001</ele><time>2026-05-02T08:39:53.981Z</time></trkpt><trkpt lat="43.1156233" lon="13.1735267"><ele>964.2</ele><time>2026-05-02T08:39:54.981Z</time></trkpt><trkpt lat="43.1155167" lon="13.1735233"><ele>966.6</ele><time>2026-05-02T08:39:55.981Z</time></trkpt><trkpt lat="43.1154083" lon="13.17351"><ele>969.0</ele><time>2026-05-02T08:39:56.982Z</time></trkpt><trkpt lat="43.1153033" lon="13.1735"><ele>969.0</ele><time>2026-05-02T08:39:57.981Z</time></trkpt><trkpt lat="43.1152033" lon="13.173495"><ele>969.0</ele><time>2026-05-02T08:39:58.981Z</time></trkpt><trkpt lat="43.1151017" lon="13.1735033"><ele>969.0</ele><time>2026-05-02T08:39:59.983Z</time></trkpt><trkpt lat="43.1150133" lon="13.1735167"><ele>969.0</ele><time>2026-05-02T08:40:00.981Z</time></trkpt><trkpt lat="43.114935" lon="13.1735317"><ele>969.0</ele><time>2026-05-02T08:40:01.981Z</time></trkpt><trkpt lat="43.1148683" lon="13.173545"><ele>969.0</ele><time>2026-05-02T08:40:02.981Z</time></trkpt><trkpt lat="43.114775" lon="13.17356"><ele>970.1666666666666</ele><time>2026-05-02T08:40:04.981Z</time></trkpt><trkpt lat="43.1146983" lon="13.1735833"><ele>971.3333333333333</ele><time>2026-05-02T08:40:06.982Z</time></trkpt><trkpt lat="43.1146233" lon="13.1736133"><ele>972.5</ele><time>2026-05-02T08:40:08.983Z</time></trkpt><trkpt lat="43.114535" lon="13.1736333"><ele>973.6666666666666</ele><time>2026-05-02T08:40:46.982Z</time></trkpt><trkpt lat="43.1144167" lon="13.1736533"><ele>974.8333333333333</ele><time>2026-05-02T08:40:48.982Z</time></trkpt><trkpt lat="43.114335" lon="13.173665"><ele>976.0</ele><time>2026-05-02T08:40:49.982Z</time></trkpt><trkpt lat="43.11424" lon="13.173665"><ele>976.0</ele><time>2026-05-02T08:40:50.982Z</time></trkpt><trkpt lat="43.1141233" lon="13.1736533"><ele>976.0</ele><time>2026-05-02T08:40:51.982Z</time></trkpt><trkpt lat="43.11399" lon="13.17363"><ele>976.0</ele><time>2026-05-02T08:40:52.982Z</time></trkpt><trkpt lat="43.1138567" lon="13.1736033"><ele>976.0</ele><time>2026-05-02T08:40:53.982Z</time></trkpt><trkpt lat="43.1137383" lon="13.17359"><ele>977.1999999999999</ele><time>2026-05-02T08:40:54.983Z</time></trkpt><trkpt lat="43.113635" lon="13.1736"><ele>978.3999999999999</ele><time>2026-05-02T08:40:55.981Z</time></trkpt><trkpt lat="43.1135367" lon="13.1736417"><ele>979.6</ele><time>2026-05-02T08:40:56.983Z</time></trkpt><trkpt lat="43.113435" lon="13.1737217"><ele>980.8</ele><time>2026-05-02T08:40:57.983Z</time></trkpt><trkpt lat="43.113335" lon="13.1738083"><ele>982.0</ele><time>2026-05-02T08:40:58.981Z</time></trkpt><trkpt lat="43.1132367" lon="13.17388"><ele>983.5</ele><time>2026-05-02T08:40:59.982Z</time></trkpt><trkpt lat="43.113135" lon="13.1739367"><ele>985.0</ele><time>2026-05-02T08:41:00.982Z</time></trkpt><trkpt lat="43.1130217" lon="13.1739833"><ele>986.5</ele><time>2026-05-02T08:41:01.982Z</time></trkpt><trkpt lat="43.1128983" lon="13.1740267"><ele>988.0</ele><time>2026-05-02T08:41:02.981Z</time></trkpt><trkpt lat="43.11277" lon="13.1740667"><ele>988.0</ele><time>2026-05-02T08:41:03.982Z</time></trkpt><trkpt lat="43.112645" lon="13.1740917"><ele>988.0</ele><time>2026-05-02T08:41:04.983Z</time></trkpt><trkpt lat="43.1125217" lon="13.174115"><ele>988.0</ele><time>2026-05-02T08:41:05.981Z</time></trkpt><trkpt lat="43.1123983" lon="13.1741317"><ele>988.0</ele><time>2026-05-02T08:41:06.981Z</time></trkpt><trkpt lat="43.1122733" lon="13.1741483"><ele>989.5</ele><time>2026-05-02T08:41:07.981Z</time></trkpt><trkpt lat="43.11215" lon="13.1741633"><ele>991.0</ele><time>2026-05-02T08:41:08.982Z</time></trkpt><trkpt lat="43.112035" lon="13.174185"><ele>992.5</ele><time>2026-05-02T08:41:09.981Z</time></trkpt><trkpt lat="43.111915" lon="13.174225"><ele>994.0</ele><time>2026-05-02T08:41:10.982Z</time></trkpt><trkpt lat="43.111795" lon="13.1742667"><ele>994.0</ele><time>2026-05-02T08:41:11.981Z</time></trkpt><trkpt lat="43.1116833" lon="13.174295"><ele>994.0000000000001</ele><time>2026-05-02T08:41:12.982Z</time></trkpt><trkpt lat="43.111575" lon="13.1743217"><ele>994.0000000000001</ele><time>2026-05-02T08:41:13.981Z</time></trkpt><trkpt lat="43.1114817" lon="13.174365"><ele>994.0</ele><time>2026-05-02T08:41:14.981Z</time></trkpt><trkpt lat="43.1114017" lon="13.1744417"><ele>994.0</ele><time>2026-05-02T08:41:15.981Z</time></trkpt><trkpt lat="43.11133" lon="13.1745567"><ele>995.5</ele><time>2026-05-02T08:41:16.981Z</time></trkpt><trkpt lat="43.111265" lon="13.1747"><ele>997.0</ele><time>2026-05-02T08:41:17.982Z</time></trkpt><trkpt lat="43.111195" lon="13.1748567"><ele>998.5</ele><time>2026-05-02T08:41:18.982Z</time></trkpt><trkpt lat="43.111125" lon="13.175015"><ele>1000.0</ele><time>2026-05-02T08:41:19.981Z</time></trkpt><trkpt lat="43.1110583" lon="13.1751667"><ele>1000.0</ele><time>2026-05-02T08:41:20.983Z</time></trkpt><trkpt lat="43.1109883" lon="13.17531"><ele>1000.0</ele><time>2026-05-02T08:41:21.981Z</time></trkpt><trkpt lat="43.1109267" lon="13.17544"><ele>1000.0</ele><time>2026-05-02T08:41:22.981Z</time></trkpt><trkpt lat="43.1108733" lon="13.1755583"><ele>1000.0</ele><time>2026-05-02T08:41:23.982Z</time></trkpt><trkpt lat="43.1108183" lon="13.1756667"><ele>1000.0</ele><time>2026-05-02T08:41:24.981Z</time></trkpt><trkpt lat="43.1107617" lon="13.1757667"><ele>1002.2</ele><time>2026-05-02T08:41:25.982Z</time></trkpt><trkpt lat="43.1107067" lon="13.1758617"><ele>1004.4</ele><time>2026-05-02T08:41:26.983Z</time></trkpt><trkpt lat="43.1106567" lon="13.1759633"><ele>1006.5999999999999</ele><time>2026-05-02T08:41:27.982Z</time></trkpt><trkpt lat="43.110605" lon="13.1760717"><ele>1008.8</ele><time>2026-05-02T08:41:28.981Z</time></trkpt><trkpt lat="43.11055" lon="13.1761833"><ele>1011.0</ele><time>2026-05-02T08:41:29.981Z</time></trkpt><trkpt lat="43.1104967" lon="13.1762983"><ele>1011.0</ele><time>2026-05-02T08:41:30.982Z</time></trkpt><trkpt lat="43.110445" lon="13.176415"><ele>1010.9999999999999</ele><time>2026-05-02T08:41:31.982Z</time></trkpt><trkpt lat="43.11039" lon="13.1765333"><ele>1010.9999999999999</ele><time>2026-05-02T08:41:32.982Z</time></trkpt><trkpt lat="43.11033" lon="13.1766567"><ele>1011.0</ele><time>2026-05-02T08:41:33.982Z</time></trkpt><trkpt lat="43.110265" lon="13.1767933"><ele>1011.0</ele><time>2026-05-02T08:41:34.981Z</time></trkpt><trkpt lat="43.1101967" lon="13.1769383"><ele>1010.5</ele><time>2026-05-02T08:41:35.981Z</time></trkpt><trkpt lat="43.1101317" lon="13.1770917"><ele>1010.0</ele><time>2026-05-02T08:41:36.982Z</time></trkpt><trkpt lat="43.110075" lon="13.1772533"><ele>1009.5</ele><time>2026-05-02T08:41:37.981Z</time></trkpt><trkpt lat="43.1100217" lon="13.1774133"><ele>1009.0</ele><time>2026-05-02T08:41:38.982Z</time></trkpt><trkpt lat="43.1099617" lon="13.1775817"><ele>1012.25</ele><time>2026-05-02T08:41:39.981Z</time></trkpt><trkpt lat="43.1098883" lon="13.177745"><ele>1015.5</ele><time>2026-05-02T08:41:40.982Z</time></trkpt><trkpt lat="43.10981" lon="13.1779083"><ele>1018.75</ele><time>2026-05-02T08:41:41.981Z</time></trkpt><trkpt lat="43.1097233" lon="13.1780867"><ele>1022.0</ele><time>2026-05-02T08:41:42.982Z</time></trkpt><trkpt lat="43.1096383" lon="13.17827"><ele>1022.0</ele><time>2026-05-02T08:41:43.981Z</time></trkpt><trkpt lat="43.1095517" lon="13.1784567"><ele>1022.0</ele><time>2026-05-02T08:41:44.982Z</time></trkpt><trkpt lat="43.10947" lon="13.178645"><ele>1022.0</ele><time>2026-05-02T08:41:45.981Z</time></trkpt><trkpt lat="43.1093867" lon="13.1788417"><ele>1021.3333333333334</ele><time>2026-05-02T08:41:46.981Z</time></trkpt><trkpt lat="43.109305" lon="13.1790383"><ele>1020.6666666666667</ele><time>2026-05-02T08:41:47.982Z</time></trkpt><trkpt lat="43.1092283" lon="13.179225"><ele>1020.0</ele><time>2026-05-02T08:41:48.983Z</time></trkpt><trkpt lat="43.1091567" lon="13.1794017"><ele>1020.0</ele><time>2026-05-02T08:41:49.984Z</time></trkpt><trkpt lat="43.10908" lon="13.1795717"><ele>1020.0</ele><time>2026-05-02T08:41:50.983Z</time></trkpt><trkpt lat="43.1090133" lon="13.1797217"><ele>1020.0</ele><time>2026-05-02T08:41:51.983Z</time></trkpt><trkpt lat="43.1089617" lon="13.17985"><ele>1020.0</ele><time>2026-05-02T08:41:52.983Z</time></trkpt><trkpt lat="43.10893" lon="13.1799467"><ele>1022.3333333333334</ele><time>2026-05-02T08:41:53.983Z</time></trkpt><trkpt lat="43.1088867" lon="13.1800667"><ele>1024.6666666666667</ele><time>2026-05-02T08:41:55.981Z</time></trkpt><trkpt lat="43.1088467" lon="13.1801983"><ele>1027.0</ele><time>2026-05-02T08:42:13.983Z</time></trkpt><trkpt lat="43.108845" lon="13.180295"><ele>1029.3333333333335</ele><time>2026-05-02T08:42:14.983Z</time></trkpt><trkpt lat="43.1088433" lon="13.180405"><ele>1031.6666666666667</ele><time>2026-05-02T08:42:15.982Z</time></trkpt><trkpt lat="43.1088367" lon="13.1805333"><ele>1034.0</ele><time>2026-05-02T08:42:16.982Z</time></trkpt><trkpt lat="43.1088267" lon="13.1806783"><ele>1033.6666666666667</ele><time>2026-05-02T08:42:17.982Z</time></trkpt><trkpt lat="43.108815" lon="13.1808233"><ele>1033.3333333333335</ele><time>2026-05-02T08:42:18.982Z</time></trkpt><trkpt lat="43.1088083" lon="13.1809517"><ele>1033.0</ele><time>2026-05-02T08:42:19.983Z</time></trkpt><trkpt lat="43.1088033" lon="13.1810583"><ele>1032.6666666666667</ele><time>2026-05-02T08:42:20.983Z</time></trkpt><trkpt lat="43.1087983" lon="13.181145"><ele>1032.3333333333333</ele><time>2026-05-02T08:42:21.982Z</time></trkpt><trkpt lat="43.1087933" lon="13.1812633"><ele>1032.0</ele><time>2026-05-02T08:42:23.982Z</time></trkpt><trkpt lat="43.1087817" lon="13.1813533"><ele>1032.0</ele><time>2026-05-02T08:42:26.982Z</time></trkpt><trkpt lat="43.1087767" lon="13.1814683"><ele>1032.0</ele><time>2026-05-02T08:42:29.982Z</time></trkpt><trkpt lat="43.1087767" lon="13.1815667"><ele>1032.0</ele><time>2026-05-02T08:42:32.983Z</time></trkpt><trkpt lat="43.10877" lon="13.1816717"><ele>1032.0</ele><time>2026-05-02T08:42:37.981Z</time></trkpt><trkpt lat="43.1087967" lon="13.181765"><ele>1032.0</ele><time>2026-05-02T08:42:39.982Z</time></trkpt><trkpt lat="43.108855" lon="13.1819283"><ele>1032.0</ele><time>2026-05-02T08:42:41.983Z</time></trkpt><trkpt lat="43.1088967" lon="13.182055"><ele>1032.25</ele><time>2026-05-02T08:42:42.981Z</time></trkpt><trkpt lat="43.1089533" lon="13.1822117"><ele>1032.5</ele><time>2026-05-02T08:42:43.982Z</time></trkpt><trkpt lat="43.1090033" lon="13.1823717"><ele>1032.75</ele><time>2026-05-02T08:42:44.982Z</time></trkpt><trkpt lat="43.10905" lon="13.1825233"><ele>1033.0</ele><time>2026-05-02T08:42:45.982Z</time></trkpt><trkpt lat="43.1090883" lon="13.1826683"><ele>1029.8</ele><time>2026-05-02T08:42:46.981Z</time></trkpt><trkpt lat="43.1091233" lon="13.1828133"><ele>1026.6</ele><time>2026-05-02T08:42:47.981Z</time></trkpt><trkpt lat="43.109155" lon="13.1829583"><ele>1023.4000000000001</ele><time>2026-05-02T08:42:48.981Z</time></trkpt><trkpt lat="43.10919" lon="13.1830933"><ele>1020.2</ele><time>2026-05-02T08:42:49.981Z</time></trkpt><trkpt lat="43.1092233" lon="13.1832133"><ele>1017.0</ele><time>2026-05-02T08:42:50.983Z</time></trkpt><trkpt lat="43.1092633" lon="13.183315"><ele>1017.0</ele><time>2026-05-02T08:42:51.982Z</time></trkpt><trkpt lat="43.1093133" lon="13.183405"><ele>1017.0</ele><time>2026-05-02T08:42:52.982Z</time></trkpt><trkpt lat="43.10938" lon="13.1834867"><ele>1017.0</ele><time>2026-05-02T08:42:53.981Z</time></trkpt><trkpt lat="43.1094667" lon="13.1835733"><ele>1017.0</ele><time>2026-05-02T08:42:54.982Z</time></trkpt><trkpt lat="43.1095633" lon="13.1836667"><ele>1017.0</ele><time>2026-05-02T08:42:55.981Z</time></trkpt><trkpt lat="43.109655" lon="13.1837667"><ele>1017.0</ele><time>2026-05-02T08:42:56.983Z</time></trkpt><trkpt lat="43.1097433" lon="13.1838717"><ele>1017.0</ele><time>2026-05-02T08:42:57.982Z</time></trkpt><trkpt lat="43.1098267" lon="13.1839783"><ele>1017.0</ele><time>2026-05-02T08:42:58.982Z</time></trkpt><trkpt lat="43.1099067" lon="13.184085"><ele>1017.0</ele><time>2026-05-02T08:42:59.982Z</time></trkpt><trkpt lat="43.1099833" lon="13.1841983"><ele>1013.5</ele><time>2026-05-02T08:43:00.982Z</time></trkpt><trkpt lat="43.1100617" lon="13.1843217"><ele>1010.0</ele><time>2026-05-02T08:43:01.981Z</time></trkpt><trkpt lat="43.11014" lon="13.1844533"><ele>1006.5</ele><time>2026-05-02T08:43:02.984Z</time></trkpt><trkpt lat="43.110215" lon="13.1845867"><ele>1003.0</ele><time>2026-05-02T08:43:03.982Z</time></trkpt><trkpt lat="43.11029" lon="13.1847217"><ele>1004.0</ele><time>2026-05-02T08:43:04.981Z</time></trkpt><trkpt lat="43.1103683" lon="13.184855"><ele>1005.0</ele><time>2026-05-02T08:43:05.982Z</time></trkpt><trkpt lat="43.1104467" lon="13.1849883"><ele>1006.0</ele><time>2026-05-02T08:43:06.982Z</time></trkpt><trkpt lat="43.11052" lon="13.1851167"><ele>1007.0</ele><time>2026-05-02T08:43:07.983Z</time></trkpt><trkpt lat="43.11059" lon="13.1852467"><ele>1007.0</ele><time>2026-05-02T08:43:08.983Z</time></trkpt><trkpt lat="43.11066" lon="13.1853717"><ele>1007.0</ele><time>2026-05-02T08:43:09.982Z</time></trkpt><trkpt lat="43.110725" lon="13.1854883"><ele>1007.0</ele><time>2026-05-02T08:43:10.982Z</time></trkpt><trkpt lat="43.1107833" lon="13.185595"><ele>1007.0</ele><time>2026-05-02T08:43:11.981Z</time></trkpt><trkpt lat="43.1108417" lon="13.185695"><ele>1007.0</ele><time>2026-05-02T08:43:12.981Z</time></trkpt><trkpt lat="43.1109067" lon="13.1857933"><ele>1002.25</ele><time>2026-05-02T08:43:13.983Z</time></trkpt><trkpt lat="43.110985" lon="13.1859067"><ele>997.5</ele><time>2026-05-02T08:43:14.983Z</time></trkpt><trkpt lat="43.1110667" lon="13.18603"><ele>992.75</ele><time>2026-05-02T08:43:15.981Z</time></trkpt><trkpt lat="43.1111517" lon="13.1861617"><ele>988.0</ele><time>2026-05-02T08:43:16.983Z</time></trkpt><trkpt lat="43.111235" lon="13.186295"><ele>988.0</ele><time>2026-05-02T08:43:17.981Z</time></trkpt><trkpt lat="43.11132" lon="13.186425"><ele>988.0</ele><time>2026-05-02T08:43:18.981Z</time></trkpt><trkpt lat="43.1114067" lon="13.1865517"><ele>988.0</ele><time>2026-05-02T08:43:19.983Z</time></trkpt><trkpt lat="43.1114917" lon="13.18667"><ele>988.0</ele><time>2026-05-02T08:43:20.982Z</time></trkpt><trkpt lat="43.1115767" lon="13.1867833"><ele>984.5</ele><time>2026-05-02T08:43:21.983Z</time></trkpt><trkpt lat="43.1116583" lon="13.1868967"><ele>981.0</ele><time>2026-05-02T08:43:22.982Z</time></trkpt><trkpt lat="43.1117433" lon="13.1870167"><ele>977.5</ele><time>2026-05-02T08:43:23.981Z</time></trkpt><trkpt lat="43.11183" lon="13.187125"><ele>974.0</ele><time>2026-05-02T08:43:24.981Z</time></trkpt><trkpt lat="43.1119133" lon="13.18723"><ele>974.0</ele><time>2026-05-02T08:43:25.98Z</time></trkpt><trkpt lat="43.1119917" lon="13.1873367"><ele>974.0000000000001</ele><time>2026-05-02T08:43:26.983Z</time></trkpt><trkpt lat="43.1120683" lon="13.1874367"><ele>974.0000000000001</ele><time>2026-05-02T08:43:27.98Z</time></trkpt><trkpt lat="43.11214" lon="13.1875317"><ele>974.0</ele><time>2026-05-02T08:43:28.98Z</time></trkpt><trkpt lat="43.112205" lon="13.187625"><ele>974.0</ele><time>2026-05-02T08:43:29.98Z</time></trkpt><trkpt lat="43.1122683" lon="13.1877083"><ele>974.8000000000001</ele><time>2026-05-02T08:43:30.98Z</time></trkpt><trkpt lat="43.11233" lon="13.1877833"><ele>975.6000000000001</ele><time>2026-05-02T08:43:31.981Z</time></trkpt><trkpt lat="43.1123917" lon="13.18786"><ele>976.4</ele><time>2026-05-02T08:43:32.981Z</time></trkpt><trkpt lat="43.112465" lon="13.1879517"><ele>977.2</ele><time>2026-05-02T08:43:33.98Z</time></trkpt><trkpt lat="43.112545" lon="13.1880567"><ele>978.0</ele><time>2026-05-02T08:43:34.98Z</time></trkpt><trkpt lat="43.1126267" lon="13.1881633"><ele>974.5</ele><time>2026-05-02T08:43:35.982Z</time></trkpt><trkpt lat="43.1127067" lon="13.1882733"><ele>971.0</ele><time>2026-05-02T08:43:36.982Z</time></trkpt><trkpt lat="43.11279" lon="13.18839"><ele>967.5</ele><time>2026-05-02T08:43:37.982Z</time></trkpt><trkpt lat="43.1128733" lon="13.188505"><ele>964.0</ele><time>2026-05-02T08:43:38.982Z</time></trkpt><trkpt lat="43.1129533" lon="13.1886133"><ele>964.0</ele><time>2026-05-02T08:43:39.981Z</time></trkpt><trkpt lat="43.1130317" lon="13.188715"><ele>964.0000000000001</ele><time>2026-05-02T08:43:40.981Z</time></trkpt><trkpt lat="43.11311" lon="13.1888117"><ele>964.0000000000001</ele><time>2026-05-02T08:43:41.98Z</time></trkpt><trkpt lat="43.1131817" lon="13.188905"><ele>964.0</ele><time>2026-05-02T08:43:42.981Z</time></trkpt><trkpt lat="43.1132467" lon="13.1889933"><ele>964.0</ele><time>2026-05-02T08:43:43.981Z</time></trkpt><trkpt lat="43.1133083" lon="13.1890733"><ele>961.6666666666666</ele><time>2026-05-02T08:43:44.981Z</time></trkpt><trkpt lat="43.113365" lon="13.1891483"><ele>959.3333333333333</ele><time>2026-05-02T08:43:45.981Z</time></trkpt><trkpt lat="43.1134233" lon="13.1892183"><ele>957.0</ele><time>2026-05-02T08:43:46.98Z</time></trkpt><trkpt lat="43.1134767" lon="13.1892867"><ele>954.6666666666667</ele><time>2026-05-02T08:43:47.981Z</time></trkpt><trkpt lat="43.1135267" lon="13.1893483"><ele>952.3333333333334</ele><time>2026-05-02T08:43:48.98Z</time></trkpt><trkpt lat="43.1136067" lon="13.1894417"><ele>950.0</ele><time>2026-05-02T08:43:50.981Z</time></trkpt><trkpt lat="43.1136517" lon="13.189505"><ele>950.0000000000001</ele><time>2026-05-02T08:43:52.981Z</time></trkpt><trkpt lat="43.1136133" lon="13.1895883"><ele>950.0</ele><time>2026-05-02T08:44:01.983Z</time></trkpt><trkpt lat="43.1135383" lon="13.18958"><ele>950.0</ele><time>2026-05-02T08:44:03.982Z</time></trkpt><trkpt lat="43.113445" lon="13.18949"><ele>950.0</ele><time>2026-05-02T08:44:05.981Z</time></trkpt><trkpt lat="43.1133983" lon="13.1894183"><ele>950.0000000000001</ele><time>2026-05-02T08:44:06.981Z</time></trkpt><trkpt lat="43.1133583" lon="13.18935"><ele>950.0</ele><time>2026-05-02T08:44:07.983Z</time></trkpt><trkpt lat="43.1132583" lon="13.1892833"><ele>953.3333333333334</ele><time>2026-05-02T08:44:09.981Z</time></trkpt><trkpt lat="43.11315" lon="13.1893283"><ele>956.6666666666667</ele><time>2026-05-02T08:44:11.981Z</time></trkpt><trkpt lat="43.1130983" lon="13.1893833"><ele>960.0</ele><time>2026-05-02T08:44:12.981Z</time></trkpt><trkpt lat="43.11304" lon="13.1894467"><ele>963.3333333333333</ele><time>2026-05-02T08:44:13.981Z</time></trkpt><trkpt lat="43.1129783" lon="13.1895167"><ele>966.6666666666666</ele><time>2026-05-02T08:44:14.981Z</time></trkpt><trkpt lat="43.11291" lon="13.18959"><ele>970.0</ele><time>2026-05-02T08:44:15.981Z</time></trkpt><trkpt lat="43.112845" lon="13.1896567"><ele>969.9999999999999</ele><time>2026-05-02T08:44:16.982Z</time></trkpt><trkpt lat="43.11278" lon="13.1897317"><ele>970.0</ele><time>2026-05-02T08:44:17.982Z</time></trkpt><trkpt lat="43.1127183" lon="13.1898133"><ele>970.0</ele><time>2026-05-02T08:44:18.981Z</time></trkpt><trkpt lat="43.1126683" lon="13.1899133"><ele>970.0</ele><time>2026-05-02T08:44:19.981Z</time></trkpt><trkpt lat="43.1126267" lon="13.1900217"><ele>969.9999999999999</ele><time>2026-05-02T08:44:20.981Z</time></trkpt><trkpt lat="43.1125833" lon="13.1901333"><ele>970.0</ele><time>2026-05-02T08:44:21.982Z</time></trkpt><trkpt lat="43.1125367" lon="13.190255"><ele>969.8</ele><time>2026-05-02T08:44:22.981Z</time></trkpt><trkpt lat="43.11249" lon="13.1903817"><ele>969.6</ele><time>2026-05-02T08:44:23.982Z</time></trkpt><trkpt lat="43.1124417" lon="13.1905083"><ele>969.4000000000001</ele><time>2026-05-02T08:44:24.982Z</time></trkpt><trkpt lat="43.1124017" lon="13.1906217"><ele>969.2</ele><time>2026-05-02T08:44:25.982Z</time></trkpt><trkpt lat="43.1123767" lon="13.1907233"><ele>969.0</ele><time>2026-05-02T08:44:26.981Z</time></trkpt><trkpt lat="43.11236" lon="13.190825"><ele>972.1666666666666</ele><time>2026-05-02T08:44:27.981Z</time></trkpt><trkpt lat="43.112345" lon="13.19092"><ele>975.3333333333333</ele><time>2026-05-02T08:44:28.981Z</time></trkpt><trkpt lat="43.1123183" lon="13.1910333"><ele>978.5</ele><time>2026-05-02T08:44:30.982Z</time></trkpt><trkpt lat="43.1122217" lon="13.19106"><ele>981.6666666666666</ele><time>2026-05-02T08:44:33.981Z</time></trkpt><trkpt lat="43.112125" lon="13.19103"><ele>984.8333333333333</ele><time>2026-05-02T08:44:35.982Z</time></trkpt><trkpt lat="43.1120667" lon="13.19099"><ele>988.0</ele><time>2026-05-02T08:44:36.982Z</time></trkpt><trkpt lat="43.1120083" lon="13.1909433"><ele>988.0</ele><time>2026-05-02T08:44:37.981Z</time></trkpt><trkpt lat="43.111955" lon="13.1908917"><ele>988.0</ele><time>2026-05-02T08:44:38.982Z</time></trkpt><trkpt lat="43.1118567" lon="13.1908083"><ele>988.0</ele><time>2026-05-02T08:44:40.981Z</time></trkpt><trkpt lat="43.1117583" lon="13.1907783"><ele>988.0</ele><time>2026-05-02T08:44:42.981Z</time></trkpt><trkpt lat="43.1116567" lon="13.19082"><ele>988.0</ele><time>2026-05-02T08:44:44.981Z</time></trkpt><trkpt lat="43.1115967" lon="13.19085"><ele>990.5714285714287</ele><time>2026-05-02T08:44:45.981Z</time></trkpt><trkpt lat="43.1115317" lon="13.1908867"><ele>993.1428571428571</ele><time>2026-05-02T08:44:46.982Z</time></trkpt><trkpt lat="43.1114633" lon="13.190925"><ele>995.7142857142858</ele><time>2026-05-02T08:44:47.982Z</time></trkpt><trkpt lat="43.1113933" lon="13.190965"><ele>998.2857142857143</ele><time>2026-05-02T08:44:48.981Z</time></trkpt><trkpt lat="43.1113267" lon="13.191005"><ele>1000.8571428571429</ele><time>2026-05-02T08:44:49.981Z</time></trkpt><trkpt lat="43.1112633" lon="13.19105"><ele>1003.4285714285714</ele><time>2026-05-02T08:44:50.982Z</time></trkpt><trkpt lat="43.1112033" lon="13.191105"><ele>1006.0</ele><time>2026-05-02T08:44:51.981Z</time></trkpt><trkpt lat="43.1111517" lon="13.19116"><ele>1005.9999999999999</ele><time>2026-05-02T08:44:52.981Z</time></trkpt><trkpt lat="43.1110967" lon="13.1912167"><ele>1006.0</ele><time>2026-05-02T08:44:53.984Z</time></trkpt><trkpt lat="43.1110283" lon="13.1912633"><ele>1006.0</ele><time>2026-05-02T08:44:54.982Z</time></trkpt><trkpt lat="43.11095" lon="13.1913133"><ele>1006.0</ele><time>2026-05-02T08:44:55.982Z</time></trkpt><trkpt lat="43.1108633" lon="13.191365"><ele>1005.9999999999999</ele><time>2026-05-02T08:44:56.982Z</time></trkpt><trkpt lat="43.1107833" lon="13.1914233"><ele>1006.0</ele><time>2026-05-02T08:44:57.983Z</time></trkpt><trkpt lat="43.1107167" lon="13.1914983"><ele>1009.3333333333333</ele><time>2026-05-02T08:44:58.981Z</time></trkpt><trkpt lat="43.1106567" lon="13.1915783"><ele>1012.6666666666666</ele><time>2026-05-02T08:44:59.982Z</time></trkpt><trkpt lat="43.1105967" lon="13.1916533"><ele>1016.0</ele><time>2026-05-02T08:45:00.981Z</time></trkpt><trkpt lat="43.1105417" lon="13.1917117"><ele>1019.3333333333333</ele><time>2026-05-02T08:45:01.981Z</time></trkpt><trkpt lat="43.11045" lon="13.1917733"><ele>1022.6666666666666</ele><time>2026-05-02T08:45:03.981Z</time></trkpt><trkpt lat="43.1103883" lon="13.19174"><ele>1026.0</ele><time>2026-05-02T08:45:05.982Z</time></trkpt><trkpt lat="43.1103317" lon="13.1916233"><ele>1026.0000000000002</ele><time>2026-05-02T08:45:07.982Z</time></trkpt><trkpt lat="43.1102817" lon="13.1915567"><ele>1026.0</ele><time>2026-05-02T08:45:08.982Z</time></trkpt><trkpt lat="43.1102183" lon="13.1914983"><ele>1026.0</ele><time>2026-05-02T08:45:09.982Z</time></trkpt><trkpt lat="43.1101483" lon="13.1914617"><ele>1026.0</ele><time>2026-05-02T08:45:10.982Z</time></trkpt><trkpt lat="43.110075" lon="13.1914483"><ele>1026.0</ele><time>2026-05-02T08:45:11.981Z</time></trkpt><trkpt lat="43.110005" lon="13.191445"><ele>1026.0000000000002</ele><time>2026-05-02T08:45:12.982Z</time></trkpt><trkpt lat="43.1099317" lon="13.191445"><ele>1026.0</ele><time>2026-05-02T08:45:13.982Z</time></trkpt><trkpt lat="43.10986" lon="13.1914467"><ele>1028.3333333333333</ele><time>2026-05-02T08:45:14.981Z</time></trkpt><trkpt lat="43.1097867" lon="13.1914483"><ele>1030.6666666666667</ele><time>2026-05-02T08:45:15.982Z</time></trkpt><trkpt lat="43.109715" lon="13.1914517"><ele>1033.0</ele><time>2026-05-02T08:45:16.981Z</time></trkpt><trkpt lat="43.10964" lon="13.1914683"><ele>1035.3333333333335</ele><time>2026-05-02T08:45:17.982Z</time></trkpt><trkpt lat="43.1095617" lon="13.1915017"><ele>1037.6666666666667</ele><time>2026-05-02T08:45:18.981Z</time></trkpt><trkpt lat="43.1094933" lon="13.19156"><ele>1040.0</ele><time>2026-05-02T08:45:19.982Z</time></trkpt><trkpt lat="43.109425" lon="13.1916383"><ele>1040.0</ele><time>2026-05-02T08:45:20.981Z</time></trkpt><trkpt lat="43.1093617" lon="13.1917033"><ele>1040.0</ele><time>2026-05-02T08:45:21.982Z</time></trkpt><trkpt lat="43.1092983" lon="13.1917417"><ele>1040.0</ele><time>2026-05-02T08:45:22.982Z</time></trkpt><trkpt lat="43.1091783" lon="13.191745"><ele>1040.0</ele><time>2026-05-02T08:45:24.982Z</time></trkpt><trkpt lat="43.1090717" lon="13.1916617"><ele>1040.0</ele><time>2026-05-02T08:45:26.982Z</time></trkpt><trkpt lat="43.1090233" lon="13.1916017"><ele>1042.1666666666667</ele><time>2026-05-02T08:45:27.981Z</time></trkpt><trkpt lat="43.108975" lon="13.19153"><ele>1044.3333333333335</ele><time>2026-05-02T08:45:28.982Z</time></trkpt><trkpt lat="43.1089217" lon="13.1914517"><ele>1046.5</ele><time>2026-05-02T08:45:29.982Z</time></trkpt><trkpt lat="43.1088683" lon="13.19137"><ele>1048.6666666666667</ele><time>2026-05-02T08:45:30.982Z</time></trkpt><trkpt lat="43.1088033" lon="13.1913117"><ele>1050.8333333333333</ele><time>2026-05-02T08:45:31.982Z</time></trkpt><trkpt lat="43.1087283" lon="13.1912817"><ele>1053.0</ele><time>2026-05-02T08:45:32.983Z</time></trkpt><trkpt lat="43.1086383" lon="13.1912833"><ele>1053.8</ele><time>2026-05-02T08:45:33.981Z</time></trkpt><trkpt lat="43.108545" lon="13.1912867"><ele>1054.6</ele><time>2026-05-02T08:45:34.981Z</time></trkpt><trkpt lat="43.10845" lon="13.19128"><ele>1055.4</ele><time>2026-05-02T08:45:35.981Z</time></trkpt><trkpt lat="43.1083567" lon="13.191275"><ele>1056.2</ele><time>2026-05-02T08:45:36.981Z</time></trkpt><trkpt lat="43.10827" lon="13.1912683"><ele>1057.0</ele><time>2026-05-02T08:45:37.982Z</time></trkpt><trkpt lat="43.1081817" lon="13.1912583"><ele>1060.2</ele><time>2026-05-02T08:45:38.982Z</time></trkpt><trkpt lat="43.1080867" lon="13.1912433"><ele>1063.4</ele><time>2026-05-02T08:45:39.982Z</time></trkpt><trkpt lat="43.107995" lon="13.1912283"><ele>1066.6</ele><time>2026-05-02T08:45:40.981Z</time></trkpt><trkpt lat="43.1079067" lon="13.1912183"><ele>1069.8</ele><time>2026-05-02T08:45:41.981Z</time></trkpt><trkpt lat="43.1078183" lon="13.1912083"><ele>1073.0</ele><time>2026-05-02T08:45:42.981Z</time></trkpt><trkpt lat="43.10773" lon="13.1911917"><ele>1073.0</ele><time>2026-05-02T08:45:43.982Z</time></trkpt><trkpt lat="43.107645" lon="13.1911783"><ele>1073.0</ele><time>2026-05-02T08:45:44.982Z</time></trkpt><trkpt lat="43.1075633" lon="13.1911683"><ele>1073.0</ele><time>2026-05-02T08:45:45.981Z</time></trkpt><trkpt lat="43.107475" lon="13.1911667"><ele>1073.0</ele><time>2026-05-02T08:45:46.982Z</time></trkpt><trkpt lat="43.1073733" lon="13.19117"><ele>1073.0</ele><time>2026-05-02T08:45:47.983Z</time></trkpt><trkpt lat="43.1072717" lon="13.1911867"><ele>1075.0</ele><time>2026-05-02T08:45:48.983Z</time></trkpt><trkpt lat="43.1071833" lon="13.1912133"><ele>1077.0</ele><time>2026-05-02T08:45:49.982Z</time></trkpt><trkpt lat="43.10711" lon="13.19123"><ele>1079.0</ele><time>2026-05-02T08:45:50.982Z</time></trkpt><trkpt lat="43.1070433" lon="13.1912283"><ele>1081.0</ele><time>2026-05-02T08:45:51.983Z</time></trkpt><trkpt lat="43.1069767" lon="13.1912067"><ele>1083.0</ele><time>2026-05-02T08:45:52.982Z</time></trkpt><trkpt lat="43.1069067" lon="13.1911817"><ele>1085.0</ele><time>2026-05-02T08:45:53.982Z</time></trkpt><trkpt lat="43.1068317" lon="13.1911667"><ele>1087.0</ele><time>2026-05-02T08:45:54.982Z</time></trkpt><trkpt lat="43.106755" lon="13.1911633"><ele>1087.0</ele><time>2026-05-02T08:45:55.982Z</time></trkpt><trkpt lat="43.1066817" lon="13.1911667"><ele>1087.0</ele><time>2026-05-02T08:45:56.983Z</time></trkpt><trkpt lat="43.1066083" lon="13.191175"><ele>1087.0</ele><time>2026-05-02T08:45:57.981Z</time></trkpt><trkpt lat="43.106535" lon="13.1911833"><ele>1087.0</ele><time>2026-05-02T08:45:58.982Z</time></trkpt><trkpt lat="43.1064617" lon="13.191195"><ele>1087.0</ele><time>2026-05-02T08:45:59.982Z</time></trkpt><trkpt lat="43.1063817" lon="13.191205"><ele>1087.0</ele><time>2026-05-02T08:46:00.982Z</time></trkpt><trkpt lat="43.1062917" lon="13.1912117"><ele>1089.0</ele><time>2026-05-02T08:46:01.981Z</time></trkpt><trkpt lat="43.1061983" lon="13.1912167"><ele>1091.0</ele><time>2026-05-02T08:46:02.983Z</time></trkpt><trkpt lat="43.1061033" lon="13.19122"><ele>1093.0</ele><time>2026-05-02T08:46:03.982Z</time></trkpt><trkpt lat="43.1060033" lon="13.1912233"><ele>1095.0</ele><time>2026-05-02T08:46:04.982Z</time></trkpt><trkpt lat="43.1059067" lon="13.19123"><ele>1097.0</ele><time>2026-05-02T08:46:05.982Z</time></trkpt><trkpt lat="43.105805" lon="13.1912533"><ele>1099.25</ele><time>2026-05-02T08:46:06.981Z</time></trkpt><trkpt lat="43.1057" lon="13.1912983"><ele>1101.5</ele><time>2026-05-02T08:46:07.982Z</time></trkpt><trkpt lat="43.1055917" lon="13.1913483"><ele>1103.75</ele><time>2026-05-02T08:46:08.983Z</time></trkpt><trkpt lat="43.1054833" lon="13.191405"><ele>1106.0</ele><time>2026-05-02T08:46:09.983Z</time></trkpt><trkpt lat="43.10537" lon="13.191465"><ele>1106.25</ele><time>2026-05-02T08:46:10.982Z</time></trkpt><trkpt lat="43.10525" lon="13.191525"><ele>1106.5</ele><time>2026-05-02T08:46:11.981Z</time></trkpt><trkpt lat="43.1051233" lon="13.1915833"><ele>1106.75</ele><time>2026-05-02T08:46:12.982Z</time></trkpt><trkpt lat="43.1049883" lon="13.19164"><ele>1107.0</ele><time>2026-05-02T08:46:13.982Z</time></trkpt><trkpt lat="43.10485" lon="13.1917017"><ele>1107.0</ele><time>2026-05-02T08:46:14.981Z</time></trkpt><trkpt lat="43.1047133" lon="13.1917717"><ele>1107.0</ele><time>2026-05-02T08:46:15.981Z</time></trkpt><trkpt lat="43.1045817" lon="13.19184"><ele>1107.0</ele><time>2026-05-02T08:46:16.981Z</time></trkpt><trkpt lat="43.1044483" lon="13.1919083"><ele>1107.0</ele><time>2026-05-02T08:46:17.982Z</time></trkpt><trkpt lat="43.1043167" lon="13.19197"><ele>1107.0</ele><time>2026-05-02T08:46:18.983Z</time></trkpt><trkpt lat="43.10418" lon="13.1920317"><ele>1107.0</ele><time>2026-05-02T08:46:19.982Z</time></trkpt><trkpt lat="43.1040417" lon="13.1920883"><ele>1107.0</ele><time>2026-05-02T08:46:20.983Z</time></trkpt><trkpt lat="43.1039167" lon="13.19214"><ele>1107.0</ele><time>2026-05-02T08:46:21.981Z</time></trkpt><trkpt lat="43.10381" lon="13.1921917"><ele>1107.4</ele><time>2026-05-02T08:46:22.982Z</time></trkpt><trkpt lat="43.10372" lon="13.192255"><ele>1107.8000000000002</ele><time>2026-05-02T08:46:23.983Z</time></trkpt><trkpt lat="43.10364" lon="13.19234"><ele>1108.2</ele><time>2026-05-02T08:46:24.982Z</time></trkpt><trkpt lat="43.1035667" lon="13.192455"><ele>1108.6000000000001</ele><time>2026-05-02T08:46:25.982Z</time></trkpt><trkpt lat="43.103495" lon="13.192585"><ele>1109.0</ele><time>2026-05-02T08:46:26.982Z</time></trkpt><trkpt lat="43.1034267" lon="13.1927167"><ele>1109.0</ele><time>2026-05-02T08:46:27.982Z</time></trkpt><trkpt lat="43.1033667" lon="13.1928467"><ele>1109.0</ele><time>2026-05-02T08:46:28.981Z</time></trkpt><trkpt lat="43.1033133" lon="13.1929683"><ele>1109.0</ele><time>2026-05-02T08:46:29.982Z</time></trkpt><trkpt lat="43.10327" lon="13.193075"><ele>1109.0</ele><time>2026-05-02T08:46:30.981Z</time></trkpt><trkpt lat="43.1032283" lon="13.1931717"><ele>1109.0</ele><time>2026-05-02T08:46:31.982Z</time></trkpt><trkpt lat="43.103185" lon="13.19326"><ele>1110.1666666666667</ele><time>2026-05-02T08:46:32.983Z</time></trkpt><trkpt lat="43.1031417" lon="13.193335"><ele>1111.3333333333335</ele><time>2026-05-02T08:46:33.982Z</time></trkpt><trkpt lat="43.10306" lon="13.1934283"><ele>1112.5</ele><time>2026-05-02T08:46:35.982Z</time></trkpt><trkpt lat="43.10298" lon="13.19346"><ele>1113.6666666666667</ele><time>2026-05-02T08:46:37.982Z</time></trkpt><trkpt lat="43.1028867" lon="13.1934517"><ele>1114.8333333333333</ele><time>2026-05-02T08:46:39.982Z</time></trkpt><trkpt lat="43.102805" lon="13.1934383"><ele>1116.0</ele><time>2026-05-02T08:46:41.982Z</time></trkpt><trkpt lat="43.102715" lon="13.1934333"><ele>1116.0</ele><time>2026-05-02T08:46:43.981Z</time></trkpt><trkpt lat="43.1025967" lon="13.1934167"><ele>1116.0</ele><time>2026-05-02T08:46:45.981Z</time></trkpt><trkpt lat="43.1025317" lon="13.1934083"><ele>1116.0</ele><time>2026-05-02T08:46:46.981Z</time></trkpt><trkpt lat="43.1024633" lon="13.1934"><ele>1116.0</ele><time>2026-05-02T08:46:47.982Z</time></trkpt><trkpt lat="43.10239" lon="13.1933933"><ele>1116.0</ele><time>2026-05-02T08:46:48.983Z</time></trkpt><trkpt lat="43.1023083" lon="13.1933967"><ele>1116.0</ele><time>2026-05-02T08:46:49.983Z</time></trkpt><trkpt lat="43.1022217" lon="13.1934033"><ele>1117.2</ele><time>2026-05-02T08:46:50.982Z</time></trkpt><trkpt lat="43.10213" lon="13.19341"><ele>1118.3999999999999</ele><time>2026-05-02T08:46:51.983Z</time></trkpt><trkpt lat="43.1020333" lon="13.1934117"><ele>1119.6</ele><time>2026-05-02T08:46:52.982Z</time></trkpt><trkpt lat="43.1019333" lon="13.1934067"><ele>1120.8</ele><time>2026-05-02T08:46:53.983Z</time></trkpt><trkpt lat="43.1018217" lon="13.193395"><ele>1122.0</ele><time>2026-05-02T08:46:54.982Z</time></trkpt><trkpt lat="43.101705" lon="13.1933767"><ele>1122.0</ele><time>2026-05-02T08:46:55.981Z</time></trkpt><trkpt lat="43.10159" lon="13.19336"><ele>1122.0</ele><time>2026-05-02T08:46:56.983Z</time></trkpt><trkpt lat="43.1014667" lon="13.1933567"><ele>1122.0</ele><time>2026-05-02T08:46:57.982Z</time></trkpt><trkpt lat="43.10135" lon="13.1933617"><ele>1122.0</ele><time>2026-05-02T08:46:58.982Z</time></trkpt><trkpt lat="43.1012517" lon="13.1933633"><ele>1122.4</ele><time>2026-05-02T08:46:59.981Z</time></trkpt><trkpt lat="43.1011783" lon="13.1933617"><ele>1122.8000000000002</ele><time>2026-05-02T08:47:00.981Z</time></trkpt><trkpt lat="43.1010683" lon="13.193355"><ele>1123.2</ele><time>2026-05-02T08:47:02.983Z</time></trkpt><trkpt lat="43.1009433" lon="13.1933367"><ele>1123.6000000000001</ele><time>2026-05-02T08:47:04.982Z</time></trkpt><trkpt lat="43.1008717" lon="13.1933317"><ele>1124.0</ele><time>2026-05-02T08:47:05.982Z</time></trkpt><trkpt lat="43.1007867" lon="13.193335"><ele>1124.0</ele><time>2026-05-02T08:47:06.982Z</time></trkpt><trkpt lat="43.1006933" lon="13.1933267"><ele>1124.0</ele><time>2026-05-02T08:47:07.983Z</time></trkpt><trkpt lat="43.1005883" lon="13.1933017"><ele>1124.0</ele><time>2026-05-02T08:47:08.982Z</time></trkpt><trkpt lat="43.1004867" lon="13.1932683"><ele>1124.0</ele><time>2026-05-02T08:47:09.981Z</time></trkpt><trkpt lat="43.1003933" lon="13.19322"><ele>1124.0</ele><time>2026-05-02T08:47:10.981Z</time></trkpt><trkpt lat="43.1003083" lon="13.1931483"><ele>1124.0</ele><time>2026-05-02T08:47:11.982Z</time></trkpt><trkpt lat="43.1002233" lon="13.193075"><ele>1124.0</ele><time>2026-05-02T08:47:12.981Z</time></trkpt><trkpt lat="43.1001333" lon="13.19302"><ele>1124.0</ele><time>2026-05-02T08:47:13.982Z</time></trkpt><trkpt lat="43.100045" lon="13.1929667"><ele>1124.0</ele><time>2026-05-02T08:47:14.983Z</time></trkpt><trkpt lat="43.0999517" lon="13.1928967"><ele>1124.0</ele><time>2026-05-02T08:47:15.982Z</time></trkpt><trkpt lat="43.09986" lon="13.1928317"><ele>1123.4</ele><time>2026-05-02T08:47:16.983Z</time></trkpt><trkpt lat="43.0997717" lon="13.1927967"><ele>1122.8000000000002</ele><time>2026-05-02T08:47:17.983Z</time></trkpt><trkpt lat="43.0996733" lon="13.1927667"><ele>1122.1999999999998</ele><time>2026-05-02T08:47:18.982Z</time></trkpt><trkpt lat="43.0995767" lon="13.192715"><ele>1121.6</ele><time>2026-05-02T08:47:19.982Z</time></trkpt><trkpt lat="43.0994933" lon="13.1926383"><ele>1121.0</ele><time>2026-05-02T08:47:20.982Z</time></trkpt><trkpt lat="43.0994017" lon="13.1925667"><ele>1121.0</ele><time>2026-05-02T08:47:21.982Z</time></trkpt><trkpt lat="43.0992933" lon="13.1925083"><ele>1121.0</ele><time>2026-05-02T08:47:22.982Z</time></trkpt><trkpt lat="43.0991833" lon="13.1924467"><ele>1121.0</ele><time>2026-05-02T08:47:23.982Z</time></trkpt><trkpt lat="43.0990833" lon="13.1923767"><ele>1121.0</ele><time>2026-05-02T08:47:24.983Z</time></trkpt><trkpt lat="43.098985" lon="13.1923083"><ele>1119.75</ele><time>2026-05-02T08:47:25.981Z</time></trkpt><trkpt lat="43.0988717" lon="13.192255"><ele>1118.5</ele><time>2026-05-02T08:47:26.982Z</time></trkpt><trkpt lat="43.0987533" lon="13.1922217"><ele>1117.25</ele><time>2026-05-02T08:47:27.982Z</time></trkpt><trkpt lat="43.0986267" lon="13.192195"><ele>1116.0</ele><time>2026-05-02T08:47:28.981Z</time></trkpt><trkpt lat="43.0985017" lon="13.1921633"><ele>1116.0</ele><time>2026-05-02T08:47:29.981Z</time></trkpt><trkpt lat="43.09838" lon="13.1921233"><ele>1116.0</ele><time>2026-05-02T08:47:30.982Z</time></trkpt><trkpt lat="43.098265" lon="13.1920867"><ele>1116.0</ele><time>2026-05-02T08:47:31.983Z</time></trkpt><trkpt lat="43.098165" lon="13.1920567"><ele>1116.0</ele><time>2026-05-02T08:47:32.982Z</time></trkpt><trkpt lat="43.0980767" lon="13.1920283"><ele>1116.0</ele><time>2026-05-02T08:47:33.983Z</time></trkpt><trkpt lat="43.0980017" lon="13.192"><ele>1115.0</ele><time>2026-05-02T08:47:34.981Z</time></trkpt><trkpt lat="43.097935" lon="13.191975"><ele>1114.0</ele><time>2026-05-02T08:47:35.981Z</time></trkpt><trkpt lat="43.097835" lon="13.1919183"><ele>1113.0</ele><time>2026-05-02T08:47:37.981Z</time></trkpt><trkpt lat="43.0977567" lon="13.1918283"><ele>1112.0</ele><time>2026-05-02T08:47:39.982Z</time></trkpt><trkpt lat="43.0976583" lon="13.1917467"><ele>1111.0</ele><time>2026-05-02T08:47:41.981Z</time></trkpt><trkpt lat="43.0975417" lon="13.1917"><ele>1111.0</ele><time>2026-05-02T08:47:43.983Z</time></trkpt><trkpt lat="43.0974283" lon="13.1916517"><ele>1111.0</ele><time>2026-05-02T08:47:45.984Z</time></trkpt><trkpt lat="43.09732" lon="13.1916233"><ele>1111.0</ele><time>2026-05-02T08:47:47.982Z</time></trkpt><trkpt lat="43.0972367" lon="13.19161"><ele>1111.0</ele><time>2026-05-02T08:47:49.982Z</time></trkpt><trkpt lat="43.0971733" lon="13.1916017"><ele>1111.0</ele><time>2026-05-02T08:47:51.982Z</time></trkpt><trkpt lat="43.09711" lon="13.1916867"><ele>1111.5</ele><time>2026-05-02T08:47:54.982Z</time></trkpt><trkpt lat="43.097105" lon="13.1918167"><ele>1112.0</ele><time>2026-05-02T08:47:56.982Z</time></trkpt><trkpt lat="43.097115" lon="13.19193"><ele>1112.5</ele><time>2026-05-02T08:47:58.981Z</time></trkpt><trkpt lat="43.0971383" lon="13.1920233"><ele>1113.0</ele><time>2026-05-02T08:48:00.984Z</time></trkpt><trkpt lat="43.09718" lon="13.19213"><ele>1113.5</ele><time>2026-05-02T08:48:02.983Z</time></trkpt><trkpt lat="43.0972333" lon="13.192245"><ele>1114.0</ele><time>2026-05-02T08:48:04.985Z</time></trkpt><trkpt lat="43.0972833" lon="13.1923717"><ele>1114.5</ele><time>2026-05-02T08:48:06.982Z</time></trkpt><trkpt lat="43.0972917" lon="13.1925033"><ele>1115.0</ele><time>2026-05-02T08:48:08.983Z</time></trkpt><trkpt lat="43.0972467" lon="13.1926467"><ele>1115.5</ele><time>2026-05-02T08:48:10.982Z</time></trkpt><trkpt lat="43.0972117" lon="13.1927217"><ele>1116.0</ele><time>2026-05-02T08:48:11.982Z</time></trkpt><trkpt lat="43.0971733" lon="13.1928133"><ele>1116.5</ele><time>2026-05-02T08:48:12.981Z</time></trkpt><trkpt lat="43.097135" lon="13.1929133"><ele>1117.0</ele><time>2026-05-02T08:48:13.981Z</time></trkpt><trkpt lat="43.0970883" lon="13.1930167"><ele>1117.0</ele><time>2026-05-02T08:48:14.982Z</time></trkpt><trkpt lat="43.0970317" lon="13.1931233"><ele>1117.0</ele><time>2026-05-02T08:48:15.981Z</time></trkpt><trkpt lat="43.0969733" lon="13.1932367"><ele>1117.0</ele><time>2026-05-02T08:48:16.983Z</time></trkpt><trkpt lat="43.09692" lon="13.193345"><ele>1117.0</ele><time>2026-05-02T08:48:17.982Z</time></trkpt><trkpt lat="43.0968783" lon="13.1934317"><ele>1117.0</ele><time>2026-05-02T08:48:18.983Z</time></trkpt><trkpt lat="43.096815" lon="13.193565"><ele>1117.0</ele><time>2026-05-02T08:48:20.982Z</time></trkpt><trkpt lat="43.096755" lon="13.1936833"><ele>1117.0</ele><time>2026-05-02T08:48:22.982Z</time></trkpt><trkpt lat="43.096705" lon="13.1938033"><ele>1117.0</ele><time>2026-05-02T08:48:24.983Z</time></trkpt><trkpt lat="43.09666" lon="13.19394"><ele>1117.0</ele><time>2026-05-02T08:48:26.982Z</time></trkpt><trkpt lat="43.096615" lon="13.1941033"><ele>1117.0</ele><time>2026-05-02T08:48:28.981Z</time></trkpt><trkpt lat="43.0965933" lon="13.1942"><ele>1121.0</ele><time>2026-05-02T08:48:29.981Z</time></trkpt><trkpt lat="43.0965767" lon="13.19432"><ele>1125.0</ele><time>2026-05-02T08:48:30.982Z</time></trkpt><trkpt lat="43.0965683" lon="13.1944633"><ele>1129.0</ele><time>2026-05-02T08:48:31.981Z</time></trkpt><trkpt lat="43.0965633" lon="13.19463"><ele>1133.0</ele><time>2026-05-02T08:48:32.982Z</time></trkpt><trkpt lat="43.0965567" lon="13.1948117"><ele>1137.0</ele><time>2026-05-02T08:48:33.982Z</time></trkpt><trkpt lat="43.0965517" lon="13.194995"><ele>1137.5</ele><time>2026-05-02T08:48:34.98Z</time></trkpt><trkpt lat="43.096555" lon="13.1951667"><ele>1138.0</ele><time>2026-05-02T08:48:35.981Z</time></trkpt><trkpt lat="43.0965617" lon="13.1953267"><ele>1138.5</ele><time>2026-05-02T08:48:36.98Z</time></trkpt><trkpt lat="43.0965667" lon="13.1954833"><ele>1139.0</ele><time>2026-05-02T08:48:37.98Z</time></trkpt><trkpt lat="43.0965633" lon="13.1956333"><ele>1138.25</ele><time>2026-05-02T08:48:38.982Z</time></trkpt><trkpt lat="43.0965417" lon="13.1957883"><ele>1137.5</ele><time>2026-05-02T08:48:39.982Z</time></trkpt><trkpt lat="43.0965117" lon="13.19596"><ele>1136.75</ele><time>2026-05-02T08:48:40.98Z</time></trkpt><trkpt lat="43.0964817" lon="13.1961317"><ele>1136.0</ele><time>2026-05-02T08:48:41.98Z</time></trkpt><trkpt lat="43.0964517" lon="13.1962967"><ele>1136.0</ele><time>2026-05-02T08:48:42.982Z</time></trkpt><trkpt lat="43.0964133" lon="13.196445"><ele>1136.0</ele><time>2026-05-02T08:48:43.981Z</time></trkpt><trkpt lat="43.0963633" lon="13.1965683"><ele>1136.0</ele><time>2026-05-02T08:48:44.982Z</time></trkpt><trkpt lat="43.0963067" lon="13.1966917"><ele>1136.0</ele><time>2026-05-02T08:48:45.982Z</time></trkpt><trkpt lat="43.0962483" lon="13.1968033"><ele>1136.0</ele><time>2026-05-02T08:48:46.981Z</time></trkpt><trkpt lat="43.0961933" lon="13.19689"><ele>1135.6</ele><time>2026-05-02T08:48:47.982Z</time></trkpt><trkpt lat="43.096125" lon="13.1969633"><ele>1135.1999999999998</ele><time>2026-05-02T08:48:48.982Z</time></trkpt><trkpt lat="43.0960467" lon="13.1970183"><ele>1134.8000000000002</ele><time>2026-05-02T08:48:49.981Z</time></trkpt><trkpt lat="43.0959517" lon="13.1970567"><ele>1134.4</ele><time>2026-05-02T08:48:50.981Z</time></trkpt><trkpt lat="43.0958483" lon="13.1970917"><ele>1134.0</ele><time>2026-05-02T08:48:51.981Z</time></trkpt><trkpt lat="43.09574" lon="13.1971267"><ele>1137.75</ele><time>2026-05-02T08:48:52.981Z</time></trkpt><trkpt lat="43.0956317" lon="13.1971633"><ele>1141.5</ele><time>2026-05-02T08:48:53.982Z</time></trkpt><trkpt lat="43.0955217" lon="13.1972067"><ele>1145.25</ele><time>2026-05-02T08:48:54.982Z</time></trkpt><trkpt lat="43.0954033" lon="13.1972533"><ele>1149.0</ele><time>2026-05-02T08:48:55.982Z</time></trkpt><trkpt lat="43.0952833" lon="13.1972933"><ele>1149.0</ele><time>2026-05-02T08:48:56.981Z</time></trkpt><trkpt lat="43.0951817" lon="13.197335"><ele>1149.0</ele><time>2026-05-02T08:48:57.981Z</time></trkpt><trkpt lat="43.0950967" lon="13.1973983"><ele>1149.0</ele><time>2026-05-02T08:48:58.982Z</time></trkpt><trkpt lat="43.0950167" lon="13.19749"><ele>1149.0</ele><time>2026-05-02T08:48:59.981Z</time></trkpt><trkpt lat="43.0949317" lon="13.1975783"><ele>1149.0</ele><time>2026-05-02T08:49:00.981Z</time></trkpt><trkpt lat="43.0948383" lon="13.1976583"><ele>1152.6000000000001</ele><time>2026-05-02T08:49:01.981Z</time></trkpt><trkpt lat="43.0947367" lon="13.1977233"><ele>1156.2</ele><time>2026-05-02T08:49:02.982Z</time></trkpt><trkpt lat="43.09464" lon="13.19779"><ele>1159.8000000000002</ele><time>2026-05-02T08:49:03.981Z</time></trkpt><trkpt lat="43.0945517" lon="13.19785"><ele>1163.4</ele><time>2026-05-02T08:49:04.981Z</time></trkpt><trkpt lat="43.0944683" lon="13.1978917"><ele>1167.0</ele><time>2026-05-02T08:49:05.982Z</time></trkpt><trkpt lat="43.0943833" lon="13.197925"><ele>1167.0</ele><time>2026-05-02T08:49:06.982Z</time></trkpt><trkpt lat="43.0942967" lon="13.1979533"><ele>1167.0</ele><time>2026-05-02T08:49:07.981Z</time></trkpt><trkpt lat="43.0942133" lon="13.1979833"><ele>1167.0</ele><time>2026-05-02T08:49:08.982Z</time></trkpt><trkpt lat="43.0941333" lon="13.1980217"><ele>1167.0</ele><time>2026-05-02T08:49:09.981Z</time></trkpt><trkpt lat="43.0940517" lon="13.1980767"><ele>1167.0</ele><time>2026-05-02T08:49:10.981Z</time></trkpt><trkpt lat="43.0939617" lon="13.19814"><ele>1170.8</ele><time>2026-05-02T08:49:11.981Z</time></trkpt><trkpt lat="43.0938683" lon="13.1982183"><ele>1174.6</ele><time>2026-05-02T08:49:12.981Z</time></trkpt><trkpt lat="43.09377" lon="13.1983067"><ele>1178.3999999999999</ele><time>2026-05-02T08:49:13.982Z</time></trkpt><trkpt lat="43.0936717" lon="13.198395"><ele>1182.2</ele><time>2026-05-02T08:49:14.981Z</time></trkpt><trkpt lat="43.09359" lon="13.1984783"><ele>1186.0</ele><time>2026-05-02T08:49:15.98Z</time></trkpt><trkpt lat="43.09352" lon="13.198565"><ele>1186.0</ele><time>2026-05-02T08:49:16.981Z</time></trkpt><trkpt lat="43.0934617" lon="13.1986567"><ele>1186.0</ele><time>2026-05-02T08:49:17.983Z</time></trkpt><trkpt lat="43.0934017" lon="13.19876"><ele>1186.0</ele><time>2026-05-02T08:49:18.983Z</time></trkpt><trkpt lat="43.0933417" lon="13.1988683"><ele>1186.0</ele><time>2026-05-02T08:49:19.982Z</time></trkpt><trkpt lat="43.0932867" lon="13.1989717"><ele>1186.0</ele><time>2026-05-02T08:49:20.982Z</time></trkpt><trkpt lat="43.09322" lon="13.1990817"><ele>1189.2</ele><time>2026-05-02T08:49:21.981Z</time></trkpt><trkpt lat="43.0931633" lon="13.1991867"><ele>1192.3999999999999</ele><time>2026-05-02T08:49:22.982Z</time></trkpt><trkpt lat="43.0931" lon="13.1992917"><ele>1195.6</ele><time>2026-05-02T08:49:23.982Z</time></trkpt><trkpt lat="43.09302" lon="13.1994033"><ele>1198.8</ele><time>2026-05-02T08:49:24.982Z</time></trkpt><trkpt lat="43.0929383" lon="13.1995117"><ele>1202.0</ele><time>2026-05-02T08:49:25.981Z</time></trkpt><trkpt lat="43.092855" lon="13.1996133"><ele>1202.0</ele><time>2026-05-02T08:49:26.981Z</time></trkpt><trkpt lat="43.0927667" lon="13.1997"><ele>1202.0</ele><time>2026-05-02T08:49:27.981Z</time></trkpt><trkpt lat="43.0926783" lon="13.1997783"><ele>1202.0</ele><time>2026-05-02T08:49:28.981Z</time></trkpt><trkpt lat="43.09259" lon="13.199855"><ele>1202.0</ele><time>2026-05-02T08:49:29.98Z</time></trkpt><trkpt lat="43.0924983" lon="13.199935"><ele>1202.0</ele><time>2026-05-02T08:49:30.982Z</time></trkpt><trkpt lat="43.0924083" lon="13.2000233"><ele>1205.0</ele><time>2026-05-02T08:49:31.982Z</time></trkpt><trkpt lat="43.0923233" lon="13.200115"><ele>1208.0</ele><time>2026-05-02T08:49:32.982Z</time></trkpt><trkpt lat="43.092235" lon="13.2002183"><ele>1211.0</ele><time>2026-05-02T08:49:33.981Z</time></trkpt><trkpt lat="43.0921517" lon="13.200325"><ele>1214.0</ele><time>2026-05-02T08:49:34.981Z</time></trkpt><trkpt lat="43.0920683" lon="13.2004383"><ele>1214.0</ele><time>2026-05-02T08:49:35.981Z</time></trkpt><trkpt lat="43.091985" lon="13.2005517"><ele>1214.0</ele><time>2026-05-02T08:49:36.981Z</time></trkpt><trkpt lat="43.091895" lon="13.200665"><ele>1214.0</ele><time>2026-05-02T08:49:37.981Z</time></trkpt><trkpt lat="43.0917983" lon="13.200775"><ele>1214.0</ele><time>2026-05-02T08:49:38.981Z</time></trkpt><trkpt lat="43.091705" lon="13.2008883"><ele>1213.0</ele><time>2026-05-02T08:49:39.98Z</time></trkpt><trkpt lat="43.0916117" lon="13.201005"><ele>1212.0</ele><time>2026-05-02T08:49:40.981Z</time></trkpt><trkpt lat="43.0915183" lon="13.2011167"><ele>1211.0</ele><time>2026-05-02T08:49:41.981Z</time></trkpt><trkpt lat="43.0914283" lon="13.201215"><ele>1210.0</ele><time>2026-05-02T08:49:42.981Z</time></trkpt><trkpt lat="43.0913483" lon="13.20129"><ele>1211.5</ele><time>2026-05-02T08:49:43.981Z</time></trkpt><trkpt lat="43.0912733" lon="13.201345"><ele>1213.0</ele><time>2026-05-02T08:49:44.982Z</time></trkpt><trkpt lat="43.0912067" lon="13.2013867"><ele>1214.5</ele><time>2026-05-02T08:49:45.982Z</time></trkpt><trkpt lat="43.0911467" lon="13.2014383"><ele>1216.0</ele><time>2026-05-02T08:49:46.981Z</time></trkpt><trkpt lat="43.0910833" lon="13.201505"><ele>1217.5</ele><time>2026-05-02T08:49:47.982Z</time></trkpt><trkpt lat="43.09102" lon="13.2015783"><ele>1219.0</ele><time>2026-05-02T08:49:48.984Z</time></trkpt><trkpt lat="43.0909617" lon="13.2016517"><ele>1219.0</ele><time>2026-05-02T08:49:49.982Z</time></trkpt><trkpt lat="43.090905" lon="13.2017183"><ele>1219.0</ele><time>2026-05-02T08:49:50.981Z</time></trkpt><trkpt lat="43.090855" lon="13.2017717"><ele>1219.0</ele><time>2026-05-02T08:49:51.982Z</time></trkpt><trkpt lat="43.09077" lon="13.2018517"><ele>1219.0</ele><time>2026-05-02T08:49:53.981Z</time></trkpt><trkpt lat="43.0907" lon="13.20192"><ele>1219.0</ele><time>2026-05-02T08:49:55.982Z</time></trkpt><trkpt lat="43.0906367" lon="13.20195"><ele>1219.0</ele><time>2026-05-02T08:50:08.984Z</time></trkpt><trkpt lat="43.0905983" lon="13.2018733"><ele>1218.2</ele><time>2026-05-02T08:50:11.982Z</time></trkpt><trkpt lat="43.09062" lon="13.20177"><ele>1217.4</ele><time>2026-05-02T08:50:13.982Z</time></trkpt><trkpt lat="43.09065" lon="13.2016317"><ele>1216.6</ele><time>2026-05-02T08:50:15.982Z</time></trkpt><trkpt lat="43.090675" lon="13.2014783"><ele>1215.8</ele><time>2026-05-02T08:50:17.981Z</time></trkpt><trkpt lat="43.09069" lon="13.201345"><ele>1215.0</ele><time>2026-05-02T08:50:19.983Z</time></trkpt><trkpt lat="43.0907083" lon="13.2012233"><ele>1217.0</ele><time>2026-05-02T08:50:21.982Z</time></trkpt><trkpt lat="43.0907217" lon="13.201105"><ele>1219.0</ele><time>2026-05-02T08:50:23.981Z</time></trkpt><trkpt lat="43.0907117" lon="13.2009967"><ele>1221.0</ele><time>2026-05-02T08:50:25.981Z</time></trkpt><trkpt lat="43.09069" lon="13.2008883"><ele>1223.0</ele><time>2026-05-02T08:50:27.982Z</time></trkpt><trkpt lat="43.0906417" lon="13.2007817"><ele>1225.0</ele><time>2026-05-02T08:50:29.982Z</time></trkpt><trkpt lat="43.0905767" lon="13.2006933"><ele>1227.0</ele><time>2026-05-02T08:50:31.982Z</time></trkpt><trkpt lat="43.0905067" lon="13.2005883"><ele>1228.6</ele><time>2026-05-02T08:50:33.981Z</time></trkpt><trkpt lat="43.09043" lon="13.2004733"><ele>1230.2</ele><time>2026-05-02T08:50:35.982Z</time></trkpt><trkpt lat="43.0903517" lon="13.2003417"><ele>1231.8</ele><time>2026-05-02T08:50:37.981Z</time></trkpt><trkpt lat="43.0902983" lon="13.2002683"><ele>1233.4</ele><time>2026-05-02T08:50:38.981Z</time></trkpt><trkpt lat="43.090245" lon="13.20019"><ele>1235.0</ele><time>2026-05-02T08:50:39.982Z</time></trkpt><trkpt lat="43.0901883" lon="13.2001033"><ele>1235.0</ele><time>2026-05-02T08:50:40.982Z</time></trkpt><trkpt lat="43.0901317" lon="13.2000217"><ele>1235.0</ele><time>2026-05-02T08:50:41.981Z</time></trkpt><trkpt lat="43.09008" lon="13.1999367"><ele>1235.0</ele><time>2026-05-02T08:50:42.982Z</time></trkpt><trkpt lat="43.090025" lon="13.1998517"><ele>1235.0</ele><time>2026-05-02T08:50:43.982Z</time></trkpt><trkpt lat="43.0899667" lon="13.1997617"><ele>1235.0</ele><time>2026-05-02T08:50:44.983Z</time></trkpt><trkpt lat="43.0898983" lon="13.19967"><ele>1235.0</ele><time>2026-05-02T08:50:45.983Z</time></trkpt><trkpt lat="43.089825" lon="13.1995833"><ele>1236.8333333333335</ele><time>2026-05-02T08:50:46.982Z</time></trkpt><trkpt lat="43.0897533" lon="13.199505"><ele>1238.6666666666667</ele><time>2026-05-02T08:50:47.981Z</time></trkpt><trkpt lat="43.0896867" lon="13.1994283"><ele>1240.5</ele><time>2026-05-02T08:50:48.982Z</time></trkpt><trkpt lat="43.0896233" lon="13.19935"><ele>1242.3333333333333</ele><time>2026-05-02T08:50:49.981Z</time></trkpt><trkpt lat="43.0895633" lon="13.1992733"><ele>1244.1666666666665</ele><time>2026-05-02T08:50:50.982Z</time></trkpt><trkpt lat="43.08951" lon="13.1991967"><ele>1246.0</ele><time>2026-05-02T08:50:51.981Z</time></trkpt><trkpt lat="43.08946" lon="13.1991217"><ele>1246.0</ele><time>2026-05-02T08:50:52.982Z</time></trkpt><trkpt lat="43.089415" lon="13.1990483"><ele>1246.0</ele><time>2026-05-02T08:50:53.982Z</time></trkpt><trkpt lat="43.08935" lon="13.1989117"><ele>1246.0</ele><time>2026-05-02T08:50:55.982Z</time></trkpt><trkpt lat="43.08931" lon="13.198755"><ele>1246.0</ele><time>2026-05-02T08:50:57.981Z</time></trkpt><trkpt lat="43.089295" lon="13.1986667"><ele>1246.0</ele><time>2026-05-02T08:50:58.981Z</time></trkpt><trkpt lat="43.0892833" lon="13.1985767"><ele>1246.0</ele><time>2026-05-02T08:50:59.982Z</time></trkpt><trkpt lat="43.0892717" lon="13.19849"><ele>1247.7142857142858</ele><time>2026-05-02T08:51:00.982Z</time></trkpt><trkpt lat="43.0892617" lon="13.1984017"><ele>1249.4285714285716</ele><time>2026-05-02T08:51:01.982Z</time></trkpt><trkpt lat="43.089255" lon="13.1983083"><ele>1251.142857142857</ele><time>2026-05-02T08:51:02.982Z</time></trkpt><trkpt lat="43.0892533" lon="13.19822"><ele>1252.857142857143</ele><time>2026-05-02T08:51:03.982Z</time></trkpt><trkpt lat="43.08925" lon="13.1981333"><ele>1254.5714285714287</ele><time>2026-05-02T08:51:04.981Z</time></trkpt><trkpt lat="43.08925" lon="13.1980417"><ele>1256.2857142857142</ele><time>2026-05-02T08:51:05.981Z</time></trkpt><trkpt lat="43.0892533" lon="13.1979533"><ele>1258.0</ele><time>2026-05-02T08:51:06.982Z</time></trkpt><trkpt lat="43.0892667" lon="13.197795"><ele>1259.0</ele><time>2026-05-02T08:51:08.983Z</time></trkpt><trkpt lat="43.0892667" lon="13.1976283"><ele>1260.0</ele><time>2026-05-02T08:51:10.982Z</time></trkpt><trkpt lat="43.0892517" lon="13.197465"><ele>1261.0</ele><time>2026-05-02T08:51:12.981Z</time></trkpt><trkpt lat="43.08923" lon="13.19731"><ele>1262.0</ele><time>2026-05-02T08:51:14.982Z</time></trkpt><trkpt lat="43.0892067" lon="13.19715"><ele>1263.6</ele><time>2026-05-02T08:51:16.981Z</time></trkpt><trkpt lat="43.0891817" lon="13.1969983"><ele>1265.2</ele><time>2026-05-02T08:51:18.981Z</time></trkpt><trkpt lat="43.0891633" lon="13.19684"><ele>1266.8</ele><time>2026-05-02T08:51:20.982Z</time></trkpt><trkpt lat="43.0891567" lon="13.1967067"><ele>1268.4</ele><time>2026-05-02T08:51:22.981Z</time></trkpt><trkpt lat="43.0891467" lon="13.1965817"><ele>1270.0</ele><time>2026-05-02T08:51:24.982Z</time></trkpt><trkpt lat="43.0891267" lon="13.1964633"><ele>1269.5</ele><time>2026-05-02T08:51:26.982Z</time></trkpt><trkpt lat="43.0890967" lon="13.1963383"><ele>1269.0</ele><time>2026-05-02T08:51:28.982Z</time></trkpt><trkpt lat="43.089075" lon="13.19623"><ele>1268.5</ele><time>2026-05-02T08:51:30.982Z</time></trkpt><trkpt lat="43.089065" lon="13.1961417"><ele>1268.0</ele><time>2026-05-02T08:51:32.982Z</time></trkpt><trkpt lat="43.0890517" lon="13.1960367"><ele>1267.5</ele><time>2026-05-02T08:51:34.981Z</time></trkpt><trkpt lat="43.0890217" lon="13.1959267"><ele>1267.0</ele><time>2026-05-02T08:51:36.981Z</time></trkpt><trkpt lat="43.089015" lon="13.1958217"><ele>1267.0</ele><time>2026-05-02T08:51:38.982Z</time></trkpt><trkpt lat="43.08901" lon="13.195725"><ele>1267.0</ele><time>2026-05-02T08:51:40.982Z</time></trkpt><trkpt lat="43.0889867" lon="13.19562"><ele>1267.0</ele><time>2026-05-02T08:51:42.981Z</time></trkpt><trkpt lat="43.088955" lon="13.1954833"><ele>1267.0</ele><time>2026-05-02T08:51:44.981Z</time></trkpt><trkpt lat="43.0889283" lon="13.1954017"><ele>1267.0</ele><time>2026-05-02T08:51:45.983Z</time></trkpt><trkpt lat="43.0889017" lon="13.1953167"><ele>1267.0</ele><time>2026-05-02T08:51:46.982Z</time></trkpt><trkpt lat="43.0888817" lon="13.1952217"><ele>1269.142857142857</ele><time>2026-05-02T08:51:47.981Z</time></trkpt><trkpt lat="43.0888667" lon="13.195125"><ele>1271.2857142857142</ele><time>2026-05-02T08:51:48.982Z</time></trkpt><trkpt lat="43.0888567" lon="13.1950333"><ele>1273.4285714285716</ele><time>2026-05-02T08:51:49.982Z</time></trkpt><trkpt lat="43.0888483" lon="13.19494"><ele>1275.5714285714284</ele><time>2026-05-02T08:51:50.983Z</time></trkpt><trkpt lat="43.0888417" lon="13.194845"><ele>1277.7142857142858</ele><time>2026-05-02T08:51:51.982Z</time></trkpt><trkpt lat="43.0888367" lon="13.1947483"><ele>1279.857142857143</ele><time>2026-05-02T08:51:52.982Z</time></trkpt><trkpt lat="43.08883" lon="13.1946517"><ele>1282.0</ele><time>2026-05-02T08:51:53.982Z</time></trkpt><trkpt lat="43.088815" lon="13.1945483"><ele>1285.1999999999998</ele><time>2026-05-02T08:51:54.983Z</time></trkpt><trkpt lat="43.0887933" lon="13.1944433"><ele>1288.4</ele><time>2026-05-02T08:51:55.983Z</time></trkpt><trkpt lat="43.08876" lon="13.1943367"><ele>1291.6</ele><time>2026-05-02T08:51:56.984Z</time></trkpt><trkpt lat="43.0887133" lon="13.19422"><ele>1294.8000000000002</ele><time>2026-05-02T08:51:57.982Z</time></trkpt><trkpt lat="43.088675" lon="13.19409"><ele>1298.0</ele><time>2026-05-02T08:51:58.982Z</time></trkpt><trkpt lat="43.08864" lon="13.1939517"><ele>1299.0</ele><time>2026-05-02T08:51:59.983Z</time></trkpt><trkpt lat="43.0886033" lon="13.1938133"><ele>1300.0</ele><time>2026-05-02T08:52:00.981Z</time></trkpt><trkpt lat="43.0885583" lon="13.1936817"><ele>1301.0</ele><time>2026-05-02T08:52:01.982Z</time></trkpt><trkpt lat="43.0885067" lon="13.193555"><ele>1302.0</ele><time>2026-05-02T08:52:02.982Z</time></trkpt><trkpt lat="43.0884583" lon="13.19343"><ele>1303.0</ele><time>2026-05-02T08:52:03.983Z</time></trkpt><trkpt lat="43.0884183" lon="13.1933067"><ele>1303.0</ele><time>2026-05-02T08:52:04.982Z</time></trkpt><trkpt lat="43.0883883" lon="13.193195"><ele>1303.0</ele><time>2026-05-02T08:52:05.981Z</time></trkpt><trkpt lat="43.0883733" lon="13.1930767"><ele>1303.0</ele><time>2026-05-02T08:52:06.982Z</time></trkpt><trkpt lat="43.08836" lon="13.192945"><ele>1303.0</ele><time>2026-05-02T08:52:07.982Z</time></trkpt><trkpt lat="43.0883383" lon="13.19281"><ele>1303.0</ele><time>2026-05-02T08:52:08.983Z</time></trkpt><trkpt lat="43.088305" lon="13.192665"><ele>1303.0</ele><time>2026-05-02T08:52:09.982Z</time></trkpt><trkpt lat="43.08827" lon="13.1925133"><ele>1303.0</ele><time>2026-05-02T08:52:10.983Z</time></trkpt><trkpt lat="43.088245" lon="13.1923633"><ele>1303.0</ele><time>2026-05-02T08:52:11.981Z</time></trkpt><trkpt lat="43.0882233" lon="13.1922267"><ele>1303.0</ele><time>2026-05-02T08:52:12.982Z</time></trkpt><trkpt lat="43.0881967" lon="13.1921017"><ele>1303.0</ele><time>2026-05-02T08:52:13.981Z</time></trkpt><trkpt lat="43.08816" lon="13.19198"><ele>1304.8333333333333</ele><time>2026-05-02T08:52:14.983Z</time></trkpt><trkpt lat="43.08811" lon="13.191865"><ele>1306.6666666666665</ele><time>2026-05-02T08:52:15.982Z</time></trkpt><trkpt lat="43.0880567" lon="13.1917567"><ele>1308.5</ele><time>2026-05-02T08:52:16.981Z</time></trkpt><trkpt lat="43.0880017" lon="13.19167"><ele>1310.3333333333333</ele><time>2026-05-02T08:52:17.982Z</time></trkpt><trkpt lat="43.08795" lon="13.1915883"><ele>1312.1666666666667</ele><time>2026-05-02T08:52:18.982Z</time></trkpt><trkpt lat="43.0879083" lon="13.1915183"><ele>1314.0</ele><time>2026-05-02T08:52:19.983Z</time></trkpt><trkpt lat="43.08783" lon="13.191395"><ele>1314.0</ele><time>2026-05-02T08:52:21.982Z</time></trkpt><trkpt lat="43.087785" lon="13.191325"><ele>1314.0</ele><time>2026-05-02T08:52:22.983Z</time></trkpt><trkpt lat="43.0877417" lon="13.1912433"><ele>1314.0</ele><time>2026-05-02T08:52:23.982Z</time></trkpt><trkpt lat="43.0876867" lon="13.1911533"><ele>1314.0</ele><time>2026-05-02T08:52:24.982Z</time></trkpt><trkpt lat="43.0876333" lon="13.1910617"><ele>1314.0</ele><time>2026-05-02T08:52:25.984Z</time></trkpt><trkpt lat="43.0875733" lon="13.1909633"><ele>1314.0</ele><time>2026-05-02T08:52:26.983Z</time></trkpt><trkpt lat="43.087505" lon="13.1908583"><ele>1314.0</ele><time>2026-05-02T08:52:27.983Z</time></trkpt><trkpt lat="43.0874333" lon="13.1907483"><ele>1314.0</ele><time>2026-05-02T08:52:28.983Z</time></trkpt><trkpt lat="43.087365" lon="13.1906383"><ele>1314.0</ele><time>2026-05-02T08:52:29.981Z</time></trkpt><trkpt lat="43.087295" lon="13.1905267"><ele>1314.0</ele><time>2026-05-02T08:52:30.981Z</time></trkpt><trkpt lat="43.08723" lon="13.190425"><ele>1314.0</ele><time>2026-05-02T08:52:31.983Z</time></trkpt><trkpt lat="43.0871717" lon="13.1903367"><ele>1314.4</ele><time>2026-05-02T08:52:32.983Z</time></trkpt><trkpt lat="43.0871133" lon="13.1902517"><ele>1314.8000000000002</ele><time>2026-05-02T08:52:33.981Z</time></trkpt><trkpt lat="43.0870483" lon="13.1901617"><ele>1315.1999999999998</ele><time>2026-05-02T08:52:34.983Z</time></trkpt><trkpt lat="43.08698" lon="13.1900617"><ele>1315.6</ele><time>2026-05-02T08:52:35.981Z</time></trkpt><trkpt lat="43.0869067" lon="13.18996"><ele>1316.0</ele><time>2026-05-02T08:52:36.982Z</time></trkpt><trkpt lat="43.08683" lon="13.189855"><ele>1315.75</ele><time>2026-05-02T08:52:37.982Z</time></trkpt><trkpt lat="43.0867517" lon="13.189745"><ele>1315.5</ele><time>2026-05-02T08:52:38.983Z</time></trkpt><trkpt lat="43.08667" lon="13.18964"><ele>1315.25</ele><time>2026-05-02T08:52:39.981Z</time></trkpt><trkpt lat="43.086585" lon="13.1895333"><ele>1315.0</ele><time>2026-05-02T08:52:40.983Z</time></trkpt><trkpt lat="43.0864967" lon="13.1894267"><ele>1315.6</ele><time>2026-05-02T08:52:41.981Z</time></trkpt><trkpt lat="43.0864083" lon="13.1893233"><ele>1316.2</ele><time>2026-05-02T08:52:42.982Z</time></trkpt><trkpt lat="43.08632" lon="13.1892333"><ele>1316.8000000000002</ele><time>2026-05-02T08:52:43.981Z</time></trkpt><trkpt lat="43.0862333" lon="13.18915"><ele>1317.4</ele><time>2026-05-02T08:52:44.983Z</time></trkpt><trkpt lat="43.08615" lon="13.18907"><ele>1318.0</ele><time>2026-05-02T08:52:45.981Z</time></trkpt><trkpt lat="43.0860733" lon="13.1889967"><ele>1318.0</ele><time>2026-05-02T08:52:46.982Z</time></trkpt><trkpt lat="43.0859983" lon="13.188925"><ele>1318.0</ele><time>2026-05-02T08:52:47.983Z</time></trkpt><trkpt lat="43.0859283" lon="13.18886"><ele>1318.0</ele><time>2026-05-02T08:52:48.983Z</time></trkpt><trkpt lat="43.0858667" lon="13.1888083"><ele>1318.0</ele><time>2026-05-02T08:52:49.982Z</time></trkpt><trkpt lat="43.0858033" lon="13.1887617"><ele>1318.0</ele><time>2026-05-02T08:52:50.982Z</time></trkpt><trkpt lat="43.0857317" lon="13.1887083"><ele>1318.0</ele><time>2026-05-02T08:52:51.983Z</time></trkpt><trkpt lat="43.08566" lon="13.1886517"><ele>1317.3333333333333</ele><time>2026-05-02T08:52:52.983Z</time></trkpt><trkpt lat="43.0855833" lon="13.1885917"><ele>1316.6666666666665</ele><time>2026-05-02T08:52:53.982Z</time></trkpt><trkpt lat="43.0855083" lon="13.1885283"><ele>1316.0</ele><time>2026-05-02T08:52:54.982Z</time></trkpt><trkpt lat="43.085435" lon="13.188465"><ele>1315.3333333333333</ele><time>2026-05-02T08:52:55.982Z</time></trkpt><trkpt lat="43.0853683" lon="13.1884067"><ele>1314.6666666666667</ele><time>2026-05-02T08:52:56.983Z</time></trkpt><trkpt lat="43.085305" lon="13.188355"><ele>1314.0</ele><time>2026-05-02T08:52:57.983Z</time></trkpt><trkpt lat="43.0852067" lon="13.1882717"><ele>1314.0</ele><time>2026-05-02T08:52:59.982Z</time></trkpt><trkpt lat="43.0851183" lon="13.18819"><ele>1314.0</ele><time>2026-05-02T08:53:01.981Z</time></trkpt><trkpt lat="43.0850633" lon="13.1881333"><ele>1314.0</ele><time>2026-05-02T08:53:02.983Z</time></trkpt><trkpt lat="43.0850017" lon="13.1880633"><ele>1314.0</ele><time>2026-05-02T08:53:03.983Z</time></trkpt><trkpt lat="43.0849283" lon="13.1879833"><ele>1314.0</ele><time>2026-05-02T08:53:04.982Z</time></trkpt><trkpt lat="43.0848467" lon="13.187895"><ele>1313.0</ele><time>2026-05-02T08:53:05.981Z</time></trkpt><trkpt lat="43.08476" lon="13.1878133"><ele>1312.0</ele><time>2026-05-02T08:53:06.981Z</time></trkpt><trkpt lat="43.0846733" lon="13.1877333"><ele>1311.0</ele><time>2026-05-02T08:53:07.982Z</time></trkpt><trkpt lat="43.0845883" lon="13.187655"><ele>1310.0</ele><time>2026-05-02T08:53:08.982Z</time></trkpt><trkpt lat="43.0845017" lon="13.1875833"><ele>1309.0</ele><time>2026-05-02T08:53:09.982Z</time></trkpt><trkpt lat="43.0844217" lon="13.18752"><ele>1309.0</ele><time>2026-05-02T08:53:10.982Z</time></trkpt><trkpt lat="43.0843433" lon="13.1874583"><ele>1309.0</ele><time>2026-05-02T08:53:11.981Z</time></trkpt><trkpt lat="43.08426" lon="13.187395"><ele>1309.0</ele><time>2026-05-02T08:53:12.982Z</time></trkpt><trkpt lat="43.084175" lon="13.1873283"><ele>1309.0</ele><time>2026-05-02T08:53:13.984Z</time></trkpt><trkpt lat="43.0840833" lon="13.1872633"><ele>1309.0</ele><time>2026-05-02T08:53:14.983Z</time></trkpt><trkpt lat="43.08399" lon="13.1872017"><ele>1307.2</ele><time>2026-05-02T08:53:15.981Z</time></trkpt><trkpt lat="43.0838983" lon="13.1871483"><ele>1305.4</ele><time>2026-05-02T08:53:16.982Z</time></trkpt><trkpt lat="43.083815" lon="13.1871"><ele>1303.6</ele><time>2026-05-02T08:53:17.983Z</time></trkpt><trkpt lat="43.0837317" lon="13.1870533"><ele>1301.8</ele><time>2026-05-02T08:53:18.982Z</time></trkpt><trkpt lat="43.0836433" lon="13.1870033"><ele>1300.0</ele><time>2026-05-02T08:53:19.982Z</time></trkpt><trkpt lat="43.08355" lon="13.1869533"><ele>1300.0</ele><time>2026-05-02T08:53:20.983Z</time></trkpt><trkpt lat="43.0834517" lon="13.1869033"><ele>1300.0</ele><time>2026-05-02T08:53:21.982Z</time></trkpt><trkpt lat="43.0833567" lon="13.1868583"><ele>1300.0</ele><time>2026-05-02T08:53:22.987Z</time></trkpt><trkpt lat="43.083265" lon="13.186815"><ele>1300.0</ele><time>2026-05-02T08:53:23.982Z</time></trkpt><trkpt lat="43.08317" lon="13.1867683"><ele>1300.0</ele><time>2026-05-02T08:53:24.982Z</time></trkpt><trkpt lat="43.083075" lon="13.18672"><ele>1299.2</ele><time>2026-05-02T08:53:25.982Z</time></trkpt><trkpt lat="43.0829767" lon="13.1866767"><ele>1298.4</ele><time>2026-05-02T08:53:26.981Z</time></trkpt><trkpt lat="43.0828783" lon="13.186635"><ele>1297.6</ele><time>2026-05-02T08:53:27.981Z</time></trkpt><trkpt lat="43.0827883" lon="13.186595"><ele>1296.8</ele><time>2026-05-02T08:53:28.981Z</time></trkpt><trkpt lat="43.0826983" lon="13.1865517"><ele>1296.0</ele><time>2026-05-02T08:53:29.982Z</time></trkpt><trkpt lat="43.08261" lon="13.1865067"><ele>1295.4</ele><time>2026-05-02T08:53:30.982Z</time></trkpt><trkpt lat="43.08253" lon="13.1864667"><ele>1294.8</ele><time>2026-05-02T08:53:31.981Z</time></trkpt><trkpt lat="43.0824483" lon="13.1864283"><ele>1294.2</ele><time>2026-05-02T08:53:32.982Z</time></trkpt><trkpt lat="43.0823617" lon="13.1863867"><ele>1293.6000000000001</ele><time>2026-05-02T08:53:33.982Z</time></trkpt><trkpt lat="43.0822683" lon="13.1863383"><ele>1293.0</ele><time>2026-05-02T08:53:34.981Z</time></trkpt><trkpt lat="43.0821767" lon="13.1862883"><ele>1292.8000000000002</ele><time>2026-05-02T08:53:35.981Z</time></trkpt><trkpt lat="43.082085" lon="13.18624"><ele>1292.6</ele><time>2026-05-02T08:53:36.981Z</time></trkpt><trkpt lat="43.08199" lon="13.1861917"><ele>1292.4</ele><time>2026-05-02T08:53:37.982Z</time></trkpt><trkpt lat="43.0818883" lon="13.186145"><ele>1292.1999999999998</ele><time>2026-05-02T08:53:38.981Z</time></trkpt><trkpt lat="43.0817883" lon="13.186095"><ele>1292.0</ele><time>2026-05-02T08:53:39.982Z</time></trkpt><trkpt lat="43.08169" lon="13.1860417"><ele>1291.3999999999999</ele><time>2026-05-02T08:53:40.982Z</time></trkpt><trkpt lat="43.0815917" lon="13.1859867"><ele>1290.8</ele><time>2026-05-02T08:53:41.981Z</time></trkpt><trkpt lat="43.0815017" lon="13.1859333"><ele>1290.2</ele><time>2026-05-02T08:53:42.981Z</time></trkpt><trkpt lat="43.08142" lon="13.1858817"><ele>1289.6</ele><time>2026-05-02T08:53:43.981Z</time></trkpt><trkpt lat="43.081335" lon="13.1858317"><ele>1289.0</ele><time>2026-05-02T08:53:44.983Z</time></trkpt><trkpt lat="43.0812517" lon="13.1857817"><ele>1289.0</ele><time>2026-05-02T08:53:45.981Z</time></trkpt><trkpt lat="43.0811733" lon="13.185735"><ele>1289.0</ele><time>2026-05-02T08:53:46.98Z</time></trkpt><trkpt lat="43.0811" lon="13.1856883"><ele>1289.0</ele><time>2026-05-02T08:53:47.982Z</time></trkpt><trkpt lat="43.0810267" lon="13.18564"><ele>1289.0</ele><time>2026-05-02T08:53:48.981Z</time></trkpt><trkpt lat="43.0809517" lon="13.1855883"><ele>1289.0</ele><time>2026-05-02T08:53:49.982Z</time></trkpt><trkpt lat="43.0808783" lon="13.1855333"><ele>1289.0</ele><time>2026-05-02T08:53:50.982Z</time></trkpt><trkpt lat="43.0808117" lon="13.1854767"><ele>1288.2857142857142</ele><time>2026-05-02T08:53:51.981Z</time></trkpt><trkpt lat="43.0807467" lon="13.1854183"><ele>1287.5714285714284</ele><time>2026-05-02T08:53:52.981Z</time></trkpt><trkpt lat="43.0806867" lon="13.1853533"><ele>1286.8571428571427</ele><time>2026-05-02T08:53:53.981Z</time></trkpt><trkpt lat="43.0806317" lon="13.185285"><ele>1286.142857142857</ele><time>2026-05-02T08:53:54.983Z</time></trkpt><trkpt lat="43.0805817" lon="13.185215"><ele>1285.4285714285713</ele><time>2026-05-02T08:53:55.981Z</time></trkpt><trkpt lat="43.080535" lon="13.185145"><ele>1284.7142857142856</ele><time>2026-05-02T08:53:56.982Z</time></trkpt><trkpt lat="43.08049" lon="13.1850783"><ele>1284.0</ele><time>2026-05-02T08:53:57.981Z</time></trkpt><trkpt lat="43.08045" lon="13.1850117"><ele>1284.0</ele><time>2026-05-02T08:53:58.98Z</time></trkpt><trkpt lat="43.0804067" lon="13.184945"><ele>1284.0</ele><time>2026-05-02T08:53:59.98Z</time></trkpt><trkpt lat="43.080355" lon="13.1848717"><ele>1284.0</ele><time>2026-05-02T08:54:00.982Z</time></trkpt><trkpt lat="43.0802967" lon="13.1847867"><ele>1284.0</ele><time>2026-05-02T08:54:01.981Z</time></trkpt><trkpt lat="43.0802267" lon="13.1846867"><ele>1284.0</ele><time>2026-05-02T08:54:02.984Z</time></trkpt><trkpt lat="43.0801517" lon="13.18459"><ele>1284.0</ele><time>2026-05-02T08:54:03.981Z</time></trkpt><trkpt lat="43.0800767" lon="13.1845"><ele>1283.0</ele><time>2026-05-02T08:54:04.98Z</time></trkpt><trkpt lat="43.0800083" lon="13.1844233"><ele>1282.0</ele><time>2026-05-02T08:54:05.982Z</time></trkpt><trkpt lat="43.07994" lon="13.1843433"><ele>1281.0</ele><time>2026-05-02T08:54:06.982Z</time></trkpt><trkpt lat="43.0798767" lon="13.1842517"><ele>1280.0</ele><time>2026-05-02T08:54:07.982Z</time></trkpt><trkpt lat="43.0798217" lon="13.1841417"><ele>1279.0</ele><time>2026-05-02T08:54:08.982Z</time></trkpt><trkpt lat="43.0797717" lon="13.1840183"><ele>1277.8333333333333</ele><time>2026-05-02T08:54:09.981Z</time></trkpt><trkpt lat="43.0797267" lon="13.1838983"><ele>1276.6666666666665</ele><time>2026-05-02T08:54:10.981Z</time></trkpt><trkpt lat="43.079685" lon="13.18379"><ele>1275.5</ele><time>2026-05-02T08:54:11.982Z</time></trkpt><trkpt lat="43.079655" lon="13.1836883"><ele>1274.3333333333333</ele><time>2026-05-02T08:54:12.981Z</time></trkpt><trkpt lat="43.0796417" lon="13.183595"><ele>1273.1666666666667</ele><time>2026-05-02T08:54:13.98Z</time></trkpt><trkpt lat="43.07965" lon="13.1834467"><ele>1272.0</ele><time>2026-05-02T08:54:15.981Z</time></trkpt><trkpt lat="43.0796733" lon="13.1833383"><ele>1272.0</ele><time>2026-05-02T08:54:17.985Z</time></trkpt><trkpt lat="43.0796983" lon="13.1832417"><ele>1272.0</ele><time>2026-05-02T08:54:19.982Z</time></trkpt><trkpt lat="43.0797233" lon="13.1831567"><ele>1272.0</ele><time>2026-05-02T08:54:21.981Z</time></trkpt><trkpt lat="43.0797433" lon="13.18305"><ele>1272.0</ele><time>2026-05-02T08:54:38.982Z</time></trkpt><trkpt lat="43.07976" lon="13.1829383"><ele>1272.0</ele><time>2026-05-02T08:54:40.982Z</time></trkpt><trkpt lat="43.079785" lon="13.1827917"><ele>1272.0</ele><time>2026-05-02T08:54:42.981Z</time></trkpt><trkpt lat="43.07982" lon="13.1826267"><ele>1270.6666666666667</ele><time>2026-05-02T08:54:44.983Z</time></trkpt><trkpt lat="43.0798567" lon="13.18246"><ele>1269.3333333333333</ele><time>2026-05-02T08:54:46.981Z</time></trkpt><trkpt lat="43.0798717" lon="13.1823733"><ele>1268.0</ele><time>2026-05-02T08:54:47.982Z</time></trkpt><trkpt lat="43.0798883" lon="13.1822783"><ele>1266.6666666666665</ele><time>2026-05-02T08:54:48.982Z</time></trkpt><trkpt lat="43.0799017" lon="13.1821767"><ele>1265.3333333333333</ele><time>2026-05-02T08:54:49.981Z</time></trkpt><trkpt lat="43.079905" lon="13.1820767"><ele>1264.0</ele><time>2026-05-02T08:54:50.981Z</time></trkpt><trkpt lat="43.0799" lon="13.1819783"><ele>1262.8333333333333</ele><time>2026-05-02T08:54:51.982Z</time></trkpt><trkpt lat="43.0798867" lon="13.181875"><ele>1261.6666666666665</ele><time>2026-05-02T08:54:52.982Z</time></trkpt><trkpt lat="43.0798667" lon="13.1817683"><ele>1260.5</ele><time>2026-05-02T08:54:53.982Z</time></trkpt><trkpt lat="43.079845" lon="13.181665"><ele>1259.3333333333333</ele><time>2026-05-02T08:54:54.981Z</time></trkpt><trkpt lat="43.07982" lon="13.1815567"><ele>1258.1666666666667</ele><time>2026-05-02T08:54:55.981Z</time></trkpt><trkpt lat="43.0797967" lon="13.18145"><ele>1257.0</ele><time>2026-05-02T08:54:56.981Z</time></trkpt><trkpt lat="43.079775" lon="13.1813433"><ele>1255.0</ele><time>2026-05-02T08:54:57.981Z</time></trkpt><trkpt lat="43.0797533" lon="13.1812367"><ele>1253.0</ele><time>2026-05-02T08:54:58.981Z</time></trkpt><trkpt lat="43.0797317" lon="13.181135"><ele>1251.0</ele><time>2026-05-02T08:54:59.982Z</time></trkpt><trkpt lat="43.079705" lon="13.181035"><ele>1249.0</ele><time>2026-05-02T08:55:00.981Z</time></trkpt><trkpt lat="43.0796733" lon="13.1809383"><ele>1247.0</ele><time>2026-05-02T08:55:01.981Z</time></trkpt><trkpt lat="43.079635" lon="13.1808483"><ele>1245.0</ele><time>2026-05-02T08:55:02.981Z</time></trkpt><trkpt lat="43.0795883" lon="13.180765"><ele>1242.6666666666667</ele><time>2026-05-02T08:55:03.981Z</time></trkpt><trkpt lat="43.0795367" lon="13.1806817"><ele>1240.3333333333333</ele><time>2026-05-02T08:55:04.981Z</time></trkpt><trkpt lat="43.0794817" lon="13.1806017"><ele>1238.0</ele><time>2026-05-02T08:55:05.981Z</time></trkpt><trkpt lat="43.07943" lon="13.1805233"><ele>1235.6666666666665</ele><time>2026-05-02T08:55:06.982Z</time></trkpt><trkpt lat="43.079375" lon="13.1804383"><ele>1233.3333333333333</ele><time>2026-05-02T08:55:07.982Z</time></trkpt><trkpt lat="43.079315" lon="13.180355"><ele>1231.0</ele><time>2026-05-02T08:55:08.982Z</time></trkpt><trkpt lat="43.0792533" lon="13.180275"><ele>1231.0</ele><time>2026-05-02T08:55:09.982Z</time></trkpt><trkpt lat="43.0791817" lon="13.1802017"><ele>1231.0</ele><time>2026-05-02T08:55:10.982Z</time></trkpt><trkpt lat="43.0790983" lon="13.1801267"><ele>1231.0</ele><time>2026-05-02T08:55:11.981Z</time></trkpt><trkpt lat="43.0790117" lon="13.1800483"><ele>1231.0</ele><time>2026-05-02T08:55:12.982Z</time></trkpt><trkpt lat="43.07893" lon="13.1799733"><ele>1231.0</ele><time>2026-05-02T08:55:13.982Z</time></trkpt><trkpt lat="43.0788567" lon="13.1798967"><ele>1228.5</ele><time>2026-05-02T08:55:14.982Z</time></trkpt><trkpt lat="43.078785" lon="13.1798233"><ele>1226.0</ele><time>2026-05-02T08:55:15.981Z</time></trkpt><trkpt lat="43.0787167" lon="13.179755"><ele>1223.5</ele><time>2026-05-02T08:55:16.981Z</time></trkpt><trkpt lat="43.0786483" lon="13.1796867"><ele>1221.0</ele><time>2026-05-02T08:55:17.981Z</time></trkpt><trkpt lat="43.0785783" lon="13.179615"><ele>1218.5</ele><time>2026-05-02T08:55:18.981Z</time></trkpt><trkpt lat="43.07851" lon="13.17955"><ele>1216.0</ele><time>2026-05-02T08:55:19.982Z</time></trkpt><trkpt lat="43.0784433" lon="13.1794867"><ele>1216.0</ele><time>2026-05-02T08:55:20.982Z</time></trkpt><trkpt lat="43.0783717" lon="13.1794267"><ele>1216.0</ele><time>2026-05-02T08:55:21.982Z</time></trkpt><trkpt lat="43.0782967" lon="13.1793733"><ele>1216.0</ele><time>2026-05-02T08:55:22.982Z</time></trkpt><trkpt lat="43.0782167" lon="13.1793283"><ele>1216.0</ele><time>2026-05-02T08:55:23.981Z</time></trkpt><trkpt lat="43.07813" lon="13.1792917"><ele>1216.0</ele><time>2026-05-02T08:55:24.982Z</time></trkpt><trkpt lat="43.078045" lon="13.1792617"><ele>1216.0</ele><time>2026-05-02T08:55:25.981Z</time></trkpt><trkpt lat="43.0779583" lon="13.1792367"><ele>1214.8333333333333</ele><time>2026-05-02T08:55:26.982Z</time></trkpt><trkpt lat="43.0778733" lon="13.17922"><ele>1213.6666666666665</ele><time>2026-05-02T08:55:27.981Z</time></trkpt><trkpt lat="43.0777833" lon="13.1792133"><ele>1212.5</ele><time>2026-05-02T08:55:28.982Z</time></trkpt><trkpt lat="43.0776967" lon="13.179215"><ele>1211.3333333333333</ele><time>2026-05-02T08:55:29.981Z</time></trkpt><trkpt lat="43.077615" lon="13.1792267"><ele>1210.1666666666667</ele><time>2026-05-02T08:55:30.981Z</time></trkpt><trkpt lat="43.07753" lon="13.179245"><ele>1209.0</ele><time>2026-05-02T08:55:31.981Z</time></trkpt><trkpt lat="43.07745" lon="13.1792617"><ele>1207.5</ele><time>2026-05-02T08:55:32.982Z</time></trkpt><trkpt lat="43.07738" lon="13.1792717"><ele>1206.0</ele><time>2026-05-02T08:55:33.981Z</time></trkpt><trkpt lat="43.07727" lon="13.1792517"><ele>1204.5</ele><time>2026-05-02T08:55:35.982Z</time></trkpt><trkpt lat="43.0772217" lon="13.179165"><ele>1203.0</ele><time>2026-05-02T08:55:37.983Z</time></trkpt><trkpt lat="43.077245" lon="13.1790417"><ele>1201.5</ele><time>2026-05-02T08:55:39.983Z</time></trkpt><trkpt lat="43.0772783" lon="13.17896"><ele>1200.0</ele><time>2026-05-02T08:55:40.982Z</time></trkpt><trkpt lat="43.0773167" lon="13.1788733"><ele>1199.6666666666667</ele><time>2026-05-02T08:55:41.982Z</time></trkpt><trkpt lat="43.0773533" lon="13.1787783"><ele>1199.3333333333333</ele><time>2026-05-02T08:55:42.981Z</time></trkpt><trkpt lat="43.077395" lon="13.1786783"><ele>1199.0</ele><time>2026-05-02T08:55:43.981Z</time></trkpt><trkpt lat="43.0774383" lon="13.17858"><ele>1198.6666666666665</ele><time>2026-05-02T08:55:44.982Z</time></trkpt><trkpt lat="43.077485" lon="13.17848"><ele>1198.3333333333333</ele><time>2026-05-02T08:55:45.981Z</time></trkpt><trkpt lat="43.0775333" lon="13.1783733"><ele>1198.0</ele><time>2026-05-02T08:55:46.981Z</time></trkpt><trkpt lat="43.0775817" lon="13.1782717"><ele>1195.5</ele><time>2026-05-02T08:55:47.982Z</time></trkpt><trkpt lat="43.07763" lon="13.17817"><ele>1193.0</ele><time>2026-05-02T08:55:48.981Z</time></trkpt><trkpt lat="43.07768" lon="13.178075"><ele>1190.5</ele><time>2026-05-02T08:55:49.982Z</time></trkpt><trkpt lat="43.0777283" lon="13.1779867"><ele>1188.0</ele><time>2026-05-02T08:55:50.981Z</time></trkpt><trkpt lat="43.077775" lon="13.1779117"><ele>1185.5</ele><time>2026-05-02T08:55:51.981Z</time></trkpt><trkpt lat="43.0778217" lon="13.1778533"><ele>1183.0</ele><time>2026-05-02T08:55:52.981Z</time></trkpt><trkpt lat="43.07788" lon="13.177765"><ele>1183.0</ele><time>2026-05-02T08:55:54.981Z</time></trkpt><trkpt lat="43.0778717" lon="13.1776783"><ele>1183.0</ele><time>2026-05-02T08:55:56.984Z</time></trkpt><trkpt lat="43.077805" lon="13.1776283"><ele>1183.0</ele><time>2026-05-02T08:55:58.982Z</time></trkpt><trkpt lat="43.07774" lon="13.1776133"><ele>1183.0</ele><time>2026-05-02T08:55:59.981Z</time></trkpt><trkpt lat="43.077665" lon="13.1775933"><ele>1183.0</ele><time>2026-05-02T08:56:00.982Z</time></trkpt><trkpt lat="43.077585" lon="13.1775733"><ele>1183.0</ele><time>2026-05-02T08:56:01.982Z</time></trkpt><trkpt lat="43.0775067" lon="13.1775533"><ele>1183.0</ele><time>2026-05-02T08:56:02.982Z</time></trkpt><trkpt lat="43.0774283" lon="13.1775367"><ele>1181.1666666666665</ele><time>2026-05-02T08:56:03.981Z</time></trkpt><trkpt lat="43.0773517" lon="13.1775183"><ele>1179.3333333333333</ele><time>2026-05-02T08:56:04.981Z</time></trkpt><trkpt lat="43.07727" lon="13.1775033"><ele>1177.5</ele><time>2026-05-02T08:56:05.983Z</time></trkpt><trkpt lat="43.0771817" lon="13.17749"><ele>1175.6666666666667</ele><time>2026-05-02T08:56:06.982Z</time></trkpt><trkpt lat="43.0770883" lon="13.1774833"><ele>1173.8333333333335</ele><time>2026-05-02T08:56:07.982Z</time></trkpt><trkpt lat="43.076995" lon="13.17748"><ele>1172.0</ele><time>2026-05-02T08:56:08.983Z</time></trkpt><trkpt lat="43.0769017" lon="13.17748"><ele>1172.0</ele><time>2026-05-02T08:56:09.982Z</time></trkpt><trkpt lat="43.0768133" lon="13.17748"><ele>1172.0</ele><time>2026-05-02T08:56:10.981Z</time></trkpt><trkpt lat="43.07672" lon="13.1774833"><ele>1172.0</ele><time>2026-05-02T08:56:11.982Z</time></trkpt><trkpt lat="43.0766233" lon="13.1774833"><ele>1172.0</ele><time>2026-05-02T08:56:12.982Z</time></trkpt><trkpt lat="43.0765233" lon="13.1774867"><ele>1172.0</ele><time>2026-05-02T08:56:13.982Z</time></trkpt><trkpt lat="43.0764283" lon="13.177485"><ele>1169.8</ele><time>2026-05-02T08:56:14.983Z</time></trkpt><trkpt lat="43.076335" lon="13.1774817"><ele>1167.6</ele><time>2026-05-02T08:56:15.983Z</time></trkpt><trkpt lat="43.0762383" lon="13.1774783"><ele>1165.3999999999999</ele><time>2026-05-02T08:56:16.982Z</time></trkpt><trkpt lat="43.0761433" lon="13.1774767"><ele>1163.2</ele><time>2026-05-02T08:56:17.981Z</time></trkpt><trkpt lat="43.0760483" lon="13.1774767"><ele>1161.0</ele><time>2026-05-02T08:56:18.981Z</time></trkpt><trkpt lat="43.0759583" lon="13.1774767"><ele>1161.0</ele><time>2026-05-02T08:56:19.981Z</time></trkpt><trkpt lat="43.0758717" lon="13.1774733"><ele>1161.0</ele><time>2026-05-02T08:56:20.981Z</time></trkpt><trkpt lat="43.075795" lon="13.1774733"><ele>1161.0</ele><time>2026-05-02T08:56:21.982Z</time></trkpt><trkpt lat="43.075725" lon="13.1774733"><ele>1161.0</ele><time>2026-05-02T08:56:22.982Z</time></trkpt><trkpt lat="43.0756483" lon="13.1774783"><ele>1161.0</ele><time>2026-05-02T08:56:23.982Z</time></trkpt><trkpt lat="43.0755717" lon="13.1774883"><ele>1161.0</ele><time>2026-05-02T08:56:24.983Z</time></trkpt><trkpt lat="43.0754983" lon="13.1774983"><ele>1158.8333333333333</ele><time>2026-05-02T08:56:25.981Z</time></trkpt><trkpt lat="43.0754317" lon="13.177515"><ele>1156.6666666666667</ele><time>2026-05-02T08:56:26.982Z</time></trkpt><trkpt lat="43.07537" lon="13.1775367"><ele>1154.5</ele><time>2026-05-02T08:56:27.981Z</time></trkpt><trkpt lat="43.0752667" lon="13.1775833"><ele>1152.3333333333335</ele><time>2026-05-02T08:56:29.981Z</time></trkpt><trkpt lat="43.0751833" lon="13.1775967"><ele>1150.1666666666667</ele><time>2026-05-02T08:56:31.981Z</time></trkpt><trkpt lat="43.0751067" lon="13.1775233"><ele>1148.0</ele><time>2026-05-02T08:56:34.982Z</time></trkpt><trkpt lat="43.07507" lon="13.177405"><ele>1145.5</ele><time>2026-05-02T08:56:36.981Z</time></trkpt><trkpt lat="43.07504" lon="13.1772467"><ele>1143.0</ele><time>2026-05-02T08:56:38.982Z</time></trkpt><trkpt lat="43.07503" lon="13.177085"><ele>1140.5</ele><time>2026-05-02T08:56:40.982Z</time></trkpt><trkpt lat="43.0750517" lon="13.1769383"><ele>1138.0</ele><time>2026-05-02T08:56:42.982Z</time></trkpt><trkpt lat="43.075125" lon="13.1767933"><ele>1138.0</ele><time>2026-05-02T08:56:44.982Z</time></trkpt><trkpt lat="43.0751783" lon="13.17671"><ele>1138.0</ele><time>2026-05-02T08:56:45.982Z</time></trkpt><trkpt lat="43.075235" lon="13.176625"><ele>1138.0</ele><time>2026-05-02T08:56:46.982Z</time></trkpt><trkpt lat="43.0752933" lon="13.17654"><ele>1138.0</ele><time>2026-05-02T08:56:47.982Z</time></trkpt><trkpt lat="43.07535" lon="13.1764567"><ele>1138.0</ele><time>2026-05-02T08:56:48.981Z</time></trkpt><trkpt lat="43.0754117" lon="13.1763667"><ele>1138.0</ele><time>2026-05-02T08:56:49.981Z</time></trkpt><trkpt lat="43.0754883" lon="13.1762667"><ele>1136.8</ele><time>2026-05-02T08:56:50.982Z</time></trkpt><trkpt lat="43.0755633" lon="13.176165"><ele>1135.6</ele><time>2026-05-02T08:56:51.981Z</time></trkpt><trkpt lat="43.0756367" lon="13.1760617"><ele>1134.4</ele><time>2026-05-02T08:56:52.981Z</time></trkpt><trkpt lat="43.0757083" lon="13.1759633"><ele>1133.2</ele><time>2026-05-02T08:56:53.981Z</time></trkpt><trkpt lat="43.0757717" lon="13.175875"><ele>1132.0</ele><time>2026-05-02T08:56:54.983Z</time></trkpt><trkpt lat="43.0758317" lon="13.1757933"><ele>1132.0</ele><time>2026-05-02T08:56:55.981Z</time></trkpt><trkpt lat="43.0758917" lon="13.175715"><ele>1132.0</ele><time>2026-05-02T08:56:56.983Z</time></trkpt><trkpt lat="43.0759467" lon="13.1756467"><ele>1132.0</ele><time>2026-05-02T08:56:57.982Z</time></trkpt><trkpt lat="43.076" lon="13.1755983"><ele>1132.0</ele><time>2026-05-02T08:56:58.982Z</time></trkpt><trkpt lat="43.07608" lon="13.17551"><ele>1132.0</ele><time>2026-05-02T08:57:00.981Z</time></trkpt><trkpt lat="43.0760733" lon="13.1754017"><ele>1132.0</ele><time>2026-05-02T08:57:03.981Z</time></trkpt><trkpt lat="43.0759767" lon="13.1753767"><ele>1128.0</ele><time>2026-05-02T08:57:05.981Z</time></trkpt><trkpt lat="43.0759" lon="13.1753667"><ele>1124.0</ele><time>2026-05-02T08:57:06.981Z</time></trkpt><trkpt lat="43.0758033" lon="13.1753567"><ele>1120.0</ele><time>2026-05-02T08:57:07.982Z</time></trkpt><trkpt lat="43.0757" lon="13.1753467"><ele>1116.0</ele><time>2026-05-02T08:57:08.982Z</time></trkpt><trkpt lat="43.0755933" lon="13.1753433"><ele>1112.0</ele><time>2026-05-02T08:57:09.981Z</time></trkpt><trkpt lat="43.0754833" lon="13.17534"><ele>1111.8</ele><time>2026-05-02T08:57:10.984Z</time></trkpt><trkpt lat="43.0753867" lon="13.1753383"><ele>1111.6</ele><time>2026-05-02T08:57:11.981Z</time></trkpt><trkpt lat="43.0752983" lon="13.1753317"><ele>1111.3999999999999</ele><time>2026-05-02T08:57:12.982Z</time></trkpt><trkpt lat="43.075205" lon="13.17532"><ele>1111.2</ele><time>2026-05-02T08:57:13.981Z</time></trkpt><trkpt lat="43.075105" lon="13.1752967"><ele>1111.0</ele><time>2026-05-02T08:57:14.983Z</time></trkpt><trkpt lat="43.07501" lon="13.1752617"><ele>1111.0</ele><time>2026-05-02T08:57:15.982Z</time></trkpt><trkpt lat="43.0749333" lon="13.1752067"><ele>1111.0</ele><time>2026-05-02T08:57:16.982Z</time></trkpt><trkpt lat="43.0748567" lon="13.1751167"><ele>1111.0</ele><time>2026-05-02T08:57:17.982Z</time></trkpt><trkpt lat="43.0747833" lon="13.1750083"><ele>1111.0</ele><time>2026-05-02T08:57:18.984Z</time></trkpt><trkpt lat="43.074715" lon="13.1749017"><ele>1111.0</ele><time>2026-05-02T08:57:19.981Z</time></trkpt><trkpt lat="43.0746483" lon="13.1748033"><ele>1107.6</ele><time>2026-05-02T08:57:20.983Z</time></trkpt><trkpt lat="43.0745783" lon="13.1747033"><ele>1104.1999999999998</ele><time>2026-05-02T08:57:21.982Z</time></trkpt><trkpt lat="43.0745067" lon="13.1746067"><ele>1100.8000000000002</ele><time>2026-05-02T08:57:22.983Z</time></trkpt><trkpt lat="43.07443" lon="13.1745183"><ele>1097.4</ele><time>2026-05-02T08:57:23.983Z</time></trkpt><trkpt lat="43.0743467" lon="13.1744417"><ele>1094.0</ele><time>2026-05-02T08:57:24.983Z</time></trkpt><trkpt lat="43.07426" lon="13.1743717"><ele>1094.0</ele><time>2026-05-02T08:57:25.982Z</time></trkpt><trkpt lat="43.0741783" lon="13.1743083"><ele>1094.0</ele><time>2026-05-02T08:57:26.983Z</time></trkpt><trkpt lat="43.0741017" lon="13.17426"><ele>1094.0</ele><time>2026-05-02T08:57:27.982Z</time></trkpt><trkpt lat="43.0740117" lon="13.1742233"><ele>1094.0</ele><time>2026-05-02T08:57:28.983Z</time></trkpt><trkpt lat="43.0739133" lon="13.1741933"><ele>1094.0</ele><time>2026-05-02T08:57:29.982Z</time></trkpt><trkpt lat="43.0738233" lon="13.1741683"><ele>1093.3333333333335</ele><time>2026-05-02T08:57:30.983Z</time></trkpt><trkpt lat="43.0737517" lon="13.1741483"><ele>1092.6666666666667</ele><time>2026-05-02T08:57:31.982Z</time></trkpt><trkpt lat="43.0736367" lon="13.1741183"><ele>1092.0</ele><time>2026-05-02T08:57:33.983Z</time></trkpt><trkpt lat="43.0735683" lon="13.1740967"><ele>1091.3333333333333</ele><time>2026-05-02T08:57:35.982Z</time></trkpt><trkpt lat="43.0734933" lon="13.1741183"><ele>1090.6666666666665</ele><time>2026-05-02T08:57:49.982Z</time></trkpt><trkpt lat="43.073405" lon="13.1740817"><ele>1090.0</ele><time>2026-05-02T08:57:51.982Z</time></trkpt><trkpt lat="43.0732883" lon="13.1740633"><ele>1088.0</ele><time>2026-05-02T08:57:53.982Z</time></trkpt><trkpt lat="43.0732217" lon="13.1740617"><ele>1086.0</ele><time>2026-05-02T08:57:54.982Z</time></trkpt><trkpt lat="43.0731483" lon="13.1740617"><ele>1084.0</ele><time>2026-05-02T08:57:55.981Z</time></trkpt><trkpt lat="43.0730683" lon="13.1740533"><ele>1082.0</ele><time>2026-05-02T08:57:56.982Z</time></trkpt><trkpt lat="43.07298" lon="13.1740417"><ele>1080.0</ele><time>2026-05-02T08:57:57.981Z</time></trkpt><trkpt lat="43.0728933" lon="13.1740333"><ele>1078.0</ele><time>2026-05-02T08:57:58.982Z</time></trkpt><trkpt lat="43.07281" lon="13.1740267"><ele>1078.0</ele><time>2026-05-02T08:57:59.981Z</time></trkpt><trkpt lat="43.0727283" lon="13.1740167"><ele>1078.0</ele><time>2026-05-02T08:58:00.981Z</time></trkpt><trkpt lat="43.072645" lon="13.1740117"><ele>1078.0</ele><time>2026-05-02T08:58:01.982Z</time></trkpt><trkpt lat="43.0725667" lon="13.1740217"><ele>1078.0</ele><time>2026-05-02T08:58:02.981Z</time></trkpt><trkpt lat="43.0724933" lon="13.1740517"><ele>1078.0</ele><time>2026-05-02T08:58:03.982Z</time></trkpt><trkpt lat="43.07242" lon="13.174095"><ele>1078.0</ele><time>2026-05-02T08:58:04.982Z</time></trkpt><trkpt lat="43.072345" lon="13.174135"><ele>1075.3333333333333</ele><time>2026-05-02T08:58:05.982Z</time></trkpt><trkpt lat="43.0722667" lon="13.17416"><ele>1072.6666666666665</ele><time>2026-05-02T08:58:06.982Z</time></trkpt><trkpt lat="43.0721867" lon="13.1741817"><ele>1070.0</ele><time>2026-05-02T08:58:07.982Z</time></trkpt><trkpt lat="43.0721117" lon="13.1742167"><ele>1067.3333333333333</ele><time>2026-05-02T08:58:08.983Z</time></trkpt><trkpt lat="43.07205" lon="13.1742683"><ele>1064.6666666666667</ele><time>2026-05-02T08:58:09.981Z</time></trkpt><trkpt lat="43.0719767" lon="13.1743833"><ele>1062.0</ele><time>2026-05-02T08:58:11.982Z</time></trkpt><trkpt lat="43.0719067" lon="13.1743667"><ele>1062.0</ele><time>2026-05-02T08:58:14.982Z</time></trkpt><trkpt lat="43.07192" lon="13.1742083"><ele>1062.0</ele><time>2026-05-02T08:58:16.982Z</time></trkpt><trkpt lat="43.0719417" lon="13.174105"><ele>1062.0</ele><time>2026-05-02T08:58:17.981Z</time></trkpt><trkpt lat="43.071975" lon="13.1739933"><ele>1062.0</ele><time>2026-05-02T08:58:18.981Z</time></trkpt><trkpt lat="43.0720083" lon="13.173885"><ele>1062.0</ele><time>2026-05-02T08:58:19.981Z</time></trkpt><trkpt lat="43.0720467" lon="13.1737883"><ele>1062.0</ele><time>2026-05-02T08:58:20.982Z</time></trkpt><trkpt lat="43.0720917" lon="13.17371"><ele>1059.3333333333333</ele><time>2026-05-02T08:58:21.982Z</time></trkpt><trkpt lat="43.0721417" lon="13.1736417"><ele>1056.6666666666667</ele><time>2026-05-02T08:58:22.981Z</time></trkpt><trkpt lat="43.0722033" lon="13.1735683"><ele>1054.0</ele><time>2026-05-02T08:58:23.981Z</time></trkpt><trkpt lat="43.0722683" lon="13.17348"><ele>1051.3333333333335</ele><time>2026-05-02T08:58:24.982Z</time></trkpt><trkpt lat="43.0723367" lon="13.1733717"><ele>1048.6666666666667</ele><time>2026-05-02T08:58:25.982Z</time></trkpt><trkpt lat="43.0724017" lon="13.1732683"><ele>1046.0</ele><time>2026-05-02T08:58:26.981Z</time></trkpt><trkpt lat="43.0724683" lon="13.1731783"><ele>1045.3333333333335</ele><time>2026-05-02T08:58:27.982Z</time></trkpt><trkpt lat="43.07253" lon="13.173095"><ele>1044.6666666666667</ele><time>2026-05-02T08:58:28.981Z</time></trkpt><trkpt lat="43.0725933" lon="13.173015"><ele>1044.0</ele><time>2026-05-02T08:58:29.982Z</time></trkpt><trkpt lat="43.0726533" lon="13.17295"><ele>1043.3333333333333</ele><time>2026-05-02T08:58:30.981Z</time></trkpt><trkpt lat="43.072715" lon="13.1728917"><ele>1042.6666666666665</ele><time>2026-05-02T08:58:31.982Z</time></trkpt><trkpt lat="43.072785" lon="13.17283"><ele>1042.0</ele><time>2026-05-02T08:58:32.982Z</time></trkpt><trkpt lat="43.0728667" lon="13.17277"><ele>1042.0</ele><time>2026-05-02T08:58:33.982Z</time></trkpt><trkpt lat="43.0729533" lon="13.1727033"><ele>1042.0</ele><time>2026-05-02T08:58:34.982Z</time></trkpt><trkpt lat="43.0730383" lon="13.17263"><ele>1042.0</ele><time>2026-05-02T08:58:35.983Z</time></trkpt><trkpt lat="43.0731233" lon="13.1725583"><ele>1042.0</ele><time>2026-05-02T08:58:36.981Z</time></trkpt><trkpt lat="43.07321" lon="13.1724917"><ele>1042.0</ele><time>2026-05-02T08:58:37.982Z</time></trkpt><trkpt lat="43.0733" lon="13.1724233"><ele>1043.6</ele><time>2026-05-02T08:58:38.981Z</time></trkpt><trkpt lat="43.07339" lon="13.1723567"><ele>1045.2</ele><time>2026-05-02T08:58:39.982Z</time></trkpt><trkpt lat="43.0734817" lon="13.1722867"><ele>1046.8</ele><time>2026-05-02T08:58:40.981Z</time></trkpt><trkpt lat="43.073575" lon="13.1722233"><ele>1048.4</ele><time>2026-05-02T08:58:41.981Z</time></trkpt><trkpt lat="43.0736667" lon="13.172165"><ele>1050.0</ele><time>2026-05-02T08:58:42.982Z</time></trkpt><trkpt lat="43.073755" lon="13.1721117"><ele>1046.8333333333333</ele><time>2026-05-02T08:58:43.981Z</time></trkpt><trkpt lat="43.0738367" lon="13.1720567"><ele>1043.6666666666667</ele><time>2026-05-02T08:58:44.981Z</time></trkpt><trkpt lat="43.0739167" lon="13.1720083"><ele>1040.5</ele><time>2026-05-02T08:58:45.981Z</time></trkpt><trkpt lat="43.0739967" lon="13.1719667"><ele>1037.3333333333335</ele><time>2026-05-02T08:58:46.981Z</time></trkpt><trkpt lat="43.0740767" lon="13.17194"><ele>1034.1666666666667</ele><time>2026-05-02T08:58:47.981Z</time></trkpt><trkpt lat="43.0741483" lon="13.171925"><ele>1031.0</ele><time>2026-05-02T08:58:48.981Z</time></trkpt><trkpt lat="43.0742483" lon="13.1718917"><ele>1031.0</ele><time>2026-05-02T08:58:50.982Z</time></trkpt><trkpt lat="43.07423" lon="13.17179"><ele>1031.0</ele><time>2026-05-02T08:58:53.982Z</time></trkpt><trkpt lat="43.0741333" lon="13.1717417"><ele>1031.0</ele><time>2026-05-02T08:58:55.982Z</time></trkpt><trkpt lat="43.0740167" lon="13.171695"><ele>1031.0</ele><time>2026-05-02T08:58:57.981Z</time></trkpt><trkpt lat="43.0739517" lon="13.171675"><ele>1031.0</ele><time>2026-05-02T08:58:58.981Z</time></trkpt><trkpt lat="43.0738867" lon="13.1716483"><ele>1031.0</ele><time>2026-05-02T08:58:59.981Z</time></trkpt><trkpt lat="43.073825" lon="13.171625"><ele>1030.6</ele><time>2026-05-02T08:59:00.981Z</time></trkpt><trkpt lat="43.0736983" lon="13.1715767"><ele>1030.1999999999998</ele><time>2026-05-02T08:59:02.982Z</time></trkpt><trkpt lat="43.0736167" lon="13.1715533"><ele>1029.8000000000002</ele><time>2026-05-02T08:59:03.981Z</time></trkpt><trkpt lat="43.0735183" lon="13.1715333"><ele>1029.4</ele><time>2026-05-02T08:59:04.982Z</time></trkpt><trkpt lat="43.0734183" lon="13.1715167"><ele>1029.0</ele><time>2026-05-02T08:59:05.982Z</time></trkpt><trkpt lat="43.0733183" lon="13.1715"><ele>1022.8000000000001</ele><time>2026-05-02T08:59:06.981Z</time></trkpt><trkpt lat="43.0732183" lon="13.1714817"><ele>1016.6000000000001</ele><time>2026-05-02T08:59:07.982Z</time></trkpt><trkpt lat="43.073115" lon="13.1714633"><ele>1010.4</ele><time>2026-05-02T08:59:08.982Z</time></trkpt><trkpt lat="43.0730033" lon="13.17145"><ele>1004.2</ele><time>2026-05-02T08:59:09.982Z</time></trkpt><trkpt lat="43.0728917" lon="13.1714433"><ele>998.0</ele><time>2026-05-02T08:59:10.981Z</time></trkpt><trkpt lat="43.0727733" lon="13.1714367"><ele>998.0</ele><time>2026-05-02T08:59:11.982Z</time></trkpt><trkpt lat="43.07265" lon="13.1714317"><ele>998.0</ele><time>2026-05-02T08:59:12.982Z</time></trkpt><trkpt lat="43.0725233" lon="13.1714333"><ele>998.0</ele><time>2026-05-02T08:59:13.982Z</time></trkpt><trkpt lat="43.0724033" lon="13.1714383"><ele>998.0</ele><time>2026-05-02T08:59:14.981Z</time></trkpt><trkpt lat="43.07229" lon="13.1714433"><ele>995.4</ele><time>2026-05-02T08:59:15.982Z</time></trkpt><trkpt lat="43.0721833" lon="13.171445"><ele>992.8</ele><time>2026-05-02T08:59:16.981Z</time></trkpt><trkpt lat="43.0720767" lon="13.171445"><ele>990.2</ele><time>2026-05-02T08:59:17.981Z</time></trkpt><trkpt lat="43.0719867" lon="13.171455"><ele>987.6</ele><time>2026-05-02T08:59:18.981Z</time></trkpt><trkpt lat="43.0719117" lon="13.1714733"><ele>985.0</ele><time>2026-05-02T08:59:19.983Z</time></trkpt><trkpt lat="43.0718167" lon="13.17146"><ele>985.0</ele><time>2026-05-02T08:59:21.982Z</time></trkpt><trkpt lat="43.0718533" lon="13.171345"><ele>985.0</ele><time>2026-05-02T08:59:24.981Z</time></trkpt><trkpt lat="43.0719733" lon="13.1712567"><ele>985.0</ele><time>2026-05-02T08:59:26.982Z</time></trkpt><trkpt lat="43.0720483" lon="13.1711883"><ele>985.0</ele><time>2026-05-02T08:59:27.982Z</time></trkpt><trkpt lat="43.07212" lon="13.1711033"><ele>985.0</ele><time>2026-05-02T08:59:28.981Z</time></trkpt><trkpt lat="43.072195" lon="13.1710217"><ele>985.0</ele><time>2026-05-02T08:59:29.981Z</time></trkpt><trkpt lat="43.07227" lon="13.1709317"><ele>985.0</ele><time>2026-05-02T08:59:30.981Z</time></trkpt><trkpt lat="43.0723433" lon="13.1708483"><ele>985.0</ele><time>2026-05-02T08:59:31.981Z</time></trkpt><trkpt lat="43.0724167" lon="13.170775"><ele>985.0</ele><time>2026-05-02T08:59:32.982Z</time></trkpt><trkpt lat="43.0724983" lon="13.1707067"><ele>985.0</ele><time>2026-05-02T08:59:33.982Z</time></trkpt><trkpt lat="43.0725833" lon="13.1706433"><ele>982.5</ele><time>2026-05-02T08:59:34.982Z</time></trkpt><trkpt lat="43.0726683" lon="13.1705667"><ele>980.0</ele><time>2026-05-02T08:59:35.981Z</time></trkpt><trkpt lat="43.0727567" lon="13.1704617"><ele>977.5</ele><time>2026-05-02T08:59:36.982Z</time></trkpt><trkpt lat="43.072845" lon="13.17035"><ele>975.0</ele><time>2026-05-02T08:59:37.981Z</time></trkpt><trkpt lat="43.0729233" lon="13.170235"><ele>975.0</ele><time>2026-05-02T08:59:38.982Z</time></trkpt><trkpt lat="43.0729983" lon="13.17012"><ele>975.0</ele><time>2026-05-02T08:59:39.982Z</time></trkpt><trkpt lat="43.0730733" lon="13.1700083"><ele>975.0</ele><time>2026-05-02T08:59:40.981Z</time></trkpt><trkpt lat="43.0731467" lon="13.1699133"><ele>975.0</ele><time>2026-05-02T08:59:41.983Z</time></trkpt><trkpt lat="43.0732133" lon="13.1698233"><ele>975.0</ele><time>2026-05-02T08:59:42.981Z</time></trkpt><trkpt lat="43.073275" lon="13.16974"><ele>973.8571428571428</ele><time>2026-05-02T08:59:43.982Z</time></trkpt><trkpt lat="43.07333" lon="13.169665"><ele>972.7142857142856</ele><time>2026-05-02T08:59:44.982Z</time></trkpt><trkpt lat="43.07338" lon="13.1695967"><ele>971.5714285714286</ele><time>2026-05-02T08:59:45.982Z</time></trkpt><trkpt lat="43.0734317" lon="13.1695317"><ele>970.4285714285713</ele><time>2026-05-02T08:59:46.982Z</time></trkpt><trkpt lat="43.073485" lon="13.1694783"><ele>969.2857142857142</ele><time>2026-05-02T08:59:47.982Z</time></trkpt><trkpt lat="43.0735433" lon="13.1694333"><ele>968.1428571428571</ele><time>2026-05-02T08:59:48.982Z</time></trkpt><trkpt lat="43.073605" lon="13.1694033"><ele>967.0</ele><time>2026-05-02T08:59:49.981Z</time></trkpt><trkpt lat="43.07367" lon="13.1693833"><ele>967.0</ele><time>2026-05-02T08:59:50.985Z</time></trkpt><trkpt lat="43.0737817" lon="13.169365"><ele>967.0</ele><time>2026-05-02T08:59:52.981Z</time></trkpt><trkpt lat="43.07382" lon="13.1692817"><ele>967.0</ele><time>2026-05-02T08:59:54.982Z</time></trkpt><trkpt lat="43.0737583" lon="13.1691933"><ele>967.0</ele><time>2026-05-02T08:59:56.982Z</time></trkpt><trkpt lat="43.0736767" lon="13.1691617"><ele>967.0</ele><time>2026-05-02T08:59:57.982Z</time></trkpt><trkpt lat="43.07359" lon="13.1691217"><ele>966.9999999999999</ele><time>2026-05-02T08:59:58.983Z</time></trkpt><trkpt lat="43.0735033" lon="13.1690833"><ele>967.0</ele><time>2026-05-02T08:59:59.981Z</time></trkpt><trkpt lat="43.0734233" lon="13.1690517"><ele>967.0</ele><time>2026-05-02T09:00:00.982Z</time></trkpt><trkpt lat="43.0733433" lon="13.1690383"><ele>967.0</ele><time>2026-05-02T09:00:01.981Z</time></trkpt><trkpt lat="43.0732617" lon="13.1690383"><ele>966.9999999999999</ele><time>2026-05-02T09:00:02.982Z</time></trkpt><trkpt lat="43.0731667" lon="13.16905"><ele>967.0</ele><time>2026-05-02T09:00:03.982Z</time></trkpt><trkpt lat="43.0730583" lon="13.1690767"><ele>964.6666666666666</ele><time>2026-05-02T09:00:04.981Z</time></trkpt><trkpt lat="43.0729567" lon="13.1691083"><ele>962.3333333333333</ele><time>2026-05-02T09:00:05.982Z</time></trkpt><trkpt lat="43.0728683" lon="13.16915"><ele>960.0</ele><time>2026-05-02T09:00:06.982Z</time></trkpt><trkpt lat="43.07279" lon="13.169195"><ele>957.6666666666667</ele><time>2026-05-02T09:00:07.981Z</time></trkpt><trkpt lat="43.072715" lon="13.16924"><ele>955.3333333333334</ele><time>2026-05-02T09:00:08.982Z</time></trkpt><trkpt lat="43.072645" lon="13.169275"><ele>953.0</ele><time>2026-05-02T09:00:09.981Z</time></trkpt><trkpt lat="43.0725767" lon="13.1693017"><ele>953.0000000000001</ele><time>2026-05-02T09:00:10.981Z</time></trkpt><trkpt lat="43.0724983" lon="13.169315"><ele>953.0</ele><time>2026-05-02T09:00:11.982Z</time></trkpt><trkpt lat="43.0724117" lon="13.1693133"><ele>953.0</ele><time>2026-05-02T09:00:12.982Z</time></trkpt><trkpt lat="43.0723217" lon="13.169305"><ele>953.0</ele><time>2026-05-02T09:00:13.982Z</time></trkpt><trkpt lat="43.0722367" lon="13.1692917"><ele>953.0000000000001</ele><time>2026-05-02T09:00:14.982Z</time></trkpt><trkpt lat="43.07215" lon="13.16928"><ele>953.0</ele><time>2026-05-02T09:00:15.983Z</time></trkpt><trkpt lat="43.0720683" lon="13.1692733"><ele>951.0000000000001</ele><time>2026-05-02T09:00:16.982Z</time></trkpt><trkpt lat="43.0719917" lon="13.1692767"><ele>949.0</ele><time>2026-05-02T09:00:17.982Z</time></trkpt><trkpt lat="43.0719133" lon="13.169275"><ele>947.0</ele><time>2026-05-02T09:00:18.982Z</time></trkpt><trkpt lat="43.071835" lon="13.1692767"><ele>945.0</ele><time>2026-05-02T09:00:19.982Z</time></trkpt><trkpt lat="43.0717533" lon="13.1692783"><ele>943.0000000000001</ele><time>2026-05-02T09:00:20.983Z</time></trkpt><trkpt lat="43.0716717" lon="13.1692683"><ele>941.0</ele><time>2026-05-02T09:00:21.982Z</time></trkpt><trkpt lat="43.0715833" lon="13.1692433"><ele>938.6666666666667</ele><time>2026-05-02T09:00:22.981Z</time></trkpt><trkpt lat="43.0714917" lon="13.1692033"><ele>936.3333333333334</ele><time>2026-05-02T09:00:23.982Z</time></trkpt><trkpt lat="43.0713983" lon="13.1691617"><ele>934.0</ele><time>2026-05-02T09:00:24.983Z</time></trkpt><trkpt lat="43.0713117" lon="13.16912"><ele>931.6666666666667</ele><time>2026-05-02T09:00:25.983Z</time></trkpt><trkpt lat="43.0712383" lon="13.1690783"><ele>929.3333333333334</ele><time>2026-05-02T09:00:26.983Z</time></trkpt><trkpt lat="43.071165" lon="13.16905"><ele>927.0</ele><time>2026-05-02T09:00:27.982Z</time></trkpt><trkpt lat="43.0710967" lon="13.1690367"><ele>927.0</ele><time>2026-05-02T09:00:28.982Z</time></trkpt><trkpt lat="43.0710233" lon="13.169035"><ele>927.0</ele><time>2026-05-02T09:00:29.983Z</time></trkpt><trkpt lat="43.07094" lon="13.169055"><ele>927.0</ele><time>2026-05-02T09:00:30.983Z</time></trkpt><trkpt lat="43.0708617" lon="13.1690867"><ele>927.0</ele><time>2026-05-02T09:00:31.983Z</time></trkpt><trkpt lat="43.07079" lon="13.1691333"><ele>927.0</ele><time>2026-05-02T09:00:32.981Z</time></trkpt><trkpt lat="43.0707317" lon="13.169175"><ele>927.0</ele><time>2026-05-02T09:00:33.983Z</time></trkpt><trkpt lat="43.0706217" lon="13.1692083"><ele>925.2</ele><time>2026-05-02T09:00:35.982Z</time></trkpt><trkpt lat="43.070515" lon="13.16916"><ele>923.4000000000001</ele><time>2026-05-02T09:00:37.982Z</time></trkpt><trkpt lat="43.0704033" lon="13.1691133"><ele>921.5999999999999</ele><time>2026-05-02T09:00:39.982Z</time></trkpt><trkpt lat="43.0703267" lon="13.1691117"><ele>919.8</ele><time>2026-05-02T09:00:40.981Z</time></trkpt><trkpt lat="43.0702483" lon="13.1691233"><ele>918.0</ele><time>2026-05-02T09:00:41.981Z</time></trkpt><trkpt lat="43.0701683" lon="13.1691367"><ele>918.0</ele><time>2026-05-02T09:00:42.984Z</time></trkpt><trkpt lat="43.070095" lon="13.1691433"><ele>918.0</ele><time>2026-05-02T09:00:43.983Z</time></trkpt><trkpt lat="43.0700267" lon="13.1691417"><ele>918.0</ele><time>2026-05-02T09:00:44.983Z</time></trkpt><trkpt lat="43.0699617" lon="13.1691367"><ele>918.0</ele><time>2026-05-02T09:00:45.981Z</time></trkpt><trkpt lat="43.0698383" lon="13.1691167"><ele>918.0</ele><time>2026-05-02T09:00:47.982Z</time></trkpt><trkpt lat="43.0697767" lon="13.1690883"><ele>918.0</ele><time>2026-05-02T09:00:48.983Z</time></trkpt><trkpt lat="43.06971" lon="13.16904"><ele>913.5</ele><time>2026-05-02T09:00:49.983Z</time></trkpt><trkpt lat="43.0696483" lon="13.1689683"><ele>909.0</ele><time>2026-05-02T09:00:50.983Z</time></trkpt><trkpt lat="43.06958" lon="13.1688983"><ele>904.5</ele><time>2026-05-02T09:00:51.982Z</time></trkpt><trkpt lat="43.0695033" lon="13.1688333"><ele>900.0</ele><time>2026-05-02T09:00:52.982Z</time></trkpt><trkpt lat="43.0694283" lon="13.16876"><ele>895.5</ele><time>2026-05-02T09:00:53.982Z</time></trkpt><trkpt lat="43.06937" lon="13.168685"><ele>891.0</ele><time>2026-05-02T09:00:54.983Z</time></trkpt><trkpt lat="43.0693233" lon="13.1686133"><ele>891.0</ele><time>2026-05-02T09:00:55.983Z</time></trkpt><trkpt lat="43.0692733" lon="13.16856"><ele>891.0</ele><time>2026-05-02T09:00:56.983Z</time></trkpt><trkpt lat="43.0691583" lon="13.1684683"><ele>891.0</ele><time>2026-05-02T09:00:58.982Z</time></trkpt><trkpt lat="43.069085" lon="13.1684233"><ele>891.0</ele><time>2026-05-02T09:00:59.982Z</time></trkpt><trkpt lat="43.069005" lon="13.1683717"><ele>891.0</ele><time>2026-05-02T09:01:00.983Z</time></trkpt><trkpt lat="43.06893" lon="13.16833"><ele>891.0</ele><time>2026-05-02T09:01:01.983Z</time></trkpt><trkpt lat="43.068855" lon="13.1682667"><ele>890.5999999999999</ele><time>2026-05-02T09:01:02.983Z</time></trkpt><trkpt lat="43.0687767" lon="13.168195"><ele>890.1999999999999</ele><time>2026-05-02T09:01:03.983Z</time></trkpt><trkpt lat="43.0686967" lon="13.1681167"><ele>889.8000000000001</ele><time>2026-05-02T09:01:04.982Z</time></trkpt><trkpt lat="43.0686133" lon="13.1680217"><ele>889.4000000000001</ele><time>2026-05-02T09:01:05.983Z</time></trkpt><trkpt lat="43.0685267" lon="13.1679367"><ele>889.0</ele><time>2026-05-02T09:01:06.985Z</time></trkpt><trkpt lat="43.068445" lon="13.1678683"><ele>885.1666666666666</ele><time>2026-05-02T09:01:07.982Z</time></trkpt><trkpt lat="43.0683733" lon="13.1678117"><ele>881.3333333333333</ele><time>2026-05-02T09:01:08.982Z</time></trkpt><trkpt lat="43.0683" lon="13.1677667"><ele>877.5</ele><time>2026-05-02T09:01:09.983Z</time></trkpt><trkpt lat="43.0682283" lon="13.16773"><ele>873.6666666666667</ele><time>2026-05-02T09:01:10.982Z</time></trkpt><trkpt lat="43.0681567" lon="13.1677033"><ele>869.8333333333334</ele><time>2026-05-02T09:01:11.983Z</time></trkpt><trkpt lat="43.068085" lon="13.167695"><ele>866.0</ele><time>2026-05-02T09:01:12.981Z</time></trkpt><trkpt lat="43.0680133" lon="13.1677083"><ele>864.1666666666667</ele><time>2026-05-02T09:01:13.982Z</time></trkpt><trkpt lat="43.0679483" lon="13.1677317"><ele>862.3333333333334</ele><time>2026-05-02T09:01:14.983Z</time></trkpt><trkpt lat="43.0678817" lon="13.16776"><ele>860.5</ele><time>2026-05-02T09:01:15.981Z</time></trkpt><trkpt lat="43.0678167" lon="13.1677983"><ele>858.6666666666667</ele><time>2026-05-02T09:01:16.981Z</time></trkpt><trkpt lat="43.0677433" lon="13.167845"><ele>856.8333333333334</ele><time>2026-05-02T09:01:17.981Z</time></trkpt><trkpt lat="43.067665" lon="13.1678833"><ele>855.0</ele><time>2026-05-02T09:01:18.982Z</time></trkpt><trkpt lat="43.067585" lon="13.1679117"><ele>855.0</ele><time>2026-05-02T09:01:19.983Z</time></trkpt><trkpt lat="43.0675067" lon="13.1679283"><ele>855.0</ele><time>2026-05-02T09:01:20.983Z</time></trkpt><trkpt lat="43.0674333" lon="13.16793"><ele>855.0</ele><time>2026-05-02T09:01:21.983Z</time></trkpt><trkpt lat="43.0673533" lon="13.16791"><ele>855.0</ele><time>2026-05-02T09:01:22.981Z</time></trkpt><trkpt lat="43.0672617" lon="13.167885"><ele>855.0</ele><time>2026-05-02T09:01:23.982Z</time></trkpt><trkpt lat="43.0671617" lon="13.1678617"><ele>855.0</ele><time>2026-05-02T09:01:24.983Z</time></trkpt><trkpt lat="43.067065" lon="13.167835"><ele>852.2</ele><time>2026-05-02T09:01:25.982Z</time></trkpt><trkpt lat="43.06697" lon="13.1678"><ele>849.4</ele><time>2026-05-02T09:01:26.983Z</time></trkpt><trkpt lat="43.066875" lon="13.1677567"><ele>846.5999999999999</ele><time>2026-05-02T09:01:27.982Z</time></trkpt><trkpt lat="43.06678" lon="13.1677117"><ele>843.8</ele><time>2026-05-02T09:01:28.981Z</time></trkpt><trkpt lat="43.0666833" lon="13.1676733"><ele>841.0</ele><time>2026-05-02T09:01:29.982Z</time></trkpt><trkpt lat="43.0665867" lon="13.1676383"><ele>838.75</ele><time>2026-05-02T09:01:30.982Z</time></trkpt><trkpt lat="43.06648" lon="13.1676183"><ele>836.5</ele><time>2026-05-02T09:01:31.983Z</time></trkpt><trkpt lat="43.066365" lon="13.1676017"><ele>834.25</ele><time>2026-05-02T09:01:32.982Z</time></trkpt><trkpt lat="43.0662483" lon="13.167605"><ele>832.0</ele><time>2026-05-02T09:01:33.983Z</time></trkpt><trkpt lat="43.0661283" lon="13.1676167"><ele>832.0</ele><time>2026-05-02T09:01:34.982Z</time></trkpt><trkpt lat="43.0660067" lon="13.16763"><ele>832.0</ele><time>2026-05-02T09:01:35.982Z</time></trkpt><trkpt lat="43.0658933" lon="13.1676467"><ele>832.0</ele><time>2026-05-02T09:01:36.982Z</time></trkpt><trkpt lat="43.065775" lon="13.16766"><ele>832.0</ele><time>2026-05-02T09:01:37.982Z</time></trkpt><trkpt lat="43.0656617" lon="13.167675"><ele>830.2</ele><time>2026-05-02T09:01:38.982Z</time></trkpt><trkpt lat="43.0655533" lon="13.16769"><ele>828.4000000000001</ele><time>2026-05-02T09:01:39.983Z</time></trkpt><trkpt lat="43.0654533" lon="13.1677017"><ele>826.5999999999999</ele><time>2026-05-02T09:01:40.982Z</time></trkpt><trkpt lat="43.0653517" lon="13.1677083"><ele>824.8</ele><time>2026-05-02T09:01:41.982Z</time></trkpt><trkpt lat="43.0652583" lon="13.1677133"><ele>823.0</ele><time>2026-05-02T09:01:42.982Z</time></trkpt><trkpt lat="43.0651717" lon="13.1677217"><ele>822.9999999999999</ele><time>2026-05-02T09:01:43.983Z</time></trkpt><trkpt lat="43.0650867" lon="13.1677317"><ele>823.0</ele><time>2026-05-02T09:01:44.983Z</time></trkpt><trkpt lat="43.0650017" lon="13.1677383"><ele>823.0</ele><time>2026-05-02T09:01:45.983Z</time></trkpt><trkpt lat="43.06492" lon="13.1677383"><ele>823.0</ele><time>2026-05-02T09:01:46.982Z</time></trkpt><trkpt lat="43.0648417" lon="13.1677317"><ele>822.9999999999999</ele><time>2026-05-02T09:01:47.982Z</time></trkpt><trkpt lat="43.0647683" lon="13.1677267"><ele>823.0</ele><time>2026-05-02T09:01:48.982Z</time></trkpt><trkpt lat="43.06468" lon="13.167695"><ele>821.8333333333333</ele><time>2026-05-02T09:01:50.982Z</time></trkpt><trkpt lat="43.0647017" lon="13.1675983"><ele>820.6666666666666</ele><time>2026-05-02T09:01:54.982Z</time></trkpt><trkpt lat="43.0647833" lon="13.167565"><ele>819.5</ele><time>2026-05-02T09:01:57.983Z</time></trkpt><trkpt lat="43.0647667" lon="13.1674683"><ele>818.3333333333333</ele><time>2026-05-02T09:02:00.982Z</time></trkpt><trkpt lat="43.0647" lon="13.1674333"><ele>817.1666666666666</ele><time>2026-05-02T09:02:02.983Z</time></trkpt><trkpt lat="43.0645917" lon="13.1674017"><ele>816.0</ele><time>2026-05-02T09:02:04.981Z</time></trkpt><trkpt lat="43.06448" lon="13.1673217"><ele>812.4</ele><time>2026-05-02T09:02:06.981Z</time></trkpt><trkpt lat="43.064385" lon="13.1672317"><ele>808.8</ele><time>2026-05-02T09:02:08.983Z</time></trkpt><trkpt lat="43.06429" lon="13.167155"><ele>805.1999999999999</ele><time>2026-05-02T09:02:10.981Z</time></trkpt><trkpt lat="43.0641917" lon="13.1670833"><ele>801.5999999999999</ele><time>2026-05-02T09:02:12.981Z</time></trkpt><trkpt lat="43.0640933" lon="13.1670117"><ele>798.0</ele><time>2026-05-02T09:02:14.981Z</time></trkpt><trkpt lat="43.064015" lon="13.1669167"><ele>797.25</ele><time>2026-05-02T09:02:16.983Z</time></trkpt><trkpt lat="43.0639383" lon="13.1668017"><ele>796.5</ele><time>2026-05-02T09:02:18.98Z</time></trkpt><trkpt lat="43.063845" lon="13.1666783"><ele>795.75</ele><time>2026-05-02T09:02:20.981Z</time></trkpt><trkpt lat="43.06377" lon="13.1665583"><ele>795.0</ele><time>2026-05-02T09:02:22.98Z</time></trkpt><trkpt lat="43.0637283" lon="13.1664433"><ele>795.0</ele><time>2026-05-02T09:02:24.981Z</time></trkpt><trkpt lat="43.0636933" lon="13.1663533"><ele>795.0</ele><time>2026-05-02T09:02:26.982Z</time></trkpt><trkpt lat="43.0636467" lon="13.1662683"><ele>795.0</ele><time>2026-05-02T09:02:29.98Z</time></trkpt><trkpt lat="43.0636117" lon="13.166185"><ele>795.0</ele><time>2026-05-02T09:02:32.981Z</time></trkpt><trkpt lat="43.0635667" lon="13.1661183"><ele>795.0</ele><time>2026-05-02T09:02:34.982Z</time></trkpt><trkpt lat="43.0634983" lon="13.1660583"><ele>795.0</ele><time>2026-05-02T09:02:37.981Z</time></trkpt><trkpt lat="43.0634367" lon="13.16604"><ele>795.0</ele><time>2026-05-02T09:02:59.982Z</time></trkpt><trkpt lat="43.06332" lon="13.1659933"><ele>795.3333333333334</ele><time>2026-05-02T09:03:01.982Z</time></trkpt><trkpt lat="43.063245" lon="13.1659717"><ele>795.6666666666667</ele><time>2026-05-02T09:03:02.982Z</time></trkpt><trkpt lat="43.063165" lon="13.1659483"><ele>796.0</ele><time>2026-05-02T09:03:03.982Z</time></trkpt><trkpt lat="43.0630867" lon="13.1659167"><ele>796.3333333333334</ele><time>2026-05-02T09:03:04.983Z</time></trkpt><trkpt lat="43.06301" lon="13.1658833"><ele>796.6666666666667</ele><time>2026-05-02T09:03:05.981Z</time></trkpt><trkpt lat="43.06293" lon="13.1658483"><ele>797.0</ele><time>2026-05-02T09:03:06.982Z</time></trkpt><trkpt lat="43.0628517" lon="13.16581"><ele>797.0000000000001</ele><time>2026-05-02T09:03:07.982Z</time></trkpt><trkpt lat="43.0627767" lon="13.1657683"><ele>797.0</ele><time>2026-05-02T09:03:08.981Z</time></trkpt><trkpt lat="43.06271" lon="13.1657217"><ele>797.0</ele><time>2026-05-02T09:03:09.982Z</time></trkpt><trkpt lat="43.0626433" lon="13.165675"><ele>797.0</ele><time>2026-05-02T09:03:10.982Z</time></trkpt><trkpt lat="43.0625833" lon="13.16563"><ele>797.0000000000001</ele><time>2026-05-02T09:03:11.981Z</time></trkpt><trkpt lat="43.0625167" lon="13.1655817"><ele>797.0</ele><time>2026-05-02T09:03:12.981Z</time></trkpt><trkpt lat="43.0624417" lon="13.1655383"><ele>799.6666666666667</ele><time>2026-05-02T09:03:13.982Z</time></trkpt><trkpt lat="43.0623683" lon="13.1654933"><ele>802.3333333333334</ele><time>2026-05-02T09:03:14.981Z</time></trkpt><trkpt lat="43.062295" lon="13.1654517"><ele>805.0</ele><time>2026-05-02T09:03:15.982Z</time></trkpt><trkpt lat="43.0622133" lon="13.1654183"><ele>807.6666666666667</ele><time>2026-05-02T09:03:16.981Z</time></trkpt><trkpt lat="43.0621333" lon="13.1653867"><ele>810.3333333333334</ele><time>2026-05-02T09:03:17.982Z</time></trkpt><trkpt lat="43.0620517" lon="13.16536"><ele>813.0</ele><time>2026-05-02T09:03:18.981Z</time></trkpt><trkpt lat="43.0619633" lon="13.1653417"><ele>813.0</ele><time>2026-05-02T09:03:19.982Z</time></trkpt><trkpt lat="43.0618717" lon="13.16533"><ele>813.0</ele><time>2026-05-02T09:03:20.982Z</time></trkpt><trkpt lat="43.06178" lon="13.1653117"><ele>813.0</ele><time>2026-05-02T09:03:21.982Z</time></trkpt><trkpt lat="43.0616883" lon="13.1653"><ele>813.0</ele><time>2026-05-02T09:03:22.982Z</time></trkpt><trkpt lat="43.0616033" lon="13.165295"><ele>813.0</ele><time>2026-05-02T09:03:23.982Z</time></trkpt><trkpt lat="43.0615217" lon="13.1653033"><ele>813.0</ele><time>2026-05-02T09:03:24.981Z</time></trkpt><trkpt lat="43.06144" lon="13.1653233"><ele>811.0</ele><time>2026-05-02T09:03:25.982Z</time></trkpt><trkpt lat="43.061355" lon="13.1653433"><ele>809.0</ele><time>2026-05-02T09:03:26.981Z</time></trkpt><trkpt lat="43.061265" lon="13.1653567"><ele>807.0</ele><time>2026-05-02T09:03:27.982Z</time></trkpt><trkpt lat="43.06118" lon="13.1653617"><ele>805.0</ele><time>2026-05-02T09:03:28.982Z</time></trkpt><trkpt lat="43.0610983" lon="13.165365"><ele>803.0</ele><time>2026-05-02T09:03:29.981Z</time></trkpt><trkpt lat="43.0610217" lon="13.1653683"><ele>801.0</ele><time>2026-05-02T09:03:30.981Z</time></trkpt><trkpt lat="43.0609517" lon="13.16537"><ele>801.0</ele><time>2026-05-02T09:03:31.983Z</time></trkpt><trkpt lat="43.060835" lon="13.16537"><ele>801.0</ele><time>2026-05-02T09:03:33.982Z</time></trkpt><trkpt lat="43.06074" lon="13.16535"><ele>801.0</ele><time>2026-05-02T09:03:35.982Z</time></trkpt><trkpt lat="43.060655" lon="13.165305"><ele>801.0</ele><time>2026-05-02T09:03:37.981Z</time></trkpt><trkpt lat="43.0605767" lon="13.16527"><ele>801.0</ele><time>2026-05-02T09:03:39.982Z</time></trkpt><trkpt lat="43.0605017" lon="13.1652183"><ele>798.3333333333334</ele><time>2026-05-02T09:03:41.982Z</time></trkpt><trkpt lat="43.060485" lon="13.1651067"><ele>795.6666666666667</ele><time>2026-05-02T09:03:44.982Z</time></trkpt><trkpt lat="43.0605233" lon="13.1649883"><ele>793.0</ele><time>2026-05-02T09:03:46.983Z</time></trkpt><trkpt lat="43.0605883" lon="13.1648483"><ele>790.3333333333334</ele><time>2026-05-02T09:03:48.984Z</time></trkpt><trkpt lat="43.0606383" lon="13.164785"><ele>787.6666666666667</ele><time>2026-05-02T09:03:49.984Z</time></trkpt><trkpt lat="43.0606933" lon="13.164725"><ele>785.0</ele><time>2026-05-02T09:03:50.983Z</time></trkpt><trkpt lat="43.0607483" lon="13.1646567"><ele>785.3333333333334</ele><time>2026-05-02T09:03:51.982Z</time></trkpt><trkpt lat="43.060805" lon="13.1645833"><ele>785.6666666666667</ele><time>2026-05-02T09:03:52.982Z</time></trkpt><trkpt lat="43.0608483" lon="13.1644933"><ele>786.0</ele><time>2026-05-02T09:03:53.984Z</time></trkpt><trkpt lat="43.0608667" lon="13.1643767"><ele>786.3333333333333</ele><time>2026-05-02T09:03:54.984Z</time></trkpt><trkpt lat="43.060865" lon="13.1642383"><ele>786.6666666666666</ele><time>2026-05-02T09:03:55.984Z</time></trkpt><trkpt lat="43.0608683" lon="13.1641117"><ele>787.0</ele><time>2026-05-02T09:03:56.984Z</time></trkpt><trkpt lat="43.0608717" lon="13.1639833"><ele>787.0</ele><time>2026-05-02T09:03:57.982Z</time></trkpt><trkpt lat="43.0608783" lon="13.163855"><ele>787.0</ele><time>2026-05-02T09:03:58.982Z</time></trkpt><trkpt lat="43.0608833" lon="13.1637267"><ele>787.0</ele><time>2026-05-02T09:03:59.985Z</time></trkpt><trkpt lat="43.0608883" lon="13.1636"><ele>787.0</ele><time>2026-05-02T09:04:00.984Z</time></trkpt><trkpt lat="43.0608933" lon="13.16347"><ele>787.0</ele><time>2026-05-02T09:04:01.984Z</time></trkpt><trkpt lat="43.0608983" lon="13.163335"><ele>787.0</ele><time>2026-05-02T09:04:02.984Z</time></trkpt><trkpt lat="43.0609" lon="13.1632"><ele>787.0</ele><time>2026-05-02T09:04:03.983Z</time></trkpt><trkpt lat="43.060895" lon="13.16306"><ele>787.0</ele><time>2026-05-02T09:04:04.982Z</time></trkpt><trkpt lat="43.060895" lon="13.1629217"><ele>787.0</ele><time>2026-05-02T09:04:05.984Z</time></trkpt><trkpt lat="43.0608883" lon="13.162785"><ele>787.0</ele><time>2026-05-02T09:04:06.984Z</time></trkpt><trkpt lat="43.0608767" lon="13.162655"><ele>786.2</ele><time>2026-05-02T09:04:07.984Z</time></trkpt><trkpt lat="43.060865" lon="13.1625267"><ele>785.4000000000001</ele><time>2026-05-02T09:04:08.985Z</time></trkpt><trkpt lat="43.060855" lon="13.1624017"><ele>784.5999999999999</ele><time>2026-05-02T09:04:09.985Z</time></trkpt><trkpt lat="43.0608383" lon="13.162275"><ele>783.8</ele><time>2026-05-02T09:04:10.984Z</time></trkpt><trkpt lat="43.060815" lon="13.1621483"><ele>783.0</ele><time>2026-05-02T09:04:11.983Z</time></trkpt><trkpt lat="43.0607867" lon="13.1620383"><ele>782.0</ele><time>2026-05-02T09:04:12.981Z</time></trkpt><trkpt lat="43.0607517" lon="13.1619433"><ele>781.0</ele><time>2026-05-02T09:04:13.982Z</time></trkpt><trkpt lat="43.0607067" lon="13.1618617"><ele>780.0</ele><time>2026-05-02T09:04:14.981Z</time></trkpt><trkpt lat="43.06066" lon="13.1617933"><ele>779.0</ele><time>2026-05-02T09:04:15.983Z</time></trkpt><trkpt lat="43.0606117" lon="13.1617367"><ele>778.0</ele><time>2026-05-02T09:04:16.981Z</time></trkpt><trkpt lat="43.06051" lon="13.161625"><ele>777.0</ele><time>2026-05-02T09:04:18.982Z</time></trkpt><trkpt lat="43.0604533" lon="13.161565"><ele>776.8333333333334</ele><time>2026-05-02T09:04:19.981Z</time></trkpt><trkpt lat="43.0603933" lon="13.1615033"><ele>776.6666666666667</ele><time>2026-05-02T09:04:20.983Z</time></trkpt><trkpt lat="43.0603267" lon="13.1614433"><ele>776.5</ele><time>2026-05-02T09:04:21.983Z</time></trkpt><trkpt lat="43.0602583" lon="13.1613783"><ele>776.3333333333334</ele><time>2026-05-02T09:04:22.983Z</time></trkpt><trkpt lat="43.060185" lon="13.161315"><ele>776.1666666666667</ele><time>2026-05-02T09:04:23.982Z</time></trkpt><trkpt lat="43.060105" lon="13.1612533"><ele>776.0</ele><time>2026-05-02T09:04:24.982Z</time></trkpt><trkpt lat="43.060015" lon="13.1612033"><ele>776.1999999999999</ele><time>2026-05-02T09:04:25.982Z</time></trkpt><trkpt lat="43.0599183" lon="13.1611617"><ele>776.4</ele><time>2026-05-02T09:04:26.982Z</time></trkpt><trkpt lat="43.05982" lon="13.161125"><ele>776.6</ele><time>2026-05-02T09:04:27.983Z</time></trkpt><trkpt lat="43.05973" lon="13.1610917"><ele>776.8</ele><time>2026-05-02T09:04:28.982Z</time></trkpt><trkpt lat="43.0596433" lon="13.16106"><ele>777.0</ele><time>2026-05-02T09:04:29.982Z</time></trkpt><trkpt lat="43.05956" lon="13.1610267"><ele>777.0</ele><time>2026-05-02T09:04:30.983Z</time></trkpt><trkpt lat="43.0594767" lon="13.1609917"><ele>777.0</ele><time>2026-05-02T09:04:31.981Z</time></trkpt><trkpt lat="43.0594" lon="13.1609533"><ele>777.0</ele><time>2026-05-02T09:04:32.983Z</time></trkpt><trkpt lat="43.0593267" lon="13.1609083"><ele>777.0</ele><time>2026-05-02T09:04:33.982Z</time></trkpt><trkpt lat="43.05926" lon="13.1608583"><ele>777.0</ele><time>2026-05-02T09:04:34.982Z</time></trkpt><trkpt lat="43.0592" lon="13.1608067"><ele>777.0</ele><time>2026-05-02T09:04:35.983Z</time></trkpt><trkpt lat="43.0591017" lon="13.16071"><ele>779.4000000000001</ele><time>2026-05-02T09:04:37.982Z</time></trkpt><trkpt lat="43.059015" lon="13.160625"><ele>781.8000000000001</ele><time>2026-05-02T09:04:39.982Z</time></trkpt><trkpt lat="43.05892" lon="13.1605233"><ele>784.2</ele><time>2026-05-02T09:04:41.983Z</time></trkpt><trkpt lat="43.0588717" lon="13.1604667"><ele>786.6</ele><time>2026-05-02T09:04:42.983Z</time></trkpt><trkpt lat="43.058775" lon="13.1603567"><ele>789.0</ele><time>2026-05-02T09:04:44.983Z</time></trkpt><trkpt lat="43.05872" lon="13.1603133"><ele>789.0</ele><time>2026-05-02T09:04:45.982Z</time></trkpt><trkpt lat="43.0586433" lon="13.1602933"><ele>789.0</ele><time>2026-05-02T09:04:47.982Z</time></trkpt><trkpt lat="43.0586867" lon="13.1602217"><ele>789.0</ele><time>2026-05-02T09:05:12.981Z</time></trkpt><trkpt lat="43.0587833" lon="13.1601367"><ele>789.0</ele><time>2026-05-02T09:05:14.983Z</time></trkpt><trkpt lat="43.0588233" lon="13.160065"><ele>789.0</ele><time>2026-05-02T09:05:15.982Z</time></trkpt><trkpt lat="43.05886" lon="13.1599817"><ele>789.0</ele><time>2026-05-02T09:05:16.981Z</time></trkpt><trkpt lat="43.0588933" lon="13.159895"><ele>792.4000000000001</ele><time>2026-05-02T09:05:17.982Z</time></trkpt><trkpt lat="43.05893" lon="13.1598117"><ele>795.8</ele><time>2026-05-02T09:05:18.982Z</time></trkpt><trkpt lat="43.058965" lon="13.159735"><ele>799.2</ele><time>2026-05-02T09:05:19.983Z</time></trkpt><trkpt lat="43.0590367" lon="13.159595"><ele>802.5999999999999</ele><time>2026-05-02T09:05:21.982Z</time></trkpt><trkpt lat="43.0590983" lon="13.15949"><ele>806.0</ele><time>2026-05-02T09:05:23.982Z</time></trkpt><trkpt lat="43.0590283" lon="13.1595733"><ele>806.0000000000001</ele><time>2026-05-02T09:05:48.982Z</time></trkpt><trkpt lat="43.059" lon="13.159655"><ele>806.0</ele><time>2026-05-02T09:05:49.983Z</time></trkpt><trkpt lat="43.0589633" lon="13.159745"><ele>806.0</ele><time>2026-05-02T09:05:50.982Z</time></trkpt><trkpt lat="43.05892" lon="13.15984"><ele>806.0</ele><time>2026-05-02T09:05:51.982Z</time></trkpt><trkpt lat="43.058875" lon="13.1599367"><ele>806.0000000000001</ele><time>2026-05-02T09:05:52.983Z</time></trkpt><trkpt lat="43.058825" lon="13.1600333"><ele>806.0</ele><time>2026-05-02T09:05:53.983Z</time></trkpt><trkpt lat="43.0587667" lon="13.16012"><ele>803.1666666666667</ele><time>2026-05-02T09:05:54.982Z</time></trkpt><trkpt lat="43.058695" lon="13.1601933"><ele>800.3333333333334</ele><time>2026-05-02T09:05:55.982Z</time></trkpt><trkpt lat="43.0586167" lon="13.1602367"><ele>797.5</ele><time>2026-05-02T09:05:56.983Z</time></trkpt><trkpt lat="43.0585333" lon="13.1602483"><ele>794.6666666666667</ele><time>2026-05-02T09:05:57.981Z</time></trkpt><trkpt lat="43.058445" lon="13.160235"><ele>791.8333333333334</ele><time>2026-05-02T09:05:58.982Z</time></trkpt><trkpt lat="43.0583533" lon="13.1602"><ele>789.0</ele><time>2026-05-02T09:05:59.983Z</time></trkpt><trkpt lat="43.05826" lon="13.16015"><ele>788.8000000000001</ele><time>2026-05-02T09:06:00.982Z</time></trkpt><trkpt lat="43.0581683" lon="13.1600917"><ele>788.6</ele><time>2026-05-02T09:06:01.982Z</time></trkpt><trkpt lat="43.0580767" lon="13.160035"><ele>788.4</ele><time>2026-05-02T09:06:02.983Z</time></trkpt><trkpt lat="43.0579883" lon="13.1599683"><ele>788.2</ele><time>2026-05-02T09:06:03.984Z</time></trkpt><trkpt lat="43.0579033" lon="13.1599"><ele>788.0</ele><time>2026-05-02T09:06:04.981Z</time></trkpt><trkpt lat="43.0578267" lon="13.1598333"><ele>788.0000000000001</ele><time>2026-05-02T09:06:05.984Z</time></trkpt><trkpt lat="43.0577533" lon="13.1597583"><ele>788.0</ele><time>2026-05-02T09:06:06.982Z</time></trkpt><trkpt lat="43.0576833" lon="13.1596767"><ele>788.0</ele><time>2026-05-02T09:06:07.982Z</time></trkpt><trkpt lat="43.05762" lon="13.159595"><ele>788.0</ele><time>2026-05-02T09:06:08.982Z</time></trkpt><trkpt lat="43.0575583" lon="13.1595133"><ele>788.0000000000001</ele><time>2026-05-02T09:06:09.982Z</time></trkpt><trkpt lat="43.0575033" lon="13.159435"><ele>788.0</ele><time>2026-05-02T09:06:10.982Z</time></trkpt><trkpt lat="43.057455" lon="13.1593517"><ele>787.0000000000001</ele><time>2026-05-02T09:06:11.982Z</time></trkpt><trkpt lat="43.0574083" lon="13.1592633"><ele>786.0</ele><time>2026-05-02T09:06:12.983Z</time></trkpt><trkpt lat="43.0573717" lon="13.15917"><ele>785.0</ele><time>2026-05-02T09:06:13.982Z</time></trkpt><trkpt lat="43.0573417" lon="13.159075"><ele>784.0</ele><time>2026-05-02T09:06:14.983Z</time></trkpt><trkpt lat="43.0573267" lon="13.1589717"><ele>783.0000000000001</ele><time>2026-05-02T09:06:15.982Z</time></trkpt><trkpt lat="43.05732" lon="13.1588767"><ele>782.0</ele><time>2026-05-02T09:06:16.982Z</time></trkpt><trkpt lat="43.05731" lon="13.1587367"><ele>782.0000000000001</ele><time>2026-05-02T09:06:18.982Z</time></trkpt><trkpt lat="43.057375" lon="13.1587067"><ele>782.0</ele><time>2026-05-02T09:06:23.981Z</time></trkpt><trkpt lat="43.0573917" lon="13.1587933"><ele>782.0</ele><time>2026-05-02T09:06:25.982Z</time></trkpt><trkpt lat="43.0574217" lon="13.158945"><ele>782.0</ele><time>2026-05-02T09:06:27.982Z</time></trkpt><trkpt lat="43.05745" lon="13.1590233"><ele>782.0000000000001</ele><time>2026-05-02T09:06:28.981Z</time></trkpt><trkpt lat="43.057515" lon="13.1591567"><ele>782.0</ele><time>2026-05-02T09:06:30.982Z</time></trkpt><trkpt lat="43.0576" lon="13.1592517"><ele>783.2</ele><time>2026-05-02T09:06:32.981Z</time></trkpt><trkpt lat="43.0577" lon="13.1593283"><ele>784.4000000000001</ele><time>2026-05-02T09:06:34.982Z</time></trkpt><trkpt lat="43.05781" lon="13.1593867"><ele>785.5999999999999</ele><time>2026-05-02T09:06:36.982Z</time></trkpt><trkpt lat="43.0579067" lon="13.159395"><ele>786.8</ele><time>2026-05-02T09:06:38.981Z</time></trkpt><trkpt lat="43.0579617" lon="13.15934"><ele>788.0</ele><time>2026-05-02T09:06:40.981Z</time></trkpt><trkpt lat="43.05795" lon="13.1592117"><ele>788.0</ele><time>2026-05-02T09:06:43.981Z</time></trkpt><trkpt lat="43.0578967" lon="13.1590917"><ele>788.0</ele><time>2026-05-02T09:06:45.982Z</time></trkpt><trkpt lat="43.0578717" lon="13.1589467"><ele>788.0</ele><time>2026-05-02T09:06:47.981Z</time></trkpt><trkpt lat="43.0579017" lon="13.1587967"><ele>788.0</ele><time>2026-05-02T09:06:49.982Z</time></trkpt><trkpt lat="43.057935" lon="13.1587183"><ele>788.0</ele><time>2026-05-02T09:06:50.981Z</time></trkpt><trkpt lat="43.057955" lon="13.1586317"><ele>788.6666666666667</ele><time>2026-05-02T09:06:51.982Z</time></trkpt><trkpt lat="43.0579783" lon="13.1585483"><ele>789.3333333333334</ele><time>2026-05-02T09:06:52.981Z</time></trkpt><trkpt lat="43.05801" lon="13.1584633"><ele>790.0</ele><time>2026-05-02T09:06:53.982Z</time></trkpt><trkpt lat="43.0580467" lon="13.1583633"><ele>790.6666666666667</ele><time>2026-05-02T09:06:54.981Z</time></trkpt><trkpt lat="43.0580783" lon="13.1582617"><ele>791.3333333333334</ele><time>2026-05-02T09:06:55.982Z</time></trkpt><trkpt lat="43.0581183" lon="13.1581633"><ele>792.0</ele><time>2026-05-02T09:06:56.982Z</time></trkpt><trkpt lat="43.0581567" lon="13.15807"><ele>793.6666666666666</ele><time>2026-05-02T09:06:57.983Z</time></trkpt><trkpt lat="43.0581917" lon="13.1579783"><ele>795.3333333333333</ele><time>2026-05-02T09:06:58.981Z</time></trkpt><trkpt lat="43.0582267" lon="13.1578967"><ele>797.0</ele><time>2026-05-02T09:06:59.982Z</time></trkpt><trkpt lat="43.0582633" lon="13.157825"><ele>798.6666666666666</ele><time>2026-05-02T09:07:00.982Z</time></trkpt><trkpt lat="43.0583217" lon="13.1577167"><ele>800.3333333333333</ele><time>2026-05-02T09:07:02.982Z</time></trkpt><trkpt lat="43.0583467" lon="13.1575917"><ele>802.0</ele><time>2026-05-02T09:07:05.983Z</time></trkpt><trkpt lat="43.0583533" lon="13.157475"><ele>805.4000000000001</ele><time>2026-05-02T09:07:07.981Z</time></trkpt><trkpt lat="43.05839" lon="13.157355"><ele>808.8000000000001</ele><time>2026-05-02T09:07:09.982Z</time></trkpt><trkpt lat="43.0584433" lon="13.157235"><ele>812.2</ele><time>2026-05-02T09:07:11.982Z</time></trkpt><trkpt lat="43.0585083" lon="13.1571283"><ele>815.6</ele><time>2026-05-02T09:07:13.982Z</time></trkpt><trkpt lat="43.0585733" lon="13.1570433"><ele>819.0</ele><time>2026-05-02T09:07:15.981Z</time></trkpt><trkpt lat="43.0586383" lon="13.15697"><ele>819.0</ele><time>2026-05-02T09:07:18.982Z</time></trkpt><trkpt lat="43.0586633" lon="13.156865"><ele>819.0</ele><time>2026-05-02T09:07:21.982Z</time></trkpt><trkpt lat="43.0586617" lon="13.1567717"><ele>819.0</ele><time>2026-05-02T09:07:23.982Z</time></trkpt><trkpt lat="43.058655" lon="13.156685"><ele>819.0</ele><time>2026-05-02T09:07:25.982Z</time></trkpt><trkpt lat="43.0586167" lon="13.15656"><ele>819.0</ele><time>2026-05-02T09:07:28.982Z</time></trkpt><trkpt lat="43.058575" lon="13.1564717"><ele>819.0</ele><time>2026-05-02T09:07:30.982Z</time></trkpt><trkpt lat="43.0585517" lon="13.1563833"><ele>821.0</ele><time>2026-05-02T09:07:43.982Z</time></trkpt><trkpt lat="43.058515" lon="13.156285"><ele>823.0</ele><time>2026-05-02T09:07:45.981Z</time></trkpt><trkpt lat="43.0584533" lon="13.15618"><ele>825.0</ele><time>2026-05-02T09:07:47.981Z</time></trkpt><trkpt lat="43.0583983" lon="13.1560617"><ele>827.0</ele><time>2026-05-02T09:07:49.982Z</time></trkpt><trkpt lat="43.0583483" lon="13.1559467"><ele>829.0</ele><time>2026-05-02T09:07:51.981Z</time></trkpt><trkpt lat="43.0583117" lon="13.1558233"><ele>823.6</ele><time>2026-05-02T09:07:53.983Z</time></trkpt><trkpt lat="43.058275" lon="13.155695"><ele>818.2</ele><time>2026-05-02T09:07:55.984Z</time></trkpt><trkpt lat="43.058265" lon="13.155595"><ele>812.8000000000001</ele><time>2026-05-02T09:07:57.982Z</time></trkpt><trkpt lat="43.05826" lon="13.1554783"><ele>807.4000000000001</ele><time>2026-05-02T09:07:59.982Z</time></trkpt><trkpt lat="43.0582683" lon="13.155325"><ele>802.0</ele><time>2026-05-02T09:08:01.981Z</time></trkpt><trkpt lat="43.058275" lon="13.155155"><ele>802.0</ele><time>2026-05-02T09:08:03.982Z</time></trkpt><trkpt lat="43.0582733" lon="13.1549917"><ele>802.0</ele><time>2026-05-02T09:08:05.982Z</time></trkpt><trkpt lat="43.0582717" lon="13.1548467"><ele>802.0</ele><time>2026-05-02T09:08:07.981Z</time></trkpt><trkpt lat="43.0582917" lon="13.1547017"><ele>802.0</ele><time>2026-05-02T09:08:09.982Z</time></trkpt><trkpt lat="43.0583067" lon="13.1546167"><ele>802.0</ele><time>2026-05-02T09:08:10.983Z</time></trkpt><trkpt lat="43.0583233" lon="13.15453"><ele>804.8333333333333</ele><time>2026-05-02T09:08:11.983Z</time></trkpt><trkpt lat="43.0583533" lon="13.1544"><ele>807.6666666666666</ele><time>2026-05-02T09:08:13.981Z</time></trkpt><trkpt lat="43.0583533" lon="13.15427"><ele>810.5</ele><time>2026-05-02T09:08:15.981Z</time></trkpt><trkpt lat="43.0583383" lon="13.1541417"><ele>813.3333333333333</ele><time>2026-05-02T09:08:17.982Z</time></trkpt><trkpt lat="43.058325" lon="13.1540433"><ele>816.1666666666666</ele><time>2026-05-02T09:08:19.981Z</time></trkpt><trkpt lat="43.0582967" lon="13.1539533"><ele>819.0</ele><time>2026-05-02T09:08:21.981Z</time></trkpt><trkpt lat="43.0582317" lon="13.15392"><ele>819.5</ele><time>2026-05-02T09:08:24.981Z</time></trkpt><trkpt lat="43.05817" lon="13.1538867"><ele>820.0</ele><time>2026-05-02T09:08:27.983Z</time></trkpt><trkpt lat="43.0580917" lon="13.1538583"><ele>820.5</ele><time>2026-05-02T09:08:43.984Z</time></trkpt><trkpt lat="43.0580333" lon="13.1538217"><ele>821.0</ele><time>2026-05-02T09:08:46.982Z</time></trkpt><trkpt lat="43.0579717" lon="13.15373"><ele>821.5</ele><time>2026-05-02T09:08:48.982Z</time></trkpt><trkpt lat="43.0579267" lon="13.1536633"><ele>822.0</ele><time>2026-05-02T09:08:49.981Z</time></trkpt><trkpt lat="43.0578733" lon="13.1535783"><ele>822.0</ele><time>2026-05-02T09:08:50.983Z</time></trkpt><trkpt lat="43.05782" lon="13.1534967"><ele>822.0</ele><time>2026-05-02T09:08:51.983Z</time></trkpt><trkpt lat="43.0577817" lon="13.153425"><ele>822.0</ele><time>2026-05-02T09:08:52.981Z</time></trkpt><trkpt lat="43.057735" lon="13.153365"><ele>822.0</ele><time>2026-05-02T09:08:53.983Z</time></trkpt><trkpt lat="43.0576467" lon="13.1532967"><ele>822.0</ele><time>2026-05-02T09:08:55.982Z</time></trkpt><trkpt lat="43.0575733" lon="13.1532533"><ele>822.0</ele><time>2026-05-02T09:08:57.982Z</time></trkpt><trkpt lat="43.0574817" lon="13.1532233"><ele>820.8</ele><time>2026-05-02T09:08:59.983Z</time></trkpt><trkpt lat="43.0573617" lon="13.1531967"><ele>819.6</ele><time>2026-05-02T09:09:01.982Z</time></trkpt><trkpt lat="43.0572917" lon="13.153175"><ele>818.4</ele><time>2026-05-02T09:09:02.983Z</time></trkpt><trkpt lat="43.057165" lon="13.1531783"><ele>817.1999999999999</ele><time>2026-05-02T09:09:04.982Z</time></trkpt><trkpt lat="43.0570983" lon="13.1531983"><ele>816.0</ele><time>2026-05-02T09:09:05.982Z</time></trkpt><trkpt lat="43.0569883" lon="13.1532517"><ele>816.0</ele><time>2026-05-02T09:09:07.982Z</time></trkpt><trkpt lat="43.0569033" lon="13.1532233"><ele>816.0</ele><time>2026-05-02T09:09:10.982Z</time></trkpt><trkpt lat="43.0568317" lon="13.1531667"><ele>816.0</ele><time>2026-05-02T09:09:12.983Z</time></trkpt><trkpt lat="43.0567617" lon="13.15312"><ele>816.0</ele><time>2026-05-02T09:09:14.982Z</time></trkpt><trkpt lat="43.0567" lon="13.1530717"><ele>816.0</ele><time>2026-05-02T09:09:16.983Z</time></trkpt><trkpt lat="43.0566367" lon="13.1530317"><ele>816.0</ele><time>2026-05-02T09:09:18.982Z</time></trkpt><trkpt lat="43.0565667" lon="13.153015"><ele>813.6666666666666</ele><time>2026-05-02T09:09:20.983Z</time></trkpt><trkpt lat="43.056495" lon="13.152995"><ele>811.3333333333333</ele><time>2026-05-02T09:09:22.981Z</time></trkpt><trkpt lat="43.0564233" lon="13.1529833"><ele>809.0</ele><time>2026-05-02T09:09:24.983Z</time></trkpt><trkpt lat="43.0563317" lon="13.1529883"><ele>806.6666666666666</ele><time>2026-05-02T09:09:27.982Z</time></trkpt><trkpt lat="43.0562567" lon="13.1530217"><ele>804.3333333333333</ele><time>2026-05-02T09:09:29.983Z</time></trkpt><trkpt lat="43.056175" lon="13.1530667"><ele>802.0</ele><time>2026-05-02T09:09:31.982Z</time></trkpt><trkpt lat="43.0560883" lon="13.153095"><ele>801.9999999999999</ele><time>2026-05-02T09:09:33.982Z</time></trkpt><trkpt lat="43.056" lon="13.1530933"><ele>802.0</ele><time>2026-05-02T09:09:35.982Z</time></trkpt><trkpt lat="43.05588" lon="13.1530667"><ele>802.0</ele><time>2026-05-02T09:09:37.983Z</time></trkpt><trkpt lat="43.055805" lon="13.1530433"><ele>802.0</ele><time>2026-05-02T09:09:38.983Z</time></trkpt><trkpt lat="43.0557317" lon="13.1530217"><ele>801.9999999999999</ele><time>2026-05-02T09:09:39.983Z</time></trkpt><trkpt lat="43.0556567" lon="13.1530117"><ele>802.0</ele><time>2026-05-02T09:09:40.982Z</time></trkpt><trkpt lat="43.0555867" lon="13.152995"><ele>800.2</ele><time>2026-05-02T09:09:41.982Z</time></trkpt><trkpt lat="43.055465" lon="13.15298"><ele>798.4000000000001</ele><time>2026-05-02T09:09:43.983Z</time></trkpt><trkpt lat="43.0554017" lon="13.152975"><ele>796.5999999999999</ele><time>2026-05-02T09:09:44.986Z</time></trkpt><trkpt lat="43.0553333" lon="13.1529783"><ele>794.8</ele><time>2026-05-02T09:09:45.983Z</time></trkpt><trkpt lat="43.0552267" lon="13.1530083"><ele>793.0</ele><time>2026-05-02T09:09:47.983Z</time></trkpt><trkpt lat="43.05514" lon="13.1530583"><ele>792.9999999999999</ele><time>2026-05-02T09:09:49.982Z</time></trkpt><trkpt lat="43.055055" lon="13.1530983"><ele>793.0</ele><time>2026-05-02T09:09:51.982Z</time></trkpt><trkpt lat="43.0549517" lon="13.1531533"><ele>793.0</ele><time>2026-05-02T09:09:53.982Z</time></trkpt><trkpt lat="43.0548667" lon="13.1531783"><ele>793.0</ele><time>2026-05-02T09:09:55.983Z</time></trkpt><trkpt lat="43.0547867" lon="13.1532033"><ele>792.9999999999999</ele><time>2026-05-02T09:09:57.983Z</time></trkpt><trkpt lat="43.0547183" lon="13.15322"><ele>793.0</ele><time>2026-05-02T09:09:59.982Z</time></trkpt><trkpt lat="43.0546517" lon="13.15322"><ele>792.5999999999999</ele><time>2026-05-02T09:10:01.982Z</time></trkpt><trkpt lat="43.0545617" lon="13.1531883"><ele>792.1999999999999</ele><time>2026-05-02T09:10:04.983Z</time></trkpt><trkpt lat="43.0544567" lon="13.1531517"><ele>791.8</ele><time>2026-05-02T09:10:06.982Z</time></trkpt><trkpt lat="43.0543367" lon="13.15309"><ele>791.4</ele><time>2026-05-02T09:10:08.982Z</time></trkpt><trkpt lat="43.0542633" lon="13.1530567"><ele>791.0</ele><time>2026-05-02T09:10:09.981Z</time></trkpt><trkpt lat="43.0541917" lon="13.1530217"><ele>791.0</ele><time>2026-05-02T09:10:10.981Z</time></trkpt><trkpt lat="43.0541267" lon="13.15298"><ele>791.0</ele><time>2026-05-02T09:10:11.982Z</time></trkpt><trkpt lat="43.054065" lon="13.1529617"><ele>791.0</ele><time>2026-05-02T09:10:12.982Z</time></trkpt><trkpt lat="43.054" lon="13.1529433"><ele>791.0</ele><time>2026-05-02T09:10:13.983Z</time></trkpt><trkpt lat="43.0539317" lon="13.1529417"><ele>791.0</ele><time>2026-05-02T09:10:14.982Z</time></trkpt><trkpt lat="43.05385" lon="13.1529617"><ele>791.0</ele><time>2026-05-02T09:10:15.98Z</time></trkpt><trkpt lat="43.053775" lon="13.152975"><ele>791.0</ele><time>2026-05-02T09:10:16.98Z</time></trkpt><trkpt lat="43.0537017" lon="13.1529733"><ele>791.8</ele><time>2026-05-02T09:10:17.98Z</time></trkpt><trkpt lat="43.0536333" lon="13.1529617"><ele>792.5999999999999</ele><time>2026-05-02T09:10:18.981Z</time></trkpt><trkpt lat="43.0535383" lon="13.1529417"><ele>793.4</ele><time>2026-05-02T09:10:20.982Z</time></trkpt><trkpt lat="43.0534033" lon="13.1529217"><ele>794.2</ele><time>2026-05-02T09:10:22.982Z</time></trkpt><trkpt lat="43.053315" lon="13.1529117"><ele>795.0</ele><time>2026-05-02T09:10:23.981Z</time></trkpt><trkpt lat="43.0532217" lon="13.152915"><ele>795.5</ele><time>2026-05-02T09:10:24.981Z</time></trkpt><trkpt lat="43.053105" lon="13.1529317"><ele>796.0</ele><time>2026-05-02T09:10:25.981Z</time></trkpt><trkpt lat="43.0529633" lon="13.1529667"><ele>796.5</ele><time>2026-05-02T09:10:26.981Z</time></trkpt><trkpt lat="43.0528183" lon="13.153005"><ele>797.0</ele><time>2026-05-02T09:10:27.98Z</time></trkpt><trkpt lat="43.0526767" lon="13.1530417"><ele>797.0</ele><time>2026-05-02T09:10:28.982Z</time></trkpt><trkpt lat="43.0525333" lon="13.15307"><ele>797.0</ele><time>2026-05-02T09:10:29.982Z</time></trkpt><trkpt lat="43.052385" lon="13.15309"><ele>797.0</ele><time>2026-05-02T09:10:30.981Z</time></trkpt><trkpt lat="43.0522367" lon="13.1530983"><ele>797.0</ele><time>2026-05-02T09:10:31.982Z</time></trkpt><trkpt lat="43.0520917" lon="13.1530883"><ele>795.75</ele><time>2026-05-02T09:10:32.981Z</time></trkpt><trkpt lat="43.0519517" lon="13.1530567"><ele>794.5</ele><time>2026-05-02T09:10:33.981Z</time></trkpt><trkpt lat="43.0518283" lon="13.1529867"><ele>793.25</ele><time>2026-05-02T09:10:34.983Z</time></trkpt><trkpt lat="43.0517217" lon="13.1528717"><ele>792.0</ele><time>2026-05-02T09:10:35.981Z</time></trkpt><trkpt lat="43.051635" lon="13.1527183"><ele>792.6666666666667</ele><time>2026-05-02T09:10:36.981Z</time></trkpt><trkpt lat="43.0515583" lon="13.152545"><ele>793.3333333333334</ele><time>2026-05-02T09:10:37.982Z</time></trkpt><trkpt lat="43.0514983" lon="13.15235"><ele>794.0</ele><time>2026-05-02T09:10:38.981Z</time></trkpt><trkpt lat="43.0514417" lon="13.15216"><ele>794.0</ele><time>2026-05-02T09:10:39.982Z</time></trkpt><trkpt lat="43.0513667" lon="13.1519883"><ele>794.0</ele><time>2026-05-02T09:10:40.981Z</time></trkpt><trkpt lat="43.0512733" lon="13.151845"><ele>794.0</ele><time>2026-05-02T09:10:41.982Z</time></trkpt><trkpt lat="43.0511617" lon="13.1517367"><ele>794.0</ele><time>2026-05-02T09:10:42.982Z</time></trkpt><trkpt lat="43.0510267" lon="13.1516567"><ele>794.0</ele><time>2026-05-02T09:10:43.982Z</time></trkpt><trkpt lat="43.0508867" lon="13.1516267"><ele>794.0</ele><time>2026-05-02T09:10:44.983Z</time></trkpt><trkpt lat="43.0507467" lon="13.15163"><ele>794.0</ele><time>2026-05-02T09:10:45.981Z</time></trkpt><trkpt lat="43.050605" lon="13.1516467"><ele>794.0</ele><time>2026-05-02T09:10:46.982Z</time></trkpt><trkpt lat="43.050475" lon="13.1516567"><ele>792.5</ele><time>2026-05-02T09:10:47.982Z</time></trkpt><trkpt lat="43.0503433" lon="13.1516433"><ele>791.0</ele><time>2026-05-02T09:10:48.981Z</time></trkpt><trkpt lat="43.05022" lon="13.151595"><ele>789.5</ele><time>2026-05-02T09:10:49.982Z</time></trkpt><trkpt lat="43.050105" lon="13.15152"><ele>788.0</ele><time>2026-05-02T09:10:50.982Z</time></trkpt><trkpt lat="43.050005" lon="13.1514117"><ele>786.25</ele><time>2026-05-02T09:10:51.981Z</time></trkpt><trkpt lat="43.049905" lon="13.1512883"><ele>784.5</ele><time>2026-05-02T09:10:52.982Z</time></trkpt><trkpt lat="43.0497917" lon="13.1511917"><ele>782.75</ele><time>2026-05-02T09:10:53.981Z</time></trkpt><trkpt lat="43.0496817" lon="13.1510933"><ele>781.0</ele><time>2026-05-02T09:10:54.983Z</time></trkpt><trkpt lat="43.0495767" lon="13.1509867"><ele>781.0</ele><time>2026-05-02T09:10:55.982Z</time></trkpt><trkpt lat="43.04949" lon="13.15086"><ele>781.0</ele><time>2026-05-02T09:10:56.982Z</time></trkpt><trkpt lat="43.049435" lon="13.1507"><ele>781.0</ele><time>2026-05-02T09:10:57.982Z</time></trkpt><trkpt lat="43.0494017" lon="13.1505167"><ele>781.0</ele><time>2026-05-02T09:10:58.981Z</time></trkpt><trkpt lat="43.0493883" lon="13.1503267"><ele>781.75</ele><time>2026-05-02T09:10:59.982Z</time></trkpt><trkpt lat="43.0494033" lon="13.1501383"><ele>782.5</ele><time>2026-05-02T09:11:00.981Z</time></trkpt><trkpt lat="43.04943" lon="13.1499517"><ele>783.25</ele><time>2026-05-02T09:11:01.981Z</time></trkpt><trkpt lat="43.0494533" lon="13.149775"><ele>784.0</ele><time>2026-05-02T09:11:02.981Z</time></trkpt><trkpt lat="43.0494667" lon="13.1496067"><ele>784.75</ele><time>2026-05-02T09:11:03.981Z</time></trkpt><trkpt lat="43.0494733" lon="13.1494383"><ele>785.5</ele><time>2026-05-02T09:11:04.981Z</time></trkpt><trkpt lat="43.0494717" lon="13.1492683"><ele>786.25</ele><time>2026-05-02T09:11:05.982Z</time></trkpt><trkpt lat="43.049455" lon="13.1490967"><ele>787.0</ele><time>2026-05-02T09:11:06.982Z</time></trkpt><trkpt lat="43.0494183" lon="13.1489283"><ele>788.0</ele><time>2026-05-02T09:11:07.982Z</time></trkpt><trkpt lat="43.049365" lon="13.1487667"><ele>789.0</ele><time>2026-05-02T09:11:08.981Z</time></trkpt><trkpt lat="43.0492967" lon="13.14861"><ele>790.0</ele><time>2026-05-02T09:11:09.982Z</time></trkpt><trkpt lat="43.0492233" lon="13.1484667"><ele>791.0</ele><time>2026-05-02T09:11:10.982Z</time></trkpt><trkpt lat="43.049145" lon="13.148325"><ele>792.0</ele><time>2026-05-02T09:11:11.981Z</time></trkpt><trkpt lat="43.0490633" lon="13.1481867"><ele>793.0</ele><time>2026-05-02T09:11:12.982Z</time></trkpt><trkpt lat="43.0489767" lon="13.148055"><ele>794.0</ele><time>2026-05-02T09:11:13.981Z</time></trkpt><trkpt lat="43.04889" lon="13.14793"><ele>795.0</ele><time>2026-05-02T09:11:14.982Z</time></trkpt><trkpt lat="43.04881" lon="13.1478083"><ele>795.0</ele><time>2026-05-02T09:11:15.981Z</time></trkpt><trkpt lat="43.0487383" lon="13.1476817"><ele>795.0</ele><time>2026-05-02T09:11:16.982Z</time></trkpt><trkpt lat="43.0486717" lon="13.14755"><ele>795.0</ele><time>2026-05-02T09:11:17.981Z</time></trkpt><trkpt lat="43.0486083" lon="13.14742"><ele>795.0</ele><time>2026-05-02T09:11:18.982Z</time></trkpt><trkpt lat="43.0485467" lon="13.147295"><ele>795.6</ele><time>2026-05-02T09:11:19.982Z</time></trkpt><trkpt lat="43.0484883" lon="13.14718"><ele>796.2</ele><time>2026-05-02T09:11:20.981Z</time></trkpt><trkpt lat="43.04842" lon="13.1470817"><ele>796.8</ele><time>2026-05-02T09:11:21.982Z</time></trkpt><trkpt lat="43.0483367" lon="13.1470067"><ele>797.4</ele><time>2026-05-02T09:11:22.982Z</time></trkpt><trkpt lat="43.0482417" lon="13.1469517"><ele>798.0</ele><time>2026-05-02T09:11:23.982Z</time></trkpt><trkpt lat="43.0481317" lon="13.1469117"><ele>799.4</ele><time>2026-05-02T09:11:24.982Z</time></trkpt><trkpt lat="43.048015" lon="13.1468767"><ele>800.8</ele><time>2026-05-02T09:11:25.982Z</time></trkpt><trkpt lat="43.0479067" lon="13.14684"><ele>802.2</ele><time>2026-05-02T09:11:26.981Z</time></trkpt><trkpt lat="43.047805" lon="13.146815"><ele>803.6</ele><time>2026-05-02T09:11:27.981Z</time></trkpt><trkpt lat="43.0477117" lon="13.14679"><ele>805.0</ele><time>2026-05-02T09:11:28.981Z</time></trkpt><trkpt lat="43.0475367" lon="13.1467817"><ele>803.0</ele><time>2026-05-02T09:11:30.981Z</time></trkpt><trkpt lat="43.0474483" lon="13.1467783"><ele>801.0</ele><time>2026-05-02T09:11:31.982Z</time></trkpt><trkpt lat="43.0473533" lon="13.1467783"><ele>799.0</ele><time>2026-05-02T09:11:32.982Z</time></trkpt><trkpt lat="43.0472533" lon="13.1467933"><ele>797.0</ele><time>2026-05-02T09:11:33.981Z</time></trkpt><trkpt lat="43.0471467" lon="13.146835"><ele>795.0</ele><time>2026-05-02T09:11:34.981Z</time></trkpt><trkpt lat="43.0470417" lon="13.1469"><ele>795.0</ele><time>2026-05-02T09:11:35.981Z</time></trkpt><trkpt lat="43.04694" lon="13.1469783"><ele>795.0</ele><time>2026-05-02T09:11:36.981Z</time></trkpt><trkpt lat="43.0468417" lon="13.1470533"><ele>795.0</ele><time>2026-05-02T09:11:37.981Z</time></trkpt><trkpt lat="43.0467633" lon="13.1470767"><ele>795.0</ele><time>2026-05-02T09:11:38.981Z</time></trkpt><trkpt lat="43.0467" lon="13.14705"><ele>795.0</ele><time>2026-05-02T09:11:39.982Z</time></trkpt><trkpt lat="43.0466567" lon="13.1469083"><ele>795.0</ele><time>2026-05-02T09:11:41.982Z</time></trkpt><trkpt lat="43.0466833" lon="13.1467967"><ele>795.0</ele><time>2026-05-02T09:11:42.982Z</time></trkpt><trkpt lat="43.0467267" lon="13.146665"><ele>795.0</ele><time>2026-05-02T09:11:43.981Z</time></trkpt><trkpt lat="43.0467733" lon="13.1465183"><ele>795.0</ele><time>2026-05-02T09:11:44.982Z</time></trkpt><trkpt lat="43.0468167" lon="13.14637"><ele>795.0</ele><time>2026-05-02T09:11:45.981Z</time></trkpt><trkpt lat="43.0468583" lon="13.1462133"><ele>792.75</ele><time>2026-05-02T09:11:46.981Z</time></trkpt><trkpt lat="43.0469017" lon="13.146055"><ele>790.5</ele><time>2026-05-02T09:11:47.982Z</time></trkpt><trkpt lat="43.04694" lon="13.145895"><ele>788.25</ele><time>2026-05-02T09:11:48.982Z</time></trkpt><trkpt lat="43.0469733" lon="13.1457383"><ele>786.0</ele><time>2026-05-02T09:11:49.981Z</time></trkpt><trkpt lat="43.0469983" lon="13.1455883"><ele>784.5999999999999</ele><time>2026-05-02T09:11:50.983Z</time></trkpt><trkpt lat="43.0470283" lon="13.1454483"><ele>783.2</ele><time>2026-05-02T09:11:51.982Z</time></trkpt><trkpt lat="43.0470617" lon="13.145315"><ele>781.8</ele><time>2026-05-02T09:11:52.981Z</time></trkpt><trkpt lat="43.0470933" lon="13.1451883"><ele>780.4000000000001</ele><time>2026-05-02T09:11:53.982Z</time></trkpt><trkpt lat="43.0471167" lon="13.1450767"><ele>779.0</ele><time>2026-05-02T09:11:54.982Z</time></trkpt><trkpt lat="43.0471383" lon="13.1449917"><ele>779.0</ele><time>2026-05-02T09:11:55.982Z</time></trkpt><trkpt lat="43.04718" lon="13.1448983"><ele>779.0</ele><time>2026-05-02T09:11:57.981Z</time></trkpt><trkpt lat="43.0472733" lon="13.144815"><ele>779.0</ele><time>2026-05-02T09:12:41.982Z</time></trkpt><trkpt lat="43.047335" lon="13.144765"><ele>779.0</ele><time>2026-05-02T09:12:42.983Z</time></trkpt><trkpt lat="43.0474" lon="13.1446967"><ele>779.0</ele><time>2026-05-02T09:12:43.982Z</time></trkpt><trkpt lat="43.0474817" lon="13.1445783"><ele>783.3333333333334</ele><time>2026-05-02T09:12:44.983Z</time></trkpt><trkpt lat="43.0475683" lon="13.144425"><ele>787.6666666666667</ele><time>2026-05-02T09:12:45.982Z</time></trkpt><trkpt lat="43.047655" lon="13.1442267"><ele>792.0</ele><time>2026-05-02T09:12:46.983Z</time></trkpt><trkpt lat="43.047725" lon="13.1440033"><ele>792.0</ele><time>2026-05-02T09:12:47.982Z</time></trkpt><trkpt lat="43.0477667" lon="13.14376"><ele>792.0</ele><time>2026-05-02T09:12:48.984Z</time></trkpt><trkpt lat="43.047795" lon="13.1435217"><ele>792.0</ele><time>2026-05-02T09:12:49.983Z</time></trkpt><trkpt lat="43.0478217" lon="13.143305"><ele>793.75</ele><time>2026-05-02T09:12:50.983Z</time></trkpt><trkpt lat="43.0478533" lon="13.1431133"><ele>795.5</ele><time>2026-05-02T09:12:51.983Z</time></trkpt><trkpt lat="43.0478967" lon="13.1429483"><ele>797.25</ele><time>2026-05-02T09:12:52.982Z</time></trkpt><trkpt lat="43.047945" lon="13.14282"><ele>799.0</ele><time>2026-05-02T09:12:53.982Z</time></trkpt><trkpt lat="43.04799" lon="13.1427233"><ele>798.9999999999999</ele><time>2026-05-02T09:12:54.982Z</time></trkpt><trkpt lat="43.0480267" lon="13.1426517"><ele>799.0</ele><time>2026-05-02T09:12:55.982Z</time></trkpt><trkpt lat="43.0480683" lon="13.1425417"><ele>799.0</ele><time>2026-05-02T09:12:57.982Z</time></trkpt><trkpt lat="43.0480833" lon="13.1424483"><ele>799.0</ele><time>2026-05-02T09:12:59.981Z</time></trkpt><trkpt lat="43.0481333" lon="13.1423617"><ele>798.9999999999999</ele><time>2026-05-02T09:13:01.982Z</time></trkpt><trkpt lat="43.0482" lon="13.1422633"><ele>799.0</ele><time>2026-05-02T09:13:03.981Z</time></trkpt><trkpt lat="43.04821" lon="13.1421517"><ele>802.2</ele><time>2026-05-02T09:13:05.982Z</time></trkpt><trkpt lat="43.0481683" lon="13.1420317"><ele>805.4000000000001</ele><time>2026-05-02T09:13:07.983Z</time></trkpt><trkpt lat="43.0480983" lon="13.1418867"><ele>808.6</ele><time>2026-05-02T09:13:09.982Z</time></trkpt><trkpt lat="43.048025" lon="13.1417367"><ele>811.8</ele><time>2026-05-02T09:13:11.983Z</time></trkpt><trkpt lat="43.0479917" lon="13.14165"><ele>815.0</ele><time>2026-05-02T09:13:12.983Z</time></trkpt><trkpt lat="43.0479317" lon="13.14152"><ele>815.0</ele><time>2026-05-02T09:13:14.982Z</time></trkpt><trkpt lat="43.0478683" lon="13.141475"><ele>815.0</ele><time>2026-05-02T09:13:16.982Z</time></trkpt><trkpt lat="43.047915" lon="13.1415733"><ele>815.0</ele><time>2026-05-02T09:18:06.106Z</time></trkpt><trkpt lat="43.0477767" lon="13.1414133"><ele>815.0</ele><time>2026-05-02T09:18:09.982Z</time></trkpt><trkpt lat="43.04784" lon="13.1414433"><ele>815.0</ele><time>2026-05-02T09:19:01.981Z</time></trkpt><trkpt lat="43.0479017" lon="13.1415"><ele>815.0000000000001</ele><time>2026-05-02T09:19:04.982Z</time></trkpt><trkpt lat="43.0479283" lon="13.1415783"><ele>815.0</ele><time>2026-05-02T09:19:06.982Z</time></trkpt><trkpt lat="43.0479717" lon="13.141685"><ele>815.0</ele><time>2026-05-02T09:19:08.982Z</time></trkpt><trkpt lat="43.0480367" lon="13.1418017"><ele>815.0</ele><time>2026-05-02T09:19:10.982Z</time></trkpt><trkpt lat="43.048075" lon="13.1418717"><ele>815.0000000000001</ele><time>2026-05-02T09:19:11.983Z</time></trkpt><trkpt lat="43.048115" lon="13.1419533"><ele>815.0</ele><time>2026-05-02T09:19:12.983Z</time></trkpt><trkpt lat="43.04815" lon="13.1420267"><ele>815.0</ele><time>2026-05-02T09:19:13.981Z</time></trkpt><trkpt lat="43.0481967" lon="13.1421633"><ele>815.0</ele><time>2026-05-02T09:19:15.982Z</time></trkpt><trkpt lat="43.048195" lon="13.1422817"><ele>815.0</ele><time>2026-05-02T09:19:17.982Z</time></trkpt><trkpt lat="43.048125" lon="13.1423767"><ele>815.0</ele><time>2026-05-02T09:19:19.982Z</time></trkpt><trkpt lat="43.0480683" lon="13.1424617"><ele>815.0</ele><time>2026-05-02T09:19:21.984Z</time></trkpt><trkpt lat="43.0480283" lon="13.1425867"><ele>811.0</ele><time>2026-05-02T09:19:24.981Z</time></trkpt><trkpt lat="43.04796" lon="13.1427267"><ele>807.0</ele><time>2026-05-02T09:19:26.982Z</time></trkpt><trkpt lat="43.0479117" lon="13.1428367"><ele>803.0</ele><time>2026-05-02T09:19:27.982Z</time></trkpt><trkpt lat="43.0478683" lon="13.1429867"><ele>799.0</ele><time>2026-05-02T09:19:28.983Z</time></trkpt><trkpt lat="43.0478333" lon="13.1431433"><ele>797.6</ele><time>2026-05-02T09:19:29.983Z</time></trkpt><trkpt lat="43.047815" lon="13.1433033"><ele>796.2</ele><time>2026-05-02T09:19:30.983Z</time></trkpt><trkpt lat="43.0478" lon="13.1434633"><ele>794.8000000000001</ele><time>2026-05-02T09:19:31.983Z</time></trkpt><trkpt lat="43.0477833" lon="13.14361"><ele>793.4000000000001</ele><time>2026-05-02T09:19:32.982Z</time></trkpt><trkpt lat="43.0477633" lon="13.143745"><ele>792.0</ele><time>2026-05-02T09:19:33.983Z</time></trkpt><trkpt lat="43.04774" lon="13.1438717"><ele>792.0</ele><time>2026-05-02T09:19:34.984Z</time></trkpt><trkpt lat="43.0477117" lon="13.144"><ele>792.0</ele><time>2026-05-02T09:19:35.983Z</time></trkpt><trkpt lat="43.047675" lon="13.1441283"><ele>792.0</ele><time>2026-05-02T09:19:36.982Z</time></trkpt><trkpt lat="43.0476283" lon="13.1442517"><ele>792.0</ele><time>2026-05-02T09:19:37.983Z</time></trkpt><trkpt lat="43.0475683" lon="13.14437"><ele>792.0</ele><time>2026-05-02T09:19:38.983Z</time></trkpt><trkpt lat="43.0475033" lon="13.1444833"><ele>789.0</ele><time>2026-05-02T09:19:39.982Z</time></trkpt><trkpt lat="43.0474367" lon="13.1445883"><ele>786.0</ele><time>2026-05-02T09:19:40.982Z</time></trkpt><trkpt lat="43.0473717" lon="13.1446767"><ele>783.0</ele><time>2026-05-02T09:19:41.983Z</time></trkpt><trkpt lat="43.0473117" lon="13.1447433"><ele>780.0</ele><time>2026-05-02T09:19:42.983Z</time></trkpt><trkpt lat="43.0472517" lon="13.144785"><ele>777.0</ele><time>2026-05-02T09:19:43.983Z</time></trkpt><trkpt lat="43.0471517" lon="13.1447483"><ele>774.0</ele><time>2026-05-02T09:19:45.981Z</time></trkpt><trkpt lat="43.0471483" lon="13.1446283"><ele>774.0</ele><time>2026-05-02T09:19:46.982Z</time></trkpt><trkpt lat="43.047165" lon="13.1444933"><ele>774.0</ele><time>2026-05-02T09:19:47.981Z</time></trkpt><trkpt lat="43.0472" lon="13.1443333"><ele>774.0</ele><time>2026-05-02T09:19:48.982Z</time></trkpt><trkpt lat="43.047235" lon="13.1441617"><ele>774.0</ele><time>2026-05-02T09:19:49.983Z</time></trkpt><trkpt lat="43.047265" lon="13.14398"><ele>775.0</ele><time>2026-05-02T09:19:50.981Z</time></trkpt><trkpt lat="43.0472733" lon="13.143795"><ele>776.0</ele><time>2026-05-02T09:19:51.983Z</time></trkpt><trkpt lat="43.047235" lon="13.1436133"><ele>777.0</ele><time>2026-05-02T09:19:52.983Z</time></trkpt><trkpt lat="43.04716" lon="13.14345"><ele>778.0</ele><time>2026-05-02T09:19:53.981Z</time></trkpt><trkpt lat="43.0470417" lon="13.14332"><ele>778.0</ele><time>2026-05-02T09:19:54.982Z</time></trkpt><trkpt lat="43.046895" lon="13.1432183"><ele>778.0</ele><time>2026-05-02T09:19:55.982Z</time></trkpt><trkpt lat="43.0467417" lon="13.1431283"><ele>778.0</ele><time>2026-05-02T09:19:56.983Z</time></trkpt><trkpt lat="43.0465917" lon="13.14304"><ele>779.0</ele><time>2026-05-02T09:19:57.983Z</time></trkpt><trkpt lat="43.0464467" lon="13.1429483"><ele>780.0</ele><time>2026-05-02T09:19:58.982Z</time></trkpt><trkpt lat="43.0463017" lon="13.1428617"><ele>781.0</ele><time>2026-05-02T09:19:59.981Z</time></trkpt><trkpt lat="43.0461583" lon="13.1427833"><ele>781.0</ele><time>2026-05-02T09:20:00.983Z</time></trkpt><trkpt lat="43.0460233" lon="13.1427233"><ele>781.0</ele><time>2026-05-02T09:20:01.981Z</time></trkpt><trkpt lat="43.0458833" lon="13.1426967"><ele>781.0</ele><time>2026-05-02T09:20:02.983Z</time></trkpt><trkpt lat="43.0457417" lon="13.14271"><ele>781.0</ele><time>2026-05-02T09:20:03.982Z</time></trkpt><trkpt lat="43.0456017" lon="13.1427417"><ele>781.5</ele><time>2026-05-02T09:20:04.981Z</time></trkpt><trkpt lat="43.0454583" lon="13.1427767"><ele>782.0</ele><time>2026-05-02T09:20:05.981Z</time></trkpt><trkpt lat="43.0453217" lon="13.1428267"><ele>782.5</ele><time>2026-05-02T09:20:06.984Z</time></trkpt><trkpt lat="43.04519" lon="13.142905"><ele>783.0</ele><time>2026-05-02T09:20:07.982Z</time></trkpt><trkpt lat="43.045065" lon="13.1430083"><ele>784.75</ele><time>2026-05-02T09:20:08.983Z</time></trkpt><trkpt lat="43.0449517" lon="13.143115"><ele>786.5</ele><time>2026-05-02T09:20:09.981Z</time></trkpt><trkpt lat="43.0448467" lon="13.14322"><ele>788.25</ele><time>2026-05-02T09:20:10.981Z</time></trkpt><trkpt lat="43.0447467" lon="13.1433233"><ele>790.0</ele><time>2026-05-02T09:20:11.982Z</time></trkpt><trkpt lat="43.0446583" lon="13.1434183"><ele>785.2</ele><time>2026-05-02T09:20:12.981Z</time></trkpt><trkpt lat="43.0445833" lon="13.1435033"><ele>780.4</ele><time>2026-05-02T09:20:13.983Z</time></trkpt><trkpt lat="43.044515" lon="13.1435667"><ele>775.5999999999999</ele><time>2026-05-02T09:20:14.982Z</time></trkpt><trkpt lat="43.044415" lon="13.1435533"><ele>770.8</ele><time>2026-05-02T09:20:16.982Z</time></trkpt><trkpt lat="43.0443617" lon="13.1434867"><ele>766.0</ele><time>2026-05-02T09:20:17.982Z</time></trkpt><trkpt lat="43.0443117" lon="13.14337"><ele>766.0</ele><time>2026-05-02T09:20:18.982Z</time></trkpt><trkpt lat="43.0442467" lon="13.1432483"><ele>766.0</ele><time>2026-05-02T09:20:19.983Z</time></trkpt><trkpt lat="43.044155" lon="13.1431517"><ele>766.0</ele><time>2026-05-02T09:20:20.982Z</time></trkpt><trkpt lat="43.0440367" lon="13.1431067"><ele>766.0</ele><time>2026-05-02T09:20:21.983Z</time></trkpt><trkpt lat="43.0438883" lon="13.1431167"><ele>767.3333333333334</ele><time>2026-05-02T09:20:22.982Z</time></trkpt><trkpt lat="43.043715" lon="13.1431717"><ele>768.6666666666667</ele><time>2026-05-02T09:20:23.983Z</time></trkpt><trkpt lat="43.0435317" lon="13.1432483"><ele>770.0</ele><time>2026-05-02T09:20:24.982Z</time></trkpt><trkpt lat="43.0433583" lon="13.1433267"><ele>766.75</ele><time>2026-05-02T09:20:25.981Z</time></trkpt><trkpt lat="43.0432017" lon="13.14341"><ele>763.5</ele><time>2026-05-02T09:20:26.983Z</time></trkpt><trkpt lat="43.0430617" lon="13.1434817"><ele>760.25</ele><time>2026-05-02T09:20:27.981Z</time></trkpt><trkpt lat="43.0429333" lon="13.14351"><ele>757.0</ele><time>2026-05-02T09:20:28.983Z</time></trkpt><trkpt lat="43.04282" lon="13.143475"><ele>757.0</ele><time>2026-05-02T09:20:29.982Z</time></trkpt><trkpt lat="43.0427317" lon="13.1433817"><ele>757.0</ele><time>2026-05-02T09:20:30.982Z</time></trkpt><trkpt lat="43.04267" lon="13.14324"><ele>757.0</ele><time>2026-05-02T09:20:31.983Z</time></trkpt><trkpt lat="43.0426367" lon="13.1430567"><ele>757.0</ele><time>2026-05-02T09:20:32.982Z</time></trkpt><trkpt lat="43.042615" lon="13.1428483"><ele>761.3333333333334</ele><time>2026-05-02T09:20:33.981Z</time></trkpt><trkpt lat="43.0426033" lon="13.14262"><ele>765.6666666666667</ele><time>2026-05-02T09:20:34.981Z</time></trkpt><trkpt lat="43.042595" lon="13.1423833"><ele>770.0</ele><time>2026-05-02T09:20:35.983Z</time></trkpt><trkpt lat="43.04259" lon="13.14215"><ele>772.3333333333334</ele><time>2026-05-02T09:20:36.983Z</time></trkpt><trkpt lat="43.0425933" lon="13.14192"><ele>774.6666666666667</ele><time>2026-05-02T09:20:37.981Z</time></trkpt><trkpt lat="43.042605" lon="13.14168"><ele>777.0</ele><time>2026-05-02T09:20:38.983Z</time></trkpt><trkpt lat="43.0426117" lon="13.1414567"><ele>775.75</ele><time>2026-05-02T09:20:39.981Z</time></trkpt><trkpt lat="43.042595" lon="13.1412533"><ele>774.5</ele><time>2026-05-02T09:20:40.986Z</time></trkpt><trkpt lat="43.0425333" lon="13.1410767"><ele>773.25</ele><time>2026-05-02T09:20:41.981Z</time></trkpt><trkpt lat="43.0424233" lon="13.140925"><ele>772.0</ele><time>2026-05-02T09:20:42.982Z</time></trkpt><trkpt lat="43.0423" lon="13.140795"><ele>774.25</ele><time>2026-05-02T09:20:43.982Z</time></trkpt><trkpt lat="43.0421983" lon="13.140675"><ele>776.5</ele><time>2026-05-02T09:20:44.982Z</time></trkpt><trkpt lat="43.0421317" lon="13.140545"><ele>778.75</ele><time>2026-05-02T09:20:45.982Z</time></trkpt><trkpt lat="43.042085" lon="13.1404017"><ele>781.0</ele><time>2026-05-02T09:20:46.982Z</time></trkpt><trkpt lat="43.04204" lon="13.1402467"><ele>781.0</ele><time>2026-05-02T09:20:47.982Z</time></trkpt><trkpt lat="43.0419967" lon="13.1400783"><ele>781.0</ele><time>2026-05-02T09:20:48.983Z</time></trkpt><trkpt lat="43.0419567" lon="13.1398983"><ele>781.0</ele><time>2026-05-02T09:20:49.981Z</time></trkpt><trkpt lat="43.0419217" lon="13.1397133"><ele>781.0</ele><time>2026-05-02T09:20:50.983Z</time></trkpt><trkpt lat="43.041885" lon="13.1395383"><ele>782.25</ele><time>2026-05-02T09:20:51.982Z</time></trkpt><trkpt lat="43.0418267" lon="13.139385"><ele>783.5</ele><time>2026-05-02T09:20:52.982Z</time></trkpt><trkpt lat="43.0417367" lon="13.1392733"><ele>784.75</ele><time>2026-05-02T09:20:53.982Z</time></trkpt><trkpt lat="43.0416267" lon="13.1391967"><ele>786.0</ele><time>2026-05-02T09:20:54.983Z</time></trkpt><trkpt lat="43.0415183" lon="13.13913"><ele>787.0</ele><time>2026-05-02T09:20:55.983Z</time></trkpt><trkpt lat="43.0414317" lon="13.1390417"><ele>788.0</ele><time>2026-05-02T09:20:56.982Z</time></trkpt><trkpt lat="43.0413833" lon="13.1389117"><ele>789.0</ele><time>2026-05-02T09:20:57.983Z</time></trkpt><trkpt lat="43.0413667" lon="13.1387533"><ele>790.0</ele><time>2026-05-02T09:20:58.982Z</time></trkpt><trkpt lat="43.0413717" lon="13.1385633"><ele>790.0</ele><time>2026-05-02T09:20:59.983Z</time></trkpt><trkpt lat="43.041375" lon="13.1383617"><ele>790.0</ele><time>2026-05-02T09:21:00.983Z</time></trkpt><trkpt lat="43.0413733" lon="13.138155"><ele>790.0</ele><time>2026-05-02T09:21:01.983Z</time></trkpt><trkpt lat="43.041365" lon="13.1379483"><ele>790.75</ele><time>2026-05-02T09:21:02.983Z</time></trkpt><trkpt lat="43.041355" lon="13.1377433"><ele>791.5</ele><time>2026-05-02T09:21:03.983Z</time></trkpt><trkpt lat="43.041345" lon="13.13754"><ele>792.25</ele><time>2026-05-02T09:21:04.982Z</time></trkpt><trkpt lat="43.0413317" lon="13.1373383"><ele>793.0</ele><time>2026-05-02T09:21:05.983Z</time></trkpt><trkpt lat="43.04132" lon="13.1371333"><ele>794.6666666666666</ele><time>2026-05-02T09:21:06.983Z</time></trkpt><trkpt lat="43.0413083" lon="13.1369283"><ele>796.3333333333333</ele><time>2026-05-02T09:21:07.982Z</time></trkpt><trkpt lat="43.0413033" lon="13.1367217"><ele>798.0</ele><time>2026-05-02T09:21:08.983Z</time></trkpt><trkpt lat="43.0413017" lon="13.1365117"><ele>798.0</ele><time>2026-05-02T09:21:09.982Z</time></trkpt><trkpt lat="43.0413033" lon="13.1363117"><ele>798.0</ele><time>2026-05-02T09:21:10.982Z</time></trkpt><trkpt lat="43.0413183" lon="13.13613"><ele>798.0</ele><time>2026-05-02T09:21:11.983Z</time></trkpt><trkpt lat="43.0413517" lon="13.1359617"><ele>798.0</ele><time>2026-05-02T09:21:12.982Z</time></trkpt><trkpt lat="43.041425" lon="13.135805"><ele>799.0</ele><time>2026-05-02T09:21:13.983Z</time></trkpt><trkpt lat="43.0415217" lon="13.135665"><ele>800.0</ele><time>2026-05-02T09:21:14.983Z</time></trkpt><trkpt lat="43.0416133" lon="13.1355133"><ele>801.0</ele><time>2026-05-02T09:21:15.981Z</time></trkpt><trkpt lat="43.0416717" lon="13.13533"><ele>802.0</ele><time>2026-05-02T09:21:16.982Z</time></trkpt><trkpt lat="43.041705" lon="13.1351217"><ele>804.6666666666666</ele><time>2026-05-02T09:21:17.982Z</time></trkpt><trkpt lat="43.0417267" lon="13.1349067"><ele>807.3333333333333</ele><time>2026-05-02T09:21:18.981Z</time></trkpt><trkpt lat="43.041745" lon="13.1347033"><ele>810.0</ele><time>2026-05-02T09:21:19.981Z</time></trkpt><trkpt lat="43.0417783" lon="13.1345133"><ele>810.5</ele><time>2026-05-02T09:21:20.981Z</time></trkpt><trkpt lat="43.0418267" lon="13.13433"><ele>811.0</ele><time>2026-05-02T09:21:21.982Z</time></trkpt><trkpt lat="43.041885" lon="13.1341567"><ele>811.5</ele><time>2026-05-02T09:21:22.982Z</time></trkpt><trkpt lat="43.0419467" lon="13.133995"><ele>812.0</ele><time>2026-05-02T09:21:23.982Z</time></trkpt><trkpt lat="43.0420117" lon="13.13386"><ele>813.25</ele><time>2026-05-02T09:21:24.981Z</time></trkpt><trkpt lat="43.042095" lon="13.1337517"><ele>814.5</ele><time>2026-05-02T09:21:25.981Z</time></trkpt><trkpt lat="43.0421883" lon="13.1336483"><ele>815.75</ele><time>2026-05-02T09:21:26.982Z</time></trkpt><trkpt lat="43.04228" lon="13.1335317"><ele>817.0</ele><time>2026-05-02T09:21:27.981Z</time></trkpt><trkpt lat="43.0423617" lon="13.1333867"><ele>817.75</ele><time>2026-05-02T09:21:28.981Z</time></trkpt><trkpt lat="43.0424217" lon="13.13322"><ele>818.5</ele><time>2026-05-02T09:21:29.982Z</time></trkpt><trkpt lat="43.0424583" lon="13.1330467"><ele>819.25</ele><time>2026-05-02T09:21:30.982Z</time></trkpt><trkpt lat="43.04247" lon="13.1328783"><ele>820.0</ele><time>2026-05-02T09:21:31.981Z</time></trkpt><trkpt lat="43.0424517" lon="13.1327267"><ele>820.0</ele><time>2026-05-02T09:21:32.982Z</time></trkpt><trkpt lat="43.0424" lon="13.1326"><ele>820.0</ele><time>2026-05-02T09:21:33.982Z</time></trkpt><trkpt lat="43.0423183" lon="13.132485"><ele>820.0</ele><time>2026-05-02T09:21:34.982Z</time></trkpt><trkpt lat="43.0422283" lon="13.1323733"><ele>820.0</ele><time>2026-05-02T09:21:35.981Z</time></trkpt><trkpt lat="43.0421567" lon="13.1322433"><ele>822.0</ele><time>2026-05-02T09:21:36.981Z</time></trkpt><trkpt lat="43.0421067" lon="13.1320833"><ele>824.0</ele><time>2026-05-02T09:21:37.982Z</time></trkpt><trkpt lat="43.0420817" lon="13.13189"><ele>826.0</ele><time>2026-05-02T09:21:38.981Z</time></trkpt><trkpt lat="43.04209" lon="13.131665"><ele>828.0</ele><time>2026-05-02T09:21:39.981Z</time></trkpt><trkpt lat="43.042105" lon="13.1314217"><ele>831.0</ele><time>2026-05-02T09:21:40.981Z</time></trkpt><trkpt lat="43.042115" lon="13.131185"><ele>834.0</ele><time>2026-05-02T09:21:41.981Z</time></trkpt><trkpt lat="43.0421083" lon="13.1309717"><ele>837.0</ele><time>2026-05-02T09:21:42.981Z</time></trkpt><trkpt lat="43.0420817" lon="13.1307933"><ele>839.5</ele><time>2026-05-02T09:21:43.982Z</time></trkpt><trkpt lat="43.0420183" lon="13.1306517"><ele>842.0</ele><time>2026-05-02T09:21:44.982Z</time></trkpt><trkpt lat="43.0419333" lon="13.1305567"><ele>844.5</ele><time>2026-05-02T09:21:45.982Z</time></trkpt><trkpt lat="43.041825" lon="13.13053"><ele>847.0</ele><time>2026-05-02T09:21:46.982Z</time></trkpt><trkpt lat="43.04172" lon="13.1305717"><ele>847.8</ele><time>2026-05-02T09:21:47.981Z</time></trkpt><trkpt lat="43.041625" lon="13.13065"><ele>848.6</ele><time>2026-05-02T09:21:48.981Z</time></trkpt><trkpt lat="43.0415417" lon="13.1307233"><ele>849.4</ele><time>2026-05-02T09:21:49.981Z</time></trkpt><trkpt lat="43.0414433" lon="13.13078"><ele>850.1999999999999</ele><time>2026-05-02T09:21:50.981Z</time></trkpt><trkpt lat="43.0413317" lon="13.1308067"><ele>851.0</ele><time>2026-05-02T09:21:51.982Z</time></trkpt><trkpt lat="43.041215" lon="13.13081"><ele>850.25</ele><time>2026-05-02T09:21:52.982Z</time></trkpt><trkpt lat="43.0410933" lon="13.1308"><ele>849.5</ele><time>2026-05-02T09:21:53.983Z</time></trkpt><trkpt lat="43.0409717" lon="13.1307767"><ele>848.75</ele><time>2026-05-02T09:21:54.982Z</time></trkpt><trkpt lat="43.0408467" lon="13.1307417"><ele>848.0</ele><time>2026-05-02T09:21:55.981Z</time></trkpt><trkpt lat="43.0407183" lon="13.1307033"><ele>848.0</ele><time>2026-05-02T09:21:56.982Z</time></trkpt><trkpt lat="43.0405883" lon="13.1306717"><ele>848.0</ele><time>2026-05-02T09:21:57.982Z</time></trkpt><trkpt lat="43.04046" lon="13.130645"><ele>848.0</ele><time>2026-05-02T09:21:58.981Z</time></trkpt><trkpt lat="43.0403333" lon="13.1306233"><ele>848.0</ele><time>2026-05-02T09:21:59.982Z</time></trkpt><trkpt lat="43.040215" lon="13.13059"><ele>848.0</ele><time>2026-05-02T09:22:00.981Z</time></trkpt><trkpt lat="43.0401133" lon="13.1305367"><ele>848.0</ele><time>2026-05-02T09:22:01.981Z</time></trkpt><trkpt lat="43.0400233" lon="13.1304667"><ele>848.0</ele><time>2026-05-02T09:22:02.983Z</time></trkpt><trkpt lat="43.039935" lon="13.1303783"><ele>848.0</ele><time>2026-05-02T09:22:03.982Z</time></trkpt><trkpt lat="43.0398467" lon="13.1302767"><ele>848.0</ele><time>2026-05-02T09:22:04.982Z</time></trkpt><trkpt lat="43.0397567" lon="13.1301633"><ele>848.25</ele><time>2026-05-02T09:22:05.981Z</time></trkpt><trkpt lat="43.03966" lon="13.130045"><ele>848.5</ele><time>2026-05-02T09:22:06.981Z</time></trkpt><trkpt lat="43.03956" lon="13.12992"><ele>848.75</ele><time>2026-05-02T09:22:07.981Z</time></trkpt><trkpt lat="43.0394533" lon="13.12979"><ele>849.0</ele><time>2026-05-02T09:22:08.982Z</time></trkpt><trkpt lat="43.03934" lon="13.1296533"><ele>849.0</ele><time>2026-05-02T09:22:09.981Z</time></trkpt><trkpt lat="43.0392233" lon="13.1295133"><ele>849.0</ele><time>2026-05-02T09:22:10.982Z</time></trkpt><trkpt lat="43.0391017" lon="13.1293633"><ele>849.0</ele><time>2026-05-02T09:22:11.982Z</time></trkpt><trkpt lat="43.0389733" lon="13.1292083"><ele>850.3333333333333</ele><time>2026-05-02T09:22:12.981Z</time></trkpt><trkpt lat="43.0388417" lon="13.1290483"><ele>851.6666666666666</ele><time>2026-05-02T09:22:13.982Z</time></trkpt><trkpt lat="43.0387083" lon="13.1288833"><ele>853.0</ele><time>2026-05-02T09:22:14.982Z</time></trkpt><trkpt lat="43.0385767" lon="13.128715"><ele>853.0</ele><time>2026-05-02T09:22:15.981Z</time></trkpt><trkpt lat="43.03845" lon="13.12856"><ele>853.0</ele><time>2026-05-02T09:22:16.981Z</time></trkpt><trkpt lat="43.0383333" lon="13.128415"><ele>853.0</ele><time>2026-05-02T09:22:17.982Z</time></trkpt><trkpt lat="43.038225" lon="13.1282783"><ele>854.25</ele><time>2026-05-02T09:22:18.982Z</time></trkpt><trkpt lat="43.0381267" lon="13.1281483"><ele>855.5</ele><time>2026-05-02T09:22:19.982Z</time></trkpt><trkpt lat="43.038035" lon="13.1280183"><ele>856.75</ele><time>2026-05-02T09:22:20.981Z</time></trkpt><trkpt lat="43.03795" lon="13.1278817"><ele>858.0</ele><time>2026-05-02T09:22:21.981Z</time></trkpt><trkpt lat="43.0378667" lon="13.1277367"><ele>858.0</ele><time>2026-05-02T09:22:22.982Z</time></trkpt><trkpt lat="43.037785" lon="13.1275933"><ele>858.0</ele><time>2026-05-02T09:22:23.981Z</time></trkpt><trkpt lat="43.0377" lon="13.12745"><ele>858.0</ele><time>2026-05-02T09:22:24.982Z</time></trkpt><trkpt lat="43.0376183" lon="13.1273117"><ele>858.0</ele><time>2026-05-02T09:22:25.982Z</time></trkpt><trkpt lat="43.03754" lon="13.1271883"><ele>858.0</ele><time>2026-05-02T09:22:26.982Z</time></trkpt><trkpt lat="43.03747" lon="13.127075"><ele>858.0</ele><time>2026-05-02T09:22:27.981Z</time></trkpt><trkpt lat="43.0374033" lon="13.1269633"><ele>858.0</ele><time>2026-05-02T09:22:28.982Z</time></trkpt><trkpt lat="43.0373317" lon="13.1268517"><ele>858.0</ele><time>2026-05-02T09:22:29.982Z</time></trkpt><trkpt lat="43.0372617" lon="13.1267383"><ele>858.0</ele><time>2026-05-02T09:22:30.982Z</time></trkpt><trkpt lat="43.037195" lon="13.126625"><ele>858.0</ele><time>2026-05-02T09:22:31.982Z</time></trkpt><trkpt lat="43.0371333" lon="13.126505"><ele>858.0</ele><time>2026-05-02T09:22:32.982Z</time></trkpt><trkpt lat="43.0370817" lon="13.1263783"><ele>858.0</ele><time>2026-05-02T09:22:33.982Z</time></trkpt><trkpt lat="43.03704" lon="13.126245"><ele>858.0</ele><time>2026-05-02T09:22:34.982Z</time></trkpt><trkpt lat="43.037005" lon="13.1261083"><ele>858.0</ele><time>2026-05-02T09:22:35.982Z</time></trkpt><trkpt lat="43.0369733" lon="13.1259717"><ele>858.0</ele><time>2026-05-02T09:22:36.981Z</time></trkpt><trkpt lat="43.0369433" lon="13.1258317"><ele>858.0</ele><time>2026-05-02T09:22:37.983Z</time></trkpt><trkpt lat="43.0369117" lon="13.1256883"><ele>858.0</ele><time>2026-05-02T09:22:38.982Z</time></trkpt><trkpt lat="43.0368817" lon="13.12554"><ele>858.0</ele><time>2026-05-02T09:22:39.981Z</time></trkpt><trkpt lat="43.0368433" lon="13.125395"><ele>858.0</ele><time>2026-05-02T09:22:40.982Z</time></trkpt><trkpt lat="43.036805" lon="13.1252567"><ele>857.5</ele><time>2026-05-02T09:22:41.981Z</time></trkpt><trkpt lat="43.036775" lon="13.1251117"><ele>857.0</ele><time>2026-05-02T09:22:42.982Z</time></trkpt><trkpt lat="43.0367617" lon="13.12496"><ele>856.5</ele><time>2026-05-02T09:22:43.982Z</time></trkpt><trkpt lat="43.0367683" lon="13.1247983"><ele>856.0</ele><time>2026-05-02T09:22:44.982Z</time></trkpt><trkpt lat="43.0367933" lon="13.1246367"><ele>856.0</ele><time>2026-05-02T09:22:45.983Z</time></trkpt><trkpt lat="43.0368267" lon="13.1244833"><ele>855.9999999999999</ele><time>2026-05-02T09:22:46.981Z</time></trkpt><trkpt lat="43.0368617" lon="13.1243467"><ele>855.9999999999999</ele><time>2026-05-02T09:22:47.982Z</time></trkpt><trkpt lat="43.0368933" lon="13.1242217"><ele>856.0</ele><time>2026-05-02T09:22:48.983Z</time></trkpt><trkpt lat="43.03692" lon="13.124105"><ele>856.0</ele><time>2026-05-02T09:22:49.982Z</time></trkpt><trkpt lat="43.036945" lon="13.1240017"><ele>856.0</ele><time>2026-05-02T09:22:50.983Z</time></trkpt><trkpt lat="43.0369617" lon="13.1239117"><ele>855.9999999999999</ele><time>2026-05-02T09:22:51.982Z</time></trkpt><trkpt lat="43.0369733" lon="13.1237767"><ele>855.9999999999999</ele><time>2026-05-02T09:22:53.983Z</time></trkpt><trkpt lat="43.0369417" lon="13.1236633"><ele>856.0</ele><time>2026-05-02T09:22:56.981Z</time></trkpt><trkpt lat="43.0368767" lon="13.1236083"><ele>856.0</ele><time>2026-05-02T09:22:58.981Z</time></trkpt><trkpt lat="43.0367667" lon="13.12352"><ele>856.0</ele><time>2026-05-02T09:23:00.981Z</time></trkpt><trkpt lat="43.0366967" lon="13.1234633"><ele>855.9999999999999</ele><time>2026-05-02T09:23:01.981Z</time></trkpt><trkpt lat="43.0366167" lon="13.1233933"><ele>855.9999999999999</ele><time>2026-05-02T09:23:02.982Z</time></trkpt><trkpt lat="43.03653" lon="13.1233117"><ele>856.0</ele><time>2026-05-02T09:23:03.981Z</time></trkpt><trkpt lat="43.0364367" lon="13.12322"><ele>856.0</ele><time>2026-05-02T09:23:04.982Z</time></trkpt><trkpt lat="43.0363383" lon="13.1231083"><ele>858.0</ele><time>2026-05-02T09:23:05.981Z</time></trkpt><trkpt lat="43.0362267" lon="13.1229767"><ele>860.0</ele><time>2026-05-02T09:23:06.983Z</time></trkpt><trkpt lat="43.0361083" lon="13.12283"><ele>862.0</ele><time>2026-05-02T09:23:07.981Z</time></trkpt><trkpt lat="43.0359883" lon="13.12268"><ele>862.0</ele><time>2026-05-02T09:23:08.982Z</time></trkpt><trkpt lat="43.0358633" lon="13.122525"><ele>862.0</ele><time>2026-05-02T09:23:09.982Z</time></trkpt><trkpt lat="43.0357417" lon="13.1223767"><ele>862.0</ele><time>2026-05-02T09:23:10.982Z</time></trkpt><trkpt lat="43.0356383" lon="13.1222433"><ele>863.2</ele><time>2026-05-02T09:23:11.981Z</time></trkpt><trkpt lat="43.035545" lon="13.1221267"><ele>864.4000000000001</ele><time>2026-05-02T09:23:12.982Z</time></trkpt><trkpt lat="43.0354633" lon="13.1220217"><ele>865.5999999999999</ele><time>2026-05-02T09:23:13.981Z</time></trkpt><trkpt lat="43.03539" lon="13.1219417"><ele>866.8</ele><time>2026-05-02T09:23:14.982Z</time></trkpt><trkpt lat="43.0353183" lon="13.121885"><ele>868.0</ele><time>2026-05-02T09:23:15.981Z</time></trkpt><trkpt lat="43.0352383" lon="13.1218367"><ele>868.0</ele><time>2026-05-02T09:23:16.983Z</time></trkpt><trkpt lat="43.0351467" lon="13.1217983"><ele>868.0</ele><time>2026-05-02T09:23:17.982Z</time></trkpt><trkpt lat="43.03505" lon="13.121765"><ele>868.0</ele><time>2026-05-02T09:23:18.983Z</time></trkpt><trkpt lat="43.0349467" lon="13.1217333"><ele>868.0</ele><time>2026-05-02T09:23:19.983Z</time></trkpt><trkpt lat="43.0348483" lon="13.121695"><ele>868.0</ele><time>2026-05-02T09:23:20.983Z</time></trkpt><trkpt lat="43.0347533" lon="13.12165"><ele>869.4</ele><time>2026-05-02T09:23:21.983Z</time></trkpt><trkpt lat="43.0346583" lon="13.1216"><ele>870.8</ele><time>2026-05-02T09:23:22.982Z</time></trkpt><trkpt lat="43.0345583" lon="13.1215483"><ele>872.2</ele><time>2026-05-02T09:23:23.982Z</time></trkpt><trkpt lat="43.0344617" lon="13.1214983"><ele>873.6</ele><time>2026-05-02T09:23:24.983Z</time></trkpt><trkpt lat="43.034375" lon="13.1214467"><ele>875.0</ele><time>2026-05-02T09:23:25.982Z</time></trkpt><trkpt lat="43.034295" lon="13.1213683"><ele>875.2</ele><time>2026-05-02T09:23:26.983Z</time></trkpt><trkpt lat="43.03421" lon="13.1212883"><ele>875.4</ele><time>2026-05-02T09:23:27.983Z</time></trkpt><trkpt lat="43.0341267" lon="13.12121"><ele>875.5999999999999</ele><time>2026-05-02T09:23:28.982Z</time></trkpt><trkpt lat="43.0340383" lon="13.1211417"><ele>875.8</ele><time>2026-05-02T09:23:29.983Z</time></trkpt><trkpt lat="43.03394" lon="13.121075"><ele>876.0</ele><time>2026-05-02T09:23:30.982Z</time></trkpt><trkpt lat="43.033835" lon="13.121015"><ele>877.4</ele><time>2026-05-02T09:23:31.981Z</time></trkpt><trkpt lat="43.03373" lon="13.1209633"><ele>878.8</ele><time>2026-05-02T09:23:32.982Z</time></trkpt><trkpt lat="43.0336317" lon="13.1209183"><ele>880.1999999999999</ele><time>2026-05-02T09:23:33.982Z</time></trkpt><trkpt lat="43.0335333" lon="13.1208867"><ele>881.5999999999999</ele><time>2026-05-02T09:23:34.981Z</time></trkpt><trkpt lat="43.03342" lon="13.1208717"><ele>883.0</ele><time>2026-05-02T09:23:35.982Z</time></trkpt><trkpt lat="43.0332917" lon="13.1208767"><ele>884.5999999999999</ele><time>2026-05-02T09:23:36.982Z</time></trkpt><trkpt lat="43.03317" lon="13.1208867"><ele>886.1999999999999</ele><time>2026-05-02T09:23:37.982Z</time></trkpt><trkpt lat="43.03307" lon="13.120905"><ele>887.8</ele><time>2026-05-02T09:23:38.983Z</time></trkpt><trkpt lat="43.0329767" lon="13.1209567"><ele>889.4</ele><time>2026-05-02T09:23:39.982Z</time></trkpt><trkpt lat="43.0328783" lon="13.1210333"><ele>891.0</ele><time>2026-05-02T09:23:40.983Z</time></trkpt><trkpt lat="43.0327667" lon="13.1211083"><ele>891.0</ele><time>2026-05-02T09:23:41.982Z</time></trkpt><trkpt lat="43.03264" lon="13.1211633"><ele>891.0</ele><time>2026-05-02T09:23:42.982Z</time></trkpt><trkpt lat="43.0325083" lon="13.1212133"><ele>891.0</ele><time>2026-05-02T09:23:43.983Z</time></trkpt><trkpt lat="43.0323883" lon="13.1212633"><ele>891.0</ele><time>2026-05-02T09:23:44.982Z</time></trkpt><trkpt lat="43.0322767" lon="13.1213267"><ele>893.25</ele><time>2026-05-02T09:23:45.982Z</time></trkpt><trkpt lat="43.0321733" lon="13.1214033"><ele>895.5</ele><time>2026-05-02T09:23:46.982Z</time></trkpt><trkpt lat="43.0320733" lon="13.1214917"><ele>897.75</ele><time>2026-05-02T09:23:47.983Z</time></trkpt><trkpt lat="43.0319683" lon="13.1215733"><ele>900.0</ele><time>2026-05-02T09:23:48.982Z</time></trkpt><trkpt lat="43.0318567" lon="13.1216467"><ele>900.5</ele><time>2026-05-02T09:23:49.983Z</time></trkpt><trkpt lat="43.03175" lon="13.1217083"><ele>901.0</ele><time>2026-05-02T09:23:50.983Z</time></trkpt><trkpt lat="43.0316533" lon="13.1217883"><ele>901.5</ele><time>2026-05-02T09:23:51.982Z</time></trkpt><trkpt lat="43.0315667" lon="13.1218917"><ele>902.0</ele><time>2026-05-02T09:23:52.983Z</time></trkpt><trkpt lat="43.031485" lon="13.122"><ele>905.2</ele><time>2026-05-02T09:23:53.982Z</time></trkpt><trkpt lat="43.0313983" lon="13.1221033"><ele>908.4000000000001</ele><time>2026-05-02T09:23:54.983Z</time></trkpt><trkpt lat="43.0313083" lon="13.1221917"><ele>911.5999999999999</ele><time>2026-05-02T09:23:55.981Z</time></trkpt><trkpt lat="43.0312117" lon="13.122265"><ele>914.8</ele><time>2026-05-02T09:23:56.982Z</time></trkpt><trkpt lat="43.0311083" lon="13.1223283"><ele>918.0</ele><time>2026-05-02T09:23:57.981Z</time></trkpt><trkpt lat="43.0310033" lon="13.12238"><ele>919.0</ele><time>2026-05-02T09:23:58.983Z</time></trkpt><trkpt lat="43.0308983" lon="13.1224217"><ele>920.0</ele><time>2026-05-02T09:23:59.981Z</time></trkpt><trkpt lat="43.03079" lon="13.122455"><ele>921.0</ele><time>2026-05-02T09:24:00.981Z</time></trkpt><trkpt lat="43.0306833" lon="13.1224967"><ele>922.0</ele><time>2026-05-02T09:24:01.981Z</time></trkpt><trkpt lat="43.030585" lon="13.1225517"><ele>923.0</ele><time>2026-05-02T09:24:02.983Z</time></trkpt><trkpt lat="43.0304917" lon="13.1226267"><ele>926.5</ele><time>2026-05-02T09:24:03.982Z</time></trkpt><trkpt lat="43.0303983" lon="13.12272"><ele>930.0</ele><time>2026-05-02T09:24:04.982Z</time></trkpt><trkpt lat="43.0303017" lon="13.1228183"><ele>933.5</ele><time>2026-05-02T09:24:05.986Z</time></trkpt><trkpt lat="43.0302083" lon="13.1229083"><ele>937.0</ele><time>2026-05-02T09:24:06.981Z</time></trkpt><trkpt lat="43.0301217" lon="13.1229933"><ele>936.9999999999999</ele><time>2026-05-02T09:24:07.983Z</time></trkpt><trkpt lat="43.0300417" lon="13.1230667"><ele>937.0</ele><time>2026-05-02T09:24:08.982Z</time></trkpt><trkpt lat="43.0299667" lon="13.1231217"><ele>937.0</ele><time>2026-05-02T09:24:09.982Z</time></trkpt><trkpt lat="43.0298917" lon="13.123155"><ele>937.0</ele><time>2026-05-02T09:24:10.981Z</time></trkpt><trkpt lat="43.029815" lon="13.1231667"><ele>936.9999999999999</ele><time>2026-05-02T09:24:11.982Z</time></trkpt><trkpt lat="43.0297317" lon="13.1231783"><ele>937.0</ele><time>2026-05-02T09:24:12.982Z</time></trkpt><trkpt lat="43.0296467" lon="13.1231867"><ele>940.2</ele><time>2026-05-02T09:24:13.982Z</time></trkpt><trkpt lat="43.0295633" lon="13.1232033"><ele>943.4000000000001</ele><time>2026-05-02T09:24:14.982Z</time></trkpt><trkpt lat="43.0294867" lon="13.1232333"><ele>946.5999999999999</ele><time>2026-05-02T09:24:15.981Z</time></trkpt><trkpt lat="43.0294083" lon="13.123285"><ele>949.8</ele><time>2026-05-02T09:24:16.982Z</time></trkpt><trkpt lat="43.029325" lon="13.123355"><ele>953.0</ele><time>2026-05-02T09:24:17.982Z</time></trkpt><trkpt lat="43.029245" lon="13.1234433"><ele>953.0</ele><time>2026-05-02T09:24:18.982Z</time></trkpt><trkpt lat="43.0291617" lon="13.1235583"><ele>953.0</ele><time>2026-05-02T09:24:19.983Z</time></trkpt><trkpt lat="43.0290783" lon="13.1236817"><ele>953.0</ele><time>2026-05-02T09:24:20.986Z</time></trkpt><trkpt lat="43.0289967" lon="13.12381"><ele>953.0</ele><time>2026-05-02T09:24:21.982Z</time></trkpt><trkpt lat="43.0289217" lon="13.123945"><ele>958.25</ele><time>2026-05-02T09:24:22.983Z</time></trkpt><trkpt lat="43.0288467" lon="13.124095"><ele>963.5</ele><time>2026-05-02T09:24:23.983Z</time></trkpt><trkpt lat="43.0287733" lon="13.1242517"><ele>968.75</ele><time>2026-05-02T09:24:24.983Z</time></trkpt><trkpt lat="43.0287033" lon="13.1244133"><ele>974.0</ele><time>2026-05-02T09:24:25.983Z</time></trkpt><trkpt lat="43.0286367" lon="13.12456"><ele>974.0000000000001</ele><time>2026-05-02T09:24:26.983Z</time></trkpt><trkpt lat="43.0285717" lon="13.1246883"><ele>974.0</ele><time>2026-05-02T09:24:27.982Z</time></trkpt><trkpt lat="43.0285167" lon="13.1248"><ele>974.0</ele><time>2026-05-02T09:24:28.982Z</time></trkpt><trkpt lat="43.0284767" lon="13.124895"><ele>974.0</ele><time>2026-05-02T09:24:29.982Z</time></trkpt><trkpt lat="43.0284467" lon="13.1249783"><ele>974.0000000000001</ele><time>2026-05-02T09:24:30.983Z</time></trkpt><trkpt lat="43.0284167" lon="13.1250567"><ele>974.0</ele><time>2026-05-02T09:24:31.982Z</time></trkpt><trkpt lat="43.02838" lon="13.1251317"><ele>978.6666666666667</ele><time>2026-05-02T09:24:32.983Z</time></trkpt><trkpt lat="43.0282967" lon="13.1252617"><ele>983.3333333333334</ele><time>2026-05-02T09:24:34.982Z</time></trkpt><trkpt lat="43.02825" lon="13.12532"><ele>988.0</ele><time>2026-05-02T09:24:35.982Z</time></trkpt><trkpt lat="43.0281583" lon="13.1254383"><ele>992.6666666666667</ele><time>2026-05-02T09:24:37.982Z</time></trkpt><trkpt lat="43.0281117" lon="13.1255033"><ele>997.3333333333334</ele><time>2026-05-02T09:24:38.983Z</time></trkpt><trkpt lat="43.0280683" lon="13.1255717"><ele>1002.0</ele><time>2026-05-02T09:24:39.981Z</time></trkpt><trkpt lat="43.028025" lon="13.1256367"><ele>1002.0</ele><time>2026-05-02T09:24:40.982Z</time></trkpt><trkpt lat="43.02798" lon="13.1257033"><ele>1002.0</ele><time>2026-05-02T09:24:41.982Z</time></trkpt><trkpt lat="43.02793" lon="13.12577"><ele>1002.0</ele><time>2026-05-02T09:24:42.983Z</time></trkpt><trkpt lat="43.0278767" lon="13.1258333"><ele>1002.0</ele><time>2026-05-02T09:24:43.983Z</time></trkpt><trkpt lat="43.027825" lon="13.1258933"><ele>1002.0</ele><time>2026-05-02T09:24:44.983Z</time></trkpt><trkpt lat="43.0277683" lon="13.1259517"><ele>1002.0</ele><time>2026-05-02T09:24:45.982Z</time></trkpt><trkpt lat="43.0277133" lon="13.1260067"><ele>1002.0</ele><time>2026-05-02T09:24:46.983Z</time></trkpt><trkpt lat="43.027655" lon="13.1260633"><ele>1001.3333333333334</ele><time>2026-05-02T09:24:47.982Z</time></trkpt><trkpt lat="43.0275967" lon="13.1261183"><ele>1000.6666666666667</ele><time>2026-05-02T09:24:48.983Z</time></trkpt><trkpt lat="43.027535" lon="13.1261733"><ele>1000.0</ele><time>2026-05-02T09:24:49.983Z</time></trkpt><trkpt lat="43.0274717" lon="13.1262283"><ele>999.3333333333334</ele><time>2026-05-02T09:24:50.983Z</time></trkpt><trkpt lat="43.0274033" lon="13.1262883"><ele>998.6666666666667</ele><time>2026-05-02T09:24:51.982Z</time></trkpt><trkpt lat="43.02733" lon="13.1263533"><ele>998.0</ele><time>2026-05-02T09:24:52.983Z</time></trkpt><trkpt lat="43.0272567" lon="13.12642"><ele>999.5000000000001</ele><time>2026-05-02T09:24:53.983Z</time></trkpt><trkpt lat="43.02718" lon="13.1264767"><ele>1001.0</ele><time>2026-05-02T09:24:54.983Z</time></trkpt><trkpt lat="43.0270983" lon="13.1265167"><ele>1002.5</ele><time>2026-05-02T09:24:55.982Z</time></trkpt><trkpt lat="43.027015" lon="13.1265383"><ele>1004.0</ele><time>2026-05-02T09:24:56.982Z</time></trkpt><trkpt lat="43.0269317" lon="13.1265517"><ele>1005.5000000000001</ele><time>2026-05-02T09:24:57.982Z</time></trkpt><trkpt lat="43.026845" lon="13.1265683"><ele>1007.0</ele><time>2026-05-02T09:24:58.981Z</time></trkpt><trkpt lat="43.02675" lon="13.1265867"><ele>1007.0</ele><time>2026-05-02T09:24:59.982Z</time></trkpt><trkpt lat="43.0266483" lon="13.1266033"><ele>1007.0</ele><time>2026-05-02T09:25:00.982Z</time></trkpt><trkpt lat="43.0265467" lon="13.12662"><ele>1007.0</ele><time>2026-05-02T09:25:01.982Z</time></trkpt><trkpt lat="43.0264367" lon="13.126635"><ele>1007.0</ele><time>2026-05-02T09:25:02.981Z</time></trkpt><trkpt lat="43.0263267" lon="13.1266467"><ele>1007.0</ele><time>2026-05-02T09:25:03.981Z</time></trkpt><trkpt lat="43.026215" lon="13.126655"><ele>1010.75</ele><time>2026-05-02T09:25:04.981Z</time></trkpt><trkpt lat="43.026105" lon="13.1266567"><ele>1014.5</ele><time>2026-05-02T09:25:05.981Z</time></trkpt><trkpt lat="43.0259933" lon="13.1266533"><ele>1018.25</ele><time>2026-05-02T09:25:06.982Z</time></trkpt><trkpt lat="43.0258817" lon="13.1266383"><ele>1022.0</ele><time>2026-05-02T09:25:07.982Z</time></trkpt><trkpt lat="43.025765" lon="13.12661"><ele>1025.75</ele><time>2026-05-02T09:25:08.981Z</time></trkpt><trkpt lat="43.0256483" lon="13.12657"><ele>1029.5</ele><time>2026-05-02T09:25:09.981Z</time></trkpt><trkpt lat="43.025525" lon="13.126525"><ele>1033.25</ele><time>2026-05-02T09:25:10.981Z</time></trkpt><trkpt lat="43.0253983" lon="13.1264733"><ele>1037.0</ele><time>2026-05-02T09:25:11.982Z</time></trkpt><trkpt lat="43.0252717" lon="13.12642"><ele>1039.25</ele><time>2026-05-02T09:25:12.981Z</time></trkpt><trkpt lat="43.0251433" lon="13.1263617"><ele>1041.5</ele><time>2026-05-02T09:25:13.981Z</time></trkpt><trkpt lat="43.025025" lon="13.126305"><ele>1043.75</ele><time>2026-05-02T09:25:14.982Z</time></trkpt><trkpt lat="43.0249233" lon="13.1262517"><ele>1046.0</ele><time>2026-05-02T09:25:15.981Z</time></trkpt><trkpt lat="43.0248383" lon="13.12621"><ele>1049.3333333333335</ele><time>2026-05-02T09:25:16.981Z</time></trkpt><trkpt lat="43.0247617" lon="13.1261883"><ele>1052.6666666666667</ele><time>2026-05-02T09:25:17.982Z</time></trkpt><trkpt lat="43.024685" lon="13.1261933"><ele>1056.0</ele><time>2026-05-02T09:25:18.982Z</time></trkpt><trkpt lat="43.0246133" lon="13.12622"><ele>1059.3333333333333</ele><time>2026-05-02T09:25:19.981Z</time></trkpt><trkpt lat="43.0245483" lon="13.1262667"><ele>1062.6666666666665</ele><time>2026-05-02T09:25:20.985Z</time></trkpt><trkpt lat="43.0245017" lon="13.1263533"><ele>1066.0</ele><time>2026-05-02T09:25:21.981Z</time></trkpt><trkpt lat="43.02448" lon="13.1265"><ele>1064.5</ele><time>2026-05-02T09:25:22.982Z</time></trkpt><trkpt lat="43.0244633" lon="13.1266567"><ele>1063.0</ele><time>2026-05-02T09:25:23.982Z</time></trkpt><trkpt lat="43.0244433" lon="13.1268283"><ele>1061.5</ele><time>2026-05-02T09:25:24.981Z</time></trkpt><trkpt lat="43.0244083" lon="13.1269967"><ele>1060.0</ele><time>2026-05-02T09:25:25.982Z</time></trkpt><trkpt lat="43.024355" lon="13.1271533"><ele>1060.0</ele><time>2026-05-02T09:25:26.981Z</time></trkpt><trkpt lat="43.02429" lon="13.1273033"><ele>1060.0</ele><time>2026-05-02T09:25:27.981Z</time></trkpt><trkpt lat="43.0242183" lon="13.1274567"><ele>1060.0</ele><time>2026-05-02T09:25:28.982Z</time></trkpt><trkpt lat="43.0241433" lon="13.1276167"><ele>1060.0</ele><time>2026-05-02T09:25:29.981Z</time></trkpt><trkpt lat="43.0240717" lon="13.12778"><ele>1065.75</ele><time>2026-05-02T09:25:30.982Z</time></trkpt><trkpt lat="43.0240083" lon="13.12793"><ele>1071.5</ele><time>2026-05-02T09:25:31.983Z</time></trkpt><trkpt lat="43.0239483" lon="13.1280683"><ele>1077.25</ele><time>2026-05-02T09:25:32.981Z</time></trkpt><trkpt lat="43.0238817" lon="13.1282"><ele>1083.0</ele><time>2026-05-02T09:25:33.981Z</time></trkpt><trkpt lat="43.0238" lon="13.12833"><ele>1083.0</ele><time>2026-05-02T09:25:34.982Z</time></trkpt><trkpt lat="43.0237067" lon="13.1284533"><ele>1083.0</ele><time>2026-05-02T09:25:35.981Z</time></trkpt><trkpt lat="43.0236033" lon="13.1285683"><ele>1083.0</ele><time>2026-05-02T09:25:36.982Z</time></trkpt><trkpt lat="43.0234983" lon="13.1286683"><ele>1083.0</ele><time>2026-05-02T09:25:37.981Z</time></trkpt><trkpt lat="43.0234" lon="13.1287533"><ele>1088.75</ele><time>2026-05-02T09:25:38.981Z</time></trkpt><trkpt lat="43.0233017" lon="13.12883"><ele>1094.5</ele><time>2026-05-02T09:25:39.981Z</time></trkpt><trkpt lat="43.0231967" lon="13.12889"><ele>1100.25</ele><time>2026-05-02T09:25:40.981Z</time></trkpt><trkpt lat="43.0230867" lon="13.1289483"><ele>1106.0</ele><time>2026-05-02T09:25:41.982Z</time></trkpt><trkpt lat="43.0229767" lon="13.12901"><ele>1104.75</ele><time>2026-05-02T09:25:42.981Z</time></trkpt><trkpt lat="43.0228617" lon="13.129085"><ele>1103.5</ele><time>2026-05-02T09:25:43.981Z</time></trkpt><trkpt lat="43.02274" lon="13.1291717"><ele>1102.25</ele><time>2026-05-02T09:25:44.981Z</time></trkpt><trkpt lat="43.0226183" lon="13.1292667"><ele>1101.0</ele><time>2026-05-02T09:25:45.981Z</time></trkpt><trkpt lat="43.0224917" lon="13.129365"><ele>1106.75</ele><time>2026-05-02T09:25:46.981Z</time></trkpt><trkpt lat="43.0223683" lon="13.1294633"><ele>1112.5</ele><time>2026-05-02T09:25:47.982Z</time></trkpt><trkpt lat="43.0222483" lon="13.1295567"><ele>1118.25</ele><time>2026-05-02T09:25:48.982Z</time></trkpt><trkpt lat="43.0221383" lon="13.129655"><ele>1124.0</ele><time>2026-05-02T09:25:49.982Z</time></trkpt><trkpt lat="43.0220467" lon="13.1297633"><ele>1124.0</ele><time>2026-05-02T09:25:50.981Z</time></trkpt><trkpt lat="43.0219683" lon="13.12989"><ele>1124.0</ele><time>2026-05-02T09:25:51.982Z</time></trkpt><trkpt lat="43.0218933" lon="13.1300267"><ele>1124.0</ele><time>2026-05-02T09:25:52.982Z</time></trkpt><trkpt lat="43.0218133" lon="13.1301483"><ele>1124.0</ele><time>2026-05-02T09:25:53.982Z</time></trkpt><trkpt lat="43.0217233" lon="13.1302617"><ele>1128.25</ele><time>2026-05-02T09:25:54.982Z</time></trkpt><trkpt lat="43.02163" lon="13.1303767"><ele>1132.5</ele><time>2026-05-02T09:25:55.981Z</time></trkpt><trkpt lat="43.02153" lon="13.130495"><ele>1136.75</ele><time>2026-05-02T09:25:56.982Z</time></trkpt><trkpt lat="43.0214217" lon="13.1306117"><ele>1141.0</ele><time>2026-05-02T09:25:57.982Z</time></trkpt><trkpt lat="43.0213117" lon="13.1307167"><ele>1139.25</ele><time>2026-05-02T09:25:58.982Z</time></trkpt><trkpt lat="43.0212" lon="13.130815"><ele>1137.5</ele><time>2026-05-02T09:25:59.981Z</time></trkpt><trkpt lat="43.0210917" lon="13.1309"><ele>1135.75</ele><time>2026-05-02T09:26:00.981Z</time></trkpt><trkpt lat="43.0209867" lon="13.130975"><ele>1134.0</ele><time>2026-05-02T09:26:01.981Z</time></trkpt><trkpt lat="43.0208883" lon="13.131035"><ele>1137.0</ele><time>2026-05-02T09:26:02.981Z</time></trkpt><trkpt lat="43.0207883" lon="13.1310767"><ele>1140.0</ele><time>2026-05-02T09:26:03.981Z</time></trkpt><trkpt lat="43.0206833" lon="13.1311067"><ele>1143.0</ele><time>2026-05-02T09:26:04.982Z</time></trkpt><trkpt lat="43.0205767" lon="13.1311283"><ele>1146.0</ele><time>2026-05-02T09:26:05.981Z</time></trkpt><trkpt lat="43.02047" lon="13.1311367"><ele>1149.0</ele><time>2026-05-02T09:26:06.982Z</time></trkpt><trkpt lat="43.02036" lon="13.13114"><ele>1149.0</ele><time>2026-05-02T09:26:07.981Z</time></trkpt><trkpt lat="43.0202533" lon="13.1311417"><ele>1149.0</ele><time>2026-05-02T09:26:08.982Z</time></trkpt><trkpt lat="43.0201483" lon="13.1311367"><ele>1149.0</ele><time>2026-05-02T09:26:09.982Z</time></trkpt><trkpt lat="43.020045" lon="13.1311333"><ele>1149.0</ele><time>2026-05-02T09:26:10.981Z</time></trkpt><trkpt lat="43.01995" lon="13.131145"><ele>1149.0</ele><time>2026-05-02T09:26:11.981Z</time></trkpt><trkpt lat="43.0198783" lon="13.1311817"><ele>1151.5714285714287</ele><time>2026-05-02T09:26:12.981Z</time></trkpt><trkpt lat="43.01982" lon="13.1312367"><ele>1154.142857142857</ele><time>2026-05-02T09:26:13.982Z</time></trkpt><trkpt lat="43.0197683" lon="13.13131"><ele>1156.7142857142858</ele><time>2026-05-02T09:26:14.981Z</time></trkpt><trkpt lat="43.01973" lon="13.1313917"><ele>1159.2857142857142</ele><time>2026-05-02T09:26:15.981Z</time></trkpt><trkpt lat="43.0196917" lon="13.1314717"><ele>1161.857142857143</ele><time>2026-05-02T09:26:16.982Z</time></trkpt><trkpt lat="43.0196483" lon="13.1315433"><ele>1164.4285714285716</ele><time>2026-05-02T09:26:17.982Z</time></trkpt><trkpt lat="43.019605" lon="13.1316083"><ele>1167.0</ele><time>2026-05-02T09:26:18.981Z</time></trkpt><trkpt lat="43.019555" lon="13.131675"><ele>1167.0</ele><time>2026-05-02T09:26:19.982Z</time></trkpt><trkpt lat="43.0194933" lon="13.1317433"><ele>1167.0</ele><time>2026-05-02T09:26:20.982Z</time></trkpt><trkpt lat="43.0194233" lon="13.1318117"><ele>1167.0</ele><time>2026-05-02T09:26:21.982Z</time></trkpt><trkpt lat="43.0193383" lon="13.13188"><ele>1167.0</ele><time>2026-05-02T09:26:22.981Z</time></trkpt><trkpt lat="43.0192433" lon="13.1319433"><ele>1167.0</ele><time>2026-05-02T09:26:23.981Z</time></trkpt><trkpt lat="43.01914" lon="13.1320033"><ele>1170.8</ele><time>2026-05-02T09:26:24.982Z</time></trkpt><trkpt lat="43.019035" lon="13.1320683"><ele>1174.6</ele><time>2026-05-02T09:26:25.981Z</time></trkpt><trkpt lat="43.0189333" lon="13.13213"><ele>1178.3999999999999</ele><time>2026-05-02T09:26:26.982Z</time></trkpt><trkpt lat="43.01884" lon="13.1321783"><ele>1182.2</ele><time>2026-05-02T09:26:27.981Z</time></trkpt><trkpt lat="43.0187583" lon="13.132205"><ele>1186.0</ele><time>2026-05-02T09:26:28.981Z</time></trkpt><trkpt lat="43.0186717" lon="13.1322117"><ele>1186.0</ele><time>2026-05-02T09:26:29.982Z</time></trkpt><trkpt lat="43.018585" lon="13.1322067"><ele>1186.0</ele><time>2026-05-02T09:26:30.982Z</time></trkpt><trkpt lat="43.018495" lon="13.1322083"><ele>1186.0</ele><time>2026-05-02T09:26:31.981Z</time></trkpt><trkpt lat="43.0184" lon="13.132235"><ele>1186.0</ele><time>2026-05-02T09:26:32.982Z</time></trkpt><trkpt lat="43.0183033" lon="13.1322833"><ele>1186.0</ele><time>2026-05-02T09:26:33.982Z</time></trkpt><trkpt lat="43.018195" lon="13.13235"><ele>1189.5</ele><time>2026-05-02T09:26:34.981Z</time></trkpt><trkpt lat="43.0180883" lon="13.132415"><ele>1193.0</ele><time>2026-05-02T09:26:35.981Z</time></trkpt><trkpt lat="43.0179867" lon="13.13249"><ele>1196.5</ele><time>2026-05-02T09:26:36.981Z</time></trkpt><trkpt lat="43.01789" lon="13.1325783"><ele>1200.0</ele><time>2026-05-02T09:26:37.981Z</time></trkpt><trkpt lat="43.0178" lon="13.1326717"><ele>1200.0</ele><time>2026-05-02T09:26:38.981Z</time></trkpt><trkpt lat="43.0177017" lon="13.1327483"><ele>1200.0</ele><time>2026-05-02T09:26:39.982Z</time></trkpt><trkpt lat="43.0176033" lon="13.1328183"><ele>1200.0</ele><time>2026-05-02T09:26:40.982Z</time></trkpt><trkpt lat="43.0175183" lon="13.1328967"><ele>1200.0</ele><time>2026-05-02T09:26:41.981Z</time></trkpt><trkpt lat="43.0174333" lon="13.1329983"><ele>1200.0</ele><time>2026-05-02T09:26:42.982Z</time></trkpt><trkpt lat="43.0173483" lon="13.1331183"><ele>1203.5</ele><time>2026-05-02T09:26:43.981Z</time></trkpt><trkpt lat="43.017265" lon="13.1332533"><ele>1207.0</ele><time>2026-05-02T09:26:44.981Z</time></trkpt><trkpt lat="43.01719" lon="13.13338"><ele>1210.5</ele><time>2026-05-02T09:26:45.981Z</time></trkpt><trkpt lat="43.01712" lon="13.133505"><ele>1214.0</ele><time>2026-05-02T09:26:46.983Z</time></trkpt><trkpt lat="43.0170533" lon="13.133635"><ele>1214.0</ele><time>2026-05-02T09:26:47.982Z</time></trkpt><trkpt lat="43.0169967" lon="13.13377"><ele>1214.0</ele><time>2026-05-02T09:26:48.981Z</time></trkpt><trkpt lat="43.0169483" lon="13.1339017"><ele>1214.0</ele><time>2026-05-02T09:26:49.982Z</time></trkpt><trkpt lat="43.0169067" lon="13.1340217"><ele>1214.0</ele><time>2026-05-02T09:26:50.982Z</time></trkpt><trkpt lat="43.0168683" lon="13.1341283"><ele>1214.0</ele><time>2026-05-02T09:26:51.981Z</time></trkpt><trkpt lat="43.0168267" lon="13.1342133"><ele>1214.0</ele><time>2026-05-02T09:26:52.982Z</time></trkpt><trkpt lat="43.0167283" lon="13.134295"><ele>1214.0</ele><time>2026-05-02T09:26:54.981Z</time></trkpt><trkpt lat="43.0165983" lon="13.13426"><ele>1214.0</ele><time>2026-05-02T09:26:56.982Z</time></trkpt><trkpt lat="43.0165283" lon="13.1342267"><ele>1214.0</ele><time>2026-05-02T09:26:57.981Z</time></trkpt><trkpt lat="43.0164433" lon="13.134205"><ele>1214.0</ele><time>2026-05-02T09:26:58.983Z</time></trkpt><trkpt lat="43.016345" lon="13.1341883"><ele>1216.75</ele><time>2026-05-02T09:26:59.981Z</time></trkpt><trkpt lat="43.0162433" lon="13.1341717"><ele>1219.5</ele><time>2026-05-02T09:27:00.981Z</time></trkpt><trkpt lat="43.0161333" lon="13.134135"><ele>1222.25</ele><time>2026-05-02T09:27:01.983Z</time></trkpt><trkpt lat="43.0160183" lon="13.1340883"><ele>1225.0</ele><time>2026-05-02T09:27:02.982Z</time></trkpt><trkpt lat="43.0159017" lon="13.1340333"><ele>1225.8</ele><time>2026-05-02T09:27:03.982Z</time></trkpt><trkpt lat="43.0157917" lon="13.1339833"><ele>1226.6</ele><time>2026-05-02T09:27:04.981Z</time></trkpt><trkpt lat="43.0156883" lon="13.1339483"><ele>1227.4</ele><time>2026-05-02T09:27:05.982Z</time></trkpt><trkpt lat="43.0155933" lon="13.1339183"><ele>1228.2</ele><time>2026-05-02T09:27:06.982Z</time></trkpt><trkpt lat="43.015505" lon="13.1338817"><ele>1229.0</ele><time>2026-05-02T09:27:07.982Z</time></trkpt><trkpt lat="43.0154233" lon="13.1338333"><ele>1229.0</ele><time>2026-05-02T09:27:08.982Z</time></trkpt><trkpt lat="43.0153417" lon="13.1337817"><ele>1229.0</ele><time>2026-05-02T09:27:09.982Z</time></trkpt><trkpt lat="43.015265" lon="13.1337333"><ele>1229.0</ele><time>2026-05-02T09:27:10.982Z</time></trkpt><trkpt lat="43.0151867" lon="13.1336967"><ele>1229.0</ele><time>2026-05-02T09:27:11.981Z</time></trkpt><trkpt lat="43.0151083" lon="13.1336783"><ele>1229.0</ele><time>2026-05-02T09:27:12.982Z</time></trkpt><trkpt lat="43.0150267" lon="13.1336783"><ele>1229.0</ele><time>2026-05-02T09:27:13.981Z</time></trkpt><trkpt lat="43.0149467" lon="13.1336917"><ele>1230.3333333333335</ele><time>2026-05-02T09:27:14.983Z</time></trkpt><trkpt lat="43.0148717" lon="13.1337233"><ele>1231.6666666666667</ele><time>2026-05-02T09:27:15.981Z</time></trkpt><trkpt lat="43.014805" lon="13.1337717"><ele>1233.0</ele><time>2026-05-02T09:27:16.981Z</time></trkpt><trkpt lat="43.0147383" lon="13.133815"><ele>1234.3333333333333</ele><time>2026-05-02T09:27:17.982Z</time></trkpt><trkpt lat="43.0146717" lon="13.1338533"><ele>1235.6666666666665</ele><time>2026-05-02T09:27:18.982Z</time></trkpt><trkpt lat="43.0145967" lon="13.133885"><ele>1237.0</ele><time>2026-05-02T09:27:19.983Z</time></trkpt><trkpt lat="43.0145217" lon="13.133915"><ele>1237.0</ele><time>2026-05-02T09:27:20.982Z</time></trkpt><trkpt lat="43.01444" lon="13.1339467"><ele>1237.0</ele><time>2026-05-02T09:27:21.982Z</time></trkpt><trkpt lat="43.0143433" lon="13.1339783"><ele>1237.0</ele><time>2026-05-02T09:27:22.983Z</time></trkpt><trkpt lat="43.01424" lon="13.134005"><ele>1237.0</ele><time>2026-05-02T09:27:23.982Z</time></trkpt><trkpt lat="43.0141333" lon="13.1340283"><ele>1237.0</ele><time>2026-05-02T09:27:24.982Z</time></trkpt><trkpt lat="43.0140267" lon="13.1340417"><ele>1239.4</ele><time>2026-05-02T09:27:25.982Z</time></trkpt><trkpt lat="43.0139183" lon="13.134045"><ele>1241.8000000000002</ele><time>2026-05-02T09:27:26.983Z</time></trkpt><trkpt lat="43.0138117" lon="13.13405"><ele>1244.2</ele><time>2026-05-02T09:27:27.982Z</time></trkpt><trkpt lat="43.013705" lon="13.1340617"><ele>1246.6000000000001</ele><time>2026-05-02T09:27:28.981Z</time></trkpt><trkpt lat="43.013595" lon="13.1340883"><ele>1249.0</ele><time>2026-05-02T09:27:29.983Z</time></trkpt><trkpt lat="43.0134817" lon="13.1341233"><ele>1251.25</ele><time>2026-05-02T09:27:30.981Z</time></trkpt><trkpt lat="43.0133667" lon="13.1341633"><ele>1253.5</ele><time>2026-05-02T09:27:31.983Z</time></trkpt><trkpt lat="43.0132483" lon="13.1342117"><ele>1255.75</ele><time>2026-05-02T09:27:32.982Z</time></trkpt><trkpt lat="43.0131267" lon="13.1342567"><ele>1258.0</ele><time>2026-05-02T09:27:33.982Z</time></trkpt><trkpt lat="43.0130083" lon="13.13429"><ele>1260.2</ele><time>2026-05-02T09:27:34.982Z</time></trkpt><trkpt lat="43.0129017" lon="13.1343183"><ele>1262.4</ele><time>2026-05-02T09:27:35.983Z</time></trkpt><trkpt lat="43.0128033" lon="13.134355"><ele>1264.6000000000001</ele><time>2026-05-02T09:27:36.982Z</time></trkpt><trkpt lat="43.0127033" lon="13.134415"><ele>1266.8</ele><time>2026-05-02T09:27:37.982Z</time></trkpt><trkpt lat="43.0126033" lon="13.1344883"><ele>1269.0</ele><time>2026-05-02T09:27:38.982Z</time></trkpt><trkpt lat="43.0124983" lon="13.13457"><ele>1271.2</ele><time>2026-05-02T09:27:39.983Z</time></trkpt><trkpt lat="43.01239" lon="13.134655"><ele>1273.4</ele><time>2026-05-02T09:27:40.982Z</time></trkpt><trkpt lat="43.0122933" lon="13.13473"><ele>1275.6</ele><time>2026-05-02T09:27:41.981Z</time></trkpt><trkpt lat="43.0122067" lon="13.1347967"><ele>1277.8</ele><time>2026-05-02T09:27:42.981Z</time></trkpt><trkpt lat="43.012115" lon="13.13485"><ele>1280.0</ele><time>2026-05-02T09:27:43.981Z</time></trkpt><trkpt lat="43.0120167" lon="13.1348933"><ele>1282.75</ele><time>2026-05-02T09:27:44.982Z</time></trkpt><trkpt lat="43.0119083" lon="13.1349383"><ele>1285.5</ele><time>2026-05-02T09:27:45.983Z</time></trkpt><trkpt lat="43.0118017" lon="13.1349917"><ele>1288.25</ele><time>2026-05-02T09:27:46.982Z</time></trkpt><trkpt lat="43.0116933" lon="13.1350533"><ele>1291.0</ele><time>2026-05-02T09:27:47.981Z</time></trkpt><trkpt lat="43.0115867" lon="13.1351167"><ele>1295.75</ele><time>2026-05-02T09:27:48.981Z</time></trkpt><trkpt lat="43.0114833" lon="13.1351833"><ele>1300.5</ele><time>2026-05-02T09:27:49.982Z</time></trkpt><trkpt lat="43.01138" lon="13.1352517"><ele>1305.25</ele><time>2026-05-02T09:27:50.982Z</time></trkpt><trkpt lat="43.0112767" lon="13.1353183"><ele>1310.0</ele><time>2026-05-02T09:27:51.982Z</time></trkpt><trkpt lat="43.011175" lon="13.1353883"><ele>1310.0</ele><time>2026-05-02T09:27:52.983Z</time></trkpt><trkpt lat="43.0110733" lon="13.135465"><ele>1310.0</ele><time>2026-05-02T09:27:53.983Z</time></trkpt><trkpt lat="43.0109783" lon="13.13554"><ele>1310.0</ele><time>2026-05-02T09:27:54.982Z</time></trkpt><trkpt lat="43.0108883" lon="13.1356217"><ele>1310.0</ele><time>2026-05-02T09:27:55.984Z</time></trkpt><trkpt lat="43.0107967" lon="13.13572"><ele>1315.2</ele><time>2026-05-02T09:27:56.982Z</time></trkpt><trkpt lat="43.0107083" lon="13.1358183"><ele>1320.4</ele><time>2026-05-02T09:27:57.982Z</time></trkpt><trkpt lat="43.01063" lon="13.13591"><ele>1325.6</ele><time>2026-05-02T09:27:58.983Z</time></trkpt><trkpt lat="43.0105467" lon="13.1360033"><ele>1330.8</ele><time>2026-05-02T09:27:59.982Z</time></trkpt><trkpt lat="43.010455" lon="13.1360933"><ele>1336.0</ele><time>2026-05-02T09:28:00.982Z</time></trkpt><trkpt lat="43.010355" lon="13.1361783"><ele>1336.0</ele><time>2026-05-02T09:28:01.981Z</time></trkpt><trkpt lat="43.010255" lon="13.1362583"><ele>1336.0</ele><time>2026-05-02T09:28:02.983Z</time></trkpt><trkpt lat="43.0101533" lon="13.1363367"><ele>1336.0</ele><time>2026-05-02T09:28:03.981Z</time></trkpt><trkpt lat="43.0100433" lon="13.1364117"><ele>1336.0</ele><time>2026-05-02T09:28:04.981Z</time></trkpt><trkpt lat="43.0099317" lon="13.1364883"><ele>1341.75</ele><time>2026-05-02T09:28:05.981Z</time></trkpt><trkpt lat="43.0098217" lon="13.1365633"><ele>1347.5</ele><time>2026-05-02T09:28:06.981Z</time></trkpt><trkpt lat="43.0097133" lon="13.1366367"><ele>1353.25</ele><time>2026-05-02T09:28:07.982Z</time></trkpt><trkpt lat="43.009605" lon="13.1367083"><ele>1359.0</ele><time>2026-05-02T09:28:08.982Z</time></trkpt><trkpt lat="43.0094967" lon="13.1367783"><ele>1359.0</ele><time>2026-05-02T09:28:09.981Z</time></trkpt><trkpt lat="43.0093867" lon="13.1368567"><ele>1359.0</ele><time>2026-05-02T09:28:10.981Z</time></trkpt><trkpt lat="43.0092717" lon="13.1369383"><ele>1359.0</ele><time>2026-05-02T09:28:11.982Z</time></trkpt><trkpt lat="43.0091517" lon="13.13702"><ele>1359.0</ele><time>2026-05-02T09:28:12.983Z</time></trkpt><trkpt lat="43.0090383" lon="13.1371"><ele>1361.75</ele><time>2026-05-02T09:28:13.981Z</time></trkpt><trkpt lat="43.00893" lon="13.1371717"><ele>1364.5</ele><time>2026-05-02T09:28:14.983Z</time></trkpt><trkpt lat="43.00882" lon="13.1372383"><ele>1367.25</ele><time>2026-05-02T09:28:15.982Z</time></trkpt><trkpt lat="43.008705" lon="13.1372983"><ele>1370.0</ele><time>2026-05-02T09:28:16.981Z</time></trkpt><trkpt lat="43.0085967" lon="13.1373467"><ele>1370.5</ele><time>2026-05-02T09:28:17.981Z</time></trkpt><trkpt lat="43.0084883" lon="13.1373917"><ele>1371.0</ele><time>2026-05-02T09:28:18.981Z</time></trkpt><trkpt lat="43.0083867" lon="13.1374433"><ele>1371.5</ele><time>2026-05-02T09:28:19.983Z</time></trkpt><trkpt lat="43.008285" lon="13.137505"><ele>1372.0</ele><time>2026-05-02T09:28:20.982Z</time></trkpt><trkpt lat="43.00818" lon="13.137575"><ele>1373.0</ele><time>2026-05-02T09:28:21.983Z</time></trkpt><trkpt lat="43.00807" lon="13.13765"><ele>1374.0</ele><time>2026-05-02T09:28:22.982Z</time></trkpt><trkpt lat="43.00796" lon="13.1377283"><ele>1375.0</ele><time>2026-05-02T09:28:23.982Z</time></trkpt><trkpt lat="43.0078517" lon="13.13781"><ele>1376.0</ele><time>2026-05-02T09:28:24.982Z</time></trkpt><trkpt lat="43.0077433" lon="13.1378883"><ele>1376.0</ele><time>2026-05-02T09:28:25.983Z</time></trkpt><trkpt lat="43.0076367" lon="13.1379667"><ele>1376.0</ele><time>2026-05-02T09:28:26.983Z</time></trkpt><trkpt lat="43.0075333" lon="13.138055"><ele>1376.0</ele><time>2026-05-02T09:28:27.982Z</time></trkpt><trkpt lat="43.0074333" lon="13.1381567"><ele>1376.0</ele><time>2026-05-02T09:28:28.982Z</time></trkpt><trkpt lat="43.00734" lon="13.1382667"><ele>1378.1999999999998</ele><time>2026-05-02T09:28:29.983Z</time></trkpt><trkpt lat="43.0072483" lon="13.138375"><ele>1380.3999999999999</ele><time>2026-05-02T09:28:30.982Z</time></trkpt><trkpt lat="43.00716" lon="13.138465"><ele>1382.6</ele><time>2026-05-02T09:28:31.983Z</time></trkpt><trkpt lat="43.00707" lon="13.1385467"><ele>1384.8</ele><time>2026-05-02T09:28:32.984Z</time></trkpt><trkpt lat="43.006985" lon="13.138615"><ele>1387.0</ele><time>2026-05-02T09:28:33.981Z</time></trkpt><trkpt lat="43.00691" lon="13.1386683"><ele>1387.0</ele><time>2026-05-02T09:28:34.982Z</time></trkpt><trkpt lat="43.0068467" lon="13.13871"><ele>1387.0</ele><time>2026-05-02T09:28:35.983Z</time></trkpt><trkpt lat="43.0067867" lon="13.1387483"><ele>1387.0</ele><time>2026-05-02T09:28:36.982Z</time></trkpt><trkpt lat="43.0067233" lon="13.1387967"><ele>1387.0</ele><time>2026-05-02T09:28:37.981Z</time></trkpt><trkpt lat="43.0066567" lon="13.1388433"><ele>1387.0</ele><time>2026-05-02T09:28:38.982Z</time></trkpt><trkpt lat="43.0065833" lon="13.13889"><ele>1387.0</ele><time>2026-05-02T09:28:39.983Z</time></trkpt><trkpt lat="43.006505" lon="13.13894"><ele>1387.3999999999999</ele><time>2026-05-02T09:28:40.983Z</time></trkpt><trkpt lat="43.0064233" lon="13.1389917"><ele>1387.8</ele><time>2026-05-02T09:28:41.982Z</time></trkpt><trkpt lat="43.0063433" lon="13.1390533"><ele>1388.2</ele><time>2026-05-02T09:28:42.981Z</time></trkpt><trkpt lat="43.00626" lon="13.1391217"><ele>1388.6</ele><time>2026-05-02T09:28:43.982Z</time></trkpt><trkpt lat="43.0061717" lon="13.1392"><ele>1389.0</ele><time>2026-05-02T09:28:44.983Z</time></trkpt><trkpt lat="43.0060817" lon="13.13928"><ele>1390.25</ele><time>2026-05-02T09:28:45.982Z</time></trkpt><trkpt lat="43.0059883" lon="13.1393633"><ele>1391.5</ele><time>2026-05-02T09:28:46.982Z</time></trkpt><trkpt lat="43.0058933" lon="13.1394467"><ele>1392.75</ele><time>2026-05-02T09:28:47.982Z</time></trkpt><trkpt lat="43.0057983" lon="13.1395333"><ele>1394.0</ele><time>2026-05-02T09:28:48.982Z</time></trkpt><trkpt lat="43.005705" lon="13.139625"><ele>1394.0</ele><time>2026-05-02T09:28:49.982Z</time></trkpt><trkpt lat="43.00561" lon="13.1397133"><ele>1394.0</ele><time>2026-05-02T09:28:50.983Z</time></trkpt><trkpt lat="43.00552" lon="13.139795"><ele>1394.0</ele><time>2026-05-02T09:28:51.982Z</time></trkpt><trkpt lat="43.0054267" lon="13.1398717"><ele>1394.0</ele><time>2026-05-02T09:28:52.983Z</time></trkpt><trkpt lat="43.005335" lon="13.1399467"><ele>1394.0</ele><time>2026-05-02T09:28:53.983Z</time></trkpt><trkpt lat="43.0052383" lon="13.1400283"><ele>1397.0</ele><time>2026-05-02T09:28:54.983Z</time></trkpt><trkpt lat="43.0051367" lon="13.1401233"><ele>1400.0</ele><time>2026-05-02T09:28:55.983Z</time></trkpt><trkpt lat="43.00503" lon="13.1402183"><ele>1403.0</ele><time>2026-05-02T09:28:56.982Z</time></trkpt><trkpt lat="43.0049167" lon="13.140315"><ele>1406.0</ele><time>2026-05-02T09:28:57.983Z</time></trkpt><trkpt lat="43.0048033" lon="13.1404117"><ele>1406.0</ele><time>2026-05-02T09:28:58.983Z</time></trkpt><trkpt lat="43.004695" lon="13.14051"><ele>1406.0</ele><time>2026-05-02T09:28:59.982Z</time></trkpt><trkpt lat="43.00459" lon="13.1406"><ele>1406.0</ele><time>2026-05-02T09:29:00.981Z</time></trkpt><trkpt lat="43.0044933" lon="13.1406817"><ele>1406.0</ele><time>2026-05-02T09:29:01.981Z</time></trkpt><trkpt lat="43.0043983" lon="13.1407667"><ele>1410.0</ele><time>2026-05-02T09:29:02.983Z</time></trkpt><trkpt lat="43.0043" lon="13.1408683"><ele>1414.0</ele><time>2026-05-02T09:29:03.981Z</time></trkpt><trkpt lat="43.0042017" lon="13.140985"><ele>1418.0</ele><time>2026-05-02T09:29:04.982Z</time></trkpt><trkpt lat="43.0041067" lon="13.141105"><ele>1422.0</ele><time>2026-05-02T09:29:05.981Z</time></trkpt><trkpt lat="43.00401" lon="13.1412167"><ele>1422.25</ele><time>2026-05-02T09:29:06.981Z</time></trkpt><trkpt lat="43.0039067" lon="13.1413167"><ele>1422.5</ele><time>2026-05-02T09:29:07.982Z</time></trkpt><trkpt lat="43.0038" lon="13.1414017"><ele>1422.75</ele><time>2026-05-02T09:29:08.983Z</time></trkpt><trkpt lat="43.0036883" lon="13.141485"><ele>1423.0</ele><time>2026-05-02T09:29:09.982Z</time></trkpt><trkpt lat="43.00358" lon="13.1415783"><ele>1427.4</ele><time>2026-05-02T09:29:10.983Z</time></trkpt><trkpt lat="43.00348" lon="13.1416767"><ele>1431.8000000000002</ele><time>2026-05-02T09:29:11.983Z</time></trkpt><trkpt lat="43.0034" lon="13.14177"><ele>1436.2</ele><time>2026-05-02T09:29:12.982Z</time></trkpt><trkpt lat="43.0033333" lon="13.141865"><ele>1440.6</ele><time>2026-05-02T09:29:13.981Z</time></trkpt><trkpt lat="43.00327" lon="13.1419583"><ele>1445.0</ele><time>2026-05-02T09:29:14.983Z</time></trkpt><trkpt lat="43.0032017" lon="13.1420433"><ele>1447.2</ele><time>2026-05-02T09:29:15.981Z</time></trkpt><trkpt lat="43.0031233" lon="13.1421117"><ele>1449.4</ele><time>2026-05-02T09:29:16.982Z</time></trkpt><trkpt lat="43.0030383" lon="13.1421667"><ele>1451.6</ele><time>2026-05-02T09:29:17.984Z</time></trkpt><trkpt lat="43.00295" lon="13.1422117"><ele>1453.8</ele><time>2026-05-02T09:29:18.983Z</time></trkpt><trkpt lat="43.002855" lon="13.1422617"><ele>1456.0</ele><time>2026-05-02T09:29:19.983Z</time></trkpt><trkpt lat="43.0027633" lon="13.14231"><ele>1456.0</ele><time>2026-05-02T09:29:20.983Z</time></trkpt><trkpt lat="43.0026767" lon="13.14236"><ele>1456.0</ele><time>2026-05-02T09:29:21.982Z</time></trkpt><trkpt lat="43.0025883" lon="13.1424133"><ele>1456.0</ele><time>2026-05-02T09:29:22.982Z</time></trkpt><trkpt lat="43.0024967" lon="13.14247"><ele>1456.0</ele><time>2026-05-02T09:29:23.982Z</time></trkpt><trkpt lat="43.0023983" lon="13.1425283"><ele>1456.0</ele><time>2026-05-02T09:29:24.983Z</time></trkpt><trkpt lat="43.002295" lon="13.1425967"><ele>1460.25</ele><time>2026-05-02T09:29:25.982Z</time></trkpt><trkpt lat="43.0021867" lon="13.1426667"><ele>1464.5</ele><time>2026-05-02T09:29:26.982Z</time></trkpt><trkpt lat="43.0020767" lon="13.14274"><ele>1468.75</ele><time>2026-05-02T09:29:27.981Z</time></trkpt><trkpt lat="43.0019683" lon="13.1428083"><ele>1473.0</ele><time>2026-05-02T09:29:28.981Z</time></trkpt><trkpt lat="43.00186" lon="13.1428667"><ele>1473.0</ele><time>2026-05-02T09:29:29.983Z</time></trkpt><trkpt lat="43.0017517" lon="13.1429183"><ele>1473.0</ele><time>2026-05-02T09:29:30.981Z</time></trkpt><trkpt lat="43.0016383" lon="13.1429683"><ele>1473.0</ele><time>2026-05-02T09:29:31.983Z</time></trkpt><trkpt lat="43.0015233" lon="13.1430133"><ele>1473.0</ele><time>2026-05-02T09:29:32.983Z</time></trkpt><trkpt lat="43.0014067" lon="13.1430667"><ele>1474.5</ele><time>2026-05-02T09:29:33.983Z</time></trkpt><trkpt lat="43.00129" lon="13.1431317"><ele>1476.0</ele><time>2026-05-02T09:29:34.982Z</time></trkpt><trkpt lat="43.0011783" lon="13.1432067"><ele>1477.5</ele><time>2026-05-02T09:29:35.981Z</time></trkpt><trkpt lat="43.0010667" lon="13.14328"><ele>1479.0</ele><time>2026-05-02T09:29:36.983Z</time></trkpt><trkpt lat="43.000955" lon="13.1433467"><ele>1480.2</ele><time>2026-05-02T09:29:37.983Z</time></trkpt><trkpt lat="43.0008417" lon="13.1434067"><ele>1481.4</ele><time>2026-05-02T09:29:38.982Z</time></trkpt><trkpt lat="43.00074" lon="13.1434583"><ele>1482.6</ele><time>2026-05-02T09:29:39.982Z</time></trkpt><trkpt lat="43.0006433" lon="13.1435133"><ele>1483.8</ele><time>2026-05-02T09:29:40.982Z</time></trkpt><trkpt lat="43.0005517" lon="13.1435767"><ele>1485.0</ele><time>2026-05-02T09:29:41.981Z</time></trkpt><trkpt lat="43.0004667" lon="13.1436483"><ele>1485.6666666666667</ele><time>2026-05-02T09:29:42.982Z</time></trkpt><trkpt lat="43.0003917" lon="13.1437283"><ele>1486.3333333333333</ele><time>2026-05-02T09:29:43.982Z</time></trkpt><trkpt lat="43.00033" lon="13.1438083"><ele>1487.0</ele><time>2026-05-02T09:29:44.983Z</time></trkpt><trkpt lat="43.00028" lon="13.1438867"><ele>1487.6666666666665</ele><time>2026-05-02T09:29:45.984Z</time></trkpt><trkpt lat="43.00024" lon="13.1439733"><ele>1488.3333333333333</ele><time>2026-05-02T09:29:46.982Z</time></trkpt><trkpt lat="43.0002067" lon="13.14407"><ele>1489.0</ele><time>2026-05-02T09:29:47.981Z</time></trkpt><trkpt lat="43.00018" lon="13.1441683"><ele>1490.8333333333333</ele><time>2026-05-02T09:29:48.983Z</time></trkpt><trkpt lat="43.0001583" lon="13.1442683"><ele>1492.6666666666665</ele><time>2026-05-02T09:29:49.983Z</time></trkpt><trkpt lat="43.0001367" lon="13.14437"><ele>1494.5</ele><time>2026-05-02T09:29:50.982Z</time></trkpt><trkpt lat="43.0001183" lon="13.1444683"><ele>1496.3333333333333</ele><time>2026-05-02T09:29:51.983Z</time></trkpt><trkpt lat="43.000085" lon="13.1445983"><ele>1498.1666666666667</ele><time>2026-05-02T09:29:53.982Z</time></trkpt><trkpt lat="43.000055" lon="13.1447067"><ele>1500.0</ele><time>2026-05-02T09:29:55.982Z</time></trkpt><trkpt lat="43.0000033" lon="13.1448017"><ele>1500.0</ele><time>2026-05-02T09:29:57.981Z</time></trkpt><trkpt lat="42.99993" lon="13.1448667"><ele>1500.0</ele><time>2026-05-02T09:29:59.982Z</time></trkpt><trkpt lat="42.9998317" lon="13.144885"><ele>1500.0</ele><time>2026-05-02T09:30:01.982Z</time></trkpt><trkpt lat="42.9997417" lon="13.1448933"><ele>1500.0</ele><time>2026-05-02T09:30:03.983Z</time></trkpt><trkpt lat="42.9996617" lon="13.1448767"><ele>1500.0</ele><time>2026-05-02T09:30:05.983Z</time></trkpt><trkpt lat="42.99958" lon="13.1448367"><ele>1500.0</ele><time>2026-05-02T09:30:07.982Z</time></trkpt><trkpt lat="42.9995033" lon="13.1448067"><ele>1500.0</ele><time>2026-05-02T09:30:09.983Z</time></trkpt><trkpt lat="42.99944" lon="13.1447917"><ele>1500.0</ele><time>2026-05-02T09:30:11.982Z</time></trkpt><trkpt lat="42.9993783" lon="13.1447683"><ele>1500.0</ele><time>2026-05-02T09:30:14.983Z</time></trkpt><trkpt lat="42.9992933" lon="13.1447317"><ele>1500.0</ele><time>2026-05-02T09:30:18.982Z</time></trkpt><trkpt lat="42.99922" lon="13.14472"><ele>1500.0</ele><time>2026-05-02T09:30:20.983Z</time></trkpt><trkpt lat="42.99913" lon="13.1447217"><ele>1500.0</ele><time>2026-05-02T09:30:22.982Z</time></trkpt><trkpt lat="42.9990217" lon="13.1447567"><ele>1500.5</ele><time>2026-05-02T09:30:24.983Z</time></trkpt><trkpt lat="42.998925" lon="13.1448233"><ele>1501.0</ele><time>2026-05-02T09:30:26.982Z</time></trkpt><trkpt lat="42.9988383" lon="13.144925"><ele>1501.5</ele><time>2026-05-02T09:30:28.982Z</time></trkpt><trkpt lat="42.9987683" lon="13.1450633"><ele>1502.0</ele><time>2026-05-02T09:30:30.981Z</time></trkpt><trkpt lat="42.9987267" lon="13.145195"><ele>1501.1999999999998</ele><time>2026-05-02T09:30:32.983Z</time></trkpt><trkpt lat="42.9987" lon="13.1453"><ele>1500.4</ele><time>2026-05-02T09:30:34.981Z</time></trkpt><trkpt lat="42.998625" lon="13.1453467"><ele>1499.6</ele><time>2026-05-02T09:31:42.982Z</time></trkpt><trkpt lat="42.9985433" lon="13.1452933"><ele>1498.8000000000002</ele><time>2026-05-02T09:31:44.984Z</time></trkpt><trkpt lat="42.9984333" lon="13.1452217"><ele>1498.0</ele><time>2026-05-02T09:31:46.982Z</time></trkpt><trkpt lat="42.998315" lon="13.1451517"><ele>1498.0</ele><time>2026-05-02T09:31:48.983Z</time></trkpt><trkpt lat="42.9982467" lon="13.1450967"><ele>1498.0</ele><time>2026-05-02T09:31:49.982Z</time></trkpt><trkpt lat="42.99817" lon="13.1450333"><ele>1498.0</ele><time>2026-05-02T09:31:50.983Z</time></trkpt><trkpt lat="42.9980867" lon="13.1449667"><ele>1498.0</ele><time>2026-05-02T09:31:51.983Z</time></trkpt><trkpt lat="42.9979967" lon="13.1449017"><ele>1498.0</ele><time>2026-05-02T09:31:52.982Z</time></trkpt><trkpt lat="42.9979033" lon="13.1448417"><ele>1498.0</ele><time>2026-05-02T09:31:53.982Z</time></trkpt><trkpt lat="42.997815" lon="13.1447817"><ele>1498.0</ele><time>2026-05-02T09:31:54.983Z</time></trkpt><trkpt lat="42.9977267" lon="13.1447133"><ele>1498.0</ele><time>2026-05-02T09:31:55.983Z</time></trkpt><trkpt lat="42.997635" lon="13.1446367"><ele>1498.0</ele><time>2026-05-02T09:31:56.984Z</time></trkpt><trkpt lat="42.9975333" lon="13.144555"><ele>1498.0</ele><time>2026-05-02T09:31:57.984Z</time></trkpt><trkpt lat="42.9974267" lon="13.1444733"><ele>1498.5</ele><time>2026-05-02T09:31:58.982Z</time></trkpt><trkpt lat="42.9973217" lon="13.1443883"><ele>1499.0</ele><time>2026-05-02T09:31:59.983Z</time></trkpt><trkpt lat="42.9972167" lon="13.1442983"><ele>1499.5</ele><time>2026-05-02T09:32:00.983Z</time></trkpt><trkpt lat="42.9971067" lon="13.1442067"><ele>1500.0</ele><time>2026-05-02T09:32:01.986Z</time></trkpt><trkpt lat="42.99699" lon="13.1441167"><ele>1500.0</ele><time>2026-05-02T09:32:02.983Z</time></trkpt><trkpt lat="42.996865" lon="13.1440333"><ele>1500.0</ele><time>2026-05-02T09:32:03.983Z</time></trkpt><trkpt lat="42.9967433" lon="13.1439483"><ele>1500.0</ele><time>2026-05-02T09:32:04.982Z</time></trkpt><trkpt lat="42.99663" lon="13.1438667"><ele>1500.0</ele><time>2026-05-02T09:32:05.983Z</time></trkpt><trkpt lat="42.99653" lon="13.143785"><ele>1500.0</ele><time>2026-05-02T09:32:06.984Z</time></trkpt><trkpt lat="42.9964367" lon="13.1437133"><ele>1500.0</ele><time>2026-05-02T09:32:07.982Z</time></trkpt><trkpt lat="42.9963517" lon="13.14365"><ele>1500.0</ele><time>2026-05-02T09:32:08.984Z</time></trkpt><trkpt lat="42.996275" lon="13.1435967"><ele>1500.0</ele><time>2026-05-02T09:32:09.983Z</time></trkpt><trkpt lat="42.9962067" lon="13.1435433"><ele>1500.0</ele><time>2026-05-02T09:32:10.984Z</time></trkpt><trkpt lat="42.99614" lon="13.14349"><ele>1500.0</ele><time>2026-05-02T09:32:11.982Z</time></trkpt><trkpt lat="42.996075" lon="13.14343"><ele>1500.0</ele><time>2026-05-02T09:32:12.983Z</time></trkpt><trkpt lat="42.9959983" lon="13.1433667"><ele>1500.0</ele><time>2026-05-02T09:32:13.983Z</time></trkpt><trkpt lat="42.995905" lon="13.1432917"><ele>1500.0</ele><time>2026-05-02T09:32:14.983Z</time></trkpt><trkpt lat="42.9957983" lon="13.14322"><ele>1500.0</ele><time>2026-05-02T09:32:15.982Z</time></trkpt><trkpt lat="42.9956833" lon="13.1431483"><ele>1500.0</ele><time>2026-05-02T09:32:16.982Z</time></trkpt><trkpt lat="42.995565" lon="13.1430717"><ele>1500.25</ele><time>2026-05-02T09:32:17.982Z</time></trkpt><trkpt lat="42.9954483" lon="13.1429933"><ele>1500.5</ele><time>2026-05-02T09:32:18.983Z</time></trkpt><trkpt lat="42.9953283" lon="13.142905"><ele>1500.75</ele><time>2026-05-02T09:32:19.983Z</time></trkpt><trkpt lat="42.99521" lon="13.14281"><ele>1501.0</ele><time>2026-05-02T09:32:20.983Z</time></trkpt><trkpt lat="42.9951" lon="13.1427233"><ele>1502.25</ele><time>2026-05-02T09:32:21.984Z</time></trkpt><trkpt lat="42.995" lon="13.1426467"><ele>1503.5</ele><time>2026-05-02T09:32:22.984Z</time></trkpt><trkpt lat="42.994905" lon="13.1425683"><ele>1504.75</ele><time>2026-05-02T09:32:23.984Z</time></trkpt><trkpt lat="42.9948067" lon="13.142485"><ele>1506.0</ele><time>2026-05-02T09:32:24.983Z</time></trkpt><trkpt lat="42.9947" lon="13.1424067"><ele>1504.5</ele><time>2026-05-02T09:32:25.983Z</time></trkpt><trkpt lat="42.9945867" lon="13.142325"><ele>1503.0</ele><time>2026-05-02T09:32:26.983Z</time></trkpt><trkpt lat="42.9944683" lon="13.14224"><ele>1501.5</ele><time>2026-05-02T09:32:27.983Z</time></trkpt><trkpt lat="42.9943517" lon="13.1421467"><ele>1500.0</ele><time>2026-05-02T09:32:28.983Z</time></trkpt><trkpt lat="42.9942467" lon="13.1420583"><ele>1501.0</ele><time>2026-05-02T09:32:29.981Z</time></trkpt><trkpt lat="42.9941567" lon="13.14199"><ele>1502.0</ele><time>2026-05-02T09:32:30.982Z</time></trkpt><trkpt lat="42.9940783" lon="13.1419317"><ele>1503.0</ele><time>2026-05-02T09:32:31.981Z</time></trkpt><trkpt lat="42.9940117" lon="13.1418783"><ele>1504.0</ele><time>2026-05-02T09:32:32.982Z</time></trkpt><trkpt lat="42.993945" lon="13.1418333"><ele>1505.0</ele><time>2026-05-02T09:32:33.981Z</time></trkpt><trkpt lat="42.9938767" lon="13.1417933"><ele>1506.0</ele><time>2026-05-02T09:32:34.982Z</time></trkpt><trkpt lat="42.993815" lon="13.141775"><ele>1506.0</ele><time>2026-05-02T09:32:35.983Z</time></trkpt><trkpt lat="42.9937217" lon="13.14176"><ele>1506.0</ele><time>2026-05-02T09:32:37.983Z</time></trkpt><trkpt lat="42.99365" lon="13.1417233"><ele>1506.0</ele><time>2026-05-02T09:32:39.983Z</time></trkpt><trkpt lat="42.9935567" lon="13.141665"><ele>1506.0</ele><time>2026-05-02T09:32:41.984Z</time></trkpt><trkpt lat="42.993445" lon="13.141605"><ele>1506.0</ele><time>2026-05-02T09:32:43.981Z</time></trkpt><trkpt lat="42.9933833" lon="13.1415667"><ele>1505.1666666666667</ele><time>2026-05-02T09:32:44.982Z</time></trkpt><trkpt lat="42.9933133" lon="13.1415267"><ele>1504.3333333333333</ele><time>2026-05-02T09:32:45.983Z</time></trkpt><trkpt lat="42.993235" lon="13.1414867"><ele>1503.5</ele><time>2026-05-02T09:32:46.981Z</time></trkpt><trkpt lat="42.993155" lon="13.1414483"><ele>1502.6666666666665</ele><time>2026-05-02T09:32:47.981Z</time></trkpt><trkpt lat="42.993085" lon="13.1414183"><ele>1501.8333333333333</ele><time>2026-05-02T09:32:48.981Z</time></trkpt><trkpt lat="42.992985" lon="13.141375"><ele>1501.0</ele><time>2026-05-02T09:32:50.981Z</time></trkpt><trkpt lat="42.99291" lon="13.1413467"><ele>1501.0</ele><time>2026-05-02T09:33:03.983Z</time></trkpt><trkpt lat="42.992975" lon="13.14135"><ele>1501.0</ele><time>2026-05-02T09:36:07.982Z</time></trkpt><trkpt lat="42.99306" lon="13.1412833"><ele>1501.0</ele><time>2026-05-02T09:36:53.917Z</time></trkpt><trkpt lat="42.9930133" lon="13.141375"><ele>1501.0</ele><time>2026-05-02T09:37:07.982Z</time></trkpt><trkpt lat="42.9930983" lon="13.141425"><ele>1501.0</ele><time>2026-05-02T09:37:13.983Z</time></trkpt><trkpt lat="42.9931717" lon="13.1414583"><ele>1501.0</ele><time>2026-05-02T09:37:15.981Z</time></trkpt><trkpt lat="42.993235" lon="13.1414883"><ele>1500.9999999999998</ele><time>2026-05-02T09:37:17.982Z</time></trkpt><trkpt lat="42.9933033" lon="13.1415183"><ele>1501.0</ele><time>2026-05-02T09:37:20.982Z</time></trkpt><trkpt lat="42.9933717" lon="13.1415467"><ele>1501.0</ele><time>2026-05-02T09:37:23.981Z</time></trkpt><trkpt lat="42.9934433" lon="13.1415967"><ele>1501.0</ele><time>2026-05-02T09:37:26.983Z</time></trkpt><trkpt lat="42.99351" lon="13.141635"><ele>1501.0</ele><time>2026-05-02T09:37:28.981Z</time></trkpt><trkpt lat="42.9935817" lon="13.1416733"><ele>1500.9999999999998</ele><time>2026-05-02T09:37:30.983Z</time></trkpt><trkpt lat="42.99364" lon="13.1417183"><ele>1501.0</ele><time>2026-05-02T09:37:37.982Z</time></trkpt><trkpt lat="42.9936983" lon="13.141755"><ele>1501.7142857142856</ele><time>2026-05-02T09:37:39.982Z</time></trkpt><trkpt lat="42.9937633" lon="13.14177"><ele>1502.4285714285713</ele><time>2026-05-02T09:37:41.982Z</time></trkpt><trkpt lat="42.9938533" lon="13.1417833"><ele>1503.142857142857</ele><time>2026-05-02T09:37:44.983Z</time></trkpt><trkpt lat="42.99392" lon="13.14181"><ele>1503.8571428571427</ele><time>2026-05-02T09:37:47.981Z</time></trkpt><trkpt lat="42.9939867" lon="13.1418683"><ele>1504.5714285714287</ele><time>2026-05-02T09:37:51.981Z</time></trkpt><trkpt lat="42.9940433" lon="13.1419233"><ele>1505.2857142857142</ele><time>2026-05-02T09:37:53.982Z</time></trkpt><trkpt lat="42.9940617" lon="13.14201"><ele>1506.0</ele><time>2026-05-02T09:37:56.986Z</time></trkpt><trkpt lat="42.9939833" lon="13.1420483"><ele>1506.0</ele><time>2026-05-02T09:38:15.982Z</time></trkpt><trkpt lat="42.9939117" lon="13.1420833"><ele>1506.0</ele><time>2026-05-02T09:38:17.982Z</time></trkpt><trkpt lat="42.9938233" lon="13.1421183"><ele>1506.0</ele><time>2026-05-02T09:38:19.982Z</time></trkpt><trkpt lat="42.9937083" lon="13.1421533"><ele>1506.0</ele><time>2026-05-02T09:38:21.981Z</time></trkpt><trkpt lat="42.9936017" lon="13.142175"><ele>1506.0</ele><time>2026-05-02T09:38:23.982Z</time></trkpt><trkpt lat="42.99349" lon="13.142195"><ele>1506.0</ele><time>2026-05-02T09:38:25.982Z</time></trkpt><trkpt lat="42.9933717" lon="13.1422017"><ele>1506.0</ele><time>2026-05-02T09:38:27.982Z</time></trkpt><trkpt lat="42.993305" lon="13.1422033"><ele>1506.0</ele><time>2026-05-02T09:38:28.983Z</time></trkpt><trkpt lat="42.9932383" lon="13.1422067"><ele>1506.0</ele><time>2026-05-02T09:38:29.982Z</time></trkpt><trkpt lat="42.993175" lon="13.14221"><ele>1506.0</ele><time>2026-05-02T09:38:30.982Z</time></trkpt><trkpt lat="42.9931117" lon="13.1422133"><ele>1506.0</ele><time>2026-05-02T09:38:31.981Z</time></trkpt><trkpt lat="42.9930417" lon="13.1422167"><ele>1506.0</ele><time>2026-05-02T09:38:32.982Z</time></trkpt><trkpt lat="42.9929667" lon="13.1422233"><ele>1507.0</ele><time>2026-05-02T09:38:33.981Z</time></trkpt><trkpt lat="42.9928933" lon="13.1422317"><ele>1508.0</ele><time>2026-05-02T09:38:34.981Z</time></trkpt><trkpt lat="42.992825" lon="13.1422383"><ele>1509.0</ele><time>2026-05-02T09:38:35.981Z</time></trkpt><trkpt lat="42.9927583" lon="13.1422383"><ele>1510.0</ele><time>2026-05-02T09:38:36.982Z</time></trkpt><trkpt lat="42.9926367" lon="13.1422317"><ele>1511.0</ele><time>2026-05-02T09:38:38.982Z</time></trkpt><trkpt lat="42.99252" lon="13.1422333"><ele>1512.0</ele><time>2026-05-02T09:38:40.981Z</time></trkpt><trkpt lat="42.9924083" lon="13.1422467"><ele>1512.8333333333333</ele><time>2026-05-02T09:38:42.982Z</time></trkpt><trkpt lat="42.9922867" lon="13.14228"><ele>1513.6666666666667</ele><time>2026-05-02T09:38:44.982Z</time></trkpt><trkpt lat="42.9922233" lon="13.1423033"><ele>1514.5</ele><time>2026-05-02T09:38:45.981Z</time></trkpt><trkpt lat="42.9921617" lon="13.1423217"><ele>1515.3333333333335</ele><time>2026-05-02T09:38:46.981Z</time></trkpt><trkpt lat="42.9920967" lon="13.142345"><ele>1516.1666666666667</ele><time>2026-05-02T09:38:47.981Z</time></trkpt><trkpt lat="42.99203" lon="13.1423683"><ele>1517.0</ele><time>2026-05-02T09:38:48.981Z</time></trkpt><trkpt lat="42.99196" lon="13.14239"><ele>1518.2857142857142</ele><time>2026-05-02T09:38:49.981Z</time></trkpt><trkpt lat="42.9918933" lon="13.1424117"><ele>1519.5714285714287</ele><time>2026-05-02T09:38:50.981Z</time></trkpt><trkpt lat="42.991825" lon="13.1424317"><ele>1520.857142857143</ele><time>2026-05-02T09:38:51.982Z</time></trkpt><trkpt lat="42.9917617" lon="13.14245"><ele>1522.142857142857</ele><time>2026-05-02T09:38:52.981Z</time></trkpt><trkpt lat="42.9916983" lon="13.14246"><ele>1523.4285714285716</ele><time>2026-05-02T09:38:53.981Z</time></trkpt><trkpt lat="42.991635" lon="13.1424633"><ele>1524.7142857142858</ele><time>2026-05-02T09:38:54.981Z</time></trkpt><trkpt lat="42.9915717" lon="13.1424617"><ele>1526.0</ele><time>2026-05-02T09:38:55.982Z</time></trkpt><trkpt lat="42.99146" lon="13.142455"><ele>1526.0</ele><time>2026-05-02T09:38:57.982Z</time></trkpt><trkpt lat="42.99134" lon="13.1424317"><ele>1526.0</ele><time>2026-05-02T09:38:59.982Z</time></trkpt><trkpt lat="42.99123" lon="13.1424033"><ele>1526.0</ele><time>2026-05-02T09:39:01.982Z</time></trkpt><trkpt lat="42.99113" lon="13.1423833"><ele>1526.0</ele><time>2026-05-02T09:39:03.982Z</time></trkpt><trkpt lat="42.99104" lon="13.1423633"><ele>1526.0</ele><time>2026-05-02T09:39:05.981Z</time></trkpt><trkpt lat="42.9909517" lon="13.1423433"><ele>1525.4</ele><time>2026-05-02T09:39:07.982Z</time></trkpt><trkpt lat="42.990875" lon="13.1423317"><ele>1524.8</ele><time>2026-05-02T09:39:09.983Z</time></trkpt><trkpt lat="42.9907983" lon="13.142325"><ele>1524.2</ele><time>2026-05-02T09:39:11.981Z</time></trkpt><trkpt lat="42.9907183" lon="13.142345"><ele>1523.6000000000001</ele><time>2026-05-02T09:39:13.981Z</time></trkpt><trkpt lat="42.99061" lon="13.1423883"><ele>1523.0</ele><time>2026-05-02T09:39:15.981Z</time></trkpt><trkpt lat="42.9905" lon="13.1424417"><ele>1523.0</ele><time>2026-05-02T09:39:17.982Z</time></trkpt><trkpt lat="42.9903883" lon="13.1425"><ele>1523.0</ele><time>2026-05-02T09:39:19.982Z</time></trkpt><trkpt lat="42.9902683" lon="13.1425533"><ele>1523.0</ele><time>2026-05-02T09:39:21.983Z</time></trkpt><trkpt lat="42.9902067" lon="13.1425783"><ele>1523.0</ele><time>2026-05-02T09:39:22.982Z</time></trkpt><trkpt lat="42.9900933" lon="13.1426167"><ele>1523.0</ele><time>2026-05-02T09:39:24.982Z</time></trkpt><trkpt lat="42.98999" lon="13.1426383"><ele>1521.2</ele><time>2026-05-02T09:39:26.983Z</time></trkpt><trkpt lat="42.98989" lon="13.1426467"><ele>1519.4</ele><time>2026-05-02T09:39:28.982Z</time></trkpt><trkpt lat="42.9897783" lon="13.1426383"><ele>1517.6000000000001</ele><time>2026-05-02T09:39:30.981Z</time></trkpt><trkpt lat="42.989675" lon="13.1425983"><ele>1515.8000000000002</ele><time>2026-05-02T09:39:32.982Z</time></trkpt><trkpt lat="42.98957" lon="13.1425433"><ele>1514.0</ele><time>2026-05-02T09:39:34.982Z</time></trkpt><trkpt lat="42.98947" lon="13.142485"><ele>1514.0</ele><time>2026-05-02T09:39:36.981Z</time></trkpt><trkpt lat="42.9893883" lon="13.1424367"><ele>1514.0</ele><time>2026-05-02T09:39:38.983Z</time></trkpt><trkpt lat="42.9893117" lon="13.1423783"><ele>1514.0</ele><time>2026-05-02T09:39:40.982Z</time></trkpt><trkpt lat="42.989255" lon="13.1423133"><ele>1514.0</ele><time>2026-05-02T09:39:42.981Z</time></trkpt><trkpt lat="42.9892133" lon="13.1422183"><ele>1514.0</ele><time>2026-05-02T09:39:44.983Z</time></trkpt><trkpt lat="42.98919" lon="13.1421"><ele>1514.0</ele><time>2026-05-02T09:39:46.982Z</time></trkpt><trkpt lat="42.989215" lon="13.14199"><ele>1513.5</ele><time>2026-05-02T09:39:48.983Z</time></trkpt><trkpt lat="42.98926" lon="13.1418933"><ele>1513.0</ele><time>2026-05-02T09:39:50.983Z</time></trkpt><trkpt lat="42.98925" lon="13.14179"><ele>1512.5</ele><time>2026-05-02T09:39:53.982Z</time></trkpt><trkpt lat="42.9891583" lon="13.1417583"><ele>1512.0</ele><time>2026-05-02T09:39:55.982Z</time></trkpt><trkpt lat="42.989085" lon="13.14174"><ele>1511.5</ele><time>2026-05-02T09:39:56.983Z</time></trkpt><trkpt lat="42.9890017" lon="13.1417233"><ele>1511.0</ele><time>2026-05-02T09:39:57.983Z</time></trkpt><trkpt lat="42.988915" lon="13.1417033"><ele>1510.1999999999998</ele><time>2026-05-02T09:39:58.983Z</time></trkpt><trkpt lat="42.988825" lon="13.1416817"><ele>1509.3999999999999</ele><time>2026-05-02T09:39:59.982Z</time></trkpt><trkpt lat="42.9887283" lon="13.1416617"><ele>1508.6</ele><time>2026-05-02T09:40:00.982Z</time></trkpt><trkpt lat="42.9886367" lon="13.141645"><ele>1507.8</ele><time>2026-05-02T09:40:01.981Z</time></trkpt><trkpt lat="42.9885483" lon="13.14163"><ele>1507.0</ele><time>2026-05-02T09:40:02.983Z</time></trkpt><trkpt lat="42.9884633" lon="13.1416183"><ele>1507.0</ele><time>2026-05-02T09:40:03.981Z</time></trkpt><trkpt lat="42.9883833" lon="13.1416133"><ele>1507.0</ele><time>2026-05-02T09:40:04.982Z</time></trkpt><trkpt lat="42.9883083" lon="13.1416133"><ele>1507.0</ele><time>2026-05-02T09:40:05.981Z</time></trkpt><trkpt lat="42.98824" lon="13.14161"><ele>1507.0</ele><time>2026-05-02T09:40:06.983Z</time></trkpt><trkpt lat="42.9881283" lon="13.1416"><ele>1507.0</ele><time>2026-05-02T09:40:08.982Z</time></trkpt><trkpt lat="42.988065" lon="13.1415933"><ele>1507.0</ele><time>2026-05-02T09:40:09.983Z</time></trkpt><trkpt lat="42.9879967" lon="13.1416133"><ele>1506.8333333333333</ele><time>2026-05-02T09:40:10.983Z</time></trkpt><trkpt lat="42.9879317" lon="13.14166"><ele>1506.6666666666665</ele><time>2026-05-02T09:40:11.982Z</time></trkpt><trkpt lat="42.9878733" lon="13.1417317"><ele>1506.5</ele><time>2026-05-02T09:40:12.981Z</time></trkpt><trkpt lat="42.98782" lon="13.1418217"><ele>1506.3333333333333</ele><time>2026-05-02T09:40:13.982Z</time></trkpt><trkpt lat="42.9877667" lon="13.1419233"><ele>1506.1666666666667</ele><time>2026-05-02T09:40:14.983Z</time></trkpt><trkpt lat="42.987715" lon="13.1420333"><ele>1506.0</ele><time>2026-05-02T09:40:15.981Z</time></trkpt><trkpt lat="42.9876633" lon="13.14215"><ele>1506.0</ele><time>2026-05-02T09:40:16.981Z</time></trkpt><trkpt lat="42.9876083" lon="13.1422683"><ele>1506.0</ele><time>2026-05-02T09:40:17.984Z</time></trkpt><trkpt lat="42.9875533" lon="13.1423917"><ele>1506.0</ele><time>2026-05-02T09:40:18.982Z</time></trkpt><trkpt lat="42.987495" lon="13.142515"><ele>1506.0</ele><time>2026-05-02T09:40:19.983Z</time></trkpt><trkpt lat="42.9874433" lon="13.1426417"><ele>1506.0</ele><time>2026-05-02T09:40:20.983Z</time></trkpt><trkpt lat="42.9873883" lon="13.1427717"><ele>1506.4</ele><time>2026-05-02T09:40:21.983Z</time></trkpt><trkpt lat="42.9873317" lon="13.1428983"><ele>1506.8</ele><time>2026-05-02T09:40:22.982Z</time></trkpt><trkpt lat="42.98728" lon="13.143015"><ele>1507.2</ele><time>2026-05-02T09:40:23.982Z</time></trkpt><trkpt lat="42.9872317" lon="13.1431283"><ele>1507.6000000000001</ele><time>2026-05-02T09:40:24.983Z</time></trkpt><trkpt lat="42.9871917" lon="13.14325"><ele>1508.0</ele><time>2026-05-02T09:40:25.983Z</time></trkpt><trkpt lat="42.987155" lon="13.1433783"><ele>1508.0</ele><time>2026-05-02T09:40:26.982Z</time></trkpt><trkpt lat="42.987125" lon="13.14351"><ele>1508.0</ele><time>2026-05-02T09:40:27.982Z</time></trkpt><trkpt lat="42.987095" lon="13.14365"><ele>1508.0</ele><time>2026-05-02T09:40:28.983Z</time></trkpt><trkpt lat="42.987065" lon="13.1437983"><ele>1508.0</ele><time>2026-05-02T09:40:29.982Z</time></trkpt><trkpt lat="42.9870333" lon="13.1439517"><ele>1508.0</ele><time>2026-05-02T09:40:30.983Z</time></trkpt><trkpt lat="42.987" lon="13.1441083"><ele>1509.5</ele><time>2026-05-02T09:40:31.981Z</time></trkpt><trkpt lat="42.9869667" lon="13.1442683"><ele>1511.0</ele><time>2026-05-02T09:40:32.983Z</time></trkpt><trkpt lat="42.98693" lon="13.1444333"><ele>1512.5</ele><time>2026-05-02T09:40:33.982Z</time></trkpt><trkpt lat="42.986885" lon="13.1446033"><ele>1514.0</ele><time>2026-05-02T09:40:34.982Z</time></trkpt><trkpt lat="42.9868283" lon="13.1447783"><ele>1513.25</ele><time>2026-05-02T09:40:35.982Z</time></trkpt><trkpt lat="42.986765" lon="13.14495"><ele>1512.5</ele><time>2026-05-02T09:40:36.983Z</time></trkpt><trkpt lat="42.9866967" lon="13.1451233"><ele>1511.75</ele><time>2026-05-02T09:40:37.981Z</time></trkpt><trkpt lat="42.986625" lon="13.1452917"><ele>1511.0</ele><time>2026-05-02T09:40:38.983Z</time></trkpt><trkpt lat="42.9865483" lon="13.1454617"><ele>1513.75</ele><time>2026-05-02T09:40:39.982Z</time></trkpt><trkpt lat="42.9864683" lon="13.1456283"><ele>1516.5</ele><time>2026-05-02T09:40:40.981Z</time></trkpt><trkpt lat="42.9863867" lon="13.1457917"><ele>1519.25</ele><time>2026-05-02T09:40:41.983Z</time></trkpt><trkpt lat="42.98631" lon="13.14594"><ele>1522.0</ele><time>2026-05-02T09:40:42.983Z</time></trkpt><trkpt lat="42.986235" lon="13.1460783"><ele>1522.25</ele><time>2026-05-02T09:40:43.981Z</time></trkpt><trkpt lat="42.986155" lon="13.1462183"><ele>1522.5</ele><time>2026-05-02T09:40:44.982Z</time></trkpt><trkpt lat="42.9860733" lon="13.1463633"><ele>1522.75</ele><time>2026-05-02T09:40:45.983Z</time></trkpt><trkpt lat="42.9859933" lon="13.1465083"><ele>1523.0</ele><time>2026-05-02T09:40:46.982Z</time></trkpt><trkpt lat="42.9859133" lon="13.1466567"><ele>1524.75</ele><time>2026-05-02T09:40:47.983Z</time></trkpt><trkpt lat="42.9858317" lon="13.1468033"><ele>1526.5</ele><time>2026-05-02T09:40:48.982Z</time></trkpt><trkpt lat="42.9857483" lon="13.1469483"><ele>1528.25</ele><time>2026-05-02T09:40:49.982Z</time></trkpt><trkpt lat="42.9856683" lon="13.14709"><ele>1530.0</ele><time>2026-05-02T09:40:50.984Z</time></trkpt><trkpt lat="42.9855867" lon="13.147235"><ele>1530.75</ele><time>2026-05-02T09:40:51.983Z</time></trkpt><trkpt lat="42.985505" lon="13.1473833"><ele>1531.5</ele><time>2026-05-02T09:40:52.983Z</time></trkpt><trkpt lat="42.9854233" lon="13.1475367"><ele>1532.25</ele><time>2026-05-02T09:40:53.982Z</time></trkpt><trkpt lat="42.9853383" lon="13.1476917"><ele>1533.0</ele><time>2026-05-02T09:40:54.982Z</time></trkpt><trkpt lat="42.985255" lon="13.1478417"><ele>1533.0</ele><time>2026-05-02T09:40:55.982Z</time></trkpt><trkpt lat="42.9851733" lon="13.1479917"><ele>1533.0</ele><time>2026-05-02T09:40:56.983Z</time></trkpt><trkpt lat="42.9850917" lon="13.1481467"><ele>1533.0</ele><time>2026-05-02T09:40:57.983Z</time></trkpt><trkpt lat="42.9850133" lon="13.1483"><ele>1533.0</ele><time>2026-05-02T09:40:58.982Z</time></trkpt><trkpt lat="42.9849333" lon="13.1484533"><ele>1535.25</ele><time>2026-05-02T09:40:59.985Z</time></trkpt><trkpt lat="42.9848567" lon="13.148605"><ele>1537.5</ele><time>2026-05-02T09:41:00.983Z</time></trkpt><trkpt lat="42.9847767" lon="13.1487533"><ele>1539.75</ele><time>2026-05-02T09:41:01.982Z</time></trkpt><trkpt lat="42.9846983" lon="13.1489017"><ele>1542.0</ele><time>2026-05-02T09:41:02.982Z</time></trkpt><trkpt lat="42.9846233" lon="13.1490417"><ele>1539.6</ele><time>2026-05-02T09:41:03.983Z</time></trkpt><trkpt lat="42.984545" lon="13.1491617"><ele>1537.1999999999998</ele><time>2026-05-02T09:41:04.982Z</time></trkpt><trkpt lat="42.984465" lon="13.14926"><ele>1534.8</ele><time>2026-05-02T09:41:05.983Z</time></trkpt><trkpt lat="42.98438" lon="13.1493467"><ele>1532.4</ele><time>2026-05-02T09:41:06.983Z</time></trkpt><trkpt lat="42.9842867" lon="13.1494233"><ele>1530.0</ele><time>2026-05-02T09:41:07.982Z</time></trkpt><trkpt lat="42.9841933" lon="13.14949"><ele>1533.2</ele><time>2026-05-02T09:41:08.984Z</time></trkpt><trkpt lat="42.9840917" lon="13.1495483"><ele>1536.4</ele><time>2026-05-02T09:41:09.983Z</time></trkpt><trkpt lat="42.9839917" lon="13.1495933"><ele>1539.6</ele><time>2026-05-02T09:41:10.984Z</time></trkpt><trkpt lat="42.9838917" lon="13.149615"><ele>1542.8</ele><time>2026-05-02T09:41:11.982Z</time></trkpt><trkpt lat="42.9837883" lon="13.1496283"><ele>1546.0</ele><time>2026-05-02T09:41:12.983Z</time></trkpt><trkpt lat="42.983685" lon="13.1496367"><ele>1546.0</ele><time>2026-05-02T09:41:13.983Z</time></trkpt><trkpt lat="42.98358" lon="13.14964"><ele>1546.0</ele><time>2026-05-02T09:41:14.985Z</time></trkpt><trkpt lat="42.98348" lon="13.1496417"><ele>1546.0</ele><time>2026-05-02T09:41:15.982Z</time></trkpt><trkpt lat="42.9833833" lon="13.1496383"><ele>1546.0</ele><time>2026-05-02T09:41:16.982Z</time></trkpt><trkpt lat="42.98329" lon="13.14963"><ele>1546.0</ele><time>2026-05-02T09:41:17.982Z</time></trkpt><trkpt lat="42.9831933" lon="13.149625"><ele>1546.1999999999998</ele><time>2026-05-02T09:41:18.982Z</time></trkpt><trkpt lat="42.983095" lon="13.1496183"><ele>1546.3999999999999</ele><time>2026-05-02T09:41:19.983Z</time></trkpt><trkpt lat="42.9829983" lon="13.14961"><ele>1546.6</ele><time>2026-05-02T09:41:20.985Z</time></trkpt><trkpt lat="42.9829" lon="13.1496033"><ele>1546.8</ele><time>2026-05-02T09:41:21.982Z</time></trkpt><trkpt lat="42.982805" lon="13.149605"><ele>1547.0</ele><time>2026-05-02T09:41:22.982Z</time></trkpt><trkpt lat="42.98271" lon="13.1496183"><ele>1547.0</ele><time>2026-05-02T09:41:23.984Z</time></trkpt><trkpt lat="42.9826083" lon="13.149645"><ele>1547.0</ele><time>2026-05-02T09:41:24.982Z</time></trkpt><trkpt lat="42.9825083" lon="13.1496783"><ele>1547.0</ele><time>2026-05-02T09:41:25.983Z</time></trkpt><trkpt lat="42.9824083" lon="13.1497183"><ele>1547.0</ele><time>2026-05-02T09:41:26.982Z</time></trkpt><trkpt lat="42.98231" lon="13.1497633"><ele>1547.0</ele><time>2026-05-02T09:41:27.983Z</time></trkpt><trkpt lat="42.9822117" lon="13.14981"><ele>1549.1999999999998</ele><time>2026-05-02T09:41:28.983Z</time></trkpt><trkpt lat="42.9821133" lon="13.1498583"><ele>1551.4</ele><time>2026-05-02T09:41:29.982Z</time></trkpt><trkpt lat="42.982015" lon="13.1499083"><ele>1553.6</ele><time>2026-05-02T09:41:30.983Z</time></trkpt><trkpt lat="42.981915" lon="13.1499517"><ele>1555.8000000000002</ele><time>2026-05-02T09:41:31.983Z</time></trkpt><trkpt lat="42.9818183" lon="13.1499933"><ele>1558.0</ele><time>2026-05-02T09:41:32.982Z</time></trkpt><trkpt lat="42.98173" lon="13.1500333"><ele>1554.3333333333335</ele><time>2026-05-02T09:41:33.983Z</time></trkpt><trkpt lat="42.98165" lon="13.1500683"><ele>1550.6666666666667</ele><time>2026-05-02T09:41:34.983Z</time></trkpt><trkpt lat="42.98157" lon="13.150095"><ele>1547.0</ele><time>2026-05-02T09:41:35.982Z</time></trkpt><trkpt lat="42.9814933" lon="13.1501217"><ele>1543.3333333333335</ele><time>2026-05-02T09:41:36.982Z</time></trkpt><trkpt lat="42.98141" lon="13.150155"><ele>1539.6666666666667</ele><time>2026-05-02T09:41:37.983Z</time></trkpt><trkpt lat="42.9813183" lon="13.1501917"><ele>1536.0</ele><time>2026-05-02T09:41:38.984Z</time></trkpt><trkpt lat="42.9812217" lon="13.1502333"><ele>1536.0</ele><time>2026-05-02T09:41:39.983Z</time></trkpt><trkpt lat="42.981115" lon="13.1502633"><ele>1536.0</ele><time>2026-05-02T09:41:40.983Z</time></trkpt><trkpt lat="42.9810017" lon="13.1503083"><ele>1536.0</ele><time>2026-05-02T09:41:41.982Z</time></trkpt><trkpt lat="42.9808817" lon="13.1503683"><ele>1536.0</ele><time>2026-05-02T09:41:42.982Z</time></trkpt><trkpt lat="42.9807533" lon="13.1504567"><ele>1537.5</ele><time>2026-05-02T09:41:43.982Z</time></trkpt><trkpt lat="42.9806283" lon="13.150555"><ele>1539.0</ele><time>2026-05-02T09:41:44.981Z</time></trkpt><trkpt lat="42.9805133" lon="13.15065"><ele>1540.5</ele><time>2026-05-02T09:41:45.981Z</time></trkpt><trkpt lat="42.9803933" lon="13.15074"><ele>1542.0</ele><time>2026-05-02T09:41:46.982Z</time></trkpt><trkpt lat="42.9802617" lon="13.150825"><ele>1537.75</ele><time>2026-05-02T09:41:47.983Z</time></trkpt><trkpt lat="42.9801217" lon="13.1509083"><ele>1533.5</ele><time>2026-05-02T09:41:48.982Z</time></trkpt><trkpt lat="42.9799833" lon="13.150985"><ele>1529.25</ele><time>2026-05-02T09:41:49.981Z</time></trkpt><trkpt lat="42.9798517" lon="13.1510567"><ele>1525.0</ele><time>2026-05-02T09:41:50.982Z</time></trkpt><trkpt lat="42.9797317" lon="13.1511283"><ele>1525.0</ele><time>2026-05-02T09:41:51.982Z</time></trkpt><trkpt lat="42.9796183" lon="13.151195"><ele>1525.0</ele><time>2026-05-02T09:41:52.981Z</time></trkpt><trkpt lat="42.9795067" lon="13.1512567"><ele>1525.0</ele><time>2026-05-02T09:41:53.982Z</time></trkpt><trkpt lat="42.9793983" lon="13.1513117"><ele>1525.0</ele><time>2026-05-02T09:41:54.983Z</time></trkpt><trkpt lat="42.97929" lon="13.1513583"><ele>1525.0</ele><time>2026-05-02T09:41:55.981Z</time></trkpt><trkpt lat="42.9791883" lon="13.1513917"><ele>1525.0</ele><time>2026-05-02T09:41:56.981Z</time></trkpt><trkpt lat="42.979095" lon="13.1514083"><ele>1525.0</ele><time>2026-05-02T09:41:57.982Z</time></trkpt><trkpt lat="42.9790083" lon="13.1514"><ele>1525.0</ele><time>2026-05-02T09:41:58.981Z</time></trkpt><trkpt lat="42.97892" lon="13.1513717"><ele>1525.0</ele><time>2026-05-02T09:41:59.983Z</time></trkpt><trkpt lat="42.9788233" lon="13.1513067"><ele>1525.0</ele><time>2026-05-02T09:42:00.982Z</time></trkpt><trkpt lat="42.97873" lon="13.1512217"><ele>1525.0</ele><time>2026-05-02T09:42:01.981Z</time></trkpt><trkpt lat="42.9786417" lon="13.151135"><ele>1525.0</ele><time>2026-05-02T09:42:02.983Z</time></trkpt><trkpt lat="42.9785533" lon="13.1510483"><ele>1525.0</ele><time>2026-05-02T09:42:03.981Z</time></trkpt><trkpt lat="42.9784667" lon="13.1509683"><ele>1525.0</ele><time>2026-05-02T09:42:04.981Z</time></trkpt><trkpt lat="42.9783833" lon="13.1508967"><ele>1524.3333333333333</ele><time>2026-05-02T09:42:05.983Z</time></trkpt><trkpt lat="42.9783" lon="13.1508267"><ele>1523.6666666666665</ele><time>2026-05-02T09:42:06.982Z</time></trkpt><trkpt lat="42.97822" lon="13.1507667"><ele>1523.0</ele><time>2026-05-02T09:42:07.981Z</time></trkpt><trkpt lat="42.978145" lon="13.1507183"><ele>1522.3333333333333</ele><time>2026-05-02T09:42:08.982Z</time></trkpt><trkpt lat="42.9780667" lon="13.1506883"><ele>1521.6666666666667</ele><time>2026-05-02T09:42:09.982Z</time></trkpt><trkpt lat="42.9779783" lon="13.15067"><ele>1521.0</ele><time>2026-05-02T09:42:10.981Z</time></trkpt><trkpt lat="42.9778883" lon="13.1506733"><ele>1521.0</ele><time>2026-05-02T09:42:11.982Z</time></trkpt><trkpt lat="42.9778" lon="13.150705"><ele>1521.0</ele><time>2026-05-02T09:42:12.982Z</time></trkpt><trkpt lat="42.9777117" lon="13.1507617"><ele>1521.0</ele><time>2026-05-02T09:42:13.981Z</time></trkpt><trkpt lat="42.9776117" lon="13.150825"><ele>1521.0</ele><time>2026-05-02T09:42:14.981Z</time></trkpt><trkpt lat="42.9775017" lon="13.15088"><ele>1521.0</ele><time>2026-05-02T09:42:15.982Z</time></trkpt><trkpt lat="42.97738" lon="13.1509483"><ele>1516.75</ele><time>2026-05-02T09:42:16.981Z</time></trkpt><trkpt lat="42.9772517" lon="13.1510333"><ele>1512.5</ele><time>2026-05-02T09:42:17.981Z</time></trkpt><trkpt lat="42.97712" lon="13.1511183"><ele>1508.25</ele><time>2026-05-02T09:42:18.982Z</time></trkpt><trkpt lat="42.9769817" lon="13.1512"><ele>1504.0</ele><time>2026-05-02T09:42:19.981Z</time></trkpt><trkpt lat="42.9768483" lon="13.1512833"><ele>1504.0</ele><time>2026-05-02T09:42:20.982Z</time></trkpt><trkpt lat="42.9767233" lon="13.1513717"><ele>1504.0</ele><time>2026-05-02T09:42:21.981Z</time></trkpt><trkpt lat="42.9766" lon="13.15147"><ele>1504.0</ele><time>2026-05-02T09:42:22.981Z</time></trkpt><trkpt lat="42.9764767" lon="13.1515683"><ele>1504.0</ele><time>2026-05-02T09:42:23.981Z</time></trkpt><trkpt lat="42.9763467" lon="13.1516583"><ele>1506.6666666666665</ele><time>2026-05-02T09:42:24.981Z</time></trkpt><trkpt lat="42.976205" lon="13.1517367"><ele>1509.3333333333333</ele><time>2026-05-02T09:42:25.981Z</time></trkpt><trkpt lat="42.9760633" lon="13.1518117"><ele>1512.0</ele><time>2026-05-02T09:42:26.983Z</time></trkpt><trkpt lat="42.9759267" lon="13.1518917"><ele>1512.6666666666667</ele><time>2026-05-02T09:42:27.981Z</time></trkpt><trkpt lat="42.97579" lon="13.15197"><ele>1513.3333333333335</ele><time>2026-05-02T09:42:28.981Z</time></trkpt><trkpt lat="42.9756483" lon="13.1520517"><ele>1514.0</ele><time>2026-05-02T09:42:29.981Z</time></trkpt><trkpt lat="42.9754967" lon="13.15214"><ele>1514.0</ele><time>2026-05-02T09:42:30.982Z</time></trkpt><trkpt lat="42.9753467" lon="13.1522367"><ele>1514.0</ele><time>2026-05-02T09:42:31.981Z</time></trkpt><trkpt lat="42.9751917" lon="13.1523383"><ele>1514.0</ele><time>2026-05-02T09:42:32.981Z</time></trkpt><trkpt lat="42.975045" lon="13.1524367"><ele>1516.75</ele><time>2026-05-02T09:42:33.982Z</time></trkpt><trkpt lat="42.9749133" lon="13.1525233"><ele>1519.5</ele><time>2026-05-02T09:42:34.981Z</time></trkpt><trkpt lat="42.9747883" lon="13.1526067"><ele>1522.25</ele><time>2026-05-02T09:42:35.982Z</time></trkpt><trkpt lat="42.9746683" lon="13.1526817"><ele>1525.0</ele><time>2026-05-02T09:42:36.983Z</time></trkpt><trkpt lat="42.974545" lon="13.1527467"><ele>1525.0</ele><time>2026-05-02T09:42:37.981Z</time></trkpt><trkpt lat="42.974425" lon="13.1528133"><ele>1525.0</ele><time>2026-05-02T09:42:38.982Z</time></trkpt><trkpt lat="42.9743067" lon="13.1528883"><ele>1525.0</ele><time>2026-05-02T09:42:39.981Z</time></trkpt><trkpt lat="42.974195" lon="13.1529717"><ele>1525.0</ele><time>2026-05-02T09:42:40.982Z</time></trkpt><trkpt lat="42.9740933" lon="13.1530567"><ele>1524.8</ele><time>2026-05-02T09:42:41.981Z</time></trkpt><trkpt lat="42.974" lon="13.1531483"><ele>1524.6</ele><time>2026-05-02T09:42:42.981Z</time></trkpt><trkpt lat="42.9739217" lon="13.1532517"><ele>1524.4</ele><time>2026-05-02T09:42:43.982Z</time></trkpt><trkpt lat="42.9738517" lon="13.1533667"><ele>1524.2</ele><time>2026-05-02T09:42:44.982Z</time></trkpt><trkpt lat="42.9737867" lon="13.153485"><ele>1524.0</ele><time>2026-05-02T09:42:45.981Z</time></trkpt><trkpt lat="42.9737217" lon="13.1536033"><ele>1525.5</ele><time>2026-05-02T09:42:46.982Z</time></trkpt><trkpt lat="42.97365" lon="13.15372"><ele>1527.0</ele><time>2026-05-02T09:42:47.983Z</time></trkpt><trkpt lat="42.973575" lon="13.1538367"><ele>1528.5</ele><time>2026-05-02T09:42:48.982Z</time></trkpt><trkpt lat="42.9734967" lon="13.1539567"><ele>1530.0</ele><time>2026-05-02T09:42:49.981Z</time></trkpt><trkpt lat="42.9734167" lon="13.1540833"><ele>1531.75</ele><time>2026-05-02T09:42:50.982Z</time></trkpt><trkpt lat="42.9733333" lon="13.1542117"><ele>1533.5</ele><time>2026-05-02T09:42:51.982Z</time></trkpt><trkpt lat="42.973245" lon="13.1543383"><ele>1535.25</ele><time>2026-05-02T09:42:52.982Z</time></trkpt><trkpt lat="42.9731517" lon="13.15446"><ele>1537.0</ele><time>2026-05-02T09:42:53.982Z</time></trkpt><trkpt lat="42.9730533" lon="13.15457"><ele>1537.0</ele><time>2026-05-02T09:42:54.981Z</time></trkpt><trkpt lat="42.972945" lon="13.1546667"><ele>1537.0</ele><time>2026-05-02T09:42:55.981Z</time></trkpt><trkpt lat="42.9728283" lon="13.1547683"><ele>1537.0</ele><time>2026-05-02T09:42:56.982Z</time></trkpt><trkpt lat="42.972715" lon="13.1548833"><ele>1537.0</ele><time>2026-05-02T09:42:57.982Z</time></trkpt><trkpt lat="42.9726" lon="13.1550133"><ele>1539.3333333333335</ele><time>2026-05-02T09:42:58.981Z</time></trkpt><trkpt lat="42.972475" lon="13.1551417"><ele>1541.6666666666665</ele><time>2026-05-02T09:42:59.981Z</time></trkpt><trkpt lat="42.9723467" lon="13.155275"><ele>1544.0</ele><time>2026-05-02T09:43:00.982Z</time></trkpt><trkpt lat="42.9722167" lon="13.15541"><ele>1544.0</ele><time>2026-05-02T09:43:01.981Z</time></trkpt><trkpt lat="42.972085" lon="13.1555517"><ele>1544.0</ele><time>2026-05-02T09:43:02.982Z</time></trkpt><trkpt lat="42.971955" lon="13.1556933"><ele>1544.0</ele><time>2026-05-02T09:43:03.981Z</time></trkpt><trkpt lat="42.97183" lon="13.1558217"><ele>1545.5</ele><time>2026-05-02T09:43:04.981Z</time></trkpt><trkpt lat="42.9717183" lon="13.15594"><ele>1547.0</ele><time>2026-05-02T09:43:05.983Z</time></trkpt><trkpt lat="42.971605" lon="13.156055"><ele>1548.5</ele><time>2026-05-02T09:43:06.981Z</time></trkpt><trkpt lat="42.9714867" lon="13.156165"><ele>1550.0</ele><time>2026-05-02T09:43:07.982Z</time></trkpt><trkpt lat="42.9713583" lon="13.1562783"><ele>1550.0</ele><time>2026-05-02T09:43:08.984Z</time></trkpt><trkpt lat="42.97123" lon="13.15639"><ele>1550.0</ele><time>2026-05-02T09:43:09.982Z</time></trkpt><trkpt lat="42.9710983" lon="13.1564933"><ele>1550.0</ele><time>2026-05-02T09:43:10.982Z</time></trkpt><trkpt lat="42.97097" lon="13.1565767"><ele>1550.0</ele><time>2026-05-02T09:43:11.981Z</time></trkpt><trkpt lat="42.9708383" lon="13.156645"><ele>1552.5</ele><time>2026-05-02T09:43:12.981Z</time></trkpt><trkpt lat="42.9707083" lon="13.1566967"><ele>1555.0</ele><time>2026-05-02T09:43:13.982Z</time></trkpt><trkpt lat="42.970575" lon="13.1567217"><ele>1557.5</ele><time>2026-05-02T09:43:14.982Z</time></trkpt><trkpt lat="42.9704283" lon="13.156725"><ele>1560.0</ele><time>2026-05-02T09:43:15.982Z</time></trkpt><trkpt lat="42.970275" lon="13.156715"><ele>1560.0</ele><time>2026-05-02T09:43:16.981Z</time></trkpt><trkpt lat="42.97013" lon="13.1566933"><ele>1560.0</ele><time>2026-05-02T09:43:17.981Z</time></trkpt><trkpt lat="42.9699933" lon="13.1566617"><ele>1560.0</ele><time>2026-05-02T09:43:18.981Z</time></trkpt><trkpt lat="42.9698483" lon="13.15663"><ele>1560.0</ele><time>2026-05-02T09:43:19.982Z</time></trkpt><trkpt lat="42.969705" lon="13.1565967"><ele>1559.75</ele><time>2026-05-02T09:43:20.982Z</time></trkpt><trkpt lat="42.9695683" lon="13.1565667"><ele>1559.5</ele><time>2026-05-02T09:43:21.982Z</time></trkpt><trkpt lat="42.9694433" lon="13.15654"><ele>1559.25</ele><time>2026-05-02T09:43:22.981Z</time></trkpt><trkpt lat="42.9693367" lon="13.1565217"><ele>1559.0</ele><time>2026-05-02T09:43:23.981Z</time></trkpt><trkpt lat="42.9692517" lon="13.156515"><ele>1559.1666666666665</ele><time>2026-05-02T09:43:24.985Z</time></trkpt><trkpt lat="42.969175" lon="13.1565267"><ele>1559.3333333333333</ele><time>2026-05-02T09:43:25.982Z</time></trkpt><trkpt lat="42.9690983" lon="13.156545"><ele>1559.5</ele><time>2026-05-02T09:43:26.982Z</time></trkpt><trkpt lat="42.9690317" lon="13.1565617"><ele>1559.6666666666665</ele><time>2026-05-02T09:43:27.981Z</time></trkpt><trkpt lat="42.9689367" lon="13.15658"><ele>1559.8333333333333</ele><time>2026-05-02T09:43:29.982Z</time></trkpt><trkpt lat="42.96887" lon="13.1566067"><ele>1560.0</ele><time>2026-05-02T09:43:31.981Z</time></trkpt><trkpt lat="42.9688167" lon="13.156675"><ele>1560.6666666666667</ele><time>2026-05-02T09:43:34.981Z</time></trkpt><trkpt lat="42.9688483" lon="13.1567833"><ele>1561.3333333333335</ele><time>2026-05-02T09:43:37.985Z</time></trkpt><trkpt lat="42.96895" lon="13.1568333"><ele>1562.0</ele><time>2026-05-02T09:43:39.981Z</time></trkpt><trkpt lat="42.9690117" lon="13.1568683"><ele>1562.6666666666667</ele><time>2026-05-02T09:43:40.981Z</time></trkpt><trkpt lat="42.9690717" lon="13.1569183"><ele>1563.3333333333335</ele><time>2026-05-02T09:43:41.981Z</time></trkpt><trkpt lat="42.9691383" lon="13.1569833"><ele>1564.0</ele><time>2026-05-02T09:43:42.982Z</time></trkpt><trkpt lat="42.9692083" lon="13.157055"><ele>1564.0</ele><time>2026-05-02T09:43:43.981Z</time></trkpt><trkpt lat="42.969295" lon="13.1571383"><ele>1564.0</ele><time>2026-05-02T09:43:44.981Z</time></trkpt><trkpt lat="42.9693933" lon="13.1572317"><ele>1564.0</ele><time>2026-05-02T09:43:45.982Z</time></trkpt><trkpt lat="42.9695" lon="13.15733"><ele>1564.0</ele><time>2026-05-02T09:43:46.982Z</time></trkpt><trkpt lat="42.969615" lon="13.157425"><ele>1567.5</ele><time>2026-05-02T09:43:47.982Z</time></trkpt><trkpt lat="42.9697383" lon="13.1575283"><ele>1571.0</ele><time>2026-05-02T09:43:48.982Z</time></trkpt><trkpt lat="42.9698667" lon="13.1576417"><ele>1574.5</ele><time>2026-05-02T09:43:49.981Z</time></trkpt><trkpt lat="42.9699967" lon="13.1577433"><ele>1578.0</ele><time>2026-05-02T09:43:50.981Z</time></trkpt><trkpt lat="42.97013" lon="13.1578183"><ele>1578.0</ele><time>2026-05-02T09:43:51.982Z</time></trkpt><trkpt lat="42.9702733" lon="13.1578767"><ele>1578.0</ele><time>2026-05-02T09:43:52.983Z</time></trkpt><trkpt lat="42.970425" lon="13.1579167"><ele>1578.0</ele><time>2026-05-02T09:43:53.981Z</time></trkpt><trkpt lat="42.970575" lon="13.1579433"><ele>1578.0</ele><time>2026-05-02T09:43:54.981Z</time></trkpt><trkpt lat="42.970725" lon="13.1579617"><ele>1578.0</ele><time>2026-05-02T09:43:55.982Z</time></trkpt><trkpt lat="42.970865" lon="13.1579733"><ele>1578.0</ele><time>2026-05-02T09:43:56.983Z</time></trkpt><trkpt lat="42.971005" lon="13.1579933"><ele>1578.0</ele><time>2026-05-02T09:43:57.982Z</time></trkpt><trkpt lat="42.9711533" lon="13.158"><ele>1580.75</ele><time>2026-05-02T09:43:58.981Z</time></trkpt><trkpt lat="42.971305" lon="13.1579967"><ele>1583.5</ele><time>2026-05-02T09:43:59.983Z</time></trkpt><trkpt lat="42.97144" lon="13.1580017"><ele>1586.25</ele><time>2026-05-02T09:44:00.983Z</time></trkpt><trkpt lat="42.97157" lon="13.1580017"><ele>1589.0</ele><time>2026-05-02T09:44:01.982Z</time></trkpt><trkpt lat="42.9716933" lon="13.15799"><ele>1591.75</ele><time>2026-05-02T09:44:02.981Z</time></trkpt><trkpt lat="42.971815" lon="13.1579617"><ele>1594.5</ele><time>2026-05-02T09:44:03.981Z</time></trkpt><trkpt lat="42.9719433" lon="13.15793"><ele>1597.25</ele><time>2026-05-02T09:44:04.981Z</time></trkpt><trkpt lat="42.97208" lon="13.157895"><ele>1600.0</ele><time>2026-05-02T09:44:05.982Z</time></trkpt><trkpt lat="42.9722083" lon="13.1578533"><ele>1600.0</ele><time>2026-05-02T09:44:06.981Z</time></trkpt><trkpt lat="42.972325" lon="13.1578117"><ele>1600.0</ele><time>2026-05-02T09:44:07.981Z</time></trkpt><trkpt lat="42.9724433" lon="13.157765"><ele>1600.0</ele><time>2026-05-02T09:44:08.981Z</time></trkpt><trkpt lat="42.9725667" lon="13.1577133"><ele>1600.0</ele><time>2026-05-02T09:44:09.981Z</time></trkpt><trkpt lat="42.97269" lon="13.1576517"><ele>1602.0</ele><time>2026-05-02T09:44:10.981Z</time></trkpt><trkpt lat="42.9728183" lon="13.1575833"><ele>1604.0</ele><time>2026-05-02T09:44:11.981Z</time></trkpt><trkpt lat="42.97295" lon="13.1575083"><ele>1606.0</ele><time>2026-05-02T09:44:12.981Z</time></trkpt><trkpt lat="42.9730833" lon="13.1574417"><ele>1608.0</ele><time>2026-05-02T09:44:13.982Z</time></trkpt><trkpt lat="42.973205" lon="13.157385"><ele>1606.0</ele><time>2026-05-02T09:44:14.982Z</time></trkpt><trkpt lat="42.9733133" lon="13.1573367"><ele>1604.0</ele><time>2026-05-02T09:44:15.982Z</time></trkpt><trkpt lat="42.973405" lon="13.1573"><ele>1602.0</ele><time>2026-05-02T09:44:16.982Z</time></trkpt><trkpt lat="42.9734817" lon="13.1572783"><ele>1600.0</ele><time>2026-05-02T09:44:17.982Z</time></trkpt><trkpt lat="42.9735467" lon="13.157275"><ele>1598.0</ele><time>2026-05-02T09:44:18.982Z</time></trkpt><trkpt lat="42.9736383" lon="13.1573117"><ele>1596.0</ele><time>2026-05-02T09:44:20.981Z</time></trkpt><trkpt lat="42.9736967" lon="13.157415"><ele>1596.0</ele><time>2026-05-02T09:44:22.982Z</time></trkpt><trkpt lat="42.9736883" lon="13.15755"><ele>1596.0</ele><time>2026-05-02T09:44:24.981Z</time></trkpt><trkpt lat="42.9736283" lon="13.1576883"><ele>1596.0</ele><time>2026-05-02T09:44:26.981Z</time></trkpt><trkpt lat="42.97355" lon="13.1578183"><ele>1596.0</ele><time>2026-05-02T09:44:28.983Z</time></trkpt><trkpt lat="42.9735083" lon="13.1578867"><ele>1596.0</ele><time>2026-05-02T09:44:29.982Z</time></trkpt><trkpt lat="42.9734633" lon="13.1579533"><ele>1596.0</ele><time>2026-05-02T09:44:30.983Z</time></trkpt><trkpt lat="42.97341" lon="13.1580183"><ele>1596.0</ele><time>2026-05-02T09:44:31.982Z</time></trkpt><trkpt lat="42.9733533" lon="13.158095"><ele>1596.0</ele><time>2026-05-02T09:44:32.983Z</time></trkpt><trkpt lat="42.9732917" lon="13.15818"><ele>1596.0</ele><time>2026-05-02T09:44:33.981Z</time></trkpt><trkpt lat="42.973225" lon="13.1582733"><ele>1596.0</ele><time>2026-05-02T09:44:34.983Z</time></trkpt><trkpt lat="42.9731583" lon="13.15837"><ele>1596.0</ele><time>2026-05-02T09:44:35.983Z</time></trkpt><trkpt lat="42.97309" lon="13.1584733"><ele>1598.6</ele><time>2026-05-02T09:44:36.983Z</time></trkpt><trkpt lat="42.97302" lon="13.1585783"><ele>1601.1999999999998</ele><time>2026-05-02T09:44:37.982Z</time></trkpt><trkpt lat="42.9729467" lon="13.1586817"><ele>1603.8000000000002</ele><time>2026-05-02T09:44:38.982Z</time></trkpt><trkpt lat="42.9728683" lon="13.1587817"><ele>1606.4</ele><time>2026-05-02T09:44:39.983Z</time></trkpt><trkpt lat="42.97278" lon="13.158875"><ele>1609.0</ele><time>2026-05-02T09:44:40.981Z</time></trkpt><trkpt lat="42.97269" lon="13.1589633"><ele>1605.5</ele><time>2026-05-02T09:44:41.982Z</time></trkpt><trkpt lat="42.9725967" lon="13.15905"><ele>1602.0</ele><time>2026-05-02T09:44:42.982Z</time></trkpt><trkpt lat="42.9724983" lon="13.159135"><ele>1598.5</ele><time>2026-05-02T09:44:43.984Z</time></trkpt><trkpt lat="42.9723967" lon="13.1592183"><ele>1595.0</ele><time>2026-05-02T09:44:44.983Z</time></trkpt><trkpt lat="42.9722967" lon="13.1592883"><ele>1603.25</ele><time>2026-05-02T09:44:45.982Z</time></trkpt><trkpt lat="42.9721883" lon="13.159355"><ele>1611.5</ele><time>2026-05-02T09:44:46.981Z</time></trkpt><trkpt lat="42.9720767" lon="13.1594167"><ele>1619.75</ele><time>2026-05-02T09:44:47.982Z</time></trkpt><trkpt lat="42.97197" lon="13.159475"><ele>1628.0</ele><time>2026-05-02T09:44:48.981Z</time></trkpt><trkpt lat="42.971865" lon="13.1595317"><ele>1628.0</ele><time>2026-05-02T09:44:49.982Z</time></trkpt><trkpt lat="42.971755" lon="13.1595767"><ele>1628.0</ele><time>2026-05-02T09:44:50.981Z</time></trkpt><trkpt lat="42.9716367" lon="13.15961"><ele>1628.0</ele><time>2026-05-02T09:44:51.981Z</time></trkpt><trkpt lat="42.971525" lon="13.1596383"><ele>1628.0</ele><time>2026-05-02T09:44:52.982Z</time></trkpt><trkpt lat="42.9714183" lon="13.1596683"><ele>1629.4999999999998</ele><time>2026-05-02T09:44:53.981Z</time></trkpt><trkpt lat="42.9713167" lon="13.1597017"><ele>1631.0</ele><time>2026-05-02T09:44:54.981Z</time></trkpt><trkpt lat="42.97123" lon="13.1597333"><ele>1632.5</ele><time>2026-05-02T09:44:55.982Z</time></trkpt><trkpt lat="42.971155" lon="13.1597533"><ele>1634.0</ele><time>2026-05-02T09:44:56.981Z</time></trkpt><trkpt lat="42.9710883" lon="13.1597567"><ele>1635.4999999999998</ele><time>2026-05-02T09:44:57.981Z</time></trkpt><trkpt lat="42.971025" lon="13.1597533"><ele>1637.0</ele><time>2026-05-02T09:44:58.982Z</time></trkpt><trkpt lat="42.9709017" lon="13.1597267"><ele>1636.8333333333333</ele><time>2026-05-02T09:45:00.981Z</time></trkpt><trkpt lat="42.9707833" lon="13.1596933"><ele>1636.6666666666665</ele><time>2026-05-02T09:45:02.982Z</time></trkpt><trkpt lat="42.9707167" lon="13.1596767"><ele>1636.5</ele><time>2026-05-02T09:45:03.981Z</time></trkpt><trkpt lat="42.97065" lon="13.15966"><ele>1636.3333333333335</ele><time>2026-05-02T09:45:04.981Z</time></trkpt><trkpt lat="42.9705817" lon="13.1596383"><ele>1636.1666666666667</ele><time>2026-05-02T09:45:05.983Z</time></trkpt><trkpt lat="42.9705033" lon="13.15961"><ele>1636.0</ele><time>2026-05-02T09:45:06.982Z</time></trkpt><trkpt lat="42.970425" lon="13.159575"><ele>1636.0000000000002</ele><time>2026-05-02T09:45:07.982Z</time></trkpt><trkpt lat="42.97034" lon="13.1595417"><ele>1636.0</ele><time>2026-05-02T09:45:08.982Z</time></trkpt><trkpt lat="42.9702533" lon="13.159515"><ele>1636.0</ele><time>2026-05-02T09:45:09.983Z</time></trkpt><trkpt lat="42.9701767" lon="13.159495"><ele>1636.0</ele><time>2026-05-02T09:45:10.982Z</time></trkpt><trkpt lat="42.9701067" lon="13.15948"><ele>1636.0000000000002</ele><time>2026-05-02T09:45:11.982Z</time></trkpt><trkpt lat="42.9700367" lon="13.159465"><ele>1636.0</ele><time>2026-05-02T09:45:12.982Z</time></trkpt><trkpt lat="42.9699633" lon="13.1594517"><ele>1637.3333333333335</ele><time>2026-05-02T09:45:13.983Z</time></trkpt><trkpt lat="42.9698833" lon="13.1594383"><ele>1638.6666666666667</ele><time>2026-05-02T09:45:14.982Z</time></trkpt><trkpt lat="42.9698033" lon="13.1594283"><ele>1640.0</ele><time>2026-05-02T09:45:15.982Z</time></trkpt><trkpt lat="42.9697217" lon="13.1594217"><ele>1641.3333333333335</ele><time>2026-05-02T09:45:16.981Z</time></trkpt><trkpt lat="42.9696367" lon="13.159415"><ele>1642.6666666666667</ele><time>2026-05-02T09:45:17.981Z</time></trkpt><trkpt lat="42.9695467" lon="13.159405"><ele>1644.0</ele><time>2026-05-02T09:45:18.982Z</time></trkpt><trkpt lat="42.969455" lon="13.1593983"><ele>1644.0</ele><time>2026-05-02T09:45:19.982Z</time></trkpt><trkpt lat="42.9693617" lon="13.159395"><ele>1644.0</ele><time>2026-05-02T09:45:20.983Z</time></trkpt><trkpt lat="42.969265" lon="13.1593917"><ele>1644.0</ele><time>2026-05-02T09:45:21.981Z</time></trkpt><trkpt lat="42.9691717" lon="13.15939"><ele>1644.0</ele><time>2026-05-02T09:45:22.981Z</time></trkpt><trkpt lat="42.969075" lon="13.15939"><ele>1644.0</ele><time>2026-05-02T09:45:23.981Z</time></trkpt><trkpt lat="42.9689733" lon="13.15939"><ele>1645.6</ele><time>2026-05-02T09:45:24.982Z</time></trkpt><trkpt lat="42.9688833" lon="13.159395"><ele>1647.2</ele><time>2026-05-02T09:45:25.982Z</time></trkpt><trkpt lat="42.9688117" lon="13.1594017"><ele>1648.8</ele><time>2026-05-02T09:45:26.982Z</time></trkpt><trkpt lat="42.9687033" lon="13.1594067"><ele>1650.3999999999999</ele><time>2026-05-02T09:45:28.981Z</time></trkpt><trkpt lat="42.9685533" lon="13.1593417"><ele>1652.0</ele><time>2026-05-02T09:45:48.629Z</time></trkpt><trkpt lat="42.96862" lon="13.1593983"><ele>1651.9999999999998</ele><time>2026-05-02T09:45:50.981Z</time></trkpt><trkpt lat="42.968695" lon="13.15939"><ele>1652.0</ele><time>2026-05-02T09:50:54.983Z</time></trkpt><trkpt lat="42.9687883" lon="13.1593967"><ele>1652.0</ele><time>2026-05-02T09:50:57.982Z</time></trkpt><trkpt lat="42.9688717" lon="13.1593933"><ele>1652.0</ele><time>2026-05-02T09:50:59.981Z</time></trkpt><trkpt lat="42.9689833" lon="13.1593917"><ele>1651.9999999999998</ele><time>2026-05-02T09:51:01.982Z</time></trkpt><trkpt lat="42.9690467" lon="13.1593933"><ele>1652.0</ele><time>2026-05-02T09:51:02.983Z</time></trkpt><trkpt lat="42.969115" lon="13.1593967"><ele>1652.0</ele><time>2026-05-02T09:51:03.982Z</time></trkpt><trkpt lat="42.96919" lon="13.1594017"><ele>1652.0</ele><time>2026-05-02T09:51:04.981Z</time></trkpt><trkpt lat="42.9692617" lon="13.1594033"><ele>1652.0</ele><time>2026-05-02T09:51:05.982Z</time></trkpt><trkpt lat="42.969335" lon="13.1594017"><ele>1652.0</ele><time>2026-05-02T09:51:06.983Z</time></trkpt><trkpt lat="42.9694067" lon="13.1594017"><ele>1652.0</ele><time>2026-05-02T09:51:07.988Z</time></trkpt><trkpt lat="42.96948" lon="13.1594033"><ele>1652.0</ele><time>2026-05-02T09:51:08.984Z</time></trkpt><trkpt lat="42.96956" lon="13.1594117"><ele>1652.0</ele><time>2026-05-02T09:51:09.983Z</time></trkpt><trkpt lat="42.9696417" lon="13.1594233"><ele>1650.6666666666665</ele><time>2026-05-02T09:51:10.981Z</time></trkpt><trkpt lat="42.9697233" lon="13.159435"><ele>1649.3333333333333</ele><time>2026-05-02T09:51:11.983Z</time></trkpt><trkpt lat="42.9698" lon="13.15944"><ele>1648.0</ele><time>2026-05-02T09:51:12.983Z</time></trkpt><trkpt lat="42.9698717" lon="13.1594467"><ele>1646.6666666666665</ele><time>2026-05-02T09:51:13.982Z</time></trkpt><trkpt lat="42.96995" lon="13.159455"><ele>1645.3333333333333</ele><time>2026-05-02T09:51:14.984Z</time></trkpt><trkpt lat="42.970035" lon="13.1594717"><ele>1644.0</ele><time>2026-05-02T09:51:15.982Z</time></trkpt><trkpt lat="42.9701267" lon="13.1594917"><ele>1642.4</ele><time>2026-05-02T09:51:16.985Z</time></trkpt><trkpt lat="42.9702217" lon="13.1595133"><ele>1640.8000000000002</ele><time>2026-05-02T09:51:17.982Z</time></trkpt><trkpt lat="42.970315" lon="13.1595383"><ele>1639.1999999999998</ele><time>2026-05-02T09:51:18.983Z</time></trkpt><trkpt lat="42.9704067" lon="13.159565"><ele>1637.6</ele><time>2026-05-02T09:51:19.984Z</time></trkpt><trkpt lat="42.9704933" lon="13.1595933"><ele>1636.0</ele><time>2026-05-02T09:51:20.983Z</time></trkpt><trkpt lat="42.97057" lon="13.1596283"><ele>1636.0000000000002</ele><time>2026-05-02T09:51:21.982Z</time></trkpt><trkpt lat="42.9706433" lon="13.15966"><ele>1636.0</ele><time>2026-05-02T09:51:22.983Z</time></trkpt><trkpt lat="42.9707217" lon="13.15969"><ele>1636.0</ele><time>2026-05-02T09:51:23.983Z</time></trkpt><trkpt lat="42.9708" lon="13.1597167"><ele>1636.0</ele><time>2026-05-02T09:51:24.983Z</time></trkpt><trkpt lat="42.970875" lon="13.15974"><ele>1636.0000000000002</ele><time>2026-05-02T09:51:25.983Z</time></trkpt><trkpt lat="42.9709567" lon="13.1597633"><ele>1636.0</ele><time>2026-05-02T09:51:27.983Z</time></trkpt><trkpt lat="42.9709483" lon="13.1596667"><ele>1636.1666666666667</ele><time>2026-05-02T09:51:33.981Z</time></trkpt><trkpt lat="42.97087" lon="13.1596767"><ele>1636.3333333333335</ele><time>2026-05-02T09:51:36.982Z</time></trkpt><trkpt lat="42.9709217" lon="13.1597567"><ele>1636.5</ele><time>2026-05-02T10:00:52.982Z</time></trkpt><trkpt lat="42.971045" lon="13.15976"><ele>1636.6666666666665</ele><time>2026-05-02T10:00:54.984Z</time></trkpt><trkpt lat="42.971125" lon="13.1597483"><ele>1636.8333333333333</ele><time>2026-05-02T10:00:55.984Z</time></trkpt><trkpt lat="42.9712067" lon="13.1597317"><ele>1637.0</ele><time>2026-05-02T10:00:56.984Z</time></trkpt><trkpt lat="42.9712917" lon="13.15971"><ele>1636.9999999999998</ele><time>2026-05-02T10:00:57.983Z</time></trkpt><trkpt lat="42.9713717" lon="13.1596867"><ele>1637.0</ele><time>2026-05-02T10:00:58.981Z</time></trkpt><trkpt lat="42.9714517" lon="13.159665"><ele>1637.0</ele><time>2026-05-02T10:00:59.983Z</time></trkpt><trkpt lat="42.9715383" lon="13.15964"><ele>1637.0</ele><time>2026-05-02T10:01:00.983Z</time></trkpt><trkpt lat="42.971635" lon="13.1596133"><ele>1636.9999999999998</ele><time>2026-05-02T10:01:01.982Z</time></trkpt><trkpt lat="42.97173" lon="13.1595883"><ele>1637.0</ele><time>2026-05-02T10:01:02.983Z</time></trkpt><trkpt lat="42.9718183" lon="13.1595583"><ele>1635.1999999999998</ele><time>2026-05-02T10:01:03.982Z</time></trkpt><trkpt lat="42.9719033" lon="13.1595267"><ele>1633.4</ele><time>2026-05-02T10:01:04.981Z</time></trkpt><trkpt lat="42.971995" lon="13.1594867"><ele>1631.6</ele><time>2026-05-02T10:01:05.982Z</time></trkpt><trkpt lat="42.9720983" lon="13.1594333"><ele>1629.8000000000002</ele><time>2026-05-02T10:01:06.984Z</time></trkpt><trkpt lat="42.9722067" lon="13.1593733"><ele>1628.0</ele><time>2026-05-02T10:01:07.984Z</time></trkpt><trkpt lat="42.9723117" lon="13.1593083"><ele>1628.0</ele><time>2026-05-02T10:01:08.982Z</time></trkpt><trkpt lat="42.972415" lon="13.159235"><ele>1628.0</ele><time>2026-05-02T10:01:09.983Z</time></trkpt><trkpt lat="42.9725183" lon="13.1591483"><ele>1628.0</ele><time>2026-05-02T10:01:10.981Z</time></trkpt><trkpt lat="42.9726217" lon="13.1590567"><ele>1628.0</ele><time>2026-05-02T10:01:11.984Z</time></trkpt><trkpt lat="42.9727217" lon="13.15896"><ele>1623.25</ele><time>2026-05-02T10:01:12.983Z</time></trkpt><trkpt lat="42.972815" lon="13.1588617"><ele>1618.5</ele><time>2026-05-02T10:01:13.984Z</time></trkpt><trkpt lat="42.9729067" lon="13.1587583"><ele>1613.75</ele><time>2026-05-02T10:01:14.984Z</time></trkpt><trkpt lat="42.9729967" lon="13.1586433"><ele>1609.0</ele><time>2026-05-02T10:01:15.982Z</time></trkpt><trkpt lat="42.97309" lon="13.1585217"><ele>1609.0</ele><time>2026-05-02T10:01:16.981Z</time></trkpt><trkpt lat="42.9731783" lon="13.1583933"><ele>1609.0</ele><time>2026-05-02T10:01:17.982Z</time></trkpt><trkpt lat="42.9732617" lon="13.1582633"><ele>1609.0</ele><time>2026-05-02T10:01:18.983Z</time></trkpt><trkpt lat="42.97334" lon="13.1581417"><ele>1609.0</ele><time>2026-05-02T10:01:19.982Z</time></trkpt><trkpt lat="42.9734167" lon="13.1580283"><ele>1606.4</ele><time>2026-05-02T10:01:20.983Z</time></trkpt><trkpt lat="42.973495" lon="13.15792"><ele>1603.8000000000002</ele><time>2026-05-02T10:01:21.982Z</time></trkpt><trkpt lat="42.9735667" lon="13.157815"><ele>1601.1999999999998</ele><time>2026-05-02T10:01:22.982Z</time></trkpt><trkpt lat="42.9736283" lon="13.1577067"><ele>1598.6</ele><time>2026-05-02T10:01:23.982Z</time></trkpt><trkpt lat="42.9736717" lon="13.1576017"><ele>1596.0</ele><time>2026-05-02T10:01:24.984Z</time></trkpt><trkpt lat="42.9736983" lon="13.1574983"><ele>1596.0</ele><time>2026-05-02T10:01:25.984Z</time></trkpt><trkpt lat="42.973705" lon="13.1574117"><ele>1596.0</ele><time>2026-05-02T10:01:26.984Z</time></trkpt><trkpt lat="42.97365" lon="13.1573"><ele>1596.0</ele><time>2026-05-02T10:01:28.982Z</time></trkpt><trkpt lat="42.9735917" lon="13.157265"><ele>1596.0</ele><time>2026-05-02T10:01:29.984Z</time></trkpt><trkpt lat="42.9734917" lon="13.1572617"><ele>1596.0</ele><time>2026-05-02T10:01:30.984Z</time></trkpt><trkpt lat="42.9733767" lon="13.1572933"><ele>1596.0</ele><time>2026-05-02T10:01:31.982Z</time></trkpt><trkpt lat="42.9732583" lon="13.1573467"><ele>1599.0</ele><time>2026-05-02T10:01:32.983Z</time></trkpt><trkpt lat="42.9731417" lon="13.1574"><ele>1602.0</ele><time>2026-05-02T10:01:33.982Z</time></trkpt><trkpt lat="42.9730217" lon="13.1574533"><ele>1605.0</ele><time>2026-05-02T10:01:34.981Z</time></trkpt><trkpt lat="42.9729017" lon="13.15751"><ele>1608.0</ele><time>2026-05-02T10:01:35.982Z</time></trkpt><trkpt lat="42.9727833" lon="13.1575667"><ele>1608.0</ele><time>2026-05-02T10:01:36.983Z</time></trkpt><trkpt lat="42.9726633" lon="13.15763"><ele>1608.0</ele><time>2026-05-02T10:01:37.983Z</time></trkpt><trkpt lat="42.9725417" lon="13.1577017"><ele>1608.0</ele><time>2026-05-02T10:01:38.984Z</time></trkpt><trkpt lat="42.9724217" lon="13.15777"><ele>1608.0</ele><time>2026-05-02T10:01:39.983Z</time></trkpt><trkpt lat="42.9723067" lon="13.157825"><ele>1606.0</ele><time>2026-05-02T10:01:40.982Z</time></trkpt><trkpt lat="42.97219" lon="13.15787"><ele>1604.0</ele><time>2026-05-02T10:01:41.982Z</time></trkpt><trkpt lat="42.97207" lon="13.157905"><ele>1602.0</ele><time>2026-05-02T10:01:42.983Z</time></trkpt><trkpt lat="42.97195" lon="13.1579367"><ele>1600.0</ele><time>2026-05-02T10:01:43.982Z</time></trkpt><trkpt lat="42.971835" lon="13.1579733"><ele>1600.0</ele><time>2026-05-02T10:01:44.982Z</time></trkpt><trkpt lat="42.9717183" lon="13.158"><ele>1600.0</ele><time>2026-05-02T10:01:45.981Z</time></trkpt><trkpt lat="42.97159" lon="13.158015"><ele>1600.0</ele><time>2026-05-02T10:01:46.982Z</time></trkpt><trkpt lat="42.971455" lon="13.1580167"><ele>1600.0</ele><time>2026-05-02T10:01:47.982Z</time></trkpt><trkpt lat="42.9713183" lon="13.1580117"><ele>1597.25</ele><time>2026-05-02T10:01:48.981Z</time></trkpt><trkpt lat="42.971185" lon="13.1580083"><ele>1594.5</ele><time>2026-05-02T10:01:49.981Z</time></trkpt><trkpt lat="42.97106" lon="13.1580067"><ele>1591.75</ele><time>2026-05-02T10:01:50.981Z</time></trkpt><trkpt lat="42.97094" lon="13.157995"><ele>1589.0</ele><time>2026-05-02T10:01:51.982Z</time></trkpt><trkpt lat="42.9708283" lon="13.1579817"><ele>1586.25</ele><time>2026-05-02T10:01:52.981Z</time></trkpt><trkpt lat="42.9707083" lon="13.1579717"><ele>1583.5</ele><time>2026-05-02T10:01:53.982Z</time></trkpt><trkpt lat="42.9705783" lon="13.1579583"><ele>1580.75</ele><time>2026-05-02T10:01:54.981Z</time></trkpt><trkpt lat="42.97044" lon="13.1579333"><ele>1578.0</ele><time>2026-05-02T10:01:55.982Z</time></trkpt><trkpt lat="42.97029" lon="13.1578883"><ele>1578.0</ele><time>2026-05-02T10:01:56.982Z</time></trkpt><trkpt lat="42.9701417" lon="13.1578267"><ele>1578.0</ele><time>2026-05-02T10:01:57.981Z</time></trkpt><trkpt lat="42.9700083" lon="13.1577567"><ele>1578.0</ele><time>2026-05-02T10:01:58.981Z</time></trkpt><trkpt lat="42.9698817" lon="13.157665"><ele>1578.0</ele><time>2026-05-02T10:01:59.982Z</time></trkpt><trkpt lat="42.969755" lon="13.1575567"><ele>1579.6666666666665</ele><time>2026-05-02T10:02:00.981Z</time></trkpt><trkpt lat="42.9696217" lon="13.1574317"><ele>1581.3333333333333</ele><time>2026-05-02T10:02:01.982Z</time></trkpt><trkpt lat="42.9694833" lon="13.1573067"><ele>1583.0</ele><time>2026-05-02T10:02:02.982Z</time></trkpt><trkpt lat="42.9693517" lon="13.1571883"><ele>1579.75</ele><time>2026-05-02T10:02:03.982Z</time></trkpt><trkpt lat="42.96923" lon="13.15708"><ele>1576.5</ele><time>2026-05-02T10:02:04.986Z</time></trkpt><trkpt lat="42.9691167" lon="13.15698"><ele>1573.25</ele><time>2026-05-02T10:02:05.981Z</time></trkpt><trkpt lat="42.9690133" lon="13.1568967"><ele>1570.0</ele><time>2026-05-02T10:02:06.981Z</time></trkpt><trkpt lat="42.96892" lon="13.1568217"><ele>1570.0000000000002</ele><time>2026-05-02T10:02:07.983Z</time></trkpt><trkpt lat="42.9688417" lon="13.156755"><ele>1570.0</ele><time>2026-05-02T10:02:08.981Z</time></trkpt><trkpt lat="42.9687767" lon="13.156695"><ele>1570.0</ele><time>2026-05-02T10:02:09.982Z</time></trkpt><trkpt lat="42.968705" lon="13.1566417"><ele>1570.0</ele><time>2026-05-02T10:02:10.982Z</time></trkpt><trkpt lat="42.9686283" lon="13.1565933"><ele>1570.0000000000002</ele><time>2026-05-02T10:02:11.981Z</time></trkpt><trkpt lat="42.968535" lon="13.1565517"><ele>1570.0</ele><time>2026-05-02T10:02:12.981Z</time></trkpt><trkpt lat="42.9684317" lon="13.1565167"><ele>1566.5</ele><time>2026-05-02T10:02:13.982Z</time></trkpt><trkpt lat="42.9683217" lon="13.156485"><ele>1563.0</ele><time>2026-05-02T10:02:14.982Z</time></trkpt><trkpt lat="42.9682083" lon="13.1564483"><ele>1559.5</ele><time>2026-05-02T10:02:15.982Z</time></trkpt><trkpt lat="42.9680967" lon="13.1564217"><ele>1556.0</ele><time>2026-05-02T10:02:16.981Z</time></trkpt><trkpt lat="42.967985" lon="13.156405"><ele>1556.0</ele><time>2026-05-02T10:02:17.981Z</time></trkpt><trkpt lat="42.9678683" lon="13.156395"><ele>1556.0</ele><time>2026-05-02T10:02:18.983Z</time></trkpt><trkpt lat="42.9677533" lon="13.1563917"><ele>1556.0</ele><time>2026-05-02T10:02:19.982Z</time></trkpt><trkpt lat="42.96764" lon="13.1563967"><ele>1556.0</ele><time>2026-05-02T10:02:20.982Z</time></trkpt><trkpt lat="42.9675217" lon="13.1564183"><ele>1557.75</ele><time>2026-05-02T10:02:21.983Z</time></trkpt><trkpt lat="42.9674067" lon="13.1564467"><ele>1559.5</ele><time>2026-05-02T10:02:22.981Z</time></trkpt><trkpt lat="42.9672983" lon="13.1564783"><ele>1561.25</ele><time>2026-05-02T10:02:23.981Z</time></trkpt><trkpt lat="42.9671933" lon="13.156515"><ele>1563.0</ele><time>2026-05-02T10:02:24.982Z</time></trkpt><trkpt lat="42.9670833" lon="13.15656"><ele>1563.0</ele><time>2026-05-02T10:02:25.981Z</time></trkpt><trkpt lat="42.9669717" lon="13.156615"><ele>1563.0</ele><time>2026-05-02T10:02:26.983Z</time></trkpt><trkpt lat="42.9668583" lon="13.1566783"><ele>1563.0</ele><time>2026-05-02T10:02:27.981Z</time></trkpt><trkpt lat="42.9667417" lon="13.1567383"><ele>1563.0</ele><time>2026-05-02T10:02:28.982Z</time></trkpt><trkpt lat="42.96662" lon="13.1567967"><ele>1557.75</ele><time>2026-05-02T10:02:29.982Z</time></trkpt><trkpt lat="42.9664967" lon="13.15686"><ele>1552.5</ele><time>2026-05-02T10:02:30.981Z</time></trkpt><trkpt lat="42.9663767" lon="13.1569283"><ele>1547.25</ele><time>2026-05-02T10:02:31.981Z</time></trkpt><trkpt lat="42.9662483" lon="13.1569983"><ele>1542.0</ele><time>2026-05-02T10:02:32.982Z</time></trkpt><trkpt lat="42.966115" lon="13.157075"><ele>1542.0</ele><time>2026-05-02T10:02:33.982Z</time></trkpt><trkpt lat="42.965985" lon="13.157155"><ele>1542.0</ele><time>2026-05-02T10:02:34.981Z</time></trkpt><trkpt lat="42.9658517" lon="13.1572283"><ele>1542.0</ele><time>2026-05-02T10:02:35.981Z</time></trkpt><trkpt lat="42.9657217" lon="13.1572983"><ele>1542.0</ele><time>2026-05-02T10:02:36.981Z</time></trkpt><trkpt lat="42.9656017" lon="13.1573683"><ele>1544.75</ele><time>2026-05-02T10:02:37.982Z</time></trkpt><trkpt lat="42.9654767" lon="13.1574383"><ele>1547.5</ele><time>2026-05-02T10:02:38.982Z</time></trkpt><trkpt lat="42.9653367" lon="13.1575083"><ele>1550.25</ele><time>2026-05-02T10:02:39.981Z</time></trkpt><trkpt lat="42.9652017" lon="13.1575833"><ele>1553.0</ele><time>2026-05-02T10:02:40.981Z</time></trkpt><trkpt lat="42.9650717" lon="13.1576533"><ele>1546.0</ele><time>2026-05-02T10:02:41.982Z</time></trkpt><trkpt lat="42.9649467" lon="13.1577217"><ele>1539.0</ele><time>2026-05-02T10:02:42.982Z</time></trkpt><trkpt lat="42.9648167" lon="13.15779"><ele>1532.0</ele><time>2026-05-02T10:02:43.982Z</time></trkpt><trkpt lat="42.9646817" lon="13.1578617"><ele>1525.0</ele><time>2026-05-02T10:02:44.983Z</time></trkpt><trkpt lat="42.96456" lon="13.15794"><ele>1525.0</ele><time>2026-05-02T10:02:45.982Z</time></trkpt><trkpt lat="42.9644483" lon="13.1580183"><ele>1525.0</ele><time>2026-05-02T10:02:46.983Z</time></trkpt><trkpt lat="42.9643333" lon="13.1580933"><ele>1525.0</ele><time>2026-05-02T10:02:47.982Z</time></trkpt><trkpt lat="42.9642117" lon="13.1581567"><ele>1525.0</ele><time>2026-05-02T10:02:48.981Z</time></trkpt><trkpt lat="42.964085" lon="13.1582017"><ele>1526.75</ele><time>2026-05-02T10:02:49.982Z</time></trkpt><trkpt lat="42.9639617" lon="13.1582483"><ele>1528.5</ele><time>2026-05-02T10:02:50.982Z</time></trkpt><trkpt lat="42.9638433" lon="13.1582983"><ele>1530.25</ele><time>2026-05-02T10:02:51.982Z</time></trkpt><trkpt lat="42.963725" lon="13.1583433"><ele>1532.0</ele><time>2026-05-02T10:02:52.983Z</time></trkpt><trkpt lat="42.9636067" lon="13.158395"><ele>1532.0</ele><time>2026-05-02T10:02:53.982Z</time></trkpt><trkpt lat="42.963485" lon="13.1584417"><ele>1532.0</ele><time>2026-05-02T10:02:54.981Z</time></trkpt><trkpt lat="42.9633567" lon="13.1584817"><ele>1532.0</ele><time>2026-05-02T10:02:55.981Z</time></trkpt><trkpt lat="42.9632283" lon="13.1585267"><ele>1532.0</ele><time>2026-05-02T10:02:56.983Z</time></trkpt><trkpt lat="42.9630983" lon="13.1585733"><ele>1527.25</ele><time>2026-05-02T10:02:57.982Z</time></trkpt><trkpt lat="42.9629683" lon="13.1586233"><ele>1522.5</ele><time>2026-05-02T10:02:58.983Z</time></trkpt><trkpt lat="42.96284" lon="13.1586717"><ele>1517.75</ele><time>2026-05-02T10:02:59.982Z</time></trkpt><trkpt lat="42.96271" lon="13.1587133"><ele>1513.0</ele><time>2026-05-02T10:03:00.981Z</time></trkpt><trkpt lat="42.9625817" lon="13.158755"><ele>1508.6000000000001</ele><time>2026-05-02T10:03:01.981Z</time></trkpt><trkpt lat="42.9624617" lon="13.1587983"><ele>1504.2</ele><time>2026-05-02T10:03:02.981Z</time></trkpt><trkpt lat="42.9623583" lon="13.1588483"><ele>1499.8</ele><time>2026-05-02T10:03:03.982Z</time></trkpt><trkpt lat="42.9622717" lon="13.1589"><ele>1495.4</ele><time>2026-05-02T10:03:04.982Z</time></trkpt><trkpt lat="42.96219" lon="13.15894"><ele>1491.0</ele><time>2026-05-02T10:03:05.982Z</time></trkpt><trkpt lat="42.9621033" lon="13.1589633"><ele>1491.0</ele><time>2026-05-02T10:03:06.983Z</time></trkpt><trkpt lat="42.9619967" lon="13.158965"><ele>1491.0</ele><time>2026-05-02T10:03:07.983Z</time></trkpt><trkpt lat="42.9618683" lon="13.1589733"><ele>1491.0</ele><time>2026-05-02T10:03:08.981Z</time></trkpt><trkpt lat="42.9617333" lon="13.1590017"><ele>1491.0</ele><time>2026-05-02T10:03:09.982Z</time></trkpt><trkpt lat="42.961605" lon="13.1590333"><ele>1494.5</ele><time>2026-05-02T10:03:10.981Z</time></trkpt><trkpt lat="42.9614783" lon="13.1590617"><ele>1498.0</ele><time>2026-05-02T10:03:11.981Z</time></trkpt><trkpt lat="42.9613467" lon="13.1590883"><ele>1501.5</ele><time>2026-05-02T10:03:12.982Z</time></trkpt><trkpt lat="42.9612017" lon="13.1591067"><ele>1505.0</ele><time>2026-05-02T10:03:13.981Z</time></trkpt><trkpt lat="42.9610467" lon="13.1591267"><ele>1505.0</ele><time>2026-05-02T10:03:14.982Z</time></trkpt><trkpt lat="42.96089" lon="13.1591533"><ele>1505.0</ele><time>2026-05-02T10:03:15.981Z</time></trkpt><trkpt lat="42.9607383" lon="13.1591883"><ele>1505.0</ele><time>2026-05-02T10:03:16.981Z</time></trkpt><trkpt lat="42.96058" lon="13.1592333"><ele>1504.0</ele><time>2026-05-02T10:03:17.981Z</time></trkpt><trkpt lat="42.9604167" lon="13.159285"><ele>1503.0</ele><time>2026-05-02T10:03:18.983Z</time></trkpt><trkpt lat="42.9602417" lon="13.1593433"><ele>1502.0</ele><time>2026-05-02T10:03:19.983Z</time></trkpt><trkpt lat="42.96006" lon="13.1593917"><ele>1497.3333333333335</ele><time>2026-05-02T10:03:20.982Z</time></trkpt><trkpt lat="42.9598833" lon="13.159455"><ele>1492.6666666666667</ele><time>2026-05-02T10:03:21.986Z</time></trkpt><trkpt lat="42.959715" lon="13.1595083"><ele>1488.0</ele><time>2026-05-02T10:03:22.982Z</time></trkpt><trkpt lat="42.9595567" lon="13.159555"><ele>1488.0</ele><time>2026-05-02T10:03:23.982Z</time></trkpt><trkpt lat="42.9594067" lon="13.1596017"><ele>1488.0</ele><time>2026-05-02T10:03:24.982Z</time></trkpt><trkpt lat="42.95926" lon="13.159655"><ele>1488.0</ele><time>2026-05-02T10:03:25.983Z</time></trkpt><trkpt lat="42.959115" lon="13.1596983"><ele>1484.5</ele><time>2026-05-02T10:03:26.983Z</time></trkpt><trkpt lat="42.95898" lon="13.15975"><ele>1481.0</ele><time>2026-05-02T10:03:27.983Z</time></trkpt><trkpt lat="42.9588667" lon="13.1597917"><ele>1477.5</ele><time>2026-05-02T10:03:28.981Z</time></trkpt><trkpt lat="42.9587533" lon="13.15982"><ele>1474.0</ele><time>2026-05-02T10:03:29.983Z</time></trkpt><trkpt lat="42.9586483" lon="13.1598367"><ele>1474.0</ele><time>2026-05-02T10:03:30.982Z</time></trkpt><trkpt lat="42.95854" lon="13.1598267"><ele>1474.0</ele><time>2026-05-02T10:03:31.983Z</time></trkpt><trkpt lat="42.95842" lon="13.1597967"><ele>1474.0</ele><time>2026-05-02T10:03:32.983Z</time></trkpt><trkpt lat="42.9582967" lon="13.159745"><ele>1474.0</ele><time>2026-05-02T10:03:33.981Z</time></trkpt><trkpt lat="42.958175" lon="13.1596933"><ele>1472.5</ele><time>2026-05-02T10:03:34.982Z</time></trkpt><trkpt lat="42.958055" lon="13.1596567"><ele>1471.0</ele><time>2026-05-02T10:03:35.982Z</time></trkpt><trkpt lat="42.9579433" lon="13.15963"><ele>1469.5</ele><time>2026-05-02T10:03:36.982Z</time></trkpt><trkpt lat="42.9578283" lon="13.1595967"><ele>1468.0</ele><time>2026-05-02T10:03:37.982Z</time></trkpt><trkpt lat="42.9577083" lon="13.1595833"><ele>1468.0</ele><time>2026-05-02T10:03:38.983Z</time></trkpt><trkpt lat="42.9575933" lon="13.1595933"><ele>1468.0</ele><time>2026-05-02T10:03:39.982Z</time></trkpt><trkpt lat="42.9574683" lon="13.1596183"><ele>1468.0</ele><time>2026-05-02T10:03:40.982Z</time></trkpt><trkpt lat="42.95732" lon="13.1596617"><ele>1468.0</ele><time>2026-05-02T10:03:41.982Z</time></trkpt><trkpt lat="42.9571617" lon="13.1597233"><ele>1467.75</ele><time>2026-05-02T10:03:42.982Z</time></trkpt><trkpt lat="42.9570083" lon="13.1597767"><ele>1467.5</ele><time>2026-05-02T10:03:43.982Z</time></trkpt><trkpt lat="42.9568717" lon="13.1598333"><ele>1467.25</ele><time>2026-05-02T10:03:44.983Z</time></trkpt><trkpt lat="42.9567483" lon="13.159895"><ele>1467.0</ele><time>2026-05-02T10:03:45.982Z</time></trkpt><trkpt lat="42.9566317" lon="13.159965"><ele>1467.0</ele><time>2026-05-02T10:03:46.982Z</time></trkpt><trkpt lat="42.95653" lon="13.1600417"><ele>1467.0</ele><time>2026-05-02T10:03:47.982Z</time></trkpt><trkpt lat="42.9564483" lon="13.1601183"><ele>1467.0</ele><time>2026-05-02T10:03:48.983Z</time></trkpt><trkpt lat="42.9563817" lon="13.1602017"><ele>1467.0</ele><time>2026-05-02T10:03:49.982Z</time></trkpt><trkpt lat="42.956325" lon="13.1602933"><ele>1467.0</ele><time>2026-05-02T10:03:50.983Z</time></trkpt><trkpt lat="42.95627" lon="13.1603933"><ele>1467.0</ele><time>2026-05-02T10:03:51.983Z</time></trkpt><trkpt lat="42.9562317" lon="13.1605283"><ele>1467.0</ele><time>2026-05-02T10:03:52.982Z</time></trkpt><trkpt lat="42.9561833" lon="13.1606683"><ele>1467.0</ele><time>2026-05-02T10:03:53.982Z</time></trkpt><trkpt lat="42.95614" lon="13.1608183"><ele>1467.0</ele><time>2026-05-02T10:03:54.982Z</time></trkpt><trkpt lat="42.9561" lon="13.1609733"><ele>1468.1999999999998</ele><time>2026-05-02T10:03:55.983Z</time></trkpt><trkpt lat="42.9560617" lon="13.1611233"><ele>1469.4</ele><time>2026-05-02T10:03:56.982Z</time></trkpt><trkpt lat="42.9560267" lon="13.1612717"><ele>1470.6</ele><time>2026-05-02T10:03:57.982Z</time></trkpt><trkpt lat="42.9560017" lon="13.1614183"><ele>1471.8000000000002</ele><time>2026-05-02T10:03:58.982Z</time></trkpt><trkpt lat="42.9559817" lon="13.1615633"><ele>1473.0</ele><time>2026-05-02T10:03:59.982Z</time></trkpt><trkpt lat="42.955975" lon="13.16171"><ele>1473.25</ele><time>2026-05-02T10:04:00.983Z</time></trkpt><trkpt lat="42.9559683" lon="13.1618567"><ele>1473.5</ele><time>2026-05-02T10:04:01.982Z</time></trkpt><trkpt lat="42.9559683" lon="13.162015"><ele>1473.75</ele><time>2026-05-02T10:04:02.983Z</time></trkpt><trkpt lat="42.9559733" lon="13.1621917"><ele>1474.0</ele><time>2026-05-02T10:04:03.982Z</time></trkpt><trkpt lat="42.9559867" lon="13.16237"><ele>1474.0</ele><time>2026-05-02T10:04:04.981Z</time></trkpt><trkpt lat="42.9559983" lon="13.16256"><ele>1474.0</ele><time>2026-05-02T10:04:05.982Z</time></trkpt><trkpt lat="42.95601" lon="13.1627467"><ele>1474.0</ele><time>2026-05-02T10:04:06.983Z</time></trkpt><trkpt lat="42.9560183" lon="13.16293"><ele>1474.0</ele><time>2026-05-02T10:04:07.982Z</time></trkpt><trkpt lat="42.95603" lon="13.16311"><ele>1473.8000000000002</ele><time>2026-05-02T10:04:08.982Z</time></trkpt><trkpt lat="42.9560517" lon="13.163275"><ele>1473.6000000000001</ele><time>2026-05-02T10:04:09.983Z</time></trkpt><trkpt lat="42.956075" lon="13.1634167"><ele>1473.4</ele><time>2026-05-02T10:04:10.983Z</time></trkpt><trkpt lat="42.9560983" lon="13.1635317"><ele>1473.2</ele><time>2026-05-02T10:04:11.983Z</time></trkpt><trkpt lat="42.9561117" lon="13.1636283"><ele>1473.0</ele><time>2026-05-02T10:04:12.982Z</time></trkpt><trkpt lat="42.956085" lon="13.1637367"><ele>1473.0</ele><time>2026-05-02T10:04:14.982Z</time></trkpt><trkpt lat="42.9560067" lon="13.1636783"><ele>1473.0</ele><time>2026-05-02T10:04:16.982Z</time></trkpt><trkpt lat="42.95595" lon="13.1635267"><ele>1473.0</ele><time>2026-05-02T10:04:18.986Z</time></trkpt><trkpt lat="42.9559433" lon="13.1633517"><ele>1473.0</ele><time>2026-05-02T10:04:19.981Z</time></trkpt><trkpt lat="42.9559183" lon="13.1632033"><ele>1473.25</ele><time>2026-05-02T10:04:20.983Z</time></trkpt><trkpt lat="42.955885" lon="13.1630533"><ele>1473.5</ele><time>2026-05-02T10:04:21.982Z</time></trkpt><trkpt lat="42.9558283" lon="13.1629033"><ele>1473.75</ele><time>2026-05-02T10:04:22.983Z</time></trkpt><trkpt lat="42.95576" lon="13.16275"><ele>1474.0</ele><time>2026-05-02T10:04:23.982Z</time></trkpt><trkpt lat="42.9556933" lon="13.1625983"><ele>1466.5</ele><time>2026-05-02T10:04:24.982Z</time></trkpt><trkpt lat="42.95563" lon="13.16244"><ele>1459.0</ele><time>2026-05-02T10:04:25.982Z</time></trkpt><trkpt lat="42.9555767" lon="13.16229"><ele>1451.5</ele><time>2026-05-02T10:04:26.983Z</time></trkpt><trkpt lat="42.9555217" lon="13.16214"><ele>1444.0</ele><time>2026-05-02T10:04:27.983Z</time></trkpt><trkpt lat="42.9554683" lon="13.161995"><ele>1444.0</ele><time>2026-05-02T10:04:28.982Z</time></trkpt><trkpt lat="42.9554083" lon="13.1618517"><ele>1444.0</ele><time>2026-05-02T10:04:29.982Z</time></trkpt><trkpt lat="42.9553483" lon="13.1617067"><ele>1444.0</ele><time>2026-05-02T10:04:30.982Z</time></trkpt><trkpt lat="42.9552933" lon="13.1615567"><ele>1444.0</ele><time>2026-05-02T10:04:31.983Z</time></trkpt><trkpt lat="42.9552433" lon="13.1614133"><ele>1444.75</ele><time>2026-05-02T10:04:32.984Z</time></trkpt><trkpt lat="42.9551933" lon="13.16126"><ele>1445.5</ele><time>2026-05-02T10:04:33.983Z</time></trkpt><trkpt lat="42.955145" lon="13.1611083"><ele>1446.25</ele><time>2026-05-02T10:04:34.981Z</time></trkpt><trkpt lat="42.9551" lon="13.1609567"><ele>1447.0</ele><time>2026-05-02T10:04:35.983Z</time></trkpt><trkpt lat="42.9550583" lon="13.1608067"><ele>1439.0</ele><time>2026-05-02T10:04:36.983Z</time></trkpt><trkpt lat="42.95503" lon="13.1606583"><ele>1431.0</ele><time>2026-05-02T10:04:37.983Z</time></trkpt><trkpt lat="42.9549967" lon="13.1605217"><ele>1423.0</ele><time>2026-05-02T10:04:38.982Z</time></trkpt><trkpt lat="42.95497" lon="13.1603833"><ele>1415.0</ele><time>2026-05-02T10:04:39.982Z</time></trkpt><trkpt lat="42.9549483" lon="13.16023"><ele>1407.0</ele><time>2026-05-02T10:04:40.982Z</time></trkpt><trkpt lat="42.9549283" lon="13.16007"><ele>1407.0</ele><time>2026-05-02T10:04:41.983Z</time></trkpt><trkpt lat="42.9549183" lon="13.1599183"><ele>1407.0</ele><time>2026-05-02T10:04:42.982Z</time></trkpt><trkpt lat="42.9549117" lon="13.159765"><ele>1407.0</ele><time>2026-05-02T10:04:43.982Z</time></trkpt><trkpt lat="42.95491" lon="13.15961"><ele>1407.0</ele><time>2026-05-02T10:04:44.983Z</time></trkpt><trkpt lat="42.9549067" lon="13.1594667"><ele>1407.0</ele><time>2026-05-02T10:04:45.981Z</time></trkpt><trkpt lat="42.9549083" lon="13.1593283"><ele>1407.0</ele><time>2026-05-02T10:04:46.981Z</time></trkpt><trkpt lat="42.9549233" lon="13.1591983"><ele>1407.0</ele><time>2026-05-02T10:04:47.982Z</time></trkpt><trkpt lat="42.9549417" lon="13.1590717"><ele>1407.0</ele><time>2026-05-02T10:04:48.983Z</time></trkpt><trkpt lat="42.9549633" lon="13.1589533"><ele>1407.0</ele><time>2026-05-02T10:04:49.982Z</time></trkpt><trkpt lat="42.9550033" lon="13.158845"><ele>1407.0</ele><time>2026-05-02T10:04:50.982Z</time></trkpt><trkpt lat="42.955045" lon="13.15873"><ele>1407.0</ele><time>2026-05-02T10:04:51.982Z</time></trkpt><trkpt lat="42.9550933" lon="13.158625"><ele>1407.0</ele><time>2026-05-02T10:04:52.982Z</time></trkpt><trkpt lat="42.9551567" lon="13.1585183"><ele>1407.0</ele><time>2026-05-02T10:04:53.982Z</time></trkpt><trkpt lat="42.9552183" lon="13.158405"><ele>1407.0</ele><time>2026-05-02T10:04:54.982Z</time></trkpt><trkpt lat="42.9552817" lon="13.1582917"><ele>1407.0</ele><time>2026-05-02T10:04:55.982Z</time></trkpt><trkpt lat="42.9553383" lon="13.158185"><ele>1403.3333333333333</ele><time>2026-05-02T10:04:56.982Z</time></trkpt><trkpt lat="42.955395" lon="13.1580783"><ele>1399.6666666666667</ele><time>2026-05-02T10:04:57.982Z</time></trkpt><trkpt lat="42.9554467" lon="13.1579683"><ele>1396.0</ele><time>2026-05-02T10:04:58.984Z</time></trkpt><trkpt lat="42.9555" lon="13.1578683"><ele>1392.3333333333335</ele><time>2026-05-02T10:04:59.983Z</time></trkpt><trkpt lat="42.955555" lon="13.1577717"><ele>1388.6666666666667</ele><time>2026-05-02T10:05:00.982Z</time></trkpt><trkpt lat="42.9556067" lon="13.1576983"><ele>1385.0</ele><time>2026-05-02T10:05:01.982Z</time></trkpt><trkpt lat="42.95566" lon="13.157635"><ele>1385.0</ele><time>2026-05-02T10:05:02.982Z</time></trkpt><trkpt lat="42.955715" lon="13.1575867"><ele>1385.0</ele><time>2026-05-02T10:05:03.981Z</time></trkpt><trkpt lat="42.9557733" lon="13.1575467"><ele>1385.0</ele><time>2026-05-02T10:05:04.982Z</time></trkpt><trkpt lat="42.9558383" lon="13.1574967"><ele>1385.0</ele><time>2026-05-02T10:05:05.982Z</time></trkpt><trkpt lat="42.955915" lon="13.1574383"><ele>1385.0</ele><time>2026-05-02T10:05:06.982Z</time></trkpt><trkpt lat="42.9559933" lon="13.157375"><ele>1385.0</ele><time>2026-05-02T10:05:07.983Z</time></trkpt><trkpt lat="42.95607" lon="13.1573133"><ele>1379.8</ele><time>2026-05-02T10:05:08.983Z</time></trkpt><trkpt lat="42.9561517" lon="13.1572533"><ele>1374.6</ele><time>2026-05-02T10:05:09.982Z</time></trkpt><trkpt lat="42.9562383" lon="13.1571867"><ele>1369.4</ele><time>2026-05-02T10:05:10.982Z</time></trkpt><trkpt lat="42.956325" lon="13.1571283"><ele>1364.2</ele><time>2026-05-02T10:05:11.982Z</time></trkpt><trkpt lat="42.9564117" lon="13.157065"><ele>1359.0</ele><time>2026-05-02T10:05:12.982Z</time></trkpt><trkpt lat="42.9565" lon="13.1569983"><ele>1359.0</ele><time>2026-05-02T10:05:13.981Z</time></trkpt><trkpt lat="42.95659" lon="13.1569283"><ele>1359.0</ele><time>2026-05-02T10:05:14.985Z</time></trkpt><trkpt lat="42.9566867" lon="13.1568567"><ele>1359.0</ele><time>2026-05-02T10:05:15.981Z</time></trkpt><trkpt lat="42.9567833" lon="13.1567867"><ele>1359.0</ele><time>2026-05-02T10:05:16.982Z</time></trkpt><trkpt lat="42.95688" lon="13.1567333"><ele>1359.0</ele><time>2026-05-02T10:05:17.982Z</time></trkpt><trkpt lat="42.95698" lon="13.156695"><ele>1360.2</ele><time>2026-05-02T10:05:18.983Z</time></trkpt><trkpt lat="42.9570783" lon="13.15667"><ele>1361.4</ele><time>2026-05-02T10:05:19.982Z</time></trkpt><trkpt lat="42.957175" lon="13.1566433"><ele>1362.6</ele><time>2026-05-02T10:05:20.982Z</time></trkpt><trkpt lat="42.9572733" lon="13.1566467"><ele>1363.8</ele><time>2026-05-02T10:05:21.983Z</time></trkpt><trkpt lat="42.9573633" lon="13.156655"><ele>1365.0</ele><time>2026-05-02T10:05:22.982Z</time></trkpt><trkpt lat="42.9574517" lon="13.1566683"><ele>1365.0</ele><time>2026-05-02T10:05:23.982Z</time></trkpt><trkpt lat="42.957535" lon="13.1566817"><ele>1365.0</ele><time>2026-05-02T10:05:24.984Z</time></trkpt><trkpt lat="42.957615" lon="13.1566867"><ele>1365.0</ele><time>2026-05-02T10:05:25.981Z</time></trkpt><trkpt lat="42.95769" lon="13.156675"><ele>1365.0</ele><time>2026-05-02T10:05:26.982Z</time></trkpt><trkpt lat="42.9577567" lon="13.15664"><ele>1365.0</ele><time>2026-05-02T10:05:27.982Z</time></trkpt><trkpt lat="42.9578133" lon="13.1565867"><ele>1365.0</ele><time>2026-05-02T10:05:28.982Z</time></trkpt><trkpt lat="42.9578617" lon="13.1564917"><ele>1363.0</ele><time>2026-05-02T10:05:29.983Z</time></trkpt><trkpt lat="42.9579083" lon="13.15635"><ele>1361.0</ele><time>2026-05-02T10:05:30.982Z</time></trkpt><trkpt lat="42.9579667" lon="13.156185"><ele>1359.0</ele><time>2026-05-02T10:05:31.982Z</time></trkpt><trkpt lat="42.9580417" lon="13.15603"><ele>1357.0</ele><time>2026-05-02T10:05:32.982Z</time></trkpt><trkpt lat="42.9581167" lon="13.1558733"><ele>1357.0</ele><time>2026-05-02T10:05:33.985Z</time></trkpt><trkpt lat="42.9581917" lon="13.1557233"><ele>1357.0</ele><time>2026-05-02T10:05:34.983Z</time></trkpt><trkpt lat="42.9582667" lon="13.1555833"><ele>1357.0</ele><time>2026-05-02T10:05:35.982Z</time></trkpt><trkpt lat="42.9583433" lon="13.1554467"><ele>1357.0</ele><time>2026-05-02T10:05:36.981Z</time></trkpt><trkpt lat="42.9584267" lon="13.15531"><ele>1357.75</ele><time>2026-05-02T10:05:37.983Z</time></trkpt><trkpt lat="42.9585167" lon="13.155175"><ele>1358.5</ele><time>2026-05-02T10:05:38.982Z</time></trkpt><trkpt lat="42.95861" lon="13.1550417"><ele>1359.25</ele><time>2026-05-02T10:05:39.982Z</time></trkpt><trkpt lat="42.9587083" lon="13.15491"><ele>1360.0</ele><time>2026-05-02T10:05:40.983Z</time></trkpt><trkpt lat="42.95881" lon="13.1547933"><ele>1354.5</ele><time>2026-05-02T10:05:41.982Z</time></trkpt><trkpt lat="42.9589133" lon="13.1546933"><ele>1349.0</ele><time>2026-05-02T10:05:42.983Z</time></trkpt><trkpt lat="42.9590233" lon="13.1546"><ele>1343.5</ele><time>2026-05-02T10:05:43.983Z</time></trkpt><trkpt lat="42.9591383" lon="13.1545117"><ele>1338.0</ele><time>2026-05-02T10:05:44.982Z</time></trkpt><trkpt lat="42.9592583" lon="13.1544333"><ele>1338.0</ele><time>2026-05-02T10:05:45.982Z</time></trkpt><trkpt lat="42.9593783" lon="13.1543617"><ele>1338.0</ele><time>2026-05-02T10:05:46.982Z</time></trkpt><trkpt lat="42.9594933" lon="13.1543"><ele>1338.0</ele><time>2026-05-02T10:05:47.982Z</time></trkpt><trkpt lat="42.9596083" lon="13.1542567"><ele>1338.0</ele><time>2026-05-02T10:05:48.982Z</time></trkpt><trkpt lat="42.9597267" lon="13.15422"><ele>1338.0</ele><time>2026-05-02T10:05:49.982Z</time></trkpt><trkpt lat="42.959855" lon="13.1542"><ele>1338.0</ele><time>2026-05-02T10:05:50.983Z</time></trkpt><trkpt lat="42.9599867" lon="13.15418"><ele>1338.0</ele><time>2026-05-02T10:05:51.983Z</time></trkpt><trkpt lat="42.9601133" lon="13.15417"><ele>1338.0</ele><time>2026-05-02T10:05:52.982Z</time></trkpt><trkpt lat="42.960235" lon="13.15416"><ele>1335.5</ele><time>2026-05-02T10:05:53.984Z</time></trkpt><trkpt lat="42.9603517" lon="13.1541433"><ele>1333.0</ele><time>2026-05-02T10:05:54.983Z</time></trkpt><trkpt lat="42.9604683" lon="13.1541267"><ele>1330.5</ele><time>2026-05-02T10:05:55.982Z</time></trkpt><trkpt lat="42.96058" lon="13.1541183"><ele>1328.0</ele><time>2026-05-02T10:05:56.982Z</time></trkpt><trkpt lat="42.9606883" lon="13.1541183"><ele>1328.0</ele><time>2026-05-02T10:05:57.982Z</time></trkpt><trkpt lat="42.960795" lon="13.154145"><ele>1328.0</ele><time>2026-05-02T10:05:58.983Z</time></trkpt><trkpt lat="42.9609017" lon="13.1541867"><ele>1328.0</ele><time>2026-05-02T10:05:59.982Z</time></trkpt><trkpt lat="42.9610067" lon="13.1542283"><ele>1328.0</ele><time>2026-05-02T10:06:00.983Z</time></trkpt><trkpt lat="42.9611" lon="13.1542667"><ele>1328.0</ele><time>2026-05-02T10:06:01.981Z</time></trkpt><trkpt lat="42.961195" lon="13.1542833"><ele>1327.2</ele><time>2026-05-02T10:06:02.983Z</time></trkpt><trkpt lat="42.9612817" lon="13.1542783"><ele>1326.4</ele><time>2026-05-02T10:06:03.982Z</time></trkpt><trkpt lat="42.9613683" lon="13.1542483"><ele>1325.6000000000001</ele><time>2026-05-02T10:06:04.983Z</time></trkpt><trkpt lat="42.9614633" lon="13.1541817"><ele>1324.8000000000002</ele><time>2026-05-02T10:06:05.982Z</time></trkpt><trkpt lat="42.96156" lon="13.1540917"><ele>1324.0</ele><time>2026-05-02T10:06:06.982Z</time></trkpt><trkpt lat="42.9616617" lon="13.1540033"><ele>1320.75</ele><time>2026-05-02T10:06:07.982Z</time></trkpt><trkpt lat="42.961775" lon="13.1539133"><ele>1317.5</ele><time>2026-05-02T10:06:08.982Z</time></trkpt><trkpt lat="42.9618967" lon="13.1538133"><ele>1314.25</ele><time>2026-05-02T10:06:09.983Z</time></trkpt><trkpt lat="42.962015" lon="13.1537033"><ele>1311.0</ele><time>2026-05-02T10:06:10.982Z</time></trkpt><trkpt lat="42.962125" lon="13.153585"><ele>1311.0</ele><time>2026-05-02T10:06:11.982Z</time></trkpt><trkpt lat="42.96223" lon="13.1534733"><ele>1311.0</ele><time>2026-05-02T10:06:12.982Z</time></trkpt><trkpt lat="42.9623267" lon="13.1533667"><ele>1311.0</ele><time>2026-05-02T10:06:13.983Z</time></trkpt><trkpt lat="42.9624183" lon="13.153255"><ele>1311.0</ele><time>2026-05-02T10:06:14.983Z</time></trkpt><trkpt lat="42.9625083" lon="13.1531483"><ele>1310.75</ele><time>2026-05-02T10:06:15.983Z</time></trkpt><trkpt lat="42.9625967" lon="13.1530317"><ele>1310.5</ele><time>2026-05-02T10:06:16.982Z</time></trkpt><trkpt lat="42.9626883" lon="13.1529017"><ele>1310.25</ele><time>2026-05-02T10:06:17.983Z</time></trkpt><trkpt lat="42.9627833" lon="13.152755"><ele>1310.0</ele><time>2026-05-02T10:06:18.982Z</time></trkpt><trkpt lat="42.96288" lon="13.1525933"><ele>1310.0</ele><time>2026-05-02T10:06:19.983Z</time></trkpt><trkpt lat="42.96298" lon="13.1524217"><ele>1310.0</ele><time>2026-05-02T10:06:20.985Z</time></trkpt><trkpt lat="42.9630833" lon="13.1522517"><ele>1310.0</ele><time>2026-05-02T10:06:21.981Z</time></trkpt><trkpt lat="42.9631867" lon="13.152085"><ele>1311.0</ele><time>2026-05-02T10:06:22.983Z</time></trkpt><trkpt lat="42.9632867" lon="13.1519217"><ele>1312.0</ele><time>2026-05-02T10:06:23.982Z</time></trkpt><trkpt lat="42.9633817" lon="13.1517683"><ele>1313.0</ele><time>2026-05-02T10:06:24.982Z</time></trkpt><trkpt lat="42.9634717" lon="13.151625"><ele>1314.0</ele><time>2026-05-02T10:06:25.982Z</time></trkpt><trkpt lat="42.9635533" lon="13.15149"><ele>1306.75</ele><time>2026-05-02T10:06:26.983Z</time></trkpt><trkpt lat="42.9636383" lon="13.151355"><ele>1299.5</ele><time>2026-05-02T10:06:27.982Z</time></trkpt><trkpt lat="42.9637417" lon="13.1512233"><ele>1292.25</ele><time>2026-05-02T10:06:28.982Z</time></trkpt><trkpt lat="42.96386" lon="13.1510983"><ele>1285.0</ele><time>2026-05-02T10:06:29.983Z</time></trkpt><trkpt lat="42.9639733" lon="13.150975"><ele>1285.0</ele><time>2026-05-02T10:06:30.982Z</time></trkpt><trkpt lat="42.9640767" lon="13.1508617"><ele>1285.0</ele><time>2026-05-02T10:06:31.983Z</time></trkpt><trkpt lat="42.9641683" lon="13.15075"><ele>1285.0</ele><time>2026-05-02T10:06:32.983Z</time></trkpt><trkpt lat="42.964255" lon="13.15066"><ele>1285.0</ele><time>2026-05-02T10:06:33.982Z</time></trkpt><trkpt lat="42.9643367" lon="13.1505967"><ele>1280.8333333333333</ele><time>2026-05-02T10:06:34.983Z</time></trkpt><trkpt lat="42.9644267" lon="13.1505517"><ele>1276.6666666666665</ele><time>2026-05-02T10:06:35.982Z</time></trkpt><trkpt lat="42.96452" lon="13.1505417"><ele>1272.5</ele><time>2026-05-02T10:06:36.982Z</time></trkpt><trkpt lat="42.9646017" lon="13.1505467"><ele>1268.3333333333333</ele><time>2026-05-02T10:06:37.982Z</time></trkpt><trkpt lat="42.9646783" lon="13.1505317"><ele>1264.1666666666667</ele><time>2026-05-02T10:06:38.983Z</time></trkpt><trkpt lat="42.9647333" lon="13.1504867"><ele>1260.0</ele><time>2026-05-02T10:06:39.982Z</time></trkpt><trkpt lat="42.9647517" lon="13.1503533"><ele>1260.0</ele><time>2026-05-02T10:06:41.981Z</time></trkpt><trkpt lat="42.9646167" lon="13.1502867"><ele>1260.0</ele><time>2026-05-02T10:06:43.983Z</time></trkpt><trkpt lat="42.9645267" lon="13.1502933"><ele>1260.0</ele><time>2026-05-02T10:06:44.982Z</time></trkpt><trkpt lat="42.9644317" lon="13.1503183"><ele>1260.0</ele><time>2026-05-02T10:06:45.982Z</time></trkpt><trkpt lat="42.9643" lon="13.1503933"><ele>1258.0</ele><time>2026-05-02T10:06:46.982Z</time></trkpt><trkpt lat="42.9641483" lon="13.1504817"><ele>1256.0</ele><time>2026-05-02T10:06:47.982Z</time></trkpt><trkpt lat="42.9639983" lon="13.150565"><ele>1254.0</ele><time>2026-05-02T10:06:48.982Z</time></trkpt><trkpt lat="42.9638483" lon="13.1506333"><ele>1254.0</ele><time>2026-05-02T10:06:49.982Z</time></trkpt><trkpt lat="42.963695" lon="13.1507017"><ele>1254.0</ele><time>2026-05-02T10:06:50.983Z</time></trkpt><trkpt lat="42.9635383" lon="13.1507917"><ele>1254.0</ele><time>2026-05-02T10:06:51.983Z</time></trkpt><trkpt lat="42.9633883" lon="13.1508983"><ele>1255.3333333333333</ele><time>2026-05-02T10:06:52.981Z</time></trkpt><trkpt lat="42.96325" lon="13.1510017"><ele>1256.6666666666665</ele><time>2026-05-02T10:06:53.982Z</time></trkpt><trkpt lat="42.9631183" lon="13.1511117"><ele>1258.0</ele><time>2026-05-02T10:06:54.982Z</time></trkpt><trkpt lat="42.96298" lon="13.1512183"><ele>1258.0</ele><time>2026-05-02T10:06:55.983Z</time></trkpt><trkpt lat="42.9628433" lon="13.1513217"><ele>1258.0</ele><time>2026-05-02T10:06:56.983Z</time></trkpt><trkpt lat="42.9627117" lon="13.1514317"><ele>1258.0</ele><time>2026-05-02T10:06:57.981Z</time></trkpt><trkpt lat="42.9625783" lon="13.1515467"><ele>1258.0</ele><time>2026-05-02T10:06:58.984Z</time></trkpt><trkpt lat="42.9624417" lon="13.1516667"><ele>1258.0</ele><time>2026-05-02T10:06:59.981Z</time></trkpt><trkpt lat="42.9623033" lon="13.151785"><ele>1258.0</ele><time>2026-05-02T10:07:00.98Z</time></trkpt><trkpt lat="42.9621633" lon="13.1519"><ele>1258.0</ele><time>2026-05-02T10:07:01.982Z</time></trkpt><trkpt lat="42.9620283" lon="13.1520017"><ele>1258.0</ele><time>2026-05-02T10:07:02.982Z</time></trkpt><trkpt lat="42.9619017" lon="13.1520933"><ele>1258.0</ele><time>2026-05-02T10:07:03.982Z</time></trkpt><trkpt lat="42.961785" lon="13.152175"><ele>1258.0</ele><time>2026-05-02T10:07:04.983Z</time></trkpt><trkpt lat="42.96168" lon="13.152245"><ele>1257.3333333333333</ele><time>2026-05-02T10:07:05.981Z</time></trkpt><trkpt lat="42.96159" lon="13.152325"><ele>1256.6666666666665</ele><time>2026-05-02T10:07:06.981Z</time></trkpt><trkpt lat="42.96152" lon="13.152415"><ele>1256.0</ele><time>2026-05-02T10:07:07.981Z</time></trkpt><trkpt lat="42.9614683" lon="13.152495"><ele>1255.3333333333333</ele><time>2026-05-02T10:07:08.982Z</time></trkpt><trkpt lat="42.961415" lon="13.1525467"><ele>1254.6666666666667</ele><time>2026-05-02T10:07:09.982Z</time></trkpt><trkpt lat="42.961345" lon="13.1525467"><ele>1254.0</ele><time>2026-05-02T10:07:10.981Z</time></trkpt><trkpt lat="42.96127" lon="13.1525183"><ele>1254.0</ele><time>2026-05-02T10:07:11.981Z</time></trkpt><trkpt lat="42.9611933" lon="13.1524517"><ele>1254.0</ele><time>2026-05-02T10:07:12.982Z</time></trkpt><trkpt lat="42.9611" lon="13.1523667"><ele>1254.0</ele><time>2026-05-02T10:07:13.981Z</time></trkpt><trkpt lat="42.9609817" lon="13.152285"><ele>1254.0</ele><time>2026-05-02T10:07:14.982Z</time></trkpt><trkpt lat="42.9608367" lon="13.15221"><ele>1244.0</ele><time>2026-05-02T10:07:15.981Z</time></trkpt><trkpt lat="42.960665" lon="13.152155"><ele>1234.0</ele><time>2026-05-02T10:07:16.982Z</time></trkpt><trkpt lat="42.9604933" lon="13.152095"><ele>1224.0</ele><time>2026-05-02T10:07:17.982Z</time></trkpt><trkpt lat="42.9603267" lon="13.1520417"><ele>1224.0</ele><time>2026-05-02T10:07:18.982Z</time></trkpt><trkpt lat="42.96017" lon="13.1519967"><ele>1224.0</ele><time>2026-05-02T10:07:19.982Z</time></trkpt><trkpt lat="42.960015" lon="13.1519567"><ele>1224.0</ele><time>2026-05-02T10:07:20.982Z</time></trkpt><trkpt lat="42.9598617" lon="13.1519183"><ele>1224.75</ele><time>2026-05-02T10:07:21.981Z</time></trkpt><trkpt lat="42.9597117" lon="13.1518783"><ele>1225.5</ele><time>2026-05-02T10:07:22.981Z</time></trkpt><trkpt lat="42.95957" lon="13.1518417"><ele>1226.25</ele><time>2026-05-02T10:07:23.982Z</time></trkpt><trkpt lat="42.9594367" lon="13.1518"><ele>1227.0</ele><time>2026-05-02T10:07:24.981Z</time></trkpt><trkpt lat="42.9593067" lon="13.1517667"><ele>1226.75</ele><time>2026-05-02T10:07:25.983Z</time></trkpt><trkpt lat="42.9591817" lon="13.15174"><ele>1226.5</ele><time>2026-05-02T10:07:26.983Z</time></trkpt><trkpt lat="42.959055" lon="13.1517167"><ele>1226.25</ele><time>2026-05-02T10:07:27.981Z</time></trkpt><trkpt lat="42.9589333" lon="13.1517017"><ele>1226.0</ele><time>2026-05-02T10:07:28.982Z</time></trkpt><trkpt lat="42.958815" lon="13.15169"><ele>1226.0</ele><time>2026-05-02T10:07:29.981Z</time></trkpt><trkpt lat="42.9587" lon="13.1516933"><ele>1226.0</ele><time>2026-05-02T10:07:30.981Z</time></trkpt><trkpt lat="42.9585833" lon="13.1517083"><ele>1226.0</ele><time>2026-05-02T10:07:31.981Z</time></trkpt><trkpt lat="42.9584583" lon="13.151735"><ele>1226.0</ele><time>2026-05-02T10:07:32.981Z</time></trkpt><trkpt lat="42.9583333" lon="13.15178"><ele>1223.25</ele><time>2026-05-02T10:07:33.982Z</time></trkpt><trkpt lat="42.9582083" lon="13.1518383"><ele>1220.5</ele><time>2026-05-02T10:07:34.981Z</time></trkpt><trkpt lat="42.95809" lon="13.1519033"><ele>1217.75</ele><time>2026-05-02T10:07:35.981Z</time></trkpt><trkpt lat="42.9579783" lon="13.1519683"><ele>1215.0</ele><time>2026-05-02T10:07:36.981Z</time></trkpt><trkpt lat="42.95787" lon="13.1520317"><ele>1215.0</ele><time>2026-05-02T10:07:37.982Z</time></trkpt><trkpt lat="42.9577717" lon="13.152095"><ele>1215.0</ele><time>2026-05-02T10:07:38.981Z</time></trkpt><trkpt lat="42.9576867" lon="13.1521567"><ele>1215.0</ele><time>2026-05-02T10:07:39.981Z</time></trkpt><trkpt lat="42.9576167" lon="13.1522117"><ele>1215.0</ele><time>2026-05-02T10:07:40.982Z</time></trkpt><trkpt lat="42.9575583" lon="13.1522633"><ele>1215.0</ele><time>2026-05-02T10:07:42.981Z</time></trkpt><trkpt lat="42.95748" lon="13.1523483"><ele>1215.4</ele><time>2026-05-02T10:07:56.981Z</time></trkpt><trkpt lat="42.9574" lon="13.1524683"><ele>1215.8</ele><time>2026-05-02T10:07:58.981Z</time></trkpt><trkpt lat="42.9573483" lon="13.1525517"><ele>1216.2</ele><time>2026-05-02T10:07:59.982Z</time></trkpt><trkpt lat="42.9572933" lon="13.152635"><ele>1216.6</ele><time>2026-05-02T10:08:00.981Z</time></trkpt><trkpt lat="42.9572267" lon="13.15273"><ele>1217.0</ele><time>2026-05-02T10:08:01.982Z</time></trkpt><trkpt lat="42.957165" lon="13.1528183"><ele>1217.0</ele><time>2026-05-02T10:08:02.984Z</time></trkpt><trkpt lat="42.9571017" lon="13.1529033"><ele>1217.0</ele><time>2026-05-02T10:08:03.981Z</time></trkpt><trkpt lat="42.9570433" lon="13.15299"><ele>1217.0</ele><time>2026-05-02T10:08:04.982Z</time></trkpt><trkpt lat="42.9569867" lon="13.1530717"><ele>1217.0</ele><time>2026-05-02T10:08:05.981Z</time></trkpt><trkpt lat="42.9569333" lon="13.1531617"><ele>1217.0</ele><time>2026-05-02T10:08:06.982Z</time></trkpt><trkpt lat="42.9568867" lon="13.15327"><ele>1217.0</ele><time>2026-05-02T10:08:07.982Z</time></trkpt><trkpt lat="42.9568517" lon="13.1533817"><ele>1215.0</ele><time>2026-05-02T10:08:08.982Z</time></trkpt><trkpt lat="42.9568167" lon="13.1534917"><ele>1213.0</ele><time>2026-05-02T10:08:09.981Z</time></trkpt><trkpt lat="42.95678" lon="13.1535933"><ele>1211.0</ele><time>2026-05-02T10:08:10.981Z</time></trkpt><trkpt lat="42.9567383" lon="13.1536717"><ele>1209.0</ele><time>2026-05-02T10:08:11.983Z</time></trkpt><trkpt lat="42.9566883" lon="13.153725"><ele>1207.0</ele><time>2026-05-02T10:08:12.982Z</time></trkpt><trkpt lat="42.9565617" lon="13.1537433"><ele>1205.0</ele><time>2026-05-02T10:08:14.981Z</time></trkpt><trkpt lat="42.956485" lon="13.1537"><ele>1205.0</ele><time>2026-05-02T10:08:15.981Z</time></trkpt><trkpt lat="42.9564067" lon="13.1536533"><ele>1205.0</ele><time>2026-05-02T10:08:16.982Z</time></trkpt><trkpt lat="42.9563333" lon="13.153615"><ele>1205.0</ele><time>2026-05-02T10:08:17.982Z</time></trkpt><trkpt lat="42.9562567" lon="13.1535883"><ele>1205.0</ele><time>2026-05-02T10:08:18.981Z</time></trkpt><trkpt lat="42.9561817" lon="13.153565"><ele>1205.0</ele><time>2026-05-02T10:08:19.983Z</time></trkpt><trkpt lat="42.9561117" lon="13.1535417"><ele>1205.0</ele><time>2026-05-02T10:08:20.982Z</time></trkpt><trkpt lat="42.9560467" lon="13.15351"><ele>1205.0</ele><time>2026-05-02T10:08:21.982Z</time></trkpt><trkpt lat="42.955985" lon="13.15348"><ele>1205.0</ele><time>2026-05-02T10:08:22.982Z</time></trkpt><trkpt lat="42.9559233" lon="13.153455"><ele>1205.0</ele><time>2026-05-02T10:08:23.981Z</time></trkpt><trkpt lat="42.95582" lon="13.1534067"><ele>1205.0</ele><time>2026-05-02T10:08:25.981Z</time></trkpt><trkpt lat="42.9557283" lon="13.1533717"><ele>1205.0</ele><time>2026-05-02T10:08:27.983Z</time></trkpt><trkpt lat="42.9556383" lon="13.15333"><ele>1205.0</ele><time>2026-05-02T10:08:29.982Z</time></trkpt><trkpt lat="42.9555383" lon="13.1532883"><ele>1203.6666666666667</ele><time>2026-05-02T10:08:31.981Z</time></trkpt><trkpt lat="42.955425" lon="13.1532417"><ele>1202.3333333333335</ele><time>2026-05-02T10:08:33.982Z</time></trkpt><trkpt lat="42.9553633" lon="13.1532167"><ele>1201.0</ele><time>2026-05-02T10:08:34.982Z</time></trkpt><trkpt lat="42.9552983" lon="13.153185"><ele>1199.6666666666667</ele><time>2026-05-02T10:08:35.982Z</time></trkpt><trkpt lat="42.95523" lon="13.15315"><ele>1198.3333333333333</ele><time>2026-05-02T10:08:36.981Z</time></trkpt><trkpt lat="42.9551617" lon="13.153115"><ele>1197.0</ele><time>2026-05-02T10:08:37.981Z</time></trkpt><trkpt lat="42.9550917" lon="13.153085"><ele>1193.142857142857</ele><time>2026-05-02T10:08:38.984Z</time></trkpt><trkpt lat="42.955025" lon="13.153055"><ele>1189.2857142857142</ele><time>2026-05-02T10:08:39.983Z</time></trkpt><trkpt lat="42.95496" lon="13.1530233"><ele>1185.4285714285716</ele><time>2026-05-02T10:08:40.983Z</time></trkpt><trkpt lat="42.9548967" lon="13.15299"><ele>1181.5714285714284</ele><time>2026-05-02T10:08:41.983Z</time></trkpt><trkpt lat="42.9548283" lon="13.1529533"><ele>1177.7142857142858</ele><time>2026-05-02T10:08:42.982Z</time></trkpt><trkpt lat="42.954765" lon="13.1529233"><ele>1173.857142857143</ele><time>2026-05-02T10:08:43.984Z</time></trkpt><trkpt lat="42.9547" lon="13.1529"><ele>1170.0</ele><time>2026-05-02T10:08:44.983Z</time></trkpt><trkpt lat="42.9546317" lon="13.1528917"><ele>1170.0</ele><time>2026-05-02T10:08:45.982Z</time></trkpt><trkpt lat="42.954555" lon="13.1528983"><ele>1170.0</ele><time>2026-05-02T10:08:46.982Z</time></trkpt><trkpt lat="42.9544683" lon="13.1529167"><ele>1170.0</ele><time>2026-05-02T10:08:47.984Z</time></trkpt><trkpt lat="42.9543767" lon="13.1529433"><ele>1170.0</ele><time>2026-05-02T10:08:48.982Z</time></trkpt><trkpt lat="42.9542867" lon="13.1529717"><ele>1170.0</ele><time>2026-05-02T10:08:49.983Z</time></trkpt><trkpt lat="42.9541883" lon="13.1529867"><ele>1170.0</ele><time>2026-05-02T10:08:50.983Z</time></trkpt><trkpt lat="42.9540733" lon="13.1529867"><ele>1170.0</ele><time>2026-05-02T10:08:51.983Z</time></trkpt><trkpt lat="42.9539467" lon="13.1529667"><ele>1170.0</ele><time>2026-05-02T10:08:52.981Z</time></trkpt><trkpt lat="42.9538167" lon="13.15294"><ele>1170.0</ele><time>2026-05-02T10:08:53.981Z</time></trkpt><trkpt lat="42.9536917" lon="13.152905"><ele>1170.0</ele><time>2026-05-02T10:08:54.984Z</time></trkpt><trkpt lat="42.9535717" lon="13.1528683"><ele>1170.0</ele><time>2026-05-02T10:08:55.983Z</time></trkpt><trkpt lat="42.953455" lon="13.1528183"><ele>1170.0</ele><time>2026-05-02T10:08:56.983Z</time></trkpt><trkpt lat="42.9533433" lon="13.152765"><ele>1170.0</ele><time>2026-05-02T10:08:57.984Z</time></trkpt><trkpt lat="42.95323" lon="13.15271"><ele>1170.5</ele><time>2026-05-02T10:08:58.984Z</time></trkpt><trkpt lat="42.9531167" lon="13.1526433"><ele>1171.0</ele><time>2026-05-02T10:08:59.983Z</time></trkpt><trkpt lat="42.95301" lon="13.15257"><ele>1171.5</ele><time>2026-05-02T10:09:00.985Z</time></trkpt><trkpt lat="42.9529067" lon="13.1525117"><ele>1172.0</ele><time>2026-05-02T10:09:01.983Z</time></trkpt><trkpt lat="42.952805" lon="13.1524767"><ele>1172.0</ele><time>2026-05-02T10:09:02.983Z</time></trkpt><trkpt lat="42.952705" lon="13.1524633"><ele>1172.0</ele><time>2026-05-02T10:09:03.984Z</time></trkpt><trkpt lat="42.95261" lon="13.1524717"><ele>1172.0</ele><time>2026-05-02T10:09:04.983Z</time></trkpt><trkpt lat="42.952525" lon="13.15249"><ele>1172.0</ele><time>2026-05-02T10:09:05.983Z</time></trkpt><trkpt lat="42.9524467" lon="13.15252"><ele>1172.0</ele><time>2026-05-02T10:09:06.981Z</time></trkpt><trkpt lat="42.9523783" lon="13.1525567"><ele>1172.0</ele><time>2026-05-02T10:09:07.983Z</time></trkpt><trkpt lat="42.9523183" lon="13.1526"><ele>1171.8</ele><time>2026-05-02T10:09:08.982Z</time></trkpt><trkpt lat="42.9522633" lon="13.152645"><ele>1171.6</ele><time>2026-05-02T10:09:09.982Z</time></trkpt><trkpt lat="42.9521683" lon="13.1527217"><ele>1171.3999999999999</ele><time>2026-05-02T10:09:11.983Z</time></trkpt><trkpt lat="42.9520817" lon="13.15283"><ele>1171.2</ele><time>2026-05-02T10:09:13.981Z</time></trkpt><trkpt lat="42.9520183" lon="13.1529017"><ele>1171.0</ele><time>2026-05-02T10:09:14.982Z</time></trkpt><trkpt lat="42.9519483" lon="13.1529917"><ele>1171.0</ele><time>2026-05-02T10:09:15.981Z</time></trkpt><trkpt lat="42.9518783" lon="13.15308"><ele>1171.0</ele><time>2026-05-02T10:09:16.982Z</time></trkpt><trkpt lat="42.9518183" lon="13.15317"><ele>1171.0</ele><time>2026-05-02T10:09:17.982Z</time></trkpt><trkpt lat="42.9517667" lon="13.153275"><ele>1171.0</ele><time>2026-05-02T10:09:18.982Z</time></trkpt><trkpt lat="42.9517283" lon="13.1533883"><ele>1171.0</ele><time>2026-05-02T10:09:19.981Z</time></trkpt><trkpt lat="42.9517" lon="13.1535133"><ele>1169.75</ele><time>2026-05-02T10:09:20.984Z</time></trkpt><trkpt lat="42.95168" lon="13.1536567"><ele>1168.5</ele><time>2026-05-02T10:09:21.982Z</time></trkpt><trkpt lat="42.9516583" lon="13.1538167"><ele>1167.25</ele><time>2026-05-02T10:09:22.982Z</time></trkpt><trkpt lat="42.9516317" lon="13.1539883"><ele>1166.0</ele><time>2026-05-02T10:09:23.981Z</time></trkpt><trkpt lat="42.9516117" lon="13.1541667"><ele>1166.0</ele><time>2026-05-02T10:09:24.983Z</time></trkpt><trkpt lat="42.9515883" lon="13.154345"><ele>1166.0</ele><time>2026-05-02T10:09:25.981Z</time></trkpt><trkpt lat="42.9515683" lon="13.1545133"><ele>1166.0</ele><time>2026-05-02T10:09:26.981Z</time></trkpt><trkpt lat="42.9515417" lon="13.1546733"><ele>1166.0</ele><time>2026-05-02T10:09:27.982Z</time></trkpt><trkpt lat="42.9515133" lon="13.15484"><ele>1168.0</ele><time>2026-05-02T10:09:28.982Z</time></trkpt><trkpt lat="42.951485" lon="13.1550133"><ele>1170.0</ele><time>2026-05-02T10:09:29.983Z</time></trkpt><trkpt lat="42.9514483" lon="13.15519"><ele>1172.0</ele><time>2026-05-02T10:09:30.983Z</time></trkpt><trkpt lat="42.95141" lon="13.15536"><ele>1174.0</ele><time>2026-05-02T10:09:31.981Z</time></trkpt><trkpt lat="42.951365" lon="13.1555283"><ele>1174.0</ele><time>2026-05-02T10:09:32.983Z</time></trkpt><trkpt lat="42.951315" lon="13.1557017"><ele>1174.0</ele><time>2026-05-02T10:09:33.983Z</time></trkpt><trkpt lat="42.951255" lon="13.1558817"><ele>1174.0</ele><time>2026-05-02T10:09:34.982Z</time></trkpt><trkpt lat="42.951185" lon="13.15605"><ele>1174.0</ele><time>2026-05-02T10:09:35.982Z</time></trkpt><trkpt lat="42.951115" lon="13.1562067"><ele>1176.0</ele><time>2026-05-02T10:09:36.982Z</time></trkpt><trkpt lat="42.951045" lon="13.1563783"><ele>1178.0</ele><time>2026-05-02T10:09:37.983Z</time></trkpt><trkpt lat="42.95099" lon="13.1565617"><ele>1180.0</ele><time>2026-05-02T10:09:38.984Z</time></trkpt><trkpt lat="42.9509517" lon="13.15675"><ele>1182.0</ele><time>2026-05-02T10:09:39.984Z</time></trkpt><trkpt lat="42.9509267" lon="13.1569433"><ele>1188.3333333333333</ele><time>2026-05-02T10:09:40.983Z</time></trkpt><trkpt lat="42.9509167" lon="13.1571433"><ele>1194.6666666666665</ele><time>2026-05-02T10:09:41.982Z</time></trkpt><trkpt lat="42.95092" lon="13.157365"><ele>1201.0</ele><time>2026-05-02T10:09:42.981Z</time></trkpt><trkpt lat="42.950925" lon="13.1575833"><ele>1200.5</ele><time>2026-05-02T10:09:43.983Z</time></trkpt><trkpt lat="42.950935" lon="13.1577833"><ele>1200.0</ele><time>2026-05-02T10:09:44.982Z</time></trkpt><trkpt lat="42.950945" lon="13.1579617"><ele>1199.5</ele><time>2026-05-02T10:09:45.981Z</time></trkpt><trkpt lat="42.9509667" lon="13.1581267"><ele>1199.0</ele><time>2026-05-02T10:09:46.984Z</time></trkpt><trkpt lat="42.9510067" lon="13.1582783"><ele>1199.0</ele><time>2026-05-02T10:09:47.981Z</time></trkpt><trkpt lat="42.9510583" lon="13.1584217"><ele>1199.0</ele><time>2026-05-02T10:09:48.983Z</time></trkpt><trkpt lat="42.9511033" lon="13.1585533"><ele>1199.0</ele><time>2026-05-02T10:09:49.981Z</time></trkpt><trkpt lat="42.95113" lon="13.158675"><ele>1199.0</ele><time>2026-05-02T10:09:50.983Z</time></trkpt><trkpt lat="42.951135" lon="13.1587883"><ele>1199.0</ele><time>2026-05-02T10:09:51.982Z</time></trkpt><trkpt lat="42.9511083" lon="13.15891"><ele>1198.8</ele><time>2026-05-02T10:09:52.983Z</time></trkpt><trkpt lat="42.951065" lon="13.1590433"><ele>1198.6000000000001</ele><time>2026-05-02T10:09:53.982Z</time></trkpt><trkpt lat="42.9510333" lon="13.15918"><ele>1198.4</ele><time>2026-05-02T10:09:54.982Z</time></trkpt><trkpt lat="42.9510217" lon="13.1593283"><ele>1198.2</ele><time>2026-05-02T10:09:55.983Z</time></trkpt><trkpt lat="42.9510333" lon="13.1594983"><ele>1198.0</ele><time>2026-05-02T10:09:56.983Z</time></trkpt><trkpt lat="42.9510517" lon="13.1596733"><ele>1198.0</ele><time>2026-05-02T10:09:57.981Z</time></trkpt><trkpt lat="42.951075" lon="13.1598483"><ele>1198.0</ele><time>2026-05-02T10:09:58.982Z</time></trkpt><trkpt lat="42.9511167" lon="13.1600333"><ele>1198.0</ele><time>2026-05-02T10:09:59.982Z</time></trkpt><trkpt lat="42.9511767" lon="13.1602233"><ele>1198.0</ele><time>2026-05-02T10:10:00.981Z</time></trkpt><trkpt lat="42.95124" lon="13.160405"><ele>1195.25</ele><time>2026-05-02T10:10:01.981Z</time></trkpt><trkpt lat="42.95129" lon="13.1605867"><ele>1192.5</ele><time>2026-05-02T10:10:02.982Z</time></trkpt><trkpt lat="42.9513217" lon="13.16077"><ele>1189.75</ele><time>2026-05-02T10:10:03.982Z</time></trkpt><trkpt lat="42.9513367" lon="13.1609533"><ele>1187.0</ele><time>2026-05-02T10:10:04.982Z</time></trkpt><trkpt lat="42.9513217" lon="13.161145"><ele>1185.25</ele><time>2026-05-02T10:10:05.981Z</time></trkpt><trkpt lat="42.95129" lon="13.1613383"><ele>1183.5</ele><time>2026-05-02T10:10:06.983Z</time></trkpt><trkpt lat="42.951245" lon="13.1615333"><ele>1181.75</ele><time>2026-05-02T10:10:07.981Z</time></trkpt><trkpt lat="42.9512017" lon="13.16173"><ele>1180.0</ele><time>2026-05-02T10:10:08.983Z</time></trkpt><trkpt lat="42.9511567" lon="13.1619267"><ele>1180.0</ele><time>2026-05-02T10:10:09.981Z</time></trkpt><trkpt lat="42.9511067" lon="13.1621183"><ele>1180.0</ele><time>2026-05-02T10:10:10.982Z</time></trkpt><trkpt lat="42.9510517" lon="13.1623"><ele>1180.0</ele><time>2026-05-02T10:10:11.983Z</time></trkpt><trkpt lat="42.9509933" lon="13.162465"><ele>1180.0</ele><time>2026-05-02T10:10:12.982Z</time></trkpt><trkpt lat="42.9509183" lon="13.1626033"><ele>1171.0</ele><time>2026-05-02T10:10:13.984Z</time></trkpt><trkpt lat="42.95083" lon="13.1627133"><ele>1162.0</ele><time>2026-05-02T10:10:14.983Z</time></trkpt><trkpt lat="42.950755" lon="13.1628033"><ele>1153.0</ele><time>2026-05-02T10:10:15.983Z</time></trkpt><trkpt lat="42.9507" lon="13.162885"><ele>1144.0</ele><time>2026-05-02T10:10:16.981Z</time></trkpt><trkpt lat="42.9506683" lon="13.1629667"><ele>1135.0</ele><time>2026-05-02T10:10:17.981Z</time></trkpt><trkpt lat="42.9506617" lon="13.1630533"><ele>1126.0</ele><time>2026-05-02T10:10:18.983Z</time></trkpt><trkpt lat="42.950685" lon="13.1631517"><ele>1125.75</ele><time>2026-05-02T10:10:19.983Z</time></trkpt><trkpt lat="42.9507117" lon="13.1632617"><ele>1125.5</ele><time>2026-05-02T10:10:20.982Z</time></trkpt><trkpt lat="42.95077" lon="13.1634083"><ele>1125.25</ele><time>2026-05-02T10:10:21.982Z</time></trkpt><trkpt lat="42.950845" lon="13.1635583"><ele>1125.0</ele><time>2026-05-02T10:10:22.981Z</time></trkpt><trkpt lat="42.9509217" lon="13.1637183"><ele>1131.75</ele><time>2026-05-02T10:10:23.982Z</time></trkpt><trkpt lat="42.9509983" lon="13.1638933"><ele>1138.5</ele><time>2026-05-02T10:10:24.982Z</time></trkpt><trkpt lat="42.95106" lon="13.1640683"><ele>1145.25</ele><time>2026-05-02T10:10:25.981Z</time></trkpt><trkpt lat="42.9511233" lon="13.164235"><ele>1152.0</ele><time>2026-05-02T10:10:26.982Z</time></trkpt><trkpt lat="42.951185" lon="13.1643983"><ele>1152.0</ele><time>2026-05-02T10:10:27.983Z</time></trkpt><trkpt lat="42.9512533" lon="13.1645517"><ele>1152.0</ele><time>2026-05-02T10:10:28.982Z</time></trkpt><trkpt lat="42.9513183" lon="13.164695"><ele>1152.0</ele><time>2026-05-02T10:10:29.981Z</time></trkpt><trkpt lat="42.9513717" lon="13.164835"><ele>1152.0</ele><time>2026-05-02T10:10:30.981Z</time></trkpt><trkpt lat="42.9514117" lon="13.164975"><ele>1147.2</ele><time>2026-05-02T10:10:31.982Z</time></trkpt><trkpt lat="42.9514317" lon="13.1651167"><ele>1142.4</ele><time>2026-05-02T10:10:32.983Z</time></trkpt><trkpt lat="42.95144" lon="13.16526"><ele>1137.6</ele><time>2026-05-02T10:10:33.981Z</time></trkpt><trkpt lat="42.9514533" lon="13.1653967"><ele>1132.8</ele><time>2026-05-02T10:10:34.981Z</time></trkpt><trkpt lat="42.9514867" lon="13.1655133"><ele>1128.0</ele><time>2026-05-02T10:10:35.982Z</time></trkpt><trkpt lat="42.95154" lon="13.1656383"><ele>1125.0</ele><time>2026-05-02T10:10:36.982Z</time></trkpt><trkpt lat="42.9515967" lon="13.1657683"><ele>1122.0</ele><time>2026-05-02T10:10:37.981Z</time></trkpt><trkpt lat="42.9516433" lon="13.1658983"><ele>1119.0</ele><time>2026-05-02T10:10:38.981Z</time></trkpt><trkpt lat="42.9516767" lon="13.16604"><ele>1116.0</ele><time>2026-05-02T10:10:39.983Z</time></trkpt><trkpt lat="42.9517" lon="13.1661883"><ele>1113.0</ele><time>2026-05-02T10:10:40.982Z</time></trkpt><trkpt lat="42.951695" lon="13.1663433"><ele>1113.0</ele><time>2026-05-02T10:10:41.981Z</time></trkpt><trkpt lat="42.9516733" lon="13.1665017"><ele>1113.0</ele><time>2026-05-02T10:10:42.981Z</time></trkpt><trkpt lat="42.9516333" lon="13.1666667"><ele>1113.0</ele><time>2026-05-02T10:10:43.982Z</time></trkpt><trkpt lat="42.9515917" lon="13.16682"><ele>1113.0</ele><time>2026-05-02T10:10:44.986Z</time></trkpt><trkpt lat="42.95155" lon="13.1669683"><ele>1111.6</ele><time>2026-05-02T10:10:45.982Z</time></trkpt><trkpt lat="42.95151" lon="13.167105"><ele>1110.1999999999998</ele><time>2026-05-02T10:10:46.981Z</time></trkpt><trkpt lat="42.9514833" lon="13.1672167"><ele>1108.8</ele><time>2026-05-02T10:10:47.983Z</time></trkpt><trkpt lat="42.9514633" lon="13.1673133"><ele>1107.3999999999999</ele><time>2026-05-02T10:10:48.983Z</time></trkpt><trkpt lat="42.95145" lon="13.1674017"><ele>1106.0</ele><time>2026-05-02T10:10:49.983Z</time></trkpt><trkpt lat="42.9514467" lon="13.1675633"><ele>1105.0</ele><time>2026-05-02T10:10:51.983Z</time></trkpt><trkpt lat="42.951485" lon="13.1677033"><ele>1104.0</ele><time>2026-05-02T10:10:53.982Z</time></trkpt><trkpt lat="42.9515417" lon="13.167835"><ele>1103.0</ele><time>2026-05-02T10:10:55.982Z</time></trkpt><trkpt lat="42.9516233" lon="13.1679617"><ele>1102.0</ele><time>2026-05-02T10:10:57.982Z</time></trkpt><trkpt lat="42.951675" lon="13.1680233"><ele>1101.0</ele><time>2026-05-02T10:10:58.983Z</time></trkpt><trkpt lat="42.9517267" lon="13.168095"><ele>1104.1666666666667</ele><time>2026-05-02T10:10:59.983Z</time></trkpt><trkpt lat="42.9517783" lon="13.16817"><ele>1107.3333333333333</ele><time>2026-05-02T10:11:00.982Z</time></trkpt><trkpt lat="42.95182" lon="13.1682583"><ele>1110.5</ele><time>2026-05-02T10:11:01.982Z</time></trkpt><trkpt lat="42.9518517" lon="13.1683467"><ele>1113.6666666666665</ele><time>2026-05-02T10:11:02.983Z</time></trkpt><trkpt lat="42.9518683" lon="13.16845"><ele>1116.8333333333333</ele><time>2026-05-02T10:11:03.982Z</time></trkpt><trkpt lat="42.9518733" lon="13.168565"><ele>1120.0</ele><time>2026-05-02T10:11:04.983Z</time></trkpt><trkpt lat="42.95186" lon="13.16869"><ele>1120.0</ele><time>2026-05-02T10:11:05.982Z</time></trkpt><trkpt lat="42.9518317" lon="13.16883"><ele>1120.0</ele><time>2026-05-02T10:11:06.982Z</time></trkpt><trkpt lat="42.9517917" lon="13.1689783"><ele>1120.0</ele><time>2026-05-02T10:11:07.983Z</time></trkpt><trkpt lat="42.9517533" lon="13.169125"><ele>1120.0</ele><time>2026-05-02T10:11:08.982Z</time></trkpt><trkpt lat="42.95171" lon="13.169265"><ele>1120.0</ele><time>2026-05-02T10:11:09.982Z</time></trkpt><trkpt lat="42.9516617" lon="13.169395"><ele>1114.0</ele><time>2026-05-02T10:11:10.983Z</time></trkpt><trkpt lat="42.9516067" lon="13.16951"><ele>1108.0</ele><time>2026-05-02T10:11:11.982Z</time></trkpt><trkpt lat="42.95154" lon="13.169615"><ele>1102.0</ele><time>2026-05-02T10:11:12.982Z</time></trkpt><trkpt lat="42.9514717" lon="13.1697267"><ele>1096.0</ele><time>2026-05-02T10:11:13.982Z</time></trkpt><trkpt lat="42.9514083" lon="13.1698567"><ele>1090.0</ele><time>2026-05-02T10:11:14.983Z</time></trkpt><trkpt lat="42.95136" lon="13.16999"><ele>1090.0</ele><time>2026-05-02T10:11:15.984Z</time></trkpt><trkpt lat="42.9513183" lon="13.1701367"><ele>1090.0</ele><time>2026-05-02T10:11:16.981Z</time></trkpt><trkpt lat="42.9512933" lon="13.17029"><ele>1090.0</ele><time>2026-05-02T10:11:17.981Z</time></trkpt><trkpt lat="42.9512783" lon="13.170445"><ele>1090.0</ele><time>2026-05-02T10:11:18.982Z</time></trkpt><trkpt lat="42.951275" lon="13.1705917"><ele>1089.6</ele><time>2026-05-02T10:11:19.983Z</time></trkpt><trkpt lat="42.951285" lon="13.17073"><ele>1089.2</ele><time>2026-05-02T10:11:20.983Z</time></trkpt><trkpt lat="42.951315" lon="13.17085"><ele>1088.8</ele><time>2026-05-02T10:11:21.982Z</time></trkpt><trkpt lat="42.9513567" lon="13.1709617"><ele>1088.4</ele><time>2026-05-02T10:11:22.983Z</time></trkpt><trkpt lat="42.9514183" lon="13.1710667"><ele>1088.0</ele><time>2026-05-02T10:11:23.982Z</time></trkpt><trkpt lat="42.95149" lon="13.1711583"><ele>1088.0</ele><time>2026-05-02T10:11:24.982Z</time></trkpt><trkpt lat="42.9515533" lon="13.171245"><ele>1088.0</ele><time>2026-05-02T10:11:25.983Z</time></trkpt><trkpt lat="42.9515983" lon="13.1713367"><ele>1088.0</ele><time>2026-05-02T10:11:26.982Z</time></trkpt><trkpt lat="42.9516217" lon="13.171455"><ele>1088.0</ele><time>2026-05-02T10:11:27.983Z</time></trkpt><trkpt lat="42.951625" lon="13.1716167"><ele>1088.0</ele><time>2026-05-02T10:11:28.982Z</time></trkpt><trkpt lat="42.951615" lon="13.17179"><ele>1085.6</ele><time>2026-05-02T10:11:29.983Z</time></trkpt><trkpt lat="42.951605" lon="13.17195"><ele>1083.1999999999998</ele><time>2026-05-02T10:11:30.983Z</time></trkpt><trkpt lat="42.9516017" lon="13.172095"><ele>1080.8</ele><time>2026-05-02T10:11:31.982Z</time></trkpt><trkpt lat="42.951615" lon="13.172235"><ele>1078.3999999999999</ele><time>2026-05-02T10:11:32.982Z</time></trkpt><trkpt lat="42.9516467" lon="13.1723483"><ele>1076.0</ele><time>2026-05-02T10:11:33.983Z</time></trkpt><trkpt lat="42.9516833" lon="13.1724517"><ele>1079.8333333333335</ele><time>2026-05-02T10:11:34.982Z</time></trkpt><trkpt lat="42.9517133" lon="13.172545"><ele>1083.6666666666667</ele><time>2026-05-02T10:11:35.982Z</time></trkpt><trkpt lat="42.95174" lon="13.1726433"><ele>1087.5</ele><time>2026-05-02T10:11:36.982Z</time></trkpt><trkpt lat="42.9517717" lon="13.1727483"><ele>1091.3333333333333</ele><time>2026-05-02T10:11:37.983Z</time></trkpt><trkpt lat="42.951805" lon="13.1728483"><ele>1095.1666666666665</ele><time>2026-05-02T10:11:38.982Z</time></trkpt><trkpt lat="42.95183" lon="13.1729517"><ele>1099.0</ele><time>2026-05-02T10:11:39.983Z</time></trkpt><trkpt lat="42.95184" lon="13.1730517"><ele>1099.0</ele><time>2026-05-02T10:11:40.982Z</time></trkpt><trkpt lat="42.9518083" lon="13.1731533"><ele>1099.0</ele><time>2026-05-02T10:11:41.983Z</time></trkpt><trkpt lat="42.9517583" lon="13.1732367"><ele>1099.0</ele><time>2026-05-02T10:11:42.983Z</time></trkpt><trkpt lat="42.9516833" lon="13.1732883"><ele>1099.0</ele><time>2026-05-02T10:11:43.982Z</time></trkpt><trkpt lat="42.95159" lon="13.1733217"><ele>1099.0</ele><time>2026-05-02T10:11:44.983Z</time></trkpt><trkpt lat="42.9514883" lon="13.1733383"><ele>1099.0</ele><time>2026-05-02T10:11:45.982Z</time></trkpt><trkpt lat="42.9513917" lon="13.17336"><ele>1095.6666666666665</ele><time>2026-05-02T10:11:46.983Z</time></trkpt><trkpt lat="42.9512967" lon="13.1733833"><ele>1092.3333333333333</ele><time>2026-05-02T10:11:47.983Z</time></trkpt><trkpt lat="42.9512083" lon="13.1734067"><ele>1089.0</ele><time>2026-05-02T10:11:48.982Z</time></trkpt><trkpt lat="42.9511283" lon="13.1734383"><ele>1085.6666666666667</ele><time>2026-05-02T10:11:49.982Z</time></trkpt><trkpt lat="42.95106" lon="13.173495"><ele>1082.3333333333335</ele><time>2026-05-02T10:11:50.983Z</time></trkpt><trkpt lat="42.9510083" lon="13.17357"><ele>1079.0</ele><time>2026-05-02T10:11:51.982Z</time></trkpt><trkpt lat="42.9509733" lon="13.1736467"><ele>1079.0</ele><time>2026-05-02T10:11:52.983Z</time></trkpt><trkpt lat="42.9509483" lon="13.1737283"><ele>1079.0</ele><time>2026-05-02T10:11:53.982Z</time></trkpt><trkpt lat="42.9509367" lon="13.1738133"><ele>1079.0</ele><time>2026-05-02T10:11:54.982Z</time></trkpt><trkpt lat="42.9509467" lon="13.173905"><ele>1079.0</ele><time>2026-05-02T10:11:55.983Z</time></trkpt><trkpt lat="42.9509667" lon="13.174005"><ele>1079.0</ele><time>2026-05-02T10:11:56.982Z</time></trkpt><trkpt lat="42.9509817" lon="13.1741067"><ele>1079.0</ele><time>2026-05-02T10:11:57.982Z</time></trkpt><trkpt lat="42.9509867" lon="13.1742117"><ele>1079.0</ele><time>2026-05-02T10:11:58.983Z</time></trkpt><trkpt lat="42.9509883" lon="13.1743117"><ele>1079.1666666666667</ele><time>2026-05-02T10:11:59.982Z</time></trkpt><trkpt lat="42.9509733" lon="13.1744117"><ele>1079.3333333333335</ele><time>2026-05-02T10:12:00.983Z</time></trkpt><trkpt lat="42.95095" lon="13.17451"><ele>1079.5</ele><time>2026-05-02T10:12:01.982Z</time></trkpt><trkpt lat="42.95093" lon="13.1746067"><ele>1079.6666666666667</ele><time>2026-05-02T10:12:02.983Z</time></trkpt><trkpt lat="42.95091" lon="13.174695"><ele>1079.8333333333333</ele><time>2026-05-02T10:12:03.982Z</time></trkpt><trkpt lat="42.9508733" lon="13.1748367"><ele>1080.0</ele><time>2026-05-02T10:12:05.981Z</time></trkpt><trkpt lat="42.9508717" lon="13.17497"><ele>1081.5</ele><time>2026-05-02T10:12:07.982Z</time></trkpt><trkpt lat="42.95086" lon="13.1751083"><ele>1083.0</ele><time>2026-05-02T10:12:09.982Z</time></trkpt><trkpt lat="42.9508417" lon="13.1752667"><ele>1084.5</ele><time>2026-05-02T10:12:11.981Z</time></trkpt><trkpt lat="42.950825" lon="13.1754317"><ele>1086.0</ele><time>2026-05-02T10:12:13.981Z</time></trkpt><trkpt lat="42.9508183" lon="13.1755967"><ele>1086.0</ele><time>2026-05-02T10:12:15.982Z</time></trkpt><trkpt lat="42.950815" lon="13.175685"><ele>1086.0</ele><time>2026-05-02T10:12:16.982Z</time></trkpt><trkpt lat="42.9508167" lon="13.1757883"><ele>1086.0</ele><time>2026-05-02T10:12:17.981Z</time></trkpt><trkpt lat="42.9508167" lon="13.1759083"><ele>1086.0</ele><time>2026-05-02T10:12:18.982Z</time></trkpt><trkpt lat="42.9508167" lon="13.176045"><ele>1086.0</ele><time>2026-05-02T10:12:19.981Z</time></trkpt><trkpt lat="42.9508117" lon="13.1761983"><ele>1086.0</ele><time>2026-05-02T10:12:20.982Z</time></trkpt><trkpt lat="42.9508083" lon="13.1763683"><ele>1085.5</ele><time>2026-05-02T10:12:21.981Z</time></trkpt><trkpt lat="42.9508117" lon="13.176535"><ele>1085.0</ele><time>2026-05-02T10:12:22.982Z</time></trkpt><trkpt lat="42.9508167" lon="13.1766983"><ele>1084.5</ele><time>2026-05-02T10:12:23.981Z</time></trkpt><trkpt lat="42.9508283" lon="13.1768483"><ele>1084.0</ele><time>2026-05-02T10:12:24.982Z</time></trkpt><trkpt lat="42.95084" lon="13.1769833"><ele>1084.0</ele><time>2026-05-02T10:12:25.982Z</time></trkpt><trkpt lat="42.9508433" lon="13.1771017"><ele>1084.0</ele><time>2026-05-02T10:12:26.981Z</time></trkpt><trkpt lat="42.950835" lon="13.1772067"><ele>1084.0</ele><time>2026-05-02T10:12:27.982Z</time></trkpt><trkpt lat="42.9508083" lon="13.1772967"><ele>1084.0</ele><time>2026-05-02T10:12:28.982Z</time></trkpt><trkpt lat="42.9507717" lon="13.177375"><ele>1084.0</ele><time>2026-05-02T10:12:29.981Z</time></trkpt><trkpt lat="42.9507183" lon="13.1774433"><ele>1084.0</ele><time>2026-05-02T10:12:30.982Z</time></trkpt><trkpt lat="42.95064" lon="13.177485"><ele>1085.3333333333333</ele><time>2026-05-02T10:12:31.981Z</time></trkpt><trkpt lat="42.9505533" lon="13.1775217"><ele>1086.6666666666665</ele><time>2026-05-02T10:12:32.983Z</time></trkpt><trkpt lat="42.9504683" lon="13.1775367"><ele>1088.0</ele><time>2026-05-02T10:12:33.981Z</time></trkpt><trkpt lat="42.9503783" lon="13.17755"><ele>1089.3333333333333</ele><time>2026-05-02T10:12:34.981Z</time></trkpt><trkpt lat="42.9502867" lon="13.1775633"><ele>1090.6666666666667</ele><time>2026-05-02T10:12:35.982Z</time></trkpt><trkpt lat="42.9501967" lon="13.1775733"><ele>1092.0</ele><time>2026-05-02T10:12:36.981Z</time></trkpt><trkpt lat="42.9501133" lon="13.1775867"><ele>1090.0</ele><time>2026-05-02T10:12:37.982Z</time></trkpt><trkpt lat="42.950035" lon="13.1776033"><ele>1088.0</ele><time>2026-05-02T10:12:38.982Z</time></trkpt><trkpt lat="42.9499583" lon="13.1776233"><ele>1086.0</ele><time>2026-05-02T10:12:39.981Z</time></trkpt><trkpt lat="42.9498867" lon="13.1776517"><ele>1084.0</ele><time>2026-05-02T10:12:40.981Z</time></trkpt><trkpt lat="42.9498317" lon="13.177705"><ele>1082.0</ele><time>2026-05-02T10:12:41.981Z</time></trkpt><trkpt lat="42.949795" lon="13.1777767"><ele>1080.0</ele><time>2026-05-02T10:12:42.982Z</time></trkpt><trkpt lat="42.9497733" lon="13.1778583"><ele>1078.0</ele><time>2026-05-02T10:12:43.982Z</time></trkpt><trkpt lat="42.9497517" lon="13.177945"><ele>1078.0</ele><time>2026-05-02T10:12:44.984Z</time></trkpt><trkpt lat="42.94973" lon="13.1780267"><ele>1078.0</ele><time>2026-05-02T10:12:45.984Z</time></trkpt><trkpt lat="42.9496817" lon="13.1781817"><ele>1078.0</ele><time>2026-05-02T10:12:47.983Z</time></trkpt><trkpt lat="42.9496533" lon="13.17826"><ele>1078.0</ele><time>2026-05-02T10:12:48.982Z</time></trkpt><trkpt lat="42.949605" lon="13.178405"><ele>1078.0</ele><time>2026-05-02T10:12:50.982Z</time></trkpt><trkpt lat="42.949605" lon="13.1785667"><ele>1081.5</ele><time>2026-05-02T10:12:52.982Z</time></trkpt><trkpt lat="42.9496433" lon="13.1787317"><ele>1085.0</ele><time>2026-05-02T10:12:54.981Z</time></trkpt><trkpt lat="42.9496617" lon="13.17882"><ele>1088.5</ele><time>2026-05-02T10:12:55.982Z</time></trkpt><trkpt lat="42.9496817" lon="13.1789117"><ele>1092.0</ele><time>2026-05-02T10:12:56.981Z</time></trkpt><trkpt lat="42.9496933" lon="13.1790083"><ele>1095.5</ele><time>2026-05-02T10:12:57.982Z</time></trkpt><trkpt lat="42.9497" lon="13.1791117"><ele>1099.0</ele><time>2026-05-02T10:12:58.981Z</time></trkpt><trkpt lat="42.9496983" lon="13.1792183"><ele>1102.6000000000001</ele><time>2026-05-02T10:12:59.983Z</time></trkpt><trkpt lat="42.94969" lon="13.1793283"><ele>1106.2</ele><time>2026-05-02T10:13:00.982Z</time></trkpt><trkpt lat="42.949675" lon="13.17944"><ele>1109.8000000000002</ele><time>2026-05-02T10:13:01.982Z</time></trkpt><trkpt lat="42.94965" lon="13.17956"><ele>1113.4</ele><time>2026-05-02T10:13:02.983Z</time></trkpt><trkpt lat="42.9496117" lon="13.1796867"><ele>1117.0</ele><time>2026-05-02T10:13:03.982Z</time></trkpt><trkpt lat="42.949565" lon="13.1798133"><ele>1121.0</ele><time>2026-05-02T10:13:04.981Z</time></trkpt><trkpt lat="42.9495183" lon="13.1799417"><ele>1125.0</ele><time>2026-05-02T10:13:05.982Z</time></trkpt><trkpt lat="42.9494717" lon="13.1800633"><ele>1129.0</ele><time>2026-05-02T10:13:06.981Z</time></trkpt><trkpt lat="42.949435" lon="13.1801733"><ele>1133.0</ele><time>2026-05-02T10:13:07.982Z</time></trkpt><trkpt lat="42.9493983" lon="13.1802817"><ele>1137.0</ele><time>2026-05-02T10:13:08.982Z</time></trkpt><trkpt lat="42.949365" lon="13.1803883"><ele>1137.0</ele><time>2026-05-02T10:13:09.981Z</time></trkpt><trkpt lat="42.9493283" lon="13.1804833"><ele>1137.0</ele><time>2026-05-02T10:13:10.982Z</time></trkpt><trkpt lat="42.94929" lon="13.1805717"><ele>1137.0</ele><time>2026-05-02T10:13:11.982Z</time></trkpt><trkpt lat="42.949255" lon="13.18066"><ele>1137.0</ele><time>2026-05-02T10:13:12.981Z</time></trkpt><trkpt lat="42.9492317" lon="13.1807633"><ele>1137.0</ele><time>2026-05-02T10:13:13.981Z</time></trkpt><trkpt lat="42.9492117" lon="13.180875"><ele>1137.0</ele><time>2026-05-02T10:13:14.984Z</time></trkpt><trkpt lat="42.949195" lon="13.180985"><ele>1132.6666666666667</ele><time>2026-05-02T10:13:15.982Z</time></trkpt><trkpt lat="42.949175" lon="13.1810783"><ele>1128.3333333333333</ele><time>2026-05-02T10:13:16.981Z</time></trkpt><trkpt lat="42.9491467" lon="13.18116"><ele>1124.0</ele><time>2026-05-02T10:13:17.983Z</time></trkpt><trkpt lat="42.94911" lon="13.1812433"><ele>1119.6666666666665</ele><time>2026-05-02T10:13:18.981Z</time></trkpt><trkpt lat="42.9490633" lon="13.1813333"><ele>1115.3333333333333</ele><time>2026-05-02T10:13:19.982Z</time></trkpt><trkpt lat="42.9490067" lon="13.1814217"><ele>1111.0</ele><time>2026-05-02T10:13:20.983Z</time></trkpt><trkpt lat="42.9489433" lon="13.1815033"><ele>1115.5</ele><time>2026-05-02T10:13:21.982Z</time></trkpt><trkpt lat="42.9488767" lon="13.1815783"><ele>1120.0</ele><time>2026-05-02T10:13:22.983Z</time></trkpt><trkpt lat="42.9488167" lon="13.181655"><ele>1124.5</ele><time>2026-05-02T10:13:23.981Z</time></trkpt><trkpt lat="42.9487733" lon="13.1817333"><ele>1129.0</ele><time>2026-05-02T10:13:24.981Z</time></trkpt><trkpt lat="42.9487483" lon="13.1818367"><ele>1133.5</ele><time>2026-05-02T10:13:25.982Z</time></trkpt><trkpt lat="42.94874" lon="13.1819483"><ele>1138.0</ele><time>2026-05-02T10:13:26.981Z</time></trkpt><trkpt lat="42.94874" lon="13.182055"><ele>1138.0</ele><time>2026-05-02T10:13:27.982Z</time></trkpt><trkpt lat="42.9487217" lon="13.1821567"><ele>1138.0</ele><time>2026-05-02T10:13:28.982Z</time></trkpt><trkpt lat="42.9486867" lon="13.1822467"><ele>1138.0</ele><time>2026-05-02T10:13:29.981Z</time></trkpt><trkpt lat="42.94864" lon="13.1823233"><ele>1138.0</ele><time>2026-05-02T10:13:30.981Z</time></trkpt><trkpt lat="42.9485833" lon="13.1823883"><ele>1138.0</ele><time>2026-05-02T10:13:31.981Z</time></trkpt><trkpt lat="42.9485167" lon="13.1824483"><ele>1138.0</ele><time>2026-05-02T10:13:32.981Z</time></trkpt><trkpt lat="42.9484483" lon="13.1825133"><ele>1134.6666666666665</ele><time>2026-05-02T10:13:33.981Z</time></trkpt><trkpt lat="42.9483917" lon="13.1825817"><ele>1131.3333333333333</ele><time>2026-05-02T10:13:34.982Z</time></trkpt><trkpt lat="42.948355" lon="13.1826583"><ele>1128.0</ele><time>2026-05-02T10:13:35.982Z</time></trkpt><trkpt lat="42.9483283" lon="13.18275"><ele>1124.6666666666667</ele><time>2026-05-02T10:13:36.983Z</time></trkpt><trkpt lat="42.9483167" lon="13.18286"><ele>1121.3333333333335</ele><time>2026-05-02T10:13:37.981Z</time></trkpt><trkpt lat="42.94832" lon="13.1829917"><ele>1118.0</ele><time>2026-05-02T10:13:38.982Z</time></trkpt><trkpt lat="42.9483317" lon="13.18314"><ele>1120.4</ele><time>2026-05-02T10:13:39.982Z</time></trkpt><trkpt lat="42.94835" lon="13.1832933"><ele>1122.8</ele><time>2026-05-02T10:13:40.981Z</time></trkpt><trkpt lat="42.9483683" lon="13.1834517"><ele>1125.2</ele><time>2026-05-02T10:13:41.982Z</time></trkpt><trkpt lat="42.94838" lon="13.1835933"><ele>1127.6</ele><time>2026-05-02T10:13:42.981Z</time></trkpt><trkpt lat="42.948385" lon="13.1837167"><ele>1130.0</ele><time>2026-05-02T10:13:43.981Z</time></trkpt><trkpt lat="42.94838" lon="13.183835"><ele>1130.0</ele><time>2026-05-02T10:13:44.983Z</time></trkpt><trkpt lat="42.9483633" lon="13.18395"><ele>1130.0</ele><time>2026-05-02T10:13:45.982Z</time></trkpt><trkpt lat="42.9483367" lon="13.184065"><ele>1130.0</ele><time>2026-05-02T10:13:46.982Z</time></trkpt><trkpt lat="42.9483067" lon="13.1841883"><ele>1130.0</ele><time>2026-05-02T10:13:47.981Z</time></trkpt><trkpt lat="42.9482883" lon="13.1843167"><ele>1130.0</ele><time>2026-05-02T10:13:48.981Z</time></trkpt><trkpt lat="42.9482867" lon="13.1844567"><ele>1132.2</ele><time>2026-05-02T10:13:49.982Z</time></trkpt><trkpt lat="42.9482917" lon="13.1846033"><ele>1134.4</ele><time>2026-05-02T10:13:50.982Z</time></trkpt><trkpt lat="42.9482917" lon="13.1847433"><ele>1136.6</ele><time>2026-05-02T10:13:51.983Z</time></trkpt><trkpt lat="42.9482867" lon="13.1848683"><ele>1138.8</ele><time>2026-05-02T10:13:52.982Z</time></trkpt><trkpt lat="42.9482717" lon="13.1849767"><ele>1141.0</ele><time>2026-05-02T10:13:53.982Z</time></trkpt><trkpt lat="42.948245" lon="13.1850783"><ele>1143.3333333333333</ele><time>2026-05-02T10:13:54.982Z</time></trkpt><trkpt lat="42.94821" lon="13.185175"><ele>1145.6666666666665</ele><time>2026-05-02T10:13:55.981Z</time></trkpt><trkpt lat="42.9481633" lon="13.1852733"><ele>1148.0</ele><time>2026-05-02T10:13:56.981Z</time></trkpt><trkpt lat="42.948125" lon="13.1853817"><ele>1150.3333333333333</ele><time>2026-05-02T10:13:57.981Z</time></trkpt><trkpt lat="42.9481083" lon="13.1854967"><ele>1152.6666666666667</ele><time>2026-05-02T10:13:58.981Z</time></trkpt><trkpt lat="42.948105" lon="13.185625"><ele>1155.0</ele><time>2026-05-02T10:13:59.982Z</time></trkpt><trkpt lat="42.9481083" lon="13.1857533"><ele>1158.4</ele><time>2026-05-02T10:14:00.982Z</time></trkpt><trkpt lat="42.94811" lon="13.1858817"><ele>1161.8</ele><time>2026-05-02T10:14:01.982Z</time></trkpt><trkpt lat="42.9480933" lon="13.1860017"><ele>1165.2</ele><time>2026-05-02T10:14:02.982Z</time></trkpt><trkpt lat="42.9480667" lon="13.18612"><ele>1168.6</ele><time>2026-05-02T10:14:03.981Z</time></trkpt><trkpt lat="42.9480317" lon="13.18624"><ele>1172.0</ele><time>2026-05-02T10:14:04.981Z</time></trkpt><trkpt lat="42.948" lon="13.1863667"><ele>1172.0</ele><time>2026-05-02T10:14:05.981Z</time></trkpt><trkpt lat="42.9479867" lon="13.1864983"><ele>1172.0</ele><time>2026-05-02T10:14:06.982Z</time></trkpt><trkpt lat="42.9479833" lon="13.1866367"><ele>1172.0</ele><time>2026-05-02T10:14:07.981Z</time></trkpt><trkpt lat="42.947985" lon="13.186775"><ele>1172.0</ele><time>2026-05-02T10:14:08.981Z</time></trkpt><trkpt lat="42.9479867" lon="13.1869167"><ele>1172.0</ele><time>2026-05-02T10:14:09.981Z</time></trkpt><trkpt lat="42.9479917" lon="13.1870567"><ele>1173.8</ele><time>2026-05-02T10:14:10.981Z</time></trkpt><trkpt lat="42.9479917" lon="13.187195"><ele>1175.6</ele><time>2026-05-02T10:14:11.982Z</time></trkpt><trkpt lat="42.9480017" lon="13.18733"><ele>1177.3999999999999</ele><time>2026-05-02T10:14:12.982Z</time></trkpt><trkpt lat="42.948025" lon="13.1874567"><ele>1179.2</ele><time>2026-05-02T10:14:13.982Z</time></trkpt><trkpt lat="42.9480633" lon="13.1875667"><ele>1181.0</ele><time>2026-05-02T10:14:14.981Z</time></trkpt><trkpt lat="42.948115" lon="13.1876583"><ele>1181.0</ele><time>2026-05-02T10:14:15.982Z</time></trkpt><trkpt lat="42.9481617" lon="13.187735"><ele>1181.0</ele><time>2026-05-02T10:14:16.982Z</time></trkpt><trkpt lat="42.948195" lon="13.1878083"><ele>1181.0</ele><time>2026-05-02T10:14:17.982Z</time></trkpt><trkpt lat="42.9481833" lon="13.18796"><ele>1181.0</ele><time>2026-05-02T10:14:19.982Z</time></trkpt><trkpt lat="42.9481583" lon="13.188045"><ele>1181.0</ele><time>2026-05-02T10:14:20.983Z</time></trkpt><trkpt lat="42.9481367" lon="13.1881583"><ele>1181.0</ele><time>2026-05-02T10:14:21.982Z</time></trkpt><trkpt lat="42.94812" lon="13.188295"><ele>1181.0</ele><time>2026-05-02T10:14:22.982Z</time></trkpt><trkpt lat="42.9481083" lon="13.1884467"><ele>1181.0</ele><time>2026-05-02T10:14:23.982Z</time></trkpt><trkpt lat="42.9481" lon="13.1886"><ele>1181.0</ele><time>2026-05-02T10:14:24.982Z</time></trkpt><trkpt lat="42.9480883" lon="13.188755"><ele>1181.0</ele><time>2026-05-02T10:14:25.982Z</time></trkpt><trkpt lat="42.9480883" lon="13.188915"><ele>1181.75</ele><time>2026-05-02T10:14:26.983Z</time></trkpt><trkpt lat="42.948095" lon="13.1890767"><ele>1182.5</ele><time>2026-05-02T10:14:27.982Z</time></trkpt><trkpt lat="42.9481033" lon="13.1892367"><ele>1183.25</ele><time>2026-05-02T10:14:28.982Z</time></trkpt><trkpt lat="42.94811" lon="13.1893917"><ele>1184.0</ele><time>2026-05-02T10:14:29.983Z</time></trkpt><trkpt lat="42.9481267" lon="13.18953"><ele>1184.0</ele><time>2026-05-02T10:14:30.983Z</time></trkpt><trkpt lat="42.9481467" lon="13.1896567"><ele>1184.0</ele><time>2026-05-02T10:14:31.982Z</time></trkpt><trkpt lat="42.9481667" lon="13.1897717"><ele>1184.0</ele><time>2026-05-02T10:14:32.982Z</time></trkpt><trkpt lat="42.9481917" lon="13.1898683"><ele>1184.0</ele><time>2026-05-02T10:14:33.982Z</time></trkpt><trkpt lat="42.9482333" lon="13.1899433"><ele>1184.0</ele><time>2026-05-02T10:14:34.982Z</time></trkpt><trkpt lat="42.9482867" lon="13.1900067"><ele>1184.0</ele><time>2026-05-02T10:14:35.981Z</time></trkpt><trkpt lat="42.948345" lon="13.1900567"><ele>1190.0</ele><time>2026-05-02T10:14:36.982Z</time></trkpt><trkpt lat="42.9484033" lon="13.1900983"><ele>1196.0</ele><time>2026-05-02T10:14:37.982Z</time></trkpt><trkpt lat="42.9485183" lon="13.19018"><ele>1202.0</ele><time>2026-05-02T10:14:39.981Z</time></trkpt><trkpt lat="42.948575" lon="13.190235"><ele>1208.0</ele><time>2026-05-02T10:14:40.982Z</time></trkpt><trkpt lat="42.9486217" lon="13.1903067"><ele>1214.0</ele><time>2026-05-02T10:14:41.981Z</time></trkpt><trkpt lat="42.9486633" lon="13.19039"><ele>1220.0</ele><time>2026-05-02T10:14:42.982Z</time></trkpt><trkpt lat="42.9486833" lon="13.1904783"><ele>1220.0</ele><time>2026-05-02T10:14:43.982Z</time></trkpt><trkpt lat="42.9486717" lon="13.19064"><ele>1220.0</ele><time>2026-05-02T10:14:45.982Z</time></trkpt><trkpt lat="42.9486333" lon="13.1907267"><ele>1220.0</ele><time>2026-05-02T10:14:46.982Z</time></trkpt><trkpt lat="42.948595" lon="13.1908183"><ele>1220.0</ele><time>2026-05-02T10:14:47.983Z</time></trkpt><trkpt lat="42.94857" lon="13.1909133"><ele>1220.0</ele><time>2026-05-02T10:14:48.981Z</time></trkpt><trkpt lat="42.9485567" lon="13.1910033"><ele>1220.0</ele><time>2026-05-02T10:14:49.981Z</time></trkpt><trkpt lat="42.9485667" lon="13.1911683"><ele>1214.6</ele><time>2026-05-02T10:14:51.982Z</time></trkpt><trkpt lat="42.9486367" lon="13.1913067"><ele>1209.2</ele><time>2026-05-02T10:14:53.982Z</time></trkpt><trkpt lat="42.9487" lon="13.191365"><ele>1203.8</ele><time>2026-05-02T10:14:54.981Z</time></trkpt><trkpt lat="42.9487767" lon="13.1914283"><ele>1198.4</ele><time>2026-05-02T10:14:55.981Z</time></trkpt><trkpt lat="42.9488517" lon="13.1914917"><ele>1193.0</ele><time>2026-05-02T10:14:56.982Z</time></trkpt><trkpt lat="42.9489267" lon="13.1915483"><ele>1194.3333333333335</ele><time>2026-05-02T10:14:57.983Z</time></trkpt><trkpt lat="42.9490117" lon="13.19159"><ele>1195.6666666666667</ele><time>2026-05-02T10:14:58.982Z</time></trkpt><trkpt lat="42.9491033" lon="13.1916067"><ele>1197.0</ele><time>2026-05-02T10:14:59.982Z</time></trkpt><trkpt lat="42.9491933" lon="13.191615"><ele>1198.3333333333333</ele><time>2026-05-02T10:15:00.982Z</time></trkpt><trkpt lat="42.9492717" lon="13.191625"><ele>1199.6666666666665</ele><time>2026-05-02T10:15:01.982Z</time></trkpt><trkpt lat="42.9493467" lon="13.1916567"><ele>1201.0</ele><time>2026-05-02T10:15:02.983Z</time></trkpt><trkpt lat="42.949425" lon="13.19171"><ele>1201.0</ele><time>2026-05-02T10:15:03.983Z</time></trkpt><trkpt lat="42.949505" lon="13.1917833"><ele>1201.0</ele><time>2026-05-02T10:15:04.982Z</time></trkpt><trkpt lat="42.9495817" lon="13.19186"><ele>1201.0</ele><time>2026-05-02T10:15:05.982Z</time></trkpt><trkpt lat="42.949645" lon="13.19193"><ele>1201.0</ele><time>2026-05-02T10:15:06.983Z</time></trkpt><trkpt lat="42.9496933" lon="13.1919983"><ele>1201.0</ele><time>2026-05-02T10:15:07.983Z</time></trkpt><trkpt lat="42.94973" lon="13.1921417"><ele>1201.0</ele><time>2026-05-02T10:15:09.981Z</time></trkpt><trkpt lat="42.9497183" lon="13.1922467"><ele>1201.0</ele><time>2026-05-02T10:15:11.983Z</time></trkpt><trkpt lat="42.9496517" lon="13.192345"><ele>1201.0</ele><time>2026-05-02T10:15:13.981Z</time></trkpt><trkpt lat="42.949595" lon="13.1924033"><ele>1201.0</ele><time>2026-05-02T10:15:14.984Z</time></trkpt><trkpt lat="42.9495167" lon="13.19247"><ele>1201.0</ele><time>2026-05-02T10:15:15.981Z</time></trkpt><trkpt lat="42.9494217" lon="13.19254"><ele>1201.0</ele><time>2026-05-02T10:15:16.983Z</time></trkpt><trkpt lat="42.94932" lon="13.1926167"><ele>1194.75</ele><time>2026-05-02T10:15:17.982Z</time></trkpt><trkpt lat="42.94921" lon="13.1927083"><ele>1188.5</ele><time>2026-05-02T10:15:18.983Z</time></trkpt><trkpt lat="42.9490883" lon="13.19282"><ele>1182.25</ele><time>2026-05-02T10:15:19.982Z</time></trkpt><trkpt lat="42.9489617" lon="13.192925"><ele>1176.0</ele><time>2026-05-02T10:15:20.982Z</time></trkpt><trkpt lat="42.948835" lon="13.1930233"><ele>1175.0</ele><time>2026-05-02T10:15:21.983Z</time></trkpt><trkpt lat="42.948715" lon="13.19313"><ele>1174.0</ele><time>2026-05-02T10:15:22.982Z</time></trkpt><trkpt lat="42.9486017" lon="13.193235"><ele>1173.0</ele><time>2026-05-02T10:15:23.982Z</time></trkpt><trkpt lat="42.9485017" lon="13.19333"><ele>1172.0</ele><time>2026-05-02T10:15:24.983Z</time></trkpt><trkpt lat="42.9484217" lon="13.1934233"><ele>1170.2</ele><time>2026-05-02T10:15:25.983Z</time></trkpt><trkpt lat="42.9483667" lon="13.1935267"><ele>1168.4</ele><time>2026-05-02T10:15:26.982Z</time></trkpt><trkpt lat="42.9483217" lon="13.193655"><ele>1166.6</ele><time>2026-05-02T10:15:27.983Z</time></trkpt><trkpt lat="42.9482867" lon="13.19381"><ele>1164.8</ele><time>2026-05-02T10:15:28.985Z</time></trkpt><trkpt lat="42.9482533" lon="13.1939717"><ele>1163.0</ele><time>2026-05-02T10:15:29.983Z</time></trkpt><trkpt lat="42.948215" lon="13.194115"><ele>1163.0</ele><time>2026-05-02T10:15:30.983Z</time></trkpt><trkpt lat="42.948165" lon="13.19425"><ele>1163.0</ele><time>2026-05-02T10:15:31.982Z</time></trkpt><trkpt lat="42.9481017" lon="13.1943917"><ele>1163.0</ele><time>2026-05-02T10:15:32.983Z</time></trkpt><trkpt lat="42.9480317" lon="13.19454"><ele>1163.0</ele><time>2026-05-02T10:15:33.983Z</time></trkpt><trkpt lat="42.9479667" lon="13.1946867"><ele>1163.0</ele><time>2026-05-02T10:15:34.983Z</time></trkpt><trkpt lat="42.9479167" lon="13.1948267"><ele>1163.0</ele><time>2026-05-02T10:15:35.982Z</time></trkpt><trkpt lat="42.9478733" lon="13.1949633"><ele>1163.0</ele><time>2026-05-02T10:15:36.984Z</time></trkpt><trkpt lat="42.947835" lon="13.1951167"><ele>1163.0</ele><time>2026-05-02T10:15:37.982Z</time></trkpt><trkpt lat="42.9477817" lon="13.195285"><ele>1170.25</ele><time>2026-05-02T10:15:38.983Z</time></trkpt><trkpt lat="42.9477267" lon="13.1954583"><ele>1177.5</ele><time>2026-05-02T10:15:39.983Z</time></trkpt><trkpt lat="42.947675" lon="13.1956267"><ele>1184.75</ele><time>2026-05-02T10:15:40.982Z</time></trkpt><trkpt lat="42.9476233" lon="13.1957817"><ele>1192.0</ele><time>2026-05-02T10:15:41.983Z</time></trkpt><trkpt lat="42.9475667" lon="13.19591"><ele>1185.25</ele><time>2026-05-02T10:15:42.983Z</time></trkpt><trkpt lat="42.9474767" lon="13.1960267"><ele>1178.5</ele><time>2026-05-02T10:15:43.982Z</time></trkpt><trkpt lat="42.94737" lon="13.1961433"><ele>1171.75</ele><time>2026-05-02T10:15:44.982Z</time></trkpt><trkpt lat="42.9472433" lon="13.196255"><ele>1165.0</ele><time>2026-05-02T10:15:45.983Z</time></trkpt><trkpt lat="42.947135" lon="13.1963617"><ele>1165.0</ele><time>2026-05-02T10:15:46.983Z</time></trkpt><trkpt lat="42.94705" lon="13.19646"><ele>1165.0</ele><time>2026-05-02T10:15:47.984Z</time></trkpt><trkpt lat="42.9469933" lon="13.19656"><ele>1165.0</ele><time>2026-05-02T10:15:48.982Z</time></trkpt><trkpt lat="42.9469483" lon="13.1966867"><ele>1165.0</ele><time>2026-05-02T10:15:49.983Z</time></trkpt><trkpt lat="42.94692" lon="13.1968533"><ele>1165.0</ele><time>2026-05-02T10:15:50.983Z</time></trkpt><trkpt lat="42.946895" lon="13.1970317"><ele>1171.25</ele><time>2026-05-02T10:15:51.982Z</time></trkpt><trkpt lat="42.9468683" lon="13.197195"><ele>1177.5</ele><time>2026-05-02T10:15:52.983Z</time></trkpt><trkpt lat="42.9468433" lon="13.1973383"><ele>1183.75</ele><time>2026-05-02T10:15:53.982Z</time></trkpt><trkpt lat="42.9468167" lon="13.19748"><ele>1190.0</ele><time>2026-05-02T10:15:54.983Z</time></trkpt><trkpt lat="42.94679" lon="13.19763"><ele>1189.0</ele><time>2026-05-02T10:15:55.982Z</time></trkpt><trkpt lat="42.946755" lon="13.19778"><ele>1188.0</ele><time>2026-05-02T10:15:56.983Z</time></trkpt><trkpt lat="42.9467083" lon="13.19793"><ele>1187.0</ele><time>2026-05-02T10:15:57.983Z</time></trkpt><trkpt lat="42.946675" lon="13.1980817"><ele>1186.0</ele><time>2026-05-02T10:15:58.983Z</time></trkpt><trkpt lat="42.9466567" lon="13.1982117"><ele>1185.0</ele><time>2026-05-02T10:15:59.982Z</time></trkpt><trkpt lat="42.9466467" lon="13.1983233"><ele>1185.0</ele><time>2026-05-02T10:16:00.983Z</time></trkpt><trkpt lat="42.94665" lon="13.1984233"><ele>1185.0</ele><time>2026-05-02T10:16:01.982Z</time></trkpt><trkpt lat="42.9466667" lon="13.19856"><ele>1185.0</ele><time>2026-05-02T10:16:03.982Z</time></trkpt><trkpt lat="42.9466567" lon="13.1986783"><ele>1185.0</ele><time>2026-05-02T10:16:05.983Z</time></trkpt><trkpt lat="42.946625" lon="13.1987917"><ele>1185.0</ele><time>2026-05-02T10:16:07.981Z</time></trkpt><trkpt lat="42.9465667" lon="13.198865"><ele>1185.0</ele><time>2026-05-02T10:16:09.981Z</time></trkpt><trkpt lat="42.9464817" lon="13.198895"><ele>1185.0</ele><time>2026-05-02T10:16:11.982Z</time></trkpt><trkpt lat="42.9463517" lon="13.198905"><ele>1185.0</ele><time>2026-05-02T10:16:13.982Z</time></trkpt><trkpt lat="42.9462767" lon="13.1989133"><ele>1185.0</ele><time>2026-05-02T10:16:14.982Z</time></trkpt><trkpt lat="42.94619" lon="13.198945"><ele>1185.0</ele><time>2026-05-02T10:16:15.982Z</time></trkpt><trkpt lat="42.9460967" lon="13.1989967"><ele>1185.0</ele><time>2026-05-02T10:16:16.982Z</time></trkpt><trkpt lat="42.9460033" lon="13.199065"><ele>1181.75</ele><time>2026-05-02T10:16:17.982Z</time></trkpt><trkpt lat="42.9459167" lon="13.199155"><ele>1178.5</ele><time>2026-05-02T10:16:18.982Z</time></trkpt><trkpt lat="42.9458317" lon="13.199265"><ele>1175.25</ele><time>2026-05-02T10:16:19.982Z</time></trkpt><trkpt lat="42.94575" lon="13.1993933"><ele>1172.0</ele><time>2026-05-02T10:16:20.982Z</time></trkpt><trkpt lat="42.9456667" lon="13.1995167"><ele>1172.0</ele><time>2026-05-02T10:16:21.982Z</time></trkpt><trkpt lat="42.94557" lon="13.1996283"><ele>1172.0</ele><time>2026-05-02T10:16:22.982Z</time></trkpt><trkpt lat="42.945465" lon="13.1997317"><ele>1172.0</ele><time>2026-05-02T10:16:23.981Z</time></trkpt><trkpt lat="42.945355" lon="13.19983"><ele>1172.0</ele><time>2026-05-02T10:16:24.981Z</time></trkpt><trkpt lat="42.9452383" lon="13.1999283"><ele>1178.25</ele><time>2026-05-02T10:16:25.981Z</time></trkpt><trkpt lat="42.9451233" lon="13.2000267"><ele>1184.5</ele><time>2026-05-02T10:16:26.982Z</time></trkpt><trkpt lat="42.9450233" lon="13.2001133"><ele>1190.75</ele><time>2026-05-02T10:16:27.982Z</time></trkpt><trkpt lat="42.944935" lon="13.2001867"><ele>1197.0</ele><time>2026-05-02T10:16:28.982Z</time></trkpt><trkpt lat="42.9448583" lon="13.2002633"><ele>1197.0</ele><time>2026-05-02T10:16:29.982Z</time></trkpt><trkpt lat="42.9447833" lon="13.2003483"><ele>1197.0</ele><time>2026-05-02T10:16:30.982Z</time></trkpt><trkpt lat="42.944705" lon="13.2004367"><ele>1197.0</ele><time>2026-05-02T10:16:31.981Z</time></trkpt><trkpt lat="42.9446233" lon="13.2005217"><ele>1197.0</ele><time>2026-05-02T10:16:32.982Z</time></trkpt><trkpt lat="42.94454" lon="13.20059"><ele>1197.0</ele><time>2026-05-02T10:16:33.982Z</time></trkpt><trkpt lat="42.9444617" lon="13.2006283"><ele>1197.0</ele><time>2026-05-02T10:16:34.981Z</time></trkpt><trkpt lat="42.9443833" lon="13.200645"><ele>1197.0</ele><time>2026-05-02T10:16:35.982Z</time></trkpt><trkpt lat="42.9443017" lon="13.200645"><ele>1197.0</ele><time>2026-05-02T10:16:36.982Z</time></trkpt><trkpt lat="42.94422" lon="13.200645"><ele>1197.0</ele><time>2026-05-02T10:16:37.981Z</time></trkpt><trkpt lat="42.944125" lon="13.2006567"><ele>1197.0</ele><time>2026-05-02T10:16:38.982Z</time></trkpt><trkpt lat="42.94403" lon="13.2006783"><ele>1197.0</ele><time>2026-05-02T10:16:39.981Z</time></trkpt><trkpt lat="42.9439367" lon="13.2007033"><ele>1197.7142857142858</ele><time>2026-05-02T10:16:40.981Z</time></trkpt><trkpt lat="42.9438483" lon="13.2007183"><ele>1198.4285714285716</ele><time>2026-05-02T10:16:41.981Z</time></trkpt><trkpt lat="42.943775" lon="13.2007083"><ele>1199.142857142857</ele><time>2026-05-02T10:16:42.981Z</time></trkpt><trkpt lat="42.9437117" lon="13.20068"><ele>1199.857142857143</ele><time>2026-05-02T10:16:43.982Z</time></trkpt><trkpt lat="42.9436583" lon="13.2006333"><ele>1200.5714285714287</ele><time>2026-05-02T10:16:44.983Z</time></trkpt><trkpt lat="42.943615" lon="13.2005667"><ele>1201.2857142857142</ele><time>2026-05-02T10:16:45.981Z</time></trkpt><trkpt lat="42.94359" lon="13.20048"><ele>1202.0</ele><time>2026-05-02T10:16:46.981Z</time></trkpt><trkpt lat="42.9435817" lon="13.20036"><ele>1202.0</ele><time>2026-05-02T10:16:47.982Z</time></trkpt><trkpt lat="42.9435883" lon="13.2002183"><ele>1202.0</ele><time>2026-05-02T10:16:48.981Z</time></trkpt><trkpt lat="42.9435917" lon="13.2000633"><ele>1202.0</ele><time>2026-05-02T10:16:49.982Z</time></trkpt><trkpt lat="42.9435917" lon="13.1999033"><ele>1202.0</ele><time>2026-05-02T10:16:50.983Z</time></trkpt><trkpt lat="42.9435933" lon="13.1997383"><ele>1202.25</ele><time>2026-05-02T10:16:51.981Z</time></trkpt><trkpt lat="42.9435933" lon="13.1995667"><ele>1202.5</ele><time>2026-05-02T10:16:52.983Z</time></trkpt><trkpt lat="42.9435917" lon="13.199385"><ele>1202.75</ele><time>2026-05-02T10:16:53.983Z</time></trkpt><trkpt lat="42.9435883" lon="13.1992083"><ele>1203.0</ele><time>2026-05-02T10:16:54.981Z</time></trkpt><trkpt lat="42.943585" lon="13.1990567"><ele>1203.8</ele><time>2026-05-02T10:16:55.982Z</time></trkpt><trkpt lat="42.9435817" lon="13.19892"><ele>1204.6</ele><time>2026-05-02T10:16:56.982Z</time></trkpt><trkpt lat="42.9435733" lon="13.198785"><ele>1205.4</ele><time>2026-05-02T10:16:57.982Z</time></trkpt><trkpt lat="42.9435483" lon="13.1986383"><ele>1206.2</ele><time>2026-05-02T10:16:58.981Z</time></trkpt><trkpt lat="42.943505" lon="13.198485"><ele>1207.0</ele><time>2026-05-02T10:16:59.982Z</time></trkpt><trkpt lat="42.94346" lon="13.1983467"><ele>1207.0</ele><time>2026-05-02T10:17:00.982Z</time></trkpt><trkpt lat="42.9434283" lon="13.1982233"><ele>1207.0</ele><time>2026-05-02T10:17:01.981Z</time></trkpt><trkpt lat="42.943415" lon="13.198115"><ele>1207.0</ele><time>2026-05-02T10:17:02.982Z</time></trkpt><trkpt lat="42.943415" lon="13.198015"><ele>1207.0</ele><time>2026-05-02T10:17:03.981Z</time></trkpt><trkpt lat="42.94345" lon="13.197915"><ele>1207.0</ele><time>2026-05-02T10:17:04.982Z</time></trkpt><trkpt lat="42.943515" lon="13.1978133"><ele>1207.0</ele><time>2026-05-02T10:17:05.982Z</time></trkpt><trkpt lat="42.9436033" lon="13.1977033"><ele>1209.75</ele><time>2026-05-02T10:17:06.981Z</time></trkpt><trkpt lat="42.9437" lon="13.197585"><ele>1212.5</ele><time>2026-05-02T10:17:07.982Z</time></trkpt><trkpt lat="42.943785" lon="13.1974567"><ele>1215.25</ele><time>2026-05-02T10:17:08.981Z</time></trkpt><trkpt lat="42.9438517" lon="13.1973083"><ele>1218.0</ele><time>2026-05-02T10:17:09.982Z</time></trkpt><trkpt lat="42.9439083" lon="13.197165"><ele>1220.1666666666667</ele><time>2026-05-02T10:17:10.981Z</time></trkpt><trkpt lat="42.94396" lon="13.19704"><ele>1222.3333333333333</ele><time>2026-05-02T10:17:11.981Z</time></trkpt><trkpt lat="42.9440017" lon="13.1969367"><ele>1224.5</ele><time>2026-05-02T10:17:12.983Z</time></trkpt><trkpt lat="42.9440267" lon="13.196845"><ele>1226.6666666666665</ele><time>2026-05-02T10:17:13.981Z</time></trkpt><trkpt lat="42.9440167" lon="13.19672"><ele>1228.8333333333333</ele><time>2026-05-02T10:17:15.981Z</time></trkpt><trkpt lat="42.943945" lon="13.1967367"><ele>1231.0</ele><time>2026-05-02T10:17:17.981Z</time></trkpt><trkpt lat="42.9439067" lon="13.1968067"><ele>1231.0</ele><time>2026-05-02T10:17:19.982Z</time></trkpt><trkpt lat="42.9438633" lon="13.1969233"><ele>1231.0</ele><time>2026-05-02T10:17:21.981Z</time></trkpt><trkpt lat="42.943835" lon="13.1970033"><ele>1231.0</ele><time>2026-05-02T10:17:22.981Z</time></trkpt><trkpt lat="42.9438017" lon="13.1970833"><ele>1231.0</ele><time>2026-05-02T10:17:23.981Z</time></trkpt><trkpt lat="42.9437617" lon="13.19716"><ele>1231.0</ele><time>2026-05-02T10:17:24.981Z</time></trkpt><trkpt lat="42.9437133" lon="13.19723"><ele>1231.0</ele><time>2026-05-02T10:17:25.982Z</time></trkpt><trkpt lat="42.9436517" lon="13.197295"><ele>1231.0</ele><time>2026-05-02T10:17:26.982Z</time></trkpt><trkpt lat="42.9435833" lon="13.1973533"><ele>1228.8333333333333</ele><time>2026-05-02T10:17:27.982Z</time></trkpt><trkpt lat="42.943505" lon="13.1974017"><ele>1226.6666666666665</ele><time>2026-05-02T10:17:28.982Z</time></trkpt><trkpt lat="42.9434233" lon="13.1974467"><ele>1224.5</ele><time>2026-05-02T10:17:29.982Z</time></trkpt><trkpt lat="42.9433417" lon="13.1974967"><ele>1222.3333333333333</ele><time>2026-05-02T10:17:30.981Z</time></trkpt><trkpt lat="42.94326" lon="13.1975467"><ele>1220.1666666666667</ele><time>2026-05-02T10:17:31.981Z</time></trkpt><trkpt lat="42.9431867" lon="13.1975933"><ele>1218.0</ele><time>2026-05-02T10:17:32.982Z</time></trkpt><trkpt lat="42.9431217" lon="13.19765"><ele>1220.0</ele><time>2026-05-02T10:17:33.983Z</time></trkpt><trkpt lat="42.9430733" lon="13.1977217"><ele>1222.0</ele><time>2026-05-02T10:17:34.982Z</time></trkpt><trkpt lat="42.9430367" lon="13.1978033"><ele>1224.0</ele><time>2026-05-02T10:17:35.982Z</time></trkpt><trkpt lat="42.943015" lon="13.1978883"><ele>1226.0</ele><time>2026-05-02T10:17:36.981Z</time></trkpt><trkpt lat="42.943" lon="13.1979733"><ele>1228.0</ele><time>2026-05-02T10:17:37.981Z</time></trkpt><trkpt lat="42.9429667" lon="13.1981283"><ele>1230.0</ele><time>2026-05-02T10:17:39.981Z</time></trkpt><trkpt lat="42.9429433" lon="13.1982583"><ele>1230.0</ele><time>2026-05-02T10:17:41.982Z</time></trkpt><trkpt lat="42.9429217" lon="13.1983483"><ele>1230.0</ele><time>2026-05-02T10:17:43.983Z</time></trkpt><trkpt lat="42.9429117" lon="13.1984617"><ele>1230.0</ele><time>2026-05-02T10:17:46.982Z</time></trkpt><trkpt lat="42.9429933" lon="13.1984317"><ele>1230.0</ele><time>2026-05-02T10:18:55.962Z</time></trkpt><trkpt lat="42.9429167" lon="13.1984983"><ele>1230.0</ele><time>2026-05-02T10:19:02.982Z</time></trkpt><trkpt lat="42.9428983" lon="13.1984017"><ele>1230.0</ele><time>2026-05-02T10:19:17.983Z</time></trkpt><trkpt lat="42.942925" lon="13.1983083"><ele>1230.0</ele><time>2026-05-02T10:19:19.983Z</time></trkpt><trkpt lat="42.94295" lon="13.19822"><ele>1230.0</ele><time>2026-05-02T10:19:20.982Z</time></trkpt><trkpt lat="42.9429733" lon="13.19811"><ele>1230.0</ele><time>2026-05-02T10:19:21.982Z</time></trkpt><trkpt lat="42.9430017" lon="13.1979833"><ele>1230.0</ele><time>2026-05-02T10:19:22.984Z</time></trkpt><trkpt lat="42.94303" lon="13.1978617"><ele>1230.0</ele><time>2026-05-02T10:19:23.982Z</time></trkpt><trkpt lat="42.943075" lon="13.1977567"><ele>1230.0</ele><time>2026-05-02T10:19:24.983Z</time></trkpt><trkpt lat="42.9431367" lon="13.19767"><ele>1227.6</ele><time>2026-05-02T10:19:25.982Z</time></trkpt><trkpt lat="42.9432217" lon="13.1975967"><ele>1225.2</ele><time>2026-05-02T10:19:26.982Z</time></trkpt><trkpt lat="42.9433217" lon="13.197535"><ele>1222.8</ele><time>2026-05-02T10:19:27.983Z</time></trkpt><trkpt lat="42.943425" lon="13.19748"><ele>1220.4</ele><time>2026-05-02T10:19:28.982Z</time></trkpt><trkpt lat="42.9435183" lon="13.1974217"><ele>1218.0</ele><time>2026-05-02T10:19:29.982Z</time></trkpt><trkpt lat="42.9436033" lon="13.1973583"><ele>1220.1666666666667</ele><time>2026-05-02T10:19:30.982Z</time></trkpt><trkpt lat="42.9436767" lon="13.19729"><ele>1222.3333333333333</ele><time>2026-05-02T10:19:31.982Z</time></trkpt><trkpt lat="42.9437367" lon="13.1972167"><ele>1224.5</ele><time>2026-05-02T10:19:32.982Z</time></trkpt><trkpt lat="42.9437833" lon="13.1971317"><ele>1226.6666666666665</ele><time>2026-05-02T10:19:33.983Z</time></trkpt><trkpt lat="42.9438217" lon="13.197035"><ele>1228.8333333333333</ele><time>2026-05-02T10:19:34.982Z</time></trkpt><trkpt lat="42.943855" lon="13.1969383"><ele>1231.0</ele><time>2026-05-02T10:19:35.984Z</time></trkpt><trkpt lat="42.9438917" lon="13.196855"><ele>1231.0</ele><time>2026-05-02T10:19:36.983Z</time></trkpt><trkpt lat="42.9439733" lon="13.1967533"><ele>1231.0</ele><time>2026-05-02T10:19:38.983Z</time></trkpt><trkpt lat="42.9440483" lon="13.1966867"><ele>1231.0</ele><time>2026-05-02T10:19:40.982Z</time></trkpt><trkpt lat="42.944135" lon="13.19661"><ele>1231.0</ele><time>2026-05-02T10:19:42.982Z</time></trkpt><trkpt lat="42.944225" lon="13.1964883"><ele>1231.0</ele><time>2026-05-02T10:19:44.982Z</time></trkpt><trkpt lat="42.9442567" lon="13.1963867"><ele>1225.6</ele><time>2026-05-02T10:19:45.984Z</time></trkpt><trkpt lat="42.94429" lon="13.19626"><ele>1220.1999999999998</ele><time>2026-05-02T10:19:46.983Z</time></trkpt><trkpt lat="42.9443133" lon="13.1961317"><ele>1214.8000000000002</ele><time>2026-05-02T10:19:47.982Z</time></trkpt><trkpt lat="42.9443383" lon="13.1959983"><ele>1209.4</ele><time>2026-05-02T10:19:48.982Z</time></trkpt><trkpt lat="42.9443533" lon="13.1958717"><ele>1204.0</ele><time>2026-05-02T10:19:49.982Z</time></trkpt><trkpt lat="42.9443717" lon="13.19575"><ele>1203.0</ele><time>2026-05-02T10:19:50.983Z</time></trkpt><trkpt lat="42.944395" lon="13.1956317"><ele>1202.0</ele><time>2026-05-02T10:19:51.983Z</time></trkpt><trkpt lat="42.9444183" lon="13.1955167"><ele>1201.0</ele><time>2026-05-02T10:19:52.982Z</time></trkpt><trkpt lat="42.9444417" lon="13.1954"><ele>1200.0</ele><time>2026-05-02T10:19:53.982Z</time></trkpt><trkpt lat="42.9444567" lon="13.1952833"><ele>1199.0</ele><time>2026-05-02T10:19:54.983Z</time></trkpt><trkpt lat="42.9444683" lon="13.1951683"><ele>1198.0</ele><time>2026-05-02T10:19:55.982Z</time></trkpt><trkpt lat="42.944475" lon="13.1950517"><ele>1198.0</ele><time>2026-05-02T10:19:56.982Z</time></trkpt><trkpt lat="42.9444767" lon="13.1949433"><ele>1198.0</ele><time>2026-05-02T10:19:57.982Z</time></trkpt><trkpt lat="42.9444617" lon="13.1948367"><ele>1198.0</ele><time>2026-05-02T10:19:58.982Z</time></trkpt><trkpt lat="42.94445" lon="13.1947333"><ele>1198.0</ele><time>2026-05-02T10:19:59.982Z</time></trkpt><trkpt lat="42.9444217" lon="13.1946367"><ele>1198.0</ele><time>2026-05-02T10:20:00.982Z</time></trkpt><trkpt lat="42.9443967" lon="13.1945417"><ele>1198.0</ele><time>2026-05-02T10:20:01.982Z</time></trkpt><trkpt lat="42.94439" lon="13.1943967"><ele>1196.5</ele><time>2026-05-02T10:20:03.981Z</time></trkpt><trkpt lat="42.9444267" lon="13.1942667"><ele>1195.0</ele><time>2026-05-02T10:20:05.982Z</time></trkpt><trkpt lat="42.9444633" lon="13.1941867"><ele>1193.5</ele><time>2026-05-02T10:20:06.981Z</time></trkpt><trkpt lat="42.94451" lon="13.1940867"><ele>1192.0</ele><time>2026-05-02T10:20:07.982Z</time></trkpt><trkpt lat="42.9445517" lon="13.1939867"><ele>1190.5</ele><time>2026-05-02T10:20:08.983Z</time></trkpt><trkpt lat="42.9445917" lon="13.19389"><ele>1189.0</ele><time>2026-05-02T10:20:09.981Z</time></trkpt><trkpt lat="42.9446283" lon="13.1938017"><ele>1188.857142857143</ele><time>2026-05-02T10:20:10.982Z</time></trkpt><trkpt lat="42.9446583" lon="13.1937167"><ele>1188.7142857142858</ele><time>2026-05-02T10:20:11.981Z</time></trkpt><trkpt lat="42.9446817" lon="13.1936267"><ele>1188.5714285714287</ele><time>2026-05-02T10:20:12.981Z</time></trkpt><trkpt lat="42.94469" lon="13.19354"><ele>1188.4285714285716</ele><time>2026-05-02T10:20:13.981Z</time></trkpt><trkpt lat="42.9446983" lon="13.1934467"><ele>1188.2857142857144</ele><time>2026-05-02T10:20:14.981Z</time></trkpt><trkpt lat="42.9447017" lon="13.1933417"><ele>1188.142857142857</ele><time>2026-05-02T10:20:15.984Z</time></trkpt><trkpt lat="42.944705" lon="13.1932267"><ele>1188.0</ele><time>2026-05-02T10:20:16.982Z</time></trkpt><trkpt lat="42.944705" lon="13.1931183"><ele>1188.3333333333333</ele><time>2026-05-02T10:20:17.982Z</time></trkpt><trkpt lat="42.9447117" lon="13.1930067"><ele>1188.6666666666667</ele><time>2026-05-02T10:20:18.982Z</time></trkpt><trkpt lat="42.944725" lon="13.1928983"><ele>1189.0</ele><time>2026-05-02T10:20:19.981Z</time></trkpt><trkpt lat="42.94474" lon="13.1927883"><ele>1189.3333333333335</ele><time>2026-05-02T10:20:20.981Z</time></trkpt><trkpt lat="42.9447583" lon="13.19267"><ele>1189.6666666666667</ele><time>2026-05-02T10:20:21.982Z</time></trkpt><trkpt lat="42.94477" lon="13.192565"><ele>1190.0</ele><time>2026-05-02T10:20:22.982Z</time></trkpt><trkpt lat="42.9447767" lon="13.1924517"><ele>1190.0</ele><time>2026-05-02T10:20:23.982Z</time></trkpt><trkpt lat="42.9447817" lon="13.1923417"><ele>1190.0</ele><time>2026-05-02T10:20:24.983Z</time></trkpt><trkpt lat="42.9448017" lon="13.1922283"><ele>1190.0</ele><time>2026-05-02T10:20:25.982Z</time></trkpt><trkpt lat="42.9448217" lon="13.1921133"><ele>1190.0</ele><time>2026-05-02T10:20:26.982Z</time></trkpt><trkpt lat="42.9448567" lon="13.192"><ele>1190.0</ele><time>2026-05-02T10:20:27.983Z</time></trkpt><trkpt lat="42.9448917" lon="13.1918883"><ele>1190.0</ele><time>2026-05-02T10:20:28.981Z</time></trkpt><trkpt lat="42.94493" lon="13.1917817"><ele>1190.2</ele><time>2026-05-02T10:20:29.982Z</time></trkpt><trkpt lat="42.9449583" lon="13.1916683"><ele>1190.4</ele><time>2026-05-02T10:20:30.982Z</time></trkpt><trkpt lat="42.94498" lon="13.1915483"><ele>1190.6</ele><time>2026-05-02T10:20:31.982Z</time></trkpt><trkpt lat="42.9449983" lon="13.1914367"><ele>1190.8</ele><time>2026-05-02T10:20:32.983Z</time></trkpt><trkpt lat="42.9450183" lon="13.19131"><ele>1191.0</ele><time>2026-05-02T10:20:33.981Z</time></trkpt><trkpt lat="42.9450317" lon="13.1911633"><ele>1188.6</ele><time>2026-05-02T10:20:34.982Z</time></trkpt><trkpt lat="42.9450383" lon="13.19101"><ele>1186.1999999999998</ele><time>2026-05-02T10:20:35.981Z</time></trkpt><trkpt lat="42.9450467" lon="13.1908433"><ele>1183.8000000000002</ele><time>2026-05-02T10:20:36.983Z</time></trkpt><trkpt lat="42.9450433" lon="13.19069"><ele>1181.4</ele><time>2026-05-02T10:20:37.982Z</time></trkpt><trkpt lat="42.9450333" lon="13.1905533"><ele>1179.0</ele><time>2026-05-02T10:20:38.982Z</time></trkpt><trkpt lat="42.9450083" lon="13.1904217"><ele>1175.2</ele><time>2026-05-02T10:20:39.982Z</time></trkpt><trkpt lat="42.9449667" lon="13.1902933"><ele>1171.4</ele><time>2026-05-02T10:20:40.983Z</time></trkpt><trkpt lat="42.9449183" lon="13.190155"><ele>1167.6</ele><time>2026-05-02T10:20:41.982Z</time></trkpt><trkpt lat="42.944865" lon="13.1900283"><ele>1163.8</ele><time>2026-05-02T10:20:42.981Z</time></trkpt><trkpt lat="42.9448033" lon="13.1898933"><ele>1160.0</ele><time>2026-05-02T10:20:43.981Z</time></trkpt><trkpt lat="42.9447267" lon="13.1897783"><ele>1157.1666666666667</ele><time>2026-05-02T10:20:44.981Z</time></trkpt><trkpt lat="42.9446383" lon="13.1896783"><ele>1154.3333333333335</ele><time>2026-05-02T10:20:45.981Z</time></trkpt><trkpt lat="42.94458" lon="13.18959"><ele>1151.5</ele><time>2026-05-02T10:20:46.984Z</time></trkpt><trkpt lat="42.9445367" lon="13.1894983"><ele>1148.6666666666667</ele><time>2026-05-02T10:20:47.981Z</time></trkpt><trkpt lat="42.9445017" lon="13.1894"><ele>1145.8333333333333</ele><time>2026-05-02T10:20:48.982Z</time></trkpt><trkpt lat="42.9444733" lon="13.1893183"><ele>1143.0</ele><time>2026-05-02T10:20:49.981Z</time></trkpt><trkpt lat="42.9444567" lon="13.18923"><ele>1143.0</ele><time>2026-05-02T10:20:50.982Z</time></trkpt><trkpt lat="42.944445" lon="13.189125"><ele>1143.0</ele><time>2026-05-02T10:20:51.982Z</time></trkpt><trkpt lat="42.944445" lon="13.1890067"><ele>1143.0</ele><time>2026-05-02T10:20:52.981Z</time></trkpt><trkpt lat="42.9444583" lon="13.188885"><ele>1143.0</ele><time>2026-05-02T10:20:53.981Z</time></trkpt><trkpt lat="42.94447" lon="13.18877"><ele>1143.0</ele><time>2026-05-02T10:20:54.982Z</time></trkpt><trkpt lat="42.9444717" lon="13.18866"><ele>1143.0</ele><time>2026-05-02T10:20:55.982Z</time></trkpt><trkpt lat="42.9444683" lon="13.1885583"><ele>1140.6666666666667</ele><time>2026-05-02T10:20:56.982Z</time></trkpt><trkpt lat="42.94445" lon="13.1884667"><ele>1138.3333333333333</ele><time>2026-05-02T10:20:57.981Z</time></trkpt><trkpt lat="42.944425" lon="13.18838"><ele>1136.0</ele><time>2026-05-02T10:20:58.981Z</time></trkpt><trkpt lat="42.9443967" lon="13.1882817"><ele>1133.6666666666665</ele><time>2026-05-02T10:20:59.982Z</time></trkpt><trkpt lat="42.944365" lon="13.188185"><ele>1131.3333333333333</ele><time>2026-05-02T10:21:00.981Z</time></trkpt><trkpt lat="42.944325" lon="13.1880917"><ele>1129.0</ele><time>2026-05-02T10:21:01.981Z</time></trkpt><trkpt lat="42.9442917" lon="13.1879733"><ele>1131.8</ele><time>2026-05-02T10:21:02.983Z</time></trkpt><trkpt lat="42.944265" lon="13.18787"><ele>1134.6000000000001</ele><time>2026-05-02T10:21:03.982Z</time></trkpt><trkpt lat="42.944245" lon="13.1877817"><ele>1137.4</ele><time>2026-05-02T10:21:04.981Z</time></trkpt><trkpt lat="42.9442233" lon="13.1876967"><ele>1140.2</ele><time>2026-05-02T10:21:05.981Z</time></trkpt><trkpt lat="42.9441517" lon="13.18755"><ele>1143.0</ele><time>2026-05-02T10:21:07.982Z</time></trkpt><trkpt lat="42.9441067" lon="13.187395"><ele>1140.2</ele><time>2026-05-02T10:21:09.982Z</time></trkpt><trkpt lat="42.9440883" lon="13.1872867"><ele>1137.4</ele><time>2026-05-02T10:21:10.981Z</time></trkpt><trkpt lat="42.9440667" lon="13.18715"><ele>1134.6000000000001</ele><time>2026-05-02T10:21:11.981Z</time></trkpt><trkpt lat="42.9440517" lon="13.1869967"><ele>1131.8</ele><time>2026-05-02T10:21:12.981Z</time></trkpt><trkpt lat="42.9440383" lon="13.18684"><ele>1129.0</ele><time>2026-05-02T10:21:13.983Z</time></trkpt><trkpt lat="42.9440283" lon="13.1866883"><ele>1129.0</ele><time>2026-05-02T10:21:14.982Z</time></trkpt><trkpt lat="42.9440183" lon="13.1865567"><ele>1129.0</ele><time>2026-05-02T10:21:15.981Z</time></trkpt><trkpt lat="42.9440033" lon="13.18644"><ele>1129.0</ele><time>2026-05-02T10:21:16.982Z</time></trkpt><trkpt lat="42.9439817" lon="13.1863217"><ele>1129.0</ele><time>2026-05-02T10:21:17.982Z</time></trkpt><trkpt lat="42.9439567" lon="13.186205"><ele>1129.0</ele><time>2026-05-02T10:21:18.981Z</time></trkpt><trkpt lat="42.9439283" lon="13.1860867"><ele>1127.8333333333333</ele><time>2026-05-02T10:21:19.982Z</time></trkpt><trkpt lat="42.9438983" lon="13.1859783"><ele>1126.6666666666665</ele><time>2026-05-02T10:21:20.981Z</time></trkpt><trkpt lat="42.9438733" lon="13.185875"><ele>1125.5</ele><time>2026-05-02T10:21:21.982Z</time></trkpt><trkpt lat="42.94385" lon="13.1857317"><ele>1124.3333333333333</ele><time>2026-05-02T10:21:23.981Z</time></trkpt><trkpt lat="42.94387" lon="13.1856467"><ele>1123.1666666666667</ele><time>2026-05-02T10:21:24.983Z</time></trkpt><trkpt lat="42.9439067" lon="13.1855367"><ele>1122.0</ele><time>2026-05-02T10:21:25.981Z</time></trkpt><trkpt lat="42.943935" lon="13.1854267"><ele>1121.8</ele><time>2026-05-02T10:21:26.982Z</time></trkpt><trkpt lat="42.94397" lon="13.18532"><ele>1121.6</ele><time>2026-05-02T10:21:27.983Z</time></trkpt><trkpt lat="42.9440167" lon="13.18521"><ele>1121.3999999999999</ele><time>2026-05-02T10:21:28.981Z</time></trkpt><trkpt lat="42.9440683" lon="13.1850967"><ele>1121.2</ele><time>2026-05-02T10:21:29.982Z</time></trkpt><trkpt lat="42.944135" lon="13.1849683"><ele>1121.0</ele><time>2026-05-02T10:21:30.982Z</time></trkpt><trkpt lat="42.944195" lon="13.1848467"><ele>1113.6</ele><time>2026-05-02T10:21:31.981Z</time></trkpt><trkpt lat="42.9442417" lon="13.1847283"><ele>1106.1999999999998</ele><time>2026-05-02T10:21:32.982Z</time></trkpt><trkpt lat="42.9442633" lon="13.1845917"><ele>1098.8000000000002</ele><time>2026-05-02T10:21:33.981Z</time></trkpt><trkpt lat="42.9442817" lon="13.1844533"><ele>1091.4</ele><time>2026-05-02T10:21:34.981Z</time></trkpt><trkpt lat="42.9442717" lon="13.1843033"><ele>1084.0</ele><time>2026-05-02T10:21:35.981Z</time></trkpt><trkpt lat="42.9442617" lon="13.1841483"><ele>1083.5</ele><time>2026-05-02T10:21:36.982Z</time></trkpt><trkpt lat="42.9442583" lon="13.184"><ele>1083.0</ele><time>2026-05-02T10:21:37.983Z</time></trkpt><trkpt lat="42.9442517" lon="13.1838467"><ele>1082.5</ele><time>2026-05-02T10:21:38.982Z</time></trkpt><trkpt lat="42.944245" lon="13.1836767"><ele>1082.0</ele><time>2026-05-02T10:21:39.982Z</time></trkpt><trkpt lat="42.9442467" lon="13.1835033"><ele>1082.0</ele><time>2026-05-02T10:21:40.981Z</time></trkpt><trkpt lat="42.9442467" lon="13.183335"><ele>1082.0</ele><time>2026-05-02T10:21:41.982Z</time></trkpt><trkpt lat="42.94425" lon="13.1831783"><ele>1082.0</ele><time>2026-05-02T10:21:42.982Z</time></trkpt><trkpt lat="42.9442583" lon="13.18305"><ele>1082.0</ele><time>2026-05-02T10:21:43.982Z</time></trkpt><trkpt lat="42.9442633" lon="13.18293"><ele>1082.0</ele><time>2026-05-02T10:21:44.982Z</time></trkpt><trkpt lat="42.94426" lon="13.18282"><ele>1081.0</ele><time>2026-05-02T10:21:45.981Z</time></trkpt><trkpt lat="42.9442467" lon="13.1827083"><ele>1080.0</ele><time>2026-05-02T10:21:46.981Z</time></trkpt><trkpt lat="42.94423" lon="13.1826033"><ele>1079.0</ele><time>2026-05-02T10:21:47.981Z</time></trkpt><trkpt lat="42.9442067" lon="13.1825"><ele>1078.0</ele><time>2026-05-02T10:21:48.982Z</time></trkpt><trkpt lat="42.9441883" lon="13.1823967"><ele>1077.0</ele><time>2026-05-02T10:21:49.981Z</time></trkpt><trkpt lat="42.9441717" lon="13.18229"><ele>1076.0</ele><time>2026-05-02T10:21:50.983Z</time></trkpt><trkpt lat="42.9441633" lon="13.18218"><ele>1074.6</ele><time>2026-05-02T10:21:51.982Z</time></trkpt><trkpt lat="42.944155" lon="13.1820817"><ele>1073.1999999999998</ele><time>2026-05-02T10:21:52.981Z</time></trkpt><trkpt lat="42.9441483" lon="13.1819617"><ele>1071.8000000000002</ele><time>2026-05-02T10:21:54.982Z</time></trkpt><trkpt lat="42.94419" lon="13.18185"><ele>1070.4</ele><time>2026-05-02T10:21:56.982Z</time></trkpt><trkpt lat="42.9442167" lon="13.181665"><ele>1069.0</ele><time>2026-05-02T10:21:58.981Z</time></trkpt><trkpt lat="42.9442267" lon="13.1815767"><ele>1075.6000000000001</ele><time>2026-05-02T10:21:59.983Z</time></trkpt><trkpt lat="42.9442117" lon="13.1814817"><ele>1082.2</ele><time>2026-05-02T10:22:00.983Z</time></trkpt><trkpt lat="42.944205" lon="13.1813817"><ele>1088.8000000000002</ele><time>2026-05-02T10:22:01.982Z</time></trkpt><trkpt lat="42.9441833" lon="13.1812483"><ele>1095.4</ele><time>2026-05-02T10:22:02.982Z</time></trkpt><trkpt lat="42.9441367" lon="13.1811067"><ele>1102.0</ele><time>2026-05-02T10:22:03.983Z</time></trkpt><trkpt lat="42.94411" lon="13.1809733"><ele>1102.0</ele><time>2026-05-02T10:22:04.982Z</time></trkpt><trkpt lat="42.944085" lon="13.1808483"><ele>1102.0</ele><time>2026-05-02T10:22:05.982Z</time></trkpt><trkpt lat="42.9440583" lon="13.1807167"><ele>1102.0</ele><time>2026-05-02T10:22:06.985Z</time></trkpt><trkpt lat="42.9440333" lon="13.180605"><ele>1102.0</ele><time>2026-05-02T10:22:07.982Z</time></trkpt><trkpt lat="42.9440067" lon="13.1804783"><ele>1102.0</ele><time>2026-05-02T10:22:08.983Z</time></trkpt><trkpt lat="42.94399" lon="13.180355"><ele>1099.5</ele><time>2026-05-02T10:22:09.982Z</time></trkpt><trkpt lat="42.9439833" lon="13.1802233"><ele>1097.0</ele><time>2026-05-02T10:22:10.981Z</time></trkpt><trkpt lat="42.9439917" lon="13.1800933"><ele>1094.5</ele><time>2026-05-02T10:22:11.983Z</time></trkpt><trkpt lat="42.9440117" lon="13.1799717"><ele>1092.0</ele><time>2026-05-02T10:22:12.983Z</time></trkpt><trkpt lat="42.944045" lon="13.1798683"><ele>1089.5</ele><time>2026-05-02T10:22:13.983Z</time></trkpt><trkpt lat="42.9440717" lon="13.1797733"><ele>1087.0</ele><time>2026-05-02T10:22:14.983Z</time></trkpt><trkpt lat="42.944085" lon="13.1796883"><ele>1086.5</ele><time>2026-05-02T10:22:15.983Z</time></trkpt><trkpt lat="42.9440833" lon="13.179595"><ele>1086.0</ele><time>2026-05-02T10:22:16.983Z</time></trkpt><trkpt lat="42.9440683" lon="13.17948"><ele>1085.5</ele><time>2026-05-02T10:22:17.982Z</time></trkpt><trkpt lat="42.9440483" lon="13.1793617"><ele>1085.0</ele><time>2026-05-02T10:22:18.982Z</time></trkpt><trkpt lat="42.9440317" lon="13.1792417"><ele>1084.5</ele><time>2026-05-02T10:22:19.982Z</time></trkpt><trkpt lat="42.9440217" lon="13.1791183"><ele>1084.0</ele><time>2026-05-02T10:22:20.983Z</time></trkpt><trkpt lat="42.9440283" lon="13.178985"><ele>1083.75</ele><time>2026-05-02T10:22:21.983Z</time></trkpt><trkpt lat="42.9440617" lon="13.1788233"><ele>1083.5</ele><time>2026-05-02T10:22:22.981Z</time></trkpt><trkpt lat="42.944095" lon="13.17865"><ele>1083.25</ele><time>2026-05-02T10:22:23.985Z</time></trkpt><trkpt lat="42.944125" lon="13.1784783"><ele>1083.0</ele><time>2026-05-02T10:22:24.981Z</time></trkpt><trkpt lat="42.9441417" lon="13.1783183"><ele>1081.2</ele><time>2026-05-02T10:22:25.982Z</time></trkpt><trkpt lat="42.9441483" lon="13.1781667"><ele>1079.4</ele><time>2026-05-02T10:22:26.983Z</time></trkpt><trkpt lat="42.944145" lon="13.1780233"><ele>1077.6000000000001</ele><time>2026-05-02T10:22:27.981Z</time></trkpt><trkpt lat="42.9441417" lon="13.1778833"><ele>1075.8</ele><time>2026-05-02T10:22:28.981Z</time></trkpt><trkpt lat="42.94412" lon="13.1777517"><ele>1074.0</ele><time>2026-05-02T10:22:29.983Z</time></trkpt><trkpt lat="42.94409" lon="13.1776033"><ele>1074.0</ele><time>2026-05-02T10:22:30.981Z</time></trkpt><trkpt lat="42.94405" lon="13.1774667"><ele>1074.0</ele><time>2026-05-02T10:22:31.982Z</time></trkpt><trkpt lat="42.9440117" lon="13.177345"><ele>1074.0</ele><time>2026-05-02T10:22:32.982Z</time></trkpt><trkpt lat="42.9439833" lon="13.177215"><ele>1074.0</ele><time>2026-05-02T10:22:33.981Z</time></trkpt><trkpt lat="42.9439683" lon="13.17707"><ele>1074.0</ele><time>2026-05-02T10:22:34.981Z</time></trkpt><trkpt lat="42.94397" lon="13.176925"><ele>1072.4</ele><time>2026-05-02T10:22:35.982Z</time></trkpt><trkpt lat="42.9439883" lon="13.1767817"><ele>1070.8000000000002</ele><time>2026-05-02T10:22:36.982Z</time></trkpt><trkpt lat="42.9440167" lon="13.1766417"><ele>1069.1999999999998</ele><time>2026-05-02T10:22:37.981Z</time></trkpt><trkpt lat="42.94405" lon="13.1765"><ele>1067.6</ele><time>2026-05-02T10:22:38.982Z</time></trkpt><trkpt lat="42.9440783" lon="13.1763567"><ele>1066.0</ele><time>2026-05-02T10:22:39.982Z</time></trkpt><trkpt lat="42.944105" lon="13.17622"><ele>1064.6</ele><time>2026-05-02T10:22:40.982Z</time></trkpt><trkpt lat="42.944125" lon="13.1760933"><ele>1063.1999999999998</ele><time>2026-05-02T10:22:41.982Z</time></trkpt><trkpt lat="42.9441367" lon="13.1759767"><ele>1061.8000000000002</ele><time>2026-05-02T10:22:42.982Z</time></trkpt><trkpt lat="42.9441533" lon="13.1758533"><ele>1060.4</ele><time>2026-05-02T10:22:43.982Z</time></trkpt><trkpt lat="42.9441717" lon="13.1757333"><ele>1059.0</ele><time>2026-05-02T10:22:44.982Z</time></trkpt><trkpt lat="42.9441817" lon="13.17561"><ele>1057.6666666666667</ele><time>2026-05-02T10:22:45.983Z</time></trkpt><trkpt lat="42.9441783" lon="13.1754833"><ele>1056.3333333333333</ele><time>2026-05-02T10:22:46.982Z</time></trkpt><trkpt lat="42.9441633" lon="13.1753617"><ele>1055.0</ele><time>2026-05-02T10:22:47.982Z</time></trkpt><trkpt lat="42.9441483" lon="13.1752417"><ele>1053.6666666666665</ele><time>2026-05-02T10:22:48.986Z</time></trkpt><trkpt lat="42.9441367" lon="13.1751317"><ele>1052.3333333333333</ele><time>2026-05-02T10:22:49.982Z</time></trkpt><trkpt lat="42.9441367" lon="13.1750167"><ele>1051.0</ele><time>2026-05-02T10:22:50.982Z</time></trkpt><trkpt lat="42.9441533" lon="13.1749017"><ele>1050.5</ele><time>2026-05-02T10:22:51.983Z</time></trkpt><trkpt lat="42.9441783" lon="13.1747783"><ele>1050.0</ele><time>2026-05-02T10:22:52.982Z</time></trkpt><trkpt lat="42.9441983" lon="13.174665"><ele>1049.5</ele><time>2026-05-02T10:22:53.982Z</time></trkpt><trkpt lat="42.94421" lon="13.1745567"><ele>1049.0</ele><time>2026-05-02T10:22:54.983Z</time></trkpt><trkpt lat="42.9442167" lon="13.1744433"><ele>1048.5</ele><time>2026-05-02T10:22:55.982Z</time></trkpt><trkpt lat="42.94421" lon="13.1743283"><ele>1048.0</ele><time>2026-05-02T10:22:56.982Z</time></trkpt><trkpt lat="42.9441983" lon="13.174195"><ele>1048.0</ele><time>2026-05-02T10:22:57.983Z</time></trkpt><trkpt lat="42.9441783" lon="13.17407"><ele>1048.0</ele><time>2026-05-02T10:22:58.983Z</time></trkpt><trkpt lat="42.94416" lon="13.17395"><ele>1048.0</ele><time>2026-05-02T10:22:59.984Z</time></trkpt><trkpt lat="42.9441283" lon="13.1738467"><ele>1048.0</ele><time>2026-05-02T10:23:00.982Z</time></trkpt><trkpt lat="42.9440933" lon="13.1737417"><ele>1048.0</ele><time>2026-05-02T10:23:01.982Z</time></trkpt><trkpt lat="42.94407" lon="13.1736483"><ele>1048.0</ele><time>2026-05-02T10:23:02.983Z</time></trkpt><trkpt lat="42.944035" lon="13.173555"><ele>1047.0</ele><time>2026-05-02T10:23:03.981Z</time></trkpt><trkpt lat="42.9440017" lon="13.1734583"><ele>1046.0</ele><time>2026-05-02T10:23:04.984Z</time></trkpt><trkpt lat="42.943965" lon="13.17335"><ele>1045.0</ele><time>2026-05-02T10:23:05.984Z</time></trkpt><trkpt lat="42.94392" lon="13.173225"><ele>1044.0</ele><time>2026-05-02T10:23:06.982Z</time></trkpt><trkpt lat="42.9438733" lon="13.1730883"><ele>1043.0</ele><time>2026-05-02T10:23:07.982Z</time></trkpt><trkpt lat="42.9438217" lon="13.17295"><ele>1041.1666666666667</ele><time>2026-05-02T10:23:08.983Z</time></trkpt><trkpt lat="42.94377" lon="13.1728217"><ele>1039.3333333333335</ele><time>2026-05-02T10:23:09.982Z</time></trkpt><trkpt lat="42.9437183" lon="13.1727067"><ele>1037.5</ele><time>2026-05-02T10:23:10.982Z</time></trkpt><trkpt lat="42.9436717" lon="13.1726033"><ele>1035.6666666666667</ele><time>2026-05-02T10:23:11.982Z</time></trkpt><trkpt lat="42.9436317" lon="13.1725117"><ele>1033.8333333333333</ele><time>2026-05-02T10:23:12.984Z</time></trkpt><trkpt lat="42.9435917" lon="13.1724267"><ele>1032.0</ele><time>2026-05-02T10:23:13.982Z</time></trkpt><trkpt lat="42.9435417" lon="13.172305"><ele>1029.1666666666667</ele><time>2026-05-02T10:23:15.982Z</time></trkpt><trkpt lat="42.943555" lon="13.1721883"><ele>1026.3333333333333</ele><time>2026-05-02T10:23:25.983Z</time></trkpt><trkpt lat="42.943655" lon="13.1721517"><ele>1023.5</ele><time>2026-05-02T10:23:27.982Z</time></trkpt><trkpt lat="42.9437267" lon="13.1721067"><ele>1020.6666666666666</ele><time>2026-05-02T10:23:28.982Z</time></trkpt><trkpt lat="42.9438" lon="13.1720517"><ele>1017.8333333333333</ele><time>2026-05-02T10:23:29.982Z</time></trkpt><trkpt lat="42.9438683" lon="13.172015"><ele>1015.0</ele><time>2026-05-02T10:23:30.983Z</time></trkpt><trkpt lat="42.9439883" lon="13.1720133"><ele>1015.0</ele><time>2026-05-02T10:23:32.983Z</time></trkpt><trkpt lat="42.9441017" lon="13.1720717"><ele>1015.0</ele><time>2026-05-02T10:23:34.982Z</time></trkpt><trkpt lat="42.944155" lon="13.1721317"><ele>1015.0</ele><time>2026-05-02T10:23:35.983Z</time></trkpt><trkpt lat="42.9442083" lon="13.17222"><ele>1015.0</ele><time>2026-05-02T10:23:36.982Z</time></trkpt><trkpt lat="42.9442533" lon="13.1723267"><ele>1015.0</ele><time>2026-05-02T10:23:37.983Z</time></trkpt><trkpt lat="42.9443033" lon="13.17245"><ele>1010.25</ele><time>2026-05-02T10:23:38.982Z</time></trkpt><trkpt lat="42.9443567" lon="13.1726083"><ele>1005.5</ele><time>2026-05-02T10:23:39.982Z</time></trkpt><trkpt lat="42.9444117" lon="13.1727717"><ele>1000.75</ele><time>2026-05-02T10:23:40.982Z</time></trkpt><trkpt lat="42.9444683" lon="13.172935"><ele>996.0</ele><time>2026-05-02T10:23:41.984Z</time></trkpt><trkpt lat="42.9445183" lon="13.173095"><ele>1000.25</ele><time>2026-05-02T10:23:42.982Z</time></trkpt><trkpt lat="42.94456" lon="13.1732567"><ele>1004.5</ele><time>2026-05-02T10:23:43.983Z</time></trkpt><trkpt lat="42.9446017" lon="13.173415"><ele>1008.75</ele><time>2026-05-02T10:23:44.983Z</time></trkpt><trkpt lat="42.9446433" lon="13.1735767"><ele>1013.0</ele><time>2026-05-02T10:23:45.983Z</time></trkpt><trkpt lat="42.9446817" lon="13.1737317"><ele>1013.0000000000001</ele><time>2026-05-02T10:23:46.983Z</time></trkpt><trkpt lat="42.944715" lon="13.1738667"><ele>1013.0</ele><time>2026-05-02T10:23:47.982Z</time></trkpt><trkpt lat="42.9447433" lon="13.17399"><ele>1013.0</ele><time>2026-05-02T10:23:48.983Z</time></trkpt><trkpt lat="42.9447633" lon="13.1741"><ele>1013.0</ele><time>2026-05-02T10:23:49.983Z</time></trkpt><trkpt lat="42.9447717" lon="13.17419"><ele>1013.0000000000001</ele><time>2026-05-02T10:23:50.982Z</time></trkpt><trkpt lat="42.9447717" lon="13.1742767"><ele>1013.0</ele><time>2026-05-02T10:23:51.981Z</time></trkpt><trkpt lat="42.9447483" lon="13.1743683"><ele>1014.0000000000001</ele><time>2026-05-02T10:23:52.982Z</time></trkpt><trkpt lat="42.9447067" lon="13.1744617"><ele>1015.0</ele><time>2026-05-02T10:23:53.982Z</time></trkpt><trkpt lat="42.944655" lon="13.174565"><ele>1016.0</ele><time>2026-05-02T10:23:54.983Z</time></trkpt><trkpt lat="42.944605" lon="13.1746667"><ele>1017.0</ele><time>2026-05-02T10:23:55.981Z</time></trkpt><trkpt lat="42.9445767" lon="13.174765"><ele>1018.0000000000001</ele><time>2026-05-02T10:23:56.981Z</time></trkpt><trkpt lat="42.9445717" lon="13.1748667"><ele>1019.0</ele><time>2026-05-02T10:23:57.981Z</time></trkpt><trkpt lat="42.9446" lon="13.1749983"><ele>1019.0</ele><time>2026-05-02T10:23:58.982Z</time></trkpt><trkpt lat="42.9446283" lon="13.1751267"><ele>1019.0000000000001</ele><time>2026-05-02T10:23:59.981Z</time></trkpt><trkpt lat="42.94466" lon="13.1752683"><ele>1019.0000000000001</ele><time>2026-05-02T10:24:00.981Z</time></trkpt><trkpt lat="42.9446867" lon="13.1754067"><ele>1019.0</ele><time>2026-05-02T10:24:01.982Z</time></trkpt><trkpt lat="42.9447183" lon="13.17553"><ele>1019.0</ele><time>2026-05-02T10:24:02.982Z</time></trkpt><trkpt lat="42.9447267" lon="13.1756367"><ele>1019.5000000000001</ele><time>2026-05-02T10:24:03.982Z</time></trkpt><trkpt lat="42.9447283" lon="13.1757417"><ele>1020.0</ele><time>2026-05-02T10:24:04.982Z</time></trkpt><trkpt lat="42.9447317" lon="13.175855"><ele>1020.5</ele><time>2026-05-02T10:24:05.981Z</time></trkpt><trkpt lat="42.944725" lon="13.175975"><ele>1021.0</ele><time>2026-05-02T10:24:06.982Z</time></trkpt><trkpt lat="42.944715" lon="13.1761"><ele>1021.5000000000001</ele><time>2026-05-02T10:24:07.982Z</time></trkpt><trkpt lat="42.944705" lon="13.1762333"><ele>1022.0</ele><time>2026-05-02T10:24:08.982Z</time></trkpt><trkpt lat="42.9447133" lon="13.1763783"><ele>1022.75</ele><time>2026-05-02T10:24:09.982Z</time></trkpt><trkpt lat="42.944725" lon="13.17654"><ele>1023.5</ele><time>2026-05-02T10:24:10.982Z</time></trkpt><trkpt lat="42.94475" lon="13.1767083"><ele>1024.25</ele><time>2026-05-02T10:24:11.981Z</time></trkpt><trkpt lat="42.9447783" lon="13.17688"><ele>1025.0</ele><time>2026-05-02T10:24:12.981Z</time></trkpt><trkpt lat="42.9448067" lon="13.1770517"><ele>1025.0</ele><time>2026-05-02T10:24:13.981Z</time></trkpt><trkpt lat="42.9448417" lon="13.177225"><ele>1025.0</ele><time>2026-05-02T10:24:14.982Z</time></trkpt><trkpt lat="42.9448717" lon="13.1774067"><ele>1025.0</ele><time>2026-05-02T10:24:15.981Z</time></trkpt><trkpt lat="42.9449017" lon="13.1775883"><ele>1025.0</ele><time>2026-05-02T10:24:16.982Z</time></trkpt><trkpt lat="42.9449317" lon="13.1777533"><ele>1025.8333333333335</ele><time>2026-05-02T10:24:17.981Z</time></trkpt><trkpt lat="42.9449633" lon="13.1778967"><ele>1026.6666666666667</ele><time>2026-05-02T10:24:18.982Z</time></trkpt><trkpt lat="42.9449933" lon="13.1780133"><ele>1027.5</ele><time>2026-05-02T10:24:19.981Z</time></trkpt><trkpt lat="42.9450267" lon="13.178115"><ele>1028.3333333333333</ele><time>2026-05-02T10:24:20.982Z</time></trkpt><trkpt lat="42.9450633" lon="13.178205"><ele>1029.1666666666665</ele><time>2026-05-02T10:24:21.981Z</time></trkpt><trkpt lat="42.9451117" lon="13.17829"><ele>1030.0</ele><time>2026-05-02T10:24:22.981Z</time></trkpt><trkpt lat="42.9451683" lon="13.178365"><ele>1027.3333333333333</ele><time>2026-05-02T10:24:23.983Z</time></trkpt><trkpt lat="42.94522" lon="13.1784367"><ele>1024.6666666666665</ele><time>2026-05-02T10:24:24.982Z</time></trkpt><trkpt lat="42.9452633" lon="13.178505"><ele>1022.0</ele><time>2026-05-02T10:24:25.982Z</time></trkpt><trkpt lat="42.945335" lon="13.1786583"><ele>1019.3333333333333</ele><time>2026-05-02T10:24:27.981Z</time></trkpt><trkpt lat="42.9453667" lon="13.1787583"><ele>1016.6666666666666</ele><time>2026-05-02T10:24:28.982Z</time></trkpt><trkpt lat="42.9453917" lon="13.1788733"><ele>1014.0</ele><time>2026-05-02T10:24:29.981Z</time></trkpt><trkpt lat="42.9454033" lon="13.1789967"><ele>1014.6</ele><time>2026-05-02T10:24:30.983Z</time></trkpt><trkpt lat="42.9454083" lon="13.1791167"><ele>1015.2</ele><time>2026-05-02T10:24:31.981Z</time></trkpt><trkpt lat="42.9454083" lon="13.1792383"><ele>1015.8000000000001</ele><time>2026-05-02T10:24:32.981Z</time></trkpt><trkpt lat="42.9453983" lon="13.1793683"><ele>1016.4000000000001</ele><time>2026-05-02T10:24:33.983Z</time></trkpt><trkpt lat="42.9453783" lon="13.1795183"><ele>1017.0</ele><time>2026-05-02T10:24:34.982Z</time></trkpt><trkpt lat="42.945355" lon="13.179675"><ele>1017.0</ele><time>2026-05-02T10:24:35.982Z</time></trkpt><trkpt lat="42.94533" lon="13.179835"><ele>1017.0</ele><time>2026-05-02T10:24:36.982Z</time></trkpt><trkpt lat="42.9453067" lon="13.179985"><ele>1017.0</ele><time>2026-05-02T10:24:37.981Z</time></trkpt><trkpt lat="42.9452767" lon="13.1801333"><ele>1017.0</ele><time>2026-05-02T10:24:38.983Z</time></trkpt><trkpt lat="42.9452467" lon="13.18028"><ele>1017.0</ele><time>2026-05-02T10:24:39.983Z</time></trkpt><trkpt lat="42.9452183" lon="13.180415"><ele>1017.0</ele><time>2026-05-02T10:24:40.981Z</time></trkpt><trkpt lat="42.9452033" lon="13.1805483"><ele>1017.0</ele><time>2026-05-02T10:24:41.981Z</time></trkpt><trkpt lat="42.9452133" lon="13.1806667"><ele>1017.0</ele><time>2026-05-02T10:24:42.982Z</time></trkpt><trkpt lat="42.94524" lon="13.1807917"><ele>1017.0</ele><time>2026-05-02T10:24:43.982Z</time></trkpt><trkpt lat="42.9452883" lon="13.18093"><ele>1017.25</ele><time>2026-05-02T10:24:44.982Z</time></trkpt><trkpt lat="42.94535" lon="13.1810683"><ele>1017.5</ele><time>2026-05-02T10:24:45.982Z</time></trkpt><trkpt lat="42.945435" lon="13.1812083"><ele>1017.75</ele><time>2026-05-02T10:24:46.983Z</time></trkpt><trkpt lat="42.9455283" lon="13.1813483"><ele>1018.0</ele><time>2026-05-02T10:24:47.981Z</time></trkpt><trkpt lat="42.9456133" lon="13.18148"><ele>1019.5999999999999</ele><time>2026-05-02T10:24:48.981Z</time></trkpt><trkpt lat="42.9456867" lon="13.1815933"><ele>1021.1999999999999</ele><time>2026-05-02T10:24:49.981Z</time></trkpt><trkpt lat="42.9457417" lon="13.1816883"><ele>1022.8</ele><time>2026-05-02T10:24:50.981Z</time></trkpt><trkpt lat="42.9457817" lon="13.1817733"><ele>1024.3999999999999</ele><time>2026-05-02T10:24:51.981Z</time></trkpt><trkpt lat="42.9457967" lon="13.1818583"><ele>1026.0</ele><time>2026-05-02T10:24:52.981Z</time></trkpt><trkpt lat="42.945775" lon="13.1820333"><ele>1026.0</ele><time>2026-05-02T10:24:54.982Z</time></trkpt><trkpt lat="42.945735" lon="13.1821417"><ele>1026.0</ele><time>2026-05-02T10:24:55.982Z</time></trkpt><trkpt lat="42.9456817" lon="13.1822617"><ele>1026.0</ele><time>2026-05-02T10:24:56.981Z</time></trkpt><trkpt lat="42.9456533" lon="13.18237"><ele>1026.0</ele><time>2026-05-02T10:24:57.982Z</time></trkpt><trkpt lat="42.9456267" lon="13.1824733"><ele>1026.0</ele><time>2026-05-02T10:24:58.982Z</time></trkpt><trkpt lat="42.945605" lon="13.18258"><ele>1026.0</ele><time>2026-05-02T10:24:59.982Z</time></trkpt><trkpt lat="42.9456083" lon="13.182685"><ele>1026.2</ele><time>2026-05-02T10:25:00.982Z</time></trkpt><trkpt lat="42.94562" lon="13.1828067"><ele>1026.3999999999999</ele><time>2026-05-02T10:25:01.982Z</time></trkpt><trkpt lat="42.9456267" lon="13.182935"><ele>1026.6</ele><time>2026-05-02T10:25:02.982Z</time></trkpt><trkpt lat="42.9456367" lon="13.1830583"><ele>1026.8</ele><time>2026-05-02T10:25:03.982Z</time></trkpt><trkpt lat="42.945645" lon="13.18318"><ele>1027.0</ele><time>2026-05-02T10:25:04.981Z</time></trkpt><trkpt lat="42.945645" lon="13.1833017"><ele>1027.2</ele><time>2026-05-02T10:25:05.981Z</time></trkpt><trkpt lat="42.945655" lon="13.183425"><ele>1027.4</ele><time>2026-05-02T10:25:06.982Z</time></trkpt><trkpt lat="42.94565" lon="13.1835417"><ele>1027.6</ele><time>2026-05-02T10:25:07.982Z</time></trkpt><trkpt lat="42.94564" lon="13.183665"><ele>1027.8</ele><time>2026-05-02T10:25:08.982Z</time></trkpt><trkpt lat="42.9456033" lon="13.1838033"><ele>1028.0</ele><time>2026-05-02T10:25:09.982Z</time></trkpt><trkpt lat="42.9455683" lon="13.183935"><ele>1027.0</ele><time>2026-05-02T10:25:10.982Z</time></trkpt><trkpt lat="42.9455517" lon="13.1840383"><ele>1026.0</ele><time>2026-05-02T10:25:11.982Z</time></trkpt><trkpt lat="42.945535" lon="13.18419"><ele>1025.0</ele><time>2026-05-02T10:25:13.981Z</time></trkpt><trkpt lat="42.9455383" lon="13.18431"><ele>1024.0</ele><time>2026-05-02T10:25:15.982Z</time></trkpt><trkpt lat="42.9455583" lon="13.1843917"><ele>1023.0000000000001</ele><time>2026-05-02T10:25:17.981Z</time></trkpt><trkpt lat="42.9455667" lon="13.1844883"><ele>1022.0</ele><time>2026-05-02T10:25:19.982Z</time></trkpt><trkpt lat="42.9455783" lon="13.184625"><ele>1022.0</ele><time>2026-05-02T10:25:21.983Z</time></trkpt><trkpt lat="42.9455767" lon="13.1847917"><ele>1022.0</ele><time>2026-05-02T10:25:23.982Z</time></trkpt><trkpt lat="42.9455633" lon="13.1849367"><ele>1022.0</ele><time>2026-05-02T10:25:25.982Z</time></trkpt><trkpt lat="42.9455367" lon="13.18507"><ele>1022.0</ele><time>2026-05-02T10:25:27.982Z</time></trkpt><trkpt lat="42.9455133" lon="13.1851667"><ele>1022.0</ele><time>2026-05-02T10:25:29.982Z</time></trkpt><trkpt lat="42.945495" lon="13.185295"><ele>1021.4000000000001</ele><time>2026-05-02T10:25:32.982Z</time></trkpt><trkpt lat="42.9455017" lon="13.1854267"><ele>1020.8000000000001</ele><time>2026-05-02T10:25:34.981Z</time></trkpt><trkpt lat="42.945495" lon="13.1855883"><ele>1020.2</ele><time>2026-05-02T10:25:36.981Z</time></trkpt><trkpt lat="42.945495" lon="13.1857233"><ele>1019.6</ele><time>2026-05-02T10:25:38.983Z</time></trkpt><trkpt lat="42.9455117" lon="13.1858883"><ele>1019.0</ele><time>2026-05-02T10:25:40.982Z</time></trkpt><trkpt lat="42.94552" lon="13.185985"><ele>1020.0000000000001</ele><time>2026-05-02T10:25:41.981Z</time></trkpt><trkpt lat="42.9455367" lon="13.186095"><ele>1021.0</ele><time>2026-05-02T10:25:42.982Z</time></trkpt><trkpt lat="42.9455583" lon="13.1862233"><ele>1022.0</ele><time>2026-05-02T10:25:43.982Z</time></trkpt><trkpt lat="42.9455817" lon="13.1863483"><ele>1023.0</ele><time>2026-05-02T10:25:44.983Z</time></trkpt><trkpt lat="42.9456117" lon="13.1864583"><ele>1024.0</ele><time>2026-05-02T10:25:45.981Z</time></trkpt><trkpt lat="42.9456333" lon="13.1865583"><ele>1025.0</ele><time>2026-05-02T10:25:46.983Z</time></trkpt><trkpt lat="42.9456683" lon="13.1866417"><ele>1027.1666666666667</ele><time>2026-05-02T10:25:47.981Z</time></trkpt><trkpt lat="42.9457133" lon="13.186705"><ele>1029.3333333333335</ele><time>2026-05-02T10:25:48.982Z</time></trkpt><trkpt lat="42.9458" lon="13.1867833"><ele>1031.5</ele><time>2026-05-02T10:25:50.984Z</time></trkpt><trkpt lat="42.9459183" lon="13.1868083"><ele>1033.6666666666667</ele><time>2026-05-02T10:25:52.982Z</time></trkpt><trkpt lat="42.9459967" lon="13.1868367"><ele>1035.8333333333333</ele><time>2026-05-02T10:25:54.982Z</time></trkpt><trkpt lat="42.94604" lon="13.1869017"><ele>1038.0</ele><time>2026-05-02T10:25:56.982Z</time></trkpt><trkpt lat="42.9460917" lon="13.1869833"><ele>1040.4</ele><time>2026-05-02T10:25:58.983Z</time></trkpt><trkpt lat="42.9461417" lon="13.1870983"><ele>1042.8</ele><time>2026-05-02T10:26:00.983Z</time></trkpt><trkpt lat="42.9461533" lon="13.187205"><ele>1045.2</ele><time>2026-05-02T10:26:02.983Z</time></trkpt><trkpt lat="42.9461517" lon="13.1873133"><ele>1047.6</ele><time>2026-05-02T10:26:04.981Z</time></trkpt><trkpt lat="42.94617" lon="13.187455"><ele>1050.0</ele><time>2026-05-02T10:26:06.981Z</time></trkpt><trkpt lat="42.9462133" lon="13.1875833"><ele>1062.0</ele><time>2026-05-02T10:26:08.983Z</time></trkpt><trkpt lat="42.9462667" lon="13.187645"><ele>1062.0</ele><time>2026-05-02T10:26:10.982Z</time></trkpt><trkpt lat="42.9463167" lon="13.1877067"><ele>1062.0</ele><time>2026-05-02T10:26:52.983Z</time></trkpt><trkpt lat="42.94626" lon="13.1876533"><ele>1062.0</ele><time>2026-05-02T10:27:08.982Z</time></trkpt><trkpt lat="42.9462001" lon="13.1876179"><ele>1062.0</ele><time>2026-05-02T10:27:16.028Z</time></trkpt></trkseg><trkseg><trkpt lat="42.9345217" lon="13.1569776"><ele>828.0</ele><time>2026-05-02T10:42:21.003Z</time></trkpt><trkpt lat="42.9345733" lon="13.1567779"><ele>828.0</ele><time>2026-05-02T10:42:31.982Z</time></trkpt><trkpt lat="42.93465" lon="13.1564783"><ele>828.0</ele><time>2026-05-02T10:42:33.982Z</time></trkpt><trkpt lat="42.934735" lon="13.15624"><ele>825.0</ele><time>2026-05-02T10:42:35.982Z</time></trkpt><trkpt lat="42.9348167" lon="13.1559833"><ele>822.0</ele><time>2026-05-02T10:42:37.982Z</time></trkpt><trkpt lat="42.9348967" lon="13.1557683"><ele>819.0</ele><time>2026-05-02T10:42:39.982Z</time></trkpt><trkpt lat="42.9349417" lon="13.1556783"><ele>818.0</ele><time>2026-05-02T10:42:40.982Z</time></trkpt><trkpt lat="42.935035" lon="13.1554767"><ele>817.0</ele><time>2026-05-02T10:42:42.983Z</time></trkpt><trkpt lat="42.9351317" lon="13.1552367"><ele>816.0</ele><time>2026-05-02T10:42:44.982Z</time></trkpt><trkpt lat="42.9352167" lon="13.154975"><ele>814.0</ele><time>2026-05-02T10:42:46.982Z</time></trkpt><trkpt lat="42.9353067" lon="13.1547233"><ele>812.0</ele><time>2026-05-02T10:42:48.982Z</time></trkpt><trkpt lat="42.9353517" lon="13.1546067"><ele>810.0</ele><time>2026-05-02T10:42:49.982Z</time></trkpt><trkpt lat="42.935395" lon="13.1544933"><ele>808.0</ele><time>2026-05-02T10:42:50.982Z</time></trkpt><trkpt lat="42.9354333" lon="13.1543817"><ele>808.0</ele><time>2026-05-02T10:42:51.983Z</time></trkpt><trkpt lat="42.9354617" lon="13.154275"><ele>808.0</ele><time>2026-05-02T10:42:52.983Z</time></trkpt><trkpt lat="42.9354767" lon="13.15416"><ele>808.0</ele><time>2026-05-02T10:42:53.983Z</time></trkpt><trkpt lat="42.93546" lon="13.1539383"><ele>808.0</ele><time>2026-05-02T10:42:55.982Z</time></trkpt><trkpt lat="42.935425" lon="13.1537333"><ele>806.0</ele><time>2026-05-02T10:42:57.983Z</time></trkpt><trkpt lat="42.9354" lon="13.15355"><ele>804.0</ele><time>2026-05-02T10:42:59.982Z</time></trkpt><trkpt lat="42.935415" lon="13.1534267"><ele>802.0</ele><time>2026-05-02T10:43:02.982Z</time></trkpt><trkpt lat="42.9354717" lon="13.153305"><ele>800.0</ele><time>2026-05-02T10:43:27.981Z</time></trkpt><trkpt lat="42.935575" lon="13.1532083"><ele>799.4</ele><time>2026-05-02T10:43:29.982Z</time></trkpt><trkpt lat="42.9356383" lon="13.1531483"><ele>798.8</ele><time>2026-05-02T10:43:30.982Z</time></trkpt><trkpt lat="42.9357117" lon="13.1530767"><ele>798.2</ele><time>2026-05-02T10:43:31.983Z</time></trkpt><trkpt lat="42.9357867" lon="13.152995"><ele>797.6</ele><time>2026-05-02T10:43:32.982Z</time></trkpt><trkpt lat="42.935865" lon="13.1529067"><ele>797.0</ele><time>2026-05-02T10:43:33.983Z</time></trkpt><trkpt lat="42.93595" lon="13.15281"><ele>796.0</ele><time>2026-05-02T10:43:34.983Z</time></trkpt><trkpt lat="42.936035" lon="13.1527117"><ele>795.0</ele><time>2026-05-02T10:43:35.982Z</time></trkpt><trkpt lat="42.93612" lon="13.1526183"><ele>794.0</ele><time>2026-05-02T10:43:36.983Z</time></trkpt><trkpt lat="42.9362033" lon="13.1525267"><ele>793.0</ele><time>2026-05-02T10:43:37.982Z</time></trkpt><trkpt lat="42.9362867" lon="13.152435"><ele>792.0</ele><time>2026-05-02T10:43:38.983Z</time></trkpt><trkpt lat="42.9363683" lon="13.1523433"><ele>792.0</ele><time>2026-05-02T10:43:39.983Z</time></trkpt><trkpt lat="42.93645" lon="13.1522533"><ele>792.0</ele><time>2026-05-02T10:43:40.982Z</time></trkpt><trkpt lat="42.9365317" lon="13.152165"><ele>792.0</ele><time>2026-05-02T10:43:41.982Z</time></trkpt><trkpt lat="42.9367817" lon="13.1519267"><ele>791.0</ele><time>2026-05-02T10:43:44.983Z</time></trkpt><trkpt lat="42.9368617" lon="13.1518583"><ele>790.0</ele><time>2026-05-02T10:43:45.983Z</time></trkpt><trkpt lat="42.9369383" lon="13.151795"><ele>789.0</ele><time>2026-05-02T10:43:46.981Z</time></trkpt><trkpt lat="42.9370117" lon="13.1517333"><ele>788.0</ele><time>2026-05-02T10:43:47.982Z</time></trkpt><trkpt lat="42.9370817" lon="13.15168"><ele>787.0</ele><time>2026-05-02T10:43:48.981Z</time></trkpt><trkpt lat="42.9371533" lon="13.151625"><ele>786.0</ele><time>2026-05-02T10:43:49.982Z</time></trkpt><trkpt lat="42.93723" lon="13.1515667"><ele>787.4</ele><time>2026-05-02T10:43:50.985Z</time></trkpt><trkpt lat="42.93731" lon="13.1515117"><ele>788.8</ele><time>2026-05-02T10:43:51.983Z</time></trkpt><trkpt lat="42.9374" lon="13.15146"><ele>790.1999999999999</ele><time>2026-05-02T10:43:52.982Z</time></trkpt><trkpt lat="42.9375033" lon="13.1514133"><ele>791.5999999999999</ele><time>2026-05-02T10:43:53.981Z</time></trkpt><trkpt lat="42.9376133" lon="13.15138"><ele>793.0</ele><time>2026-05-02T10:43:54.982Z</time></trkpt><trkpt lat="42.9377283" lon="13.1513583"><ele>793.0</ele><time>2026-05-02T10:43:55.982Z</time></trkpt><trkpt lat="42.9378433" lon="13.1513467"><ele>793.0</ele><time>2026-05-02T10:43:56.982Z</time></trkpt><trkpt lat="42.9379583" lon="13.1513333"><ele>793.0</ele><time>2026-05-02T10:43:57.981Z</time></trkpt><trkpt lat="42.93807" lon="13.1513183"><ele>793.0</ele><time>2026-05-02T10:43:58.982Z</time></trkpt><trkpt lat="42.9381783" lon="13.1513"><ele>793.0</ele><time>2026-05-02T10:43:59.983Z</time></trkpt><trkpt lat="42.9382817" lon="13.151265"><ele>793.0</ele><time>2026-05-02T10:44:00.982Z</time></trkpt><trkpt lat="42.93838" lon="13.1512217"><ele>793.0</ele><time>2026-05-02T10:44:01.983Z</time></trkpt><trkpt lat="42.938475" lon="13.1511667"><ele>793.0</ele><time>2026-05-02T10:44:02.982Z</time></trkpt><trkpt lat="42.9385683" lon="13.1510967"><ele>793.0</ele><time>2026-05-02T10:44:03.982Z</time></trkpt><trkpt lat="42.93866" lon="13.1510083"><ele>792.25</ele><time>2026-05-02T10:44:04.983Z</time></trkpt><trkpt lat="42.9387517" lon="13.1509"><ele>791.5</ele><time>2026-05-02T10:44:05.982Z</time></trkpt><trkpt lat="42.9388433" lon="13.150775"><ele>790.75</ele><time>2026-05-02T10:44:06.984Z</time></trkpt><trkpt lat="42.938935" lon="13.1506367"><ele>790.0</ele><time>2026-05-02T10:44:07.983Z</time></trkpt><trkpt lat="42.9390267" lon="13.1504983"><ele>790.0</ele><time>2026-05-02T10:44:08.985Z</time></trkpt><trkpt lat="42.9391233" lon="13.1503617"><ele>790.0</ele><time>2026-05-02T10:44:09.982Z</time></trkpt><trkpt lat="42.93922" lon="13.15023"><ele>790.0</ele><time>2026-05-02T10:44:10.982Z</time></trkpt><trkpt lat="42.9393267" lon="13.150095"><ele>790.0</ele><time>2026-05-02T10:44:11.982Z</time></trkpt><trkpt lat="42.9394333" lon="13.1499583"><ele>786.75</ele><time>2026-05-02T10:44:12.982Z</time></trkpt><trkpt lat="42.9395383" lon="13.14982"><ele>783.5</ele><time>2026-05-02T10:44:13.983Z</time></trkpt><trkpt lat="42.93964" lon="13.1496833"><ele>780.25</ele><time>2026-05-02T10:44:14.982Z</time></trkpt><trkpt lat="42.9397433" lon="13.1495533"><ele>777.0</ele><time>2026-05-02T10:44:15.982Z</time></trkpt><trkpt lat="42.93985" lon="13.1494317"><ele>777.0</ele><time>2026-05-02T10:44:16.982Z</time></trkpt><trkpt lat="42.9399583" lon="13.1493217"><ele>777.0</ele><time>2026-05-02T10:44:17.982Z</time></trkpt><trkpt lat="42.9400717" lon="13.1492233"><ele>777.0</ele><time>2026-05-02T10:44:18.983Z</time></trkpt><trkpt lat="42.9401933" lon="13.1491367"><ele>777.0</ele><time>2026-05-02T10:44:19.982Z</time></trkpt><trkpt lat="42.9403167" lon="13.1490483"><ele>774.0</ele><time>2026-05-02T10:44:20.983Z</time></trkpt><trkpt lat="42.9404367" lon="13.14896"><ele>771.0</ele><time>2026-05-02T10:44:21.982Z</time></trkpt><trkpt lat="42.94055" lon="13.1488617"><ele>768.0</ele><time>2026-05-02T10:44:22.982Z</time></trkpt><trkpt lat="42.9406467" lon="13.1487383"><ele>765.0</ele><time>2026-05-02T10:44:23.982Z</time></trkpt><trkpt lat="42.94073" lon="13.1485783"><ele>765.0</ele><time>2026-05-02T10:44:24.983Z</time></trkpt><trkpt lat="42.9408067" lon="13.14839"><ele>765.0</ele><time>2026-05-02T10:44:25.983Z</time></trkpt><trkpt lat="42.940875" lon="13.1481917"><ele>765.0</ele><time>2026-05-02T10:44:26.982Z</time></trkpt><trkpt lat="42.9409383" lon="13.1479933"><ele>760.3333333333334</ele><time>2026-05-02T10:44:27.982Z</time></trkpt><trkpt lat="42.9409833" lon="13.1477867"><ele>755.6666666666667</ele><time>2026-05-02T10:44:28.982Z</time></trkpt><trkpt lat="42.9410167" lon="13.14758"><ele>751.0</ele><time>2026-05-02T10:44:29.983Z</time></trkpt><trkpt lat="42.9410333" lon="13.1473767"><ele>751.0</ele><time>2026-05-02T10:44:30.982Z</time></trkpt><trkpt lat="42.9410367" lon="13.1471717"><ele>751.0</ele><time>2026-05-02T10:44:31.983Z</time></trkpt><trkpt lat="42.9410217" lon="13.1469683"><ele>751.0</ele><time>2026-05-02T10:44:32.983Z</time></trkpt><trkpt lat="42.9409833" lon="13.1467733"><ele>751.0</ele><time>2026-05-02T10:44:33.982Z</time></trkpt><trkpt lat="42.9409333" lon="13.146585"><ele>751.5</ele><time>2026-05-02T10:44:34.983Z</time></trkpt><trkpt lat="42.9408917" lon="13.146395"><ele>752.0</ele><time>2026-05-02T10:44:35.982Z</time></trkpt><trkpt lat="42.940865" lon="13.146205"><ele>752.5</ele><time>2026-05-02T10:44:36.983Z</time></trkpt><trkpt lat="42.9408583" lon="13.1460133"><ele>753.0</ele><time>2026-05-02T10:44:37.983Z</time></trkpt><trkpt lat="42.9408783" lon="13.14582"><ele>755.0</ele><time>2026-05-02T10:44:38.982Z</time></trkpt><trkpt lat="42.9409233" lon="13.1456283"><ele>757.0</ele><time>2026-05-02T10:44:39.982Z</time></trkpt><trkpt lat="42.9409733" lon="13.145425"><ele>759.0</ele><time>2026-05-02T10:44:40.982Z</time></trkpt><trkpt lat="42.941015" lon="13.145215"><ele>759.0</ele><time>2026-05-02T10:44:41.981Z</time></trkpt><trkpt lat="42.9410383" lon="13.1450033"><ele>759.0</ele><time>2026-05-02T10:44:42.982Z</time></trkpt><trkpt lat="42.941045" lon="13.1447967"><ele>759.0</ele><time>2026-05-02T10:44:43.982Z</time></trkpt><trkpt lat="42.941035" lon="13.144595"><ele>760.0</ele><time>2026-05-02T10:44:44.983Z</time></trkpt><trkpt lat="42.9410083" lon="13.144395"><ele>761.0</ele><time>2026-05-02T10:44:45.982Z</time></trkpt><trkpt lat="42.9409617" lon="13.144205"><ele>762.0</ele><time>2026-05-02T10:44:46.983Z</time></trkpt><trkpt lat="42.940895" lon="13.144025"><ele>763.0</ele><time>2026-05-02T10:44:47.983Z</time></trkpt><trkpt lat="42.940815" lon="13.143855"><ele>758.5</ele><time>2026-05-02T10:44:48.982Z</time></trkpt><trkpt lat="42.94073" lon="13.143695"><ele>754.0</ele><time>2026-05-02T10:44:49.982Z</time></trkpt><trkpt lat="42.9406417" lon="13.143545"><ele>749.5</ele><time>2026-05-02T10:44:50.983Z</time></trkpt><trkpt lat="42.9405467" lon="13.143415"><ele>745.0</ele><time>2026-05-02T10:44:51.982Z</time></trkpt><trkpt lat="42.94045" lon="13.1433033"><ele>744.25</ele><time>2026-05-02T10:44:52.982Z</time></trkpt><trkpt lat="42.9403533" lon="13.1431967"><ele>743.5</ele><time>2026-05-02T10:44:53.982Z</time></trkpt><trkpt lat="42.9402717" lon="13.1430767"><ele>742.75</ele><time>2026-05-02T10:44:54.982Z</time></trkpt><trkpt lat="42.9402083" lon="13.142935"><ele>742.0</ele><time>2026-05-02T10:44:55.983Z</time></trkpt><trkpt lat="42.9401717" lon="13.14277"><ele>742.0</ele><time>2026-05-02T10:44:56.983Z</time></trkpt><trkpt lat="42.9401567" lon="13.1425917"><ele>742.0</ele><time>2026-05-02T10:44:57.982Z</time></trkpt><trkpt lat="42.94016" lon="13.1424033"><ele>742.0</ele><time>2026-05-02T10:44:58.983Z</time></trkpt><trkpt lat="42.9401767" lon="13.1422117"><ele>742.0</ele><time>2026-05-02T10:44:59.983Z</time></trkpt><trkpt lat="42.9401967" lon="13.14202"><ele>741.5</ele><time>2026-05-02T10:45:00.982Z</time></trkpt><trkpt lat="42.9402317" lon="13.1418267"><ele>741.0</ele><time>2026-05-02T10:45:01.983Z</time></trkpt><trkpt lat="42.9402767" lon="13.1416383"><ele>740.5</ele><time>2026-05-02T10:45:02.982Z</time></trkpt><trkpt lat="42.9403233" lon="13.1414567"><ele>740.0</ele><time>2026-05-02T10:45:03.981Z</time></trkpt><trkpt lat="42.9403767" lon="13.14129"><ele>740.0</ele><time>2026-05-02T10:45:04.981Z</time></trkpt><trkpt lat="42.9404283" lon="13.141135"><ele>740.0</ele><time>2026-05-02T10:45:05.982Z</time></trkpt><trkpt lat="42.94049" lon="13.1409983"><ele>740.0</ele><time>2026-05-02T10:45:06.981Z</time></trkpt><trkpt lat="42.94056" lon="13.1408783"><ele>740.0</ele><time>2026-05-02T10:45:07.983Z</time></trkpt><trkpt lat="42.9406317" lon="13.14077"><ele>739.2</ele><time>2026-05-02T10:45:08.983Z</time></trkpt><trkpt lat="42.94071" lon="13.1406717"><ele>738.4</ele><time>2026-05-02T10:45:09.982Z</time></trkpt><trkpt lat="42.9407917" lon="13.1405817"><ele>737.5999999999999</ele><time>2026-05-02T10:45:10.982Z</time></trkpt><trkpt lat="42.940875" lon="13.1404933"><ele>736.8</ele><time>2026-05-02T10:45:11.984Z</time></trkpt><trkpt lat="42.9409583" lon="13.1404067"><ele>736.0</ele><time>2026-05-02T10:45:12.982Z</time></trkpt><trkpt lat="42.94104" lon="13.140325"><ele>736.0</ele><time>2026-05-02T10:45:13.982Z</time></trkpt><trkpt lat="42.94112" lon="13.1402467"><ele>736.0</ele><time>2026-05-02T10:45:14.981Z</time></trkpt><trkpt lat="42.9412033" lon="13.1401683"><ele>736.0</ele><time>2026-05-02T10:45:15.981Z</time></trkpt><trkpt lat="42.9412883" lon="13.1400917"><ele>736.0</ele><time>2026-05-02T10:45:16.98Z</time></trkpt><trkpt lat="42.9413783" lon="13.140015"><ele>736.0</ele><time>2026-05-02T10:45:17.982Z</time></trkpt><trkpt lat="42.9414683" lon="13.13994"><ele>736.0</ele><time>2026-05-02T10:45:18.981Z</time></trkpt><trkpt lat="42.94156" lon="13.13986"><ele>736.0</ele><time>2026-05-02T10:45:19.981Z</time></trkpt><trkpt lat="42.941655" lon="13.1397783"><ele>736.0</ele><time>2026-05-02T10:45:20.981Z</time></trkpt><trkpt lat="42.9417517" lon="13.1396967"><ele>736.0</ele><time>2026-05-02T10:45:21.982Z</time></trkpt><trkpt lat="42.9418467" lon="13.1396167"><ele>736.0</ele><time>2026-05-02T10:45:22.981Z</time></trkpt><trkpt lat="42.9419417" lon="13.1395417"><ele>733.8</ele><time>2026-05-02T10:45:23.985Z</time></trkpt><trkpt lat="42.9420333" lon="13.139465"><ele>731.5999999999999</ele><time>2026-05-02T10:45:24.982Z</time></trkpt><trkpt lat="42.9421233" lon="13.1393867"><ele>729.4</ele><time>2026-05-02T10:45:25.981Z</time></trkpt><trkpt lat="42.942215" lon="13.1393133"><ele>727.2</ele><time>2026-05-02T10:45:26.981Z</time></trkpt><trkpt lat="42.942305" lon="13.13924"><ele>725.0</ele><time>2026-05-02T10:45:27.982Z</time></trkpt><trkpt lat="42.9423933" lon="13.1391717"><ele>725.0</ele><time>2026-05-02T10:45:28.981Z</time></trkpt><trkpt lat="42.9424817" lon="13.1391"><ele>725.0</ele><time>2026-05-02T10:45:29.982Z</time></trkpt><trkpt lat="42.9425683" lon="13.1390283"><ele>725.0</ele><time>2026-05-02T10:45:30.981Z</time></trkpt><trkpt lat="42.9426567" lon="13.1389617"><ele>725.0</ele><time>2026-05-02T10:45:31.981Z</time></trkpt><trkpt lat="42.9427417" lon="13.1388967"><ele>725.0</ele><time>2026-05-02T10:45:32.983Z</time></trkpt><trkpt lat="42.942825" lon="13.1388317"><ele>725.0</ele><time>2026-05-02T10:45:33.981Z</time></trkpt><trkpt lat="42.942905" lon="13.138765"><ele>725.0</ele><time>2026-05-02T10:45:34.982Z</time></trkpt><trkpt lat="42.94299" lon="13.138695"><ele>725.0</ele><time>2026-05-02T10:45:35.981Z</time></trkpt><trkpt lat="42.943075" lon="13.1386217"><ele>725.0</ele><time>2026-05-02T10:45:36.981Z</time></trkpt><trkpt lat="42.94316" lon="13.1385367"><ele>725.0</ele><time>2026-05-02T10:45:37.982Z</time></trkpt><trkpt lat="42.9432367" lon="13.13844"><ele>725.0</ele><time>2026-05-02T10:45:38.982Z</time></trkpt><trkpt lat="42.9432867" lon="13.138305"><ele>725.0</ele><time>2026-05-02T10:45:39.981Z</time></trkpt><trkpt lat="42.9433183" lon="13.1381517"><ele>725.0</ele><time>2026-05-02T10:45:40.982Z</time></trkpt><trkpt lat="42.943335" lon="13.1379883"><ele>725.0</ele><time>2026-05-02T10:45:41.981Z</time></trkpt><trkpt lat="42.9433383" lon="13.13782"><ele>724.5</ele><time>2026-05-02T10:45:42.982Z</time></trkpt><trkpt lat="42.94333" lon="13.1376467"><ele>724.0</ele><time>2026-05-02T10:45:43.981Z</time></trkpt><trkpt lat="42.9433217" lon="13.13747"><ele>723.5</ele><time>2026-05-02T10:45:44.982Z</time></trkpt><trkpt lat="42.943315" lon="13.1372933"><ele>723.0</ele><time>2026-05-02T10:45:45.982Z</time></trkpt><trkpt lat="42.94331" lon="13.1371083"><ele>722.25</ele><time>2026-05-02T10:45:46.982Z</time></trkpt><trkpt lat="42.9433067" lon="13.1369217"><ele>721.5</ele><time>2026-05-02T10:45:47.982Z</time></trkpt><trkpt lat="42.9433083" lon="13.1367433"><ele>720.75</ele><time>2026-05-02T10:45:48.981Z</time></trkpt><trkpt lat="42.9433083" lon="13.13657"><ele>720.0</ele><time>2026-05-02T10:45:49.982Z</time></trkpt><trkpt lat="42.94331" lon="13.136395"><ele>719.5</ele><time>2026-05-02T10:45:50.982Z</time></trkpt><trkpt lat="42.9433117" lon="13.1362183"><ele>719.0</ele><time>2026-05-02T10:45:51.982Z</time></trkpt><trkpt lat="42.943315" lon="13.13604"><ele>718.5</ele><time>2026-05-02T10:45:52.981Z</time></trkpt><trkpt lat="42.9433217" lon="13.13586"><ele>718.0</ele><time>2026-05-02T10:45:53.983Z</time></trkpt><trkpt lat="42.94333" lon="13.13568"><ele>717.5</ele><time>2026-05-02T10:45:54.982Z</time></trkpt><trkpt lat="42.943345" lon="13.1354983"><ele>717.0</ele><time>2026-05-02T10:45:55.981Z</time></trkpt><trkpt lat="42.94336" lon="13.1353167"><ele>716.5</ele><time>2026-05-02T10:45:56.981Z</time></trkpt><trkpt lat="42.9433733" lon="13.1351333"><ele>716.0</ele><time>2026-05-02T10:45:57.982Z</time></trkpt><trkpt lat="42.9433883" lon="13.1349483"><ele>716.25</ele><time>2026-05-02T10:45:58.982Z</time></trkpt><trkpt lat="42.943405" lon="13.1347633"><ele>716.5</ele><time>2026-05-02T10:45:59.981Z</time></trkpt><trkpt lat="42.9434233" lon="13.1345783"><ele>716.75</ele><time>2026-05-02T10:46:00.982Z</time></trkpt><trkpt lat="42.9434417" lon="13.1344017"><ele>717.0</ele><time>2026-05-02T10:46:01.981Z</time></trkpt><trkpt lat="42.943455" lon="13.1342333"><ele>717.0</ele><time>2026-05-02T10:46:02.981Z</time></trkpt><trkpt lat="42.9434683" lon="13.1340767"><ele>717.0</ele><time>2026-05-02T10:46:03.981Z</time></trkpt><trkpt lat="42.9434783" lon="13.1339283"><ele>717.0</ele><time>2026-05-02T10:46:04.981Z</time></trkpt><trkpt lat="42.943485" lon="13.1337883"><ele>717.0</ele><time>2026-05-02T10:46:05.982Z</time></trkpt><trkpt lat="42.9434917" lon="13.1336533"><ele>717.0</ele><time>2026-05-02T10:46:06.981Z</time></trkpt><trkpt lat="42.9435" lon="13.133525"><ele>716.3333333333334</ele><time>2026-05-02T10:46:07.981Z</time></trkpt><trkpt lat="42.9435133" lon="13.1334017"><ele>715.6666666666666</ele><time>2026-05-02T10:46:08.982Z</time></trkpt><trkpt lat="42.9435233" lon="13.1332817"><ele>715.0</ele><time>2026-05-02T10:46:09.981Z</time></trkpt><trkpt lat="42.9435317" lon="13.1331683"><ele>714.3333333333333</ele><time>2026-05-02T10:46:10.981Z</time></trkpt><trkpt lat="42.9435367" lon="13.133055"><ele>713.6666666666666</ele><time>2026-05-02T10:46:11.983Z</time></trkpt><trkpt lat="42.9435467" lon="13.132935"><ele>713.0</ele><time>2026-05-02T10:46:12.982Z</time></trkpt><trkpt lat="42.9435567" lon="13.1328083"><ele>712.5999999999999</ele><time>2026-05-02T10:46:13.982Z</time></trkpt><trkpt lat="42.9435733" lon="13.13268"><ele>712.1999999999999</ele><time>2026-05-02T10:46:14.982Z</time></trkpt><trkpt lat="42.9435867" lon="13.13255"><ele>711.8</ele><time>2026-05-02T10:46:15.982Z</time></trkpt><trkpt lat="42.9435983" lon="13.132415"><ele>711.4</ele><time>2026-05-02T10:46:16.981Z</time></trkpt><trkpt lat="42.9436083" lon="13.1322783"><ele>711.0</ele><time>2026-05-02T10:46:17.982Z</time></trkpt><trkpt lat="42.9436183" lon="13.1321433"><ele>710.8333333333334</ele><time>2026-05-02T10:46:18.982Z</time></trkpt><trkpt lat="42.9436267" lon="13.132015"><ele>710.6666666666666</ele><time>2026-05-02T10:46:19.981Z</time></trkpt><trkpt lat="42.9436333" lon="13.13189"><ele>710.5</ele><time>2026-05-02T10:46:20.982Z</time></trkpt><trkpt lat="42.94364" lon="13.1317733"><ele>710.3333333333333</ele><time>2026-05-02T10:46:21.982Z</time></trkpt><trkpt lat="42.9436417" lon="13.1316617"><ele>710.1666666666666</ele><time>2026-05-02T10:46:22.983Z</time></trkpt><trkpt lat="42.94364" lon="13.1315567"><ele>710.0</ele><time>2026-05-02T10:46:23.983Z</time></trkpt><trkpt lat="42.9436367" lon="13.1314633"><ele>710.5</ele><time>2026-05-02T10:46:24.982Z</time></trkpt><trkpt lat="42.9436283" lon="13.13131"><ele>711.0</ele><time>2026-05-02T10:46:26.982Z</time></trkpt><trkpt lat="42.94362" lon="13.1311667"><ele>711.5</ele><time>2026-05-02T10:46:28.981Z</time></trkpt><trkpt lat="42.9436133" lon="13.1310767"><ele>712.0</ele><time>2026-05-02T10:46:29.981Z</time></trkpt><trkpt lat="42.9436017" lon="13.1309767"><ele>712.5</ele><time>2026-05-02T10:46:30.981Z</time></trkpt><trkpt lat="42.9435917" lon="13.1308717"><ele>713.0</ele><time>2026-05-02T10:46:31.983Z</time></trkpt><trkpt lat="42.943575" lon="13.130765"><ele>713.2</ele><time>2026-05-02T10:46:32.983Z</time></trkpt><trkpt lat="42.9435483" lon="13.1306583"><ele>713.4</ele><time>2026-05-02T10:46:33.981Z</time></trkpt><trkpt lat="42.94352" lon="13.1305367"><ele>713.6</ele><time>2026-05-02T10:46:34.981Z</time></trkpt><trkpt lat="42.94349" lon="13.1303967"><ele>713.8000000000001</ele><time>2026-05-02T10:46:35.982Z</time></trkpt><trkpt lat="42.94346" lon="13.13025"><ele>714.0</ele><time>2026-05-02T10:46:36.983Z</time></trkpt><trkpt lat="42.9434317" lon="13.1300933"><ele>714.0</ele><time>2026-05-02T10:46:37.982Z</time></trkpt><trkpt lat="42.9434033" lon="13.1299333"><ele>714.0</ele><time>2026-05-02T10:46:38.983Z</time></trkpt><trkpt lat="42.943375" lon="13.129765"><ele>714.0</ele><time>2026-05-02T10:46:39.982Z</time></trkpt><trkpt lat="42.9433383" lon="13.1295917"><ele>714.0</ele><time>2026-05-02T10:46:40.984Z</time></trkpt><trkpt lat="42.9432983" lon="13.1294117"><ele>711.5</ele><time>2026-05-02T10:46:41.983Z</time></trkpt><trkpt lat="42.9432567" lon="13.129225"><ele>709.0</ele><time>2026-05-02T10:46:42.984Z</time></trkpt><trkpt lat="42.943215" lon="13.1290317"><ele>706.5</ele><time>2026-05-02T10:46:43.982Z</time></trkpt><trkpt lat="42.9431767" lon="13.128835"><ele>704.0</ele><time>2026-05-02T10:46:44.983Z</time></trkpt><trkpt lat="42.9431367" lon="13.1286333"><ele>704.0</ele><time>2026-05-02T10:46:45.984Z</time></trkpt><trkpt lat="42.9430967" lon="13.1284283"><ele>704.0</ele><time>2026-05-02T10:46:46.984Z</time></trkpt><trkpt lat="42.9430583" lon="13.12822"><ele>704.0</ele><time>2026-05-02T10:46:47.983Z</time></trkpt><trkpt lat="42.943025" lon="13.128005"><ele>709.3333333333333</ele><time>2026-05-02T10:46:48.984Z</time></trkpt><trkpt lat="42.9429917" lon="13.12779"><ele>714.6666666666666</ele><time>2026-05-02T10:46:49.983Z</time></trkpt><trkpt lat="42.94296" lon="13.1275767"><ele>720.0</ele><time>2026-05-02T10:46:50.983Z</time></trkpt><trkpt lat="42.9429233" lon="13.1273617"><ele>726.0</ele><time>2026-05-02T10:46:51.983Z</time></trkpt><trkpt lat="42.9428833" lon="13.1271483"><ele>732.0</ele><time>2026-05-02T10:46:52.983Z</time></trkpt><trkpt lat="42.9428367" lon="13.12694"><ele>738.0</ele><time>2026-05-02T10:46:53.984Z</time></trkpt><trkpt lat="42.9427833" lon="13.1267383"><ele>743.3333333333334</ele><time>2026-05-02T10:46:54.984Z</time></trkpt><trkpt lat="42.94273" lon="13.1265367"><ele>748.6666666666667</ele><time>2026-05-02T10:46:55.984Z</time></trkpt><trkpt lat="42.9426733" lon="13.1263383"><ele>754.0</ele><time>2026-05-02T10:46:56.984Z</time></trkpt><trkpt lat="42.94261" lon="13.1261417"><ele>745.3333333333334</ele><time>2026-05-02T10:46:57.984Z</time></trkpt><trkpt lat="42.9425417" lon="13.125945"><ele>736.6666666666666</ele><time>2026-05-02T10:46:58.983Z</time></trkpt><trkpt lat="42.9424683" lon="13.1257483"><ele>728.0</ele><time>2026-05-02T10:46:59.984Z</time></trkpt><trkpt lat="42.94239" lon="13.1255517"><ele>728.0</ele><time>2026-05-02T10:47:00.984Z</time></trkpt><trkpt lat="42.9423" lon="13.1253617"><ele>728.0</ele><time>2026-05-02T10:47:01.984Z</time></trkpt><trkpt lat="42.9422" lon="13.12518"><ele>728.0</ele><time>2026-05-02T10:47:02.983Z</time></trkpt><trkpt lat="42.9420933" lon="13.12501"><ele>737.3333333333333</ele><time>2026-05-02T10:47:03.984Z</time></trkpt><trkpt lat="42.9419867" lon="13.1248483"><ele>746.6666666666666</ele><time>2026-05-02T10:47:04.983Z</time></trkpt><trkpt lat="42.94188" lon="13.1246883"><ele>756.0</ele><time>2026-05-02T10:47:05.983Z</time></trkpt><trkpt lat="42.9417667" lon="13.1245317"><ele>740.6666666666666</ele><time>2026-05-02T10:47:06.983Z</time></trkpt><trkpt lat="42.9416533" lon="13.124375"><ele>725.3333333333333</ele><time>2026-05-02T10:47:07.984Z</time></trkpt><trkpt lat="42.941535" lon="13.1242233"><ele>710.0</ele><time>2026-05-02T10:47:08.984Z</time></trkpt><trkpt lat="42.9414133" lon="13.1240767"><ele>720.6666666666666</ele><time>2026-05-02T10:47:09.983Z</time></trkpt><trkpt lat="42.94129" lon="13.1239383"><ele>731.3333333333334</ele><time>2026-05-02T10:47:10.983Z</time></trkpt><trkpt lat="42.9411633" lon="13.123815"><ele>742.0</ele><time>2026-05-02T10:47:11.984Z</time></trkpt><trkpt lat="42.9410317" lon="13.1237033"><ele>742.0</ele><time>2026-05-02T10:47:12.984Z</time></trkpt><trkpt lat="42.940895" lon="13.1236083"><ele>742.0</ele><time>2026-05-02T10:47:13.983Z</time></trkpt><trkpt lat="42.940755" lon="13.1235183"><ele>742.0</ele><time>2026-05-02T10:47:14.984Z</time></trkpt><trkpt lat="42.9406133" lon="13.1234283"><ele>740.6666666666667</ele><time>2026-05-02T10:47:15.981Z</time></trkpt><trkpt lat="42.94047" lon="13.1233317"><ele>739.3333333333334</ele><time>2026-05-02T10:47:16.982Z</time></trkpt><trkpt lat="42.9403333" lon="13.1232267"><ele>738.0</ele><time>2026-05-02T10:47:17.982Z</time></trkpt><trkpt lat="42.9402017" lon="13.1231117"><ele>738.0</ele><time>2026-05-02T10:47:18.983Z</time></trkpt><trkpt lat="42.9400767" lon="13.1229833"><ele>738.0</ele><time>2026-05-02T10:47:19.982Z</time></trkpt><trkpt lat="42.9399567" lon="13.1228433"><ele>738.0</ele><time>2026-05-02T10:47:20.982Z</time></trkpt><trkpt lat="42.9398383" lon="13.1227017"><ele>736.0</ele><time>2026-05-02T10:47:21.983Z</time></trkpt><trkpt lat="42.93972" lon="13.12256"><ele>734.0</ele><time>2026-05-02T10:47:22.983Z</time></trkpt><trkpt lat="42.939605" lon="13.122415"><ele>732.0</ele><time>2026-05-02T10:47:23.983Z</time></trkpt><trkpt lat="42.9394917" lon="13.1222683"><ele>732.0</ele><time>2026-05-02T10:47:24.982Z</time></trkpt><trkpt lat="42.939375" lon="13.12213"><ele>732.0</ele><time>2026-05-02T10:47:25.982Z</time></trkpt><trkpt lat="42.9392583" lon="13.121985"><ele>732.0</ele><time>2026-05-02T10:47:26.983Z</time></trkpt><trkpt lat="42.9391383" lon="13.1218367"><ele>729.3333333333334</ele><time>2026-05-02T10:47:27.981Z</time></trkpt><trkpt lat="42.9390167" lon="13.1216783"><ele>726.6666666666667</ele><time>2026-05-02T10:47:28.981Z</time></trkpt><trkpt lat="42.938895" lon="13.1215167"><ele>724.0</ele><time>2026-05-02T10:47:29.982Z</time></trkpt><trkpt lat="42.938775" lon="13.121355"><ele>724.0</ele><time>2026-05-02T10:47:30.982Z</time></trkpt><trkpt lat="42.9386583" lon="13.1211983"><ele>724.0</ele><time>2026-05-02T10:47:31.981Z</time></trkpt><trkpt lat="42.93854" lon="13.1210433"><ele>724.0</ele><time>2026-05-02T10:47:32.983Z</time></trkpt><trkpt lat="42.9384167" lon="13.1208933"><ele>719.3333333333334</ele><time>2026-05-02T10:47:33.981Z</time></trkpt><trkpt lat="42.938295" lon="13.1207417"><ele>714.6666666666666</ele><time>2026-05-02T10:47:34.982Z</time></trkpt><trkpt lat="42.9381667" lon="13.120595"><ele>710.0</ele><time>2026-05-02T10:47:35.982Z</time></trkpt><trkpt lat="42.9380383" lon="13.1204517"><ele>710.0</ele><time>2026-05-02T10:47:36.982Z</time></trkpt><trkpt lat="42.9379083" lon="13.1203083"><ele>710.0</ele><time>2026-05-02T10:47:37.981Z</time></trkpt><trkpt lat="42.9377767" lon="13.120165"><ele>710.0</ele><time>2026-05-02T10:47:38.982Z</time></trkpt><trkpt lat="42.9376433" lon="13.12002"><ele>709.0</ele><time>2026-05-02T10:47:39.982Z</time></trkpt><trkpt lat="42.937505" lon="13.1198833"><ele>708.0</ele><time>2026-05-02T10:47:40.981Z</time></trkpt><trkpt lat="42.9373683" lon="13.1197583"><ele>707.0</ele><time>2026-05-02T10:47:41.982Z</time></trkpt><trkpt lat="42.9372333" lon="13.1196517"><ele>707.0</ele><time>2026-05-02T10:47:42.982Z</time></trkpt><trkpt lat="42.9371" lon="13.119555"><ele>707.0</ele><time>2026-05-02T10:47:43.982Z</time></trkpt><trkpt lat="42.9369683" lon="13.1194517"><ele>707.0</ele><time>2026-05-02T10:47:44.986Z</time></trkpt><trkpt lat="42.93684" lon="13.1193317"><ele>707.0</ele><time>2026-05-02T10:47:45.983Z</time></trkpt><trkpt lat="42.93672" lon="13.11919"><ele>707.0</ele><time>2026-05-02T10:47:46.981Z</time></trkpt><trkpt lat="42.936605" lon="13.1190333"><ele>707.0</ele><time>2026-05-02T10:47:47.982Z</time></trkpt><trkpt lat="42.9365033" lon="13.118855"><ele>706.0</ele><time>2026-05-02T10:47:48.982Z</time></trkpt><trkpt lat="42.9364117" lon="13.1186633"><ele>705.0</ele><time>2026-05-02T10:47:49.982Z</time></trkpt><trkpt lat="42.936325" lon="13.118465"><ele>704.0</ele><time>2026-05-02T10:47:50.982Z</time></trkpt><trkpt lat="42.9362417" lon="13.1182667"><ele>714.6666666666666</ele><time>2026-05-02T10:47:51.982Z</time></trkpt><trkpt lat="42.9361667" lon="13.1180683"><ele>725.3333333333334</ele><time>2026-05-02T10:47:52.982Z</time></trkpt><trkpt lat="42.9360933" lon="13.11787"><ele>736.0</ele><time>2026-05-02T10:47:53.982Z</time></trkpt><trkpt lat="42.9360167" lon="13.1176717"><ele>736.0</ele><time>2026-05-02T10:47:54.983Z</time></trkpt><trkpt lat="42.9359283" lon="13.117485"><ele>736.0</ele><time>2026-05-02T10:47:55.983Z</time></trkpt><trkpt lat="42.9358233" lon="13.1173133"><ele>736.0</ele><time>2026-05-02T10:47:56.983Z</time></trkpt><trkpt lat="42.935715" lon="13.11715"><ele>729.3333333333334</ele><time>2026-05-02T10:47:57.982Z</time></trkpt><trkpt lat="42.9356117" lon="13.116975"><ele>722.6666666666666</ele><time>2026-05-02T10:47:58.983Z</time></trkpt><trkpt lat="42.93553" lon="13.1167717"><ele>716.0</ele><time>2026-05-02T10:47:59.982Z</time></trkpt><trkpt lat="42.9354767" lon="13.11652"><ele>716.0</ele><time>2026-05-02T10:48:00.982Z</time></trkpt><trkpt lat="42.9354383" lon="13.1162617"><ele>716.0</ele><time>2026-05-02T10:48:01.982Z</time></trkpt><trkpt lat="42.9353833" lon="13.116025"><ele>716.0</ele><time>2026-05-02T10:48:02.983Z</time></trkpt><trkpt lat="42.9352933" lon="13.1158133"><ele>718.6666666666666</ele><time>2026-05-02T10:48:03.983Z</time></trkpt><trkpt lat="42.935195" lon="13.1156133"><ele>721.3333333333334</ele><time>2026-05-02T10:48:04.982Z</time></trkpt><trkpt lat="42.935105" lon="13.1153983"><ele>724.0</ele><time>2026-05-02T10:48:05.982Z</time></trkpt><trkpt lat="42.9350367" lon="13.1151567"><ele>708.3333333333334</ele><time>2026-05-02T10:48:06.982Z</time></trkpt><trkpt lat="42.9349917" lon="13.11489"><ele>692.6666666666666</ele><time>2026-05-02T10:48:07.982Z</time></trkpt><trkpt lat="42.9349617" lon="13.1146217"><ele>677.0</ele><time>2026-05-02T10:48:08.982Z</time></trkpt><trkpt lat="42.9349417" lon="13.114355"><ele>677.0</ele><time>2026-05-02T10:48:09.982Z</time></trkpt><trkpt lat="42.9349383" lon="13.1140867"><ele>677.0</ele><time>2026-05-02T10:48:10.983Z</time></trkpt><trkpt lat="42.9349567" lon="13.1138133"><ele>677.0</ele><time>2026-05-02T10:48:11.981Z</time></trkpt><trkpt lat="42.93498" lon="13.113535"><ele>675.6666666666666</ele><time>2026-05-02T10:48:12.982Z</time></trkpt><trkpt lat="42.934985" lon="13.11325"><ele>674.3333333333334</ele><time>2026-05-02T10:48:13.982Z</time></trkpt><trkpt lat="42.93496" lon="13.1129667"><ele>673.0</ele><time>2026-05-02T10:48:14.982Z</time></trkpt><trkpt lat="42.9349033" lon="13.11269"><ele>672.6666666666667</ele><time>2026-05-02T10:48:15.982Z</time></trkpt><trkpt lat="42.934835" lon="13.1124333"><ele>672.3333333333334</ele><time>2026-05-02T10:48:16.982Z</time></trkpt><trkpt lat="42.9347633" lon="13.1121967"><ele>672.0</ele><time>2026-05-02T10:48:17.982Z</time></trkpt><trkpt lat="42.934695" lon="13.11196"><ele>672.0</ele><time>2026-05-02T10:48:18.982Z</time></trkpt><trkpt lat="42.93467" lon="13.111695"><ele>672.0</ele><time>2026-05-02T10:48:19.982Z</time></trkpt><trkpt lat="42.9346767" lon="13.1114183"><ele>672.0</ele><time>2026-05-02T10:48:20.982Z</time></trkpt><trkpt lat="42.9347083" lon="13.1111433"><ele>671.6666666666666</ele><time>2026-05-02T10:48:21.982Z</time></trkpt><trkpt lat="42.9347483" lon="13.1108783"><ele>671.3333333333333</ele><time>2026-05-02T10:48:22.983Z</time></trkpt><trkpt lat="42.93479" lon="13.11062"><ele>671.0</ele><time>2026-05-02T10:48:23.982Z</time></trkpt><trkpt lat="42.9348317" lon="13.1103617"><ele>671.0</ele><time>2026-05-02T10:48:24.983Z</time></trkpt><trkpt lat="42.9348683" lon="13.1101033"><ele>671.0</ele><time>2026-05-02T10:48:25.983Z</time></trkpt><trkpt lat="42.9348967" lon="13.1098433"><ele>671.0</ele><time>2026-05-02T10:48:26.983Z</time></trkpt><trkpt lat="42.9349183" lon="13.109585"><ele>670.0</ele><time>2026-05-02T10:48:27.981Z</time></trkpt><trkpt lat="42.9349317" lon="13.109335"><ele>669.0</ele><time>2026-05-02T10:48:28.982Z</time></trkpt><trkpt lat="42.934935" lon="13.10909"><ele>668.0</ele><time>2026-05-02T10:48:29.983Z</time></trkpt><trkpt lat="42.934915" lon="13.10885"><ele>668.0</ele><time>2026-05-02T10:48:30.982Z</time></trkpt><trkpt lat="42.9348833" lon="13.1086267"><ele>668.0</ele><time>2026-05-02T10:48:31.982Z</time></trkpt><trkpt lat="42.9348433" lon="13.1084167"><ele>668.0</ele><time>2026-05-02T10:48:32.983Z</time></trkpt><trkpt lat="42.9348067" lon="13.1082233"><ele>669.25</ele><time>2026-05-02T10:48:33.982Z</time></trkpt><trkpt lat="42.93478" lon="13.1080383"><ele>670.5</ele><time>2026-05-02T10:48:34.984Z</time></trkpt><trkpt lat="42.93477" lon="13.1078583"><ele>671.75</ele><time>2026-05-02T10:48:35.983Z</time></trkpt><trkpt lat="42.9347683" lon="13.107665"><ele>673.0</ele><time>2026-05-02T10:48:36.983Z</time></trkpt><trkpt lat="42.93476" lon="13.1074717"><ele>671.5</ele><time>2026-05-02T10:48:37.982Z</time></trkpt><trkpt lat="42.9347483" lon="13.1072783"><ele>670.0</ele><time>2026-05-02T10:48:38.982Z</time></trkpt><trkpt lat="42.9347317" lon="13.107075"><ele>668.5</ele><time>2026-05-02T10:48:39.982Z</time></trkpt><trkpt lat="42.9347167" lon="13.10687"><ele>667.0</ele><time>2026-05-02T10:48:40.983Z</time></trkpt><trkpt lat="42.93471" lon="13.1066667"><ele>665.3333333333334</ele><time>2026-05-02T10:48:41.982Z</time></trkpt><trkpt lat="42.93471" lon="13.10646"><ele>663.6666666666666</ele><time>2026-05-02T10:48:42.982Z</time></trkpt><trkpt lat="42.9347167" lon="13.1062517"><ele>662.0</ele><time>2026-05-02T10:48:43.982Z</time></trkpt><trkpt lat="42.9347417" lon="13.1060433"><ele>662.0</ele><time>2026-05-02T10:48:44.983Z</time></trkpt><trkpt lat="42.93478" lon="13.105835"><ele>662.0</ele><time>2026-05-02T10:48:45.982Z</time></trkpt><trkpt lat="42.9348283" lon="13.1056267"><ele>662.0</ele><time>2026-05-02T10:48:46.982Z</time></trkpt><trkpt lat="42.9348783" lon="13.105415"><ele>660.0</ele><time>2026-05-02T10:48:47.982Z</time></trkpt><trkpt lat="42.9349267" lon="13.1052067"><ele>658.0</ele><time>2026-05-02T10:48:48.983Z</time></trkpt><trkpt lat="42.9349733" lon="13.1049933"><ele>656.0</ele><time>2026-05-02T10:48:49.982Z</time></trkpt><trkpt lat="42.9350167" lon="13.1047783"><ele>653.6666666666666</ele><time>2026-05-02T10:48:50.982Z</time></trkpt><trkpt lat="42.93505" lon="13.1045617"><ele>651.3333333333334</ele><time>2026-05-02T10:48:51.982Z</time></trkpt><trkpt lat="42.93508" lon="13.104345"><ele>649.0</ele><time>2026-05-02T10:48:52.982Z</time></trkpt><trkpt lat="42.9351017" lon="13.1041317"><ele>662.0</ele><time>2026-05-02T10:48:53.982Z</time></trkpt><trkpt lat="42.935115" lon="13.1039183"><ele>675.0</ele><time>2026-05-02T10:48:54.983Z</time></trkpt><trkpt lat="42.935125" lon="13.1037017"><ele>688.0</ele><time>2026-05-02T10:48:55.983Z</time></trkpt><trkpt lat="42.93513" lon="13.1034833"><ele>688.0</ele><time>2026-05-02T10:48:56.982Z</time></trkpt><trkpt lat="42.9351283" lon="13.103265"><ele>688.0</ele><time>2026-05-02T10:48:57.983Z</time></trkpt><trkpt lat="42.93512" lon="13.1030433"><ele>688.0</ele><time>2026-05-02T10:48:58.983Z</time></trkpt><trkpt lat="42.9351017" lon="13.102825"><ele>686.6666666666667</ele><time>2026-05-02T10:48:59.983Z</time></trkpt><trkpt lat="42.9350783" lon="13.1026117"><ele>685.3333333333334</ele><time>2026-05-02T10:49:00.982Z</time></trkpt><trkpt lat="42.9350567" lon="13.1024"><ele>684.0</ele><time>2026-05-02T10:49:01.982Z</time></trkpt><trkpt lat="42.9350333" lon="13.102195"><ele>671.3333333333334</ele><time>2026-05-02T10:49:02.982Z</time></trkpt><trkpt lat="42.9350117" lon="13.1019883"><ele>658.6666666666667</ele><time>2026-05-02T10:49:03.983Z</time></trkpt><trkpt lat="42.93499" lon="13.1017833"><ele>646.0</ele><time>2026-05-02T10:49:04.982Z</time></trkpt><trkpt lat="42.93497" lon="13.1015833"><ele>644.75</ele><time>2026-05-02T10:49:05.982Z</time></trkpt><trkpt lat="42.9349517" lon="13.10138"><ele>643.5</ele><time>2026-05-02T10:49:06.982Z</time></trkpt><trkpt lat="42.9349383" lon="13.10118"><ele>642.25</ele><time>2026-05-02T10:49:07.983Z</time></trkpt><trkpt lat="42.9349283" lon="13.1009783"><ele>641.0</ele><time>2026-05-02T10:49:08.983Z</time></trkpt><trkpt lat="42.934935" lon="13.1007767"><ele>640.75</ele><time>2026-05-02T10:49:09.983Z</time></trkpt><trkpt lat="42.9349567" lon="13.1005767"><ele>640.5</ele><time>2026-05-02T10:49:10.982Z</time></trkpt><trkpt lat="42.9349817" lon="13.1003783"><ele>640.25</ele><time>2026-05-02T10:49:11.982Z</time></trkpt><trkpt lat="42.93501" lon="13.100175"><ele>640.0</ele><time>2026-05-02T10:49:12.983Z</time></trkpt><trkpt lat="42.935035" lon="13.0999717"><ele>641.3333333333334</ele><time>2026-05-02T10:49:13.983Z</time></trkpt><trkpt lat="42.9350533" lon="13.099765"><ele>642.6666666666666</ele><time>2026-05-02T10:49:14.982Z</time></trkpt><trkpt lat="42.93506" lon="13.0995533"><ele>644.0</ele><time>2026-05-02T10:49:15.982Z</time></trkpt><trkpt lat="42.93505" lon="13.09934"><ele>644.0</ele><time>2026-05-02T10:49:16.983Z</time></trkpt><trkpt lat="42.9350233" lon="13.0991317"><ele>644.0</ele><time>2026-05-02T10:49:17.981Z</time></trkpt><trkpt lat="42.934985" lon="13.0989217"><ele>644.0</ele><time>2026-05-02T10:49:18.981Z</time></trkpt><trkpt lat="42.9349467" lon="13.09872"><ele>644.6666666666666</ele><time>2026-05-02T10:49:19.982Z</time></trkpt><trkpt lat="42.9349083" lon="13.098515"><ele>645.3333333333334</ele><time>2026-05-02T10:49:20.981Z</time></trkpt><trkpt lat="42.9348633" lon="13.0983117"><ele>646.0</ele><time>2026-05-02T10:49:21.981Z</time></trkpt><trkpt lat="42.9348" lon="13.0981183"><ele>651.6666666666667</ele><time>2026-05-02T10:49:22.981Z</time></trkpt><trkpt lat="42.93472" lon="13.09794"><ele>657.3333333333334</ele><time>2026-05-02T10:49:23.982Z</time></trkpt><trkpt lat="42.93463" lon="13.0977733"><ele>663.0</ele><time>2026-05-02T10:49:24.983Z</time></trkpt><trkpt lat="42.9345417" lon="13.0976083"><ele>663.0</ele><time>2026-05-02T10:49:25.982Z</time></trkpt><trkpt lat="42.9344633" lon="13.0974383"><ele>663.0</ele><time>2026-05-02T10:49:26.981Z</time></trkpt><trkpt lat="42.9343967" lon="13.0972567"><ele>663.0</ele><time>2026-05-02T10:49:27.981Z</time></trkpt><trkpt lat="42.93434" lon="13.0970667"><ele>663.0</ele><time>2026-05-02T10:49:28.985Z</time></trkpt><trkpt lat="42.9342833" lon="13.0968733"><ele>660.0</ele><time>2026-05-02T10:49:29.981Z</time></trkpt><trkpt lat="42.9342217" lon="13.0966817"><ele>657.0</ele><time>2026-05-02T10:49:30.982Z</time></trkpt><trkpt lat="42.934155" lon="13.096495"><ele>654.0</ele><time>2026-05-02T10:49:31.981Z</time></trkpt><trkpt lat="42.9340817" lon="13.09631"><ele>654.0</ele><time>2026-05-02T10:49:32.981Z</time></trkpt><trkpt lat="42.9340033" lon="13.0961333"><ele>654.0</ele><time>2026-05-02T10:49:33.982Z</time></trkpt><trkpt lat="42.933925" lon="13.09596"><ele>654.0</ele><time>2026-05-02T10:49:34.982Z</time></trkpt><trkpt lat="42.9338467" lon="13.0957867"><ele>654.0</ele><time>2026-05-02T10:49:35.981Z</time></trkpt><trkpt lat="42.933775" lon="13.09561"><ele>659.0</ele><time>2026-05-02T10:49:36.981Z</time></trkpt><trkpt lat="42.9337083" lon="13.0954267"><ele>664.0</ele><time>2026-05-02T10:49:37.981Z</time></trkpt><trkpt lat="42.9336433" lon="13.095235"><ele>669.0</ele><time>2026-05-02T10:49:38.982Z</time></trkpt><trkpt lat="42.9335783" lon="13.0950433"><ele>671.6666666666666</ele><time>2026-05-02T10:49:39.981Z</time></trkpt><trkpt lat="42.9335183" lon="13.0948467"><ele>674.3333333333333</ele><time>2026-05-02T10:49:40.982Z</time></trkpt><trkpt lat="42.9334567" lon="13.0946533"><ele>677.0</ele><time>2026-05-02T10:49:41.982Z</time></trkpt><trkpt lat="42.9333967" lon="13.0944683"><ele>673.5</ele><time>2026-05-02T10:49:42.982Z</time></trkpt><trkpt lat="42.9333333" lon="13.094295"><ele>670.0</ele><time>2026-05-02T10:49:43.981Z</time></trkpt><trkpt lat="42.9332567" lon="13.0941267"><ele>666.5</ele><time>2026-05-02T10:49:44.981Z</time></trkpt><trkpt lat="42.9331683" lon="13.09396"><ele>663.0</ele><time>2026-05-02T10:49:45.981Z</time></trkpt><trkpt lat="42.9330733" lon="13.0937917"><ele>663.0</ele><time>2026-05-02T10:49:46.981Z</time></trkpt><trkpt lat="42.932975" lon="13.0936217"><ele>663.0</ele><time>2026-05-02T10:49:47.982Z</time></trkpt><trkpt lat="42.93288" lon="13.09345"><ele>663.0</ele><time>2026-05-02T10:49:48.982Z</time></trkpt><trkpt lat="42.9327867" lon="13.09328"><ele>667.5</ele><time>2026-05-02T10:49:49.981Z</time></trkpt><trkpt lat="42.9326967" lon="13.0931167"><ele>672.0</ele><time>2026-05-02T10:49:50.981Z</time></trkpt><trkpt lat="42.9326117" lon="13.0929583"><ele>676.5</ele><time>2026-05-02T10:49:51.981Z</time></trkpt><trkpt lat="42.932525" lon="13.0928033"><ele>681.0</ele><time>2026-05-02T10:49:52.982Z</time></trkpt><trkpt lat="42.9324367" lon="13.0926533"><ele>671.75</ele><time>2026-05-02T10:49:53.982Z</time></trkpt><trkpt lat="42.932345" lon="13.0924983"><ele>662.5</ele><time>2026-05-02T10:49:54.982Z</time></trkpt><trkpt lat="42.9322517" lon="13.0923433"><ele>653.25</ele><time>2026-05-02T10:49:55.982Z</time></trkpt><trkpt lat="42.9321617" lon="13.0921867"><ele>644.0</ele><time>2026-05-02T10:49:56.981Z</time></trkpt><trkpt lat="42.932065" lon="13.0920383"><ele>644.0</ele><time>2026-05-02T10:49:57.981Z</time></trkpt><trkpt lat="42.9319633" lon="13.0919"><ele>644.0</ele><time>2026-05-02T10:49:58.982Z</time></trkpt><trkpt lat="42.9318517" lon="13.09178"><ele>644.0</ele><time>2026-05-02T10:49:59.984Z</time></trkpt><trkpt lat="42.931735" lon="13.0916767"><ele>644.0</ele><time>2026-05-02T10:50:00.981Z</time></trkpt><trkpt lat="42.931615" lon="13.0915933"><ele>641.25</ele><time>2026-05-02T10:50:01.982Z</time></trkpt><trkpt lat="42.9314967" lon="13.091515"><ele>638.5</ele><time>2026-05-02T10:50:02.982Z</time></trkpt><trkpt lat="42.931385" lon="13.09142"><ele>635.75</ele><time>2026-05-02T10:50:03.982Z</time></trkpt><trkpt lat="42.9312833" lon="13.0913067"><ele>633.0</ele><time>2026-05-02T10:50:04.983Z</time></trkpt><trkpt lat="42.931185" lon="13.09118"><ele>633.0</ele><time>2026-05-02T10:50:05.982Z</time></trkpt><trkpt lat="42.93109" lon="13.0910383"><ele>633.0</ele><time>2026-05-02T10:50:06.982Z</time></trkpt><trkpt lat="42.931" lon="13.0908933"><ele>633.0</ele><time>2026-05-02T10:50:07.981Z</time></trkpt><trkpt lat="42.9309333" lon="13.0907333"><ele>633.0</ele><time>2026-05-02T10:50:08.982Z</time></trkpt><trkpt lat="42.93088" lon="13.0905817"><ele>631.25</ele><time>2026-05-02T10:50:09.982Z</time></trkpt><trkpt lat="42.9308117" lon="13.0904483"><ele>629.5</ele><time>2026-05-02T10:50:10.981Z</time></trkpt><trkpt lat="42.930725" lon="13.0903433"><ele>627.75</ele><time>2026-05-02T10:50:11.981Z</time></trkpt><trkpt lat="42.9306383" lon="13.0902567"><ele>626.0</ele><time>2026-05-02T10:50:12.984Z</time></trkpt><trkpt lat="42.9305483" lon="13.09017"><ele>626.0</ele><time>2026-05-02T10:50:13.981Z</time></trkpt><trkpt lat="42.93046" lon="13.090085"><ele>626.0</ele><time>2026-05-02T10:50:14.982Z</time></trkpt><trkpt lat="42.9303717" lon="13.0900017"><ele>626.0</ele><time>2026-05-02T10:50:15.981Z</time></trkpt><trkpt lat="42.930285" lon="13.0899167"><ele>626.0</ele><time>2026-05-02T10:50:16.981Z</time></trkpt><trkpt lat="42.9301967" lon="13.0898333"><ele>626.0</ele><time>2026-05-02T10:50:17.981Z</time></trkpt><trkpt lat="42.9300233" lon="13.0896883"><ele>632.0</ele><time>2026-05-02T10:50:19.981Z</time></trkpt><trkpt lat="42.9296817" lon="13.09049"><ele>632.0</ele><time>2026-05-02T10:50:20.982Z</time></trkpt><trkpt lat="42.929515" lon="13.0907017"><ele>632.0</ele><time>2026-05-02T10:50:21.981Z</time></trkpt><trkpt lat="42.92942" lon="13.0909217"><ele>632.0</ele><time>2026-05-02T10:50:22.982Z</time></trkpt><trkpt lat="42.929295" lon="13.0911617"><ele>631.0</ele><time>2026-05-02T10:50:23.981Z</time></trkpt><trkpt lat="42.9291633" lon="13.0914067"><ele>630.0</ele><time>2026-05-02T10:50:24.982Z</time></trkpt><trkpt lat="42.929045" lon="13.0916467"><ele>629.0</ele><time>2026-05-02T10:50:25.982Z</time></trkpt><trkpt lat="42.9289367" lon="13.091865"><ele>629.0</ele><time>2026-05-02T10:50:26.982Z</time></trkpt><trkpt lat="42.9288283" lon="13.0920517"><ele>629.0</ele><time>2026-05-02T10:50:27.982Z</time></trkpt><trkpt lat="42.9287267" lon="13.0922167"><ele>629.0</ele><time>2026-05-02T10:50:28.981Z</time></trkpt><trkpt lat="42.9286217" lon="13.0923633"><ele>628.5</ele><time>2026-05-02T10:50:29.982Z</time></trkpt><trkpt lat="42.9285167" lon="13.0924983"><ele>628.0</ele><time>2026-05-02T10:50:30.982Z</time></trkpt><trkpt lat="42.928415" lon="13.0926133"><ele>627.5</ele><time>2026-05-02T10:50:31.982Z</time></trkpt><trkpt lat="42.928315" lon="13.0927117"><ele>627.0</ele><time>2026-05-02T10:50:32.982Z</time></trkpt><trkpt lat="42.9282117" lon="13.09279"><ele>627.0</ele><time>2026-05-02T10:50:33.982Z</time></trkpt><trkpt lat="42.9281017" lon="13.0928433"><ele>627.0</ele><time>2026-05-02T10:50:34.983Z</time></trkpt><trkpt lat="42.9279883" lon="13.0928833"><ele>627.0</ele><time>2026-05-02T10:50:35.983Z</time></trkpt><trkpt lat="42.9278717" lon="13.0929167"><ele>627.0</ele><time>2026-05-02T10:50:36.984Z</time></trkpt><trkpt lat="42.9277583" lon="13.0929433"><ele>627.0</ele><time>2026-05-02T10:50:37.984Z</time></trkpt><trkpt lat="42.92766" lon="13.09297"><ele>627.0</ele><time>2026-05-02T10:50:38.983Z</time></trkpt><trkpt lat="42.9275667" lon="13.092985"><ele>627.0</ele><time>2026-05-02T10:50:39.983Z</time></trkpt><trkpt lat="42.9274867" lon="13.092985"><ele>627.0</ele><time>2026-05-02T10:50:40.983Z</time></trkpt><trkpt lat="42.9274217" lon="13.092955"><ele>627.0</ele><time>2026-05-02T10:50:41.982Z</time></trkpt><trkpt lat="42.9273617" lon="13.0928317"><ele>627.5</ele><time>2026-05-02T10:50:43.983Z</time></trkpt><trkpt lat="42.9273667" lon="13.09265"><ele>628.0</ele><time>2026-05-02T10:50:45.982Z</time></trkpt><trkpt lat="42.92739" lon="13.092525"><ele>628.5</ele><time>2026-05-02T10:50:46.983Z</time></trkpt><trkpt lat="42.9274467" lon="13.09238"><ele>629.0</ele><time>2026-05-02T10:50:47.984Z</time></trkpt><trkpt lat="42.9275217" lon="13.0922317"><ele>625.6666666666666</ele><time>2026-05-02T10:50:48.984Z</time></trkpt><trkpt lat="42.92761" lon="13.0920867"><ele>622.3333333333334</ele><time>2026-05-02T10:50:49.984Z</time></trkpt><trkpt lat="42.92773" lon="13.091945"><ele>619.0</ele><time>2026-05-02T10:50:50.984Z</time></trkpt><trkpt lat="42.9278567" lon="13.0918233"><ele>619.0</ele><time>2026-05-02T10:50:51.983Z</time></trkpt><trkpt lat="42.927985" lon="13.09171"><ele>619.0</ele><time>2026-05-02T10:50:52.983Z</time></trkpt><trkpt lat="42.9281133" lon="13.09161"><ele>619.0</ele><time>2026-05-02T10:50:53.984Z</time></trkpt><trkpt lat="42.92823" lon="13.0914933"><ele>619.0</ele><time>2026-05-02T10:50:54.983Z</time></trkpt><trkpt lat="42.9283083" lon="13.0913433"><ele>619.0</ele><time>2026-05-02T10:50:55.983Z</time></trkpt><trkpt lat="42.9283633" lon="13.09115"><ele>619.0</ele><time>2026-05-02T10:50:56.983Z</time></trkpt><trkpt lat="42.9284433" lon="13.090945"><ele>619.0</ele><time>2026-05-02T10:50:57.983Z</time></trkpt><trkpt lat="42.9285383" lon="13.09076"><ele>618.3333333333334</ele><time>2026-05-02T10:50:58.984Z</time></trkpt><trkpt lat="42.9286483" lon="13.0906067"><ele>617.6666666666666</ele><time>2026-05-02T10:50:59.983Z</time></trkpt><trkpt lat="42.9287617" lon="13.0904483"><ele>617.0</ele><time>2026-05-02T10:51:00.984Z</time></trkpt><trkpt lat="42.928855" lon="13.090275"><ele>617.0</ele><time>2026-05-02T10:51:01.983Z</time></trkpt><trkpt lat="42.9289233" lon="13.0900767"><ele>617.0</ele><time>2026-05-02T10:51:02.983Z</time></trkpt><trkpt lat="42.9289717" lon="13.0898717"><ele>617.0</ele><time>2026-05-02T10:51:03.982Z</time></trkpt><trkpt lat="42.9290183" lon="13.08968"><ele>618.75</ele><time>2026-05-02T10:51:04.983Z</time></trkpt><trkpt lat="42.9290583" lon="13.0895033"><ele>620.5</ele><time>2026-05-02T10:51:05.984Z</time></trkpt><trkpt lat="42.9290983" lon="13.089335"><ele>622.25</ele><time>2026-05-02T10:51:06.984Z</time></trkpt><trkpt lat="42.9291383" lon="13.0891767"><ele>624.0</ele><time>2026-05-02T10:51:07.983Z</time></trkpt><trkpt lat="42.929185" lon="13.0890283"><ele>621.5</ele><time>2026-05-02T10:51:08.983Z</time></trkpt><trkpt lat="42.9292283" lon="13.08888"><ele>619.0</ele><time>2026-05-02T10:51:09.983Z</time></trkpt><trkpt lat="42.9292633" lon="13.0887283"><ele>616.5</ele><time>2026-05-02T10:51:10.983Z</time></trkpt><trkpt lat="42.9292917" lon="13.0885783"><ele>614.0</ele><time>2026-05-02T10:51:11.983Z</time></trkpt><trkpt lat="42.9293067" lon="13.0884233"><ele>614.0</ele><time>2026-05-02T10:51:12.983Z</time></trkpt><trkpt lat="42.92932" lon="13.0882617"><ele>614.0</ele><time>2026-05-02T10:51:13.982Z</time></trkpt><trkpt lat="42.92934" lon="13.0881"><ele>614.0</ele><time>2026-05-02T10:51:14.982Z</time></trkpt><trkpt lat="42.9293583" lon="13.0879333"><ele>614.0</ele><time>2026-05-02T10:51:15.982Z</time></trkpt><trkpt lat="42.929385" lon="13.0877733"><ele>614.0</ele><time>2026-05-02T10:51:16.981Z</time></trkpt><trkpt lat="42.9294183" lon="13.08762"><ele>614.0</ele><time>2026-05-02T10:51:17.983Z</time></trkpt><trkpt lat="42.929445" lon="13.0874683"><ele>614.0</ele><time>2026-05-02T10:51:18.981Z</time></trkpt><trkpt lat="42.929485" lon="13.0873183"><ele>614.0</ele><time>2026-05-02T10:51:19.983Z</time></trkpt><trkpt lat="42.92953" lon="13.08717"><ele>614.2</ele><time>2026-05-02T10:51:20.983Z</time></trkpt><trkpt lat="42.9295817" lon="13.08703"><ele>614.4</ele><time>2026-05-02T10:51:21.983Z</time></trkpt><trkpt lat="42.929645" lon="13.0869083"><ele>614.6</ele><time>2026-05-02T10:51:22.983Z</time></trkpt><trkpt lat="42.92972" lon="13.0868017"><ele>614.8</ele><time>2026-05-02T10:51:23.982Z</time></trkpt><trkpt lat="42.9298067" lon="13.08671"><ele>615.0</ele><time>2026-05-02T10:51:24.982Z</time></trkpt><trkpt lat="42.929905" lon="13.086625"><ele>614.75</ele><time>2026-05-02T10:51:25.981Z</time></trkpt><trkpt lat="42.9300133" lon="13.0865367"><ele>614.5</ele><time>2026-05-02T10:51:26.983Z</time></trkpt><trkpt lat="42.9301317" lon="13.08644"><ele>614.25</ele><time>2026-05-02T10:51:27.982Z</time></trkpt><trkpt lat="42.9302483" lon="13.0863417"><ele>614.0</ele><time>2026-05-02T10:51:28.982Z</time></trkpt><trkpt lat="42.9303583" lon="13.0862467"><ele>614.0</ele><time>2026-05-02T10:51:29.981Z</time></trkpt><trkpt lat="42.9304617" lon="13.0861567"><ele>614.0</ele><time>2026-05-02T10:51:30.982Z</time></trkpt><trkpt lat="42.9305533" lon="13.0860667"><ele>614.0</ele><time>2026-05-02T10:51:31.982Z</time></trkpt><trkpt lat="42.930645" lon="13.085985"><ele>614.0</ele><time>2026-05-02T10:51:32.982Z</time></trkpt><trkpt lat="42.9307333" lon="13.08591"><ele>614.0</ele><time>2026-05-02T10:51:33.982Z</time></trkpt><trkpt lat="42.9308167" lon="13.085845"><ele>613.3333333333333</ele><time>2026-05-02T10:51:34.981Z</time></trkpt><trkpt lat="42.9308983" lon="13.0858"><ele>612.6666666666666</ele><time>2026-05-02T10:51:35.982Z</time></trkpt><trkpt lat="42.9309767" lon="13.0857833"><ele>612.0</ele><time>2026-05-02T10:51:36.981Z</time></trkpt><trkpt lat="42.9310433" lon="13.0857833"><ele>611.3333333333334</ele><time>2026-05-02T10:51:37.985Z</time></trkpt><trkpt lat="42.9311383" lon="13.08582"><ele>610.6666666666667</ele><time>2026-05-02T10:51:39.981Z</time></trkpt><trkpt lat="42.931175" lon="13.0859367"><ele>610.0</ele><time>2026-05-02T10:51:42.981Z</time></trkpt><trkpt lat="42.9311483" lon="13.0860733"><ele>610.0</ele><time>2026-05-02T10:51:44.982Z</time></trkpt><trkpt lat="42.9311183" lon="13.08622"><ele>610.0</ele><time>2026-05-02T10:51:46.982Z</time></trkpt><trkpt lat="42.9311033" lon="13.0863683"><ele>610.0</ele><time>2026-05-02T10:51:48.982Z</time></trkpt><trkpt lat="42.9311417" lon="13.086475"><ele>610.0</ele><time>2026-05-02T10:51:50.982Z</time></trkpt><trkpt lat="42.9312383" lon="13.0864767"><ele>610.0</ele><time>2026-05-02T10:51:52.982Z</time></trkpt><trkpt lat="42.9313" lon="13.0864083"><ele>610.0</ele><time>2026-05-02T10:51:53.982Z</time></trkpt><trkpt lat="42.9313517" lon="13.0863267"><ele>610.0</ele><time>2026-05-02T10:51:54.982Z</time></trkpt><trkpt lat="42.931395" lon="13.0862517"><ele>610.0</ele><time>2026-05-02T10:51:55.982Z</time></trkpt><trkpt lat="42.931435" lon="13.0861817"><ele>610.0</ele><time>2026-05-02T10:51:56.982Z</time></trkpt><trkpt lat="42.9314817" lon="13.0860967"><ele>610.0</ele><time>2026-05-02T10:51:57.983Z</time></trkpt><trkpt lat="42.9315333" lon="13.0860067"><ele>610.0</ele><time>2026-05-02T10:51:58.982Z</time></trkpt><trkpt lat="42.9315867" lon="13.0859083"><ele>610.0</ele><time>2026-05-02T10:51:59.986Z</time></trkpt><trkpt lat="42.9316367" lon="13.0858133"><ele>610.0</ele><time>2026-05-02T10:52:00.982Z</time></trkpt><trkpt lat="42.9316867" lon="13.0857167"><ele>610.0</ele><time>2026-05-02T10:52:01.982Z</time></trkpt><trkpt lat="42.931735" lon="13.0856267"><ele>610.0</ele><time>2026-05-02T10:52:02.982Z</time></trkpt><trkpt lat="42.9317817" lon="13.08554"><ele>610.0</ele><time>2026-05-02T10:52:03.983Z</time></trkpt><trkpt lat="42.9318317" lon="13.085455"><ele>610.0</ele><time>2026-05-02T10:52:04.983Z</time></trkpt><trkpt lat="42.93188" lon="13.0853683"><ele>609.8333333333334</ele><time>2026-05-02T10:52:05.983Z</time></trkpt><trkpt lat="42.931925" lon="13.0852883"><ele>609.6666666666667</ele><time>2026-05-02T10:52:06.983Z</time></trkpt><trkpt lat="42.9319667" lon="13.0852167"><ele>609.5</ele><time>2026-05-02T10:52:07.981Z</time></trkpt><trkpt lat="42.932035" lon="13.0851033"><ele>609.3333333333334</ele><time>2026-05-02T10:52:09.983Z</time></trkpt><trkpt lat="42.9320583" lon="13.0850183"><ele>609.1666666666666</ele><time>2026-05-02T10:52:11.986Z</time></trkpt><trkpt lat="42.932095" lon="13.0849383"><ele>609.0</ele><time>2026-05-02T10:55:21.982Z</time></trkpt><trkpt lat="42.932165" lon="13.0848683"><ele>608.8</ele><time>2026-05-02T10:55:24.983Z</time></trkpt><trkpt lat="42.93222" lon="13.0847833"><ele>608.5999999999999</ele><time>2026-05-02T10:55:27.983Z</time></trkpt><trkpt lat="42.93222" lon="13.08467"><ele>608.4</ele><time>2026-05-02T10:55:30.983Z</time></trkpt><trkpt lat="42.932145" lon="13.0845833"><ele>608.1999999999999</ele><time>2026-05-02T10:55:32.984Z</time></trkpt><trkpt lat="42.9320383" lon="13.0844833"><ele>608.0</ele><time>2026-05-02T10:55:34.983Z</time></trkpt><trkpt lat="42.9319783" lon="13.084425"><ele>608.0</ele><time>2026-05-02T10:55:35.983Z</time></trkpt><trkpt lat="42.9319167" lon="13.0843667"><ele>608.0</ele><time>2026-05-02T10:55:36.984Z</time></trkpt><trkpt lat="42.9318533" lon="13.0843017"><ele>608.0</ele><time>2026-05-02T10:55:37.983Z</time></trkpt><trkpt lat="42.9317933" lon="13.08423"><ele>608.0</ele><time>2026-05-02T10:55:38.984Z</time></trkpt><trkpt lat="42.9317417" lon="13.0841483"><ele>608.0</ele><time>2026-05-02T10:55:39.984Z</time></trkpt><trkpt lat="42.9317067" lon="13.08405"><ele>608.0</ele><time>2026-05-02T10:55:40.984Z</time></trkpt><trkpt lat="42.9316917" lon="13.08394"><ele>608.4</ele><time>2026-05-02T10:55:41.983Z</time></trkpt><trkpt lat="42.9316917" lon="13.0838217"><ele>608.8</ele><time>2026-05-02T10:55:42.984Z</time></trkpt><trkpt lat="42.93171" lon="13.0837033"><ele>609.2</ele><time>2026-05-02T10:55:43.985Z</time></trkpt><trkpt lat="42.9317367" lon="13.0835783"><ele>609.6</ele><time>2026-05-02T10:55:44.983Z</time></trkpt><trkpt lat="42.931765" lon="13.0834533"><ele>610.0</ele><time>2026-05-02T10:55:45.984Z</time></trkpt><trkpt lat="42.9317883" lon="13.08332"><ele>610.0</ele><time>2026-05-02T10:55:46.983Z</time></trkpt><trkpt lat="42.93182" lon="13.0831833"><ele>610.0</ele><time>2026-05-02T10:55:47.984Z</time></trkpt><trkpt lat="42.9318483" lon="13.08304"><ele>610.0</ele><time>2026-05-02T10:55:48.982Z</time></trkpt><trkpt lat="42.9318817" lon="13.08289"><ele>610.0</ele><time>2026-05-02T10:55:49.982Z</time></trkpt><trkpt lat="42.9319167" lon="13.0827433"><ele>610.0</ele><time>2026-05-02T10:55:50.984Z</time></trkpt><trkpt lat="42.93195" lon="13.082605"><ele>610.0</ele><time>2026-05-02T10:55:51.982Z</time></trkpt><trkpt lat="42.931985" lon="13.082475"><ele>610.0</ele><time>2026-05-02T10:55:52.983Z</time></trkpt><trkpt lat="42.932015" lon="13.0823567"><ele>610.0</ele><time>2026-05-02T10:55:53.982Z</time></trkpt><trkpt lat="42.9320367" lon="13.0822467"><ele>610.0</ele><time>2026-05-02T10:55:54.985Z</time></trkpt><trkpt lat="42.9320583" lon="13.08215"><ele>610.0</ele><time>2026-05-02T10:55:55.983Z</time></trkpt><trkpt lat="42.9320817" lon="13.082065"><ele>610.0</ele><time>2026-05-02T10:55:56.983Z</time></trkpt><trkpt lat="42.9321183" lon="13.0819117"><ele>609.4</ele><time>2026-05-02T10:55:58.985Z</time></trkpt><trkpt lat="42.9321517" lon="13.0817717"><ele>608.8</ele><time>2026-05-02T10:56:00.983Z</time></trkpt><trkpt lat="42.932185" lon="13.0816"><ele>608.2</ele><time>2026-05-02T10:56:02.982Z</time></trkpt><trkpt lat="42.9322067" lon="13.0814833"><ele>607.6</ele><time>2026-05-02T10:56:03.982Z</time></trkpt><trkpt lat="42.9322367" lon="13.0813583"><ele>607.0</ele><time>2026-05-02T10:56:04.983Z</time></trkpt><trkpt lat="42.9322683" lon="13.081225"><ele>606.5</ele><time>2026-05-02T10:56:05.982Z</time></trkpt><trkpt lat="42.9323033" lon="13.0810783"><ele>606.0</ele><time>2026-05-02T10:56:06.982Z</time></trkpt><trkpt lat="42.9323417" lon="13.08092"><ele>605.5</ele><time>2026-05-02T10:56:07.983Z</time></trkpt><trkpt lat="42.9323817" lon="13.080755"><ele>605.0</ele><time>2026-05-02T10:56:08.986Z</time></trkpt><trkpt lat="42.9324183" lon="13.08059"><ele>605.0</ele><time>2026-05-02T10:56:09.983Z</time></trkpt><trkpt lat="42.9324583" lon="13.0804217"><ele>605.0</ele><time>2026-05-02T10:56:10.982Z</time></trkpt><trkpt lat="42.9324983" lon="13.080255"><ele>605.0</ele><time>2026-05-02T10:56:11.983Z</time></trkpt><trkpt lat="42.9325317" lon="13.0800933"><ele>605.0</ele><time>2026-05-02T10:56:12.982Z</time></trkpt><trkpt lat="42.9325617" lon="13.079945"><ele>604.75</ele><time>2026-05-02T10:56:13.982Z</time></trkpt><trkpt lat="42.9325917" lon="13.0798017"><ele>604.5</ele><time>2026-05-02T10:56:14.983Z</time></trkpt><trkpt lat="42.9326283" lon="13.0796517"><ele>604.25</ele><time>2026-05-02T10:56:15.983Z</time></trkpt><trkpt lat="42.932665" lon="13.0794917"><ele>604.0</ele><time>2026-05-02T10:56:16.982Z</time></trkpt><trkpt lat="42.9327033" lon="13.0793283"><ele>604.0</ele><time>2026-05-02T10:56:17.984Z</time></trkpt><trkpt lat="42.9327433" lon="13.0791617"><ele>604.0</ele><time>2026-05-02T10:56:18.982Z</time></trkpt><trkpt lat="42.9327833" lon="13.07899"><ele>604.0</ele><time>2026-05-02T10:56:19.982Z</time></trkpt><trkpt lat="42.9328267" lon="13.0788217"><ele>604.0</ele><time>2026-05-02T10:56:20.982Z</time></trkpt><trkpt lat="42.93287" lon="13.0786433"><ele>604.5</ele><time>2026-05-02T10:56:21.981Z</time></trkpt><trkpt lat="42.9329133" lon="13.0784667"><ele>605.0</ele><time>2026-05-02T10:56:22.981Z</time></trkpt><trkpt lat="42.9329533" lon="13.07829"><ele>605.5</ele><time>2026-05-02T10:56:23.981Z</time></trkpt><trkpt lat="42.9329933" lon="13.0781167"><ele>606.0</ele><time>2026-05-02T10:56:24.981Z</time></trkpt><trkpt lat="42.9330333" lon="13.07795"><ele>606.75</ele><time>2026-05-02T10:56:25.982Z</time></trkpt><trkpt lat="42.93307" lon="13.0777867"><ele>607.5</ele><time>2026-05-02T10:56:26.982Z</time></trkpt><trkpt lat="42.9331117" lon="13.07762"><ele>608.25</ele><time>2026-05-02T10:56:27.981Z</time></trkpt><trkpt lat="42.93315" lon="13.07746"><ele>609.0</ele><time>2026-05-02T10:56:28.981Z</time></trkpt><trkpt lat="42.933185" lon="13.0773033"><ele>610.6</ele><time>2026-05-02T10:56:29.983Z</time></trkpt><trkpt lat="42.933215" lon="13.077155"><ele>612.2</ele><time>2026-05-02T10:56:30.983Z</time></trkpt><trkpt lat="42.93324" lon="13.0770133"><ele>613.8000000000001</ele><time>2026-05-02T10:56:31.981Z</time></trkpt><trkpt lat="42.9332567" lon="13.0768733"><ele>615.4</ele><time>2026-05-02T10:56:32.982Z</time></trkpt><trkpt lat="42.9332683" lon="13.0767283"><ele>617.0</ele><time>2026-05-02T10:56:33.981Z</time></trkpt><trkpt lat="42.9332717" lon="13.0765717"><ele>618.75</ele><time>2026-05-02T10:56:34.981Z</time></trkpt><trkpt lat="42.9332683" lon="13.07641"><ele>620.5</ele><time>2026-05-02T10:56:35.982Z</time></trkpt><trkpt lat="42.9332567" lon="13.07624"><ele>622.25</ele><time>2026-05-02T10:56:36.982Z</time></trkpt><trkpt lat="42.93324" lon="13.07606"><ele>624.0</ele><time>2026-05-02T10:56:37.981Z</time></trkpt><trkpt lat="42.93322" lon="13.0758717"><ele>625.5</ele><time>2026-05-02T10:56:38.981Z</time></trkpt><trkpt lat="42.9331983" lon="13.075675"><ele>627.0</ele><time>2026-05-02T10:56:39.981Z</time></trkpt><trkpt lat="42.9331767" lon="13.0754733"><ele>628.5</ele><time>2026-05-02T10:56:40.982Z</time></trkpt><trkpt lat="42.933155" lon="13.07527"><ele>630.0</ele><time>2026-05-02T10:56:41.981Z</time></trkpt><trkpt lat="42.9331317" lon="13.0750633"><ele>638.6666666666666</ele><time>2026-05-02T10:56:42.981Z</time></trkpt><trkpt lat="42.9331083" lon="13.0748567"><ele>647.3333333333333</ele><time>2026-05-02T10:56:43.982Z</time></trkpt><trkpt lat="42.933085" lon="13.074645"><ele>656.0</ele><time>2026-05-02T10:56:44.983Z</time></trkpt><trkpt lat="42.9330583" lon="13.0744317"><ele>656.0</ele><time>2026-05-02T10:56:45.982Z</time></trkpt><trkpt lat="42.9330333" lon="13.0742217"><ele>656.0</ele><time>2026-05-02T10:56:46.982Z</time></trkpt><trkpt lat="42.9330067" lon="13.0740117"><ele>656.0</ele><time>2026-05-02T10:56:47.981Z</time></trkpt><trkpt lat="42.9329733" lon="13.073805"><ele>657.0</ele><time>2026-05-02T10:56:48.983Z</time></trkpt><trkpt lat="42.9329283" lon="13.0736067"><ele>658.0</ele><time>2026-05-02T10:56:49.982Z</time></trkpt><trkpt lat="42.93286" lon="13.073425"><ele>659.0</ele><time>2026-05-02T10:56:50.983Z</time></trkpt><trkpt lat="42.932775" lon="13.0732517"><ele>661.3333333333333</ele><time>2026-05-02T10:56:51.983Z</time></trkpt><trkpt lat="42.932665" lon="13.0731067"><ele>663.6666666666666</ele><time>2026-05-02T10:56:52.982Z</time></trkpt><trkpt lat="42.932525" lon="13.0729917"><ele>666.0</ele><time>2026-05-02T10:56:53.982Z</time></trkpt><trkpt lat="42.9323733" lon="13.0728833"><ele>652.0</ele><time>2026-05-02T10:56:54.981Z</time></trkpt><trkpt lat="42.9322217" lon="13.0727717"><ele>638.0</ele><time>2026-05-02T10:56:55.983Z</time></trkpt><trkpt lat="42.93207" lon="13.072655"><ele>624.0</ele><time>2026-05-02T10:56:56.982Z</time></trkpt><trkpt lat="42.9319283" lon="13.072515"><ele>621.0</ele><time>2026-05-02T10:56:57.981Z</time></trkpt><trkpt lat="42.931795" lon="13.07236"><ele>618.0</ele><time>2026-05-02T10:56:58.981Z</time></trkpt><trkpt lat="42.9316667" lon="13.0721933"><ele>615.0</ele><time>2026-05-02T10:56:59.981Z</time></trkpt><trkpt lat="42.9315417" lon="13.07202"><ele>615.0</ele><time>2026-05-02T10:57:00.982Z</time></trkpt><trkpt lat="42.9314133" lon="13.071845"><ele>615.0</ele><time>2026-05-02T10:57:01.982Z</time></trkpt><trkpt lat="42.931285" lon="13.07167"><ele>615.0</ele><time>2026-05-02T10:57:02.983Z</time></trkpt><trkpt lat="42.9311583" lon="13.0714933"><ele>611.0</ele><time>2026-05-02T10:57:03.981Z</time></trkpt><trkpt lat="42.9310367" lon="13.07131"><ele>607.0</ele><time>2026-05-02T10:57:04.981Z</time></trkpt><trkpt lat="42.930925" lon="13.0711083"><ele>603.0</ele><time>2026-05-02T10:57:05.981Z</time></trkpt><trkpt lat="42.9308267" lon="13.07089"><ele>610.6666666666666</ele><time>2026-05-02T10:57:06.981Z</time></trkpt><trkpt lat="42.93074" lon="13.0706467"><ele>618.3333333333333</ele><time>2026-05-02T10:57:07.981Z</time></trkpt><trkpt lat="42.930655" lon="13.0703917"><ele>626.0</ele><time>2026-05-02T10:57:08.982Z</time></trkpt><trkpt lat="42.9305533" lon="13.070145"><ele>624.3333333333333</ele><time>2026-05-02T10:57:09.981Z</time></trkpt><trkpt lat="42.9304133" lon="13.0699383"><ele>622.6666666666666</ele><time>2026-05-02T10:57:10.982Z</time></trkpt><trkpt lat="42.93024" lon="13.0697833"><ele>621.0</ele><time>2026-05-02T10:57:11.981Z</time></trkpt><trkpt lat="42.9300517" lon="13.069655"><ele>621.0</ele><time>2026-05-02T10:57:12.982Z</time></trkpt><trkpt lat="42.9298633" lon="13.069515"><ele>621.0</ele><time>2026-05-02T10:57:13.982Z</time></trkpt><trkpt lat="42.92969" lon="13.0693283"><ele>621.0</ele><time>2026-05-02T10:57:14.982Z</time></trkpt><trkpt lat="42.9295267" lon="13.06911"><ele>615.0</ele><time>2026-05-02T10:57:15.981Z</time></trkpt><trkpt lat="42.9293717" lon="13.0688783"><ele>609.0</ele><time>2026-05-02T10:57:16.983Z</time></trkpt><trkpt lat="42.9292233" lon="13.0686433"><ele>609.0</ele><time>2026-05-02T10:57:17.981Z</time></trkpt><trkpt lat="42.9290767" lon="13.0684067"><ele>609.0</ele><time>2026-05-02T10:57:18.981Z</time></trkpt><trkpt lat="42.928935" lon="13.068175"><ele>609.0</ele><time>2026-05-02T10:57:19.981Z</time></trkpt><trkpt lat="42.928795" lon="13.067945"><ele>617.6666666666666</ele><time>2026-05-02T10:57:20.981Z</time></trkpt><trkpt lat="42.9286617" lon="13.0677167"><ele>626.3333333333333</ele><time>2026-05-02T10:57:21.983Z</time></trkpt><trkpt lat="42.928535" lon="13.0674833"><ele>635.0</ele><time>2026-05-02T10:57:22.981Z</time></trkpt><trkpt lat="42.9284133" lon="13.06725"><ele>625.6666666666666</ele><time>2026-05-02T10:57:23.983Z</time></trkpt><trkpt lat="42.92829" lon="13.0670233"><ele>616.3333333333334</ele><time>2026-05-02T10:57:24.982Z</time></trkpt><trkpt lat="42.9281567" lon="13.0668183"><ele>607.0</ele><time>2026-05-02T10:57:25.982Z</time></trkpt><trkpt lat="42.92801" lon="13.066645"><ele>607.0</ele><time>2026-05-02T10:57:26.982Z</time></trkpt><trkpt lat="42.927865" lon="13.0664817"><ele>607.0</ele><time>2026-05-02T10:57:27.982Z</time></trkpt><trkpt lat="42.927735" lon="13.0663067"><ele>607.0</ele><time>2026-05-02T10:57:28.982Z</time></trkpt><trkpt lat="42.92764" lon="13.0660833"><ele>607.0</ele><time>2026-05-02T10:57:29.982Z</time></trkpt><trkpt lat="42.927575" lon="13.0658417"><ele>607.0</ele><time>2026-05-02T10:57:30.985Z</time></trkpt><trkpt lat="42.9275517" lon="13.0655733"><ele>607.0</ele><time>2026-05-02T10:57:31.981Z</time></trkpt><trkpt lat="42.9275467" lon="13.065285"><ele>607.0</ele><time>2026-05-02T10:57:32.982Z</time></trkpt><trkpt lat="42.9275383" lon="13.064985"><ele>607.0</ele><time>2026-05-02T10:57:33.982Z</time></trkpt><trkpt lat="42.927505" lon="13.06468"><ele>607.0</ele><time>2026-05-02T10:57:34.982Z</time></trkpt><trkpt lat="42.9274467" lon="13.064375"><ele>603.5</ele><time>2026-05-02T10:57:35.982Z</time></trkpt><trkpt lat="42.9273683" lon="13.0640767"><ele>600.0</ele><time>2026-05-02T10:57:36.982Z</time></trkpt><trkpt lat="42.9258967" lon="13.060685"><ele>584.0</ele><time>2026-05-02T10:57:49.983Z</time></trkpt><trkpt lat="42.92571" lon="13.0604933"><ele>568.0</ele><time>2026-05-02T10:57:50.984Z</time></trkpt><trkpt lat="42.9255217" lon="13.060295"><ele>568.0</ele><time>2026-05-02T10:57:51.983Z</time></trkpt><trkpt lat="42.9253367" lon="13.06012"><ele>568.0</ele><time>2026-05-02T10:57:52.981Z</time></trkpt><trkpt lat="42.9251467" lon="13.059975"><ele>568.0</ele><time>2026-05-02T10:57:53.983Z</time></trkpt><trkpt lat="42.924955" lon="13.0598567"><ele>570.6666666666667</ele><time>2026-05-02T10:57:54.982Z</time></trkpt><trkpt lat="42.9247617" lon="13.0597583"><ele>573.3333333333334</ele><time>2026-05-02T10:57:55.981Z</time></trkpt><trkpt lat="42.9245633" lon="13.0596767"><ele>576.0</ele><time>2026-05-02T10:57:56.982Z</time></trkpt><trkpt lat="42.9243683" lon="13.0595833"><ele>568.6666666666666</ele><time>2026-05-02T10:57:57.981Z</time></trkpt><trkpt lat="42.92418" lon="13.0594717"><ele>561.3333333333333</ele><time>2026-05-02T10:57:58.982Z</time></trkpt><trkpt lat="42.9239967" lon="13.0593417"><ele>554.0</ele><time>2026-05-02T10:57:59.981Z</time></trkpt><trkpt lat="42.92382" lon="13.059195"><ele>552.0</ele><time>2026-05-02T10:58:00.982Z</time></trkpt><trkpt lat="42.923645" lon="13.0590433"><ele>550.0</ele><time>2026-05-02T10:58:01.981Z</time></trkpt><trkpt lat="42.9234683" lon="13.0589017"><ele>548.0</ele><time>2026-05-02T10:58:02.982Z</time></trkpt><trkpt lat="42.9233" lon="13.0587533"><ele>548.0</ele><time>2026-05-02T10:58:03.982Z</time></trkpt><trkpt lat="42.9231383" lon="13.0586033"><ele>548.0</ele><time>2026-05-02T10:58:04.981Z</time></trkpt><trkpt lat="42.9229983" lon="13.0584367"><ele>548.0</ele><time>2026-05-02T10:58:05.982Z</time></trkpt><trkpt lat="42.9228867" lon="13.0582383"><ele>551.0</ele><time>2026-05-02T10:58:06.982Z</time></trkpt><trkpt lat="42.922795" lon="13.0580133"><ele>554.0</ele><time>2026-05-02T10:58:07.982Z</time></trkpt><trkpt lat="42.922705" lon="13.0577733"><ele>557.0</ele><time>2026-05-02T10:58:08.982Z</time></trkpt><trkpt lat="42.9226017" lon="13.0575333"><ele>551.6666666666666</ele><time>2026-05-02T10:58:09.981Z</time></trkpt><trkpt lat="42.9224867" lon="13.0573083"><ele>546.3333333333334</ele><time>2026-05-02T10:58:10.981Z</time></trkpt><trkpt lat="42.9223617" lon="13.0571083"><ele>541.0</ele><time>2026-05-02T10:58:11.983Z</time></trkpt><trkpt lat="42.9222267" lon="13.0569333"><ele>541.0</ele><time>2026-05-02T10:58:12.983Z</time></trkpt><trkpt lat="42.9220933" lon="13.0567733"><ele>541.0</ele><time>2026-05-02T10:58:13.981Z</time></trkpt><trkpt lat="42.921955" lon="13.0566267"><ele>541.0</ele><time>2026-05-02T10:58:14.983Z</time></trkpt><trkpt lat="42.9218" lon="13.0565"><ele>543.3333333333334</ele><time>2026-05-02T10:58:15.982Z</time></trkpt><trkpt lat="42.9216567" lon="13.0563683"><ele>545.6666666666666</ele><time>2026-05-02T10:58:16.981Z</time></trkpt><trkpt lat="42.9214633" lon="13.0563"><ele>548.0</ele><time>2026-05-02T10:58:17.983Z</time></trkpt><trkpt lat="42.92126" lon="13.0563167"><ele>548.0</ele><time>2026-05-02T10:58:18.983Z</time></trkpt><trkpt lat="42.921085" lon="13.05629"><ele>548.0</ele><time>2026-05-02T10:58:19.982Z</time></trkpt><trkpt lat="42.920925" lon="13.0562417"><ele>548.0</ele><time>2026-05-02T10:58:20.983Z</time></trkpt><trkpt lat="42.92077" lon="13.0561583"><ele>546.6666666666666</ele><time>2026-05-02T10:58:21.982Z</time></trkpt><trkpt lat="42.920625" lon="13.05604"><ele>545.3333333333334</ele><time>2026-05-02T10:58:22.983Z</time></trkpt><trkpt lat="42.920495" lon="13.0558817"><ele>544.0</ele><time>2026-05-02T10:58:23.983Z</time></trkpt><trkpt lat="42.9203783" lon="13.0556967"><ele>545.3333333333334</ele><time>2026-05-02T10:58:24.983Z</time></trkpt><trkpt lat="42.9202633" lon="13.0555"><ele>546.6666666666666</ele><time>2026-05-02T10:58:25.983Z</time></trkpt><trkpt lat="42.920145" lon="13.0553033"><ele>548.0</ele><time>2026-05-02T10:58:26.984Z</time></trkpt><trkpt lat="42.9200233" lon="13.0551067"><ele>555.6666666666666</ele><time>2026-05-02T10:58:27.982Z</time></trkpt><trkpt lat="42.9199033" lon="13.0549033"><ele>563.3333333333334</ele><time>2026-05-02T10:58:28.983Z</time></trkpt><trkpt lat="42.9197917" lon="13.0546933"><ele>571.0</ele><time>2026-05-02T10:58:29.983Z</time></trkpt><trkpt lat="42.91969" lon="13.0544783"><ele>571.0</ele><time>2026-05-02T10:58:30.982Z</time></trkpt><trkpt lat="42.919595" lon="13.0542667"><ele>571.0</ele><time>2026-05-02T10:58:31.981Z</time></trkpt><trkpt lat="42.9195133" lon="13.0540383"><ele>571.0</ele><time>2026-05-02T10:58:32.982Z</time></trkpt><trkpt lat="42.9194567" lon="13.0537967"><ele>576.3333333333334</ele><time>2026-05-02T10:58:33.982Z</time></trkpt><trkpt lat="42.919415" lon="13.05355"><ele>581.6666666666666</ele><time>2026-05-02T10:58:34.982Z</time></trkpt><trkpt lat="42.9193817" lon="13.0533117"><ele>587.0</ele><time>2026-05-02T10:58:35.981Z</time></trkpt><trkpt lat="42.9193533" lon="13.0530783"><ele>597.0</ele><time>2026-05-02T10:58:36.981Z</time></trkpt><trkpt lat="42.9193267" lon="13.0528533"><ele>607.0</ele><time>2026-05-02T10:58:37.982Z</time></trkpt><trkpt lat="42.919305" lon="13.0526433"><ele>617.0</ele><time>2026-05-02T10:58:38.982Z</time></trkpt><trkpt lat="42.9192717" lon="13.0524583"><ele>601.6666666666666</ele><time>2026-05-02T10:58:39.982Z</time></trkpt><trkpt lat="42.9192083" lon="13.0522933"><ele>586.3333333333334</ele><time>2026-05-02T10:58:40.982Z</time></trkpt><trkpt lat="42.919085" lon="13.0521467"><ele>571.0</ele><time>2026-05-02T10:58:41.982Z</time></trkpt><trkpt lat="42.91894" lon="13.0519933"><ele>571.0</ele><time>2026-05-02T10:58:42.982Z</time></trkpt><trkpt lat="42.9187983" lon="13.0518283"><ele>571.0</ele><time>2026-05-02T10:58:43.981Z</time></trkpt><trkpt lat="42.9186433" lon="13.0516733"><ele>571.0</ele><time>2026-05-02T10:58:44.982Z</time></trkpt><trkpt lat="42.9184767" lon="13.0515383"><ele>560.3333333333334</ele><time>2026-05-02T10:58:45.983Z</time></trkpt><trkpt lat="42.9183117" lon="13.05141"><ele>549.6666666666666</ele><time>2026-05-02T10:58:46.982Z</time></trkpt><trkpt lat="42.9181533" lon="13.051275"><ele>539.0</ele><time>2026-05-02T10:58:47.982Z</time></trkpt><trkpt lat="42.9180167" lon="13.0511117"><ele>539.0</ele><time>2026-05-02T10:58:48.982Z</time></trkpt><trkpt lat="42.9179017" lon="13.05092"><ele>539.0</ele><time>2026-05-02T10:58:49.982Z</time></trkpt><trkpt lat="42.9178283" lon="13.0507017"><ele>539.0</ele><time>2026-05-02T10:58:50.983Z</time></trkpt><trkpt lat="42.9177933" lon="13.050465"><ele>540.6666666666666</ele><time>2026-05-02T10:58:51.982Z</time></trkpt><trkpt lat="42.9177717" lon="13.0502167"><ele>542.3333333333334</ele><time>2026-05-02T10:58:52.982Z</time></trkpt><trkpt lat="42.9177383" lon="13.049975"><ele>544.0</ele><time>2026-05-02T10:58:53.982Z</time></trkpt><trkpt lat="42.91767" lon="13.0497533"><ele>541.0</ele><time>2026-05-02T10:58:54.983Z</time></trkpt><trkpt lat="42.9175617" lon="13.0495417"><ele>538.0</ele><time>2026-05-02T10:58:55.982Z</time></trkpt><trkpt lat="42.9174317" lon="13.0493283"><ele>535.0</ele><time>2026-05-02T10:58:56.983Z</time></trkpt><trkpt lat="42.9173083" lon="13.0490967"><ele>534.3333333333334</ele><time>2026-05-02T10:58:57.983Z</time></trkpt><trkpt lat="42.9171967" lon="13.0488583"><ele>533.6666666666666</ele><time>2026-05-02T10:58:58.982Z</time></trkpt><trkpt lat="42.9170983" lon="13.0486217"><ele>533.0</ele><time>2026-05-02T10:58:59.981Z</time></trkpt><trkpt lat="42.917005" lon="13.0483883"><ele>531.6666666666666</ele><time>2026-05-02T10:59:00.982Z</time></trkpt><trkpt lat="42.9169067" lon="13.04816"><ele>530.3333333333334</ele><time>2026-05-02T10:59:01.983Z</time></trkpt><trkpt lat="42.9167833" lon="13.04796"><ele>529.0</ele><time>2026-05-02T10:59:02.983Z</time></trkpt><trkpt lat="42.91664" lon="13.0477917"><ele>529.0</ele><time>2026-05-02T10:59:03.982Z</time></trkpt><trkpt lat="42.916485" lon="13.04764"><ele>529.0</ele><time>2026-05-02T10:59:04.982Z</time></trkpt><trkpt lat="42.91634" lon="13.0474867"><ele>529.0</ele><time>2026-05-02T10:59:05.983Z</time></trkpt><trkpt lat="42.9162167" lon="13.04732"><ele>532.6666666666667</ele><time>2026-05-02T10:59:06.983Z</time></trkpt><trkpt lat="42.9161267" lon="13.0471233"><ele>536.3333333333334</ele><time>2026-05-02T10:59:07.981Z</time></trkpt><trkpt lat="42.9160617" lon="13.0469067"><ele>540.0</ele><time>2026-05-02T10:59:08.983Z</time></trkpt><trkpt lat="42.9160133" lon="13.04667"><ele>536.6666666666666</ele><time>2026-05-02T10:59:09.983Z</time></trkpt><trkpt lat="42.9159667" lon="13.046425"><ele>533.3333333333333</ele><time>2026-05-02T10:59:10.984Z</time></trkpt><trkpt lat="42.9159267" lon="13.04617"><ele>530.0</ele><time>2026-05-02T10:59:11.982Z</time></trkpt><trkpt lat="42.9158817" lon="13.0459167"><ele>530.0</ele><time>2026-05-02T10:59:12.983Z</time></trkpt><trkpt lat="42.9158283" lon="13.0456683"><ele>530.0</ele><time>2026-05-02T10:59:13.982Z</time></trkpt><trkpt lat="42.91576" lon="13.0454267"><ele>530.0</ele><time>2026-05-02T10:59:14.982Z</time></trkpt><trkpt lat="42.91566" lon="13.0451967"><ele>530.0</ele><time>2026-05-02T10:59:15.983Z</time></trkpt><trkpt lat="42.91553" lon="13.0449783"><ele>530.0</ele><time>2026-05-02T10:59:16.983Z</time></trkpt><trkpt lat="42.915385" lon="13.0447533"><ele>530.0</ele><time>2026-05-02T10:59:17.982Z</time></trkpt><trkpt lat="42.9152383" lon="13.044525"><ele>527.5</ele><time>2026-05-02T10:59:18.982Z</time></trkpt><trkpt lat="42.9150883" lon="13.0442883"><ele>525.0</ele><time>2026-05-02T10:59:19.982Z</time></trkpt><trkpt lat="42.9149333" lon="13.0440417"><ele>525.0</ele><time>2026-05-02T10:59:20.982Z</time></trkpt><trkpt lat="42.9147733" lon="13.0437883"><ele>525.0</ele><time>2026-05-02T10:59:21.982Z</time></trkpt><trkpt lat="42.914615" lon="13.0435367"><ele>533.5</ele><time>2026-05-02T10:59:22.983Z</time></trkpt><trkpt lat="42.9144567" lon="13.0432933"><ele>542.0</ele><time>2026-05-02T10:59:23.983Z</time></trkpt><trkpt lat="42.9143083" lon="13.0430583"><ele>537.3333333333333</ele><time>2026-05-02T10:59:24.983Z</time></trkpt><trkpt lat="42.9141667" lon="13.0428433"><ele>532.6666666666666</ele><time>2026-05-02T10:59:25.982Z</time></trkpt><trkpt lat="42.914035" lon="13.04264"><ele>528.0</ele><time>2026-05-02T10:59:26.982Z</time></trkpt><trkpt lat="42.9139133" lon="13.042445"><ele>528.0</ele><time>2026-05-02T10:59:27.983Z</time></trkpt><trkpt lat="42.91378" lon="13.0422817"><ele>528.0</ele><time>2026-05-02T10:59:28.982Z</time></trkpt><trkpt lat="42.9136233" lon="13.0421567"><ele>528.0</ele><time>2026-05-02T10:59:29.982Z</time></trkpt><trkpt lat="42.9134417" lon="13.0420883"><ele>525.3333333333334</ele><time>2026-05-02T10:59:30.982Z</time></trkpt><trkpt lat="42.9132333" lon="13.04208"><ele>522.6666666666667</ele><time>2026-05-02T10:59:31.982Z</time></trkpt><trkpt lat="42.9130117" lon="13.0420883"><ele>520.0</ele><time>2026-05-02T10:59:32.982Z</time></trkpt><trkpt lat="42.91278" lon="13.0420917"><ele>517.0</ele><time>2026-05-02T10:59:33.982Z</time></trkpt><trkpt lat="42.9125433" lon="13.042075"><ele>514.0</ele><time>2026-05-02T10:59:34.983Z</time></trkpt><trkpt lat="42.91232" lon="13.0420233"><ele>514.0</ele><time>2026-05-02T10:59:35.982Z</time></trkpt><trkpt lat="42.912105" lon="13.0419383"><ele>514.0</ele><time>2026-05-02T10:59:36.983Z</time></trkpt><trkpt lat="42.911895" lon="13.0418383"><ele>514.0</ele><time>2026-05-02T10:59:37.983Z</time></trkpt><trkpt lat="42.9116833" lon="13.0417267"><ele>517.6666666666667</ele><time>2026-05-02T10:59:38.983Z</time></trkpt><trkpt lat="42.9114783" lon="13.0416017"><ele>521.3333333333334</ele><time>2026-05-02T10:59:39.982Z</time></trkpt><trkpt lat="42.9112833" lon="13.041475"><ele>525.0</ele><time>2026-05-02T10:59:40.982Z</time></trkpt><trkpt lat="42.9111033" lon="13.04134"><ele>525.0</ele><time>2026-05-02T10:59:41.982Z</time></trkpt><trkpt lat="42.910935" lon="13.04119"><ele>525.0</ele><time>2026-05-02T10:59:42.983Z</time></trkpt><trkpt lat="42.910775" lon="13.0410283"><ele>525.0</ele><time>2026-05-02T10:59:43.982Z</time></trkpt><trkpt lat="42.9106217" lon="13.0408583"><ele>524.0</ele><time>2026-05-02T10:59:44.984Z</time></trkpt><trkpt lat="42.9104767" lon="13.0406833"><ele>523.0</ele><time>2026-05-02T10:59:45.982Z</time></trkpt><trkpt lat="42.910335" lon="13.0404983"><ele>522.0</ele><time>2026-05-02T10:59:46.982Z</time></trkpt><trkpt lat="42.9101967" lon="13.0403033"><ele>521.6666666666666</ele><time>2026-05-02T10:59:47.982Z</time></trkpt><trkpt lat="42.910065" lon="13.0400967"><ele>521.3333333333333</ele><time>2026-05-02T10:59:48.982Z</time></trkpt><trkpt lat="42.9099367" lon="13.0398867"><ele>521.0</ele><time>2026-05-02T10:59:49.985Z</time></trkpt><trkpt lat="42.9098117" lon="13.0396767"><ele>521.0</ele><time>2026-05-02T10:59:50.983Z</time></trkpt><trkpt lat="42.9096867" lon="13.03947"><ele>521.0</ele><time>2026-05-02T10:59:51.983Z</time></trkpt><trkpt lat="42.9095633" lon="13.0392667"><ele>521.0</ele><time>2026-05-02T10:59:52.983Z</time></trkpt><trkpt lat="42.9094417" lon="13.039065"><ele>519.0</ele><time>2026-05-02T10:59:53.983Z</time></trkpt><trkpt lat="42.9093183" lon="13.0388683"><ele>517.0</ele><time>2026-05-02T10:59:54.982Z</time></trkpt><trkpt lat="42.909195" lon="13.03868"><ele>515.0</ele><time>2026-05-02T10:59:55.983Z</time></trkpt><trkpt lat="42.90908" lon="13.038485"><ele>529.0</ele><time>2026-05-02T10:59:56.983Z</time></trkpt><trkpt lat="42.9089633" lon="13.0382967"><ele>543.0</ele><time>2026-05-02T10:59:57.983Z</time></trkpt><trkpt lat="42.908845" lon="13.0381083"><ele>557.0</ele><time>2026-05-02T10:59:58.983Z</time></trkpt><trkpt lat="42.9087233" lon="13.0379233"><ele>557.0</ele><time>2026-05-02T10:59:59.982Z</time></trkpt><trkpt lat="42.9085967" lon="13.03774"><ele>557.0</ele><time>2026-05-02T11:00:00.983Z</time></trkpt><trkpt lat="42.9084733" lon="13.0375667"><ele>557.0</ele><time>2026-05-02T11:00:01.981Z</time></trkpt><trkpt lat="42.9083617" lon="13.0374017"><ele>542.6666666666666</ele><time>2026-05-02T11:00:02.982Z</time></trkpt><trkpt lat="42.9082733" lon="13.0372233"><ele>528.3333333333334</ele><time>2026-05-02T11:00:03.982Z</time></trkpt><trkpt lat="42.9082267" lon="13.0370233"><ele>514.0</ele><time>2026-05-02T11:00:04.981Z</time></trkpt><trkpt lat="42.9082233" lon="13.0367933"><ele>510.33333333333337</ele><time>2026-05-02T11:00:05.982Z</time></trkpt><trkpt lat="42.9082383" lon="13.0365483"><ele>506.66666666666663</ele><time>2026-05-02T11:00:06.982Z</time></trkpt><trkpt lat="42.9082733" lon="13.0362933"><ele>503.0</ele><time>2026-05-02T11:00:07.982Z</time></trkpt><trkpt lat="42.9083233" lon="13.0360433"><ele>503.0</ele><time>2026-05-02T11:00:08.981Z</time></trkpt><trkpt lat="42.9084017" lon="13.035815"><ele>503.0</ele><time>2026-05-02T11:00:09.981Z</time></trkpt><trkpt lat="42.9084883" lon="13.0356033"><ele>503.0</ele><time>2026-05-02T11:00:10.982Z</time></trkpt><trkpt lat="42.908575" lon="13.0353933"><ele>511.0</ele><time>2026-05-02T11:00:11.982Z</time></trkpt><trkpt lat="42.90862" lon="13.03516"><ele>519.0</ele><time>2026-05-02T11:00:12.982Z</time></trkpt><trkpt lat="42.9086167" lon="13.0348983"><ele>527.0</ele><time>2026-05-02T11:00:13.982Z</time></trkpt><trkpt lat="42.9085817" lon="13.0346083"><ele>530.3333333333333</ele><time>2026-05-02T11:00:14.981Z</time></trkpt><trkpt lat="42.908545" lon="13.03432"><ele>533.6666666666666</ele><time>2026-05-02T11:00:15.982Z</time></trkpt><trkpt lat="42.9084917" lon="13.0340467"><ele>537.0</ele><time>2026-05-02T11:00:16.981Z</time></trkpt><trkpt lat="42.9084167" lon="13.0337983"><ele>541.0</ele><time>2026-05-02T11:00:17.981Z</time></trkpt><trkpt lat="42.9082983" lon="13.0335833"><ele>545.0</ele><time>2026-05-02T11:00:18.981Z</time></trkpt><trkpt lat="42.9081383" lon="13.0334117"><ele>549.0</ele><time>2026-05-02T11:00:19.981Z</time></trkpt><trkpt lat="42.9079483" lon="13.03328"><ele>549.0</ele><time>2026-05-02T11:00:20.983Z</time></trkpt><trkpt lat="42.9077633" lon="13.0331833"><ele>549.0</ele><time>2026-05-02T11:00:21.982Z</time></trkpt><trkpt lat="42.9075933" lon="13.0331083"><ele>549.0</ele><time>2026-05-02T11:00:22.983Z</time></trkpt><trkpt lat="42.9074467" lon="13.0330133"><ele>535.0</ele><time>2026-05-02T11:00:23.982Z</time></trkpt><trkpt lat="42.907335" lon="13.032875"><ele>521.0</ele><time>2026-05-02T11:00:24.982Z</time></trkpt><trkpt lat="42.90726" lon="13.0326967"><ele>507.0</ele><time>2026-05-02T11:00:25.981Z</time></trkpt><trkpt lat="42.907225" lon="13.0324933"><ele>508.33333333333337</ele><time>2026-05-02T11:00:26.982Z</time></trkpt><trkpt lat="42.90722" lon="13.0322833"><ele>509.6666666666667</ele><time>2026-05-02T11:00:27.983Z</time></trkpt><trkpt lat="42.9072217" lon="13.0320683"><ele>511.0</ele><time>2026-05-02T11:00:28.981Z</time></trkpt><trkpt lat="42.90722" lon="13.03185"><ele>511.6666666666667</ele><time>2026-05-02T11:00:29.983Z</time></trkpt><trkpt lat="42.90722" lon="13.0316317"><ele>512.3333333333334</ele><time>2026-05-02T11:00:30.982Z</time></trkpt><trkpt lat="42.90722" lon="13.0314083"><ele>513.0</ele><time>2026-05-02T11:00:31.982Z</time></trkpt><trkpt lat="42.9072183" lon="13.0311883"><ele>513.0</ele><time>2026-05-02T11:00:32.981Z</time></trkpt><trkpt lat="42.9072133" lon="13.0309667"><ele>513.0</ele><time>2026-05-02T11:00:33.982Z</time></trkpt><trkpt lat="42.9072" lon="13.0307483"><ele>513.0</ele><time>2026-05-02T11:00:34.982Z</time></trkpt><trkpt lat="42.907165" lon="13.0305367"><ele>511.25</ele><time>2026-05-02T11:00:35.981Z</time></trkpt><trkpt lat="42.9071083" lon="13.03034"><ele>509.5</ele><time>2026-05-02T11:00:36.982Z</time></trkpt><trkpt lat="42.907035" lon="13.0301617"><ele>507.75</ele><time>2026-05-02T11:00:37.981Z</time></trkpt><trkpt lat="42.9069517" lon="13.03"><ele>506.0</ele><time>2026-05-02T11:00:38.982Z</time></trkpt><trkpt lat="42.90687" lon="13.0298433"><ele>505.75</ele><time>2026-05-02T11:00:39.982Z</time></trkpt><trkpt lat="42.906785" lon="13.0296933"><ele>505.5</ele><time>2026-05-02T11:00:40.981Z</time></trkpt><trkpt lat="42.906695" lon="13.02955"><ele>505.25</ele><time>2026-05-02T11:00:41.982Z</time></trkpt><trkpt lat="42.9066017" lon="13.029405"><ele>505.0</ele><time>2026-05-02T11:00:42.981Z</time></trkpt><trkpt lat="42.9065083" lon="13.0292617"><ele>507.75</ele><time>2026-05-02T11:00:43.981Z</time></trkpt><trkpt lat="42.9064133" lon="13.0291333"><ele>510.5</ele><time>2026-05-02T11:00:44.981Z</time></trkpt><trkpt lat="42.9063167" lon="13.0290217"><ele>513.25</ele><time>2026-05-02T11:00:45.982Z</time></trkpt><trkpt lat="42.9062133" lon="13.028935"><ele>516.0</ele><time>2026-05-02T11:00:46.982Z</time></trkpt><trkpt lat="42.9061183" lon="13.028875"><ele>516.0</ele><time>2026-05-02T11:00:47.981Z</time></trkpt><trkpt lat="42.906045" lon="13.0288283"><ele>516.0</ele><time>2026-05-02T11:00:48.981Z</time></trkpt><trkpt lat="42.905985" lon="13.0287183"><ele>516.0</ele><time>2026-05-02T11:00:50.982Z</time></trkpt><trkpt lat="42.9060383" lon="13.0286283"><ele>516.0</ele><time>2026-05-02T11:00:52.981Z</time></trkpt><trkpt lat="42.9061083" lon="13.0286"><ele>516.0</ele><time>2026-05-02T11:00:53.981Z</time></trkpt><trkpt lat="42.9062" lon="13.0285783"><ele>516.0</ele><time>2026-05-02T11:00:54.981Z</time></trkpt><trkpt lat="42.9063133" lon="13.0285767"><ele>516.0</ele><time>2026-05-02T11:00:55.981Z</time></trkpt><trkpt lat="42.90644" lon="13.02858"><ele>516.0</ele><time>2026-05-02T11:00:56.982Z</time></trkpt><trkpt lat="42.9065717" lon="13.0285817"><ele>516.0</ele><time>2026-05-02T11:00:57.982Z</time></trkpt><trkpt lat="42.9067117" lon="13.0285783"><ele>516.0</ele><time>2026-05-02T11:00:58.982Z</time></trkpt><trkpt lat="42.9068583" lon="13.02857"><ele>518.25</ele><time>2026-05-02T11:00:59.982Z</time></trkpt><trkpt lat="42.9070067" lon="13.0285683"><ele>520.5</ele><time>2026-05-02T11:01:00.981Z</time></trkpt><trkpt lat="42.9071533" lon="13.0285733"><ele>522.75</ele><time>2026-05-02T11:01:01.982Z</time></trkpt><trkpt lat="42.907295" lon="13.02859"><ele>525.0</ele><time>2026-05-02T11:01:02.982Z</time></trkpt><trkpt lat="42.9074283" lon="13.0286283"><ele>525.0</ele><time>2026-05-02T11:01:03.982Z</time></trkpt><trkpt lat="42.90756" lon="13.0287017"><ele>525.0</ele><time>2026-05-02T11:01:04.982Z</time></trkpt><trkpt lat="42.9076933" lon="13.0287967"><ele>525.0</ele><time>2026-05-02T11:01:05.982Z</time></trkpt><trkpt lat="42.90784" lon="13.0288867"><ele>529.3333333333334</ele><time>2026-05-02T11:01:06.984Z</time></trkpt><trkpt lat="42.9080017" lon="13.02894"><ele>533.6666666666667</ele><time>2026-05-02T11:01:07.981Z</time></trkpt><trkpt lat="42.9081667" lon="13.028955"><ele>538.0</ele><time>2026-05-02T11:01:08.983Z</time></trkpt><trkpt lat="42.90833" lon="13.0289233"><ele>539.6666666666667</ele><time>2026-05-02T11:01:09.982Z</time></trkpt><trkpt lat="42.908495" lon="13.0288817"><ele>541.3333333333334</ele><time>2026-05-02T11:01:10.981Z</time></trkpt><trkpt lat="42.9086633" lon="13.028855"><ele>543.0</ele><time>2026-05-02T11:01:11.981Z</time></trkpt><trkpt lat="42.9088367" lon="13.0288483"><ele>543.0</ele><time>2026-05-02T11:01:12.982Z</time></trkpt><trkpt lat="42.9090083" lon="13.0288517"><ele>543.0</ele><time>2026-05-02T11:01:13.984Z</time></trkpt><trkpt lat="42.90918" lon="13.028865"><ele>543.0</ele><time>2026-05-02T11:01:14.983Z</time></trkpt><trkpt lat="42.9093467" lon="13.02888"><ele>546.6666666666666</ele><time>2026-05-02T11:01:15.981Z</time></trkpt><trkpt lat="42.9095133" lon="13.028895"><ele>550.3333333333333</ele><time>2026-05-02T11:01:16.981Z</time></trkpt><trkpt lat="42.9096817" lon="13.0289133"><ele>554.0</ele><time>2026-05-02T11:01:17.982Z</time></trkpt><trkpt lat="42.90985" lon="13.0289317"><ele>554.0</ele><time>2026-05-02T11:01:18.982Z</time></trkpt><trkpt lat="42.9100217" lon="13.0289467"><ele>554.0</ele><time>2026-05-02T11:01:19.982Z</time></trkpt><trkpt lat="42.9102017" lon="13.0289617"><ele>554.0</ele><time>2026-05-02T11:01:20.982Z</time></trkpt><trkpt lat="42.910385" lon="13.028975"><ele>559.0</ele><time>2026-05-02T11:01:21.983Z</time></trkpt><trkpt lat="42.9105683" lon="13.0289833"><ele>564.0</ele><time>2026-05-02T11:01:22.983Z</time></trkpt><trkpt lat="42.91075" lon="13.0289917"><ele>569.0</ele><time>2026-05-02T11:01:23.982Z</time></trkpt><trkpt lat="42.9109317" lon="13.0290133"><ele>570.3333333333333</ele><time>2026-05-02T11:01:24.982Z</time></trkpt><trkpt lat="42.9111133" lon="13.029045"><ele>571.6666666666666</ele><time>2026-05-02T11:01:25.981Z</time></trkpt><trkpt lat="42.9112917" lon="13.0290917"><ele>573.0</ele><time>2026-05-02T11:01:26.983Z</time></trkpt><trkpt lat="42.911465" lon="13.02915"><ele>564.6666666666666</ele><time>2026-05-02T11:01:27.982Z</time></trkpt><trkpt lat="42.9116333" lon="13.0292117"><ele>556.3333333333333</ele><time>2026-05-02T11:01:28.981Z</time></trkpt><trkpt lat="42.9117967" lon="13.0292733"><ele>548.0</ele><time>2026-05-02T11:01:29.982Z</time></trkpt><trkpt lat="42.9119617" lon="13.0293383"><ele>548.0</ele><time>2026-05-02T11:01:30.982Z</time></trkpt><trkpt lat="42.9121233" lon="13.0294"><ele>548.0</ele><time>2026-05-02T11:01:31.982Z</time></trkpt><trkpt lat="42.912285" lon="13.0294433"><ele>548.0</ele><time>2026-05-02T11:01:32.982Z</time></trkpt><trkpt lat="42.912435" lon="13.0294667"><ele>545.25</ele><time>2026-05-02T11:01:33.982Z</time></trkpt><trkpt lat="42.912575" lon="13.029465"><ele>542.5</ele><time>2026-05-02T11:01:34.983Z</time></trkpt><trkpt lat="42.9127033" lon="13.0294233"><ele>539.75</ele><time>2026-05-02T11:01:35.981Z</time></trkpt><trkpt lat="42.91282" lon="13.02933"><ele>537.0</ele><time>2026-05-02T11:01:36.983Z</time></trkpt><trkpt lat="42.912925" lon="13.0291917"><ele>543.3333333333334</ele><time>2026-05-02T11:01:37.982Z</time></trkpt><trkpt lat="42.913025" lon="13.0290233"><ele>549.6666666666667</ele><time>2026-05-02T11:01:38.983Z</time></trkpt><trkpt lat="42.9131267" lon="13.0288433"><ele>556.0</ele><time>2026-05-02T11:01:39.982Z</time></trkpt><trkpt lat="42.9132383" lon="13.0286733"><ele>556.0</ele><time>2026-05-02T11:01:40.982Z</time></trkpt><trkpt lat="42.913355" lon="13.0285233"><ele>556.0</ele><time>2026-05-02T11:01:41.982Z</time></trkpt><trkpt lat="42.9134717" lon="13.028405"><ele>556.0</ele><time>2026-05-02T11:01:42.981Z</time></trkpt><trkpt lat="42.9135833" lon="13.0283383"><ele>556.0</ele><time>2026-05-02T11:01:43.981Z</time></trkpt><trkpt lat="42.91367" lon="13.02832"><ele>554.5</ele><time>2026-05-02T11:01:44.982Z</time></trkpt><trkpt lat="42.9137483" lon="13.0283267"><ele>553.0</ele><time>2026-05-02T11:01:45.983Z</time></trkpt><trkpt lat="42.91382" lon="13.0283517"><ele>551.5</ele><time>2026-05-02T11:01:46.982Z</time></trkpt><trkpt lat="42.9138917" lon="13.0283883"><ele>550.0</ele><time>2026-05-02T11:01:47.982Z</time></trkpt><trkpt lat="42.9139617" lon="13.0284383"><ele>548.5</ele><time>2026-05-02T11:01:48.982Z</time></trkpt><trkpt lat="42.9140367" lon="13.0284933"><ele>547.0</ele><time>2026-05-02T11:01:49.981Z</time></trkpt><trkpt lat="42.914115" lon="13.02854"><ele>547.0</ele><time>2026-05-02T11:01:50.982Z</time></trkpt><trkpt lat="42.9142" lon="13.02858"><ele>547.0</ele><time>2026-05-02T11:01:51.983Z</time></trkpt><trkpt lat="42.91429" lon="13.0286083"><ele>547.0</ele><time>2026-05-02T11:01:52.982Z</time></trkpt><trkpt lat="42.9143783" lon="13.0286233"><ele>547.0</ele><time>2026-05-02T11:01:53.982Z</time></trkpt><trkpt lat="42.9144533" lon="13.0286233"><ele>547.0</ele><time>2026-05-02T11:01:54.982Z</time></trkpt><trkpt lat="42.9145183" lon="13.0286167"><ele>547.0</ele><time>2026-05-02T11:01:55.981Z</time></trkpt><trkpt lat="42.9145983" lon="13.0285983"><ele>547.0</ele><time>2026-05-02T11:01:57.983Z</time></trkpt><trkpt lat="42.9145333" lon="13.0285717"><ele>547.0</ele><time>2026-05-02T11:02:16.981Z</time></trkpt><trkpt lat="42.9144433" lon="13.02858"><ele>547.0</ele><time>2026-05-02T11:02:17.983Z</time></trkpt><trkpt lat="42.9143283" lon="13.02857"><ele>547.0</ele><time>2026-05-02T11:02:18.982Z</time></trkpt><trkpt lat="42.9142033" lon="13.028545"><ele>547.0</ele><time>2026-05-02T11:02:19.983Z</time></trkpt><trkpt lat="42.9140917" lon="13.0284917"><ele>547.0</ele><time>2026-05-02T11:02:20.982Z</time></trkpt><trkpt lat="42.9139967" lon="13.0284383"><ele>547.0</ele><time>2026-05-02T11:02:21.981Z</time></trkpt><trkpt lat="42.9139167" lon="13.0283883"><ele>547.0</ele><time>2026-05-02T11:02:22.983Z</time></trkpt><trkpt lat="42.9138433" lon="13.0283433"><ele>547.0</ele><time>2026-05-02T11:02:23.982Z</time></trkpt><trkpt lat="42.9137483" lon="13.0282867"><ele>547.0</ele><time>2026-05-02T11:02:25.982Z</time></trkpt><trkpt lat="42.9137767" lon="13.0281983"><ele>547.0</ele><time>2026-05-02T11:02:29.983Z</time></trkpt><trkpt lat="42.913855" lon="13.028175"><ele>547.0</ele><time>2026-05-02T11:02:31.983Z</time></trkpt><trkpt lat="42.9139467" lon="13.02817"><ele>547.0</ele><time>2026-05-02T11:02:33.982Z</time></trkpt><trkpt lat="42.914025" lon="13.0282233"><ele>547.0</ele><time>2026-05-02T11:02:35.983Z</time></trkpt><trkpt lat="42.9140483" lon="13.0283367"><ele>547.0</ele><time>2026-05-02T11:02:37.982Z</time></trkpt><trkpt lat="42.914015" lon="13.0284717"><ele>547.0</ele><time>2026-05-02T11:02:39.983Z</time></trkpt><trkpt lat="42.91396" lon="13.0285833"><ele>547.0</ele><time>2026-05-02T11:02:41.982Z</time></trkpt><trkpt lat="42.9138867" lon="13.0286933"><ele>547.0</ele><time>2026-05-02T11:02:43.981Z</time></trkpt><trkpt lat="42.913835" lon="13.0287483"><ele>547.0</ele><time>2026-05-02T11:02:44.983Z</time></trkpt><trkpt lat="42.9137783" lon="13.0287983"><ele>547.0</ele><time>2026-05-02T11:02:45.983Z</time></trkpt><trkpt lat="42.9137017" lon="13.0288967"><ele>547.0</ele><time>2026-05-02T11:02:47.983Z</time></trkpt><trkpt lat="42.9137117" lon="13.0290033"><ele>547.0</ele><time>2026-05-02T11:02:49.982Z</time></trkpt><trkpt lat="42.913775" lon="13.0291367"><ele>546.1666666666667</ele><time>2026-05-02T11:02:51.983Z</time></trkpt><trkpt lat="42.9138033" lon="13.0292167"><ele>545.3333333333334</ele><time>2026-05-02T11:02:52.983Z</time></trkpt><trkpt lat="42.9138333" lon="13.0293033"><ele>544.5</ele><time>2026-05-02T11:02:53.982Z</time></trkpt><trkpt lat="42.9138733" lon="13.0294067"><ele>543.6666666666666</ele><time>2026-05-02T11:02:54.982Z</time></trkpt><trkpt lat="42.9139267" lon="13.0295233"><ele>542.8333333333333</ele><time>2026-05-02T11:02:55.983Z</time></trkpt><trkpt lat="42.913985" lon="13.0296433"><ele>542.0</ele><time>2026-05-02T11:02:56.982Z</time></trkpt><trkpt lat="42.9140383" lon="13.029765"><ele>542.0</ele><time>2026-05-02T11:02:57.983Z</time></trkpt><trkpt lat="42.9140883" lon="13.0298933"><ele>542.0</ele><time>2026-05-02T11:02:58.981Z</time></trkpt><trkpt lat="42.9141333" lon="13.030035"><ele>542.0</ele><time>2026-05-02T11:02:59.983Z</time></trkpt><trkpt lat="42.914175" lon="13.0301883"><ele>542.0</ele><time>2026-05-02T11:03:00.982Z</time></trkpt><trkpt lat="42.91421" lon="13.0303433"><ele>551.5</ele><time>2026-05-02T11:03:01.982Z</time></trkpt><trkpt lat="42.914245" lon="13.0305017"><ele>561.0</ele><time>2026-05-02T11:03:02.982Z</time></trkpt><trkpt lat="42.9142917" lon="13.0306633"><ele>570.5</ele><time>2026-05-02T11:03:03.983Z</time></trkpt><trkpt lat="42.914355" lon="13.0308217"><ele>580.0</ele><time>2026-05-02T11:03:04.983Z</time></trkpt><trkpt lat="42.914425" lon="13.030965"><ele>580.2</ele><time>2026-05-02T11:03:05.982Z</time></trkpt><trkpt lat="42.914495" lon="13.0310933"><ele>580.4</ele><time>2026-05-02T11:03:06.983Z</time></trkpt><trkpt lat="42.9145667" lon="13.0312017"><ele>580.6</ele><time>2026-05-02T11:03:07.982Z</time></trkpt><trkpt lat="42.9146417" lon="13.0312933"><ele>580.8</ele><time>2026-05-02T11:03:08.982Z</time></trkpt><trkpt lat="42.914725" lon="13.03137"><ele>581.0</ele><time>2026-05-02T11:03:09.982Z</time></trkpt><trkpt lat="42.9148183" lon="13.0314433"><ele>581.0</ele><time>2026-05-02T11:03:10.983Z</time></trkpt><trkpt lat="42.9149067" lon="13.0315167"><ele>581.0</ele><time>2026-05-02T11:03:11.982Z</time></trkpt><trkpt lat="42.9149817" lon="13.0315967"><ele>581.0</ele><time>2026-05-02T11:03:12.983Z</time></trkpt><trkpt lat="42.9150583" lon="13.03168"><ele>581.0</ele><time>2026-05-02T11:03:13.983Z</time></trkpt><trkpt lat="42.9151283" lon="13.0317583"><ele>581.0</ele><time>2026-05-02T11:03:14.982Z</time></trkpt><trkpt lat="42.9151817" lon="13.0318217"><ele>587.4</ele><time>2026-05-02T11:03:15.982Z</time></trkpt><trkpt lat="42.9152533" lon="13.0319483"><ele>593.8</ele><time>2026-05-02T11:03:17.982Z</time></trkpt><trkpt lat="42.915275" lon="13.032035"><ele>600.1999999999999</ele><time>2026-05-02T11:03:18.983Z</time></trkpt><trkpt lat="42.9152967" lon="13.032135"><ele>606.6</ele><time>2026-05-02T11:03:19.983Z</time></trkpt><trkpt lat="42.9153167" lon="13.03226"><ele>613.0</ele><time>2026-05-02T11:03:20.983Z</time></trkpt><trkpt lat="42.9153517" lon="13.0323967"><ele>608.25</ele><time>2026-05-02T11:03:21.983Z</time></trkpt><trkpt lat="42.9153933" lon="13.0325467"><ele>603.5</ele><time>2026-05-02T11:03:22.983Z</time></trkpt><trkpt lat="42.9154333" lon="13.0326967"><ele>598.75</ele><time>2026-05-02T11:03:23.983Z</time></trkpt><trkpt lat="42.9154667" lon="13.0328433"><ele>594.0</ele><time>2026-05-02T11:03:24.982Z</time></trkpt><trkpt lat="42.9154867" lon="13.0329867"><ele>594.0</ele><time>2026-05-02T11:03:25.983Z</time></trkpt><trkpt lat="42.91549" lon="13.03312"><ele>594.0</ele><time>2026-05-02T11:03:26.983Z</time></trkpt><trkpt lat="42.9154817" lon="13.0332533"><ele>594.0</ele><time>2026-05-02T11:03:27.982Z</time></trkpt><trkpt lat="42.9154817" lon="13.0333767"><ele>594.0</ele><time>2026-05-02T11:03:28.983Z</time></trkpt><trkpt lat="42.915495" lon="13.0334967"><ele>594.0</ele><time>2026-05-02T11:03:29.983Z</time></trkpt><trkpt lat="42.91553" lon="13.0336183"><ele>592.8</ele><time>2026-05-02T11:03:30.982Z</time></trkpt><trkpt lat="42.9155717" lon="13.0337417"><ele>591.5999999999999</ele><time>2026-05-02T11:03:31.983Z</time></trkpt><trkpt lat="42.9156117" lon="13.0338733"><ele>590.4</ele><time>2026-05-02T11:03:32.982Z</time></trkpt><trkpt lat="42.91564" lon="13.0339983"><ele>589.1999999999999</ele><time>2026-05-02T11:03:33.983Z</time></trkpt><trkpt lat="42.9156633" lon="13.0341083"><ele>588.0</ele><time>2026-05-02T11:03:34.983Z</time></trkpt><trkpt lat="42.9156867" lon="13.0341983"><ele>587.1999999999999</ele><time>2026-05-02T11:03:35.982Z</time></trkpt><trkpt lat="42.9157383" lon="13.03435"><ele>586.4</ele><time>2026-05-02T11:03:37.982Z</time></trkpt><trkpt lat="42.9158" lon="13.0344267"><ele>585.5999999999999</ele><time>2026-05-02T11:03:38.983Z</time></trkpt><trkpt lat="42.9158867" lon="13.0344933"><ele>584.8</ele><time>2026-05-02T11:03:39.982Z</time></trkpt><trkpt lat="42.91598" lon="13.03454"><ele>584.0</ele><time>2026-05-02T11:03:40.985Z</time></trkpt><trkpt lat="42.9160767" lon="13.0345767"><ele>585.6666666666666</ele><time>2026-05-02T11:03:41.983Z</time></trkpt><trkpt lat="42.9161567" lon="13.0346033"><ele>587.3333333333333</ele><time>2026-05-02T11:03:42.983Z</time></trkpt><trkpt lat="42.9162433" lon="13.034585"><ele>589.0</ele><time>2026-05-02T11:03:43.981Z</time></trkpt><trkpt lat="42.91632" lon="13.0345517"><ele>590.6666666666666</ele><time>2026-05-02T11:03:44.985Z</time></trkpt><trkpt lat="42.9164" lon="13.0345083"><ele>592.3333333333334</ele><time>2026-05-02T11:03:45.982Z</time></trkpt><trkpt lat="42.916495" lon="13.0344633"><ele>594.0</ele><time>2026-05-02T11:03:46.982Z</time></trkpt><trkpt lat="42.916595" lon="13.0344217"><ele>594.0</ele><time>2026-05-02T11:03:47.982Z</time></trkpt><trkpt lat="42.9167083" lon="13.03438"><ele>594.0</ele><time>2026-05-02T11:03:48.981Z</time></trkpt><trkpt lat="42.91681" lon="13.0343633"><ele>594.0</ele><time>2026-05-02T11:03:49.981Z</time></trkpt><trkpt lat="42.9169033" lon="13.0343717"><ele>594.0</ele><time>2026-05-02T11:03:50.983Z</time></trkpt><trkpt lat="42.9170133" lon="13.03438"><ele>594.0</ele><time>2026-05-02T11:03:51.982Z</time></trkpt><trkpt lat="42.9171283" lon="13.03438"><ele>593.6</ele><time>2026-05-02T11:03:52.981Z</time></trkpt><trkpt lat="42.917245" lon="13.0343817"><ele>593.2</ele><time>2026-05-02T11:03:53.982Z</time></trkpt><trkpt lat="42.9173567" lon="13.0343833"><ele>592.8000000000001</ele><time>2026-05-02T11:03:54.981Z</time></trkpt><trkpt lat="42.9174567" lon="13.0343883"><ele>592.4</ele><time>2026-05-02T11:03:55.981Z</time></trkpt><trkpt lat="42.9175333" lon="13.0344117"><ele>592.0</ele><time>2026-05-02T11:03:56.983Z</time></trkpt><trkpt lat="42.9175967" lon="13.0344433"><ele>592.6666666666667</ele><time>2026-05-02T11:03:57.981Z</time></trkpt><trkpt lat="42.91766" lon="13.0344967"><ele>593.3333333333334</ele><time>2026-05-02T11:03:58.982Z</time></trkpt><trkpt lat="42.9177217" lon="13.03455"><ele>594.0</ele><time>2026-05-02T11:03:59.982Z</time></trkpt><trkpt lat="42.9177917" lon="13.03459"><ele>594.6666666666666</ele><time>2026-05-02T11:04:00.981Z</time></trkpt><trkpt lat="42.9178733" lon="13.03461"><ele>595.3333333333333</ele><time>2026-05-02T11:04:01.982Z</time></trkpt><trkpt lat="42.9179733" lon="13.034625"><ele>596.0</ele><time>2026-05-02T11:04:02.981Z</time></trkpt><trkpt lat="42.9181017" lon="13.0346033"><ele>596.0</ele><time>2026-05-02T11:04:03.981Z</time></trkpt><trkpt lat="42.9182183" lon="13.03458"><ele>596.0</ele><time>2026-05-02T11:04:04.981Z</time></trkpt><trkpt lat="42.9183267" lon="13.03457"><ele>596.0</ele><time>2026-05-02T11:04:05.981Z</time></trkpt><trkpt lat="42.918435" lon="13.0345667"><ele>596.0</ele><time>2026-05-02T11:04:06.982Z</time></trkpt><trkpt lat="42.9185417" lon="13.03457"><ele>596.0</ele><time>2026-05-02T11:04:07.983Z</time></trkpt><trkpt lat="42.9186367" lon="13.0345817"><ele>598.2</ele><time>2026-05-02T11:04:08.983Z</time></trkpt><trkpt lat="42.9187317" lon="13.0345983"><ele>600.4000000000001</ele><time>2026-05-02T11:04:09.982Z</time></trkpt><trkpt lat="42.9188217" lon="13.0346167"><ele>602.6</ele><time>2026-05-02T11:04:10.981Z</time></trkpt><trkpt lat="42.91892" lon="13.0346317"><ele>604.8000000000001</ele><time>2026-05-02T11:04:11.982Z</time></trkpt><trkpt lat="42.9190133" lon="13.0346483"><ele>607.0</ele><time>2026-05-02T11:04:12.983Z</time></trkpt><trkpt lat="42.9190917" lon="13.0346683"><ele>607.0</ele><time>2026-05-02T11:04:13.981Z</time></trkpt><trkpt lat="42.919155" lon="13.034685"><ele>607.0</ele><time>2026-05-02T11:04:14.981Z</time></trkpt><trkpt lat="42.91922" lon="13.034705"><ele>607.0</ele><time>2026-05-02T11:04:15.982Z</time></trkpt><trkpt lat="42.9192917" lon="13.0347283"><ele>607.0</ele><time>2026-05-02T11:04:16.982Z</time></trkpt><trkpt lat="42.9193683" lon="13.03474"><ele>607.0</ele><time>2026-05-02T11:04:17.981Z</time></trkpt><trkpt lat="42.9194483" lon="13.034735"><ele>607.0</ele><time>2026-05-02T11:04:18.981Z</time></trkpt><trkpt lat="42.919535" lon="13.0347133"><ele>609.1666666666667</ele><time>2026-05-02T11:04:19.982Z</time></trkpt><trkpt lat="42.9196167" lon="13.0346767"><ele>611.3333333333334</ele><time>2026-05-02T11:04:20.982Z</time></trkpt><trkpt lat="42.91969" lon="13.0346317"><ele>613.5</ele><time>2026-05-02T11:04:21.982Z</time></trkpt><trkpt lat="42.9197667" lon="13.0345767"><ele>615.6666666666666</ele><time>2026-05-02T11:04:22.981Z</time></trkpt><trkpt lat="42.9198383" lon="13.0345117"><ele>617.8333333333333</ele><time>2026-05-02T11:04:23.983Z</time></trkpt><trkpt lat="42.9199017" lon="13.0344433"><ele>620.0</ele><time>2026-05-02T11:04:24.982Z</time></trkpt><trkpt lat="42.91995" lon="13.0343717"><ele>620.0</ele><time>2026-05-02T11:04:25.983Z</time></trkpt><trkpt lat="42.919985" lon="13.0342933"><ele>620.0</ele><time>2026-05-02T11:04:26.982Z</time></trkpt><trkpt lat="42.9200183" lon="13.0342167"><ele>620.0</ele><time>2026-05-02T11:04:27.981Z</time></trkpt><trkpt lat="42.92005" lon="13.0341417"><ele>620.0</ele><time>2026-05-02T11:04:28.982Z</time></trkpt><trkpt lat="42.9201383" lon="13.03405"><ele>620.0</ele><time>2026-05-02T11:04:30.983Z</time></trkpt><trkpt lat="42.920205" lon="13.0340083"><ele>620.0</ele><time>2026-05-02T11:04:31.982Z</time></trkpt><trkpt lat="42.9202817" lon="13.0339567"><ele>621.6666666666666</ele><time>2026-05-02T11:04:32.982Z</time></trkpt><trkpt lat="42.9203567" lon="13.0338917"><ele>623.3333333333333</ele><time>2026-05-02T11:04:33.982Z</time></trkpt><trkpt lat="42.920425" lon="13.0338117"><ele>625.0</ele><time>2026-05-02T11:04:34.982Z</time></trkpt><trkpt lat="42.9204833" lon="13.0337217"><ele>626.6666666666666</ele><time>2026-05-02T11:04:35.983Z</time></trkpt><trkpt lat="42.92053" lon="13.0336233"><ele>628.3333333333334</ele><time>2026-05-02T11:04:36.982Z</time></trkpt><trkpt lat="42.92057" lon="13.03351"><ele>630.0</ele><time>2026-05-02T11:04:37.983Z</time></trkpt><trkpt lat="42.9206233" lon="13.0333917"><ele>631.8</ele><time>2026-05-02T11:04:38.982Z</time></trkpt><trkpt lat="42.9206817" lon="13.0332733"><ele>633.6</ele><time>2026-05-02T11:04:39.982Z</time></trkpt><trkpt lat="42.920755" lon="13.0331633"><ele>635.4</ele><time>2026-05-02T11:04:40.983Z</time></trkpt><trkpt lat="42.92082" lon="13.0330683"><ele>637.2</ele><time>2026-05-02T11:04:41.983Z</time></trkpt><trkpt lat="42.920895" lon="13.0330067"><ele>639.0</ele><time>2026-05-02T11:04:42.982Z</time></trkpt><trkpt lat="42.9209833" lon="13.0329533"><ele>639.0</ele><time>2026-05-02T11:04:43.982Z</time></trkpt><trkpt lat="42.9210867" lon="13.0329067"><ele>639.0</ele><time>2026-05-02T11:04:44.982Z</time></trkpt><trkpt lat="42.9212" lon="13.03285"><ele>639.0</ele><time>2026-05-02T11:04:45.981Z</time></trkpt><trkpt lat="42.92132" lon="13.03278"><ele>639.0</ele><time>2026-05-02T11:04:46.981Z</time></trkpt><trkpt lat="42.9214367" lon="13.03271"><ele>639.0</ele><time>2026-05-02T11:04:47.983Z</time></trkpt><trkpt lat="42.921545" lon="13.0326467"><ele>639.0</ele><time>2026-05-02T11:04:48.982Z</time></trkpt><trkpt lat="42.9216517" lon="13.0325833"><ele>639.0</ele><time>2026-05-02T11:04:49.982Z</time></trkpt><trkpt lat="42.921755" lon="13.0325167"><ele>639.0</ele><time>2026-05-02T11:04:50.986Z</time></trkpt><trkpt lat="42.9218533" lon="13.032465"><ele>641.0</ele><time>2026-05-02T11:04:51.982Z</time></trkpt><trkpt lat="42.9219517" lon="13.0324333"><ele>643.0</ele><time>2026-05-02T11:04:52.983Z</time></trkpt><trkpt lat="42.92204" lon="13.032425"><ele>645.0</ele><time>2026-05-02T11:04:53.981Z</time></trkpt><trkpt lat="42.922125" lon="13.032435"><ele>647.0</ele><time>2026-05-02T11:04:54.983Z</time></trkpt><trkpt lat="42.9221983" lon="13.032445"><ele>649.0</ele><time>2026-05-02T11:04:55.982Z</time></trkpt><trkpt lat="42.9222883" lon="13.0324983"><ele>651.0</ele><time>2026-05-02T11:04:57.982Z</time></trkpt><trkpt lat="42.9223267" lon="13.0326283"><ele>651.0</ele><time>2026-05-02T11:04:59.981Z</time></trkpt><trkpt lat="42.922355" lon="13.0328"><ele>651.0</ele><time>2026-05-02T11:05:01.982Z</time></trkpt><trkpt lat="42.9223867" lon="13.0328867"><ele>651.0</ele><time>2026-05-02T11:05:02.982Z</time></trkpt><trkpt lat="42.9224133" lon="13.03297"><ele>651.0</ele><time>2026-05-02T11:05:03.983Z</time></trkpt><trkpt lat="42.9224333" lon="13.03306"><ele>651.0</ele><time>2026-05-02T11:05:04.983Z</time></trkpt><trkpt lat="42.9224367" lon="13.0331567"><ele>651.0</ele><time>2026-05-02T11:05:05.981Z</time></trkpt><trkpt lat="42.9224333" lon="13.0332583"><ele>651.1999999999999</ele><time>2026-05-02T11:05:06.981Z</time></trkpt><trkpt lat="42.9224317" lon="13.03337"><ele>651.4</ele><time>2026-05-02T11:05:07.983Z</time></trkpt><trkpt lat="42.9224417" lon="13.0334967"><ele>651.6</ele><time>2026-05-02T11:05:08.982Z</time></trkpt><trkpt lat="42.9224633" lon="13.0336317"><ele>651.8</ele><time>2026-05-02T11:05:09.981Z</time></trkpt><trkpt lat="42.92249" lon="13.0337583"><ele>652.0</ele><time>2026-05-02T11:05:10.984Z</time></trkpt><trkpt lat="42.92252" lon="13.0338667"><ele>653.3333333333334</ele><time>2026-05-02T11:05:11.981Z</time></trkpt><trkpt lat="42.9225667" lon="13.0339517"><ele>654.6666666666667</ele><time>2026-05-02T11:05:12.982Z</time></trkpt><trkpt lat="42.922625" lon="13.0340233"><ele>656.0</ele><time>2026-05-02T11:05:13.982Z</time></trkpt><trkpt lat="42.9226817" lon="13.0340883"><ele>657.3333333333334</ele><time>2026-05-02T11:05:14.982Z</time></trkpt><trkpt lat="42.9227383" lon="13.0341483"><ele>658.6666666666666</ele><time>2026-05-02T11:05:15.981Z</time></trkpt><trkpt lat="42.9228033" lon="13.0341883"><ele>660.0</ele><time>2026-05-02T11:05:16.981Z</time></trkpt><trkpt lat="42.9228817" lon="13.0342017"><ele>660.0</ele><time>2026-05-02T11:05:17.982Z</time></trkpt><trkpt lat="42.9229733" lon="13.0342067"><ele>660.0</ele><time>2026-05-02T11:05:18.982Z</time></trkpt><trkpt lat="42.9230683" lon="13.0342183"><ele>660.0</ele><time>2026-05-02T11:05:19.982Z</time></trkpt><trkpt lat="42.923165" lon="13.0342583"><ele>660.0</ele><time>2026-05-02T11:05:20.982Z</time></trkpt><trkpt lat="42.9232567" lon="13.0343133"><ele>660.0</ele><time>2026-05-02T11:05:21.982Z</time></trkpt><trkpt lat="42.9233583" lon="13.034365"><ele>662.0</ele><time>2026-05-02T11:05:22.983Z</time></trkpt><trkpt lat="42.9234433" lon="13.0344083"><ele>664.0</ele><time>2026-05-02T11:05:23.982Z</time></trkpt><trkpt lat="42.9235033" lon="13.0344467"><ele>666.0</ele><time>2026-05-02T11:05:24.981Z</time></trkpt><trkpt lat="42.92356" lon="13.0345117"><ele>668.0</ele><time>2026-05-02T11:05:26.984Z</time></trkpt><trkpt lat="42.9235617" lon="13.0346417"><ele>670.0</ele><time>2026-05-02T11:05:29.982Z</time></trkpt><trkpt lat="42.923605" lon="13.0347183"><ele>672.0</ele><time>2026-05-02T11:05:31.983Z</time></trkpt><trkpt lat="42.9236933" lon="13.0347467"><ele>672.0</ele><time>2026-05-02T11:05:33.983Z</time></trkpt><trkpt lat="42.9238317" lon="13.03475"><ele>672.0</ele><time>2026-05-02T11:05:35.982Z</time></trkpt><trkpt lat="42.92392" lon="13.034755"><ele>672.0</ele><time>2026-05-02T11:05:36.982Z</time></trkpt><trkpt lat="42.92401" lon="13.0347567"><ele>672.0</ele><time>2026-05-02T11:05:37.983Z</time></trkpt><trkpt lat="42.9240967" lon="13.0347583"><ele>672.0</ele><time>2026-05-02T11:05:38.982Z</time></trkpt><trkpt lat="42.92418" lon="13.034755"><ele>673.8333333333334</ele><time>2026-05-02T11:05:39.981Z</time></trkpt><trkpt lat="42.9242483" lon="13.03474"><ele>675.6666666666666</ele><time>2026-05-02T11:05:40.983Z</time></trkpt><trkpt lat="42.9243133" lon="13.0347167"><ele>677.5</ele><time>2026-05-02T11:05:41.983Z</time></trkpt><trkpt lat="42.9243867" lon="13.034685"><ele>679.3333333333333</ele><time>2026-05-02T11:05:42.983Z</time></trkpt><trkpt lat="42.9244583" lon="13.0346633"><ele>681.1666666666666</ele><time>2026-05-02T11:05:43.982Z</time></trkpt><trkpt lat="42.9245383" lon="13.0346367"><ele>683.0</ele><time>2026-05-02T11:05:44.982Z</time></trkpt><trkpt lat="42.9246217" lon="13.0346033"><ele>683.0</ele><time>2026-05-02T11:05:45.982Z</time></trkpt><trkpt lat="42.92471" lon="13.0345683"><ele>683.0</ele><time>2026-05-02T11:05:46.982Z</time></trkpt><trkpt lat="42.92481" lon="13.0345267"><ele>683.0</ele><time>2026-05-02T11:05:47.982Z</time></trkpt><trkpt lat="42.924915" lon="13.0344883"><ele>683.0</ele><time>2026-05-02T11:05:48.982Z</time></trkpt><trkpt lat="42.92502" lon="13.0344617"><ele>683.0</ele><time>2026-05-02T11:05:49.982Z</time></trkpt><trkpt lat="42.92513" lon="13.0344417"><ele>684.8</ele><time>2026-05-02T11:05:50.982Z</time></trkpt><trkpt lat="42.9252433" lon="13.03442"><ele>686.5999999999999</ele><time>2026-05-02T11:05:51.983Z</time></trkpt><trkpt lat="42.92535" lon="13.0344"><ele>688.4000000000001</ele><time>2026-05-02T11:05:52.982Z</time></trkpt><trkpt lat="42.9254483" lon="13.03438"><ele>690.2</ele><time>2026-05-02T11:05:53.982Z</time></trkpt><trkpt lat="42.9255467" lon="13.034365"><ele>692.0</ele><time>2026-05-02T11:05:54.983Z</time></trkpt><trkpt lat="42.925645" lon="13.0343467"><ele>692.0</ele><time>2026-05-02T11:05:55.981Z</time></trkpt><trkpt lat="42.9257483" lon="13.0343283"><ele>692.0</ele><time>2026-05-02T11:05:56.982Z</time></trkpt><trkpt lat="42.9258467" lon="13.03433"><ele>692.0</ele><time>2026-05-02T11:05:57.982Z</time></trkpt><trkpt lat="42.9259433" lon="13.0343533"><ele>692.0</ele><time>2026-05-02T11:05:58.982Z</time></trkpt><trkpt lat="42.9260433" lon="13.034385"><ele>692.0</ele><time>2026-05-02T11:05:59.982Z</time></trkpt><trkpt lat="42.9261367" lon="13.0344133"><ele>693.5714285714286</ele><time>2026-05-02T11:06:00.983Z</time></trkpt><trkpt lat="42.9262117" lon="13.03442"><ele>695.1428571428572</ele><time>2026-05-02T11:06:01.984Z</time></trkpt><trkpt lat="42.9262767" lon="13.0344083"><ele>696.7142857142858</ele><time>2026-05-02T11:06:02.983Z</time></trkpt><trkpt lat="42.9263333" lon="13.0343583"><ele>698.2857142857142</ele><time>2026-05-02T11:06:03.983Z</time></trkpt><trkpt lat="42.9263883" lon="13.0342817"><ele>699.8571428571429</ele><time>2026-05-02T11:06:04.982Z</time></trkpt><trkpt lat="42.9264467" lon="13.0342217"><ele>701.4285714285714</ele><time>2026-05-02T11:06:05.983Z</time></trkpt><trkpt lat="42.9265083" lon="13.0341667"><ele>703.0</ele><time>2026-05-02T11:06:06.982Z</time></trkpt><trkpt lat="42.9265783" lon="13.0341267"><ele>705.1666666666667</ele><time>2026-05-02T11:06:07.982Z</time></trkpt><trkpt lat="42.92666" lon="13.0340933"><ele>707.3333333333334</ele><time>2026-05-02T11:06:08.983Z</time></trkpt><trkpt lat="42.9267417" lon="13.0340717"><ele>709.5</ele><time>2026-05-02T11:06:09.983Z</time></trkpt><trkpt lat="42.9268067" lon="13.0340783"><ele>711.6666666666666</ele><time>2026-05-02T11:06:10.983Z</time></trkpt><trkpt lat="42.9268867" lon="13.034175"><ele>713.8333333333333</ele><time>2026-05-02T11:06:12.982Z</time></trkpt><trkpt lat="42.9269067" lon="13.03426"><ele>716.0</ele><time>2026-05-02T11:06:13.981Z</time></trkpt><trkpt lat="42.926925" lon="13.0343583"><ele>716.0</ele><time>2026-05-02T11:06:14.982Z</time></trkpt><trkpt lat="42.9269433" lon="13.03447"><ele>716.0</ele><time>2026-05-02T11:06:15.982Z</time></trkpt><trkpt lat="42.9269717" lon="13.03457"><ele>716.0</ele><time>2026-05-02T11:06:16.983Z</time></trkpt><trkpt lat="42.9270117" lon="13.0346467"><ele>716.0</ele><time>2026-05-02T11:06:17.982Z</time></trkpt><trkpt lat="42.9271117" lon="13.0347417"><ele>716.0</ele><time>2026-05-02T11:06:19.982Z</time></trkpt><trkpt lat="42.927175" lon="13.03475"><ele>716.0</ele><time>2026-05-02T11:06:20.982Z</time></trkpt><trkpt lat="42.92724" lon="13.0347433"><ele>716.0</ele><time>2026-05-02T11:06:21.982Z</time></trkpt><trkpt lat="42.9273533" lon="13.034705"><ele>716.0</ele><time>2026-05-02T11:06:23.983Z</time></trkpt><trkpt lat="42.9274167" lon="13.0346917"><ele>716.0</ele><time>2026-05-02T11:06:24.982Z</time></trkpt><trkpt lat="42.927545" lon="13.034705"><ele>716.0</ele><time>2026-05-02T11:06:26.983Z</time></trkpt><trkpt lat="42.927615" lon="13.0347083"><ele>716.0</ele><time>2026-05-02T11:06:27.982Z</time></trkpt><trkpt lat="42.927685" lon="13.034705"><ele>717.5714285714287</ele><time>2026-05-02T11:06:28.982Z</time></trkpt><trkpt lat="42.9277583" lon="13.034685"><ele>719.1428571428571</ele><time>2026-05-02T11:06:29.983Z</time></trkpt><trkpt lat="42.9278267" lon="13.0346633"><ele>720.7142857142858</ele><time>2026-05-02T11:06:30.982Z</time></trkpt><trkpt lat="42.927895" lon="13.03464"><ele>722.2857142857143</ele><time>2026-05-02T11:06:31.984Z</time></trkpt><trkpt lat="42.9279633" lon="13.034625"><ele>723.8571428571429</ele><time>2026-05-02T11:06:32.983Z</time></trkpt><trkpt lat="42.9280333" lon="13.034615"><ele>725.4285714285714</ele><time>2026-05-02T11:06:33.982Z</time></trkpt><trkpt lat="42.9281033" lon="13.0346083"><ele>727.0</ele><time>2026-05-02T11:06:34.983Z</time></trkpt><trkpt lat="42.9281717" lon="13.034605"><ele>727.0</ele><time>2026-05-02T11:06:35.983Z</time></trkpt><trkpt lat="42.92824" lon="13.0345967"><ele>727.0</ele><time>2026-05-02T11:06:36.983Z</time></trkpt><trkpt lat="42.9283133" lon="13.0345783"><ele>727.0</ele><time>2026-05-02T11:06:37.983Z</time></trkpt><trkpt lat="42.9283917" lon="13.03455"><ele>727.0</ele><time>2026-05-02T11:06:38.983Z</time></trkpt><trkpt lat="42.9284633" lon="13.034515"><ele>727.0</ele><time>2026-05-02T11:06:39.982Z</time></trkpt><trkpt lat="42.928535" lon="13.0344667"><ele>727.0</ele><time>2026-05-02T11:06:40.983Z</time></trkpt><trkpt lat="42.928595" lon="13.0344283"><ele>727.0</ele><time>2026-05-02T11:06:41.982Z</time></trkpt><trkpt lat="42.9287083" lon="13.0344017"><ele>729.6666666666667</ele><time>2026-05-02T11:06:43.983Z</time></trkpt><trkpt lat="42.928775" lon="13.0344133"><ele>732.3333333333334</ele><time>2026-05-02T11:06:44.982Z</time></trkpt><trkpt lat="42.9288433" lon="13.0344233"><ele>735.0</ele><time>2026-05-02T11:06:45.983Z</time></trkpt><trkpt lat="42.92891" lon="13.0344183"><ele>737.6666666666666</ele><time>2026-05-02T11:06:46.983Z</time></trkpt><trkpt lat="42.928975" lon="13.0344067"><ele>740.3333333333333</ele><time>2026-05-02T11:06:47.982Z</time></trkpt><trkpt lat="42.9290917" lon="13.0343767"><ele>743.0</ele><time>2026-05-02T11:06:49.982Z</time></trkpt><trkpt lat="42.929155" lon="13.034355"><ele>743.0</ele><time>2026-05-02T11:06:51.982Z</time></trkpt><trkpt lat="42.9291283" lon="13.03445"><ele>743.0</ele><time>2026-05-02T11:07:09.982Z</time></trkpt><trkpt lat="42.92905" lon="13.034565"><ele>743.0</ele><time>2026-05-02T11:07:11.982Z</time></trkpt><trkpt lat="42.92901" lon="13.034635"><ele>743.0</ele><time>2026-05-02T11:07:12.983Z</time></trkpt><trkpt lat="42.9289283" lon="13.0347483"><ele>743.0</ele><time>2026-05-02T11:07:14.983Z</time></trkpt><trkpt lat="42.9288817" lon="13.03481"><ele>743.0</ele><time>2026-05-02T11:07:16.982Z</time></trkpt><trkpt lat="42.9289167" lon="13.034905"><ele>743.0</ele><time>2026-05-02T11:07:20.981Z</time></trkpt><trkpt lat="42.9290117" lon="13.0349333"><ele>743.0</ele><time>2026-05-02T11:07:23.981Z</time></trkpt><trkpt lat="42.9291033" lon="13.0349233"><ele>743.0</ele><time>2026-05-02T11:07:25.982Z</time></trkpt><trkpt lat="42.929205" lon="13.0349233"><ele>743.0</ele><time>2026-05-02T11:07:27.982Z</time></trkpt><trkpt lat="42.9293117" lon="13.0349467"><ele>743.0</ele><time>2026-05-02T11:07:29.982Z</time></trkpt><trkpt lat="42.929415" lon="13.034995"><ele>746.5999999999999</ele><time>2026-05-02T11:07:31.982Z</time></trkpt><trkpt lat="42.92953" lon="13.0350483"><ele>750.1999999999999</ele><time>2026-05-02T11:07:33.981Z</time></trkpt><trkpt lat="42.9295933" lon="13.03507"><ele>753.8</ele><time>2026-05-02T11:07:34.981Z</time></trkpt><trkpt lat="42.9297217" lon="13.0351"><ele>757.4</ele><time>2026-05-02T11:07:36.981Z</time></trkpt><trkpt lat="42.9297883" lon="13.0351167"><ele>761.0</ele><time>2026-05-02T11:07:37.981Z</time></trkpt><trkpt lat="42.929855" lon="13.035135"><ele>761.0</ele><time>2026-05-02T11:07:38.982Z</time></trkpt><trkpt lat="42.9299267" lon="13.0351533"><ele>761.0</ele><time>2026-05-02T11:07:39.982Z</time></trkpt><trkpt lat="42.9300117" lon="13.0351717"><ele>761.0</ele><time>2026-05-02T11:07:40.984Z</time></trkpt><trkpt lat="42.9300933" lon="13.0352"><ele>761.0</ele><time>2026-05-02T11:07:41.982Z</time></trkpt><trkpt lat="42.9301667" lon="13.0352383"><ele>761.0</ele><time>2026-05-02T11:07:42.982Z</time></trkpt><trkpt lat="42.9302417" lon="13.0352883"><ele>761.0</ele><time>2026-05-02T11:07:43.981Z</time></trkpt><trkpt lat="42.93032" lon="13.0353433"><ele>763.4</ele><time>2026-05-02T11:07:44.983Z</time></trkpt><trkpt lat="42.9303933" lon="13.0354017"><ele>765.8</ele><time>2026-05-02T11:07:45.981Z</time></trkpt><trkpt lat="42.9304683" lon="13.0354483"><ele>768.1999999999999</ele><time>2026-05-02T11:07:46.982Z</time></trkpt><trkpt lat="42.9305517" lon="13.035485"><ele>770.5999999999999</ele><time>2026-05-02T11:07:47.981Z</time></trkpt><trkpt lat="42.9306517" lon="13.0354983"><ele>773.0</ele><time>2026-05-02T11:07:48.982Z</time></trkpt><trkpt lat="42.9307633" lon="13.035495"><ele>773.0</ele><time>2026-05-02T11:07:49.982Z</time></trkpt><trkpt lat="42.9308667" lon="13.0354967"><ele>773.0</ele><time>2026-05-02T11:07:50.981Z</time></trkpt><trkpt lat="42.93097" lon="13.035505"><ele>773.0</ele><time>2026-05-02T11:07:51.981Z</time></trkpt><trkpt lat="42.9310733" lon="13.0355083"><ele>773.0</ele><time>2026-05-02T11:07:52.981Z</time></trkpt><trkpt lat="42.93118" lon="13.0355017"><ele>773.0</ele><time>2026-05-02T11:07:53.981Z</time></trkpt><trkpt lat="42.9312967" lon="13.0354767"><ele>776.0</ele><time>2026-05-02T11:07:54.982Z</time></trkpt><trkpt lat="42.9314167" lon="13.0354483"><ele>779.0</ele><time>2026-05-02T11:07:55.982Z</time></trkpt><trkpt lat="42.9315267" lon="13.035425"><ele>782.0</ele><time>2026-05-02T11:07:56.983Z</time></trkpt><trkpt lat="42.93163" lon="13.0354067"><ele>785.0</ele><time>2026-05-02T11:07:57.983Z</time></trkpt><trkpt lat="42.9317283" lon="13.0353967"><ele>788.0</ele><time>2026-05-02T11:07:58.982Z</time></trkpt><trkpt lat="42.93182" lon="13.0353817"><ele>791.1428571428571</ele><time>2026-05-02T11:07:59.982Z</time></trkpt><trkpt lat="42.9318933" lon="13.0353433"><ele>794.2857142857143</ele><time>2026-05-02T11:08:00.981Z</time></trkpt><trkpt lat="42.93195" lon="13.03529"><ele>797.4285714285713</ele><time>2026-05-02T11:08:01.982Z</time></trkpt><trkpt lat="42.9319917" lon="13.0352183"><ele>800.5714285714286</ele><time>2026-05-02T11:08:02.982Z</time></trkpt><trkpt lat="42.9320333" lon="13.0351333"><ele>803.7142857142857</ele><time>2026-05-02T11:08:03.981Z</time></trkpt><trkpt lat="42.932075" lon="13.0350517"><ele>806.8571428571428</ele><time>2026-05-02T11:08:04.981Z</time></trkpt><trkpt lat="42.932115" lon="13.0349783"><ele>810.0</ele><time>2026-05-02T11:08:05.981Z</time></trkpt><trkpt lat="42.932165" lon="13.034915"><ele>810.0</ele><time>2026-05-02T11:08:06.982Z</time></trkpt><trkpt lat="42.9322167" lon="13.0348533"><ele>810.0</ele><time>2026-05-02T11:08:07.981Z</time></trkpt><trkpt lat="42.9322733" lon="13.0347883"><ele>810.0</ele><time>2026-05-02T11:08:08.981Z</time></trkpt><trkpt lat="42.9323333" lon="13.034725"><ele>810.0</ele><time>2026-05-02T11:08:09.982Z</time></trkpt><trkpt lat="42.9323967" lon="13.0346667"><ele>810.0</ele><time>2026-05-02T11:08:10.981Z</time></trkpt><trkpt lat="42.9324517" lon="13.0346083"><ele>810.0</ele><time>2026-05-02T11:08:11.981Z</time></trkpt><trkpt lat="42.9325333" lon="13.0344883"><ele>814.2</ele><time>2026-05-02T11:08:13.981Z</time></trkpt><trkpt lat="42.932575" lon="13.034335"><ele>818.4</ele><time>2026-05-02T11:08:15.981Z</time></trkpt><trkpt lat="42.93259" lon="13.0342483"><ele>822.5999999999999</ele><time>2026-05-02T11:08:16.982Z</time></trkpt><trkpt lat="42.9325917" lon="13.034085"><ele>826.8</ele><time>2026-05-02T11:08:18.981Z</time></trkpt><trkpt lat="42.9325483" lon="13.03394"><ele>831.0</ele><time>2026-05-02T11:08:20.981Z</time></trkpt><trkpt lat="42.932465" lon="13.033845"><ele>831.0</ele><time>2026-05-02T11:08:22.982Z</time></trkpt><trkpt lat="42.9324233" lon="13.0337733"><ele>831.0</ele><time>2026-05-02T11:08:24.982Z</time></trkpt><trkpt lat="42.9324717" lon="13.0338367"><ele>831.0</ele><time>2026-05-02T11:08:47.983Z</time></trkpt><trkpt lat="42.9325383" lon="13.0339083"><ele>831.0</ele><time>2026-05-02T11:08:49.982Z</time></trkpt><trkpt lat="42.9325983" lon="13.0340217"><ele>831.0</ele><time>2026-05-02T11:08:51.982Z</time></trkpt><trkpt lat="42.9326083" lon="13.0341683"><ele>831.0</ele><time>2026-05-02T11:08:53.982Z</time></trkpt><trkpt lat="42.9325983" lon="13.0342567"><ele>830.9999999999999</ele><time>2026-05-02T11:08:54.982Z</time></trkpt><trkpt lat="42.9325867" lon="13.0343433"><ele>831.0</ele><time>2026-05-02T11:08:55.982Z</time></trkpt><trkpt lat="42.9325667" lon="13.0344283"><ele>831.0</ele><time>2026-05-02T11:08:56.983Z</time></trkpt><trkpt lat="42.9325333" lon="13.0345067"><ele>831.0</ele><time>2026-05-02T11:08:57.981Z</time></trkpt><trkpt lat="42.9324883" lon="13.034575"><ele>831.0</ele><time>2026-05-02T11:08:58.982Z</time></trkpt><trkpt lat="42.932435" lon="13.0346417"><ele>830.9999999999999</ele><time>2026-05-02T11:08:59.982Z</time></trkpt><trkpt lat="42.9323733" lon="13.0347033"><ele>831.0</ele><time>2026-05-02T11:09:00.981Z</time></trkpt><trkpt lat="42.93231" lon="13.0347683"><ele>828.1428571428571</ele><time>2026-05-02T11:09:01.981Z</time></trkpt><trkpt lat="42.93225" lon="13.0348283"><ele>825.2857142857142</ele><time>2026-05-02T11:09:02.983Z</time></trkpt><trkpt lat="42.93219" lon="13.034885"><ele>822.4285714285713</ele><time>2026-05-02T11:09:03.983Z</time></trkpt><trkpt lat="42.9321317" lon="13.034945"><ele>819.5714285714286</ele><time>2026-05-02T11:09:04.982Z</time></trkpt><trkpt lat="42.9320817" lon="13.0350133"><ele>816.7142857142858</ele><time>2026-05-02T11:09:05.982Z</time></trkpt><trkpt lat="42.9320383" lon="13.0350917"><ele>813.8571428571428</ele><time>2026-05-02T11:09:06.982Z</time></trkpt><trkpt lat="42.9319967" lon="13.0351767"><ele>811.0</ele><time>2026-05-02T11:09:07.981Z</time></trkpt><trkpt lat="42.9319533" lon="13.03525"><ele>810.9999999999999</ele><time>2026-05-02T11:09:08.982Z</time></trkpt><trkpt lat="42.9319" lon="13.035305"><ele>811.0</ele><time>2026-05-02T11:09:09.982Z</time></trkpt><trkpt lat="42.9318367" lon="13.035345"><ele>811.0</ele><time>2026-05-02T11:09:10.981Z</time></trkpt><trkpt lat="42.93175" lon="13.0353717"><ele>811.0</ele><time>2026-05-02T11:09:11.982Z</time></trkpt><trkpt lat="42.931645" lon="13.03539"><ele>810.9999999999999</ele><time>2026-05-02T11:09:12.982Z</time></trkpt><trkpt lat="42.9315367" lon="13.0354067"><ele>811.0</ele><time>2026-05-02T11:09:13.982Z</time></trkpt><trkpt lat="42.931425" lon="13.0354283"><ele>806.4</ele><time>2026-05-02T11:09:14.982Z</time></trkpt><trkpt lat="42.9313133" lon="13.0354533"><ele>801.8</ele><time>2026-05-02T11:09:15.982Z</time></trkpt><trkpt lat="42.9312067" lon="13.0354783"><ele>797.1999999999999</ele><time>2026-05-02T11:09:16.983Z</time></trkpt><trkpt lat="42.9311033" lon="13.0354933"><ele>792.5999999999999</ele><time>2026-05-02T11:09:17.981Z</time></trkpt><trkpt lat="42.9310083" lon="13.0354883"><ele>788.0</ele><time>2026-05-02T11:09:18.982Z</time></trkpt><trkpt lat="42.9309117" lon="13.0354783"><ele>785.0</ele><time>2026-05-02T11:09:19.982Z</time></trkpt><trkpt lat="42.9308167" lon="13.0354767"><ele>782.0</ele><time>2026-05-02T11:09:20.982Z</time></trkpt><trkpt lat="42.9307233" lon="13.0354783"><ele>779.0</ele><time>2026-05-02T11:09:21.983Z</time></trkpt><trkpt lat="42.930625" lon="13.0354767"><ele>776.0</ele><time>2026-05-02T11:09:22.984Z</time></trkpt><trkpt lat="42.9305333" lon="13.0354667"><ele>773.0</ele><time>2026-05-02T11:09:23.982Z</time></trkpt><trkpt lat="42.9304483" lon="13.03544"><ele>773.0</ele><time>2026-05-02T11:09:24.983Z</time></trkpt><trkpt lat="42.9303683" lon="13.0353883"><ele>773.0</ele><time>2026-05-02T11:09:25.983Z</time></trkpt><trkpt lat="42.9302883" lon="13.0353267"><ele>773.0</ele><time>2026-05-02T11:09:26.982Z</time></trkpt><trkpt lat="42.9302083" lon="13.0352683"><ele>773.0</ele><time>2026-05-02T11:09:27.983Z</time></trkpt><trkpt lat="42.9301217" lon="13.0352133"><ele>773.0</ele><time>2026-05-02T11:09:28.983Z</time></trkpt><trkpt lat="42.9300233" lon="13.0351717"><ele>770.5999999999999</ele><time>2026-05-02T11:09:29.982Z</time></trkpt><trkpt lat="42.929915" lon="13.035145"><ele>768.1999999999999</ele><time>2026-05-02T11:09:30.982Z</time></trkpt><trkpt lat="42.9298117" lon="13.0351183"><ele>765.8</ele><time>2026-05-02T11:09:31.983Z</time></trkpt><trkpt lat="42.9297033" lon="13.0350967"><ele>763.4</ele><time>2026-05-02T11:09:32.983Z</time></trkpt><trkpt lat="42.9296033" lon="13.0350733"><ele>761.0</ele><time>2026-05-02T11:09:33.982Z</time></trkpt><trkpt lat="42.9295133" lon="13.0350467"><ele>761.0</ele><time>2026-05-02T11:09:34.981Z</time></trkpt><trkpt lat="42.92943" lon="13.035015"><ele>761.0</ele><time>2026-05-02T11:09:35.981Z</time></trkpt><trkpt lat="42.9293517" lon="13.0349783"><ele>761.0</ele><time>2026-05-02T11:09:36.984Z</time></trkpt><trkpt lat="42.92927" lon="13.03495"><ele>761.0</ele><time>2026-05-02T11:09:37.982Z</time></trkpt><trkpt lat="42.9291883" lon="13.0349333"><ele>761.0</ele><time>2026-05-02T11:09:38.984Z</time></trkpt><trkpt lat="42.9291067" lon="13.0349233"><ele>761.0</ele><time>2026-05-02T11:09:39.982Z</time></trkpt><trkpt lat="42.9290267" lon="13.03492"><ele>759.8333333333333</ele><time>2026-05-02T11:09:40.983Z</time></trkpt><trkpt lat="42.9289567" lon="13.0349183"><ele>758.6666666666666</ele><time>2026-05-02T11:09:41.983Z</time></trkpt><trkpt lat="42.9288333" lon="13.0349083"><ele>757.5</ele><time>2026-05-02T11:09:43.982Z</time></trkpt><trkpt lat="42.9287667" lon="13.03492"><ele>756.3333333333334</ele><time>2026-05-02T11:09:44.982Z</time></trkpt><trkpt lat="42.9286867" lon="13.0349483"><ele>755.1666666666667</ele><time>2026-05-02T11:09:45.982Z</time></trkpt><trkpt lat="42.9285983" lon="13.034995"><ele>754.0</ele><time>2026-05-02T11:09:46.983Z</time></trkpt><trkpt lat="42.9284933" lon="13.03505"><ele>750.75</ele><time>2026-05-02T11:09:47.982Z</time></trkpt><trkpt lat="42.928385" lon="13.03511"><ele>747.5</ele><time>2026-05-02T11:09:48.982Z</time></trkpt><trkpt lat="42.9282733" lon="13.0351817"><ele>744.25</ele><time>2026-05-02T11:09:49.982Z</time></trkpt><trkpt lat="42.9281533" lon="13.035255"><ele>741.0</ele><time>2026-05-02T11:09:50.982Z</time></trkpt><trkpt lat="42.9280283" lon="13.0353367"><ele>741.0</ele><time>2026-05-02T11:09:51.982Z</time></trkpt><trkpt lat="42.927905" lon="13.0354217"><ele>741.0</ele><time>2026-05-02T11:09:52.982Z</time></trkpt><trkpt lat="42.9277767" lon="13.0355133"><ele>741.0</ele><time>2026-05-02T11:09:53.983Z</time></trkpt><trkpt lat="42.9276467" lon="13.0356167"><ele>741.0</ele><time>2026-05-02T11:09:54.983Z</time></trkpt><trkpt lat="42.9275067" lon="13.0357267"><ele>745.6666666666666</ele><time>2026-05-02T11:09:55.982Z</time></trkpt><trkpt lat="42.9273633" lon="13.0358383"><ele>750.3333333333333</ele><time>2026-05-02T11:09:56.983Z</time></trkpt><trkpt lat="42.9272133" lon="13.0359483"><ele>755.0</ele><time>2026-05-02T11:09:57.983Z</time></trkpt><trkpt lat="42.92706" lon="13.03606"><ele>755.0</ele><time>2026-05-02T11:09:58.982Z</time></trkpt><trkpt lat="42.92691" lon="13.0361833"><ele>755.0</ele><time>2026-05-02T11:09:59.982Z</time></trkpt><trkpt lat="42.9267667" lon="13.0363117"><ele>755.0</ele><time>2026-05-02T11:10:00.982Z</time></trkpt><trkpt lat="42.9266317" lon="13.0364333"><ele>757.5</ele><time>2026-05-02T11:10:01.983Z</time></trkpt><trkpt lat="42.9265067" lon="13.0365517"><ele>760.0</ele><time>2026-05-02T11:10:02.983Z</time></trkpt><trkpt lat="42.9263883" lon="13.0366583"><ele>762.5</ele><time>2026-05-02T11:10:03.982Z</time></trkpt><trkpt lat="42.9262733" lon="13.0367317"><ele>765.0</ele><time>2026-05-02T11:10:04.982Z</time></trkpt><trkpt lat="42.92615" lon="13.036765"><ele>765.0</ele><time>2026-05-02T11:10:05.983Z</time></trkpt><trkpt lat="42.926" lon="13.03677"><ele>765.0</ele><time>2026-05-02T11:10:06.983Z</time></trkpt><trkpt lat="42.9258317" lon="13.036775"><ele>765.0</ele><time>2026-05-02T11:10:07.983Z</time></trkpt><trkpt lat="42.925645" lon="13.0368"><ele>762.0</ele><time>2026-05-02T11:10:08.982Z</time></trkpt><trkpt lat="42.92544" lon="13.0368517"><ele>759.0</ele><time>2026-05-02T11:10:09.983Z</time></trkpt><trkpt lat="42.9252267" lon="13.0369267"><ele>756.0</ele><time>2026-05-02T11:10:10.982Z</time></trkpt><trkpt lat="42.9250017" lon="13.0370183"><ele>753.0</ele><time>2026-05-02T11:10:11.982Z</time></trkpt><trkpt lat="42.9247717" lon="13.0371217"><ele>750.0</ele><time>2026-05-02T11:10:12.983Z</time></trkpt><trkpt lat="42.9245433" lon="13.0372217"><ele>750.0</ele><time>2026-05-02T11:10:13.982Z</time></trkpt><trkpt lat="42.9243267" lon="13.0373117"><ele>750.0</ele><time>2026-05-02T11:10:14.982Z</time></trkpt><trkpt lat="42.9241267" lon="13.037385"><ele>750.0</ele><time>2026-05-02T11:10:15.982Z</time></trkpt><trkpt lat="42.9239283" lon="13.0374267"><ele>746.0</ele><time>2026-05-02T11:10:16.983Z</time></trkpt><trkpt lat="42.9237433" lon="13.0374417"><ele>742.0</ele><time>2026-05-02T11:10:17.982Z</time></trkpt><trkpt lat="42.9235833" lon="13.03744"><ele>738.0</ele><time>2026-05-02T11:10:18.982Z</time></trkpt><trkpt lat="42.9234567" lon="13.0374367"><ele>740.2</ele><time>2026-05-02T11:10:19.982Z</time></trkpt><trkpt lat="42.9233583" lon="13.0374667"><ele>742.4</ele><time>2026-05-02T11:10:20.983Z</time></trkpt><trkpt lat="42.9232833" lon="13.0375367"><ele>744.6</ele><time>2026-05-02T11:10:21.985Z</time></trkpt><trkpt lat="42.92323" lon="13.037645"><ele>746.8000000000001</ele><time>2026-05-02T11:10:22.985Z</time></trkpt><trkpt lat="42.9232033" lon="13.0377883"><ele>749.0</ele><time>2026-05-02T11:10:23.984Z</time></trkpt><trkpt lat="42.9231933" lon="13.03796"><ele>756.0</ele><time>2026-05-02T11:10:24.983Z</time></trkpt><trkpt lat="42.923185" lon="13.0381383"><ele>763.0</ele><time>2026-05-02T11:10:25.983Z</time></trkpt><trkpt lat="42.9231567" lon="13.038295"><ele>770.0</ele><time>2026-05-02T11:10:26.984Z</time></trkpt><trkpt lat="42.9231067" lon="13.0384417"><ele>777.0</ele><time>2026-05-02T11:10:27.982Z</time></trkpt><trkpt lat="42.923035" lon="13.0385817"><ele>780.0</ele><time>2026-05-02T11:10:28.983Z</time></trkpt><trkpt lat="42.9229433" lon="13.0387133"><ele>783.0</ele><time>2026-05-02T11:10:29.983Z</time></trkpt><trkpt lat="42.9228333" lon="13.0388333"><ele>786.0</ele><time>2026-05-02T11:10:30.983Z</time></trkpt><trkpt lat="42.92271" lon="13.038935"><ele>789.0</ele><time>2026-05-02T11:10:31.983Z</time></trkpt><trkpt lat="42.922575" lon="13.0390133"><ele>790.6666666666667</ele><time>2026-05-02T11:10:32.983Z</time></trkpt><trkpt lat="42.92243" lon="13.03909"><ele>792.3333333333334</ele><time>2026-05-02T11:10:33.982Z</time></trkpt><trkpt lat="42.92227" lon="13.0391683"><ele>794.0</ele><time>2026-05-02T11:10:34.982Z</time></trkpt><trkpt lat="42.9221067" lon="13.03927"><ele>794.0</ele><time>2026-05-02T11:10:35.983Z</time></trkpt><trkpt lat="42.92193" lon="13.0394083"><ele>794.0</ele><time>2026-05-02T11:10:36.982Z</time></trkpt><trkpt lat="42.9217517" lon="13.0395717"><ele>794.0</ele><time>2026-05-02T11:10:37.985Z</time></trkpt><trkpt lat="42.92158" lon="13.039735"><ele>791.0</ele><time>2026-05-02T11:10:38.985Z</time></trkpt><trkpt lat="42.9214283" lon="13.0398883"><ele>788.0</ele><time>2026-05-02T11:10:39.984Z</time></trkpt><trkpt lat="42.9212883" lon="13.0400333"><ele>785.0</ele><time>2026-05-02T11:10:40.983Z</time></trkpt><trkpt lat="42.9211533" lon="13.0401717"><ele>788.3333333333334</ele><time>2026-05-02T11:10:41.982Z</time></trkpt><trkpt lat="42.9210233" lon="13.0403"><ele>791.6666666666667</ele><time>2026-05-02T11:10:42.984Z</time></trkpt><trkpt lat="42.920885" lon="13.0404083"><ele>795.0</ele><time>2026-05-02T11:10:43.982Z</time></trkpt><trkpt lat="42.920735" lon="13.0404983"><ele>795.0</ele><time>2026-05-02T11:10:44.983Z</time></trkpt><trkpt lat="42.9205783" lon="13.0405767"><ele>795.0</ele><time>2026-05-02T11:10:45.982Z</time></trkpt><trkpt lat="42.9204183" lon="13.0406433"><ele>795.0</ele><time>2026-05-02T11:10:46.983Z</time></trkpt><trkpt lat="42.9202583" lon="13.0407083"><ele>795.0</ele><time>2026-05-02T11:10:47.984Z</time></trkpt><trkpt lat="42.920105" lon="13.040775"><ele>795.0</ele><time>2026-05-02T11:10:48.982Z</time></trkpt><trkpt lat="42.9199683" lon="13.0408283"><ele>795.0</ele><time>2026-05-02T11:10:49.983Z</time></trkpt><trkpt lat="42.9198517" lon="13.04087"><ele>795.0</ele><time>2026-05-02T11:10:50.983Z</time></trkpt><trkpt lat="42.9197617" lon="13.0409033"><ele>798.0</ele><time>2026-05-02T11:10:51.982Z</time></trkpt><trkpt lat="42.9196983" lon="13.0409333"><ele>801.0</ele><time>2026-05-02T11:10:52.983Z</time></trkpt><trkpt lat="42.9196517" lon="13.0410183"><ele>804.0</ele><time>2026-05-02T11:10:54.981Z</time></trkpt><trkpt lat="42.9196983" lon="13.0410817"><ele>807.0</ele><time>2026-05-02T11:10:56.982Z</time></trkpt><trkpt lat="42.9197117" lon="13.040985"><ele>810.0</ele><time>2026-05-02T11:11:26.982Z</time></trkpt><trkpt lat="42.9197933" lon="13.04089"><ele>813.0</ele><time>2026-05-02T11:11:30.982Z</time></trkpt><trkpt lat="42.9199217" lon="13.04085"><ele>813.0</ele><time>2026-05-02T11:11:32.982Z</time></trkpt><trkpt lat="42.9200117" lon="13.0408183"><ele>813.0</ele><time>2026-05-02T11:11:33.981Z</time></trkpt><trkpt lat="42.9201117" lon="13.0407767"><ele>813.0</ele><time>2026-05-02T11:11:34.981Z</time></trkpt><trkpt lat="42.9202133" lon="13.0407317"><ele>813.0</ele><time>2026-05-02T11:11:35.982Z</time></trkpt><trkpt lat="42.9203167" lon="13.0406917"><ele>813.0</ele><time>2026-05-02T11:11:36.981Z</time></trkpt><trkpt lat="42.9205167" lon="13.040615"><ele>811.2</ele><time>2026-05-02T11:11:38.982Z</time></trkpt><trkpt lat="42.9206117" lon="13.0405717"><ele>809.4</ele><time>2026-05-02T11:11:39.982Z</time></trkpt><trkpt lat="42.920705" lon="13.0405283"><ele>807.6</ele><time>2026-05-02T11:11:40.981Z</time></trkpt><trkpt lat="42.9207917" lon="13.0404817"><ele>805.8000000000001</ele><time>2026-05-02T11:11:41.982Z</time></trkpt><trkpt lat="42.920875" lon="13.040435"><ele>804.0</ele><time>2026-05-02T11:11:42.981Z</time></trkpt><trkpt lat="42.920965" lon="13.04038"><ele>804.0</ele><time>2026-05-02T11:11:43.982Z</time></trkpt><trkpt lat="42.9210533" lon="13.0403083"><ele>804.0</ele><time>2026-05-02T11:11:44.982Z</time></trkpt><trkpt lat="42.9211433" lon="13.0402183"><ele>804.0</ele><time>2026-05-02T11:11:45.982Z</time></trkpt><trkpt lat="42.9213183" lon="13.0400217"><ele>804.0</ele><time>2026-05-02T11:11:47.981Z</time></trkpt><trkpt lat="42.921405" lon="13.03993"><ele>800.6666666666667</ele><time>2026-05-02T11:11:48.982Z</time></trkpt><trkpt lat="42.9215867" lon="13.0397533"><ele>797.3333333333334</ele><time>2026-05-02T11:11:50.982Z</time></trkpt><trkpt lat="42.9216833" lon="13.03966"><ele>794.0</ele><time>2026-05-02T11:11:51.982Z</time></trkpt><trkpt lat="42.9217833" lon="13.039565"><ele>794.0</ele><time>2026-05-02T11:11:52.981Z</time></trkpt><trkpt lat="42.9218867" lon="13.0394767"><ele>794.0</ele><time>2026-05-02T11:11:53.982Z</time></trkpt><trkpt lat="42.9219917" lon="13.03939"><ele>794.0</ele><time>2026-05-02T11:11:54.981Z</time></trkpt><trkpt lat="42.9221067" lon="13.039305"><ele>794.0</ele><time>2026-05-02T11:11:55.982Z</time></trkpt><trkpt lat="42.92223" lon="13.0392233"><ele>794.0</ele><time>2026-05-02T11:11:56.982Z</time></trkpt><trkpt lat="42.9223567" lon="13.0391483"><ele>794.0</ele><time>2026-05-02T11:11:57.981Z</time></trkpt><trkpt lat="42.9224733" lon="13.0390767"><ele>794.0</ele><time>2026-05-02T11:11:58.981Z</time></trkpt><trkpt lat="42.9225883" lon="13.03901"><ele>794.0</ele><time>2026-05-02T11:11:59.982Z</time></trkpt><trkpt lat="42.9228133" lon="13.0388517"><ele>792.75</ele><time>2026-05-02T11:12:01.983Z</time></trkpt><trkpt lat="42.922915" lon="13.0387533"><ele>791.5</ele><time>2026-05-02T11:12:02.982Z</time></trkpt><trkpt lat="42.92301" lon="13.0386367"><ele>790.25</ele><time>2026-05-02T11:12:03.983Z</time></trkpt><trkpt lat="42.9230917" lon="13.0384983"><ele>789.0</ele><time>2026-05-02T11:12:04.981Z</time></trkpt><trkpt lat="42.92315" lon="13.0383467"><ele>786.0</ele><time>2026-05-02T11:12:05.983Z</time></trkpt><trkpt lat="42.9231867" lon="13.0381817"><ele>783.0</ele><time>2026-05-02T11:12:06.986Z</time></trkpt><trkpt lat="42.9232033" lon="13.038015"><ele>780.0</ele><time>2026-05-02T11:12:07.983Z</time></trkpt><trkpt lat="42.9232117" lon="13.0378567"><ele>777.0</ele><time>2026-05-02T11:12:08.982Z</time></trkpt><trkpt lat="42.9232267" lon="13.0377133"><ele>777.0</ele><time>2026-05-02T11:12:09.983Z</time></trkpt><trkpt lat="42.92326" lon="13.0375933"><ele>777.0</ele><time>2026-05-02T11:12:10.985Z</time></trkpt><trkpt lat="42.9233083" lon="13.037505"><ele>777.0</ele><time>2026-05-02T11:12:11.983Z</time></trkpt><trkpt lat="42.9234633" lon="13.0374333"><ele>777.0</ele><time>2026-05-02T11:12:13.982Z</time></trkpt><trkpt lat="42.92356" lon="13.037435"><ele>777.0</ele><time>2026-05-02T11:12:14.982Z</time></trkpt><trkpt lat="42.923665" lon="13.0374467"><ele>767.25</ele><time>2026-05-02T11:12:15.981Z</time></trkpt><trkpt lat="42.9237733" lon="13.0374483"><ele>757.5</ele><time>2026-05-02T11:12:16.981Z</time></trkpt><trkpt lat="42.923885" lon="13.03744"><ele>747.75</ele><time>2026-05-02T11:12:17.981Z</time></trkpt><trkpt lat="42.924005" lon="13.0374217"><ele>738.0</ele><time>2026-05-02T11:12:18.982Z</time></trkpt><trkpt lat="42.9241333" lon="13.0373883"><ele>742.0</ele><time>2026-05-02T11:12:19.981Z</time></trkpt><trkpt lat="42.9242767" lon="13.0373317"><ele>746.0</ele><time>2026-05-02T11:12:20.983Z</time></trkpt><trkpt lat="42.924425" lon="13.0372683"><ele>750.0</ele><time>2026-05-02T11:12:21.981Z</time></trkpt><trkpt lat="42.9245733" lon="13.0372083"><ele>750.0</ele><time>2026-05-02T11:12:22.981Z</time></trkpt><trkpt lat="42.9247167" lon="13.0371533"><ele>750.0</ele><time>2026-05-02T11:12:23.982Z</time></trkpt><trkpt lat="42.924855" lon="13.037095"><ele>750.0</ele><time>2026-05-02T11:12:24.981Z</time></trkpt><trkpt lat="42.9249883" lon="13.037035"><ele>750.0</ele><time>2026-05-02T11:12:25.982Z</time></trkpt><trkpt lat="42.9252467" lon="13.0369083"><ele>751.5</ele><time>2026-05-02T11:12:27.981Z</time></trkpt><trkpt lat="42.9253833" lon="13.0368483"><ele>753.0</ele><time>2026-05-02T11:12:28.983Z</time></trkpt><trkpt lat="42.925525" lon="13.0368017"><ele>754.5</ele><time>2026-05-02T11:12:29.981Z</time></trkpt><trkpt lat="42.9256717" lon="13.0367783"><ele>756.0</ele><time>2026-05-02T11:12:30.981Z</time></trkpt><trkpt lat="42.9259617" lon="13.036755"><ele>759.0</ele><time>2026-05-02T11:12:32.983Z</time></trkpt><trkpt lat="42.92622" lon="13.0367367"><ele>762.0</ele><time>2026-05-02T11:12:34.983Z</time></trkpt><trkpt lat="42.92633" lon="13.0366933"><ele>765.0</ele><time>2026-05-02T11:12:35.981Z</time></trkpt><trkpt lat="42.9265467" lon="13.03651"><ele>761.6666666666666</ele><time>2026-05-02T11:12:37.981Z</time></trkpt><trkpt lat="42.9266733" lon="13.0363983"><ele>758.3333333333333</ele><time>2026-05-02T11:12:38.984Z</time></trkpt><trkpt lat="42.9268067" lon="13.0362733"><ele>755.0</ele><time>2026-05-02T11:12:39.983Z</time></trkpt><trkpt lat="42.9269517" lon="13.0361483"><ele>755.0</ele><time>2026-05-02T11:12:40.982Z</time></trkpt><trkpt lat="42.9270917" lon="13.0360367"><ele>755.0</ele><time>2026-05-02T11:12:41.983Z</time></trkpt><trkpt lat="42.9272283" lon="13.0359367"><ele>755.0</ele><time>2026-05-02T11:12:42.981Z</time></trkpt><trkpt lat="42.927365" lon="13.0358383"><ele>750.3333333333333</ele><time>2026-05-02T11:12:43.982Z</time></trkpt><trkpt lat="42.9274983" lon="13.0357433"><ele>745.6666666666666</ele><time>2026-05-02T11:12:44.982Z</time></trkpt><trkpt lat="42.9276283" lon="13.0356467"><ele>741.0</ele><time>2026-05-02T11:12:45.983Z</time></trkpt><trkpt lat="42.9278717" lon="13.0354517"><ele>741.0</ele><time>2026-05-02T11:12:47.983Z</time></trkpt><trkpt lat="42.928115" lon="13.0352833"><ele>741.0</ele><time>2026-05-02T11:12:49.982Z</time></trkpt><trkpt lat="42.9283583" lon="13.03513"><ele>741.6666666666666</ele><time>2026-05-02T11:12:51.982Z</time></trkpt><trkpt lat="42.928475" lon="13.0350583"><ele>742.3333333333333</ele><time>2026-05-02T11:12:52.982Z</time></trkpt><trkpt lat="42.9286933" lon="13.03494"><ele>743.0</ele><time>2026-05-02T11:12:54.982Z</time></trkpt><trkpt lat="42.9287933" lon="13.034885"><ele>743.0</ele><time>2026-05-02T11:12:55.982Z</time></trkpt><trkpt lat="42.9289733" lon="13.0347233"><ele>743.0</ele><time>2026-05-02T11:12:57.983Z</time></trkpt><trkpt lat="42.9290567" lon="13.0346133"><ele>743.0</ele><time>2026-05-02T11:12:58.982Z</time></trkpt><trkpt lat="42.9291333" lon="13.03449"><ele>743.0</ele><time>2026-05-02T11:12:59.981Z</time></trkpt><trkpt lat="42.929195" lon="13.0343583"><ele>743.0</ele><time>2026-05-02T11:13:00.981Z</time></trkpt><trkpt lat="42.92924" lon="13.03423"><ele>743.0</ele><time>2026-05-02T11:13:01.981Z</time></trkpt><trkpt lat="42.9292733" lon="13.0339467"><ele>743.0</ele><time>2026-05-02T11:13:03.983Z</time></trkpt><trkpt lat="42.929255" lon="13.03378"><ele>746.0</ele><time>2026-05-02T11:13:04.983Z</time></trkpt><trkpt lat="42.9292183" lon="13.0336167"><ele>749.0</ele><time>2026-05-02T11:13:05.983Z</time></trkpt><trkpt lat="42.9291633" lon="13.0334783"><ele>752.0</ele><time>2026-05-02T11:13:06.982Z</time></trkpt><trkpt lat="42.9290967" lon="13.0333683"><ele>755.0</ele><time>2026-05-02T11:13:07.983Z</time></trkpt><trkpt lat="42.9290183" lon="13.0332767"><ele>758.0</ele><time>2026-05-02T11:13:08.982Z</time></trkpt><trkpt lat="42.92879" lon="13.0331683"><ele>769.5</ele><time>2026-05-02T11:13:10.983Z</time></trkpt><trkpt lat="42.92849" lon="13.033145"><ele>781.0</ele><time>2026-05-02T11:13:12.981Z</time></trkpt><trkpt lat="42.9283333" lon="13.0331433"><ele>781.0</ele><time>2026-05-02T11:13:13.981Z</time></trkpt><trkpt lat="42.928185" lon="13.0331333"><ele>781.0</ele><time>2026-05-02T11:13:14.983Z</time></trkpt><trkpt lat="42.9280367" lon="13.0331017"><ele>781.0</ele><time>2026-05-02T11:13:15.981Z</time></trkpt><trkpt lat="42.9277433" lon="13.0329583"><ele>772.5</ele><time>2026-05-02T11:13:17.984Z</time></trkpt><trkpt lat="42.9274483" lon="13.0327433"><ele>764.0</ele><time>2026-05-02T11:13:19.983Z</time></trkpt><trkpt lat="42.9271483" lon="13.03254"><ele>768.3333333333333</ele><time>2026-05-02T11:13:21.982Z</time></trkpt><trkpt lat="42.9269917" lon="13.0324617"><ele>772.6666666666666</ele><time>2026-05-02T11:13:22.982Z</time></trkpt><trkpt lat="42.926835" lon="13.0323833"><ele>777.0</ele><time>2026-05-02T11:13:23.982Z</time></trkpt><trkpt lat="42.9266783" lon="13.0322883"><ele>777.0</ele><time>2026-05-02T11:13:24.983Z</time></trkpt><trkpt lat="42.9265317" lon="13.0321717"><ele>777.0</ele><time>2026-05-02T11:13:25.983Z</time></trkpt><trkpt lat="42.9263983" lon="13.0320267"><ele>777.0</ele><time>2026-05-02T11:13:26.983Z</time></trkpt><trkpt lat="42.926275" lon="13.0318667"><ele>777.0</ele><time>2026-05-02T11:13:27.982Z</time></trkpt><trkpt lat="42.9261567" lon="13.0317033"><ele>777.0</ele><time>2026-05-02T11:13:28.983Z</time></trkpt><trkpt lat="42.9258917" lon="13.031395"><ele>777.5</ele><time>2026-05-02T11:13:30.983Z</time></trkpt><trkpt lat="42.9256117" lon="13.0311483"><ele>778.0</ele><time>2026-05-02T11:13:32.983Z</time></trkpt><trkpt lat="42.9253733" lon="13.0309517"><ele>778.0</ele><time>2026-05-02T11:13:34.983Z</time></trkpt><trkpt lat="42.9252733" lon="13.030865"><ele>778.0</ele><time>2026-05-02T11:13:35.982Z</time></trkpt><trkpt lat="42.9250967" lon="13.0307117"><ele>778.0</ele><time>2026-05-02T11:13:37.983Z</time></trkpt><trkpt lat="42.92501" lon="13.030645"><ele>778.0</ele><time>2026-05-02T11:13:38.983Z</time></trkpt><trkpt lat="42.9249217" lon="13.030585"><ele>776.5999999999999</ele><time>2026-05-02T11:13:39.982Z</time></trkpt><trkpt lat="42.924755" lon="13.0304967"><ele>775.1999999999999</ele><time>2026-05-02T11:13:41.984Z</time></trkpt><trkpt lat="42.9246933" lon="13.030455"><ele>773.8</ele><time>2026-05-02T11:13:42.983Z</time></trkpt><trkpt lat="42.9246317" lon="13.0303483"><ele>772.4</ele><time>2026-05-02T11:13:44.983Z</time></trkpt><trkpt lat="42.9246033" lon="13.0302233"><ele>771.0</ele><time>2026-05-02T11:13:46.983Z</time></trkpt><trkpt lat="42.9245917" lon="13.0301"><ele>771.0</ele><time>2026-05-02T11:13:48.982Z</time></trkpt><trkpt lat="42.9246133" lon="13.03"><ele>771.0</ele><time>2026-05-02T11:13:50.983Z</time></trkpt><trkpt lat="42.9247033" lon="13.0299183"><ele>771.0</ele><time>2026-05-02T11:13:52.982Z</time></trkpt><trkpt lat="42.924775" lon="13.0298783"><ele>771.0</ele><time>2026-05-02T11:13:53.982Z</time></trkpt><trkpt lat="42.9249283" lon="13.0297867"><ele>771.0</ele><time>2026-05-02T11:13:55.983Z</time></trkpt><trkpt lat="42.925005" lon="13.0297283"><ele>773.5</ele><time>2026-05-02T11:13:56.983Z</time></trkpt><trkpt lat="42.9250817" lon="13.029665"><ele>776.0</ele><time>2026-05-02T11:13:57.982Z</time></trkpt><trkpt lat="42.9251683" lon="13.0295867"><ele>778.5</ele><time>2026-05-02T11:13:58.981Z</time></trkpt><trkpt lat="42.92527" lon="13.0295033"><ele>781.0</ele><time>2026-05-02T11:13:59.983Z</time></trkpt><trkpt lat="42.925515" lon="13.0292967"><ele>781.0</ele><time>2026-05-02T11:14:01.984Z</time></trkpt><trkpt lat="42.9256617" lon="13.02919"><ele>781.0</ele><time>2026-05-02T11:14:02.982Z</time></trkpt><trkpt lat="42.9258167" lon="13.029075"><ele>781.0</ele><time>2026-05-02T11:14:03.983Z</time></trkpt><trkpt lat="42.9259817" lon="13.0289433"><ele>784.0</ele><time>2026-05-02T11:14:04.982Z</time></trkpt><trkpt lat="42.9263283" lon="13.02864"><ele>787.0</ele><time>2026-05-02T11:14:06.982Z</time></trkpt><trkpt lat="42.9265" lon="13.028455"><ele>791.0</ele><time>2026-05-02T11:14:07.984Z</time></trkpt><trkpt lat="42.92667" lon="13.0282533"><ele>795.0</ele><time>2026-05-02T11:14:08.982Z</time></trkpt><trkpt lat="42.9268417" lon="13.0280517"><ele>795.0</ele><time>2026-05-02T11:14:09.984Z</time></trkpt><trkpt lat="42.9270167" lon="13.0278583"><ele>795.0</ele><time>2026-05-02T11:14:10.983Z</time></trkpt><trkpt lat="42.927195" lon="13.0276817"><ele>795.0</ele><time>2026-05-02T11:14:11.982Z</time></trkpt><trkpt lat="42.927375" lon="13.0275133"><ele>786.6666666666667</ele><time>2026-05-02T11:14:12.983Z</time></trkpt><trkpt lat="42.9275533" lon="13.027355"><ele>778.3333333333334</ele><time>2026-05-02T11:14:13.982Z</time></trkpt><trkpt lat="42.9277167" lon="13.027185"><ele>770.0</ele><time>2026-05-02T11:14:14.983Z</time></trkpt><trkpt lat="42.92786" lon="13.0269783"><ele>782.6666666666667</ele><time>2026-05-02T11:14:15.982Z</time></trkpt><trkpt lat="42.9279833" lon="13.0267367"><ele>795.3333333333333</ele><time>2026-05-02T11:14:16.983Z</time></trkpt><trkpt lat="42.9280983" lon="13.0264667"><ele>808.0</ele><time>2026-05-02T11:14:17.983Z</time></trkpt><trkpt lat="42.928215" lon="13.026185"><ele>808.0</ele><time>2026-05-02T11:14:18.983Z</time></trkpt><trkpt lat="42.928335" lon="13.0258967"><ele>808.0</ele><time>2026-05-02T11:14:19.982Z</time></trkpt><trkpt lat="42.9284533" lon="13.0256067"><ele>826.5</ele><time>2026-05-02T11:14:20.983Z</time></trkpt><trkpt lat="42.92856" lon="13.0253217"><ele>845.0</ele><time>2026-05-02T11:14:21.982Z</time></trkpt><trkpt lat="42.9286433" lon="13.02505"><ele>838.3333333333334</ele><time>2026-05-02T11:14:22.982Z</time></trkpt><trkpt lat="42.9287117" lon="13.0248067"><ele>831.6666666666667</ele><time>2026-05-02T11:14:23.983Z</time></trkpt><trkpt lat="42.9287733" lon="13.024595"><ele>825.0</ele><time>2026-05-02T11:14:24.983Z</time></trkpt><trkpt lat="42.9289417" lon="13.024335"><ele>825.0</ele><time>2026-05-02T11:14:26.982Z</time></trkpt><trkpt lat="42.9290617" lon="13.0243033"><ele>825.0</ele><time>2026-05-02T11:14:27.982Z</time></trkpt><trkpt lat="42.9291917" lon="13.0242833"><ele>825.0</ele><time>2026-05-02T11:14:28.983Z</time></trkpt><trkpt lat="42.9293117" lon="13.0242167"><ele>825.0</ele><time>2026-05-02T11:14:29.982Z</time></trkpt><trkpt lat="42.9293933" lon="13.0240917"><ele>830.25</ele><time>2026-05-02T11:14:30.982Z</time></trkpt><trkpt lat="42.9294267" lon="13.0239183"><ele>835.5</ele><time>2026-05-02T11:14:31.983Z</time></trkpt><trkpt lat="42.9294483" lon="13.023735"><ele>840.75</ele><time>2026-05-02T11:14:32.982Z</time></trkpt><trkpt lat="42.9295" lon="13.0235617"><ele>846.0</ele><time>2026-05-02T11:14:33.982Z</time></trkpt><trkpt lat="42.9296083" lon="13.02341"><ele>834.5</ele><time>2026-05-02T11:14:34.982Z</time></trkpt><trkpt lat="42.9297567" lon="13.0232667"><ele>823.0</ele><time>2026-05-02T11:14:35.981Z</time></trkpt><trkpt lat="42.9300833" lon="13.0229133"><ele>837.6666666666666</ele><time>2026-05-02T11:14:37.982Z</time></trkpt><trkpt lat="42.93023" lon="13.0226967"><ele>852.3333333333333</ele><time>2026-05-02T11:14:38.981Z</time></trkpt><trkpt lat="42.9303633" lon="13.0224583"><ele>867.0</ele><time>2026-05-02T11:14:39.982Z</time></trkpt><trkpt lat="42.93056" lon="13.0219017"><ele>860.5</ele><time>2026-05-02T11:14:41.982Z</time></trkpt><trkpt lat="42.9306317" lon="13.0215917"><ele>854.0</ele><time>2026-05-02T11:14:42.981Z</time></trkpt><trkpt lat="42.930715" lon="13.021285"><ele>854.0</ele><time>2026-05-02T11:14:43.981Z</time></trkpt><trkpt lat="42.9308117" lon="13.02099"><ele>854.0</ele><time>2026-05-02T11:14:44.982Z</time></trkpt><trkpt lat="42.9309067" lon="13.0207133"><ele>864.0</ele><time>2026-05-02T11:14:45.981Z</time></trkpt><trkpt lat="42.9309967" lon="13.0204517"><ele>874.0</ele><time>2026-05-02T11:14:46.981Z</time></trkpt><trkpt lat="42.9311883" lon="13.019975"><ele>874.0</ele><time>2026-05-02T11:14:48.981Z</time></trkpt><trkpt lat="42.931315" lon="13.01977"><ele>874.0</ele><time>2026-05-02T11:14:49.982Z</time></trkpt><trkpt lat="42.9314383" lon="13.0195583"><ele>874.0</ele><time>2026-05-02T11:14:50.983Z</time></trkpt><trkpt lat="42.9315467" lon="13.0193317"><ele>869.3333333333333</ele><time>2026-05-02T11:14:51.981Z</time></trkpt><trkpt lat="42.9316433" lon="13.0191"><ele>864.6666666666667</ele><time>2026-05-02T11:14:52.981Z</time></trkpt><trkpt lat="42.931735" lon="13.0188683"><ele>860.0</ele><time>2026-05-02T11:14:53.982Z</time></trkpt><trkpt lat="42.9318333" lon="13.0186467"><ele>868.6666666666667</ele><time>2026-05-02T11:14:54.982Z</time></trkpt><trkpt lat="42.93195" lon="13.0184467"><ele>877.3333333333333</ele><time>2026-05-02T11:14:55.982Z</time></trkpt><trkpt lat="42.9320867" lon="13.0182633"><ele>886.0</ele><time>2026-05-02T11:14:56.981Z</time></trkpt><trkpt lat="42.93223" lon="13.018085"><ele>886.0</ele><time>2026-05-02T11:14:57.982Z</time></trkpt><trkpt lat="42.9323683" lon="13.0178883"><ele>886.0</ele><time>2026-05-02T11:14:58.982Z</time></trkpt><trkpt lat="42.9324883" lon="13.0176667"><ele>886.0</ele><time>2026-05-02T11:14:59.982Z</time></trkpt><trkpt lat="42.9325917" lon="13.0174283"><ele>896.0</ele><time>2026-05-02T11:15:00.982Z</time></trkpt><trkpt lat="42.932685" lon="13.0171817"><ele>906.0</ele><time>2026-05-02T11:15:01.982Z</time></trkpt><trkpt lat="42.9327667" lon="13.01693"><ele>916.0</ele><time>2026-05-02T11:15:02.982Z</time></trkpt><trkpt lat="42.9328433" lon="13.0166767"><ele>914.0</ele><time>2026-05-02T11:15:03.981Z</time></trkpt><trkpt lat="42.9329167" lon="13.0164367"><ele>912.0</ele><time>2026-05-02T11:15:04.981Z</time></trkpt><trkpt lat="42.93298" lon="13.0162133"><ele>910.0</ele><time>2026-05-02T11:15:05.983Z</time></trkpt><trkpt lat="42.9330267" lon="13.015995"><ele>909.3333333333333</ele><time>2026-05-02T11:15:06.982Z</time></trkpt><trkpt lat="42.9330517" lon="13.01577"><ele>908.6666666666667</ele><time>2026-05-02T11:15:07.981Z</time></trkpt><trkpt lat="42.933065" lon="13.01554"><ele>908.0</ele><time>2026-05-02T11:15:08.982Z</time></trkpt><trkpt lat="42.9330917" lon="13.01531"><ele>908.0</ele><time>2026-05-02T11:15:09.982Z</time></trkpt><trkpt lat="42.9331467" lon="13.015085"><ele>908.0</ele><time>2026-05-02T11:15:10.982Z</time></trkpt><trkpt lat="42.9332233" lon="13.0148683"><ele>908.0</ele><time>2026-05-02T11:15:11.981Z</time></trkpt><trkpt lat="42.9333133" lon="13.0146567"><ele>916.6666666666667</ele><time>2026-05-02T11:15:12.982Z</time></trkpt><trkpt lat="42.9334" lon="13.0144383"><ele>925.3333333333333</ele><time>2026-05-02T11:15:13.981Z</time></trkpt><trkpt lat="42.933475" lon="13.014225"><ele>934.0</ele><time>2026-05-02T11:15:14.981Z</time></trkpt><trkpt lat="42.93355" lon="13.014015"><ele>934.0</ele><time>2026-05-02T11:15:15.981Z</time></trkpt><trkpt lat="42.9336217" lon="13.0138167"><ele>934.0</ele><time>2026-05-02T11:15:16.981Z</time></trkpt><trkpt lat="42.9336867" lon="13.013635"><ele>934.0</ele><time>2026-05-02T11:15:17.981Z</time></trkpt><trkpt lat="42.9337967" lon="13.01333"><ele>933.6666666666666</ele><time>2026-05-02T11:15:19.983Z</time></trkpt><trkpt lat="42.9338333" lon="13.0132083"><ele>933.3333333333333</ele><time>2026-05-02T11:15:20.985Z</time></trkpt><trkpt lat="42.9338617" lon="13.0130983"><ele>933.0</ele><time>2026-05-02T11:15:21.984Z</time></trkpt><trkpt lat="42.9338883" lon="13.0129917"><ele>932.6666666666667</ele><time>2026-05-02T11:15:22.983Z</time></trkpt><trkpt lat="42.933915" lon="13.012885"><ele>932.3333333333334</ele><time>2026-05-02T11:15:23.984Z</time></trkpt><trkpt lat="42.9339417" lon="13.0127783"><ele>932.0</ele><time>2026-05-02T11:15:24.983Z</time></trkpt><trkpt lat="42.9340433" lon="13.0124467"><ele>933.0000000000001</ele><time>2026-05-02T11:15:27.984Z</time></trkpt><trkpt lat="42.9340983" lon="13.01234"><ele>934.0</ele><time>2026-05-02T11:15:28.985Z</time></trkpt><trkpt lat="42.934155" lon="13.0122317"><ele>935.0</ele><time>2026-05-02T11:15:29.981Z</time></trkpt><trkpt lat="42.9342017" lon="13.0121217"><ele>936.0</ele><time>2026-05-02T11:15:30.983Z</time></trkpt><trkpt lat="42.9342267" lon="13.01202"><ele>937.0000000000001</ele><time>2026-05-02T11:15:31.981Z</time></trkpt><trkpt lat="42.934235" lon="13.011925"><ele>938.0</ele><time>2026-05-02T11:15:32.983Z</time></trkpt><trkpt lat="42.9342183" lon="13.01182"><ele>941.0</ele><time>2026-05-02T11:15:34.982Z</time></trkpt><trkpt lat="42.9342617" lon="13.0117133"><ele>944.0</ele><time>2026-05-02T11:15:37.981Z</time></trkpt><trkpt lat="42.9343233" lon="13.0115683"><ele>947.0</ele><time>2026-05-02T11:15:39.982Z</time></trkpt><trkpt lat="42.9343633" lon="13.0114733"><ele>950.0</ele><time>2026-05-02T11:15:40.983Z</time></trkpt><trkpt lat="42.9344033" lon="13.011375"><ele>953.0</ele><time>2026-05-02T11:15:41.982Z</time></trkpt><trkpt lat="42.9344467" lon="13.01128"><ele>953.0000000000001</ele><time>2026-05-02T11:15:42.981Z</time></trkpt><trkpt lat="42.9344883" lon="13.011185"><ele>953.0</ele><time>2026-05-02T11:15:43.981Z</time></trkpt><trkpt lat="42.93453" lon="13.0110917"><ele>953.0</ele><time>2026-05-02T11:15:44.982Z</time></trkpt><trkpt lat="42.9345683" lon="13.010995"><ele>953.0</ele><time>2026-05-02T11:15:45.981Z</time></trkpt><trkpt lat="42.9346067" lon="13.0108967"><ele>953.0000000000001</ele><time>2026-05-02T11:15:46.981Z</time></trkpt><trkpt lat="42.9346433" lon="13.0107933"><ele>953.0</ele><time>2026-05-02T11:15:47.981Z</time></trkpt><trkpt lat="42.9346783" lon="13.01069"><ele>953.1666666666667</ele><time>2026-05-02T11:15:48.983Z</time></trkpt><trkpt lat="42.9347167" lon="13.0105883"><ele>953.3333333333334</ele><time>2026-05-02T11:15:49.982Z</time></trkpt><trkpt lat="42.93476" lon="13.010485"><ele>953.5</ele><time>2026-05-02T11:15:50.982Z</time></trkpt><trkpt lat="42.9348033" lon="13.010385"><ele>953.6666666666667</ele><time>2026-05-02T11:15:51.982Z</time></trkpt><trkpt lat="42.93484" lon="13.0102933"><ele>953.8333333333334</ele><time>2026-05-02T11:15:52.983Z</time></trkpt><trkpt lat="42.934875" lon="13.0102067"><ele>954.0</ele><time>2026-05-02T11:15:53.984Z</time></trkpt><trkpt lat="42.9349117" lon="13.010125"><ele>954.0</ele><time>2026-05-02T11:15:54.983Z</time></trkpt><trkpt lat="42.934955" lon="13.0100483"><ele>953.9999999999999</ele><time>2026-05-02T11:15:55.983Z</time></trkpt><trkpt lat="42.9349983" lon="13.009975"><ele>954.0</ele><time>2026-05-02T11:15:56.982Z</time></trkpt><trkpt lat="42.935045" lon="13.0099083"><ele>954.0</ele><time>2026-05-02T11:15:57.982Z</time></trkpt><trkpt lat="42.9350983" lon="13.00985"><ele>953.9999999999999</ele><time>2026-05-02T11:15:58.983Z</time></trkpt><trkpt lat="42.9351517" lon="13.009795"><ele>954.0</ele><time>2026-05-02T11:15:59.982Z</time></trkpt><trkpt lat="42.935205" lon="13.009735"><ele>954.0</ele><time>2026-05-02T11:16:00.982Z</time></trkpt><trkpt lat="42.9352517" lon="13.0096633"><ele>956.8333333333334</ele><time>2026-05-02T11:16:01.982Z</time></trkpt><trkpt lat="42.9352933" lon="13.0095833"><ele>959.6666666666667</ele><time>2026-05-02T11:16:02.982Z</time></trkpt><trkpt lat="42.93533" lon="13.009495"><ele>962.5</ele><time>2026-05-02T11:16:03.982Z</time></trkpt><trkpt lat="42.9353683" lon="13.0094017"><ele>965.3333333333334</ele><time>2026-05-02T11:16:04.982Z</time></trkpt><trkpt lat="42.93541" lon="13.0093117"><ele>968.1666666666667</ele><time>2026-05-02T11:16:05.982Z</time></trkpt><trkpt lat="42.935455" lon="13.0092233"><ele>971.0</ele><time>2026-05-02T11:16:06.982Z</time></trkpt><trkpt lat="42.9355033" lon="13.0091333"><ele>971.5000000000001</ele><time>2026-05-02T11:16:07.982Z</time></trkpt><trkpt lat="42.9355517" lon="13.0090433"><ele>972.0</ele><time>2026-05-02T11:16:08.984Z</time></trkpt><trkpt lat="42.9355967" lon="13.0089567"><ele>972.5</ele><time>2026-05-02T11:16:09.982Z</time></trkpt><trkpt lat="42.9356317" lon="13.008885"><ele>973.0</ele><time>2026-05-02T11:16:10.982Z</time></trkpt><trkpt lat="42.9356883" lon="13.0087667"><ele>973.5000000000001</ele><time>2026-05-02T11:16:12.981Z</time></trkpt><trkpt lat="42.9357517" lon="13.0086367"><ele>974.0</ele><time>2026-05-02T11:16:14.983Z</time></trkpt><trkpt lat="42.9358133" lon="13.0085017"><ele>974.0000000000001</ele><time>2026-05-02T11:16:16.983Z</time></trkpt><trkpt lat="42.9358833" lon="13.0083617"><ele>974.0</ele><time>2026-05-02T11:16:18.983Z</time></trkpt><trkpt lat="42.9359217" lon="13.0082833"><ele>974.0</ele><time>2026-05-02T11:16:19.982Z</time></trkpt><trkpt lat="42.93596" lon="13.0082067"><ele>974.0</ele><time>2026-05-02T11:16:20.983Z</time></trkpt><trkpt lat="42.9359933" lon="13.0081333"><ele>974.0000000000001</ele><time>2026-05-02T11:16:21.982Z</time></trkpt><trkpt lat="42.9360267" lon="13.00806"><ele>974.0</ele><time>2026-05-02T11:16:22.983Z</time></trkpt><trkpt lat="42.93609" lon="13.0079133"><ele>976.6</ele><time>2026-05-02T11:16:24.985Z</time></trkpt><trkpt lat="42.936145" lon="13.00777"><ele>979.2</ele><time>2026-05-02T11:16:26.983Z</time></trkpt><trkpt lat="42.9362033" lon="13.007675"><ele>981.8000000000001</ele><time>2026-05-02T11:16:28.982Z</time></trkpt><trkpt lat="42.9362817" lon="13.007585"><ele>984.4000000000001</ele><time>2026-05-02T11:16:30.982Z</time></trkpt><trkpt lat="42.93637" lon="13.00747"><ele>987.0</ele><time>2026-05-02T11:16:32.983Z</time></trkpt><trkpt lat="42.93642" lon="13.007415"><ele>987.1666666666666</ele><time>2026-05-02T11:16:33.983Z</time></trkpt><trkpt lat="42.9365183" lon="13.0073367"><ele>987.3333333333333</ele><time>2026-05-02T11:16:35.982Z</time></trkpt><trkpt lat="42.936615" lon="13.00726"><ele>987.5</ele><time>2026-05-02T11:16:37.982Z</time></trkpt><trkpt lat="42.9366733" lon="13.007175"><ele>987.6666666666666</ele><time>2026-05-02T11:16:39.982Z</time></trkpt><trkpt lat="42.9367033" lon="13.0070967"><ele>987.8333333333333</ele><time>2026-05-02T11:16:57.983Z</time></trkpt><trkpt lat="42.9367567" lon="13.007045"><ele>988.0</ele><time>2026-05-02T11:16:59.982Z</time></trkpt><trkpt lat="42.9368383" lon="13.0069683"><ele>991.0</ele><time>2026-05-02T11:17:01.982Z</time></trkpt><trkpt lat="42.9369283" lon="13.0068817"><ele>994.0</ele><time>2026-05-02T11:17:03.982Z</time></trkpt><trkpt lat="42.9370283" lon="13.0067783"><ele>997.0</ele><time>2026-05-02T11:17:05.981Z</time></trkpt><trkpt lat="42.937085" lon="13.0067167"><ele>1000.0</ele><time>2026-05-02T11:17:06.981Z</time></trkpt><trkpt lat="42.9371433" lon="13.006655"><ele>1003.0</ele><time>2026-05-02T11:17:07.982Z</time></trkpt><trkpt lat="42.9371967" lon="13.00659"><ele>1003.2857142857142</ele><time>2026-05-02T11:17:08.983Z</time></trkpt><trkpt lat="42.93725" lon="13.0065283"><ele>1003.5714285714284</ele><time>2026-05-02T11:17:09.983Z</time></trkpt><trkpt lat="42.9373067" lon="13.00648"><ele>1003.8571428571429</ele><time>2026-05-02T11:17:10.983Z</time></trkpt><trkpt lat="42.93736" lon="13.0064317"><ele>1004.1428571428571</ele><time>2026-05-02T11:17:11.982Z</time></trkpt><trkpt lat="42.9374167" lon="13.00639"><ele>1004.4285714285714</ele><time>2026-05-02T11:17:12.983Z</time></trkpt><trkpt lat="42.9375067" lon="13.006335"><ele>1004.7142857142858</ele><time>2026-05-02T11:17:14.986Z</time></trkpt><trkpt lat="42.9375733" lon="13.0063017"><ele>1005.0000000000001</ele><time>2026-05-02T11:17:16.983Z</time></trkpt><trkpt lat="42.9374867" lon="13.0063517"><ele>1005.0</ele><time>2026-05-02T11:19:44.982Z</time></trkpt><trkpt lat="42.9373517" lon="13.00644"><ele>1005.0</ele><time>2026-05-02T11:19:47.981Z</time></trkpt><trkpt lat="42.937255" lon="13.0065367"><ele>1005.0</ele><time>2026-05-02T11:19:49.982Z</time></trkpt><trkpt lat="42.937115" lon="13.0067"><ele>1004.6</ele><time>2026-05-02T11:19:52.981Z</time></trkpt><trkpt lat="42.9370233" lon="13.0068067"><ele>1004.2</ele><time>2026-05-02T11:19:54.982Z</time></trkpt><trkpt lat="42.9369467" lon="13.0068867"><ele>1003.8</ele><time>2026-05-02T11:19:56.982Z</time></trkpt><trkpt lat="42.9368733" lon="13.0069533"><ele>1003.4</ele><time>2026-05-02T11:19:58.982Z</time></trkpt><trkpt lat="42.9368133" lon="13.0070067"><ele>1003.0</ele><time>2026-05-02T11:20:00.982Z</time></trkpt><trkpt lat="42.9367483" lon="13.007065"><ele>1000.4999999999999</ele><time>2026-05-02T11:20:04.984Z</time></trkpt><trkpt lat="42.9367" lon="13.00714"><ele>998.0</ele><time>2026-05-02T11:20:26.983Z</time></trkpt><trkpt lat="42.93665" lon="13.0072117"><ele>995.5</ele><time>2026-05-02T11:20:29.981Z</time></trkpt><trkpt lat="42.9365917" lon="13.00728"><ele>993.0</ele><time>2026-05-02T11:20:32.982Z</time></trkpt><trkpt lat="42.936515" lon="13.0073267"><ele>990.4999999999999</ele><time>2026-05-02T11:20:38.982Z</time></trkpt><trkpt lat="42.93645" lon="13.0073617"><ele>988.0</ele><time>2026-05-02T11:20:40.982Z</time></trkpt><trkpt lat="42.936375" lon="13.0074433"><ele>987.75</ele><time>2026-05-02T11:20:42.983Z</time></trkpt><trkpt lat="42.9362917" lon="13.0075467"><ele>987.5</ele><time>2026-05-02T11:20:44.983Z</time></trkpt><trkpt lat="42.93621" lon="13.0076583"><ele>987.25</ele><time>2026-05-02T11:20:46.982Z</time></trkpt><trkpt lat="42.9361433" lon="13.0077733"><ele>987.0</ele><time>2026-05-02T11:20:48.982Z</time></trkpt><trkpt lat="42.9360917" lon="13.0079217"><ele>987.0</ele><time>2026-05-02T11:20:50.982Z</time></trkpt><trkpt lat="42.93603" lon="13.0080717"><ele>987.0</ele><time>2026-05-02T11:20:52.982Z</time></trkpt><trkpt lat="42.935995" lon="13.0081483"><ele>987.0</ele><time>2026-05-02T11:20:53.982Z</time></trkpt><trkpt lat="42.9359317" lon="13.008295"><ele>987.0</ele><time>2026-05-02T11:20:55.983Z</time></trkpt><trkpt lat="42.93587" lon="13.0084283"><ele>987.0</ele><time>2026-05-02T11:20:57.983Z</time></trkpt><trkpt lat="42.9358083" lon="13.00855"><ele>984.4000000000001</ele><time>2026-05-02T11:20:59.983Z</time></trkpt><trkpt lat="42.9357467" lon="13.0086833"><ele>981.8000000000001</ele><time>2026-05-02T11:21:01.982Z</time></trkpt><trkpt lat="42.9356783" lon="13.0088083"><ele>979.2</ele><time>2026-05-02T11:21:03.982Z</time></trkpt><trkpt lat="42.9356417" lon="13.00888"><ele>976.6</ele><time>2026-05-02T11:21:04.982Z</time></trkpt><trkpt lat="42.935565" lon="13.0090217"><ele>974.0</ele><time>2026-05-02T11:21:06.983Z</time></trkpt><trkpt lat="42.9355283" lon="13.009095"><ele>973.5714285714287</ele><time>2026-05-02T11:21:07.983Z</time></trkpt><trkpt lat="42.9354917" lon="13.0091667"><ele>973.1428571428571</ele><time>2026-05-02T11:21:08.983Z</time></trkpt><trkpt lat="42.93545" lon="13.0092417"><ele>972.7142857142858</ele><time>2026-05-02T11:21:09.982Z</time></trkpt><trkpt lat="42.9354117" lon="13.0093267"><ele>972.2857142857143</ele><time>2026-05-02T11:21:10.983Z</time></trkpt><trkpt lat="42.9353767" lon="13.00941"><ele>971.8571428571429</ele><time>2026-05-02T11:21:11.982Z</time></trkpt><trkpt lat="42.935345" lon="13.0094867"><ele>971.4285714285714</ele><time>2026-05-02T11:21:12.982Z</time></trkpt><trkpt lat="42.9353133" lon="13.0095633"><ele>971.0</ele><time>2026-05-02T11:21:13.982Z</time></trkpt><trkpt lat="42.9352767" lon="13.0096433"><ele>971.0</ele><time>2026-05-02T11:21:14.984Z</time></trkpt><trkpt lat="42.9352267" lon="13.009715"><ele>971.0000000000001</ele><time>2026-05-02T11:21:15.983Z</time></trkpt><trkpt lat="42.9351733" lon="13.00978"><ele>971.0</ele><time>2026-05-02T11:21:16.983Z</time></trkpt><trkpt lat="42.9351233" lon="13.0098383"><ele>971.0</ele><time>2026-05-02T11:21:17.982Z</time></trkpt><trkpt lat="42.935075" lon="13.0098983"><ele>971.0000000000001</ele><time>2026-05-02T11:21:18.981Z</time></trkpt><trkpt lat="42.935025" lon="13.00996"><ele>971.0</ele><time>2026-05-02T11:21:19.981Z</time></trkpt><trkpt lat="42.9349767" lon="13.010025"><ele>971.0</ele><time>2026-05-02T11:21:20.982Z</time></trkpt><trkpt lat="42.9349333" lon="13.0100967"><ele>968.5714285714287</ele><time>2026-05-02T11:21:21.981Z</time></trkpt><trkpt lat="42.9348967" lon="13.0101683"><ele>966.1428571428572</ele><time>2026-05-02T11:21:22.981Z</time></trkpt><trkpt lat="42.9348617" lon="13.0102533"><ele>963.7142857142858</ele><time>2026-05-02T11:21:23.983Z</time></trkpt><trkpt lat="42.934825" lon="13.0103433"><ele>961.2857142857142</ele><time>2026-05-02T11:21:24.982Z</time></trkpt><trkpt lat="42.9347833" lon="13.010435"><ele>958.8571428571428</ele><time>2026-05-02T11:21:25.981Z</time></trkpt><trkpt lat="42.9347433" lon="13.0105267"><ele>956.4285714285713</ele><time>2026-05-02T11:21:26.982Z</time></trkpt><trkpt lat="42.934705" lon="13.0106133"><ele>954.0</ele><time>2026-05-02T11:21:27.982Z</time></trkpt><trkpt lat="42.9346733" lon="13.0107017"><ele>954.0</ele><time>2026-05-02T11:21:28.981Z</time></trkpt><trkpt lat="42.9346417" lon="13.0107917"><ele>953.9999999999999</ele><time>2026-05-02T11:21:29.982Z</time></trkpt><trkpt lat="42.9346083" lon="13.010885"><ele>954.0</ele><time>2026-05-02T11:21:30.981Z</time></trkpt><trkpt lat="42.934575" lon="13.0109783"><ele>954.0</ele><time>2026-05-02T11:21:31.981Z</time></trkpt><trkpt lat="42.9345367" lon="13.0110683"><ele>953.9999999999999</ele><time>2026-05-02T11:21:32.981Z</time></trkpt><trkpt lat="42.9345017" lon="13.011155"><ele>954.0</ele><time>2026-05-02T11:21:33.982Z</time></trkpt><trkpt lat="42.934465" lon="13.011235"><ele>954.0</ele><time>2026-05-02T11:21:34.982Z</time></trkpt><trkpt lat="42.93443" lon="13.0113183"><ele>953.8333333333334</ele><time>2026-05-02T11:21:35.982Z</time></trkpt><trkpt lat="42.934395" lon="13.01141"><ele>953.6666666666667</ele><time>2026-05-02T11:21:36.981Z</time></trkpt><trkpt lat="42.9343617" lon="13.0115017"><ele>953.5</ele><time>2026-05-02T11:21:37.982Z</time></trkpt><trkpt lat="42.934325" lon="13.01159"><ele>953.3333333333334</ele><time>2026-05-02T11:21:38.983Z</time></trkpt><trkpt lat="42.93429" lon="13.0116783"><ele>953.1666666666667</ele><time>2026-05-02T11:21:39.981Z</time></trkpt><trkpt lat="42.9342367" lon="13.0117983"><ele>953.0</ele><time>2026-05-02T11:21:41.982Z</time></trkpt><trkpt lat="42.9341433" lon="13.0117883"><ele>950.0</ele><time>2026-05-02T11:21:44.982Z</time></trkpt><trkpt lat="42.9340717" lon="13.0117667"><ele>947.0</ele><time>2026-05-02T11:21:45.982Z</time></trkpt><trkpt lat="42.9339917" lon="13.0117733"><ele>944.0</ele><time>2026-05-02T11:21:46.982Z</time></trkpt><trkpt lat="42.9339" lon="13.0118433"><ele>941.0</ele><time>2026-05-02T11:21:47.981Z</time></trkpt><trkpt lat="42.9338033" lon="13.0119783"><ele>938.0</ele><time>2026-05-02T11:21:48.982Z</time></trkpt><trkpt lat="42.9336967" lon="13.0121183"><ele>938.0</ele><time>2026-05-02T11:21:49.982Z</time></trkpt><trkpt lat="42.9335717" lon="13.0122433"><ele>938.0</ele><time>2026-05-02T11:21:50.983Z</time></trkpt><trkpt lat="42.9334267" lon="13.0123517"><ele>938.0</ele><time>2026-05-02T11:21:51.981Z</time></trkpt><trkpt lat="42.93327" lon="13.01242"><ele>941.0</ele><time>2026-05-02T11:21:52.984Z</time></trkpt><trkpt lat="42.9331133" lon="13.0124467"><ele>944.0</ele><time>2026-05-02T11:21:53.982Z</time></trkpt><trkpt lat="42.9329617" lon="13.01245"><ele>947.0</ele><time>2026-05-02T11:21:54.981Z</time></trkpt><trkpt lat="42.9328167" lon="13.0124367"><ele>947.0</ele><time>2026-05-02T11:21:55.982Z</time></trkpt><trkpt lat="42.93267" lon="13.01241"><ele>947.0</ele><time>2026-05-02T11:21:56.982Z</time></trkpt><trkpt lat="42.9325333" lon="13.0123883"><ele>947.0</ele><time>2026-05-02T11:21:57.981Z</time></trkpt><trkpt lat="42.9324083" lon="13.01237"><ele>947.0</ele><time>2026-05-02T11:21:58.981Z</time></trkpt><trkpt lat="42.9322917" lon="13.01235"><ele>947.4000000000001</ele><time>2026-05-02T11:21:59.982Z</time></trkpt><trkpt lat="42.9321833" lon="13.0123233"><ele>947.8000000000001</ele><time>2026-05-02T11:22:00.982Z</time></trkpt><trkpt lat="42.932085" lon="13.0122833"><ele>948.2</ele><time>2026-05-02T11:22:01.982Z</time></trkpt><trkpt lat="42.9320017" lon="13.0122183"><ele>948.6</ele><time>2026-05-02T11:22:02.983Z</time></trkpt><trkpt lat="42.9319383" lon="13.0121317"><ele>949.0</ele><time>2026-05-02T11:22:03.983Z</time></trkpt><trkpt lat="42.9318983" lon="13.01204"><ele>948.9999999999999</ele><time>2026-05-02T11:22:04.981Z</time></trkpt><trkpt lat="42.9318717" lon="13.0119467"><ele>949.0</ele><time>2026-05-02T11:22:05.982Z</time></trkpt><trkpt lat="42.93186" lon="13.0118483"><ele>949.0</ele><time>2026-05-02T11:22:06.982Z</time></trkpt><trkpt lat="42.9318567" lon="13.01174"><ele>949.0</ele><time>2026-05-02T11:22:07.983Z</time></trkpt><trkpt lat="42.9318583" lon="13.0116217"><ele>948.9999999999999</ele><time>2026-05-02T11:22:08.982Z</time></trkpt><trkpt lat="42.9318667" lon="13.011495"><ele>949.0</ele><time>2026-05-02T11:22:09.983Z</time></trkpt><trkpt lat="42.9318883" lon="13.01137"><ele>950.4999999999999</ele><time>2026-05-02T11:22:10.981Z</time></trkpt><trkpt lat="42.93193" lon="13.0112583"><ele>952.0</ele><time>2026-05-02T11:22:11.981Z</time></trkpt><trkpt lat="42.9319867" lon="13.01117"><ele>953.5</ele><time>2026-05-02T11:22:12.982Z</time></trkpt><trkpt lat="42.9320567" lon="13.0111033"><ele>955.0</ele><time>2026-05-02T11:22:13.982Z</time></trkpt><trkpt lat="42.932135" lon="13.011065"><ele>956.4999999999999</ele><time>2026-05-02T11:22:14.983Z</time></trkpt><trkpt lat="42.93221" lon="13.011045"><ele>958.0</ele><time>2026-05-02T11:22:15.982Z</time></trkpt><trkpt lat="42.9322733" lon="13.011035"><ele>957.9999999999999</ele><time>2026-05-02T11:22:16.983Z</time></trkpt><trkpt lat="42.93236" lon="13.01099"><ele>958.0</ele><time>2026-05-02T11:22:18.983Z</time></trkpt><trkpt lat="42.932405" lon="13.0108617"><ele>958.0</ele><time>2026-05-02T11:22:20.985Z</time></trkpt><trkpt lat="42.9324217" lon="13.010775"><ele>958.0</ele><time>2026-05-02T11:22:21.983Z</time></trkpt><trkpt lat="42.93244" lon="13.0106767"><ele>957.9999999999999</ele><time>2026-05-02T11:22:22.984Z</time></trkpt><trkpt lat="42.932455" lon="13.01057"><ele>958.0</ele><time>2026-05-02T11:22:23.983Z</time></trkpt><trkpt lat="42.9324683" lon="13.01046"><ele>959.4999999999999</ele><time>2026-05-02T11:22:24.985Z</time></trkpt><trkpt lat="42.9324767" lon="13.0103467"><ele>961.0</ele><time>2026-05-02T11:22:25.984Z</time></trkpt><trkpt lat="42.9324767" lon="13.01024"><ele>962.5</ele><time>2026-05-02T11:22:26.982Z</time></trkpt><trkpt lat="42.9324767" lon="13.0101483"><ele>964.0</ele><time>2026-05-02T11:22:27.981Z</time></trkpt><trkpt lat="42.9325067" lon="13.0100333"><ele>965.4999999999999</ele><time>2026-05-02T11:22:29.981Z</time></trkpt><trkpt lat="42.9325667" lon="13.0099667"><ele>967.0</ele><time>2026-05-02T11:22:31.981Z</time></trkpt><trkpt lat="42.9326217" lon="13.0098583"><ele>970.0</ele><time>2026-05-02T11:22:33.982Z</time></trkpt><trkpt lat="42.93268" lon="13.0097267"><ele>973.0</ele><time>2026-05-02T11:22:35.982Z</time></trkpt><trkpt lat="42.932735" lon="13.0096433"><ele>976.0</ele><time>2026-05-02T11:22:37.984Z</time></trkpt><trkpt lat="42.932815" lon="13.0095467"><ele>979.0</ele><time>2026-05-02T11:22:41.983Z</time></trkpt><trkpt lat="42.9329067" lon="13.00945"><ele>982.0</ele><time>2026-05-02T11:22:43.982Z</time></trkpt><trkpt lat="42.932955" lon="13.009385"><ele>981.9999999999999</ele><time>2026-05-02T11:22:44.982Z</time></trkpt><trkpt lat="42.9330017" lon="13.0093133"><ele>982.0</ele><time>2026-05-02T11:22:45.982Z</time></trkpt><trkpt lat="42.933045" lon="13.00924"><ele>982.0</ele><time>2026-05-02T11:22:46.983Z</time></trkpt><trkpt lat="42.9331233" lon="13.0091083"><ele>982.0</ele><time>2026-05-02T11:22:48.982Z</time></trkpt><trkpt lat="42.9331667" lon="13.0090433"><ele>981.9999999999999</ele><time>2026-05-02T11:22:49.983Z</time></trkpt><trkpt lat="42.9332117" lon="13.008975"><ele>982.0</ele><time>2026-05-02T11:22:50.984Z</time></trkpt><trkpt lat="42.933265" lon="13.0088967"><ele>983.3333333333333</ele><time>2026-05-02T11:22:51.983Z</time></trkpt><trkpt lat="42.93332" lon="13.0088083"><ele>984.6666666666666</ele><time>2026-05-02T11:22:52.983Z</time></trkpt><trkpt lat="42.933375" lon="13.0087133"><ele>986.0</ele><time>2026-05-02T11:22:53.982Z</time></trkpt><trkpt lat="42.933425" lon="13.0086133"><ele>987.3333333333333</ele><time>2026-05-02T11:22:54.981Z</time></trkpt><trkpt lat="42.9334683" lon="13.0085117"><ele>988.6666666666666</ele><time>2026-05-02T11:22:55.981Z</time></trkpt><trkpt lat="42.9335067" lon="13.0084067"><ele>990.0</ele><time>2026-05-02T11:22:56.982Z</time></trkpt><trkpt lat="42.93354" lon="13.00831"><ele>992.0</ele><time>2026-05-02T11:22:57.982Z</time></trkpt><trkpt lat="42.9335733" lon="13.0082167"><ele>994.0</ele><time>2026-05-02T11:22:58.982Z</time></trkpt><trkpt lat="42.9336067" lon="13.0081183"><ele>996.0</ele><time>2026-05-02T11:22:59.982Z</time></trkpt><trkpt lat="42.9336417" lon="13.00802"><ele>998.0</ele><time>2026-05-02T11:23:00.982Z</time></trkpt><trkpt lat="42.93368" lon="13.0079217"><ele>1000.0</ele><time>2026-05-02T11:23:01.982Z</time></trkpt><trkpt lat="42.9337183" lon="13.007825"><ele>1002.0</ele><time>2026-05-02T11:23:02.982Z</time></trkpt><trkpt lat="42.933755" lon="13.0077267"><ele>1002.0</ele><time>2026-05-02T11:23:03.982Z</time></trkpt><trkpt lat="42.9337933" lon="13.0076367"><ele>1002.0</ele><time>2026-05-02T11:23:04.983Z</time></trkpt><trkpt lat="42.9338383" lon="13.007555"><ele>1002.0</ele><time>2026-05-02T11:23:05.982Z</time></trkpt><trkpt lat="42.9338917" lon="13.0074833"><ele>1002.0</ele><time>2026-05-02T11:23:06.981Z</time></trkpt><trkpt lat="42.9339483" lon="13.0074183"><ele>1002.0</ele><time>2026-05-02T11:23:07.981Z</time></trkpt><trkpt lat="42.9340067" lon="13.00736"><ele>1002.0</ele><time>2026-05-02T11:23:08.982Z</time></trkpt><trkpt lat="42.9340683" lon="13.007305"><ele>1002.0</ele><time>2026-05-02T11:23:09.983Z</time></trkpt><trkpt lat="42.93414" lon="13.00726"><ele>1003.8</ele><time>2026-05-02T11:23:10.983Z</time></trkpt><trkpt lat="42.9342217" lon="13.0072167"><ele>1005.6</ele><time>2026-05-02T11:23:11.983Z</time></trkpt><trkpt lat="42.9343117" lon="13.00717"><ele>1007.3999999999999</ele><time>2026-05-02T11:23:12.981Z</time></trkpt><trkpt lat="42.934415" lon="13.00712"><ele>1009.1999999999999</ele><time>2026-05-02T11:23:13.981Z</time></trkpt><trkpt lat="42.9345217" lon="13.0070617"><ele>1011.0</ele><time>2026-05-02T11:23:14.982Z</time></trkpt><trkpt lat="42.93462" lon="13.0069917"><ele>1011.0</ele><time>2026-05-02T11:23:15.982Z</time></trkpt><trkpt lat="42.934705" lon="13.0069117"><ele>1011.0</ele><time>2026-05-02T11:23:16.982Z</time></trkpt><trkpt lat="42.9347783" lon="13.0068317"><ele>1011.0</ele><time>2026-05-02T11:23:17.982Z</time></trkpt><trkpt lat="42.934845" lon="13.0067533"><ele>1011.0</ele><time>2026-05-02T11:23:18.982Z</time></trkpt><trkpt lat="42.9349117" lon="13.00669"><ele>1011.0</ele><time>2026-05-02T11:23:19.982Z</time></trkpt><trkpt lat="42.93497" lon="13.00664"><ele>1011.0</ele><time>2026-05-02T11:23:20.983Z</time></trkpt><trkpt lat="42.9350133" lon="13.00656"><ele>1011.5</ele><time>2026-05-02T11:23:23.984Z</time></trkpt><trkpt lat="42.93502" lon="13.0064533"><ele>1012.0</ele><time>2026-05-02T11:23:26.983Z</time></trkpt><trkpt lat="42.9349967" lon="13.0063517"><ele>1012.5</ele><time>2026-05-02T11:23:29.981Z</time></trkpt><trkpt lat="42.9349683" lon="13.0062333"><ele>1013.0</ele><time>2026-05-02T11:23:32.984Z</time></trkpt><trkpt lat="42.9349383" lon="13.0061133"><ele>1013.5</ele><time>2026-05-02T11:23:35.982Z</time></trkpt><trkpt lat="42.934895" lon="13.0060217"><ele>1014.0</ele><time>2026-05-02T11:23:37.983Z</time></trkpt><trkpt lat="42.9348633" lon="13.0059117"><ele>1014.5</ele><time>2026-05-02T11:23:39.982Z</time></trkpt><trkpt lat="42.9348367" lon="13.0057983"><ele>1015.0</ele><time>2026-05-02T11:23:42.983Z</time></trkpt><trkpt lat="42.9348117" lon="13.0057033"><ele>1015.5</ele><time>2026-05-02T11:23:56.983Z</time></trkpt><trkpt lat="42.9347533" lon="13.00556"><ele>1016.0</ele><time>2026-05-02T11:23:58.983Z</time></trkpt><trkpt lat="42.934715" lon="13.005475"><ele>1016.5</ele><time>2026-05-02T11:23:59.982Z</time></trkpt><trkpt lat="42.9346733" lon="13.0053867"><ele>1017.0</ele><time>2026-05-02T11:24:00.982Z</time></trkpt><trkpt lat="42.9346183" lon="13.0053017"><ele>1017.0</ele><time>2026-05-02T11:24:01.982Z</time></trkpt><trkpt lat="42.9345567" lon="13.0052267"><ele>1017.0</ele><time>2026-05-02T11:24:02.982Z</time></trkpt><trkpt lat="42.93448" lon="13.00514"><ele>1017.0</ele><time>2026-05-02T11:24:03.982Z</time></trkpt><trkpt lat="42.9343917" lon="13.0050367"><ele>1017.0</ele><time>2026-05-02T11:24:04.983Z</time></trkpt><trkpt lat="42.9343083" lon="13.004935"><ele>1017.0</ele><time>2026-05-02T11:24:05.982Z</time></trkpt><trkpt lat="42.9342283" lon="13.0048417"><ele>1016.75</ele><time>2026-05-02T11:24:06.983Z</time></trkpt><trkpt lat="42.9341483" lon="13.0047517"><ele>1016.5</ele><time>2026-05-02T11:24:07.983Z</time></trkpt><trkpt lat="42.9340633" lon="13.00466"><ele>1016.25</ele><time>2026-05-02T11:24:08.982Z</time></trkpt><trkpt lat="42.933975" lon="13.0045567"><ele>1016.0</ele><time>2026-05-02T11:24:09.982Z</time></trkpt><trkpt lat="42.9338867" lon="13.0044417"><ele>1016.0</ele><time>2026-05-02T11:24:10.982Z</time></trkpt><trkpt lat="42.9338067" lon="13.0043267"><ele>1015.9999999999999</ele><time>2026-05-02T11:24:11.982Z</time></trkpt><trkpt lat="42.93374" lon="13.0042183"><ele>1015.9999999999999</ele><time>2026-05-02T11:24:12.983Z</time></trkpt><trkpt lat="42.9336883" lon="13.0041333"><ele>1016.0</ele><time>2026-05-02T11:24:13.982Z</time></trkpt><trkpt lat="42.9336283" lon="13.0040467"><ele>1016.0</ele><time>2026-05-02T11:24:15.982Z</time></trkpt><trkpt lat="42.9336883" lon="13.0039467"><ele>1015.1999999999999</ele><time>2026-05-02T11:24:19.985Z</time></trkpt><trkpt lat="42.9337517" lon="13.00392"><ele>1014.3999999999999</ele><time>2026-05-02T11:24:20.982Z</time></trkpt><trkpt lat="42.9338333" lon="13.0038883"><ele>1013.6</ele><time>2026-05-02T11:24:21.982Z</time></trkpt><trkpt lat="42.93393" lon="13.0038383"><ele>1012.8</ele><time>2026-05-02T11:24:22.982Z</time></trkpt><trkpt lat="42.9340367" lon="13.00378"><ele>1012.0</ele><time>2026-05-02T11:24:23.983Z</time></trkpt><trkpt lat="42.934145" lon="13.00371"><ele>1013.25</ele><time>2026-05-02T11:24:24.983Z</time></trkpt><trkpt lat="42.9342533" lon="13.0036283"><ele>1014.5</ele><time>2026-05-02T11:24:25.982Z</time></trkpt><trkpt lat="42.934355" lon="13.00354"><ele>1015.75</ele><time>2026-05-02T11:24:26.983Z</time></trkpt><trkpt lat="42.9344517" lon="13.0034517"><ele>1017.0</ele><time>2026-05-02T11:24:27.982Z</time></trkpt><trkpt lat="42.9345433" lon="13.0033683"><ele>1016.6666666666666</ele><time>2026-05-02T11:24:28.982Z</time></trkpt><trkpt lat="42.9346267" lon="13.0032883"><ele>1016.3333333333333</ele><time>2026-05-02T11:24:29.983Z</time></trkpt><trkpt lat="42.934705" lon="13.0032083"><ele>1016.0</ele><time>2026-05-02T11:24:30.983Z</time></trkpt><trkpt lat="42.934775" lon="13.003135"><ele>1015.6666666666666</ele><time>2026-05-02T11:24:31.984Z</time></trkpt><trkpt lat="42.9348383" lon="13.0030667"><ele>1015.3333333333333</ele><time>2026-05-02T11:24:32.985Z</time></trkpt><trkpt lat="42.934895" lon="13.0030033"><ele>1015.0</ele><time>2026-05-02T11:24:33.982Z</time></trkpt><trkpt lat="42.9349867" lon="13.0028567"><ele>1015.0</ele><time>2026-05-02T11:24:35.982Z</time></trkpt><trkpt lat="42.935025" lon="13.0027683"><ele>1015.0</ele><time>2026-05-02T11:24:36.985Z</time></trkpt><trkpt lat="42.93508" lon="13.0025533"><ele>1015.0</ele><time>2026-05-02T11:24:38.982Z</time></trkpt><trkpt lat="42.9350867" lon="13.0024233"><ele>1015.0</ele><time>2026-05-02T11:24:39.982Z</time></trkpt><trkpt lat="42.93508" lon="13.002285"><ele>1015.0</ele><time>2026-05-02T11:24:40.982Z</time></trkpt><trkpt lat="42.93505" lon="13.0021317"><ele>1015.0</ele><time>2026-05-02T11:24:41.984Z</time></trkpt><trkpt lat="42.9350067" lon="13.0019667"><ele>1015.0</ele><time>2026-05-02T11:24:42.984Z</time></trkpt><trkpt lat="42.934955" lon="13.001795"><ele>1015.0</ele><time>2026-05-02T11:24:43.984Z</time></trkpt><trkpt lat="42.9348983" lon="13.00162"><ele>1015.0</ele><time>2026-05-02T11:24:44.984Z</time></trkpt><trkpt lat="42.9348417" lon="13.001445"><ele>1015.0</ele><time>2026-05-02T11:24:45.983Z</time></trkpt><trkpt lat="42.9347883" lon="13.0012717"><ele>1015.0</ele><time>2026-05-02T11:24:46.982Z</time></trkpt><trkpt lat="42.9347433" lon="13.0010883"><ele>1015.0</ele><time>2026-05-02T11:24:47.982Z</time></trkpt><trkpt lat="42.934715" lon="13.0008967"><ele>1015.0</ele><time>2026-05-02T11:24:48.984Z</time></trkpt><trkpt lat="42.9347167" lon="13.0007033"><ele>1011.0</ele><time>2026-05-02T11:24:49.982Z</time></trkpt><trkpt lat="42.9347467" lon="13.0005167"><ele>1007.0</ele><time>2026-05-02T11:24:50.982Z</time></trkpt><trkpt lat="42.9348033" lon="13.000345"><ele>1003.0</ele><time>2026-05-02T11:24:51.982Z</time></trkpt><trkpt lat="42.9348767" lon="13.0002033"><ele>999.0</ele><time>2026-05-02T11:24:52.982Z</time></trkpt><trkpt lat="42.9349717" lon="13.0000917"><ele>1001.75</ele><time>2026-05-02T11:24:53.982Z</time></trkpt><trkpt lat="42.935085" lon="13.0000017"><ele>1004.5</ele><time>2026-05-02T11:24:54.981Z</time></trkpt><trkpt lat="42.935205" lon="12.9999233"><ele>1007.25</ele><time>2026-05-02T11:24:55.982Z</time></trkpt><trkpt lat="42.9353317" lon="12.9998417"><ele>1010.0</ele><time>2026-05-02T11:24:56.981Z</time></trkpt><trkpt lat="42.93547" lon="12.9997667"><ele>1010.0</ele><time>2026-05-02T11:24:57.981Z</time></trkpt><trkpt lat="42.9356183" lon="12.9997083"><ele>1010.0</ele><time>2026-05-02T11:24:58.981Z</time></trkpt><trkpt lat="42.9357783" lon="12.9996683"><ele>1010.0</ele><time>2026-05-02T11:24:59.981Z</time></trkpt><trkpt lat="42.9359433" lon="12.9996433"><ele>1011.3333333333334</ele><time>2026-05-02T11:25:00.981Z</time></trkpt><trkpt lat="42.936105" lon="12.9996283"><ele>1012.6666666666667</ele><time>2026-05-02T11:25:01.983Z</time></trkpt><trkpt lat="42.9362667" lon="12.9996167"><ele>1014.0</ele><time>2026-05-02T11:25:02.981Z</time></trkpt><trkpt lat="42.9364233" lon="12.99961"><ele>1014.0</ele><time>2026-05-02T11:25:03.981Z</time></trkpt><trkpt lat="42.936575" lon="12.999595"><ele>1014.0</ele><time>2026-05-02T11:25:04.982Z</time></trkpt><trkpt lat="42.9367233" lon="12.9995767"><ele>1014.0</ele><time>2026-05-02T11:25:05.981Z</time></trkpt><trkpt lat="42.93687" lon="12.999555"><ele>1014.0</ele><time>2026-05-02T11:25:06.982Z</time></trkpt><trkpt lat="42.93701" lon="12.9995117"><ele>1016.5</ele><time>2026-05-02T11:25:07.982Z</time></trkpt><trkpt lat="42.9371483" lon="12.9994317"><ele>1019.0</ele><time>2026-05-02T11:25:08.982Z</time></trkpt><trkpt lat="42.9372833" lon="12.9993417"><ele>1021.5</ele><time>2026-05-02T11:25:09.981Z</time></trkpt><trkpt lat="42.9374167" lon="12.999265"><ele>1024.0</ele><time>2026-05-02T11:25:10.981Z</time></trkpt><trkpt lat="42.9375533" lon="12.9992017"><ele>1022.3333333333333</ele><time>2026-05-02T11:25:11.982Z</time></trkpt><trkpt lat="42.937695" lon="12.9991333"><ele>1020.6666666666667</ele><time>2026-05-02T11:25:12.982Z</time></trkpt><trkpt lat="42.9378333" lon="12.99904"><ele>1019.0</ele><time>2026-05-02T11:25:13.981Z</time></trkpt><trkpt lat="42.9379617" lon="12.9989217"><ele>1019.0</ele><time>2026-05-02T11:25:14.982Z</time></trkpt><trkpt lat="42.9380817" lon="12.9988083"><ele>1019.0</ele><time>2026-05-02T11:25:15.981Z</time></trkpt><trkpt lat="42.9381917" lon="12.9987167"><ele>1019.0</ele><time>2026-05-02T11:25:16.982Z</time></trkpt><trkpt lat="42.938305" lon="12.998655"><ele>1019.0</ele><time>2026-05-02T11:25:17.981Z</time></trkpt><trkpt lat="42.9384267" lon="12.9986167"><ele>1015.5</ele><time>2026-05-02T11:25:18.981Z</time></trkpt><trkpt lat="42.93855" lon="12.9985633"><ele>1012.0</ele><time>2026-05-02T11:25:19.982Z</time></trkpt><trkpt lat="42.938675" lon="12.9984817"><ele>1008.5</ele><time>2026-05-02T11:25:20.983Z</time></trkpt><trkpt lat="42.9387917" lon="12.9983617"><ele>1005.0</ele><time>2026-05-02T11:25:21.983Z</time></trkpt><trkpt lat="42.9388983" lon="12.9982333"><ele>1005.0</ele><time>2026-05-02T11:25:22.982Z</time></trkpt><trkpt lat="42.9389967" lon="12.9981133"><ele>1005.0</ele><time>2026-05-02T11:25:23.981Z</time></trkpt><trkpt lat="42.9391033" lon="12.998025"><ele>1005.0</ele><time>2026-05-02T11:25:24.981Z</time></trkpt><trkpt lat="42.93922" lon="12.9979717"><ele>1005.0</ele><time>2026-05-02T11:25:25.982Z</time></trkpt><trkpt lat="42.9393417" lon="12.9979333"><ele>1013.5</ele><time>2026-05-02T11:25:26.983Z</time></trkpt><trkpt lat="42.939465" lon="12.9978817"><ele>1022.0</ele><time>2026-05-02T11:25:27.982Z</time></trkpt><trkpt lat="42.93959" lon="12.997795"><ele>1030.5</ele><time>2026-05-02T11:25:28.981Z</time></trkpt><trkpt lat="42.9397083" lon="12.997685"><ele>1039.0</ele><time>2026-05-02T11:25:29.982Z</time></trkpt><trkpt lat="42.93981" lon="12.997555"><ele>1033.0</ele><time>2026-05-02T11:25:30.981Z</time></trkpt><trkpt lat="42.9399133" lon="12.99744"><ele>1027.0</ele><time>2026-05-02T11:25:31.981Z</time></trkpt><trkpt lat="42.9400233" lon="12.9973533"><ele>1021.0</ele><time>2026-05-02T11:25:32.983Z</time></trkpt><trkpt lat="42.9401483" lon="12.9972883"><ele>1015.0</ele><time>2026-05-02T11:25:33.982Z</time></trkpt><trkpt lat="42.9402867" lon="12.9972267"><ele>1015.0</ele><time>2026-05-02T11:25:34.982Z</time></trkpt><trkpt lat="42.9404317" lon="12.99716"><ele>1015.0</ele><time>2026-05-02T11:25:35.981Z</time></trkpt><trkpt lat="42.9405733" lon="12.9970883"><ele>1015.0</ele><time>2026-05-02T11:25:36.982Z</time></trkpt><trkpt lat="42.9407017" lon="12.9970117"><ele>1015.0</ele><time>2026-05-02T11:25:37.981Z</time></trkpt><trkpt lat="42.940815" lon="12.9969217"><ele>1009.25</ele><time>2026-05-02T11:25:38.982Z</time></trkpt><trkpt lat="42.94092" lon="12.9968233"><ele>1003.5</ele><time>2026-05-02T11:25:39.982Z</time></trkpt><trkpt lat="42.9410317" lon="12.996725"><ele>997.75</ele><time>2026-05-02T11:25:40.981Z</time></trkpt><trkpt lat="42.9411567" lon="12.9966483"><ele>992.0</ele><time>2026-05-02T11:25:41.982Z</time></trkpt><trkpt lat="42.9412917" lon="12.996595"><ele>992.0</ele><time>2026-05-02T11:25:42.982Z</time></trkpt><trkpt lat="42.9414317" lon="12.996555"><ele>992.0</ele><time>2026-05-02T11:25:43.981Z</time></trkpt><trkpt lat="42.94158" lon="12.996525"><ele>992.0</ele><time>2026-05-02T11:25:44.982Z</time></trkpt><trkpt lat="42.94174" lon="12.9965033"><ele>997.3333333333334</ele><time>2026-05-02T11:25:45.982Z</time></trkpt><trkpt lat="42.9419" lon="12.9964933"><ele>1002.6666666666667</ele><time>2026-05-02T11:25:46.981Z</time></trkpt><trkpt lat="42.94205" lon="12.99649"><ele>1008.0</ele><time>2026-05-02T11:25:47.982Z</time></trkpt><trkpt lat="42.94219" lon="12.99647"><ele>1008.0</ele><time>2026-05-02T11:25:48.981Z</time></trkpt><trkpt lat="42.9423217" lon="12.996415"><ele>1008.0</ele><time>2026-05-02T11:25:49.981Z</time></trkpt><trkpt lat="42.9424483" lon="12.9963267"><ele>1008.0</ele><time>2026-05-02T11:25:50.981Z</time></trkpt><trkpt lat="42.942575" lon="12.996225"><ele>1008.0</ele><time>2026-05-02T11:25:51.982Z</time></trkpt><trkpt lat="42.94271" lon="12.996135"><ele>1013.0</ele><time>2026-05-02T11:25:52.982Z</time></trkpt><trkpt lat="42.9428583" lon="12.9960633"><ele>1018.0</ele><time>2026-05-02T11:25:53.981Z</time></trkpt><trkpt lat="42.94301" lon="12.9960067"><ele>1023.0</ele><time>2026-05-02T11:25:54.982Z</time></trkpt><trkpt lat="42.94316" lon="12.99596"><ele>1023.0</ele><time>2026-05-02T11:25:55.981Z</time></trkpt><trkpt lat="42.943305" lon="12.9959283"><ele>1023.0</ele><time>2026-05-02T11:25:56.982Z</time></trkpt><trkpt lat="42.9434433" lon="12.99591"><ele>1023.0</ele><time>2026-05-02T11:25:57.981Z</time></trkpt><trkpt lat="42.9435783" lon="12.995905"><ele>1023.0</ele><time>2026-05-02T11:25:58.983Z</time></trkpt><trkpt lat="42.9437067" lon="12.99592"><ele>1024.25</ele><time>2026-05-02T11:25:59.982Z</time></trkpt><trkpt lat="42.9438383" lon="12.9959383"><ele>1025.5</ele><time>2026-05-02T11:26:00.982Z</time></trkpt><trkpt lat="42.943975" lon="12.9959467"><ele>1026.75</ele><time>2026-05-02T11:26:01.981Z</time></trkpt><trkpt lat="42.9441133" lon="12.995935"><ele>1028.0</ele><time>2026-05-02T11:26:02.983Z</time></trkpt><trkpt lat="42.9442583" lon="12.9959183"><ele>1029.6666666666667</ele><time>2026-05-02T11:26:03.982Z</time></trkpt><trkpt lat="42.9444133" lon="12.9959017"><ele>1031.3333333333333</ele><time>2026-05-02T11:26:04.981Z</time></trkpt><trkpt lat="42.9445633" lon="12.9958833"><ele>1033.0</ele><time>2026-05-02T11:26:05.982Z</time></trkpt><trkpt lat="42.944705" lon="12.99585"><ele>1028.5</ele><time>2026-05-02T11:26:06.982Z</time></trkpt><trkpt lat="42.9448417" lon="12.9957967"><ele>1024.0</ele><time>2026-05-02T11:26:07.981Z</time></trkpt><trkpt lat="42.94497" lon="12.99571"><ele>1019.5</ele><time>2026-05-02T11:26:08.983Z</time></trkpt><trkpt lat="42.94509" lon="12.9955917"><ele>1015.0</ele><time>2026-05-02T11:26:09.982Z</time></trkpt><trkpt lat="42.9452" lon="12.99545"><ele>1015.0</ele><time>2026-05-02T11:26:10.981Z</time></trkpt><trkpt lat="42.945305" lon="12.9953033"><ele>1015.0</ele><time>2026-05-02T11:26:11.981Z</time></trkpt><trkpt lat="42.945405" lon="12.9951767"><ele>1015.0</ele><time>2026-05-02T11:26:12.981Z</time></trkpt><trkpt lat="42.9454983" lon="12.9950833"><ele>1015.0</ele><time>2026-05-02T11:26:13.982Z</time></trkpt><trkpt lat="42.9455983" lon="12.9950267"><ele>1006.75</ele><time>2026-05-02T11:26:14.983Z</time></trkpt><trkpt lat="42.945705" lon="12.9950017"><ele>998.5</ele><time>2026-05-02T11:26:15.982Z</time></trkpt><trkpt lat="42.9458167" lon="12.9949883"><ele>990.25</ele><time>2026-05-02T11:26:16.982Z</time></trkpt><trkpt lat="42.945935" lon="12.99498"><ele>982.0</ele><time>2026-05-02T11:26:17.981Z</time></trkpt><trkpt lat="42.9460633" lon="12.9949733"><ele>982.0</ele><time>2026-05-02T11:26:18.982Z</time></trkpt><trkpt lat="42.9462" lon="12.994955"><ele>982.0</ele><time>2026-05-02T11:26:19.983Z</time></trkpt><trkpt lat="42.9463417" lon="12.99493"><ele>982.0</ele><time>2026-05-02T11:26:20.982Z</time></trkpt><trkpt lat="42.9464817" lon="12.9949017"><ele>982.0</ele><time>2026-05-02T11:26:21.982Z</time></trkpt><trkpt lat="42.9466317" lon="12.994885"><ele>985.75</ele><time>2026-05-02T11:26:22.982Z</time></trkpt><trkpt lat="42.9467783" lon="12.9948683"><ele>989.5</ele><time>2026-05-02T11:26:23.982Z</time></trkpt><trkpt lat="42.9469183" lon="12.9948417"><ele>993.25</ele><time>2026-05-02T11:26:24.982Z</time></trkpt><trkpt lat="42.9470533" lon="12.9947883"><ele>997.0</ele><time>2026-05-02T11:26:25.982Z</time></trkpt><trkpt lat="42.9472" lon="12.9947233"><ele>997.0</ele><time>2026-05-02T11:26:26.982Z</time></trkpt><trkpt lat="42.947345" lon="12.994655"><ele>997.0</ele><time>2026-05-02T11:26:27.982Z</time></trkpt><trkpt lat="42.9474933" lon="12.9946"><ele>997.0</ele><time>2026-05-02T11:26:28.982Z</time></trkpt><trkpt lat="42.947645" lon="12.99455"><ele>998.5</ele><time>2026-05-02T11:26:29.982Z</time></trkpt><trkpt lat="42.947785" lon="12.9945133"><ele>1000.0</ele><time>2026-05-02T11:26:30.982Z</time></trkpt><trkpt lat="42.9479167" lon="12.9944967"><ele>1001.5</ele><time>2026-05-02T11:26:31.981Z</time></trkpt><trkpt lat="42.9480533" lon="12.9945133"><ele>1003.0</ele><time>2026-05-02T11:26:32.983Z</time></trkpt><trkpt lat="42.94819" lon="12.9945667"><ele>1003.0</ele><time>2026-05-02T11:26:33.982Z</time></trkpt><trkpt lat="42.9483167" lon="12.9946433"><ele>1003.0</ele><time>2026-05-02T11:26:34.982Z</time></trkpt><trkpt lat="42.9484233" lon="12.9947167"><ele>1003.0</ele><time>2026-05-02T11:26:35.981Z</time></trkpt><trkpt lat="42.948515" lon="12.9947567"><ele>1003.0</ele><time>2026-05-02T11:26:36.981Z</time></trkpt><trkpt lat="42.9486017" lon="12.99476"><ele>1003.0</ele><time>2026-05-02T11:26:37.981Z</time></trkpt><trkpt lat="42.94868" lon="12.9947133"><ele>1004.5999999999999</ele><time>2026-05-02T11:26:38.982Z</time></trkpt><trkpt lat="42.948745" lon="12.9946383"><ele>1006.1999999999999</ele><time>2026-05-02T11:26:39.981Z</time></trkpt><trkpt lat="42.9488" lon="12.994545"><ele>1007.8</ele><time>2026-05-02T11:26:40.982Z</time></trkpt><trkpt lat="42.9488217" lon="12.9943667"><ele>1009.4</ele><time>2026-05-02T11:26:41.981Z</time></trkpt><trkpt lat="42.9488217" lon="12.99418"><ele>1011.0</ele><time>2026-05-02T11:26:42.981Z</time></trkpt><trkpt lat="42.9488017" lon="12.9939917"><ele>1011.5</ele><time>2026-05-02T11:26:43.981Z</time></trkpt><trkpt lat="42.9487517" lon="12.9938117"><ele>1012.0</ele><time>2026-05-02T11:26:44.983Z</time></trkpt><trkpt lat="42.9486717" lon="12.9936483"><ele>1012.5</ele><time>2026-05-02T11:26:45.981Z</time></trkpt><trkpt lat="42.948575" lon="12.9934917"><ele>1013.0</ele><time>2026-05-02T11:26:46.982Z</time></trkpt><trkpt lat="42.948465" lon="12.9933683"><ele>1009.5999999999999</ele><time>2026-05-02T11:26:47.982Z</time></trkpt><trkpt lat="42.94835" lon="12.9932933"><ele>1006.1999999999999</ele><time>2026-05-02T11:26:48.983Z</time></trkpt><trkpt lat="42.9482333" lon="12.9932467"><ele>1002.8</ele><time>2026-05-02T11:26:49.981Z</time></trkpt><trkpt lat="42.9481267" lon="12.99322"><ele>999.4</ele><time>2026-05-02T11:26:50.982Z</time></trkpt><trkpt lat="42.9480417" lon="12.9931817"><ele>996.0</ele><time>2026-05-02T11:26:51.982Z</time></trkpt><trkpt lat="42.9479717" lon="12.99312"><ele>996.0</ele><time>2026-05-02T11:26:52.982Z</time></trkpt><trkpt lat="42.9479217" lon="12.99303"><ele>995.9999999999999</ele><time>2026-05-02T11:26:53.982Z</time></trkpt><trkpt lat="42.9479183" lon="12.9929317"><ele>996.0</ele><time>2026-05-02T11:26:54.981Z</time></trkpt><trkpt lat="42.9479417" lon="12.9928517"><ele>996.0</ele><time>2026-05-02T11:26:55.981Z</time></trkpt><trkpt lat="42.94799" lon="12.9927917"><ele>995.9999999999999</ele><time>2026-05-02T11:26:56.982Z</time></trkpt><trkpt lat="42.9480617" lon="12.9927417"><ele>996.0</ele><time>2026-05-02T11:26:57.981Z</time></trkpt><trkpt lat="42.94813" lon="12.99268"><ele>996.0</ele><time>2026-05-02T11:26:58.981Z</time></trkpt><trkpt lat="42.9481967" lon="12.992595"><ele>998.0</ele><time>2026-05-02T11:26:59.981Z</time></trkpt><trkpt lat="42.9482467" lon="12.9924933"><ele>999.9999999999999</ele><time>2026-05-02T11:27:00.981Z</time></trkpt><trkpt lat="42.9482383" lon="12.99237"><ele>1001.9999999999999</ele><time>2026-05-02T11:27:01.982Z</time></trkpt><trkpt lat="42.948185" lon="12.9922367"><ele>1004.0</ele><time>2026-05-02T11:27:02.982Z</time></trkpt><trkpt lat="42.9481233" lon="12.9921"><ele>1006.0</ele><time>2026-05-02T11:27:03.983Z</time></trkpt><trkpt lat="42.94806" lon="12.99195"><ele>1006.0</ele><time>2026-05-02T11:27:04.982Z</time></trkpt><trkpt lat="42.9479967" lon="12.9917917"><ele>1006.0</ele><time>2026-05-02T11:27:05.982Z</time></trkpt><trkpt lat="42.94791" lon="12.991625"><ele>1006.0</ele><time>2026-05-02T11:27:06.983Z</time></trkpt><trkpt lat="42.9477983" lon="12.9914633"><ele>1006.0</ele><time>2026-05-02T11:27:07.981Z</time></trkpt><trkpt lat="42.9476783" lon="12.9913217"><ele>1007.1999999999999</ele><time>2026-05-02T11:27:08.983Z</time></trkpt><trkpt lat="42.94757" lon="12.9911967"><ele>1008.3999999999999</ele><time>2026-05-02T11:27:09.983Z</time></trkpt><trkpt lat="42.9474967" lon="12.9910833"><ele>1009.6</ele><time>2026-05-02T11:27:10.981Z</time></trkpt><trkpt lat="42.9474717" lon="12.990975"><ele>1010.8</ele><time>2026-05-02T11:27:11.981Z</time></trkpt><trkpt lat="42.9474833" lon="12.990875"><ele>1012.0</ele><time>2026-05-02T11:27:12.983Z</time></trkpt><trkpt lat="42.947525" lon="12.9907783"><ele>1014.25</ele><time>2026-05-02T11:27:13.982Z</time></trkpt><trkpt lat="42.9475917" lon="12.9906783"><ele>1016.5</ele><time>2026-05-02T11:27:14.982Z</time></trkpt><trkpt lat="42.9476783" lon="12.9905633"><ele>1018.75</ele><time>2026-05-02T11:27:15.981Z</time></trkpt><trkpt lat="42.94776" lon="12.9904417"><ele>1021.0</ele><time>2026-05-02T11:27:16.982Z</time></trkpt><trkpt lat="42.9478317" lon="12.990325"><ele>1021.0</ele><time>2026-05-02T11:27:17.981Z</time></trkpt><trkpt lat="42.9478933" lon="12.99022"><ele>1020.9999999999999</ele><time>2026-05-02T11:27:18.982Z</time></trkpt><trkpt lat="42.947945" lon="12.9901283"><ele>1020.9999999999999</ele><time>2026-05-02T11:27:19.982Z</time></trkpt><trkpt lat="42.9479917" lon="12.9900467"><ele>1021.0</ele><time>2026-05-02T11:27:20.983Z</time></trkpt><trkpt lat="42.94807" lon="12.989925"><ele>1021.0</ele><time>2026-05-02T11:27:22.983Z</time></trkpt><trkpt lat="42.9481433" lon="12.9898133"><ele>1020.3333333333333</ele><time>2026-05-02T11:27:24.983Z</time></trkpt><trkpt lat="42.9482133" lon="12.9896983"><ele>1019.6666666666666</ele><time>2026-05-02T11:27:26.983Z</time></trkpt><trkpt lat="42.9482617" lon="12.9896067"><ele>1019.0</ele><time>2026-05-02T11:27:28.983Z</time></trkpt><trkpt lat="42.9482917" lon="12.989505"><ele>1018.3333333333333</ele><time>2026-05-02T11:28:42.982Z</time></trkpt><trkpt lat="42.948295" lon="12.989385"><ele>1017.6666666666666</ele><time>2026-05-02T11:28:44.981Z</time></trkpt><trkpt lat="42.9482867" lon="12.9892867"><ele>1017.0</ele><time>2026-05-02T11:28:46.981Z</time></trkpt><trkpt lat="42.948275" lon="12.989405"><ele>1017.0</ele><time>2026-05-02T11:28:51.982Z</time></trkpt><trkpt lat="42.948275" lon="12.989495"><ele>1017.0</ele><time>2026-05-02T11:28:52.983Z</time></trkpt><trkpt lat="42.9482583" lon="12.989595"><ele>1017.0</ele><time>2026-05-02T11:28:53.981Z</time></trkpt><trkpt lat="42.9482183" lon="12.989695"><ele>1017.0</ele><time>2026-05-02T11:28:54.983Z</time></trkpt><trkpt lat="42.9481617" lon="12.9898067"><ele>1017.0</ele><time>2026-05-02T11:28:55.981Z</time></trkpt><trkpt lat="42.9480767" lon="12.9899267"><ele>1017.0</ele><time>2026-05-02T11:28:56.982Z</time></trkpt><trkpt lat="42.948005" lon="12.9900467"><ele>1017.8</ele><time>2026-05-02T11:28:57.983Z</time></trkpt><trkpt lat="42.9479517" lon="12.99016"><ele>1018.6</ele><time>2026-05-02T11:28:58.983Z</time></trkpt><trkpt lat="42.947915" lon="12.9902667"><ele>1019.3999999999999</ele><time>2026-05-02T11:28:59.981Z</time></trkpt><trkpt lat="42.9478883" lon="12.9903717"><ele>1020.1999999999999</ele><time>2026-05-02T11:29:00.981Z</time></trkpt><trkpt lat="42.9478533" lon="12.9904817"><ele>1021.0</ele><time>2026-05-02T11:29:01.981Z</time></trkpt><trkpt lat="42.9478067" lon="12.9906033"><ele>1020.9999999999999</ele><time>2026-05-02T11:29:02.982Z</time></trkpt><trkpt lat="42.9477567" lon="12.99072"><ele>1021.0</ele><time>2026-05-02T11:29:03.982Z</time></trkpt><trkpt lat="42.9477217" lon="12.9908167"><ele>1021.0</ele><time>2026-05-02T11:29:04.981Z</time></trkpt><trkpt lat="42.9477333" lon="12.9909667"><ele>1021.0</ele><time>2026-05-02T11:29:06.981Z</time></trkpt><trkpt lat="42.9477867" lon="12.99103"><ele>1020.9999999999999</ele><time>2026-05-02T11:29:07.981Z</time></trkpt><trkpt lat="42.9478533" lon="12.991075"><ele>1021.0</ele><time>2026-05-02T11:29:08.982Z</time></trkpt><trkpt lat="42.94794" lon="12.991115"><ele>1019.1999999999999</ele><time>2026-05-02T11:29:09.982Z</time></trkpt><trkpt lat="42.9480283" lon="12.9911533"><ele>1017.3999999999999</ele><time>2026-05-02T11:29:10.982Z</time></trkpt><trkpt lat="42.9481267" lon="12.9911867"><ele>1015.6</ele><time>2026-05-02T11:29:11.981Z</time></trkpt><trkpt lat="42.9482267" lon="12.9912317"><ele>1013.8</ele><time>2026-05-02T11:29:12.982Z</time></trkpt><trkpt lat="42.9483167" lon="12.9912917"><ele>1012.0</ele><time>2026-05-02T11:29:13.981Z</time></trkpt><trkpt lat="42.948385" lon="12.991365"><ele>1017.0</ele><time>2026-05-02T11:29:14.983Z</time></trkpt><trkpt lat="42.9484333" lon="12.9914433"><ele>1022.0</ele><time>2026-05-02T11:29:15.981Z</time></trkpt><trkpt lat="42.9485083" lon="12.9915367"><ele>1027.0</ele><time>2026-05-02T11:29:17.981Z</time></trkpt><trkpt lat="42.9485767" lon="12.991485"><ele>1032.0</ele><time>2026-05-02T11:29:19.983Z</time></trkpt><trkpt lat="42.9485317" lon="12.9913133"><ele>1037.0</ele><time>2026-05-02T11:29:21.982Z</time></trkpt><trkpt lat="42.948485" lon="12.9912067"><ele>1037.0</ele><time>2026-05-02T11:29:22.982Z</time></trkpt><trkpt lat="42.948435" lon="12.99109"><ele>1037.0</ele><time>2026-05-02T11:29:23.981Z</time></trkpt><trkpt lat="42.9483933" lon="12.99098"><ele>1037.0</ele><time>2026-05-02T11:29:24.981Z</time></trkpt><trkpt lat="42.9483733" lon="12.9908917"><ele>1037.0</ele><time>2026-05-02T11:29:25.982Z</time></trkpt><trkpt lat="42.9484" lon="12.990765"><ele>1037.0</ele><time>2026-05-02T11:29:27.981Z</time></trkpt><trkpt lat="42.9484933" lon="12.9907017"><ele>1037.6666666666667</ele><time>2026-05-02T11:29:29.982Z</time></trkpt><trkpt lat="42.94861" lon="12.990665"><ele>1038.3333333333335</ele><time>2026-05-02T11:29:31.982Z</time></trkpt><trkpt lat="42.94868" lon="12.9906467"><ele>1039.0</ele><time>2026-05-02T11:29:32.984Z</time></trkpt><trkpt lat="42.94875" lon="12.99063"><ele>1039.6666666666667</ele><time>2026-05-02T11:29:33.983Z</time></trkpt><trkpt lat="42.9488217" lon="12.9906117"><ele>1040.3333333333333</ele><time>2026-05-02T11:29:34.982Z</time></trkpt><trkpt lat="42.94889" lon="12.9905933"><ele>1041.0</ele><time>2026-05-02T11:29:35.983Z</time></trkpt><trkpt lat="42.9489583" lon="12.9905733"><ele>1041.0</ele><time>2026-05-02T11:29:36.982Z</time></trkpt><trkpt lat="42.9490633" lon="12.9905733"><ele>1041.0</ele><time>2026-05-02T11:29:38.982Z</time></trkpt><trkpt lat="42.9491317" lon="12.9906483"><ele>1041.0</ele><time>2026-05-02T11:29:40.982Z</time></trkpt><trkpt lat="42.9491917" lon="12.990755"><ele>1041.0</ele><time>2026-05-02T11:29:42.981Z</time></trkpt><trkpt lat="42.9492533" lon="12.99088"><ele>1041.0</ele><time>2026-05-02T11:29:44.982Z</time></trkpt><trkpt lat="42.94929" lon="12.9909617"><ele>1043.3333333333333</ele><time>2026-05-02T11:29:45.981Z</time></trkpt><trkpt lat="42.9493333" lon="12.9910517"><ele>1045.6666666666667</ele><time>2026-05-02T11:29:46.983Z</time></trkpt><trkpt lat="42.949385" lon="12.9911467"><ele>1048.0</ele><time>2026-05-02T11:29:47.984Z</time></trkpt><trkpt lat="42.9494383" lon="12.9912533"><ele>1050.3333333333335</ele><time>2026-05-02T11:29:48.983Z</time></trkpt><trkpt lat="42.949485" lon="12.99135"><ele>1052.6666666666667</ele><time>2026-05-02T11:29:49.983Z</time></trkpt><trkpt lat="42.9495317" lon="12.991435"><ele>1055.0</ele><time>2026-05-02T11:29:50.983Z</time></trkpt><trkpt lat="42.949585" lon="12.9915017"><ele>1055.0</ele><time>2026-05-02T11:29:51.982Z</time></trkpt><trkpt lat="42.9496433" lon="12.99155"><ele>1055.0</ele><time>2026-05-02T11:29:52.982Z</time></trkpt><trkpt lat="42.9497033" lon="12.9915817"><ele>1055.0</ele><time>2026-05-02T11:29:53.982Z</time></trkpt><trkpt lat="42.9497717" lon="12.9916"><ele>1055.0</ele><time>2026-05-02T11:29:54.981Z</time></trkpt><trkpt lat="42.9498433" lon="12.9916217"><ele>1055.0</ele><time>2026-05-02T11:29:55.981Z</time></trkpt><trkpt lat="42.9499117" lon="12.9916583"><ele>1055.0</ele><time>2026-05-02T11:29:56.982Z</time></trkpt><trkpt lat="42.949965" lon="12.99172"><ele>1055.0</ele><time>2026-05-02T11:29:57.982Z</time></trkpt><trkpt lat="42.9500067" lon="12.99181"><ele>1058.0</ele><time>2026-05-02T11:29:58.982Z</time></trkpt><trkpt lat="42.95005" lon="12.991915"><ele>1061.0</ele><time>2026-05-02T11:29:59.982Z</time></trkpt><trkpt lat="42.9501083" lon="12.9920217"><ele>1064.0</ele><time>2026-05-02T11:30:00.983Z</time></trkpt><trkpt lat="42.9501833" lon="12.9921267"><ele>1067.0</ele><time>2026-05-02T11:30:01.982Z</time></trkpt><trkpt lat="42.9502733" lon="12.99223"><ele>1070.0</ele><time>2026-05-02T11:30:02.982Z</time></trkpt><trkpt lat="42.95037" lon="12.9923383"><ele>1070.0</ele><time>2026-05-02T11:30:03.982Z</time></trkpt><trkpt lat="42.9504733" lon="12.9924583"><ele>1070.0</ele><time>2026-05-02T11:30:04.982Z</time></trkpt><trkpt lat="42.9505733" lon="12.9925833"><ele>1070.0</ele><time>2026-05-02T11:30:05.982Z</time></trkpt><trkpt lat="42.95067" lon="12.992695"><ele>1070.0</ele><time>2026-05-02T11:30:06.983Z</time></trkpt><trkpt lat="42.9507733" lon="12.9927967"><ele>1074.25</ele><time>2026-05-02T11:30:07.982Z</time></trkpt><trkpt lat="42.950885" lon="12.99289"><ele>1078.5</ele><time>2026-05-02T11:30:08.983Z</time></trkpt><trkpt lat="42.950995" lon="12.9929817"><ele>1082.75</ele><time>2026-05-02T11:30:09.983Z</time></trkpt><trkpt lat="42.9510933" lon="12.99308"><ele>1087.0</ele><time>2026-05-02T11:30:10.983Z</time></trkpt><trkpt lat="42.95118" lon="12.9931867"><ele>1087.0</ele><time>2026-05-02T11:30:11.982Z</time></trkpt><trkpt lat="42.951275" lon="12.9932933"><ele>1087.0</ele><time>2026-05-02T11:30:12.982Z</time></trkpt><trkpt lat="42.9513733" lon="12.9933967"><ele>1087.0</ele><time>2026-05-02T11:30:13.982Z</time></trkpt><trkpt lat="42.9514717" lon="12.9935133"><ele>1087.0</ele><time>2026-05-02T11:30:14.982Z</time></trkpt><trkpt lat="42.95156" lon="12.993645"><ele>1085.75</ele><time>2026-05-02T11:30:15.981Z</time></trkpt><trkpt lat="42.9516417" lon="12.993795"><ele>1084.5</ele><time>2026-05-02T11:30:16.982Z</time></trkpt><trkpt lat="42.951725" lon="12.9939383"><ele>1083.25</ele><time>2026-05-02T11:30:17.981Z</time></trkpt><trkpt lat="42.95182" lon="12.9940583"><ele>1082.0</ele><time>2026-05-02T11:30:18.981Z</time></trkpt><trkpt lat="42.9519183" lon="12.9941583"><ele>1085.6</ele><time>2026-05-02T11:30:19.981Z</time></trkpt><trkpt lat="42.95201" lon="12.9942517"><ele>1089.2</ele><time>2026-05-02T11:30:20.982Z</time></trkpt><trkpt lat="42.9520917" lon="12.994325"><ele>1092.8</ele><time>2026-05-02T11:30:21.982Z</time></trkpt><trkpt lat="42.9521683" lon="12.9943817"><ele>1096.4</ele><time>2026-05-02T11:30:22.982Z</time></trkpt><trkpt lat="42.95223" lon="12.9944383"><ele>1100.0</ele><time>2026-05-02T11:30:23.981Z</time></trkpt><trkpt lat="42.9522767" lon="12.9945433"><ele>1100.0</ele><time>2026-05-02T11:30:25.982Z</time></trkpt><trkpt lat="42.952235" lon="12.9946467"><ele>1100.0</ele><time>2026-05-02T11:30:27.982Z</time></trkpt><trkpt lat="42.9521583" lon="12.9947667"><ele>1100.0</ele><time>2026-05-02T11:30:29.983Z</time></trkpt><trkpt lat="42.95215" lon="12.9948733"><ele>1100.0</ele><time>2026-05-02T11:30:31.983Z</time></trkpt><trkpt lat="42.9522217" lon="12.9949133"><ele>1100.0</ele><time>2026-05-02T11:30:33.982Z</time></trkpt><trkpt lat="42.952345" lon="12.9949"><ele>1100.0</ele><time>2026-05-02T11:30:35.983Z</time></trkpt><trkpt lat="42.9524133" lon="12.9949033"><ele>1100.0</ele><time>2026-05-02T11:30:36.983Z</time></trkpt><trkpt lat="42.9524867" lon="12.9949133"><ele>1100.0</ele><time>2026-05-02T11:30:37.982Z</time></trkpt><trkpt lat="42.95256" lon="12.9949267"><ele>1100.0</ele><time>2026-05-02T11:30:38.982Z</time></trkpt><trkpt lat="42.9526333" lon="12.9949383"><ele>1100.0</ele><time>2026-05-02T11:30:39.983Z</time></trkpt><trkpt lat="42.952705" lon="12.994945"><ele>1100.0</ele><time>2026-05-02T11:30:40.983Z</time></trkpt><trkpt lat="42.9527733" lon="12.994955"><ele>1100.0</ele><time>2026-05-02T11:30:41.983Z</time></trkpt><trkpt lat="42.9528417" lon="12.9949683"><ele>1101.8333333333335</ele><time>2026-05-02T11:30:42.982Z</time></trkpt><trkpt lat="42.9529133" lon="12.9949883"><ele>1103.6666666666667</ele><time>2026-05-02T11:30:43.982Z</time></trkpt><trkpt lat="42.9529883" lon="12.9950117"><ele>1105.5</ele><time>2026-05-02T11:30:44.983Z</time></trkpt><trkpt lat="42.95307" lon="12.99504"><ele>1107.3333333333333</ele><time>2026-05-02T11:30:45.983Z</time></trkpt><trkpt lat="42.95316" lon="12.9950717"><ele>1109.1666666666665</ele><time>2026-05-02T11:30:46.982Z</time></trkpt><trkpt lat="42.9532583" lon="12.9951083"><ele>1111.0</ele><time>2026-05-02T11:30:47.983Z</time></trkpt><trkpt lat="42.9533583" lon="12.99514"><ele>1114.6</ele><time>2026-05-02T11:30:48.982Z</time></trkpt><trkpt lat="42.95346" lon="12.99515"><ele>1118.1999999999998</ele><time>2026-05-02T11:30:49.983Z</time></trkpt><trkpt lat="42.9535633" lon="12.9951417"><ele>1121.8000000000002</ele><time>2026-05-02T11:30:50.983Z</time></trkpt><trkpt lat="42.9536667" lon="12.99513"><ele>1125.4</ele><time>2026-05-02T11:30:51.982Z</time></trkpt><trkpt lat="42.95377" lon="12.995125"><ele>1129.0</ele><time>2026-05-02T11:30:52.982Z</time></trkpt><trkpt lat="42.9538667" lon="12.9951283"><ele>1129.0</ele><time>2026-05-02T11:30:53.983Z</time></trkpt><trkpt lat="42.9539467" lon="12.995135"><ele>1129.0</ele><time>2026-05-02T11:30:54.983Z</time></trkpt><trkpt lat="42.9540233" lon="12.9951467"><ele>1129.0</ele><time>2026-05-02T11:30:55.982Z</time></trkpt><trkpt lat="42.9540867" lon="12.99518"><ele>1129.0</ele><time>2026-05-02T11:30:56.983Z</time></trkpt><trkpt lat="42.9541483" lon="12.995245"><ele>1129.0</ele><time>2026-05-02T11:30:57.982Z</time></trkpt><trkpt lat="42.95421" lon="12.9953283"><ele>1129.0</ele><time>2026-05-02T11:30:58.982Z</time></trkpt><trkpt lat="42.95427" lon="12.99542"><ele>1130.2</ele><time>2026-05-02T11:30:59.982Z</time></trkpt><trkpt lat="42.9543383" lon="12.9955167"><ele>1131.4</ele><time>2026-05-02T11:31:00.983Z</time></trkpt><trkpt lat="42.9544117" lon="12.9956133"><ele>1132.6</ele><time>2026-05-02T11:31:01.984Z</time></trkpt><trkpt lat="42.9544867" lon="12.9957017"><ele>1133.8</ele><time>2026-05-02T11:31:02.982Z</time></trkpt><trkpt lat="42.9545683" lon="12.995785"><ele>1135.0</ele><time>2026-05-02T11:31:03.982Z</time></trkpt><trkpt lat="42.9546517" lon="12.9958583"><ele>1135.0</ele><time>2026-05-02T11:31:04.982Z</time></trkpt><trkpt lat="42.9547367" lon="12.9959283"><ele>1135.0</ele><time>2026-05-02T11:31:05.982Z</time></trkpt><trkpt lat="42.954825" lon="12.996"><ele>1135.0</ele><time>2026-05-02T11:31:06.982Z</time></trkpt><trkpt lat="42.954905" lon="12.9960767"><ele>1135.0</ele><time>2026-05-02T11:31:07.982Z</time></trkpt><trkpt lat="42.9549733" lon="12.9961483"><ele>1135.0</ele><time>2026-05-02T11:31:08.983Z</time></trkpt><trkpt lat="42.9550433" lon="12.9962183"><ele>1138.2</ele><time>2026-05-02T11:31:09.983Z</time></trkpt><trkpt lat="42.9551133" lon="12.9963017"><ele>1141.4</ele><time>2026-05-02T11:31:10.982Z</time></trkpt><trkpt lat="42.9551733" lon="12.9963983"><ele>1144.6</ele><time>2026-05-02T11:31:11.982Z</time></trkpt><trkpt lat="42.9552283" lon="12.9965067"><ele>1147.8</ele><time>2026-05-02T11:31:12.983Z</time></trkpt><trkpt lat="42.9552817" lon="12.9965967"><ele>1151.0</ele><time>2026-05-02T11:31:13.981Z</time></trkpt><trkpt lat="42.95535" lon="12.996665"><ele>1149.6</ele><time>2026-05-02T11:31:14.982Z</time></trkpt><trkpt lat="42.955435" lon="12.99672"><ele>1148.1999999999998</ele><time>2026-05-02T11:31:15.982Z</time></trkpt><trkpt lat="42.9555167" lon="12.9967867"><ele>1146.8000000000002</ele><time>2026-05-02T11:31:16.983Z</time></trkpt><trkpt lat="42.9555867" lon="12.9968667"><ele>1145.4</ele><time>2026-05-02T11:31:17.982Z</time></trkpt><trkpt lat="42.9556583" lon="12.996955"><ele>1144.0</ele><time>2026-05-02T11:31:18.983Z</time></trkpt><trkpt lat="42.955735" lon="12.9970417"><ele>1144.0</ele><time>2026-05-02T11:31:19.982Z</time></trkpt><trkpt lat="42.95581" lon="12.9971167"><ele>1144.0</ele><time>2026-05-02T11:31:20.982Z</time></trkpt><trkpt lat="42.9558833" lon="12.9971667"><ele>1144.0</ele><time>2026-05-02T11:31:21.982Z</time></trkpt><trkpt lat="42.9559667" lon="12.9971917"><ele>1144.0</ele><time>2026-05-02T11:31:22.983Z</time></trkpt><trkpt lat="42.9560633" lon="12.9971883"><ele>1144.0</ele><time>2026-05-02T11:31:23.982Z</time></trkpt><trkpt lat="42.9561633" lon="12.9971617"><ele>1146.0</ele><time>2026-05-02T11:31:24.982Z</time></trkpt><trkpt lat="42.956265" lon="12.9971333"><ele>1148.0</ele><time>2026-05-02T11:31:25.982Z</time></trkpt><trkpt lat="42.956365" lon="12.99712"><ele>1150.0</ele><time>2026-05-02T11:31:26.986Z</time></trkpt><trkpt lat="42.9564583" lon="12.9971333"><ele>1152.0</ele><time>2026-05-02T11:31:27.983Z</time></trkpt><trkpt lat="42.9565417" lon="12.99717"><ele>1154.0</ele><time>2026-05-02T11:31:28.982Z</time></trkpt><trkpt lat="42.95662" lon="12.99724"><ele>1154.0</ele><time>2026-05-02T11:31:29.983Z</time></trkpt><trkpt lat="42.95669" lon="12.9973433"><ele>1154.0</ele><time>2026-05-02T11:31:30.982Z</time></trkpt><trkpt lat="42.9567717" lon="12.9974533"><ele>1154.0</ele><time>2026-05-02T11:31:31.985Z</time></trkpt><trkpt lat="42.9568667" lon="12.9975633"><ele>1154.0</ele><time>2026-05-02T11:31:32.983Z</time></trkpt><trkpt lat="42.95697" lon="12.9976717"><ele>1155.6000000000001</ele><time>2026-05-02T11:31:33.983Z</time></trkpt><trkpt lat="42.95707" lon="12.9977717"><ele>1157.2</ele><time>2026-05-02T11:31:34.982Z</time></trkpt><trkpt lat="42.9571633" lon="12.9978567"><ele>1158.8000000000002</ele><time>2026-05-02T11:31:35.984Z</time></trkpt><trkpt lat="42.9572567" lon="12.9979217"><ele>1160.4</ele><time>2026-05-02T11:31:36.983Z</time></trkpt><trkpt lat="42.95736" lon="12.99796"><ele>1162.0</ele><time>2026-05-02T11:31:37.982Z</time></trkpt><trkpt lat="42.9574617" lon="12.99798"><ele>1162.6</ele><time>2026-05-02T11:31:38.982Z</time></trkpt><trkpt lat="42.9575633" lon="12.9980033"><ele>1163.2</ele><time>2026-05-02T11:31:39.982Z</time></trkpt><trkpt lat="42.9576533" lon="12.9980417"><ele>1163.8</ele><time>2026-05-02T11:31:40.982Z</time></trkpt><trkpt lat="42.9577317" lon="12.99809"><ele>1164.4</ele><time>2026-05-02T11:31:41.983Z</time></trkpt><trkpt lat="42.957795" lon="12.99813"><ele>1165.0</ele><time>2026-05-02T11:31:42.982Z</time></trkpt><trkpt lat="42.9579117" lon="12.9981633"><ele>1165.0</ele><time>2026-05-02T11:31:44.982Z</time></trkpt><trkpt lat="42.957985" lon="12.9981617"><ele>1165.0</ele><time>2026-05-02T11:31:45.981Z</time></trkpt><trkpt lat="42.958065" lon="12.99815"><ele>1165.0</ele><time>2026-05-02T11:31:46.982Z</time></trkpt><trkpt lat="42.958155" lon="12.9981267"><ele>1165.0</ele><time>2026-05-02T11:31:47.981Z</time></trkpt><trkpt lat="42.95825" lon="12.998115"><ele>1165.0</ele><time>2026-05-02T11:31:48.981Z</time></trkpt><trkpt lat="42.9583383" lon="12.998135"><ele>1165.0</ele><time>2026-05-02T11:31:49.982Z</time></trkpt><trkpt lat="42.9584233" lon="12.99818"><ele>1165.6</ele><time>2026-05-02T11:31:50.982Z</time></trkpt><trkpt lat="42.95851" lon="12.9982433"><ele>1166.2</ele><time>2026-05-02T11:31:51.981Z</time></trkpt><trkpt lat="42.9586017" lon="12.998315"><ele>1166.8</ele><time>2026-05-02T11:31:52.982Z</time></trkpt><trkpt lat="42.9587" lon="12.9983867"><ele>1167.4</ele><time>2026-05-02T11:31:53.982Z</time></trkpt><trkpt lat="42.9588" lon="12.9984517"><ele>1168.0</ele><time>2026-05-02T11:31:54.982Z</time></trkpt><trkpt lat="42.9589017" lon="12.9985"><ele>1168.0</ele><time>2026-05-02T11:31:55.981Z</time></trkpt><trkpt lat="42.95899" lon="12.9985383"><ele>1168.0</ele><time>2026-05-02T11:31:56.981Z</time></trkpt><trkpt lat="42.9590617" lon="12.99858"><ele>1168.0</ele><time>2026-05-02T11:31:57.982Z</time></trkpt><trkpt lat="42.95912" lon="12.99864"><ele>1168.0</ele><time>2026-05-02T11:31:58.982Z</time></trkpt><trkpt lat="42.9591683" lon="12.9987133"><ele>1168.0</ele><time>2026-05-02T11:31:59.982Z</time></trkpt><trkpt lat="42.9592117" lon="12.9987917"><ele>1168.0</ele><time>2026-05-02T11:32:00.981Z</time></trkpt><trkpt lat="42.9592567" lon="12.998865"><ele>1169.142857142857</ele><time>2026-05-02T11:32:01.981Z</time></trkpt><trkpt lat="42.9593083" lon="12.9989233"><ele>1170.2857142857142</ele><time>2026-05-02T11:32:02.982Z</time></trkpt><trkpt lat="42.959365" lon="12.9989633"><ele>1171.4285714285716</ele><time>2026-05-02T11:32:03.981Z</time></trkpt><trkpt lat="42.9594283" lon="12.9989817"><ele>1172.5714285714284</ele><time>2026-05-02T11:32:04.982Z</time></trkpt><trkpt lat="42.9594933" lon="12.9989817"><ele>1173.7142857142858</ele><time>2026-05-02T11:32:05.981Z</time></trkpt><trkpt lat="42.9595667" lon="12.998965"><ele>1174.857142857143</ele><time>2026-05-02T11:32:06.982Z</time></trkpt><trkpt lat="42.9596517" lon="12.9989367"><ele>1176.0</ele><time>2026-05-02T11:32:07.982Z</time></trkpt><trkpt lat="42.9597467" lon="12.9989017"><ele>1176.0</ele><time>2026-05-02T11:32:08.983Z</time></trkpt><trkpt lat="42.9598533" lon="12.9988683"><ele>1176.0</ele><time>2026-05-02T11:32:09.982Z</time></trkpt><trkpt lat="42.9599633" lon="12.9988367"><ele>1176.0</ele><time>2026-05-02T11:32:10.984Z</time></trkpt><trkpt lat="42.9600833" lon="12.9987967"><ele>1176.0</ele><time>2026-05-02T11:32:11.982Z</time></trkpt><trkpt lat="42.9602083" lon="12.9987533"><ele>1178.75</ele><time>2026-05-02T11:32:12.983Z</time></trkpt><trkpt lat="42.9603283" lon="12.998725"><ele>1181.5</ele><time>2026-05-02T11:32:13.982Z</time></trkpt><trkpt lat="42.9604483" lon="12.9987167"><ele>1184.25</ele><time>2026-05-02T11:32:14.983Z</time></trkpt><trkpt lat="42.9605567" lon="12.998725"><ele>1187.0</ele><time>2026-05-02T11:32:15.981Z</time></trkpt><trkpt lat="42.96066" lon="12.99874"><ele>1187.0</ele><time>2026-05-02T11:32:16.981Z</time></trkpt><trkpt lat="42.9607533" lon="12.998765"><ele>1187.0</ele><time>2026-05-02T11:32:17.982Z</time></trkpt><trkpt lat="42.9608367" lon="12.9988067"><ele>1187.0</ele><time>2026-05-02T11:32:18.981Z</time></trkpt><trkpt lat="42.9609267" lon="12.9988717"><ele>1187.0</ele><time>2026-05-02T11:32:19.981Z</time></trkpt><trkpt lat="42.9610167" lon="12.9989517"><ele>1187.0</ele><time>2026-05-02T11:32:20.982Z</time></trkpt><trkpt lat="42.961105" lon="12.99902"><ele>1188.1666666666667</ele><time>2026-05-02T11:32:21.982Z</time></trkpt><trkpt lat="42.9611867" lon="12.9990667"><ele>1189.3333333333335</ele><time>2026-05-02T11:32:22.982Z</time></trkpt><trkpt lat="42.9612667" lon="12.9990867"><ele>1190.5</ele><time>2026-05-02T11:32:23.981Z</time></trkpt><trkpt lat="42.9613583" lon="12.999075"><ele>1191.6666666666667</ele><time>2026-05-02T11:32:24.981Z</time></trkpt><trkpt lat="42.9614383" lon="12.9990517"><ele>1192.8333333333333</ele><time>2026-05-02T11:32:25.982Z</time></trkpt><trkpt lat="42.9614983" lon="12.9990217"><ele>1194.0</ele><time>2026-05-02T11:32:26.982Z</time></trkpt><trkpt lat="42.961565" lon="12.9989683"><ele>1194.0</ele><time>2026-05-02T11:32:28.981Z</time></trkpt><trkpt lat="42.961625" lon="12.998925"><ele>1194.0</ele><time>2026-05-02T11:36:31.981Z</time></trkpt><trkpt lat="42.9617083" lon="12.998845"><ele>1194.0</ele><time>2026-05-02T11:36:33.981Z</time></trkpt><trkpt lat="42.9618267" lon="12.9987333"><ele>1194.0</ele><time>2026-05-02T11:36:35.985Z</time></trkpt><trkpt lat="42.9618983" lon="12.9986633"><ele>1194.0</ele><time>2026-05-02T11:36:36.983Z</time></trkpt><trkpt lat="42.9620533" lon="12.9985083"><ele>1193.5</ele><time>2026-05-02T11:36:38.983Z</time></trkpt><trkpt lat="42.9622083" lon="12.9983717"><ele>1193.0</ele><time>2026-05-02T11:36:40.981Z</time></trkpt><trkpt lat="42.962335" lon="12.9982333"><ele>1192.5</ele><time>2026-05-02T11:36:42.982Z</time></trkpt><trkpt lat="42.96239" lon="12.9981717"><ele>1192.0</ele><time>2026-05-02T11:36:43.982Z</time></trkpt><trkpt lat="42.9624517" lon="12.9981067"><ele>1185.5</ele><time>2026-05-02T11:36:44.982Z</time></trkpt><trkpt lat="42.9625883" lon="12.997955"><ele>1179.0</ele><time>2026-05-02T11:36:46.982Z</time></trkpt><trkpt lat="42.96266" lon="12.9978817"><ele>1172.5</ele><time>2026-05-02T11:36:47.981Z</time></trkpt><trkpt lat="42.9627233" lon="12.9978083"><ele>1166.0</ele><time>2026-05-02T11:36:48.981Z</time></trkpt><trkpt lat="42.96285" lon="12.99766"><ele>1166.0</ele><time>2026-05-02T11:36:50.981Z</time></trkpt><trkpt lat="42.9629883" lon="12.9975133"><ele>1166.0</ele><time>2026-05-02T11:36:52.982Z</time></trkpt><trkpt lat="42.96313" lon="12.9973517"><ele>1166.0</ele><time>2026-05-02T11:36:54.982Z</time></trkpt><trkpt lat="42.9631967" lon="12.997275"><ele>1166.0</ele><time>2026-05-02T11:36:55.983Z</time></trkpt><trkpt lat="42.9633317" lon="12.9971317"><ele>1161.25</ele><time>2026-05-02T11:36:57.982Z</time></trkpt><trkpt lat="42.9633883" lon="12.9970467"><ele>1156.5</ele><time>2026-05-02T11:36:58.981Z</time></trkpt><trkpt lat="42.9634767" lon="12.9968083"><ele>1151.75</ele><time>2026-05-02T11:37:00.982Z</time></trkpt><trkpt lat="42.9635083" lon="12.9966867"><ele>1147.0</ele><time>2026-05-02T11:37:01.982Z</time></trkpt><trkpt lat="42.9635417" lon="12.9965667"><ele>1147.0</ele><time>2026-05-02T11:37:02.982Z</time></trkpt><trkpt lat="42.9636067" lon="12.9963467"><ele>1147.0</ele><time>2026-05-02T11:37:04.983Z</time></trkpt><trkpt lat="42.9636517" lon="12.9962583"><ele>1147.0</ele><time>2026-05-02T11:37:05.982Z</time></trkpt><trkpt lat="42.9637" lon="12.9961817"><ele>1147.0</ele><time>2026-05-02T11:37:06.983Z</time></trkpt><trkpt lat="42.9637783" lon="12.99604"><ele>1147.0</ele><time>2026-05-02T11:37:08.983Z</time></trkpt><trkpt lat="42.9637833" lon="12.9959183"><ele>1147.0</ele><time>2026-05-02T11:37:10.982Z</time></trkpt><trkpt lat="42.9637417" lon="12.995755"><ele>1147.0</ele><time>2026-05-02T11:37:12.983Z</time></trkpt><trkpt lat="42.9636967" lon="12.995525"><ele>1147.0</ele><time>2026-05-02T11:37:14.982Z</time></trkpt><trkpt lat="42.963675" lon="12.99541"><ele>1148.2</ele><time>2026-05-02T11:37:15.982Z</time></trkpt><trkpt lat="42.9636583" lon="12.995305"><ele>1149.4</ele><time>2026-05-02T11:37:16.982Z</time></trkpt><trkpt lat="42.9636317" lon="12.99513"><ele>1150.6</ele><time>2026-05-02T11:37:18.983Z</time></trkpt><trkpt lat="42.9636117" lon="12.995005"><ele>1151.8</ele><time>2026-05-02T11:37:20.984Z</time></trkpt><trkpt lat="42.96365" lon="12.9949267"><ele>1153.0</ele><time>2026-05-02T11:37:22.983Z</time></trkpt><trkpt lat="42.9637567" lon="12.9948733"><ele>1154.0</ele><time>2026-05-02T11:37:24.982Z</time></trkpt><trkpt lat="42.9639583" lon="12.99486"><ele>1155.0</ele><time>2026-05-02T11:37:26.982Z</time></trkpt><trkpt lat="42.9641483" lon="12.9947383"><ele>1156.0</ele><time>2026-05-02T11:37:28.982Z</time></trkpt><trkpt lat="42.964235" lon="12.994655"><ele>1149.6666666666665</ele><time>2026-05-02T11:37:29.983Z</time></trkpt><trkpt lat="42.9643183" lon="12.9945683"><ele>1143.3333333333333</ele><time>2026-05-02T11:37:30.983Z</time></trkpt><trkpt lat="42.9644833" lon="12.9944317"><ele>1137.0</ele><time>2026-05-02T11:37:32.983Z</time></trkpt><trkpt lat="42.9646317" lon="12.9943117"><ele>1137.0</ele><time>2026-05-02T11:37:34.982Z</time></trkpt><trkpt lat="42.9647667" lon="12.9941783"><ele>1137.0</ele><time>2026-05-02T11:37:36.982Z</time></trkpt><trkpt lat="42.9648883" lon="12.994015"><ele>1137.0</ele><time>2026-05-02T11:37:38.983Z</time></trkpt><trkpt lat="42.96504" lon="12.9938817"><ele>1130.75</ele><time>2026-05-02T11:37:40.982Z</time></trkpt><trkpt lat="42.965185" lon="12.99377"><ele>1124.5</ele><time>2026-05-02T11:37:42.983Z</time></trkpt><trkpt lat="42.9652583" lon="12.993705"><ele>1118.25</ele><time>2026-05-02T11:37:43.982Z</time></trkpt><trkpt lat="42.96531" lon="12.993625"><ele>1112.0</ele><time>2026-05-02T11:37:44.982Z</time></trkpt><trkpt lat="42.9653633" lon="12.9933933"><ele>1112.5</ele><time>2026-05-02T11:37:46.982Z</time></trkpt><trkpt lat="42.9653683" lon="12.9932583"><ele>1113.0</ele><time>2026-05-02T11:37:47.983Z</time></trkpt><trkpt lat="42.965375" lon="12.993135"><ele>1113.5</ele><time>2026-05-02T11:37:48.982Z</time></trkpt><trkpt lat="42.9653833" lon="12.99289"><ele>1114.0</ele><time>2026-05-02T11:37:50.982Z</time></trkpt><trkpt lat="42.9653817" lon="12.9926267"><ele>1113.3333333333333</ele><time>2026-05-02T11:37:52.982Z</time></trkpt><trkpt lat="42.965375" lon="12.992385"><ele>1112.6666666666667</ele><time>2026-05-02T11:37:54.983Z</time></trkpt><trkpt lat="42.965375" lon="12.9921567"><ele>1112.0</ele><time>2026-05-02T11:37:56.983Z</time></trkpt><trkpt lat="42.9654117" lon="12.99193"><ele>1112.0</ele><time>2026-05-02T11:37:58.983Z</time></trkpt><trkpt lat="42.9654683" lon="12.99169"><ele>1112.0</ele><time>2026-05-02T11:38:00.984Z</time></trkpt><trkpt lat="42.9655317" lon="12.9914633"><ele>1112.0</ele><time>2026-05-02T11:38:02.982Z</time></trkpt><trkpt lat="42.9656217" lon="12.991265"><ele>1112.25</ele><time>2026-05-02T11:38:04.982Z</time></trkpt><trkpt lat="42.9656983" lon="12.991165"><ele>1112.5</ele><time>2026-05-02T11:38:05.982Z</time></trkpt><trkpt lat="42.9657783" lon="12.9910717"><ele>1112.75</ele><time>2026-05-02T11:38:06.983Z</time></trkpt><trkpt lat="42.9659317" lon="12.9908967"><ele>1113.0</ele><time>2026-05-02T11:38:08.982Z</time></trkpt><trkpt lat="42.9659983" lon="12.990815"><ele>1109.0</ele><time>2026-05-02T11:38:09.983Z</time></trkpt><trkpt lat="42.9661117" lon="12.990675"><ele>1105.0</ele><time>2026-05-02T11:38:11.982Z</time></trkpt><trkpt lat="42.9661817" lon="12.9905817"><ele>1101.0</ele><time>2026-05-02T11:38:13.983Z</time></trkpt><trkpt lat="42.9662483" lon="12.990545"><ele>1097.0</ele><time>2026-05-02T11:38:15.983Z</time></trkpt><trkpt lat="42.9663467" lon="12.99054"><ele>1093.0</ele><time>2026-05-02T11:38:17.982Z</time></trkpt><trkpt lat="42.9664633" lon="12.9905467"><ele>1093.0</ele><time>2026-05-02T11:38:19.982Z</time></trkpt><trkpt lat="42.96663" lon="12.990535"><ele>1093.0</ele><time>2026-05-02T11:38:22.982Z</time></trkpt><trkpt lat="42.9667717" lon="12.9905183"><ele>1093.0</ele><time>2026-05-02T11:38:24.982Z</time></trkpt><trkpt lat="42.9669417" lon="12.9904833"><ele>1089.5</ele><time>2026-05-02T11:38:26.983Z</time></trkpt><trkpt lat="42.967035" lon="12.9904517"><ele>1086.0</ele><time>2026-05-02T11:38:27.984Z</time></trkpt><trkpt lat="42.9671217" lon="12.99043"><ele>1082.5</ele><time>2026-05-02T11:38:28.982Z</time></trkpt><trkpt lat="42.967215" lon="12.9904167"><ele>1079.0</ele><time>2026-05-02T11:38:29.982Z</time></trkpt><trkpt lat="42.9673917" lon="12.99037"><ele>1077.0</ele><time>2026-05-02T11:38:31.981Z</time></trkpt><trkpt lat="42.9675433" lon="12.9903333"><ele>1075.0</ele><time>2026-05-02T11:38:33.984Z</time></trkpt><trkpt lat="42.967685" lon="12.9903217"><ele>1073.0</ele><time>2026-05-02T11:38:35.982Z</time></trkpt><trkpt lat="42.9677633" lon="12.9903217"><ele>1071.0</ele><time>2026-05-02T11:38:36.982Z</time></trkpt><trkpt lat="42.967855" lon="12.99032"><ele>1071.0</ele><time>2026-05-02T11:38:37.981Z</time></trkpt><trkpt lat="42.96794" lon="12.9903133"><ele>1071.0</ele><time>2026-05-02T11:38:38.981Z</time></trkpt><trkpt lat="42.9680267" lon="12.990315"><ele>1071.0</ele><time>2026-05-02T11:38:39.982Z</time></trkpt><trkpt lat="42.9681033" lon="12.99033"><ele>1071.0</ele><time>2026-05-02T11:38:40.98Z</time></trkpt><trkpt lat="42.9681917" lon="12.9903617"><ele>1071.0</ele><time>2026-05-02T11:38:41.98Z</time></trkpt><trkpt lat="42.9682833" lon="12.9903933"><ele>1071.0</ele><time>2026-05-02T11:38:42.981Z</time></trkpt><trkpt lat="42.9684667" lon="12.9904617"><ele>1071.0</ele><time>2026-05-02T11:38:44.982Z</time></trkpt><trkpt lat="42.9686667" lon="12.9905233"><ele>1071.0</ele><time>2026-05-02T11:38:46.981Z</time></trkpt><trkpt lat="42.968845" lon="12.9905733"><ele>1071.0</ele><time>2026-05-02T11:38:48.981Z</time></trkpt><trkpt lat="42.9689383" lon="12.9906033"><ele>1071.0</ele><time>2026-05-02T11:38:49.982Z</time></trkpt><trkpt lat="42.9690283" lon="12.990645"><ele>1071.0</ele><time>2026-05-02T11:38:50.982Z</time></trkpt><trkpt lat="42.9691183" lon="12.9906933"><ele>1071.0</ele><time>2026-05-02T11:38:51.982Z</time></trkpt><trkpt lat="42.969205" lon="12.9907517"><ele>1071.0</ele><time>2026-05-02T11:38:52.981Z</time></trkpt><trkpt lat="42.96937" lon="12.9908233"><ele>1072.1666666666667</ele><time>2026-05-02T11:38:54.982Z</time></trkpt><trkpt lat="42.969455" lon="12.990825"><ele>1073.3333333333333</ele><time>2026-05-02T11:38:55.98Z</time></trkpt><trkpt lat="42.9695383" lon="12.9908067"><ele>1074.5</ele><time>2026-05-02T11:38:56.981Z</time></trkpt><trkpt lat="42.969615" lon="12.9907717"><ele>1075.6666666666665</ele><time>2026-05-02T11:38:57.981Z</time></trkpt><trkpt lat="42.9696867" lon="12.9907167"><ele>1076.8333333333333</ele><time>2026-05-02T11:38:58.981Z</time></trkpt><trkpt lat="42.9697433" lon="12.99066"><ele>1078.0</ele><time>2026-05-02T11:38:59.981Z</time></trkpt><trkpt lat="42.9698133" lon="12.99061"><ele>1078.0</ele><time>2026-05-02T11:39:01.983Z</time></trkpt><trkpt lat="42.969895" lon="12.990655"><ele>1078.0</ele><time>2026-05-02T11:39:03.981Z</time></trkpt><trkpt lat="42.9699467" lon="12.9907117"><ele>1078.0</ele><time>2026-05-02T11:39:04.982Z</time></trkpt><trkpt lat="42.97001" lon="12.9907817"><ele>1078.0</ele><time>2026-05-02T11:39:05.981Z</time></trkpt><trkpt lat="42.9700767" lon="12.9908817"><ele>1078.0</ele><time>2026-05-02T11:39:06.981Z</time></trkpt><trkpt lat="42.9702383" lon="12.99111"><ele>1076.6</ele><time>2026-05-02T11:39:08.981Z</time></trkpt><trkpt lat="42.9703283" lon="12.9912267"><ele>1075.1999999999998</ele><time>2026-05-02T11:39:09.982Z</time></trkpt><trkpt lat="42.9704183" lon="12.991325"><ele>1073.8</ele><time>2026-05-02T11:39:10.982Z</time></trkpt><trkpt lat="42.9705" lon="12.9914117"><ele>1072.3999999999999</ele><time>2026-05-02T11:39:11.982Z</time></trkpt><trkpt lat="42.9705733" lon="12.99147"><ele>1071.0</ele><time>2026-05-02T11:39:12.982Z</time></trkpt><trkpt lat="42.9706467" lon="12.9915"><ele>1071.0</ele><time>2026-05-02T11:39:13.982Z</time></trkpt><trkpt lat="42.970725" lon="12.9915067"><ele>1071.0</ele><time>2026-05-02T11:39:14.981Z</time></trkpt><trkpt lat="42.970925" lon="12.99141"><ele>1071.0</ele><time>2026-05-02T11:39:16.981Z</time></trkpt><trkpt lat="42.9711067" lon="12.9913183"><ele>1072.0</ele><time>2026-05-02T11:39:18.982Z</time></trkpt><trkpt lat="42.9712117" lon="12.9913767"><ele>1073.0</ele><time>2026-05-02T11:39:20.982Z</time></trkpt><trkpt lat="42.9712433" lon="12.991555"><ele>1074.0</ele><time>2026-05-02T11:39:22.982Z</time></trkpt><trkpt lat="42.9712617" lon="12.9916983"><ele>1075.0</ele><time>2026-05-02T11:39:23.981Z</time></trkpt><trkpt lat="42.9712733" lon="12.9919667"><ele>1075.0</ele><time>2026-05-02T11:39:25.982Z</time></trkpt><trkpt lat="42.9712717" lon="12.992085"><ele>1075.0</ele><time>2026-05-02T11:39:26.982Z</time></trkpt><trkpt lat="42.971285" lon="12.9921967"><ele>1075.0</ele><time>2026-05-02T11:39:27.982Z</time></trkpt><trkpt lat="42.9713717" lon="12.9924017"><ele>1075.0</ele><time>2026-05-02T11:39:29.981Z</time></trkpt><trkpt lat="42.9714567" lon="12.9925033"><ele>1074.25</ele><time>2026-05-02T11:39:30.981Z</time></trkpt><trkpt lat="42.97163" lon="12.992695"><ele>1073.5</ele><time>2026-05-02T11:39:32.981Z</time></trkpt><trkpt lat="42.97172" lon="12.9927633"><ele>1072.75</ele><time>2026-05-02T11:39:33.981Z</time></trkpt><trkpt lat="42.9718183" lon="12.9928067"><ele>1072.0</ele><time>2026-05-02T11:39:34.981Z</time></trkpt><trkpt lat="42.9720233" lon="12.9928733"><ele>1072.0</ele><time>2026-05-02T11:39:36.984Z</time></trkpt><trkpt lat="42.9721283" lon="12.9929033"><ele>1072.0</ele><time>2026-05-02T11:39:37.981Z</time></trkpt><trkpt lat="42.972355" lon="12.99298"><ele>1072.0</ele><time>2026-05-02T11:39:39.982Z</time></trkpt><trkpt lat="42.9725733" lon="12.9930733"><ele>1073.0</ele><time>2026-05-02T11:39:41.981Z</time></trkpt><trkpt lat="42.9727367" lon="12.9931567"><ele>1074.0</ele><time>2026-05-02T11:39:43.982Z</time></trkpt><trkpt lat="42.9728517" lon="12.9933367"><ele>1075.0</ele><time>2026-05-02T11:39:45.982Z</time></trkpt><trkpt lat="42.9730083" lon="12.9935267"><ele>1075.0</ele><time>2026-05-02T11:39:47.981Z</time></trkpt><trkpt lat="42.9731167" lon="12.9936067"><ele>1075.0</ele><time>2026-05-02T11:39:48.982Z</time></trkpt><trkpt lat="42.9732233" lon="12.99368"><ele>1075.0</ele><time>2026-05-02T11:39:49.982Z</time></trkpt><trkpt lat="42.973405" lon="12.9937917"><ele>1075.0</ele><time>2026-05-02T11:39:51.982Z</time></trkpt><trkpt lat="42.9734767" lon="12.993845"><ele>1075.6666666666665</ele><time>2026-05-02T11:39:52.983Z</time></trkpt><trkpt lat="42.97356" lon="12.99394"><ele>1076.3333333333333</ele><time>2026-05-02T11:39:54.981Z</time></trkpt><trkpt lat="42.9736033" lon="12.9940117"><ele>1077.0</ele><time>2026-05-02T11:39:56.983Z</time></trkpt><trkpt lat="42.9736417" lon="12.9940983"><ele>1077.6666666666667</ele><time>2026-05-02T11:40:03.981Z</time></trkpt><trkpt lat="42.9736667" lon="12.99418"><ele>1078.3333333333335</ele><time>2026-05-02T11:40:05.982Z</time></trkpt><trkpt lat="42.9737233" lon="12.9942817"><ele>1079.0</ele><time>2026-05-02T11:40:08.982Z</time></trkpt><trkpt lat="42.97379" lon="12.994345"><ele>1077.0</ele><time>2026-05-02T11:40:10.982Z</time></trkpt><trkpt lat="42.97388" lon="12.9944033"><ele>1075.0</ele><time>2026-05-02T11:40:12.981Z</time></trkpt><trkpt lat="42.973985" lon="12.9944267"><ele>1073.0</ele><time>2026-05-02T11:40:14.983Z</time></trkpt><trkpt lat="42.9740517" lon="12.9944233"><ele>1071.0</ele><time>2026-05-02T11:40:15.981Z</time></trkpt><trkpt lat="42.9741283" lon="12.994415"><ele>1069.0</ele><time>2026-05-02T11:40:16.982Z</time></trkpt><trkpt lat="42.974215" lon="12.9944183"><ele>1067.0</ele><time>2026-05-02T11:40:17.981Z</time></trkpt><trkpt lat="42.974305" lon="12.9944333"><ele>1064.5714285714284</ele><time>2026-05-02T11:40:18.981Z</time></trkpt><trkpt lat="42.9743833" lon="12.9944583"><ele>1062.142857142857</ele><time>2026-05-02T11:40:19.982Z</time></trkpt><trkpt lat="42.97445" lon="12.99449"><ele>1059.7142857142858</ele><time>2026-05-02T11:40:20.982Z</time></trkpt><trkpt lat="42.9745083" lon="12.994525"><ele>1057.2857142857142</ele><time>2026-05-02T11:40:21.981Z</time></trkpt><trkpt lat="42.9745667" lon="12.994575"><ele>1054.857142857143</ele><time>2026-05-02T11:40:22.982Z</time></trkpt><trkpt lat="42.9746267" lon="12.9946333"><ele>1052.4285714285713</ele><time>2026-05-02T11:40:23.982Z</time></trkpt><trkpt lat="42.9746917" lon="12.9946867"><ele>1050.0</ele><time>2026-05-02T11:40:24.982Z</time></trkpt><trkpt lat="42.974765" lon="12.9947283"><ele>1050.0</ele><time>2026-05-02T11:40:25.982Z</time></trkpt><trkpt lat="42.9748433" lon="12.994755"><ele>1050.0</ele><time>2026-05-02T11:40:26.983Z</time></trkpt><trkpt lat="42.9749183" lon="12.9947567"><ele>1050.0</ele><time>2026-05-02T11:40:27.982Z</time></trkpt><trkpt lat="42.9749917" lon="12.9947417"><ele>1050.0</ele><time>2026-05-02T11:40:28.982Z</time></trkpt><trkpt lat="42.9750567" lon="12.9947183"><ele>1050.0</ele><time>2026-05-02T11:40:29.981Z</time></trkpt><trkpt lat="42.9751233" lon="12.99469"><ele>1050.0</ele><time>2026-05-02T11:40:30.981Z</time></trkpt><trkpt lat="42.9751983" lon="12.9946617"><ele>1050.0</ele><time>2026-05-02T11:40:31.982Z</time></trkpt><trkpt lat="42.97528" lon="12.9946433"><ele>1049.4</ele><time>2026-05-02T11:40:32.982Z</time></trkpt><trkpt lat="42.9753667" lon="12.994635"><ele>1048.8</ele><time>2026-05-02T11:40:33.981Z</time></trkpt><trkpt lat="42.9754567" lon="12.9946317"><ele>1048.2</ele><time>2026-05-02T11:40:34.985Z</time></trkpt><trkpt lat="42.9755467" lon="12.9946433"><ele>1047.6</ele><time>2026-05-02T11:40:35.982Z</time></trkpt><trkpt lat="42.9756367" lon="12.9946683"><ele>1047.0</ele><time>2026-05-02T11:40:36.983Z</time></trkpt><trkpt lat="42.9757267" lon="12.9947"><ele>1047.0</ele><time>2026-05-02T11:40:37.983Z</time></trkpt><trkpt lat="42.9758167" lon="12.99474"><ele>1047.0</ele><time>2026-05-02T11:40:38.983Z</time></trkpt><trkpt lat="42.9759183" lon="12.994795"><ele>1047.0</ele><time>2026-05-02T11:40:39.982Z</time></trkpt><trkpt lat="42.97602" lon="12.99485"><ele>1047.0</ele><time>2026-05-02T11:40:40.982Z</time></trkpt><trkpt lat="42.976115" lon="12.994905"><ele>1047.0</ele><time>2026-05-02T11:40:41.982Z</time></trkpt><trkpt lat="42.97621" lon="12.9949533"><ele>1047.2</ele><time>2026-05-02T11:40:42.981Z</time></trkpt><trkpt lat="42.9763167" lon="12.9949783"><ele>1047.4</ele><time>2026-05-02T11:40:43.982Z</time></trkpt><trkpt lat="42.97643" lon="12.994975"><ele>1047.6</ele><time>2026-05-02T11:40:44.982Z</time></trkpt><trkpt lat="42.976535" lon="12.9949683"><ele>1047.8</ele><time>2026-05-02T11:40:45.981Z</time></trkpt><trkpt lat="42.9766267" lon="12.9949783"><ele>1048.0</ele><time>2026-05-02T11:40:46.982Z</time></trkpt><trkpt lat="42.9767133" lon="12.995005"><ele>1043.2</ele><time>2026-05-02T11:40:47.982Z</time></trkpt><trkpt lat="42.9768067" lon="12.9950383"><ele>1038.4</ele><time>2026-05-02T11:40:48.981Z</time></trkpt><trkpt lat="42.9769033" lon="12.9950717"><ele>1033.6000000000001</ele><time>2026-05-02T11:40:49.982Z</time></trkpt><trkpt lat="42.977005" lon="12.9951017"><ele>1028.8</ele><time>2026-05-02T11:40:50.983Z</time></trkpt><trkpt lat="42.9771" lon="12.995135"><ele>1024.0</ele><time>2026-05-02T11:40:51.983Z</time></trkpt><trkpt lat="42.9771967" lon="12.9951817"><ele>1024.0</ele><time>2026-05-02T11:40:52.982Z</time></trkpt><trkpt lat="42.9773033" lon="12.9952533"><ele>1024.0</ele><time>2026-05-02T11:40:53.982Z</time></trkpt><trkpt lat="42.9773983" lon="12.9953283"><ele>1024.0</ele><time>2026-05-02T11:40:54.983Z</time></trkpt><trkpt lat="42.9774867" lon="12.9954"><ele>1024.0</ele><time>2026-05-02T11:40:55.982Z</time></trkpt><trkpt lat="42.9775683" lon="12.9954467"><ele>1024.0</ele><time>2026-05-02T11:40:56.982Z</time></trkpt><trkpt lat="42.9776483" lon="12.9954583"><ele>1022.2</ele><time>2026-05-02T11:40:57.982Z</time></trkpt><trkpt lat="42.9777333" lon="12.9954367"><ele>1020.4000000000001</ele><time>2026-05-02T11:40:58.982Z</time></trkpt><trkpt lat="42.9778317" lon="12.995385"><ele>1018.6</ele><time>2026-05-02T11:40:59.981Z</time></trkpt><trkpt lat="42.9779267" lon="12.9953167"><ele>1016.8</ele><time>2026-05-02T11:41:00.981Z</time></trkpt><trkpt lat="42.978025" lon="12.9952467"><ele>1015.0</ele><time>2026-05-02T11:41:01.981Z</time></trkpt><trkpt lat="42.978125" lon="12.995185"><ele>1015.0</ele><time>2026-05-02T11:41:02.983Z</time></trkpt><trkpt lat="42.9782283" lon="12.99513"><ele>1015.0</ele><time>2026-05-02T11:41:03.981Z</time></trkpt><trkpt lat="42.97833" lon="12.9950883"><ele>1015.0</ele><time>2026-05-02T11:41:04.981Z</time></trkpt><trkpt lat="42.9784117" lon="12.99504"><ele>1015.0</ele><time>2026-05-02T11:41:05.982Z</time></trkpt><trkpt lat="42.978475" lon="12.9949767"><ele>1015.0</ele><time>2026-05-02T11:41:06.983Z</time></trkpt><trkpt lat="42.97852" lon="12.9949"><ele>1012.6</ele><time>2026-05-02T11:41:07.981Z</time></trkpt><trkpt lat="42.9785417" lon="12.9947983"><ele>1010.2</ele><time>2026-05-02T11:41:08.982Z</time></trkpt><trkpt lat="42.978545" lon="12.994675"><ele>1007.8</ele><time>2026-05-02T11:41:09.982Z</time></trkpt><trkpt lat="42.9785467" lon="12.99457"><ele>1005.4</ele><time>2026-05-02T11:41:10.981Z</time></trkpt><trkpt lat="42.9785733" lon="12.9944217"><ele>1003.0</ele><time>2026-05-02T11:41:12.981Z</time></trkpt><trkpt lat="42.9786617" lon="12.99432"><ele>1002.9999999999999</ele><time>2026-05-02T11:41:14.982Z</time></trkpt><trkpt lat="42.97872" lon="12.994285"><ele>1003.0</ele><time>2026-05-02T11:41:15.983Z</time></trkpt><trkpt lat="42.97879" lon="12.9942567"><ele>1003.0</ele><time>2026-05-02T11:41:16.983Z</time></trkpt><trkpt lat="42.97887" lon="12.99423"><ele>1003.0</ele><time>2026-05-02T11:41:17.982Z</time></trkpt><trkpt lat="42.978965" lon="12.9941933"><ele>1002.9999999999999</ele><time>2026-05-02T11:41:18.982Z</time></trkpt><trkpt lat="42.9790633" lon="12.99415"><ele>1003.0</ele><time>2026-05-02T11:41:19.982Z</time></trkpt><trkpt lat="42.9791483" lon="12.994095"><ele>1001.8</ele><time>2026-05-02T11:41:20.983Z</time></trkpt><trkpt lat="42.979235" lon="12.99404"><ele>1000.5999999999999</ele><time>2026-05-02T11:41:21.983Z</time></trkpt><trkpt lat="42.9793317" lon="12.993985"><ele>999.4000000000001</ele><time>2026-05-02T11:41:22.982Z</time></trkpt><trkpt lat="42.9794367" lon="12.9939267"><ele>998.2</ele><time>2026-05-02T11:41:23.982Z</time></trkpt><trkpt lat="42.9795383" lon="12.9938683"><ele>997.0</ele><time>2026-05-02T11:41:24.983Z</time></trkpt><trkpt lat="42.9796317" lon="12.9938133"><ele>997.0</ele><time>2026-05-02T11:41:25.983Z</time></trkpt><trkpt lat="42.9797267" lon="12.99375"><ele>997.0</ele><time>2026-05-02T11:41:26.983Z</time></trkpt><trkpt lat="42.9798233" lon="12.9936983"><ele>997.0</ele><time>2026-05-02T11:41:27.982Z</time></trkpt><trkpt lat="42.9799133" lon="12.9936533"><ele>997.0</ele><time>2026-05-02T11:41:28.983Z</time></trkpt><trkpt lat="42.9800117" lon="12.9936217"><ele>997.0</ele><time>2026-05-02T11:41:29.983Z</time></trkpt><trkpt lat="42.9801067" lon="12.993605"><ele>995.8333333333333</ele><time>2026-05-02T11:41:30.982Z</time></trkpt><trkpt lat="42.980195" lon="12.9935883"><ele>994.6666666666666</ele><time>2026-05-02T11:41:31.983Z</time></trkpt><trkpt lat="42.9802767" lon="12.99356"><ele>993.5</ele><time>2026-05-02T11:41:32.982Z</time></trkpt><trkpt lat="42.9803667" lon="12.9935183"><ele>992.3333333333333</ele><time>2026-05-02T11:41:33.984Z</time></trkpt><trkpt lat="42.9804433" lon="12.99347"><ele>991.1666666666666</ele><time>2026-05-02T11:41:34.982Z</time></trkpt><trkpt lat="42.980525" lon="12.9934433"><ele>990.0</ele><time>2026-05-02T11:41:35.983Z</time></trkpt><trkpt lat="42.980595" lon="12.99344"><ele>990.0</ele><time>2026-05-02T11:41:36.982Z</time></trkpt><trkpt lat="42.9807267" lon="12.9935117"><ele>990.0</ele><time>2026-05-02T11:41:38.983Z</time></trkpt><trkpt lat="42.9807917" lon="12.993585"><ele>990.0</ele><time>2026-05-02T11:41:39.983Z</time></trkpt><trkpt lat="42.9808533" lon="12.99367"><ele>990.0</ele><time>2026-05-02T11:41:40.982Z</time></trkpt><trkpt lat="42.9809067" lon="12.993755"><ele>990.0</ele><time>2026-05-02T11:41:41.981Z</time></trkpt><trkpt lat="42.9809617" lon="12.9938367"><ele>991.0</ele><time>2026-05-02T11:41:42.983Z</time></trkpt><trkpt lat="42.9810117" lon="12.9939083"><ele>992.0</ele><time>2026-05-02T11:41:43.982Z</time></trkpt><trkpt lat="42.9810633" lon="12.9939717"><ele>993.0</ele><time>2026-05-02T11:41:44.982Z</time></trkpt><trkpt lat="42.9811217" lon="12.9940233"><ele>994.0</ele><time>2026-05-02T11:41:45.983Z</time></trkpt><trkpt lat="42.9812183" lon="12.9940517"><ele>995.0</ele><time>2026-05-02T11:41:47.983Z</time></trkpt><trkpt lat="42.9812883" lon="12.9940133"><ele>996.0</ele><time>2026-05-02T11:41:49.983Z</time></trkpt><trkpt lat="42.9813483" lon="12.9939467"><ele>996.0</ele><time>2026-05-02T11:41:52.983Z</time></trkpt><trkpt lat="42.981425" lon="12.9939233"><ele>995.9999999999999</ele><time>2026-05-02T11:41:54.983Z</time></trkpt><trkpt lat="42.9815383" lon="12.9939517"><ele>995.9999999999999</ele><time>2026-05-02T11:41:56.983Z</time></trkpt><trkpt lat="42.9816533" lon="12.99398"><ele>996.0</ele><time>2026-05-02T11:41:58.983Z</time></trkpt><trkpt lat="42.9817433" lon="12.9939733"><ele>996.0</ele><time>2026-05-02T11:42:00.983Z</time></trkpt><trkpt lat="42.9817967" lon="12.993895"><ele>992.0</ele><time>2026-05-02T11:42:02.983Z</time></trkpt><trkpt lat="42.9817967" lon="12.99373"><ele>987.9999999999999</ele><time>2026-05-02T11:42:04.982Z</time></trkpt><trkpt lat="42.981785" lon="12.99362"><ele>983.9999999999999</ele><time>2026-05-02T11:42:05.984Z</time></trkpt><trkpt lat="42.9817733" lon="12.9935017"><ele>980.0</ele><time>2026-05-02T11:42:06.984Z</time></trkpt><trkpt lat="42.981765" lon="12.9933833"><ele>976.0</ele><time>2026-05-02T11:42:07.983Z</time></trkpt><trkpt lat="42.9817617" lon="12.9932717"><ele>973.1999999999999</ele><time>2026-05-02T11:42:08.985Z</time></trkpt><trkpt lat="42.9817583" lon="12.9931633"><ele>970.3999999999999</ele><time>2026-05-02T11:42:09.984Z</time></trkpt><trkpt lat="42.9817517" lon="12.9930667"><ele>967.6</ele><time>2026-05-02T11:42:10.983Z</time></trkpt><trkpt lat="42.9817667" lon="12.9929067"><ele>964.8</ele><time>2026-05-02T11:42:12.982Z</time></trkpt><trkpt lat="42.98182" lon="12.9928183"><ele>962.0</ele><time>2026-05-02T11:42:14.982Z</time></trkpt><trkpt lat="42.9819267" lon="12.9928733"><ele>962.0</ele><time>2026-05-02T11:42:16.982Z</time></trkpt><trkpt lat="42.9819833" lon="12.9929633"><ele>962.0</ele><time>2026-05-02T11:42:17.982Z</time></trkpt><trkpt lat="42.9820383" lon="12.9930833"><ele>962.0</ele><time>2026-05-02T11:42:18.982Z</time></trkpt><trkpt lat="42.9820917" lon="12.993215"><ele>962.0</ele><time>2026-05-02T11:42:19.982Z</time></trkpt><trkpt lat="42.98214" lon="12.993345"><ele>962.0</ele><time>2026-05-02T11:42:20.982Z</time></trkpt><trkpt lat="42.982185" lon="12.9934567"><ele>961.2</ele><time>2026-05-02T11:42:21.982Z</time></trkpt><trkpt lat="42.9822417" lon="12.9935367"><ele>960.4000000000001</ele><time>2026-05-02T11:42:22.982Z</time></trkpt><trkpt lat="42.98231" lon="12.993595"><ele>959.5999999999999</ele><time>2026-05-02T11:42:23.982Z</time></trkpt><trkpt lat="42.9823983" lon="12.9936433"><ele>958.8</ele><time>2026-05-02T11:42:24.983Z</time></trkpt><trkpt lat="42.9824983" lon="12.9936833"><ele>958.0</ele><time>2026-05-02T11:42:25.983Z</time></trkpt><trkpt lat="42.9826033" lon="12.9937183"><ele>958.0</ele><time>2026-05-02T11:42:26.983Z</time></trkpt><trkpt lat="42.982725" lon="12.9937517"><ele>958.0</ele><time>2026-05-02T11:42:27.982Z</time></trkpt><trkpt lat="42.9828533" lon="12.9937833"><ele>958.0</ele><time>2026-05-02T11:42:28.983Z</time></trkpt><trkpt lat="42.9829833" lon="12.9938183"><ele>958.0</ele><time>2026-05-02T11:42:29.983Z</time></trkpt><trkpt lat="42.98311" lon="12.993855"><ele>958.0</ele><time>2026-05-02T11:42:30.982Z</time></trkpt><trkpt lat="42.9832367" lon="12.99389"><ele>958.0</ele><time>2026-05-02T11:42:31.983Z</time></trkpt><trkpt lat="42.9833617" lon="12.9939217"><ele>958.0</ele><time>2026-05-02T11:42:32.983Z</time></trkpt><trkpt lat="42.9834833" lon="12.9939483"><ele>958.0</ele><time>2026-05-02T11:42:33.982Z</time></trkpt><trkpt lat="42.9836" lon="12.993975"><ele>953.0</ele><time>2026-05-02T11:42:34.981Z</time></trkpt><trkpt lat="42.9837167" lon="12.994005"><ele>948.0</ele><time>2026-05-02T11:42:35.981Z</time></trkpt><trkpt lat="42.9838317" lon="12.9940367"><ele>943.0</ele><time>2026-05-02T11:42:36.982Z</time></trkpt><trkpt lat="42.9839433" lon="12.9940717"><ele>938.0</ele><time>2026-05-02T11:42:37.981Z</time></trkpt><trkpt lat="42.98405" lon="12.99412"><ele>938.0000000000001</ele><time>2026-05-02T11:42:38.984Z</time></trkpt><trkpt lat="42.9841483" lon="12.99417"><ele>938.0</ele><time>2026-05-02T11:42:39.981Z</time></trkpt><trkpt lat="42.984235" lon="12.9942117"><ele>938.0</ele><time>2026-05-02T11:42:40.981Z</time></trkpt><trkpt lat="42.984315" lon="12.99424"><ele>938.0</ele><time>2026-05-02T11:42:41.981Z</time></trkpt><trkpt lat="42.98439" lon="12.9942267"><ele>938.0000000000001</ele><time>2026-05-02T11:42:42.981Z</time></trkpt><trkpt lat="42.9844517" lon="12.9941767"><ele>938.0</ele><time>2026-05-02T11:42:43.982Z</time></trkpt><trkpt lat="42.9844583" lon="12.99402"><ele>938.0</ele><time>2026-05-02T11:42:45.982Z</time></trkpt><trkpt lat="42.9843683" lon="12.9938817"><ele>938.0</ele><time>2026-05-02T11:42:47.981Z</time></trkpt><trkpt lat="42.9842867" lon="12.9938083"><ele>938.0</ele><time>2026-05-02T11:42:48.982Z</time></trkpt><trkpt lat="42.9841883" lon="12.9937233"><ele>938.0</ele><time>2026-05-02T11:42:49.981Z</time></trkpt><trkpt lat="42.9840683" lon="12.9936283"><ele>938.0</ele><time>2026-05-02T11:42:50.982Z</time></trkpt><trkpt lat="42.983935" lon="12.9935317"><ele>938.0</ele><time>2026-05-02T11:42:51.982Z</time></trkpt><trkpt lat="42.9837983" lon="12.9934383"><ele>938.0</ele><time>2026-05-02T11:42:52.981Z</time></trkpt><trkpt lat="42.9836667" lon="12.9933517"><ele>937.5</ele><time>2026-05-02T11:42:53.982Z</time></trkpt><trkpt lat="42.98354" lon="12.99326"><ele>937.0</ele><time>2026-05-02T11:42:54.981Z</time></trkpt><trkpt lat="42.9834217" lon="12.9931683"><ele>936.5</ele><time>2026-05-02T11:42:55.981Z</time></trkpt><trkpt lat="42.9833167" lon="12.993085"><ele>936.0</ele><time>2026-05-02T11:42:56.982Z</time></trkpt><trkpt lat="42.983235" lon="12.993005"><ele>936.0</ele><time>2026-05-02T11:42:57.981Z</time></trkpt><trkpt lat="42.9831733" lon="12.9929217"><ele>936.0</ele><time>2026-05-02T11:42:58.983Z</time></trkpt><trkpt lat="42.9831317" lon="12.9928317"><ele>936.0</ele><time>2026-05-02T11:42:59.984Z</time></trkpt><trkpt lat="42.9831083" lon="12.99273"><ele>936.0</ele><time>2026-05-02T11:43:00.981Z</time></trkpt><trkpt lat="42.9831" lon="12.992615"><ele>936.0</ele><time>2026-05-02T11:43:01.981Z</time></trkpt><trkpt lat="42.983125" lon="12.9924683"><ele>936.0</ele><time>2026-05-02T11:43:02.983Z</time></trkpt><trkpt lat="42.9831567" lon="12.9923033"><ele>931.75</ele><time>2026-05-02T11:43:03.981Z</time></trkpt><trkpt lat="42.98319" lon="12.99213"><ele>927.5</ele><time>2026-05-02T11:43:04.981Z</time></trkpt><trkpt lat="42.9832333" lon="12.9919617"><ele>923.25</ele><time>2026-05-02T11:43:05.984Z</time></trkpt><trkpt lat="42.9832833" lon="12.991805"><ele>919.0</ele><time>2026-05-02T11:43:06.982Z</time></trkpt><trkpt lat="42.9833483" lon="12.9916583"><ele>913.0</ele><time>2026-05-02T11:43:07.981Z</time></trkpt><trkpt lat="42.98342" lon="12.9915317"><ele>907.0</ele><time>2026-05-02T11:43:08.983Z</time></trkpt><trkpt lat="42.9835083" lon="12.991425"><ele>901.0</ele><time>2026-05-02T11:43:09.982Z</time></trkpt><trkpt lat="42.9836067" lon="12.9913333"><ele>895.0</ele><time>2026-05-02T11:43:10.982Z</time></trkpt><trkpt lat="42.9837" lon="12.9912383"><ele>895.0</ele><time>2026-05-02T11:43:11.982Z</time></trkpt><trkpt lat="42.9837917" lon="12.9911333"><ele>895.0</ele><time>2026-05-02T11:43:12.982Z</time></trkpt><trkpt lat="42.9838833" lon="12.9910233"><ele>895.0</ele><time>2026-05-02T11:43:13.982Z</time></trkpt><trkpt lat="42.98398" lon="12.9909117"><ele>895.0</ele><time>2026-05-02T11:43:14.981Z</time></trkpt><trkpt lat="42.98409" lon="12.9908183"><ele>892.4</ele><time>2026-05-02T11:43:15.982Z</time></trkpt><trkpt lat="42.984205" lon="12.9907417"><ele>889.8</ele><time>2026-05-02T11:43:16.981Z</time></trkpt><trkpt lat="42.9843117" lon="12.9906883"><ele>887.2</ele><time>2026-05-02T11:43:17.982Z</time></trkpt><trkpt lat="42.9844133" lon="12.990655"><ele>884.6</ele><time>2026-05-02T11:43:18.982Z</time></trkpt><trkpt lat="42.9845083" lon="12.9906233"><ele>882.0</ele><time>2026-05-02T11:43:19.981Z</time></trkpt><trkpt lat="42.9845917" lon="12.990585"><ele>882.0</ele><time>2026-05-02T11:43:20.982Z</time></trkpt><trkpt lat="42.984655" lon="12.99052"><ele>882.0</ele><time>2026-05-02T11:43:21.981Z</time></trkpt><trkpt lat="42.9846783" lon="12.99042"><ele>882.0</ele><time>2026-05-02T11:43:22.982Z</time></trkpt><trkpt lat="42.9846783" lon="12.9903067"><ele>882.0</ele><time>2026-05-02T11:43:23.982Z</time></trkpt><trkpt lat="42.9846617" lon="12.9901817"><ele>882.0</ele><time>2026-05-02T11:43:24.981Z</time></trkpt><trkpt lat="42.9846367" lon="12.9900533"><ele>882.0</ele><time>2026-05-02T11:43:25.982Z</time></trkpt><trkpt lat="42.9845983" lon="12.9899283"><ele>880.75</ele><time>2026-05-02T11:43:26.985Z</time></trkpt><trkpt lat="42.9845383" lon="12.9898083"><ele>879.5</ele><time>2026-05-02T11:43:27.982Z</time></trkpt><trkpt lat="42.984455" lon="12.98969"><ele>878.25</ele><time>2026-05-02T11:43:28.981Z</time></trkpt><trkpt lat="42.9843667" lon="12.9895683"><ele>877.0</ele><time>2026-05-02T11:43:29.981Z</time></trkpt><trkpt lat="42.98428" lon="12.9894383"><ele>877.0</ele><time>2026-05-02T11:43:30.982Z</time></trkpt><trkpt lat="42.984195" lon="12.9892983"><ele>877.0</ele><time>2026-05-02T11:43:31.982Z</time></trkpt><trkpt lat="42.9841133" lon="12.98916"><ele>877.0</ele><time>2026-05-02T11:43:32.982Z</time></trkpt><trkpt lat="42.9840383" lon="12.9890317"><ele>877.0</ele><time>2026-05-02T11:43:33.982Z</time></trkpt><trkpt lat="42.98397" lon="12.9889083"><ele>878.2</ele><time>2026-05-02T11:43:34.981Z</time></trkpt><trkpt lat="42.98391" lon="12.9887883"><ele>879.4000000000001</ele><time>2026-05-02T11:43:35.982Z</time></trkpt><trkpt lat="42.98386" lon="12.9886683"><ele>880.5999999999999</ele><time>2026-05-02T11:43:36.982Z</time></trkpt><trkpt lat="42.9838217" lon="12.9885183"><ele>881.8</ele><time>2026-05-02T11:43:37.982Z</time></trkpt><trkpt lat="42.9837867" lon="12.9883583"><ele>883.0</ele><time>2026-05-02T11:43:38.982Z</time></trkpt><trkpt lat="42.9837617" lon="12.9882017"><ele>879.8</ele><time>2026-05-02T11:43:39.981Z</time></trkpt><trkpt lat="42.9837233" lon="12.9880567"><ele>876.5999999999999</ele><time>2026-05-02T11:43:40.982Z</time></trkpt><trkpt lat="42.9836933" lon="12.9879083"><ele>873.4000000000001</ele><time>2026-05-02T11:43:41.982Z</time></trkpt><trkpt lat="42.9836917" lon="12.9877567"><ele>870.2</ele><time>2026-05-02T11:43:42.982Z</time></trkpt><trkpt lat="42.9837017" lon="12.9876033"><ele>867.0</ele><time>2026-05-02T11:43:43.982Z</time></trkpt><trkpt lat="42.9837317" lon="12.9874517"><ele>867.0</ele><time>2026-05-02T11:43:44.983Z</time></trkpt><trkpt lat="42.98376" lon="12.987305"><ele>867.0</ele><time>2026-05-02T11:43:45.982Z</time></trkpt><trkpt lat="42.9837833" lon="12.9871683"><ele>867.0</ele><time>2026-05-02T11:43:46.981Z</time></trkpt><trkpt lat="42.9838017" lon="12.987045"><ele>867.0</ele><time>2026-05-02T11:43:47.983Z</time></trkpt><trkpt lat="42.9838217" lon="12.986935"><ele>867.0</ele><time>2026-05-02T11:43:48.981Z</time></trkpt><trkpt lat="42.983845" lon="12.9868383"><ele>867.0</ele><time>2026-05-02T11:43:49.981Z</time></trkpt><trkpt lat="42.9838983" lon="12.9867783"><ele>867.0</ele><time>2026-05-02T11:43:50.982Z</time></trkpt><trkpt lat="42.98401" lon="12.98674"><ele>867.0</ele><time>2026-05-02T11:43:52.983Z</time></trkpt><trkpt lat="42.9841167" lon="12.9868133"><ele>867.0</ele><time>2026-05-02T11:43:54.982Z</time></trkpt><trkpt lat="42.9841683" lon="12.986895"><ele>867.0</ele><time>2026-05-02T11:43:55.984Z</time></trkpt><trkpt lat="42.9842117" lon="12.9869983"><ele>866.0</ele><time>2026-05-02T11:43:56.983Z</time></trkpt><trkpt lat="42.9842633" lon="12.987125"><ele>865.0</ele><time>2026-05-02T11:43:57.984Z</time></trkpt><trkpt lat="42.9843233" lon="12.9872633"><ele>864.0</ele><time>2026-05-02T11:43:58.981Z</time></trkpt><trkpt lat="42.9843933" lon="12.9874133"><ele>863.0</ele><time>2026-05-02T11:43:59.982Z</time></trkpt><trkpt lat="42.9844783" lon="12.98758"><ele>863.0</ele><time>2026-05-02T11:44:00.982Z</time></trkpt><trkpt lat="42.9845617" lon="12.9877433"><ele>863.0</ele><time>2026-05-02T11:44:01.981Z</time></trkpt><trkpt lat="42.9846517" lon="12.9878783"><ele>863.0</ele><time>2026-05-02T11:44:02.983Z</time></trkpt><trkpt lat="42.9847367" lon="12.9879783"><ele>863.0</ele><time>2026-05-02T11:44:03.982Z</time></trkpt><trkpt lat="42.9848283" lon="12.98803"><ele>863.0</ele><time>2026-05-02T11:44:04.982Z</time></trkpt><trkpt lat="42.9849367" lon="12.988045"><ele>863.0</ele><time>2026-05-02T11:44:05.981Z</time></trkpt><trkpt lat="42.985065" lon="12.9880317"><ele>863.0</ele><time>2026-05-02T11:44:06.981Z</time></trkpt><trkpt lat="42.9852133" lon="12.988035"><ele>863.0</ele><time>2026-05-02T11:44:07.982Z</time></trkpt><trkpt lat="42.985365" lon="12.9880817"><ele>863.6666666666667</ele><time>2026-05-02T11:44:08.981Z</time></trkpt><trkpt lat="42.9855183" lon="12.9881683"><ele>864.3333333333333</ele><time>2026-05-02T11:44:09.981Z</time></trkpt><trkpt lat="42.9856533" lon="12.9882617"><ele>865.0</ele><time>2026-05-02T11:44:10.982Z</time></trkpt><trkpt lat="42.98579" lon="12.98835"><ele>862.5</ele><time>2026-05-02T11:44:11.982Z</time></trkpt><trkpt lat="42.9859283" lon="12.9884367"><ele>860.0</ele><time>2026-05-02T11:44:12.981Z</time></trkpt><trkpt lat="42.98605" lon="12.9885383"><ele>857.5</ele><time>2026-05-02T11:44:13.981Z</time></trkpt><trkpt lat="42.986155" lon="12.9886667"><ele>855.0</ele><time>2026-05-02T11:44:14.983Z</time></trkpt><trkpt lat="42.9862367" lon="12.9888017"><ele>855.0</ele><time>2026-05-02T11:44:15.981Z</time></trkpt><trkpt lat="42.9863033" lon="12.9889367"><ele>855.0</ele><time>2026-05-02T11:44:16.982Z</time></trkpt><trkpt lat="42.9863717" lon="12.9890433"><ele>855.0</ele><time>2026-05-02T11:44:17.981Z</time></trkpt><trkpt lat="42.9864683" lon="12.98911"><ele>855.0</ele><time>2026-05-02T11:44:18.982Z</time></trkpt><trkpt lat="42.9865667" lon="12.9891617"><ele>855.0</ele><time>2026-05-02T11:44:19.982Z</time></trkpt><trkpt lat="42.9866633" lon="12.98923"><ele>848.4</ele><time>2026-05-02T11:44:20.982Z</time></trkpt><trkpt lat="42.9867517" lon="12.9893133"><ele>841.8</ele><time>2026-05-02T11:44:21.981Z</time></trkpt><trkpt lat="42.9868183" lon="12.989425"><ele>835.2</ele><time>2026-05-02T11:44:22.981Z</time></trkpt><trkpt lat="42.9868683" lon="12.9895517"><ele>828.6</ele><time>2026-05-02T11:44:23.982Z</time></trkpt><trkpt lat="42.9869317" lon="12.9896617"><ele>822.0</ele><time>2026-05-02T11:44:24.982Z</time></trkpt><trkpt lat="42.9870117" lon="12.98974"><ele>822.0</ele><time>2026-05-02T11:44:25.981Z</time></trkpt><trkpt lat="42.9871267" lon="12.98977"><ele>822.0</ele><time>2026-05-02T11:44:26.982Z</time></trkpt><trkpt lat="42.98727" lon="12.9897633"><ele>822.0</ele><time>2026-05-02T11:44:27.982Z</time></trkpt><trkpt lat="42.9874217" lon="12.98974"><ele>822.0</ele><time>2026-05-02T11:44:28.981Z</time></trkpt><trkpt lat="42.9875617" lon="12.989725"><ele>820.6</ele><time>2026-05-02T11:44:29.983Z</time></trkpt><trkpt lat="42.987675" lon="12.9897217"><ele>819.2</ele><time>2026-05-02T11:44:30.982Z</time></trkpt><trkpt lat="42.98775" lon="12.9897483"><ele>817.8</ele><time>2026-05-02T11:44:31.982Z</time></trkpt><trkpt lat="42.987785" lon="12.9898283"><ele>816.4</ele><time>2026-05-02T11:44:33.983Z</time></trkpt><trkpt lat="42.9876833" lon="12.98986"><ele>815.0</ele><time>2026-05-02T11:44:34.982Z</time></trkpt><trkpt lat="42.987555" lon="12.9898867"><ele>817.3333333333334</ele><time>2026-05-02T11:44:35.982Z</time></trkpt><trkpt lat="42.9874" lon="12.98993"><ele>819.6666666666667</ele><time>2026-05-02T11:44:36.983Z</time></trkpt><trkpt lat="42.9872417" lon="12.9899767"><ele>822.0</ele><time>2026-05-02T11:44:37.985Z</time></trkpt><trkpt lat="42.9870967" lon="12.9900233"><ele>823.2</ele><time>2026-05-02T11:44:38.982Z</time></trkpt><trkpt lat="42.9869667" lon="12.9900817"><ele>824.4000000000001</ele><time>2026-05-02T11:44:39.982Z</time></trkpt><trkpt lat="42.986865" lon="12.9901667"><ele>825.5999999999999</ele><time>2026-05-02T11:44:40.982Z</time></trkpt><trkpt lat="42.9867917" lon="12.9902617"><ele>826.8</ele><time>2026-05-02T11:44:41.981Z</time></trkpt><trkpt lat="42.9867867" lon="12.9903517"><ele>828.0</ele><time>2026-05-02T11:44:42.981Z</time></trkpt><trkpt lat="42.986805" lon="12.9904383"><ele>828.0</ele><time>2026-05-02T11:44:43.983Z</time></trkpt><trkpt lat="42.9868467" lon="12.9905133"><ele>828.0</ele><time>2026-05-02T11:44:44.982Z</time></trkpt><trkpt lat="42.9869883" lon="12.9905733"><ele>828.0</ele><time>2026-05-02T11:44:45.982Z</time></trkpt><trkpt lat="42.9871383" lon="12.9906"><ele>828.0</ele><time>2026-05-02T11:44:46.982Z</time></trkpt><trkpt lat="42.987305" lon="12.9905983"><ele>825.3333333333333</ele><time>2026-05-02T11:44:47.983Z</time></trkpt><trkpt lat="42.9875183" lon="12.990575"><ele>822.6666666666666</ele><time>2026-05-02T11:44:48.983Z</time></trkpt><trkpt lat="42.987725" lon="12.990555"><ele>820.0</ele><time>2026-05-02T11:44:49.983Z</time></trkpt><trkpt lat="42.9879233" lon="12.990545"><ele>820.0</ele><time>2026-05-02T11:44:50.982Z</time></trkpt><trkpt lat="42.9881117" lon="12.9905633"><ele>820.0</ele><time>2026-05-02T11:44:51.982Z</time></trkpt><trkpt lat="42.98829" lon="12.9905883"><ele>820.0</ele><time>2026-05-02T11:44:52.982Z</time></trkpt><trkpt lat="42.9884667" lon="12.9905967"><ele>814.0</ele><time>2026-05-02T11:44:53.983Z</time></trkpt><trkpt lat="42.9886317" lon="12.990565"><ele>808.0</ele><time>2026-05-02T11:44:54.982Z</time></trkpt><trkpt lat="42.9887917" lon="12.9905367"><ele>802.0</ele><time>2026-05-02T11:44:55.982Z</time></trkpt><trkpt lat="42.9889567" lon="12.9905217"><ele>802.0</ele><time>2026-05-02T11:44:56.981Z</time></trkpt><trkpt lat="42.9891183" lon="12.990535"><ele>802.0</ele><time>2026-05-02T11:44:57.983Z</time></trkpt><trkpt lat="42.9892833" lon="12.9905783"><ele>802.0</ele><time>2026-05-02T11:44:58.981Z</time></trkpt><trkpt lat="42.9894533" lon="12.9906383"><ele>797.0</ele><time>2026-05-02T11:44:59.982Z</time></trkpt><trkpt lat="42.9896267" lon="12.990695"><ele>792.0</ele><time>2026-05-02T11:45:00.982Z</time></trkpt><trkpt lat="42.9898067" lon="12.9907383"><ele>787.0</ele><time>2026-05-02T11:45:01.983Z</time></trkpt><trkpt lat="42.9899933" lon="12.99076"><ele>785.6666666666666</ele><time>2026-05-02T11:45:02.983Z</time></trkpt><trkpt lat="42.9901667" lon="12.99075"><ele>784.3333333333333</ele><time>2026-05-02T11:45:03.982Z</time></trkpt><trkpt lat="42.9903383" lon="12.9907167"><ele>783.0</ele><time>2026-05-02T11:45:04.982Z</time></trkpt><trkpt lat="42.990505" lon="12.9906617"><ele>783.0</ele><time>2026-05-02T11:45:05.982Z</time></trkpt><trkpt lat="42.9906583" lon="12.9905867"><ele>783.0</ele><time>2026-05-02T11:45:06.983Z</time></trkpt><trkpt lat="42.9907983" lon="12.9905"><ele>783.0</ele><time>2026-05-02T11:45:07.982Z</time></trkpt><trkpt lat="42.9909433" lon="12.99042"><ele>776.6666666666666</ele><time>2026-05-02T11:45:08.983Z</time></trkpt><trkpt lat="42.9911033" lon="12.99037"><ele>770.3333333333333</ele><time>2026-05-02T11:45:09.981Z</time></trkpt><trkpt lat="42.9912717" lon="12.99035"><ele>764.0</ele><time>2026-05-02T11:45:10.982Z</time></trkpt><trkpt lat="42.9914417" lon="12.9903467"><ele>764.0</ele><time>2026-05-02T11:45:11.982Z</time></trkpt><trkpt lat="42.991605" lon="12.9903617"><ele>764.0</ele><time>2026-05-02T11:45:12.982Z</time></trkpt><trkpt lat="42.9917583" lon="12.9904033"><ele>764.0</ele><time>2026-05-02T11:45:13.981Z</time></trkpt><trkpt lat="42.9919017" lon="12.9904683"><ele>762.5</ele><time>2026-05-02T11:45:14.982Z</time></trkpt><trkpt lat="42.992035" lon="12.9905467"><ele>761.0</ele><time>2026-05-02T11:45:15.983Z</time></trkpt><trkpt lat="42.9921633" lon="12.9906383"><ele>759.5</ele><time>2026-05-02T11:45:16.981Z</time></trkpt><trkpt lat="42.9922983" lon="12.9907417"><ele>758.0</ele><time>2026-05-02T11:45:17.983Z</time></trkpt><trkpt lat="42.9924283" lon="12.99086"><ele>752.6666666666666</ele><time>2026-05-02T11:45:18.982Z</time></trkpt><trkpt lat="42.992545" lon="12.9910017"><ele>747.3333333333334</ele><time>2026-05-02T11:45:19.983Z</time></trkpt><trkpt lat="42.992645" lon="12.9911733"><ele>742.0</ele><time>2026-05-02T11:45:20.982Z</time></trkpt><trkpt lat="42.9927333" lon="12.9913533"><ele>742.0</ele><time>2026-05-02T11:45:21.983Z</time></trkpt><trkpt lat="42.992815" lon="12.9915217"><ele>742.0</ele><time>2026-05-02T11:45:22.982Z</time></trkpt><trkpt lat="42.9928983" lon="12.9916633"><ele>742.0</ele><time>2026-05-02T11:45:23.982Z</time></trkpt><trkpt lat="42.9930083" lon="12.9917617"><ele>742.0</ele><time>2026-05-02T11:45:24.982Z</time></trkpt><trkpt lat="42.9931333" lon="12.9918233"><ele>738.5</ele><time>2026-05-02T11:45:25.981Z</time></trkpt><trkpt lat="42.99325" lon="12.9918983"><ele>735.0</ele><time>2026-05-02T11:45:26.983Z</time></trkpt><trkpt lat="42.9933467" lon="12.9920233"><ele>731.5</ele><time>2026-05-02T11:45:27.982Z</time></trkpt><trkpt lat="42.99342" lon="12.992215"><ele>728.0</ele><time>2026-05-02T11:45:28.982Z</time></trkpt><trkpt lat="42.99348" lon="12.9924533"><ele>729.6666666666666</ele><time>2026-05-02T11:45:29.983Z</time></trkpt><trkpt lat="42.993545" lon="12.99269"><ele>731.3333333333334</ele><time>2026-05-02T11:45:30.983Z</time></trkpt><trkpt lat="42.993625" lon="12.9929083"><ele>733.0</ele><time>2026-05-02T11:45:31.983Z</time></trkpt><trkpt lat="42.9937067" lon="12.99312"><ele>733.0</ele><time>2026-05-02T11:45:32.982Z</time></trkpt><trkpt lat="42.99377" lon="12.9933317"><ele>733.0</ele><time>2026-05-02T11:45:33.982Z</time></trkpt><trkpt lat="42.9938067" lon="12.9935483"><ele>733.0</ele><time>2026-05-02T11:45:34.982Z</time></trkpt><trkpt lat="42.9938267" lon="12.9937683"><ele>728.3333333333334</ele><time>2026-05-02T11:45:35.982Z</time></trkpt><trkpt lat="42.993835" lon="12.9939883"><ele>723.6666666666666</ele><time>2026-05-02T11:45:36.982Z</time></trkpt><trkpt lat="42.9938283" lon="12.9942017"><ele>719.0</ele><time>2026-05-02T11:45:37.983Z</time></trkpt><trkpt lat="42.9938117" lon="12.9944133"><ele>717.25</ele><time>2026-05-02T11:45:38.983Z</time></trkpt><trkpt lat="42.9937867" lon="12.994615"><ele>715.5</ele><time>2026-05-02T11:45:39.982Z</time></trkpt><trkpt lat="42.9937533" lon="12.9948"><ele>713.75</ele><time>2026-05-02T11:45:40.982Z</time></trkpt><trkpt lat="42.99372" lon="12.9949767"><ele>712.0</ele><time>2026-05-02T11:45:41.983Z</time></trkpt><trkpt lat="42.9937033" lon="12.995145"><ele>708.0</ele><time>2026-05-02T11:45:42.981Z</time></trkpt><trkpt lat="42.9937167" lon="12.9953"><ele>704.0</ele><time>2026-05-02T11:45:43.981Z</time></trkpt><trkpt lat="42.9937517" lon="12.9954467"><ele>700.0</ele><time>2026-05-02T11:45:44.982Z</time></trkpt><trkpt lat="42.9937983" lon="12.9955817"><ele>696.0</ele><time>2026-05-02T11:45:45.982Z</time></trkpt><trkpt lat="42.993845" lon="12.9957117"><ele>692.0</ele><time>2026-05-02T11:45:46.983Z</time></trkpt><trkpt lat="42.99389" lon="12.9958367"><ele>689.2</ele><time>2026-05-02T11:45:47.982Z</time></trkpt><trkpt lat="42.9939333" lon="12.9959567"><ele>686.4000000000001</ele><time>2026-05-02T11:45:48.983Z</time></trkpt><trkpt lat="42.993975" lon="12.9960717"><ele>683.5999999999999</ele><time>2026-05-02T11:45:49.982Z</time></trkpt><trkpt lat="42.9940167" lon="12.9961817"><ele>680.8</ele><time>2026-05-02T11:45:50.983Z</time></trkpt><trkpt lat="42.9940533" lon="12.9962917"><ele>678.0</ele><time>2026-05-02T11:45:51.983Z</time></trkpt><trkpt lat="42.9940817" lon="12.9964017"><ele>678.0</ele><time>2026-05-02T11:45:52.982Z</time></trkpt><trkpt lat="42.9941033" lon="12.9965083"><ele>678.0</ele><time>2026-05-02T11:45:53.982Z</time></trkpt><trkpt lat="42.99412" lon="12.9966117"><ele>678.0</ele><time>2026-05-02T11:45:54.982Z</time></trkpt><trkpt lat="42.99414" lon="12.9968067"><ele>678.0</ele><time>2026-05-02T11:45:56.983Z</time></trkpt><trkpt lat="42.9941533" lon="12.9968983"><ele>678.0</ele><time>2026-05-02T11:45:57.982Z</time></trkpt><trkpt lat="42.994165" lon="12.996985"><ele>678.0</ele><time>2026-05-02T11:45:58.982Z</time></trkpt><trkpt lat="42.9942017" lon="12.9972417"><ele>677.8</ele><time>2026-05-02T11:46:01.982Z</time></trkpt><trkpt lat="42.9942183" lon="12.997355"><ele>677.5999999999999</ele><time>2026-05-02T11:46:02.987Z</time></trkpt><trkpt lat="42.9942367" lon="12.9974817"><ele>677.4000000000001</ele><time>2026-05-02T11:46:03.982Z</time></trkpt><trkpt lat="42.994255" lon="12.9976117"><ele>677.2</ele><time>2026-05-02T11:46:04.984Z</time></trkpt><trkpt lat="42.99428" lon="12.997735"><ele>677.0</ele><time>2026-05-02T11:46:05.983Z</time></trkpt><trkpt lat="42.9942967" lon="12.9978433"><ele>676.0</ele><time>2026-05-02T11:46:06.984Z</time></trkpt><trkpt lat="42.994305" lon="12.9979383"><ele>675.0</ele><time>2026-05-02T11:46:07.982Z</time></trkpt><trkpt lat="42.9942883" lon="12.9980917"><ele>674.0</ele><time>2026-05-02T11:46:09.981Z</time></trkpt><trkpt lat="42.9942783" lon="12.9983667"><ele>673.0</ele><time>2026-05-02T11:46:12.983Z</time></trkpt><trkpt lat="42.9942917" lon="12.9984833"><ele>674.5999999999999</ele><time>2026-05-02T11:46:13.982Z</time></trkpt><trkpt lat="42.994315" lon="12.9987267"><ele>676.1999999999999</ele><time>2026-05-02T11:46:15.982Z</time></trkpt><trkpt lat="42.99433" lon="12.9988417"><ele>677.8</ele><time>2026-05-02T11:46:16.984Z</time></trkpt><trkpt lat="42.9943417" lon="12.9989517"><ele>679.4</ele><time>2026-05-02T11:46:17.982Z</time></trkpt><trkpt lat="42.9943533" lon="12.9990583"><ele>681.0</ele><time>2026-05-02T11:46:18.982Z</time></trkpt><trkpt lat="42.9943617" lon="12.999165"><ele>680.8</ele><time>2026-05-02T11:46:19.983Z</time></trkpt><trkpt lat="42.9943767" lon="12.9993717"><ele>680.5999999999999</ele><time>2026-05-02T11:46:21.982Z</time></trkpt><trkpt lat="42.9943817" lon="12.9994667"><ele>680.4</ele><time>2026-05-02T11:46:22.985Z</time></trkpt><trkpt lat="42.9943983" lon="12.99962"><ele>680.2</ele><time>2026-05-02T11:46:24.984Z</time></trkpt><trkpt lat="42.994415" lon="12.9997417"><ele>680.0</ele><time>2026-05-02T11:46:26.984Z</time></trkpt><trkpt lat="42.99445" lon="12.999915"><ele>680.0</ele><time>2026-05-02T11:46:29.982Z</time></trkpt><trkpt lat="42.9944767" lon="13.0000483"><ele>680.0</ele><time>2026-05-02T11:46:31.982Z</time></trkpt><trkpt lat="42.994515" lon="13.000185"><ele>680.0</ele><time>2026-05-02T11:46:33.983Z</time></trkpt><trkpt lat="42.9945433" lon="13.000315"><ele>680.0</ele><time>2026-05-02T11:46:35.983Z</time></trkpt><trkpt lat="42.9945883" lon="13.0005033"><ele>680.0</ele><time>2026-05-02T11:46:38.982Z</time></trkpt><trkpt lat="42.9945967" lon="13.000625"><ele>680.0</ele><time>2026-05-02T11:46:40.982Z</time></trkpt><trkpt lat="42.994565" lon="13.0007267"><ele>680.0</ele><time>2026-05-02T11:46:42.982Z</time></trkpt><trkpt lat="42.9945483" lon="13.0008283"><ele>680.0</ele><time>2026-05-02T11:46:45.982Z</time></trkpt><trkpt lat="42.9945633" lon="13.0009233"><ele>680.0</ele><time>2026-05-02T11:46:47.981Z</time></trkpt><trkpt lat="42.9945717" lon="13.00106"><ele>680.0</ele><time>2026-05-02T11:46:50.982Z</time></trkpt><trkpt lat="42.9945917" lon="13.001195"><ele>672.0</ele><time>2026-05-02T11:46:53.982Z</time></trkpt><trkpt lat="42.9946133" lon="13.001315"><ele>672.0</ele><time>2026-05-02T11:46:56.981Z</time></trkpt></trkseg><trkseg><trkpt lat="42.9946544" lon="13.0014554"><ele>672.0</ele><time>2026-05-02T12:06:35.983Z</time></trkpt><trkpt lat="42.9946954" lon="13.0015382"><ele>672.0</ele><time>2026-05-02T12:06:36.981Z</time></trkpt><trkpt lat="42.9947758" lon="13.0016373"><ele>672.0</ele><time>2026-05-02T12:06:38.983Z</time></trkpt><trkpt lat="42.9948668" lon="13.0017304"><ele>672.0</ele><time>2026-05-02T12:06:40.983Z</time></trkpt><trkpt lat="42.9949709" lon="13.0018492"><ele>672.0</ele><time>2026-05-02T12:06:42.983Z</time></trkpt><trkpt lat="42.9950368" lon="13.0019248"><ele>679.2</ele><time>2026-05-02T12:06:43.982Z</time></trkpt><trkpt lat="42.9951093" lon="13.0020124"><ele>686.4000000000001</ele><time>2026-05-02T12:06:44.983Z</time></trkpt><trkpt lat="42.9951856" lon="13.002109"><ele>693.5999999999999</ele><time>2026-05-02T12:06:45.982Z</time></trkpt><trkpt lat="42.9952585" lon="13.0022131"><ele>700.8</ele><time>2026-05-02T12:06:46.982Z</time></trkpt><trkpt lat="42.9953333" lon="13.0023314"><ele>708.0</ele><time>2026-05-02T12:06:47.982Z</time></trkpt><trkpt lat="42.9954125" lon="13.0024715"><ele>700.75</ele><time>2026-05-02T12:06:48.982Z</time></trkpt><trkpt lat="42.9954955" lon="13.002626"><ele>693.5</ele><time>2026-05-02T12:06:49.982Z</time></trkpt><trkpt lat="42.9955793" lon="13.0027975"><ele>686.25</ele><time>2026-05-02T12:06:50.982Z</time></trkpt><trkpt lat="42.9956632" lon="13.0029793"><ele>679.0</ele><time>2026-05-02T12:06:51.982Z</time></trkpt><trkpt lat="42.9957434" lon="13.0031738"><ele>672.0</ele><time>2026-05-02T12:06:52.982Z</time></trkpt><trkpt lat="42.995822" lon="13.0033689"><ele>665.0</ele><time>2026-05-02T12:06:53.982Z</time></trkpt><trkpt lat="42.9958945" lon="13.0035579"><ele>658.0</ele><time>2026-05-02T12:06:54.983Z</time></trkpt><trkpt lat="42.9959669" lon="13.0037421"><ele>667.6666666666667</ele><time>2026-05-02T12:06:55.982Z</time></trkpt><trkpt lat="42.9960388" lon="13.0039239"><ele>677.3333333333334</ele><time>2026-05-02T12:06:56.983Z</time></trkpt><trkpt lat="42.9961159" lon="13.0041056"><ele>687.0</ele><time>2026-05-02T12:06:57.983Z</time></trkpt><trkpt lat="42.9961948" lon="13.0042868"><ele>687.0</ele><time>2026-05-02T12:06:58.982Z</time></trkpt><trkpt lat="42.9962792" lon="13.0044632"><ele>687.0</ele><time>2026-05-02T12:06:59.983Z</time></trkpt><trkpt lat="42.99637" lon="13.00464"><ele>687.0</ele><time>2026-05-02T12:07:00.981Z</time></trkpt><trkpt lat="42.996465" lon="13.0048133"><ele>687.0</ele><time>2026-05-02T12:07:01.983Z</time></trkpt><trkpt lat="42.9965617" lon="13.0049867"><ele>687.0</ele><time>2026-05-02T12:07:02.982Z</time></trkpt><trkpt lat="42.99666" lon="13.0051617"><ele>687.0</ele><time>2026-05-02T12:07:03.982Z</time></trkpt><trkpt lat="42.996755" lon="13.0053467"><ele>690.6666666666666</ele><time>2026-05-02T12:07:04.981Z</time></trkpt><trkpt lat="42.9968483" lon="13.0055317"><ele>694.3333333333333</ele><time>2026-05-02T12:07:05.983Z</time></trkpt><trkpt lat="42.9969367" lon="13.0057233"><ele>698.0</ele><time>2026-05-02T12:07:06.983Z</time></trkpt><trkpt lat="42.997025" lon="13.00592"><ele>686.0</ele><time>2026-05-02T12:07:07.982Z</time></trkpt><trkpt lat="42.9971117" lon="13.0061183"><ele>674.0</ele><time>2026-05-02T12:07:08.982Z</time></trkpt><trkpt lat="42.9972" lon="13.0063183"><ele>662.0</ele><time>2026-05-02T12:07:09.983Z</time></trkpt><trkpt lat="42.9972833" lon="13.006505"><ele>662.3333333333333</ele><time>2026-05-02T12:07:10.983Z</time></trkpt><trkpt lat="42.9973667" lon="13.006685"><ele>662.6666666666666</ele><time>2026-05-02T12:07:11.983Z</time></trkpt><trkpt lat="42.9974567" lon="13.0068517"><ele>663.0</ele><time>2026-05-02T12:07:12.982Z</time></trkpt><trkpt lat="42.99756" lon="13.0070017"><ele>663.0</ele><time>2026-05-02T12:07:13.983Z</time></trkpt><trkpt lat="42.9976733" lon="13.00714"><ele>663.0</ele><time>2026-05-02T12:07:14.982Z</time></trkpt><trkpt lat="42.9977917" lon="13.0072783"><ele>663.0</ele><time>2026-05-02T12:07:15.983Z</time></trkpt><trkpt lat="42.9979167" lon="13.0074183"><ele>655.3333333333334</ele><time>2026-05-02T12:07:16.982Z</time></trkpt><trkpt lat="42.998045" lon="13.00756"><ele>647.6666666666667</ele><time>2026-05-02T12:07:17.985Z</time></trkpt><trkpt lat="42.9981783" lon="13.0077083"><ele>640.0</ele><time>2026-05-02T12:07:18.983Z</time></trkpt><trkpt lat="42.9983133" lon="13.0078583"><ele>647.6666666666667</ele><time>2026-05-02T12:07:19.983Z</time></trkpt><trkpt lat="42.99845" lon="13.0080133"><ele>655.3333333333334</ele><time>2026-05-02T12:07:20.983Z</time></trkpt><trkpt lat="42.998585" lon="13.0081683"><ele>663.0</ele><time>2026-05-02T12:07:21.983Z</time></trkpt><trkpt lat="42.99872" lon="13.00832"><ele>652.3333333333334</ele><time>2026-05-02T12:07:22.981Z</time></trkpt><trkpt lat="42.998855" lon="13.0084633"><ele>641.6666666666667</ele><time>2026-05-02T12:07:23.982Z</time></trkpt><trkpt lat="42.998995" lon="13.0086017"><ele>631.0</ele><time>2026-05-02T12:07:24.982Z</time></trkpt><trkpt lat="42.99914" lon="13.0087367"><ele>636.3333333333334</ele><time>2026-05-02T12:07:25.982Z</time></trkpt><trkpt lat="42.9992883" lon="13.00887"><ele>641.6666666666666</ele><time>2026-05-02T12:07:26.983Z</time></trkpt><trkpt lat="42.9994383" lon="13.0090017"><ele>647.0</ele><time>2026-05-02T12:07:27.985Z</time></trkpt><trkpt lat="42.9995917" lon="13.0091367"><ele>641.0</ele><time>2026-05-02T12:07:28.982Z</time></trkpt><trkpt lat="42.9997483" lon="13.0092783"><ele>635.0</ele><time>2026-05-02T12:07:29.983Z</time></trkpt><trkpt lat="42.9999017" lon="13.0094283"><ele>629.0</ele><time>2026-05-02T12:07:30.983Z</time></trkpt><trkpt lat="43.000055" lon="13.0095817"><ele>629.0</ele><time>2026-05-02T12:07:31.982Z</time></trkpt><trkpt lat="43.0002117" lon="13.0097317"><ele>629.0</ele><time>2026-05-02T12:07:32.983Z</time></trkpt><trkpt lat="43.00036" lon="13.009875"><ele>629.0</ele><time>2026-05-02T12:07:33.981Z</time></trkpt><trkpt lat="43.0005" lon="13.0100083"><ele>627.3333333333333</ele><time>2026-05-02T12:07:34.981Z</time></trkpt><trkpt lat="43.00063" lon="13.0101517"><ele>625.6666666666666</ele><time>2026-05-02T12:07:35.983Z</time></trkpt><trkpt lat="43.0007533" lon="13.0103117"><ele>624.0</ele><time>2026-05-02T12:07:36.982Z</time></trkpt><trkpt lat="43.0008583" lon="13.0104917"><ele>624.0</ele><time>2026-05-02T12:07:37.982Z</time></trkpt><trkpt lat="43.0009317" lon="13.0106767"><ele>624.0</ele><time>2026-05-02T12:07:38.982Z</time></trkpt><trkpt lat="43.001005" lon="13.01085"><ele>624.0</ele><time>2026-05-02T12:07:39.984Z</time></trkpt><trkpt lat="43.0011033" lon="13.011"><ele>624.0</ele><time>2026-05-02T12:07:40.982Z</time></trkpt><trkpt lat="43.001235" lon="13.0111267"><ele>624.0</ele><time>2026-05-02T12:07:41.983Z</time></trkpt><trkpt lat="43.001395" lon="13.0112383"><ele>624.0</ele><time>2026-05-02T12:07:42.982Z</time></trkpt><trkpt lat="43.0015733" lon="13.0113467"><ele>624.0</ele><time>2026-05-02T12:07:43.983Z</time></trkpt><trkpt lat="43.00176" lon="13.0114583"><ele>624.0</ele><time>2026-05-02T12:07:44.983Z</time></trkpt><trkpt lat="43.0019533" lon="13.0115733"><ele>624.0</ele><time>2026-05-02T12:07:45.982Z</time></trkpt><trkpt lat="43.002145" lon="13.0116867"><ele>624.0</ele><time>2026-05-02T12:07:46.983Z</time></trkpt><trkpt lat="43.0023333" lon="13.0117983"><ele>622.3333333333334</ele><time>2026-05-02T12:07:47.982Z</time></trkpt><trkpt lat="43.0025183" lon="13.01191"><ele>620.6666666666667</ele><time>2026-05-02T12:07:48.982Z</time></trkpt><trkpt lat="43.0027033" lon="13.0120183"><ele>619.0</ele><time>2026-05-02T12:07:49.981Z</time></trkpt><trkpt lat="43.0028967" lon="13.0121283"><ele>619.0</ele><time>2026-05-02T12:07:50.983Z</time></trkpt><trkpt lat="43.0030783" lon="13.0122317"><ele>619.0</ele><time>2026-05-02T12:07:51.983Z</time></trkpt><trkpt lat="43.0032617" lon="13.0123367"><ele>619.0</ele><time>2026-05-02T12:07:52.982Z</time></trkpt><trkpt lat="43.0034367" lon="13.012445"><ele>614.6666666666667</ele><time>2026-05-02T12:07:53.982Z</time></trkpt><trkpt lat="43.003605" lon="13.01256"><ele>610.3333333333334</ele><time>2026-05-02T12:07:54.983Z</time></trkpt><trkpt lat="43.0037633" lon="13.0126817"><ele>606.0</ele><time>2026-05-02T12:07:55.983Z</time></trkpt><trkpt lat="43.0039183" lon="13.0128167"><ele>606.0</ele><time>2026-05-02T12:07:56.983Z</time></trkpt><trkpt lat="43.004075" lon="13.0129583"><ele>606.0</ele><time>2026-05-02T12:07:57.982Z</time></trkpt><trkpt lat="43.0042167" lon="13.013095"><ele>606.0</ele><time>2026-05-02T12:07:58.983Z</time></trkpt><trkpt lat="43.0043633" lon="13.0132317"><ele>605.3333333333334</ele><time>2026-05-02T12:07:59.982Z</time></trkpt><trkpt lat="43.0045017" lon="13.0133617"><ele>604.6666666666667</ele><time>2026-05-02T12:08:00.983Z</time></trkpt><trkpt lat="43.004635" lon="13.013485"><ele>604.0</ele><time>2026-05-02T12:08:01.984Z</time></trkpt><trkpt lat="43.0047633" lon="13.01361"><ele>604.0</ele><time>2026-05-02T12:08:02.984Z</time></trkpt><trkpt lat="43.0048867" lon="13.0137483"><ele>604.0</ele><time>2026-05-02T12:08:03.983Z</time></trkpt><trkpt lat="43.0050017" lon="13.0139033"><ele>604.0</ele><time>2026-05-02T12:08:04.982Z</time></trkpt><trkpt lat="43.0051117" lon="13.0140733"><ele>603.6666666666667</ele><time>2026-05-02T12:08:05.983Z</time></trkpt><trkpt lat="43.0052217" lon="13.01425"><ele>603.3333333333334</ele><time>2026-05-02T12:08:06.983Z</time></trkpt><trkpt lat="43.0053367" lon="13.01443"><ele>603.0</ele><time>2026-05-02T12:08:07.983Z</time></trkpt><trkpt lat="43.0054533" lon="13.0146117"><ele>603.0</ele><time>2026-05-02T12:08:08.983Z</time></trkpt><trkpt lat="43.0055733" lon="13.0147967"><ele>603.0</ele><time>2026-05-02T12:08:09.982Z</time></trkpt><trkpt lat="43.0057017" lon="13.0149867"><ele>603.0</ele><time>2026-05-02T12:08:10.983Z</time></trkpt><trkpt lat="43.00583" lon="13.0151833"><ele>605.6666666666666</ele><time>2026-05-02T12:08:11.983Z</time></trkpt><trkpt lat="43.00596" lon="13.01539"><ele>608.3333333333333</ele><time>2026-05-02T12:08:12.983Z</time></trkpt><trkpt lat="43.0060867" lon="13.0156"><ele>611.0</ele><time>2026-05-02T12:08:13.983Z</time></trkpt><trkpt lat="43.0062117" lon="13.0158117"><ele>605.3333333333333</ele><time>2026-05-02T12:08:14.984Z</time></trkpt><trkpt lat="43.00633" lon="13.0160117"><ele>599.6666666666666</ele><time>2026-05-02T12:08:15.982Z</time></trkpt><trkpt lat="43.0064417" lon="13.016205"><ele>594.0</ele><time>2026-05-02T12:08:16.983Z</time></trkpt><trkpt lat="43.0065467" lon="13.0163933"><ele>594.0</ele><time>2026-05-02T12:08:17.982Z</time></trkpt><trkpt lat="43.0066483" lon="13.016575"><ele>594.0</ele><time>2026-05-02T12:08:18.983Z</time></trkpt><trkpt lat="43.0067467" lon="13.01676"><ele>594.0</ele><time>2026-05-02T12:08:19.983Z</time></trkpt><trkpt lat="43.0068467" lon="13.016945"><ele>595.3333333333334</ele><time>2026-05-02T12:08:20.983Z</time></trkpt><trkpt lat="43.0069483" lon="13.0171317"><ele>596.6666666666667</ele><time>2026-05-02T12:08:21.982Z</time></trkpt><trkpt lat="43.007055" lon="13.01732"><ele>598.0</ele><time>2026-05-02T12:08:22.982Z</time></trkpt><trkpt lat="43.007165" lon="13.0175067"><ele>593.0</ele><time>2026-05-02T12:08:23.982Z</time></trkpt><trkpt lat="43.0072717" lon="13.0176917"><ele>588.0</ele><time>2026-05-02T12:08:24.983Z</time></trkpt><trkpt lat="43.0073767" lon="13.0178783"><ele>583.0</ele><time>2026-05-02T12:08:25.982Z</time></trkpt><trkpt lat="43.00748" lon="13.01807"><ele>584.0</ele><time>2026-05-02T12:08:26.983Z</time></trkpt><trkpt lat="43.00758" lon="13.018265"><ele>585.0</ele><time>2026-05-02T12:08:27.982Z</time></trkpt><trkpt lat="43.00768" lon="13.01846"><ele>586.0</ele><time>2026-05-02T12:08:28.982Z</time></trkpt><trkpt lat="43.0077767" lon="13.018655"><ele>586.0</ele><time>2026-05-02T12:08:29.983Z</time></trkpt><trkpt lat="43.0078733" lon="13.0188533"><ele>586.0</ele><time>2026-05-02T12:08:30.983Z</time></trkpt><trkpt lat="43.0079683" lon="13.0190533"><ele>586.0</ele><time>2026-05-02T12:08:31.983Z</time></trkpt><trkpt lat="43.0080583" lon="13.019255"><ele>583.0</ele><time>2026-05-02T12:08:32.982Z</time></trkpt><trkpt lat="43.0081467" lon="13.019455"><ele>580.0</ele><time>2026-05-02T12:08:33.982Z</time></trkpt><trkpt lat="43.00824" lon="13.0196533"><ele>577.0</ele><time>2026-05-02T12:08:34.983Z</time></trkpt><trkpt lat="43.00834" lon="13.0198483"><ele>579.0</ele><time>2026-05-02T12:08:35.983Z</time></trkpt><trkpt lat="43.0084483" lon="13.0200433"><ele>581.0</ele><time>2026-05-02T12:08:36.983Z</time></trkpt><trkpt lat="43.0085633" lon="13.0202417"><ele>583.0</ele><time>2026-05-02T12:08:37.984Z</time></trkpt><trkpt lat="43.0086783" lon="13.020445"><ele>583.0</ele><time>2026-05-02T12:08:38.986Z</time></trkpt><trkpt lat="43.0087917" lon="13.02065"><ele>583.0</ele><time>2026-05-02T12:08:39.982Z</time></trkpt><trkpt lat="43.0088983" lon="13.0208533"><ele>583.0</ele><time>2026-05-02T12:08:40.983Z</time></trkpt><trkpt lat="43.0089983" lon="13.021055"><ele>581.6666666666667</ele><time>2026-05-02T12:08:41.986Z</time></trkpt><trkpt lat="43.00909" lon="13.0212483"><ele>580.3333333333334</ele><time>2026-05-02T12:08:42.982Z</time></trkpt><trkpt lat="43.0091783" lon="13.0214333"><ele>579.0</ele><time>2026-05-02T12:08:43.984Z</time></trkpt><trkpt lat="43.009275" lon="13.0216067"><ele>578.0</ele><time>2026-05-02T12:08:44.983Z</time></trkpt><trkpt lat="43.0093983" lon="13.0217567"><ele>577.0</ele><time>2026-05-02T12:08:45.982Z</time></trkpt><trkpt lat="43.00955" lon="13.0218833"><ele>576.0</ele><time>2026-05-02T12:08:46.983Z</time></trkpt><trkpt lat="43.009715" lon="13.0220017"><ele>576.0</ele><time>2026-05-02T12:08:47.983Z</time></trkpt><trkpt lat="43.009885" lon="13.022135"><ele>576.0</ele><time>2026-05-02T12:08:48.983Z</time></trkpt><trkpt lat="43.0100517" lon="13.0222933"><ele>576.0</ele><time>2026-05-02T12:08:49.982Z</time></trkpt><trkpt lat="43.0102" lon="13.0224983"><ele>576.3333333333334</ele><time>2026-05-02T12:08:50.982Z</time></trkpt><trkpt lat="43.0103283" lon="13.0227333"><ele>576.6666666666667</ele><time>2026-05-02T12:08:51.983Z</time></trkpt><trkpt lat="43.0104533" lon="13.02298"><ele>577.0</ele><time>2026-05-02T12:08:52.982Z</time></trkpt><trkpt lat="43.01058" lon="13.0232267"><ele>573.0</ele><time>2026-05-02T12:08:53.982Z</time></trkpt><trkpt lat="43.0107183" lon="13.02347"><ele>569.0</ele><time>2026-05-02T12:08:54.983Z</time></trkpt><trkpt lat="43.01086" lon="13.0237133"><ele>568.5</ele><time>2026-05-02T12:08:55.981Z</time></trkpt><trkpt lat="43.0110033" lon="13.0239533"><ele>568.0</ele><time>2026-05-02T12:08:56.982Z</time></trkpt><trkpt lat="43.0111467" lon="13.024195"><ele>568.0</ele><time>2026-05-02T12:08:57.981Z</time></trkpt><trkpt lat="43.011285" lon="13.0244333"><ele>568.0</ele><time>2026-05-02T12:08:58.982Z</time></trkpt><trkpt lat="43.0114183" lon="13.0246617"><ele>568.0</ele><time>2026-05-02T12:08:59.981Z</time></trkpt><trkpt lat="43.011545" lon="13.0248733"><ele>569.3333333333334</ele><time>2026-05-02T12:09:00.981Z</time></trkpt><trkpt lat="43.0116733" lon="13.0250683"><ele>570.6666666666666</ele><time>2026-05-02T12:09:01.981Z</time></trkpt><trkpt lat="43.0118133" lon="13.0252433"><ele>572.0</ele><time>2026-05-02T12:09:02.981Z</time></trkpt><trkpt lat="43.0119667" lon="13.0253967"><ele>572.0</ele><time>2026-05-02T12:09:03.981Z</time></trkpt><trkpt lat="43.0121333" lon="13.0255317"><ele>572.0</ele><time>2026-05-02T12:09:04.983Z</time></trkpt><trkpt lat="43.0123117" lon="13.02566"><ele>572.0</ele><time>2026-05-02T12:09:05.981Z</time></trkpt><trkpt lat="43.0124917" lon="13.0258017"><ele>569.6666666666666</ele><time>2026-05-02T12:09:06.981Z</time></trkpt><trkpt lat="43.0126683" lon="13.0259733"><ele>567.3333333333334</ele><time>2026-05-02T12:09:07.983Z</time></trkpt><trkpt lat="43.0128433" lon="13.0261583"><ele>565.0</ele><time>2026-05-02T12:09:08.982Z</time></trkpt><trkpt lat="43.0130333" lon="13.02633"><ele>565.0</ele><time>2026-05-02T12:09:09.982Z</time></trkpt><trkpt lat="43.0132483" lon="13.0264633"><ele>565.0</ele><time>2026-05-02T12:09:10.982Z</time></trkpt><trkpt lat="43.01348" lon="13.02655"><ele>560.5</ele><time>2026-05-02T12:09:11.983Z</time></trkpt><trkpt lat="43.0137183" lon="13.0266117"><ele>556.0</ele><time>2026-05-02T12:09:12.981Z</time></trkpt><trkpt lat="43.0139483" lon="13.0266633"><ele>559.6666666666667</ele><time>2026-05-02T12:09:13.982Z</time></trkpt><trkpt lat="43.0141633" lon="13.0267283"><ele>563.3333333333334</ele><time>2026-05-02T12:09:14.983Z</time></trkpt><trkpt lat="43.014365" lon="13.0268117"><ele>567.0</ele><time>2026-05-02T12:09:15.983Z</time></trkpt><trkpt lat="43.014545" lon="13.026945"><ele>567.0</ele><time>2026-05-02T12:09:16.982Z</time></trkpt><trkpt lat="43.014695" lon="13.0271267"><ele>567.0</ele><time>2026-05-02T12:09:17.982Z</time></trkpt><trkpt lat="43.0148267" lon="13.027355"><ele>567.0</ele><time>2026-05-02T12:09:18.981Z</time></trkpt><trkpt lat="43.0149583" lon="13.0275933"><ele>564.6666666666666</ele><time>2026-05-02T12:09:19.983Z</time></trkpt><trkpt lat="43.01512" lon="13.0278017"><ele>562.3333333333333</ele><time>2026-05-02T12:09:20.982Z</time></trkpt><trkpt lat="43.0153067" lon="13.0279683"><ele>560.0</ele><time>2026-05-02T12:09:21.982Z</time></trkpt><trkpt lat="43.0155083" lon="13.0281083"><ele>560.0</ele><time>2026-05-02T12:09:22.983Z</time></trkpt><trkpt lat="43.015715" lon="13.028235"><ele>560.0</ele><time>2026-05-02T12:09:23.981Z</time></trkpt><trkpt lat="43.0159233" lon="13.0283783"><ele>556.0</ele><time>2026-05-02T12:09:24.982Z</time></trkpt><trkpt lat="43.0161333" lon="13.02852"><ele>552.0</ele><time>2026-05-02T12:09:25.982Z</time></trkpt><trkpt lat="43.0163333" lon="13.0286433"><ele>552.0</ele><time>2026-05-02T12:09:26.981Z</time></trkpt><trkpt lat="43.0165167" lon="13.0287517"><ele>552.0</ele><time>2026-05-02T12:09:27.981Z</time></trkpt><trkpt lat="43.0166867" lon="13.02887"><ele>552.0</ele><time>2026-05-02T12:09:28.981Z</time></trkpt><trkpt lat="43.0168433" lon="13.029015"><ele>550.0</ele><time>2026-05-02T12:09:29.981Z</time></trkpt><trkpt lat="43.0169933" lon="13.0292033"><ele>548.0</ele><time>2026-05-02T12:09:30.982Z</time></trkpt><trkpt lat="43.0171467" lon="13.0294083"><ele>546.0</ele><time>2026-05-02T12:09:31.983Z</time></trkpt><trkpt lat="43.01731" lon="13.0296233"><ele>546.0</ele><time>2026-05-02T12:09:32.981Z</time></trkpt><trkpt lat="43.0174733" lon="13.02985"><ele>546.0</ele><time>2026-05-02T12:09:33.981Z</time></trkpt><trkpt lat="43.01764" lon="13.0300817"><ele>543.5</ele><time>2026-05-02T12:09:34.981Z</time></trkpt><trkpt lat="43.01781" lon="13.0303067"><ele>541.0</ele><time>2026-05-02T12:09:35.981Z</time></trkpt><trkpt lat="43.017975" lon="13.0305333"><ele>541.0</ele><time>2026-05-02T12:09:36.981Z</time></trkpt><trkpt lat="43.0181417" lon="13.0307567"><ele>541.0</ele><time>2026-05-02T12:09:37.982Z</time></trkpt><trkpt lat="43.018305" lon="13.030975"><ele>543.0</ele><time>2026-05-02T12:09:38.982Z</time></trkpt><trkpt lat="43.0184717" lon="13.0311767"><ele>545.0</ele><time>2026-05-02T12:09:39.981Z</time></trkpt><trkpt lat="43.0186367" lon="13.0313717"><ele>547.0</ele><time>2026-05-02T12:09:40.981Z</time></trkpt><trkpt lat="43.0188017" lon="13.0315633"><ele>548.6666666666667</ele><time>2026-05-02T12:09:41.981Z</time></trkpt><trkpt lat="43.01896" lon="13.0317533"><ele>550.3333333333334</ele><time>2026-05-02T12:09:42.982Z</time></trkpt><trkpt lat="43.0191117" lon="13.03194"><ele>552.0</ele><time>2026-05-02T12:09:43.981Z</time></trkpt><trkpt lat="43.0192517" lon="13.0321283"><ele>552.0</ele><time>2026-05-02T12:09:44.981Z</time></trkpt><trkpt lat="43.0193917" lon="13.0323217"><ele>552.0</ele><time>2026-05-02T12:09:45.981Z</time></trkpt><trkpt lat="43.0195183" lon="13.0325233"><ele>552.0</ele><time>2026-05-02T12:09:46.981Z</time></trkpt><trkpt lat="43.019635" lon="13.0327267"><ele>550.6666666666666</ele><time>2026-05-02T12:09:47.981Z</time></trkpt><trkpt lat="43.019755" lon="13.0329117"><ele>549.3333333333333</ele><time>2026-05-02T12:09:48.981Z</time></trkpt><trkpt lat="43.01989" lon="13.0330617"><ele>548.0</ele><time>2026-05-02T12:09:49.982Z</time></trkpt><trkpt lat="43.02005" lon="13.03319"><ele>548.0</ele><time>2026-05-02T12:09:50.983Z</time></trkpt><trkpt lat="43.0202233" lon="13.0333017"><ele>548.0</ele><time>2026-05-02T12:09:51.982Z</time></trkpt><trkpt lat="43.0204017" lon="13.0333983"><ele>548.0</ele><time>2026-05-02T12:09:52.981Z</time></trkpt><trkpt lat="43.0205717" lon="13.0334817"><ele>542.0</ele><time>2026-05-02T12:09:53.983Z</time></trkpt><trkpt lat="43.0207517" lon="13.0335467"><ele>536.0</ele><time>2026-05-02T12:09:54.983Z</time></trkpt><trkpt lat="43.0209333" lon="13.0335917"><ele>530.0</ele><time>2026-05-02T12:09:55.982Z</time></trkpt><trkpt lat="43.021105" lon="13.033625"><ele>530.0</ele><time>2026-05-02T12:09:56.982Z</time></trkpt><trkpt lat="43.021265" lon="13.0336467"><ele>530.0</ele><time>2026-05-02T12:09:57.982Z</time></trkpt><trkpt lat="43.0214117" lon="13.0336617"><ele>530.0</ele><time>2026-05-02T12:09:58.981Z</time></trkpt><trkpt lat="43.0215383" lon="13.0336667"><ele>530.0</ele><time>2026-05-02T12:09:59.982Z</time></trkpt><trkpt lat="43.02165" lon="13.033675"><ele>531.3333333333333</ele><time>2026-05-02T12:10:00.982Z</time></trkpt><trkpt lat="43.0217383" lon="13.0337"><ele>532.6666666666666</ele><time>2026-05-02T12:10:01.981Z</time></trkpt><trkpt lat="43.021805" lon="13.0337367"><ele>534.0</ele><time>2026-05-02T12:10:02.983Z</time></trkpt><trkpt lat="43.0219017" lon="13.033775"><ele>535.3333333333334</ele><time>2026-05-02T12:10:04.981Z</time></trkpt><trkpt lat="43.0219633" lon="13.033755"><ele>536.6666666666667</ele><time>2026-05-02T12:10:05.981Z</time></trkpt><trkpt lat="43.02203" lon="13.0337067"><ele>538.0</ele><time>2026-05-02T12:10:06.985Z</time></trkpt><trkpt lat="43.0221033" lon="13.03364"><ele>538.0</ele><time>2026-05-02T12:10:07.982Z</time></trkpt><trkpt lat="43.0221933" lon="13.0335667"><ele>538.0</ele><time>2026-05-02T12:10:08.982Z</time></trkpt><trkpt lat="43.0222917" lon="13.033495"><ele>538.0</ele><time>2026-05-02T12:10:09.983Z</time></trkpt><trkpt lat="43.02241" lon="13.0334333"><ele>538.0</ele><time>2026-05-02T12:10:10.984Z</time></trkpt><trkpt lat="43.0225417" lon="13.0333783"><ele>537.0</ele><time>2026-05-02T12:10:11.981Z</time></trkpt><trkpt lat="43.02269" lon="13.0333417"><ele>536.0</ele><time>2026-05-02T12:10:12.982Z</time></trkpt><trkpt lat="43.02285" lon="13.0333317"><ele>535.0</ele><time>2026-05-02T12:10:13.982Z</time></trkpt><trkpt lat="43.0230183" lon="13.0333417"><ele>535.0</ele><time>2026-05-02T12:10:14.982Z</time></trkpt><trkpt lat="43.02319" lon="13.033365"><ele>535.0</ele><time>2026-05-02T12:10:15.982Z</time></trkpt><trkpt lat="43.0233683" lon="13.0334083"><ele>535.0</ele><time>2026-05-02T12:10:16.982Z</time></trkpt><trkpt lat="43.023545" lon="13.0334783"><ele>534.0</ele><time>2026-05-02T12:10:17.983Z</time></trkpt><trkpt lat="43.023715" lon="13.033575"><ele>533.0</ele><time>2026-05-02T12:10:18.983Z</time></trkpt><trkpt lat="43.023885" lon="13.033685"><ele>532.0</ele><time>2026-05-02T12:10:19.983Z</time></trkpt><trkpt lat="43.0240683" lon="13.0337783"><ele>532.6666666666667</ele><time>2026-05-02T12:10:20.983Z</time></trkpt><trkpt lat="43.0242733" lon="13.03384"><ele>533.3333333333334</ele><time>2026-05-02T12:10:21.982Z</time></trkpt><trkpt lat="43.02449" lon="13.0338817"><ele>534.0</ele><time>2026-05-02T12:10:22.982Z</time></trkpt><trkpt lat="43.0247117" lon="13.0339117"><ele>534.0</ele><time>2026-05-02T12:10:23.983Z</time></trkpt><trkpt lat="43.02494" lon="13.03394"><ele>534.0</ele><time>2026-05-02T12:10:24.982Z</time></trkpt><trkpt lat="43.0251733" lon="13.03397"><ele>528.0</ele><time>2026-05-02T12:10:25.982Z</time></trkpt><trkpt lat="43.0254033" lon="13.0340017"><ele>522.0</ele><time>2026-05-02T12:10:26.983Z</time></trkpt><trkpt lat="43.025625" lon="13.034055"><ele>526.0</ele><time>2026-05-02T12:10:27.981Z</time></trkpt><trkpt lat="43.0258433" lon="13.0341367"><ele>530.0</ele><time>2026-05-02T12:10:28.981Z</time></trkpt><trkpt lat="43.0260583" lon="13.034225"><ele>522.0</ele><time>2026-05-02T12:10:29.981Z</time></trkpt><trkpt lat="43.0262883" lon="13.03427"><ele>514.0</ele><time>2026-05-02T12:10:30.982Z</time></trkpt><trkpt lat="43.0265217" lon="13.0342667"><ele>518.0</ele><time>2026-05-02T12:10:31.982Z</time></trkpt><trkpt lat="43.0267617" lon="13.0342483"><ele>522.0</ele><time>2026-05-02T12:10:32.983Z</time></trkpt><trkpt lat="43.027005" lon="13.0342417"><ele>522.0</ele><time>2026-05-02T12:10:33.983Z</time></trkpt><trkpt lat="43.02725" lon="13.0342583"><ele>522.0</ele><time>2026-05-02T12:10:34.982Z</time></trkpt><trkpt lat="43.0274983" lon="13.0342917"><ele>519.5</ele><time>2026-05-02T12:10:35.981Z</time></trkpt><trkpt lat="43.0277467" lon="13.0343283"><ele>517.0</ele><time>2026-05-02T12:10:36.982Z</time></trkpt><trkpt lat="43.0279933" lon="13.0343667"><ele>517.0</ele><time>2026-05-02T12:10:37.982Z</time></trkpt><trkpt lat="43.02823" lon="13.0344017"><ele>517.0</ele><time>2026-05-02T12:10:38.982Z</time></trkpt><trkpt lat="43.0284567" lon="13.034435"><ele>517.0</ele><time>2026-05-02T12:10:39.983Z</time></trkpt><trkpt lat="43.0286783" lon="13.0344683"><ele>517.0</ele><time>2026-05-02T12:10:40.983Z</time></trkpt><trkpt lat="43.0288983" lon="13.0344967"><ele>517.0</ele><time>2026-05-02T12:10:41.983Z</time></trkpt><trkpt lat="43.0291167" lon="13.0345167"><ele>517.3333333333334</ele><time>2026-05-02T12:10:42.983Z</time></trkpt><trkpt lat="43.0293317" lon="13.03454"><ele>517.6666666666666</ele><time>2026-05-02T12:10:43.984Z</time></trkpt><trkpt lat="43.0295383" lon="13.0345667"><ele>518.0</ele><time>2026-05-02T12:10:44.982Z</time></trkpt><trkpt lat="43.0297383" lon="13.0346133"><ele>518.0</ele><time>2026-05-02T12:10:45.983Z</time></trkpt><trkpt lat="43.029935" lon="13.0346717"><ele>518.0</ele><time>2026-05-02T12:10:46.983Z</time></trkpt><trkpt lat="43.0301317" lon="13.034745"><ele>518.0</ele><time>2026-05-02T12:10:47.983Z</time></trkpt><trkpt lat="43.030325" lon="13.0348383"><ele>519.0</ele><time>2026-05-02T12:10:48.985Z</time></trkpt><trkpt lat="43.0305117" lon="13.0349517"><ele>520.0</ele><time>2026-05-02T12:10:49.983Z</time></trkpt><trkpt lat="43.030695" lon="13.035085"><ele>521.0</ele><time>2026-05-02T12:10:50.984Z</time></trkpt><trkpt lat="43.030865" lon="13.0352383"><ele>517.3333333333333</ele><time>2026-05-02T12:10:51.983Z</time></trkpt><trkpt lat="43.0310217" lon="13.03541"><ele>513.6666666666666</ele><time>2026-05-02T12:10:52.982Z</time></trkpt><trkpt lat="43.0311617" lon="13.0355933"><ele>510.0</ele><time>2026-05-02T12:10:53.983Z</time></trkpt><trkpt lat="43.0312833" lon="13.035785"><ele>507.33333333333337</ele><time>2026-05-02T12:10:54.982Z</time></trkpt><trkpt lat="43.031395" lon="13.03598"><ele>504.6666666666667</ele><time>2026-05-02T12:10:55.982Z</time></trkpt><trkpt lat="43.031505" lon="13.03617"><ele>502.0</ele><time>2026-05-02T12:10:56.983Z</time></trkpt><trkpt lat="43.03163" lon="13.0363433"><ele>501.6666666666667</ele><time>2026-05-02T12:10:57.983Z</time></trkpt><trkpt lat="43.0317817" lon="13.0364833"><ele>501.33333333333337</ele><time>2026-05-02T12:10:58.981Z</time></trkpt><trkpt lat="43.031955" lon="13.03659"><ele>501.0</ele><time>2026-05-02T12:10:59.983Z</time></trkpt><trkpt lat="43.032145" lon="13.0366633"><ele>501.0</ele><time>2026-05-02T12:11:00.982Z</time></trkpt><trkpt lat="43.0323567" lon="13.03672"><ele>501.0</ele><time>2026-05-02T12:11:01.983Z</time></trkpt><trkpt lat="43.03258" lon="13.0367733"><ele>501.0</ele><time>2026-05-02T12:11:02.983Z</time></trkpt><trkpt lat="43.0328117" lon="13.0368283"><ele>500.5</ele><time>2026-05-02T12:11:03.983Z</time></trkpt><trkpt lat="43.0330433" lon="13.0368883"><ele>500.0</ele><time>2026-05-02T12:11:04.983Z</time></trkpt><trkpt lat="43.0332717" lon="13.03695"><ele>501.66666666666663</ele><time>2026-05-02T12:11:05.982Z</time></trkpt><trkpt lat="43.0334883" lon="13.0370083"><ele>503.33333333333337</ele><time>2026-05-02T12:11:06.982Z</time></trkpt><trkpt lat="43.033695" lon="13.0370633"><ele>505.0</ele><time>2026-05-02T12:11:07.983Z</time></trkpt><trkpt lat="43.033895" lon="13.037115"><ele>505.0</ele><time>2026-05-02T12:11:08.983Z</time></trkpt><trkpt lat="43.034085" lon="13.0371733"><ele>505.0</ele><time>2026-05-02T12:11:09.983Z</time></trkpt><trkpt lat="43.0342667" lon="13.03726"><ele>505.0</ele><time>2026-05-02T12:11:10.982Z</time></trkpt><trkpt lat="43.0344383" lon="13.03739"><ele>503.0</ele><time>2026-05-02T12:11:11.982Z</time></trkpt><trkpt lat="43.0345917" lon="13.0375667"><ele>501.0</ele><time>2026-05-02T12:11:12.981Z</time></trkpt><trkpt lat="43.03474" lon="13.0377683"><ele>499.0</ele><time>2026-05-02T12:11:13.983Z</time></trkpt><trkpt lat="43.0348867" lon="13.0379883"><ele>500.0</ele><time>2026-05-02T12:11:14.983Z</time></trkpt><trkpt lat="43.0350317" lon="13.0382167"><ele>501.0</ele><time>2026-05-02T12:11:15.981Z</time></trkpt><trkpt lat="43.0351717" lon="13.03844"><ele>502.0</ele><time>2026-05-02T12:11:16.982Z</time></trkpt><trkpt lat="43.0353017" lon="13.0386567"><ele>502.0</ele><time>2026-05-02T12:11:17.982Z</time></trkpt><trkpt lat="43.0354267" lon="13.0388733"><ele>502.0</ele><time>2026-05-02T12:11:18.982Z</time></trkpt><trkpt lat="43.0355433" lon="13.039095"><ele>502.0</ele><time>2026-05-02T12:11:19.983Z</time></trkpt><trkpt lat="43.035655" lon="13.0393217"><ele>501.0</ele><time>2026-05-02T12:11:20.984Z</time></trkpt><trkpt lat="43.035765" lon="13.0395467"><ele>500.0</ele><time>2026-05-02T12:11:21.982Z</time></trkpt><trkpt lat="43.03587" lon="13.03977"><ele>499.0</ele><time>2026-05-02T12:11:22.982Z</time></trkpt><trkpt lat="43.035975" lon="13.0399867"><ele>498.0</ele><time>2026-05-02T12:11:23.983Z</time></trkpt><trkpt lat="43.03608" lon="13.040205"><ele>497.0</ele><time>2026-05-02T12:11:24.983Z</time></trkpt><trkpt lat="43.036185" lon="13.0404217"><ele>496.0</ele><time>2026-05-02T12:11:25.983Z</time></trkpt><trkpt lat="43.0362867" lon="13.0406333"><ele>498.33333333333337</ele><time>2026-05-02T12:11:26.983Z</time></trkpt><trkpt lat="43.0363867" lon="13.040835"><ele>500.66666666666663</ele><time>2026-05-02T12:11:27.983Z</time></trkpt><trkpt lat="43.0364817" lon="13.041035"><ele>503.0</ele><time>2026-05-02T12:11:28.983Z</time></trkpt><trkpt lat="43.0365733" lon="13.04123"><ele>501.0</ele><time>2026-05-02T12:11:29.982Z</time></trkpt><trkpt lat="43.03666" lon="13.0414233"><ele>499.0</ele><time>2026-05-02T12:11:30.982Z</time></trkpt><trkpt lat="43.0367433" lon="13.0416217"><ele>497.0</ele><time>2026-05-02T12:11:31.982Z</time></trkpt><trkpt lat="43.0368217" lon="13.0418217"><ele>495.0</ele><time>2026-05-02T12:11:32.983Z</time></trkpt><trkpt lat="43.0368967" lon="13.0420217"><ele>493.0</ele><time>2026-05-02T12:11:33.983Z</time></trkpt><trkpt lat="43.0369667" lon="13.0422233"><ele>491.0</ele><time>2026-05-02T12:11:34.982Z</time></trkpt><trkpt lat="43.0370317" lon="13.0424267"><ele>489.3333333333333</ele><time>2026-05-02T12:11:35.983Z</time></trkpt><trkpt lat="43.0370967" lon="13.0426333"><ele>487.66666666666663</ele><time>2026-05-02T12:11:36.982Z</time></trkpt><trkpt lat="43.0371567" lon="13.042845"><ele>486.0</ele><time>2026-05-02T12:11:37.983Z</time></trkpt><trkpt lat="43.0372183" lon="13.043055"><ele>486.0</ele><time>2026-05-02T12:11:38.983Z</time></trkpt><trkpt lat="43.0372783" lon="13.043255"><ele>486.0</ele><time>2026-05-02T12:11:39.983Z</time></trkpt><trkpt lat="43.037335" lon="13.0434433"><ele>486.0</ele><time>2026-05-02T12:11:40.983Z</time></trkpt><trkpt lat="43.03739" lon="13.0436233"><ele>486.0</ele><time>2026-05-02T12:11:41.982Z</time></trkpt><trkpt lat="43.037445" lon="13.043805"><ele>485.5</ele><time>2026-05-02T12:11:42.982Z</time></trkpt><trkpt lat="43.0374967" lon="13.0439917"><ele>485.0</ele><time>2026-05-02T12:11:43.983Z</time></trkpt><trkpt lat="43.0375517" lon="13.04418"><ele>484.5</ele><time>2026-05-02T12:11:44.982Z</time></trkpt><trkpt lat="43.0376083" lon="13.0443667"><ele>484.0</ele><time>2026-05-02T12:11:45.983Z</time></trkpt><trkpt lat="43.0376717" lon="13.0445517"><ele>483.75</ele><time>2026-05-02T12:11:46.982Z</time></trkpt><trkpt lat="43.0377383" lon="13.0447317"><ele>483.5</ele><time>2026-05-02T12:11:47.982Z</time></trkpt><trkpt lat="43.0378117" lon="13.0449133"><ele>483.25</ele><time>2026-05-02T12:11:48.983Z</time></trkpt><trkpt lat="43.0378917" lon="13.0450867"><ele>483.0</ele><time>2026-05-02T12:11:49.982Z</time></trkpt><trkpt lat="43.037975" lon="13.045255"><ele>482.5</ele><time>2026-05-02T12:11:50.982Z</time></trkpt><trkpt lat="43.0380617" lon="13.0454167"><ele>482.0</ele><time>2026-05-02T12:11:51.982Z</time></trkpt><trkpt lat="43.0381567" lon="13.045575"><ele>481.5</ele><time>2026-05-02T12:11:52.982Z</time></trkpt><trkpt lat="43.0382567" lon="13.0457317"><ele>481.0</ele><time>2026-05-02T12:11:53.983Z</time></trkpt><trkpt lat="43.0383633" lon="13.0458817"><ele>480.33333333333337</ele><time>2026-05-02T12:11:54.982Z</time></trkpt><trkpt lat="43.0384767" lon="13.0460233"><ele>479.66666666666663</ele><time>2026-05-02T12:11:55.983Z</time></trkpt><trkpt lat="43.0385983" lon="13.04616"><ele>479.0</ele><time>2026-05-02T12:11:56.983Z</time></trkpt><trkpt lat="43.0387217" lon="13.0462933"><ele>479.0</ele><time>2026-05-02T12:11:57.982Z</time></trkpt><trkpt lat="43.0388517" lon="13.0464217"><ele>479.0</ele><time>2026-05-02T12:11:58.983Z</time></trkpt><trkpt lat="43.038985" lon="13.046545"><ele>479.0</ele><time>2026-05-02T12:11:59.982Z</time></trkpt><trkpt lat="43.0391167" lon="13.0466583"><ele>479.5</ele><time>2026-05-02T12:12:00.983Z</time></trkpt><trkpt lat="43.0392467" lon="13.0467667"><ele>480.0</ele><time>2026-05-02T12:12:01.982Z</time></trkpt><trkpt lat="43.0393717" lon="13.0468717"><ele>480.5</ele><time>2026-05-02T12:12:02.984Z</time></trkpt><trkpt lat="43.0394933" lon="13.0469733"><ele>481.0</ele><time>2026-05-02T12:12:03.983Z</time></trkpt><trkpt lat="43.039615" lon="13.0470733"><ele>481.0</ele><time>2026-05-02T12:12:04.983Z</time></trkpt><trkpt lat="43.0397383" lon="13.0471717"><ele>481.0</ele><time>2026-05-02T12:12:05.983Z</time></trkpt><trkpt lat="43.03986" lon="13.0472683"><ele>481.0</ele><time>2026-05-02T12:12:06.983Z</time></trkpt><trkpt lat="43.0399817" lon="13.0473667"><ele>481.0</ele><time>2026-05-02T12:12:07.985Z</time></trkpt><trkpt lat="43.040105" lon="13.0474667"><ele>480.25</ele><time>2026-05-02T12:12:08.984Z</time></trkpt><trkpt lat="43.0402333" lon="13.0475667"><ele>479.5</ele><time>2026-05-02T12:12:09.982Z</time></trkpt><trkpt lat="43.0403583" lon="13.0476717"><ele>478.75</ele><time>2026-05-02T12:12:10.983Z</time></trkpt><trkpt lat="43.040485" lon="13.0477733"><ele>478.0</ele><time>2026-05-02T12:12:11.982Z</time></trkpt><trkpt lat="43.040615" lon="13.0478783"><ele>478.0</ele><time>2026-05-02T12:12:12.982Z</time></trkpt><trkpt lat="43.0407417" lon="13.0479883"><ele>478.0</ele><time>2026-05-02T12:12:13.983Z</time></trkpt><trkpt lat="43.0408683" lon="13.0480983"><ele>478.0</ele><time>2026-05-02T12:12:14.983Z</time></trkpt><trkpt lat="43.0409883" lon="13.0482067"><ele>478.0</ele><time>2026-05-02T12:12:15.982Z</time></trkpt><trkpt lat="43.041105" lon="13.0483167"><ele>477.5</ele><time>2026-05-02T12:12:16.982Z</time></trkpt><trkpt lat="43.0412233" lon="13.0484283"><ele>477.0</ele><time>2026-05-02T12:12:17.983Z</time></trkpt><trkpt lat="43.041345" lon="13.0485417"><ele>476.5</ele><time>2026-05-02T12:12:18.981Z</time></trkpt><trkpt lat="43.041465" lon="13.0486567"><ele>476.0</ele><time>2026-05-02T12:12:19.981Z</time></trkpt><trkpt lat="43.0415817" lon="13.04877"><ele>475.75</ele><time>2026-05-02T12:12:20.983Z</time></trkpt><trkpt lat="43.0416983" lon="13.0488867"><ele>475.5</ele><time>2026-05-02T12:12:21.982Z</time></trkpt><trkpt lat="43.0418083" lon="13.048995"><ele>475.25</ele><time>2026-05-02T12:12:22.982Z</time></trkpt><trkpt lat="43.04191" lon="13.0491033"><ele>475.0</ele><time>2026-05-02T12:12:23.981Z</time></trkpt><trkpt lat="43.0420117" lon="13.0492083"><ele>474.25</ele><time>2026-05-02T12:12:24.981Z</time></trkpt><trkpt lat="43.0421133" lon="13.0493133"><ele>473.5</ele><time>2026-05-02T12:12:25.982Z</time></trkpt><trkpt lat="43.0422217" lon="13.0494133"><ele>472.75</ele><time>2026-05-02T12:12:26.981Z</time></trkpt><trkpt lat="43.042335" lon="13.0495217"><ele>472.0</ele><time>2026-05-02T12:12:27.981Z</time></trkpt><trkpt lat="43.0424517" lon="13.0496317"><ele>472.0</ele><time>2026-05-02T12:12:28.982Z</time></trkpt><trkpt lat="43.0425733" lon="13.0497433"><ele>472.0</ele><time>2026-05-02T12:12:29.982Z</time></trkpt><trkpt lat="43.0427" lon="13.049855"><ele>472.0</ele><time>2026-05-02T12:12:30.982Z</time></trkpt><trkpt lat="43.0428317" lon="13.0499683"><ele>471.6666666666667</ele><time>2026-05-02T12:12:31.982Z</time></trkpt><trkpt lat="43.042965" lon="13.0500817"><ele>471.33333333333337</ele><time>2026-05-02T12:12:32.983Z</time></trkpt><trkpt lat="43.043105" lon="13.0502017"><ele>471.0</ele><time>2026-05-02T12:12:33.981Z</time></trkpt><trkpt lat="43.04325" lon="13.0503233"><ele>471.0</ele><time>2026-05-02T12:12:34.981Z</time></trkpt><trkpt lat="43.0433933" lon="13.05045"><ele>471.0</ele><time>2026-05-02T12:12:35.982Z</time></trkpt><trkpt lat="43.04354" lon="13.0505767"><ele>471.0</ele><time>2026-05-02T12:12:36.981Z</time></trkpt><trkpt lat="43.0436883" lon="13.0507017"><ele>471.33333333333337</ele><time>2026-05-02T12:12:37.982Z</time></trkpt><trkpt lat="43.043835" lon="13.0508283"><ele>471.6666666666667</ele><time>2026-05-02T12:12:38.983Z</time></trkpt><trkpt lat="43.043985" lon="13.0509567"><ele>472.0</ele><time>2026-05-02T12:12:39.982Z</time></trkpt><trkpt lat="43.0441333" lon="13.051085"><ele>472.0</ele><time>2026-05-02T12:12:40.982Z</time></trkpt><trkpt lat="43.044285" lon="13.0512117"><ele>472.0</ele><time>2026-05-02T12:12:41.982Z</time></trkpt><trkpt lat="43.0444317" lon="13.0513317"><ele>472.0</ele><time>2026-05-02T12:12:42.984Z</time></trkpt><trkpt lat="43.0445733" lon="13.05145"><ele>472.0</ele><time>2026-05-02T12:12:43.981Z</time></trkpt><trkpt lat="43.0447133" lon="13.0515683"><ele>472.0</ele><time>2026-05-02T12:12:44.983Z</time></trkpt><trkpt lat="43.0448533" lon="13.0516817"><ele>472.0</ele><time>2026-05-02T12:12:45.982Z</time></trkpt><trkpt lat="43.0449983" lon="13.05179"><ele>470.6666666666667</ele><time>2026-05-02T12:12:46.981Z</time></trkpt><trkpt lat="43.0451517" lon="13.051885"><ele>469.33333333333337</ele><time>2026-05-02T12:12:47.982Z</time></trkpt><trkpt lat="43.04531" lon="13.051965"><ele>468.0</ele><time>2026-05-02T12:12:48.982Z</time></trkpt><trkpt lat="43.0454767" lon="13.052035"><ele>468.0</ele><time>2026-05-02T12:12:49.982Z</time></trkpt><trkpt lat="43.0456483" lon="13.0520817"><ele>468.0</ele><time>2026-05-02T12:12:50.983Z</time></trkpt><trkpt lat="43.045825" lon="13.0521083"><ele>468.0</ele><time>2026-05-02T12:12:51.981Z</time></trkpt><trkpt lat="43.046005" lon="13.05212"><ele>468.33333333333337</ele><time>2026-05-02T12:12:52.983Z</time></trkpt><trkpt lat="43.0461817" lon="13.05212"><ele>468.6666666666667</ele><time>2026-05-02T12:12:53.981Z</time></trkpt><trkpt lat="43.0463483" lon="13.05212"><ele>469.0</ele><time>2026-05-02T12:12:54.981Z</time></trkpt><trkpt lat="43.0465" lon="13.05213"><ele>469.6666666666667</ele><time>2026-05-02T12:12:55.982Z</time></trkpt><trkpt lat="43.046645" lon="13.052155"><ele>470.33333333333337</ele><time>2026-05-02T12:12:56.981Z</time></trkpt><trkpt lat="43.04679" lon="13.052195"><ele>471.0</ele><time>2026-05-02T12:12:57.981Z</time></trkpt><trkpt lat="43.0469417" lon="13.0522483"><ele>471.0</ele><time>2026-05-02T12:12:58.981Z</time></trkpt><trkpt lat="43.0470967" lon="13.052315"><ele>471.0</ele><time>2026-05-02T12:12:59.981Z</time></trkpt><trkpt lat="43.0472533" lon="13.05239"><ele>471.0</ele><time>2026-05-02T12:13:00.982Z</time></trkpt><trkpt lat="43.047415" lon="13.0524667"><ele>469.0</ele><time>2026-05-02T12:13:01.983Z</time></trkpt><trkpt lat="43.0475783" lon="13.052545"><ele>467.0</ele><time>2026-05-02T12:13:02.983Z</time></trkpt><trkpt lat="43.0477483" lon="13.0526267"><ele>465.0</ele><time>2026-05-02T12:13:03.981Z</time></trkpt><trkpt lat="43.0479217" lon="13.0527133"><ele>465.0</ele><time>2026-05-02T12:13:04.981Z</time></trkpt><trkpt lat="43.0480967" lon="13.0528"><ele>465.0</ele><time>2026-05-02T12:13:05.981Z</time></trkpt><trkpt lat="43.0482783" lon="13.05289"><ele>465.0</ele><time>2026-05-02T12:13:06.982Z</time></trkpt><trkpt lat="43.0484617" lon="13.0529833"><ele>465.33333333333337</ele><time>2026-05-02T12:13:07.982Z</time></trkpt><trkpt lat="43.0486483" lon="13.05308"><ele>465.6666666666667</ele><time>2026-05-02T12:13:08.982Z</time></trkpt><trkpt lat="43.0488317" lon="13.0531717"><ele>466.0</ele><time>2026-05-02T12:13:09.983Z</time></trkpt><trkpt lat="43.049005" lon="13.0532567"><ele>465.0</ele><time>2026-05-02T12:13:10.982Z</time></trkpt><trkpt lat="43.049165" lon="13.05334"><ele>464.0</ele><time>2026-05-02T12:13:11.982Z</time></trkpt><trkpt lat="43.049315" lon="13.0534267"><ele>463.0</ele><time>2026-05-02T12:13:12.982Z</time></trkpt><trkpt lat="43.0494467" lon="13.0535183"><ele>463.0</ele><time>2026-05-02T12:13:13.981Z</time></trkpt><trkpt lat="43.0495683" lon="13.0536133"><ele>463.0</ele><time>2026-05-02T12:13:14.983Z</time></trkpt><trkpt lat="43.0496767" lon="13.05371"><ele>463.0</ele><time>2026-05-02T12:13:15.981Z</time></trkpt><trkpt lat="43.0497767" lon="13.053805"><ele>463.0</ele><time>2026-05-02T12:13:16.982Z</time></trkpt><trkpt lat="43.049875" lon="13.0539017"><ele>463.25</ele><time>2026-05-02T12:13:17.983Z</time></trkpt><trkpt lat="43.04998" lon="13.0540017"><ele>463.5</ele><time>2026-05-02T12:13:18.983Z</time></trkpt><trkpt lat="43.0500917" lon="13.0541067"><ele>463.75</ele><time>2026-05-02T12:13:19.982Z</time></trkpt><trkpt lat="43.0502017" lon="13.05421"><ele>464.0</ele><time>2026-05-02T12:13:20.982Z</time></trkpt><trkpt lat="43.050305" lon="13.054305"><ele>460.0</ele><time>2026-05-02T12:13:21.982Z</time></trkpt></trkseg></trk></gpx>